<?xml version='1.0' encoding='UTF-8'?><gpx version="1.1" creator="JPX - https://github.com/jenetics/jpx" xmlns="http://www.topografix.com/GPX/1/1"><trk><trkseg><trkpt lat="43.378755" lon="13.2526633"><ele>247.0</ele><time>2026-04-26T06:43:30.233Z</time></trkpt><trkpt lat="43.3786733" lon="13.2526833"><ele>247.0</ele><time>2026-04-26T06:43:32.231Z</time></trkpt><trkpt lat="43.3786317" lon="13.2527983"><ele>247.0</ele><time>2026-04-26T06:43:35.235Z</time></trkpt><trkpt lat="43.37863" lon="13.2529217"><ele>247.0</ele><time>2026-04-26T06:43:37.232Z</time></trkpt><trkpt lat="43.3786217" lon="13.253075"><ele>247.0</ele><time>2026-04-26T06:43:39.234Z</time></trkpt><trkpt lat="43.378605" lon="13.2532217"><ele>247.0</ele><time>2026-04-26T06:43:41.231Z</time></trkpt><trkpt lat="43.3785617" lon="13.2533733"><ele>247.0</ele><time>2026-04-26T06:43:43.234Z</time></trkpt><trkpt lat="43.378525" lon="13.2534533"><ele>247.0</ele><time>2026-04-26T06:43:44.23Z</time></trkpt><trkpt lat="43.37844" lon="13.2535783"><ele>247.0</ele><time>2026-04-26T06:43:46.238Z</time></trkpt><trkpt lat="43.3783633" lon="13.2537017"><ele>247.0</ele><time>2026-04-26T06:43:48.234Z</time></trkpt><trkpt lat="43.3782783" lon="13.253825"><ele>246.99999999999997</ele><time>2026-04-26T06:43:50.233Z</time></trkpt><trkpt lat="43.3782367" lon="13.2538967"><ele>247.0</ele><time>2026-04-26T06:43:51.241Z</time></trkpt><trkpt lat="43.3781983" lon="13.2539683"><ele>247.0</ele><time>2026-04-26T06:43:52.232Z</time></trkpt><trkpt lat="43.3781567" lon="13.2541333"><ele>247.0</ele><time>2026-04-26T06:43:54.23Z</time></trkpt><trkpt lat="43.3781833" lon="13.2542717"><ele>246.99999999999997</ele><time>2026-04-26T06:43:56.234Z</time></trkpt><trkpt lat="43.3782317" lon="13.254335"><ele>247.0</ele><time>2026-04-26T06:43:57.231Z</time></trkpt><trkpt lat="43.3783183" lon="13.2544333"><ele>246.49999999999997</ele><time>2026-04-26T06:43:59.238Z</time></trkpt><trkpt lat="43.3783717" lon="13.254495"><ele>246.0</ele><time>2026-04-26T06:44:02.232Z</time></trkpt><trkpt lat="43.3783733" lon="13.2546017"><ele>245.5</ele><time>2026-04-26T06:44:05.236Z</time></trkpt><trkpt lat="43.3783167" lon="13.254705"><ele>245.0</ele><time>2026-04-26T06:44:07.231Z</time></trkpt><trkpt lat="43.37824" lon="13.254825"><ele>244.49999999999997</ele><time>2026-04-26T06:44:09.237Z</time></trkpt><trkpt lat="43.378195" lon="13.25489"><ele>244.0</ele><time>2026-04-26T06:44:10.232Z</time></trkpt><trkpt lat="43.37815" lon="13.25496"><ele>243.66666666666666</ele><time>2026-04-26T06:44:11.237Z</time></trkpt><trkpt lat="43.3781067" lon="13.2550383"><ele>243.33333333333331</ele><time>2026-04-26T06:44:12.234Z</time></trkpt><trkpt lat="43.37806" lon="13.2551167"><ele>243.0</ele><time>2026-04-26T06:44:13.235Z</time></trkpt><trkpt lat="43.3780183" lon="13.2552033"><ele>242.66666666666669</ele><time>2026-04-26T06:44:14.239Z</time></trkpt><trkpt lat="43.3779733" lon="13.2552883"><ele>242.33333333333334</ele><time>2026-04-26T06:44:15.237Z</time></trkpt><trkpt lat="43.3779233" lon="13.255375"><ele>242.0</ele><time>2026-04-26T06:44:16.231Z</time></trkpt><trkpt lat="43.3778733" lon="13.2554683"><ele>242.83333333333334</ele><time>2026-04-26T06:44:17.233Z</time></trkpt><trkpt lat="43.3778233" lon="13.255565"><ele>243.66666666666669</ele><time>2026-04-26T06:44:18.233Z</time></trkpt><trkpt lat="43.3777733" lon="13.2556583"><ele>244.5</ele><time>2026-04-26T06:44:19.24Z</time></trkpt><trkpt lat="43.377725" lon="13.255745"><ele>245.33333333333331</ele><time>2026-04-26T06:44:20.233Z</time></trkpt><trkpt lat="43.3776833" lon="13.2558283"><ele>246.16666666666666</ele><time>2026-04-26T06:44:21.233Z</time></trkpt><trkpt lat="43.3776467" lon="13.2559083"><ele>247.0</ele><time>2026-04-26T06:44:22.237Z</time></trkpt><trkpt lat="43.3775867" lon="13.2560483"><ele>247.0</ele><time>2026-04-26T06:44:24.237Z</time></trkpt><trkpt lat="43.3775767" lon="13.256145"><ele>247.0</ele><time>2026-04-26T06:44:26.237Z</time></trkpt><trkpt lat="43.3775417" lon="13.2562367"><ele>247.0</ele><time>2026-04-26T06:44:29.232Z</time></trkpt><trkpt lat="43.3775883" lon="13.2560917"><ele>247.0</ele><time>2026-04-26T06:48:53.231Z</time></trkpt><trkpt lat="43.3776033" lon="13.2559567"><ele>247.0</ele><time>2026-04-26T06:48:56.232Z</time></trkpt><trkpt lat="43.3776783" lon="13.2558217"><ele>246.99999999999997</ele><time>2026-04-26T06:48:58.233Z</time></trkpt><trkpt lat="43.37772" lon="13.25575"><ele>247.0</ele><time>2026-04-26T06:48:59.234Z</time></trkpt><trkpt lat="43.3777667" lon="13.2556683"><ele>247.0</ele><time>2026-04-26T06:49:00.239Z</time></trkpt><trkpt lat="43.3778167" lon="13.255585"><ele>247.0</ele><time>2026-04-26T06:49:01.234Z</time></trkpt><trkpt lat="43.37787" lon="13.25549"><ele>246.99999999999997</ele><time>2026-04-26T06:49:02.233Z</time></trkpt><trkpt lat="43.3779267" lon="13.255385"><ele>247.0</ele><time>2026-04-26T06:49:03.233Z</time></trkpt><trkpt lat="43.377985" lon="13.2552783"><ele>246.39999999999998</ele><time>2026-04-26T06:49:04.228Z</time></trkpt><trkpt lat="43.3780433" lon="13.25518"><ele>245.79999999999998</ele><time>2026-04-26T06:49:05.232Z</time></trkpt><trkpt lat="43.3780967" lon="13.2550783"><ele>245.2</ele><time>2026-04-26T06:49:06.236Z</time></trkpt><trkpt lat="43.378155" lon="13.2549767"><ele>244.6</ele><time>2026-04-26T06:49:07.232Z</time></trkpt><trkpt lat="43.3782217" lon="13.25487"><ele>244.0</ele><time>2026-04-26T06:49:08.23Z</time></trkpt><trkpt lat="43.3782933" lon="13.2547517"><ele>244.0</ele><time>2026-04-26T06:49:09.227Z</time></trkpt><trkpt lat="43.3783667" lon="13.2546317"><ele>244.0</ele><time>2026-04-26T06:49:10.226Z</time></trkpt><trkpt lat="43.3784417" lon="13.2545017"><ele>244.0</ele><time>2026-04-26T06:49:11.232Z</time></trkpt><trkpt lat="43.3785183" lon="13.2543733"><ele>244.0</ele><time>2026-04-26T06:49:12.235Z</time></trkpt><trkpt lat="43.378595" lon="13.2542483"><ele>244.0</ele><time>2026-04-26T06:49:13.235Z</time></trkpt><trkpt lat="43.37867" lon="13.2541233"><ele>244.0</ele><time>2026-04-26T06:49:14.232Z</time></trkpt><trkpt lat="43.3787467" lon="13.2539933"><ele>244.0</ele><time>2026-04-26T06:49:15.233Z</time></trkpt><trkpt lat="43.3788267" lon="13.253855"><ele>244.0</ele><time>2026-04-26T06:49:16.238Z</time></trkpt><trkpt lat="43.37891" lon="13.2537133"><ele>242.75</ele><time>2026-04-26T06:49:17.231Z</time></trkpt><trkpt lat="43.3789867" lon="13.2535583"><ele>241.5</ele><time>2026-04-26T06:49:18.232Z</time></trkpt><trkpt lat="43.3790517" lon="13.25339"><ele>240.25</ele><time>2026-04-26T06:49:19.234Z</time></trkpt><trkpt lat="43.3790917" lon="13.25321"><ele>239.0</ele><time>2026-04-26T06:49:20.236Z</time></trkpt><trkpt lat="43.379115" lon="13.2530133"><ele>238.0</ele><time>2026-04-26T06:49:21.234Z</time></trkpt><trkpt lat="43.37913" lon="13.252815"><ele>237.0</ele><time>2026-04-26T06:49:22.234Z</time></trkpt><trkpt lat="43.3791433" lon="13.2526167"><ele>236.0</ele><time>2026-04-26T06:49:23.238Z</time></trkpt><trkpt lat="43.3791567" lon="13.2524"><ele>235.0</ele><time>2026-04-26T06:49:24.233Z</time></trkpt><trkpt lat="43.3791717" lon="13.2521817"><ele>234.0</ele><time>2026-04-26T06:49:25.232Z</time></trkpt><trkpt lat="43.3791883" lon="13.2519583"><ele>233.0</ele><time>2026-04-26T06:49:26.231Z</time></trkpt><trkpt lat="43.3792067" lon="13.251735"><ele>232.0</ele><time>2026-04-26T06:49:27.235Z</time></trkpt><trkpt lat="43.3792267" lon="13.2515117"><ele>231.66666666666666</ele><time>2026-04-26T06:49:28.232Z</time></trkpt><trkpt lat="43.3792517" lon="13.2512883"><ele>231.33333333333331</ele><time>2026-04-26T06:49:29.231Z</time></trkpt><trkpt lat="43.3792833" lon="13.2510683"><ele>231.0</ele><time>2026-04-26T06:49:30.232Z</time></trkpt><trkpt lat="43.3793233" lon="13.2508617"><ele>231.0</ele><time>2026-04-26T06:49:31.233Z</time></trkpt><trkpt lat="43.3793683" lon="13.2506567"><ele>231.0</ele><time>2026-04-26T06:49:32.233Z</time></trkpt><trkpt lat="43.379415" lon="13.250455"><ele>231.0</ele><time>2026-04-26T06:49:33.234Z</time></trkpt><trkpt lat="43.379455" lon="13.250255"><ele>232.75</ele><time>2026-04-26T06:49:34.231Z</time></trkpt><trkpt lat="43.3794867" lon="13.2500533"><ele>234.5</ele><time>2026-04-26T06:49:35.231Z</time></trkpt><trkpt lat="43.3795" lon="13.2498483"><ele>236.25</ele><time>2026-04-26T06:49:36.233Z</time></trkpt><trkpt lat="43.3794867" lon="13.249645"><ele>238.0</ele><time>2026-04-26T06:49:37.233Z</time></trkpt><trkpt lat="43.379445" lon="13.2494517"><ele>238.25</ele><time>2026-04-26T06:49:38.235Z</time></trkpt><trkpt lat="43.3793867" lon="13.2492683"><ele>238.5</ele><time>2026-04-26T06:49:39.232Z</time></trkpt><trkpt lat="43.3793233" lon="13.2490917"><ele>238.75</ele><time>2026-04-26T06:49:40.233Z</time></trkpt><trkpt lat="43.3792633" lon="13.2489217"><ele>239.0</ele><time>2026-04-26T06:49:41.237Z</time></trkpt><trkpt lat="43.3792117" lon="13.2487583"><ele>239.25</ele><time>2026-04-26T06:49:42.233Z</time></trkpt><trkpt lat="43.3791883" lon="13.2485967"><ele>239.5</ele><time>2026-04-26T06:49:43.231Z</time></trkpt><trkpt lat="43.3792" lon="13.2484483"><ele>239.75</ele><time>2026-04-26T06:49:44.235Z</time></trkpt><trkpt lat="43.3792433" lon="13.24831"><ele>240.0</ele><time>2026-04-26T06:49:45.235Z</time></trkpt><trkpt lat="43.3793133" lon="13.24817"><ele>240.25</ele><time>2026-04-26T06:49:46.232Z</time></trkpt><trkpt lat="43.3793917" lon="13.2480133"><ele>240.5</ele><time>2026-04-26T06:49:47.231Z</time></trkpt><trkpt lat="43.37946" lon="13.2478367"><ele>240.75</ele><time>2026-04-26T06:49:48.23Z</time></trkpt><trkpt lat="43.379505" lon="13.2476433"><ele>241.0</ele><time>2026-04-26T06:49:49.233Z</time></trkpt><trkpt lat="43.37954" lon="13.24745"><ele>242.0</ele><time>2026-04-26T06:49:50.232Z</time></trkpt><trkpt lat="43.3795633" lon="13.2472533"><ele>243.0</ele><time>2026-04-26T06:49:51.232Z</time></trkpt><trkpt lat="43.3795817" lon="13.247055"><ele>244.0</ele><time>2026-04-26T06:49:52.235Z</time></trkpt><trkpt lat="43.3796" lon="13.2468633"><ele>245.0</ele><time>2026-04-26T06:49:53.231Z</time></trkpt><trkpt lat="43.379595" lon="13.2466717"><ele>245.0</ele><time>2026-04-26T06:49:54.232Z</time></trkpt><trkpt lat="43.3795617" lon="13.246485"><ele>245.0</ele><time>2026-04-26T06:49:55.234Z</time></trkpt><trkpt lat="43.379505" lon="13.24631"><ele>245.0</ele><time>2026-04-26T06:49:56.235Z</time></trkpt><trkpt lat="43.379435" lon="13.2461533"><ele>245.0</ele><time>2026-04-26T06:49:57.232Z</time></trkpt><trkpt lat="43.37937" lon="13.24601"><ele>245.8</ele><time>2026-04-26T06:49:58.234Z</time></trkpt><trkpt lat="43.37933" lon="13.245875"><ele>246.6</ele><time>2026-04-26T06:49:59.232Z</time></trkpt><trkpt lat="43.37932" lon="13.2457433"><ele>247.39999999999998</ele><time>2026-04-26T06:50:00.234Z</time></trkpt><trkpt lat="43.3793583" lon="13.2456433"><ele>248.2</ele><time>2026-04-26T06:50:01.236Z</time></trkpt><trkpt lat="43.3794333" lon="13.2455533"><ele>249.0</ele><time>2026-04-26T06:50:02.232Z</time></trkpt><trkpt lat="43.3795467" lon="13.245465"><ele>249.0</ele><time>2026-04-26T06:50:03.236Z</time></trkpt><trkpt lat="43.3796733" lon="13.2454333"><ele>249.0</ele><time>2026-04-26T06:50:04.231Z</time></trkpt><trkpt lat="43.3798083" lon="13.2454383"><ele>249.0</ele><time>2026-04-26T06:50:05.236Z</time></trkpt><trkpt lat="43.3799433" lon="13.245475"><ele>249.0</ele><time>2026-04-26T06:50:06.232Z</time></trkpt><trkpt lat="43.3800733" lon="13.24554"><ele>251.5</ele><time>2026-04-26T06:50:07.231Z</time></trkpt><trkpt lat="43.3801983" lon="13.24562"><ele>254.0</ele><time>2026-04-26T06:50:08.233Z</time></trkpt><trkpt lat="43.3803167" lon="13.2457017"><ele>256.5</ele><time>2026-04-26T06:50:09.232Z</time></trkpt><trkpt lat="43.3804317" lon="13.2457833"><ele>259.0</ele><time>2026-04-26T06:50:10.232Z</time></trkpt><trkpt lat="43.38055" lon="13.2458633"><ele>261.5</ele><time>2026-04-26T06:50:11.232Z</time></trkpt><trkpt lat="43.3806633" lon="13.24594"><ele>264.0</ele><time>2026-04-26T06:50:12.232Z</time></trkpt><trkpt lat="43.3807733" lon="13.2460067"><ele>266.5</ele><time>2026-04-26T06:50:13.247Z</time></trkpt><trkpt lat="43.3808783" lon="13.2460667"><ele>269.0</ele><time>2026-04-26T06:50:14.232Z</time></trkpt><trkpt lat="43.3809783" lon="13.24611"><ele>269.0</ele><time>2026-04-26T06:50:15.234Z</time></trkpt><trkpt lat="43.3810767" lon="13.246135"><ele>269.0</ele><time>2026-04-26T06:50:16.235Z</time></trkpt><trkpt lat="43.3811667" lon="13.2461183"><ele>269.0</ele><time>2026-04-26T06:50:17.232Z</time></trkpt><trkpt lat="43.38124" lon="13.24605"><ele>269.0</ele><time>2026-04-26T06:50:18.234Z</time></trkpt><trkpt lat="43.3812783" lon="13.24595"><ele>269.0</ele><time>2026-04-26T06:50:19.235Z</time></trkpt><trkpt lat="43.38128" lon="13.245835"><ele>269.0</ele><time>2026-04-26T06:50:20.236Z</time></trkpt><trkpt lat="43.3812483" lon="13.2457067"><ele>270.75</ele><time>2026-04-26T06:50:21.245Z</time></trkpt><trkpt lat="43.3811867" lon="13.2455767"><ele>272.5</ele><time>2026-04-26T06:50:22.23Z</time></trkpt><trkpt lat="43.3811167" lon="13.2454433"><ele>274.25</ele><time>2026-04-26T06:50:23.234Z</time></trkpt><trkpt lat="43.3810483" lon="13.2453083"><ele>276.0</ele><time>2026-04-26T06:50:24.237Z</time></trkpt><trkpt lat="43.3809783" lon="13.24517"><ele>276.0</ele><time>2026-04-26T06:50:25.235Z</time></trkpt><trkpt lat="43.3809067" lon="13.245025"><ele>276.0</ele><time>2026-04-26T06:50:26.233Z</time></trkpt><trkpt lat="43.3808317" lon="13.2448767"><ele>276.0</ele><time>2026-04-26T06:50:27.233Z</time></trkpt><trkpt lat="43.380755" lon="13.2447217"><ele>276.0</ele><time>2026-04-26T06:50:28.233Z</time></trkpt><trkpt lat="43.3806783" lon="13.2445617"><ele>277.0</ele><time>2026-04-26T06:50:29.232Z</time></trkpt><trkpt lat="43.3806017" lon="13.2444"><ele>278.0</ele><time>2026-04-26T06:50:30.234Z</time></trkpt><trkpt lat="43.38053" lon="13.24423"><ele>279.0</ele><time>2026-04-26T06:50:31.231Z</time></trkpt><trkpt lat="43.3804667" lon="13.2440583"><ele>280.0</ele><time>2026-04-26T06:50:32.231Z</time></trkpt><trkpt lat="43.3804117" lon="13.24388"><ele>280.0</ele><time>2026-04-26T06:50:33.234Z</time></trkpt><trkpt lat="43.3803667" lon="13.2436933"><ele>280.0</ele><time>2026-04-26T06:50:34.232Z</time></trkpt><trkpt lat="43.3803217" lon="13.2435067"><ele>280.0</ele><time>2026-04-26T06:50:35.231Z</time></trkpt><trkpt lat="43.3802867" lon="13.243315"><ele>280.0</ele><time>2026-04-26T06:50:36.234Z</time></trkpt><trkpt lat="43.3802583" lon="13.2431233"><ele>282.75</ele><time>2026-04-26T06:50:37.231Z</time></trkpt><trkpt lat="43.3802333" lon="13.24293"><ele>285.5</ele><time>2026-04-26T06:50:38.233Z</time></trkpt><trkpt lat="43.3802117" lon="13.2427383"><ele>288.25</ele><time>2026-04-26T06:50:39.233Z</time></trkpt><trkpt lat="43.3801867" lon="13.24255"><ele>291.0</ele><time>2026-04-26T06:50:40.234Z</time></trkpt><trkpt lat="43.3801617" lon="13.242365"><ele>292.5</ele><time>2026-04-26T06:50:41.237Z</time></trkpt><trkpt lat="43.3801283" lon="13.2421917"><ele>294.0</ele><time>2026-04-26T06:50:42.233Z</time></trkpt><trkpt lat="43.3800717" lon="13.242025"><ele>295.5</ele><time>2026-04-26T06:50:43.234Z</time></trkpt><trkpt lat="43.3799917" lon="13.24188"><ele>297.0</ele><time>2026-04-26T06:50:44.233Z</time></trkpt><trkpt lat="43.3799" lon="13.2417433"><ele>297.0</ele><time>2026-04-26T06:50:45.231Z</time></trkpt><trkpt lat="43.379805" lon="13.2416067"><ele>297.0</ele><time>2026-04-26T06:50:46.232Z</time></trkpt><trkpt lat="43.3797083" lon="13.2414683"><ele>297.0</ele><time>2026-04-26T06:50:47.231Z</time></trkpt><trkpt lat="43.3796167" lon="13.2413283"><ele>297.0</ele><time>2026-04-26T06:50:48.235Z</time></trkpt><trkpt lat="43.379525" lon="13.241185"><ele>298.75</ele><time>2026-04-26T06:50:49.238Z</time></trkpt><trkpt lat="43.3794333" lon="13.2410417"><ele>300.5</ele><time>2026-04-26T06:50:50.233Z</time></trkpt><trkpt lat="43.3793433" lon="13.2408933"><ele>302.25</ele><time>2026-04-26T06:50:51.236Z</time></trkpt><trkpt lat="43.3792533" lon="13.2407417"><ele>304.0</ele><time>2026-04-26T06:50:52.233Z</time></trkpt><trkpt lat="43.379175" lon="13.2405817"><ele>305.5</ele><time>2026-04-26T06:50:53.235Z</time></trkpt><trkpt lat="43.3791133" lon="13.2404083"><ele>307.0</ele><time>2026-04-26T06:50:54.229Z</time></trkpt><trkpt lat="43.3790783" lon="13.2402283"><ele>308.5</ele><time>2026-04-26T06:50:55.231Z</time></trkpt><trkpt lat="43.3790617" lon="13.2400467"><ele>310.0</ele><time>2026-04-26T06:50:56.231Z</time></trkpt><trkpt lat="43.3790533" lon="13.23986"><ele>311.5</ele><time>2026-04-26T06:50:57.237Z</time></trkpt><trkpt lat="43.3790583" lon="13.239675"><ele>313.0</ele><time>2026-04-26T06:50:58.235Z</time></trkpt><trkpt lat="43.3790467" lon="13.239485"><ele>314.5</ele><time>2026-04-26T06:50:59.233Z</time></trkpt><trkpt lat="43.3790183" lon="13.2393"><ele>316.0</ele><time>2026-04-26T06:51:00.233Z</time></trkpt><trkpt lat="43.3789917" lon="13.2391183"><ele>316.75</ele><time>2026-04-26T06:51:01.233Z</time></trkpt><trkpt lat="43.3789683" lon="13.2389333"><ele>317.5</ele><time>2026-04-26T06:51:02.235Z</time></trkpt><trkpt lat="43.3789433" lon="13.2387467"><ele>318.25</ele><time>2026-04-26T06:51:03.234Z</time></trkpt><trkpt lat="43.37892" lon="13.2385567"><ele>319.0</ele><time>2026-04-26T06:51:04.231Z</time></trkpt><trkpt lat="43.3788967" lon="13.2383633"><ele>319.0</ele><time>2026-04-26T06:51:05.23Z</time></trkpt><trkpt lat="43.3788867" lon="13.2381717"><ele>319.0</ele><time>2026-04-26T06:51:06.235Z</time></trkpt><trkpt lat="43.37888" lon="13.23798"><ele>319.0</ele><time>2026-04-26T06:51:07.23Z</time></trkpt><trkpt lat="43.3788767" lon="13.2377883"><ele>319.0</ele><time>2026-04-26T06:51:08.234Z</time></trkpt><trkpt lat="43.3788767" lon="13.2376017"><ele>320.25</ele><time>2026-04-26T06:51:09.234Z</time></trkpt><trkpt lat="43.3788833" lon="13.2374167"><ele>321.5</ele><time>2026-04-26T06:51:10.231Z</time></trkpt><trkpt lat="43.3788983" lon="13.2372333"><ele>322.75</ele><time>2026-04-26T06:51:11.239Z</time></trkpt><trkpt lat="43.3789067" lon="13.2370467"><ele>324.0</ele><time>2026-04-26T06:51:12.245Z</time></trkpt><trkpt lat="43.378915" lon="13.2368583"><ele>326.0</ele><time>2026-04-26T06:51:13.232Z</time></trkpt><trkpt lat="43.3789233" lon="13.2366717"><ele>328.0</ele><time>2026-04-26T06:51:14.233Z</time></trkpt><trkpt lat="43.3789333" lon="13.2364867"><ele>330.0</ele><time>2026-04-26T06:51:15.236Z</time></trkpt><trkpt lat="43.3789417" lon="13.2362967"><ele>332.0</ele><time>2026-04-26T06:51:16.232Z</time></trkpt><trkpt lat="43.3789483" lon="13.2361067"><ele>333.25</ele><time>2026-04-26T06:51:17.241Z</time></trkpt><trkpt lat="43.3789567" lon="13.2359167"><ele>334.5</ele><time>2026-04-26T06:51:18.236Z</time></trkpt><trkpt lat="43.3789717" lon="13.23573"><ele>335.75</ele><time>2026-04-26T06:51:19.232Z</time></trkpt><trkpt lat="43.379" lon="13.23555"><ele>337.0</ele><time>2026-04-26T06:51:20.234Z</time></trkpt><trkpt lat="43.3790483" lon="13.2353783"><ele>338.5</ele><time>2026-04-26T06:51:21.231Z</time></trkpt><trkpt lat="43.3791083" lon="13.2352167"><ele>340.0</ele><time>2026-04-26T06:51:22.232Z</time></trkpt><trkpt lat="43.37918" lon="13.2350617"><ele>341.5</ele><time>2026-04-26T06:51:23.231Z</time></trkpt><trkpt lat="43.3792617" lon="13.2349083"><ele>343.0</ele><time>2026-04-26T06:51:24.237Z</time></trkpt><trkpt lat="43.379345" lon="13.234755"><ele>344.5</ele><time>2026-04-26T06:51:25.232Z</time></trkpt><trkpt lat="43.37943" lon="13.2346033"><ele>346.0</ele><time>2026-04-26T06:51:26.232Z</time></trkpt><trkpt lat="43.379515" lon="13.2344517"><ele>347.5</ele><time>2026-04-26T06:51:27.233Z</time></trkpt><trkpt lat="43.379595" lon="13.2342983"><ele>349.0</ele><time>2026-04-26T06:51:28.232Z</time></trkpt><trkpt lat="43.3796767" lon="13.234145"><ele>348.5</ele><time>2026-04-26T06:51:29.23Z</time></trkpt><trkpt lat="43.379755" lon="13.2339883"><ele>348.0</ele><time>2026-04-26T06:51:30.233Z</time></trkpt><trkpt lat="43.3798117" lon="13.233825"><ele>347.5</ele><time>2026-04-26T06:51:31.232Z</time></trkpt><trkpt lat="43.3798333" lon="13.2336567"><ele>347.0</ele><time>2026-04-26T06:51:32.235Z</time></trkpt><trkpt lat="43.3798333" lon="13.2334783"><ele>347.0</ele><time>2026-04-26T06:51:33.234Z</time></trkpt><trkpt lat="43.3798233" lon="13.2332917"><ele>347.0</ele><time>2026-04-26T06:51:34.231Z</time></trkpt><trkpt lat="43.3798033" lon="13.233105"><ele>347.0</ele><time>2026-04-26T06:51:35.23Z</time></trkpt><trkpt lat="43.3797783" lon="13.2329217"><ele>347.0</ele><time>2026-04-26T06:51:36.232Z</time></trkpt><trkpt lat="43.3797533" lon="13.2327383"><ele>348.5</ele><time>2026-04-26T06:51:37.234Z</time></trkpt><trkpt lat="43.3797333" lon="13.2325517"><ele>350.0</ele><time>2026-04-26T06:51:38.234Z</time></trkpt><trkpt lat="43.3797217" lon="13.232365"><ele>351.5</ele><time>2026-04-26T06:51:39.233Z</time></trkpt><trkpt lat="43.3797267" lon="13.23218"><ele>353.0</ele><time>2026-04-26T06:51:40.234Z</time></trkpt><trkpt lat="43.37975" lon="13.2320033"><ele>355.0</ele><time>2026-04-26T06:51:41.234Z</time></trkpt><trkpt lat="43.379795" lon="13.2318317"><ele>357.0</ele><time>2026-04-26T06:51:42.235Z</time></trkpt><trkpt lat="43.3798583" lon="13.2316717"><ele>359.0</ele><time>2026-04-26T06:51:43.232Z</time></trkpt><trkpt lat="43.3799417" lon="13.2315317"><ele>361.0</ele><time>2026-04-26T06:51:44.233Z</time></trkpt><trkpt lat="43.380045" lon="13.231415"><ele>363.75</ele><time>2026-04-26T06:51:45.236Z</time></trkpt><trkpt lat="43.3801533" lon="13.2313133"><ele>366.5</ele><time>2026-04-26T06:51:46.233Z</time></trkpt><trkpt lat="43.3802583" lon="13.23121"><ele>369.25</ele><time>2026-04-26T06:51:47.233Z</time></trkpt><trkpt lat="43.3803467" lon="13.2311067"><ele>372.0</ele><time>2026-04-26T06:51:48.234Z</time></trkpt><trkpt lat="43.380405" lon="13.2309867"><ele>372.0</ele><time>2026-04-26T06:51:49.232Z</time></trkpt><trkpt lat="43.380435" lon="13.2308467"><ele>372.0</ele><time>2026-04-26T06:51:50.231Z</time></trkpt><trkpt lat="43.38044" lon="13.2307017"><ele>372.0</ele><time>2026-04-26T06:51:51.234Z</time></trkpt><trkpt lat="43.3804117" lon="13.23055"><ele>372.0</ele><time>2026-04-26T06:51:52.231Z</time></trkpt><trkpt lat="43.3803667" lon="13.2303983"><ele>372.0</ele><time>2026-04-26T06:51:53.233Z</time></trkpt><trkpt lat="43.3803017" lon="13.2302333"><ele>373.25</ele><time>2026-04-26T06:51:54.233Z</time></trkpt><trkpt lat="43.3802417" lon="13.2300583"><ele>374.5</ele><time>2026-04-26T06:51:55.232Z</time></trkpt><trkpt lat="43.3801933" lon="13.2298817"><ele>375.75</ele><time>2026-04-26T06:51:56.229Z</time></trkpt><trkpt lat="43.3801717" lon="13.2297"><ele>377.0</ele><time>2026-04-26T06:51:57.232Z</time></trkpt><trkpt lat="43.380165" lon="13.2295133"><ele>379.25</ele><time>2026-04-26T06:51:58.231Z</time></trkpt><trkpt lat="43.38018" lon="13.22933"><ele>381.5</ele><time>2026-04-26T06:51:59.229Z</time></trkpt><trkpt lat="43.38022" lon="13.2291567"><ele>383.75</ele><time>2026-04-26T06:52:00.23Z</time></trkpt><trkpt lat="43.3802833" lon="13.2289983"><ele>386.0</ele><time>2026-04-26T06:52:01.231Z</time></trkpt><trkpt lat="43.3803633" lon="13.2288533"><ele>384.8</ele><time>2026-04-26T06:52:02.233Z</time></trkpt><trkpt lat="43.38044" lon="13.2287267"><ele>383.6</ele><time>2026-04-26T06:52:03.233Z</time></trkpt><trkpt lat="43.3805" lon="13.2286067"><ele>382.4</ele><time>2026-04-26T06:52:04.231Z</time></trkpt><trkpt lat="43.380545" lon="13.2284883"><ele>381.2</ele><time>2026-04-26T06:52:05.234Z</time></trkpt><trkpt lat="43.3805517" lon="13.2283567"><ele>380.0</ele><time>2026-04-26T06:52:06.232Z</time></trkpt><trkpt lat="43.3805183" lon="13.2282233"><ele>382.6</ele><time>2026-04-26T06:52:07.231Z</time></trkpt><trkpt lat="43.38046" lon="13.22812"><ele>385.2</ele><time>2026-04-26T06:52:08.235Z</time></trkpt><trkpt lat="43.3803617" lon="13.2280617"><ele>387.79999999999995</ele><time>2026-04-26T06:52:09.235Z</time></trkpt><trkpt lat="43.3802533" lon="13.22805"><ele>390.4</ele><time>2026-04-26T06:52:10.238Z</time></trkpt><trkpt lat="43.3801417" lon="13.228085"><ele>393.0</ele><time>2026-04-26T06:52:11.231Z</time></trkpt><trkpt lat="43.38004" lon="13.2281583"><ele>393.0</ele><time>2026-04-26T06:52:12.232Z</time></trkpt><trkpt lat="43.3799483" lon="13.22827"><ele>393.0</ele><time>2026-04-26T06:52:13.236Z</time></trkpt><trkpt lat="43.3798633" lon="13.2283983"><ele>393.0</ele><time>2026-04-26T06:52:14.234Z</time></trkpt><trkpt lat="43.3797883" lon="13.2285517"><ele>393.0</ele><time>2026-04-26T06:52:15.231Z</time></trkpt><trkpt lat="43.3797267" lon="13.2287133"><ele>395.75</ele><time>2026-04-26T06:52:16.233Z</time></trkpt><trkpt lat="43.3796817" lon="13.2288783"><ele>398.5</ele><time>2026-04-26T06:52:17.231Z</time></trkpt><trkpt lat="43.37963" lon="13.2290283"><ele>401.25</ele><time>2026-04-26T06:52:18.231Z</time></trkpt><trkpt lat="43.3795633" lon="13.2291617"><ele>404.0</ele><time>2026-04-26T06:52:19.234Z</time></trkpt><trkpt lat="43.3794817" lon="13.22927"><ele>404.0</ele><time>2026-04-26T06:52:20.231Z</time></trkpt><trkpt lat="43.3793817" lon="13.229345"><ele>404.0</ele><time>2026-04-26T06:52:21.233Z</time></trkpt><trkpt lat="43.3792683" lon="13.2293833"><ele>404.0</ele><time>2026-04-26T06:52:22.232Z</time></trkpt><trkpt lat="43.37915" lon="13.22939"><ele>404.0</ele><time>2026-04-26T06:52:23.233Z</time></trkpt><trkpt lat="43.3790333" lon="13.2293683"><ele>404.0</ele><time>2026-04-26T06:52:24.231Z</time></trkpt><trkpt lat="43.3789167" lon="13.2293217"><ele>404.0</ele><time>2026-04-26T06:52:25.233Z</time></trkpt><trkpt lat="43.3788017" lon="13.2292717"><ele>404.0</ele><time>2026-04-26T06:52:26.234Z</time></trkpt><trkpt lat="43.378685" lon="13.229225"><ele>404.0</ele><time>2026-04-26T06:52:27.233Z</time></trkpt><trkpt lat="43.3785667" lon="13.22919"><ele>405.75</ele><time>2026-04-26T06:52:28.233Z</time></trkpt><trkpt lat="43.3784483" lon="13.2291733"><ele>407.5</ele><time>2026-04-26T06:52:29.241Z</time></trkpt><trkpt lat="43.37833" lon="13.229185"><ele>409.25</ele><time>2026-04-26T06:52:30.236Z</time></trkpt><trkpt lat="43.3782133" lon="13.2292267"><ele>411.0</ele><time>2026-04-26T06:52:31.234Z</time></trkpt><trkpt lat="43.3780983" lon="13.2292817"><ele>413.75</ele><time>2026-04-26T06:52:32.233Z</time></trkpt><trkpt lat="43.3779867" lon="13.22935"><ele>416.5</ele><time>2026-04-26T06:52:33.233Z</time></trkpt><trkpt lat="43.3778817" lon="13.229435"><ele>419.25</ele><time>2026-04-26T06:52:34.232Z</time></trkpt><trkpt lat="43.3777833" lon="13.2295333"><ele>422.0</ele><time>2026-04-26T06:52:35.23Z</time></trkpt><trkpt lat="43.377695" lon="13.2296467"><ele>422.0</ele><time>2026-04-26T06:52:36.232Z</time></trkpt><trkpt lat="43.3776117" lon="13.2297667"><ele>422.0</ele><time>2026-04-26T06:52:37.233Z</time></trkpt><trkpt lat="43.377525" lon="13.229875"><ele>422.0</ele><time>2026-04-26T06:52:38.231Z</time></trkpt><trkpt lat="43.3774233" lon="13.2299567"><ele>422.0</ele><time>2026-04-26T06:52:39.231Z</time></trkpt><trkpt lat="43.3773117" lon="13.22999"><ele>423.25</ele><time>2026-04-26T06:52:40.234Z</time></trkpt><trkpt lat="43.3772017" lon="13.2299633"><ele>424.5</ele><time>2026-04-26T06:52:41.229Z</time></trkpt><trkpt lat="43.3771017" lon="13.2298883"><ele>425.75</ele><time>2026-04-26T06:52:42.232Z</time></trkpt><trkpt lat="43.377025" lon="13.22977"><ele>427.0</ele><time>2026-04-26T06:52:43.234Z</time></trkpt><trkpt lat="43.3769667" lon="13.2296233"><ele>427.0</ele><time>2026-04-26T06:52:44.234Z</time></trkpt><trkpt lat="43.376905" lon="13.2294767"><ele>427.0</ele><time>2026-04-26T06:52:45.234Z</time></trkpt><trkpt lat="43.3768283" lon="13.229355"><ele>427.0</ele><time>2026-04-26T06:52:46.233Z</time></trkpt><trkpt lat="43.37673" lon="13.2292667"><ele>427.0</ele><time>2026-04-26T06:52:47.233Z</time></trkpt><trkpt lat="43.3766217" lon="13.2292333"><ele>427.0</ele><time>2026-04-26T06:52:48.232Z</time></trkpt><trkpt lat="43.3765033" lon="13.2292417"><ele>427.0</ele><time>2026-04-26T06:52:49.233Z</time></trkpt><trkpt lat="43.3763867" lon="13.2292667"><ele>427.0</ele><time>2026-04-26T06:52:50.232Z</time></trkpt><trkpt lat="43.3762633" lon="13.2292883"><ele>427.0</ele><time>2026-04-26T06:52:51.235Z</time></trkpt><trkpt lat="43.3761417" lon="13.2293017"><ele>429.0</ele><time>2026-04-26T06:52:52.233Z</time></trkpt><trkpt lat="43.3760217" lon="13.2293033"><ele>431.0</ele><time>2026-04-26T06:52:53.231Z</time></trkpt><trkpt lat="43.3759033" lon="13.2292967"><ele>433.0</ele><time>2026-04-26T06:52:54.235Z</time></trkpt><trkpt lat="43.3757817" lon="13.2292883"><ele>435.0</ele><time>2026-04-26T06:52:55.233Z</time></trkpt><trkpt lat="43.3756617" lon="13.22928"><ele>435.0</ele><time>2026-04-26T06:52:56.235Z</time></trkpt><trkpt lat="43.37554" lon="13.2292683"><ele>435.0</ele><time>2026-04-26T06:52:57.233Z</time></trkpt><trkpt lat="43.3754217" lon="13.22924"><ele>435.0</ele><time>2026-04-26T06:52:58.23Z</time></trkpt><trkpt lat="43.3753217" lon="13.2291633"><ele>435.0</ele><time>2026-04-26T06:52:59.233Z</time></trkpt><trkpt lat="43.3752433" lon="13.22905"><ele>436.75</ele><time>2026-04-26T06:53:00.229Z</time></trkpt><trkpt lat="43.3752017" lon="13.2289067"><ele>438.5</ele><time>2026-04-26T06:53:01.233Z</time></trkpt><trkpt lat="43.3751767" lon="13.2287533"><ele>440.25</ele><time>2026-04-26T06:53:02.23Z</time></trkpt><trkpt lat="43.3751933" lon="13.2285917"><ele>442.0</ele><time>2026-04-26T06:53:03.23Z</time></trkpt><trkpt lat="43.3752333" lon="13.2284317"><ele>442.0</ele><time>2026-04-26T06:53:04.225Z</time></trkpt><trkpt lat="43.3752917" lon="13.2282767"><ele>442.0</ele><time>2026-04-26T06:53:05.23Z</time></trkpt><trkpt lat="43.3753617" lon="13.2281317"><ele>442.0</ele><time>2026-04-26T06:53:06.232Z</time></trkpt><trkpt lat="43.3754467" lon="13.2279917"><ele>442.0</ele><time>2026-04-26T06:53:07.233Z</time></trkpt><trkpt lat="43.3755433" lon="13.2278567"><ele>443.25</ele><time>2026-04-26T06:53:08.229Z</time></trkpt><trkpt lat="43.375645" lon="13.2277283"><ele>444.5</ele><time>2026-04-26T06:53:09.233Z</time></trkpt><trkpt lat="43.3757517" lon="13.2276083"><ele>445.75</ele><time>2026-04-26T06:53:10.23Z</time></trkpt><trkpt lat="43.375865" lon="13.2274933"><ele>447.0</ele><time>2026-04-26T06:53:11.232Z</time></trkpt><trkpt lat="43.3759783" lon="13.227375"><ele>448.5</ele><time>2026-04-26T06:53:12.232Z</time></trkpt><trkpt lat="43.37609" lon="13.22726"><ele>450.0</ele><time>2026-04-26T06:53:13.234Z</time></trkpt><trkpt lat="43.3762033" lon="13.227145"><ele>451.5</ele><time>2026-04-26T06:53:14.235Z</time></trkpt><trkpt lat="43.3763233" lon="13.2270333"><ele>453.0</ele><time>2026-04-26T06:53:15.23Z</time></trkpt><trkpt lat="43.37644" lon="13.2269217"><ele>453.5</ele><time>2026-04-26T06:53:16.233Z</time></trkpt><trkpt lat="43.3765533" lon="13.22681"><ele>454.0</ele><time>2026-04-26T06:53:17.23Z</time></trkpt><trkpt lat="43.3766667" lon="13.2266983"><ele>454.5</ele><time>2026-04-26T06:53:18.231Z</time></trkpt><trkpt lat="43.3767783" lon="13.2265867"><ele>455.0</ele><time>2026-04-26T06:53:19.231Z</time></trkpt><trkpt lat="43.3768933" lon="13.2264767"><ele>457.0</ele><time>2026-04-26T06:53:20.233Z</time></trkpt><trkpt lat="43.3770067" lon="13.2263617"><ele>459.0</ele><time>2026-04-26T06:53:21.237Z</time></trkpt><trkpt lat="43.3771217" lon="13.2262467"><ele>461.0</ele><time>2026-04-26T06:53:22.233Z</time></trkpt><trkpt lat="43.3772367" lon="13.226135"><ele>463.0</ele><time>2026-04-26T06:53:23.23Z</time></trkpt><trkpt lat="43.3773517" lon="13.226035"><ele>463.25</ele><time>2026-04-26T06:53:24.232Z</time></trkpt><trkpt lat="43.3774583" lon="13.225935"><ele>463.5</ele><time>2026-04-26T06:53:25.233Z</time></trkpt><trkpt lat="43.3775533" lon="13.2258433"><ele>463.75</ele><time>2026-04-26T06:53:26.232Z</time></trkpt><trkpt lat="43.37764" lon="13.2257517"><ele>464.0</ele><time>2026-04-26T06:53:27.231Z</time></trkpt><trkpt lat="43.3777133" lon="13.2256583"><ele>464.8333333333333</ele><time>2026-04-26T06:53:28.232Z</time></trkpt><trkpt lat="43.3777683" lon="13.225555"><ele>465.66666666666663</ele><time>2026-04-26T06:53:29.233Z</time></trkpt><trkpt lat="43.3778" lon="13.2254467"><ele>466.5</ele><time>2026-04-26T06:53:30.234Z</time></trkpt><trkpt lat="43.377815" lon="13.2253367"><ele>467.33333333333337</ele><time>2026-04-26T06:53:31.232Z</time></trkpt><trkpt lat="43.37782" lon="13.2252367"><ele>468.1666666666667</ele><time>2026-04-26T06:53:32.23Z</time></trkpt><trkpt lat="43.3778017" lon="13.2251317"><ele>469.0</ele><time>2026-04-26T06:53:33.232Z</time></trkpt><trkpt lat="43.3777733" lon="13.2250117"><ele>469.0</ele><time>2026-04-26T06:53:34.232Z</time></trkpt><trkpt lat="43.377735" lon="13.2248833"><ele>469.0</ele><time>2026-04-26T06:53:35.233Z</time></trkpt><trkpt lat="43.3776817" lon="13.22475"><ele>469.0</ele><time>2026-04-26T06:53:36.227Z</time></trkpt><trkpt lat="43.3776117" lon="13.2246183"><ele>469.0</ele><time>2026-04-26T06:53:37.23Z</time></trkpt><trkpt lat="43.3775333" lon="13.22449"><ele>469.5</ele><time>2026-04-26T06:53:38.23Z</time></trkpt><trkpt lat="43.3774483" lon="13.2243667"><ele>470.0</ele><time>2026-04-26T06:53:39.231Z</time></trkpt><trkpt lat="43.3773617" lon="13.2242583"><ele>470.5</ele><time>2026-04-26T06:53:40.231Z</time></trkpt><trkpt lat="43.3772733" lon="13.2241617"><ele>471.0</ele><time>2026-04-26T06:53:41.231Z</time></trkpt><trkpt lat="43.3771817" lon="13.224075"><ele>471.5</ele><time>2026-04-26T06:53:42.232Z</time></trkpt><trkpt lat="43.3770883" lon="13.22399"><ele>472.0</ele><time>2026-04-26T06:53:43.231Z</time></trkpt><trkpt lat="43.3769883" lon="13.2239117"><ele>472.5</ele><time>2026-04-26T06:53:44.24Z</time></trkpt><trkpt lat="43.37688" lon="13.2238417"><ele>473.0</ele><time>2026-04-26T06:53:45.232Z</time></trkpt><trkpt lat="43.37677" lon="13.2237767"><ele>475.5</ele><time>2026-04-26T06:53:46.233Z</time></trkpt><trkpt lat="43.37665" lon="13.223715"><ele>478.0</ele><time>2026-04-26T06:53:47.233Z</time></trkpt><trkpt lat="43.3765267" lon="13.22365"><ele>480.5</ele><time>2026-04-26T06:53:48.232Z</time></trkpt><trkpt lat="43.3764067" lon="13.2235867"><ele>483.0</ele><time>2026-04-26T06:53:49.234Z</time></trkpt><trkpt lat="43.3762883" lon="13.223525"><ele>483.0</ele><time>2026-04-26T06:53:50.233Z</time></trkpt><trkpt lat="43.37617" lon="13.22347"><ele>483.0</ele><time>2026-04-26T06:53:51.233Z</time></trkpt><trkpt lat="43.3760483" lon="13.2234017"><ele>483.0</ele><time>2026-04-26T06:53:52.232Z</time></trkpt><trkpt lat="43.3759217" lon="13.2233367"><ele>483.0</ele><time>2026-04-26T06:53:53.23Z</time></trkpt><trkpt lat="43.37579" lon="13.223265"><ele>483.0</ele><time>2026-04-26T06:53:54.231Z</time></trkpt><trkpt lat="43.37566" lon="13.2231833"><ele>483.0</ele><time>2026-04-26T06:53:55.231Z</time></trkpt><trkpt lat="43.3755317" lon="13.2230967"><ele>483.0</ele><time>2026-04-26T06:53:56.234Z</time></trkpt><trkpt lat="43.3754033" lon="13.2230083"><ele>483.0</ele><time>2026-04-26T06:53:57.236Z</time></trkpt><trkpt lat="43.3752767" lon="13.2229267"><ele>487.5</ele><time>2026-04-26T06:53:58.235Z</time></trkpt><trkpt lat="43.3751433" lon="13.2228667"><ele>492.0</ele><time>2026-04-26T06:53:59.232Z</time></trkpt><trkpt lat="43.3750067" lon="13.2228333"><ele>496.5</ele><time>2026-04-26T06:54:00.233Z</time></trkpt><trkpt lat="43.3748633" lon="13.2228283"><ele>501.0</ele><time>2026-04-26T06:54:01.232Z</time></trkpt><trkpt lat="43.3747183" lon="13.22284"><ele>502.0</ele><time>2026-04-26T06:54:02.232Z</time></trkpt><trkpt lat="43.3745767" lon="13.222855"><ele>503.0</ele><time>2026-04-26T06:54:03.235Z</time></trkpt><trkpt lat="43.3744333" lon="13.2228767"><ele>504.0</ele><time>2026-04-26T06:54:04.23Z</time></trkpt><trkpt lat="43.3742933" lon="13.2229"><ele>505.0</ele><time>2026-04-26T06:54:05.231Z</time></trkpt><trkpt lat="43.37416" lon="13.22292"><ele>505.0</ele><time>2026-04-26T06:54:06.236Z</time></trkpt><trkpt lat="43.3740333" lon="13.2229417"><ele>505.0</ele><time>2026-04-26T06:54:07.233Z</time></trkpt><trkpt lat="43.3739183" lon="13.22296"><ele>505.0</ele><time>2026-04-26T06:54:08.233Z</time></trkpt><trkpt lat="43.3738133" lon="13.22298"><ele>505.0</ele><time>2026-04-26T06:54:09.234Z</time></trkpt><trkpt lat="43.3737083" lon="13.2229883"><ele>505.83333333333337</ele><time>2026-04-26T06:54:10.232Z</time></trkpt><trkpt lat="43.3736083" lon="13.22298"><ele>506.6666666666667</ele><time>2026-04-26T06:54:11.231Z</time></trkpt><trkpt lat="43.3735317" lon="13.222925"><ele>507.5</ele><time>2026-04-26T06:54:12.232Z</time></trkpt><trkpt lat="43.3734883" lon="13.2228317"><ele>508.33333333333337</ele><time>2026-04-26T06:54:13.231Z</time></trkpt><trkpt lat="43.373475" lon="13.2227233"><ele>509.1666666666667</ele><time>2026-04-26T06:54:14.235Z</time></trkpt><trkpt lat="43.3735117" lon="13.2226117"><ele>510.0</ele><time>2026-04-26T06:54:15.234Z</time></trkpt><trkpt lat="43.3735717" lon="13.222515"><ele>510.0</ele><time>2026-04-26T06:54:16.23Z</time></trkpt><trkpt lat="43.3736533" lon="13.2224367"><ele>510.0</ele><time>2026-04-26T06:54:17.234Z</time></trkpt><trkpt lat="43.3737467" lon="13.2223733"><ele>510.0</ele><time>2026-04-26T06:54:18.231Z</time></trkpt><trkpt lat="43.3738467" lon="13.22231"><ele>510.0</ele><time>2026-04-26T06:54:19.235Z</time></trkpt><trkpt lat="43.3739483" lon="13.2222433"><ele>510.0</ele><time>2026-04-26T06:54:20.233Z</time></trkpt><trkpt lat="43.37405" lon="13.2221717"><ele>513.0</ele><time>2026-04-26T06:54:21.237Z</time></trkpt><trkpt lat="43.37415" lon="13.2220967"><ele>516.0</ele><time>2026-04-26T06:54:22.231Z</time></trkpt><trkpt lat="43.3742517" lon="13.2220183"><ele>519.0</ele><time>2026-04-26T06:54:23.234Z</time></trkpt><trkpt lat="43.374355" lon="13.2219433"><ele>522.0</ele><time>2026-04-26T06:54:24.234Z</time></trkpt><trkpt lat="43.37446" lon="13.2218767"><ele>522.0</ele><time>2026-04-26T06:54:25.232Z</time></trkpt><trkpt lat="43.3745783" lon="13.221825"><ele>522.0</ele><time>2026-04-26T06:54:26.234Z</time></trkpt><trkpt lat="43.374705" lon="13.2217867"><ele>522.0</ele><time>2026-04-26T06:54:27.233Z</time></trkpt><trkpt lat="43.3748317" lon="13.2217717"><ele>522.0</ele><time>2026-04-26T06:54:28.233Z</time></trkpt><trkpt lat="43.37496" lon="13.2217733"><ele>523.75</ele><time>2026-04-26T06:54:29.232Z</time></trkpt><trkpt lat="43.3750883" lon="13.22179"><ele>525.5</ele><time>2026-04-26T06:54:30.233Z</time></trkpt><trkpt lat="43.3752233" lon="13.2218183"><ele>527.25</ele><time>2026-04-26T06:54:31.234Z</time></trkpt><trkpt lat="43.3753567" lon="13.2218583"><ele>529.0</ele><time>2026-04-26T06:54:32.232Z</time></trkpt><trkpt lat="43.37549" lon="13.221895"><ele>529.5</ele><time>2026-04-26T06:54:33.236Z</time></trkpt><trkpt lat="43.375625" lon="13.2219183"><ele>530.0</ele><time>2026-04-26T06:54:34.236Z</time></trkpt><trkpt lat="43.37575" lon="13.2218967"><ele>530.5</ele><time>2026-04-26T06:54:35.234Z</time></trkpt><trkpt lat="43.3758667" lon="13.2218467"><ele>531.0</ele><time>2026-04-26T06:54:36.23Z</time></trkpt><trkpt lat="43.37598" lon="13.2217683"><ele>531.0</ele><time>2026-04-26T06:54:37.234Z</time></trkpt><trkpt lat="43.3760783" lon="13.2216767"><ele>531.0</ele><time>2026-04-26T06:54:38.235Z</time></trkpt><trkpt lat="43.3761617" lon="13.2215767"><ele>531.0</ele><time>2026-04-26T06:54:39.234Z</time></trkpt><trkpt lat="43.376235" lon="13.2214633"><ele>531.0</ele><time>2026-04-26T06:54:40.232Z</time></trkpt><trkpt lat="43.3762883" lon="13.2213383"><ele>531.0</ele><time>2026-04-26T06:54:41.233Z</time></trkpt><trkpt lat="43.3763417" lon="13.2211917"><ele>530.5</ele><time>2026-04-26T06:54:42.234Z</time></trkpt><trkpt lat="43.376385" lon="13.221035"><ele>530.0</ele><time>2026-04-26T06:54:43.235Z</time></trkpt><trkpt lat="43.376425" lon="13.2208733"><ele>529.5</ele><time>2026-04-26T06:54:44.233Z</time></trkpt><trkpt lat="43.3764717" lon="13.2207083"><ele>529.0</ele><time>2026-04-26T06:54:45.232Z</time></trkpt><trkpt lat="43.3765267" lon="13.22055"><ele>534.5</ele><time>2026-04-26T06:54:46.235Z</time></trkpt><trkpt lat="43.3765917" lon="13.2204033"><ele>540.0</ele><time>2026-04-26T06:54:47.235Z</time></trkpt><trkpt lat="43.37667" lon="13.220265"><ele>545.5</ele><time>2026-04-26T06:54:48.233Z</time></trkpt><trkpt lat="43.3767567" lon="13.2201383"><ele>551.0</ele><time>2026-04-26T06:54:49.231Z</time></trkpt><trkpt lat="43.3768433" lon="13.220015"><ele>551.0</ele><time>2026-04-26T06:54:50.234Z</time></trkpt><trkpt lat="43.376925" lon="13.219895"><ele>551.0</ele><time>2026-04-26T06:54:51.234Z</time></trkpt><trkpt lat="43.3769983" lon="13.2197683"><ele>551.0</ele><time>2026-04-26T06:54:52.235Z</time></trkpt><trkpt lat="43.3770517" lon="13.2196317"><ele>551.0</ele><time>2026-04-26T06:54:53.232Z</time></trkpt><trkpt lat="43.3771" lon="13.2194883"><ele>552.25</ele><time>2026-04-26T06:54:54.235Z</time></trkpt><trkpt lat="43.3771517" lon="13.219345"><ele>553.5</ele><time>2026-04-26T06:54:55.237Z</time></trkpt><trkpt lat="43.3772133" lon="13.2192067"><ele>554.75</ele><time>2026-04-26T06:54:56.233Z</time></trkpt><trkpt lat="43.3772817" lon="13.2190767"><ele>556.0</ele><time>2026-04-26T06:54:57.235Z</time></trkpt><trkpt lat="43.3773533" lon="13.2189467"><ele>556.0</ele><time>2026-04-26T06:54:58.236Z</time></trkpt><trkpt lat="43.37743" lon="13.2188183"><ele>556.0</ele><time>2026-04-26T06:54:59.229Z</time></trkpt><trkpt lat="43.37751" lon="13.2186917"><ele>556.0</ele><time>2026-04-26T06:55:00.234Z</time></trkpt><trkpt lat="43.3775917" lon="13.2185617"><ele>556.0</ele><time>2026-04-26T06:55:01.233Z</time></trkpt><trkpt lat="43.377675" lon="13.2184317"><ele>556.0</ele><time>2026-04-26T06:55:02.233Z</time></trkpt><trkpt lat="43.3777567" lon="13.218295"><ele>556.0</ele><time>2026-04-26T06:55:03.234Z</time></trkpt><trkpt lat="43.3778383" lon="13.2181583"><ele>556.0</ele><time>2026-04-26T06:55:04.231Z</time></trkpt><trkpt lat="43.3779217" lon="13.2180267"><ele>556.0</ele><time>2026-04-26T06:55:05.231Z</time></trkpt><trkpt lat="43.3780067" lon="13.2178983"><ele>556.0</ele><time>2026-04-26T06:55:06.231Z</time></trkpt><trkpt lat="43.3780933" lon="13.21777"><ele>556.0</ele><time>2026-04-26T06:55:07.235Z</time></trkpt><trkpt lat="43.3781783" lon="13.2176367"><ele>556.0</ele><time>2026-04-26T06:55:08.232Z</time></trkpt><trkpt lat="43.37826" lon="13.2175017"><ele>556.0</ele><time>2026-04-26T06:55:09.236Z</time></trkpt><trkpt lat="43.37834" lon="13.217365"><ele>557.25</ele><time>2026-04-26T06:55:10.235Z</time></trkpt><trkpt lat="43.37842" lon="13.2172317"><ele>558.5</ele><time>2026-04-26T06:55:11.232Z</time></trkpt><trkpt lat="43.3784983" lon="13.2171017"><ele>559.75</ele><time>2026-04-26T06:55:12.234Z</time></trkpt><trkpt lat="43.37857" lon="13.21697"><ele>561.0</ele><time>2026-04-26T06:55:13.233Z</time></trkpt><trkpt lat="43.378625" lon="13.2168367"><ele>561.0</ele><time>2026-04-26T06:55:14.232Z</time></trkpt><trkpt lat="43.3786517" lon="13.21671"><ele>561.0</ele><time>2026-04-26T06:55:15.232Z</time></trkpt><trkpt lat="43.3786483" lon="13.21659"><ele>561.0</ele><time>2026-04-26T06:55:16.23Z</time></trkpt><trkpt lat="43.378635" lon="13.2164783"><ele>561.0</ele><time>2026-04-26T06:55:17.233Z</time></trkpt><trkpt lat="43.3786033" lon="13.2163867"><ele>561.0</ele><time>2026-04-26T06:55:18.233Z</time></trkpt><trkpt lat="43.3785733" lon="13.2163083"><ele>561.0</ele><time>2026-04-26T06:55:19.233Z</time></trkpt><trkpt lat="43.3785133" lon="13.21618"><ele>562.8</ele><time>2026-04-26T06:55:21.245Z</time></trkpt><trkpt lat="43.37847" lon="13.2160883"><ele>564.6</ele><time>2026-04-26T06:55:23.24Z</time></trkpt><trkpt lat="43.378395" lon="13.2160367"><ele>566.4</ele><time>2026-04-26T06:55:26.236Z</time></trkpt><trkpt lat="43.3782817" lon="13.216095"><ele>568.2</ele><time>2026-04-26T06:55:28.232Z</time></trkpt><trkpt lat="43.37821" lon="13.2161567"><ele>570.0</ele><time>2026-04-26T06:55:29.233Z</time></trkpt><trkpt lat="43.3781333" lon="13.2162267"><ele>570.0</ele><time>2026-04-26T06:55:30.234Z</time></trkpt><trkpt lat="43.3780483" lon="13.2163"><ele>570.0</ele><time>2026-04-26T06:55:31.233Z</time></trkpt><trkpt lat="43.377955" lon="13.2163717"><ele>570.0</ele><time>2026-04-26T06:55:32.235Z</time></trkpt><trkpt lat="43.3778583" lon="13.216445"><ele>570.0</ele><time>2026-04-26T06:55:33.236Z</time></trkpt><trkpt lat="43.3777583" lon="13.2165233"><ele>570.0</ele><time>2026-04-26T06:55:34.232Z</time></trkpt><trkpt lat="43.37765" lon="13.21661"><ele>569.75</ele><time>2026-04-26T06:55:35.23Z</time></trkpt><trkpt lat="43.377535" lon="13.2167"><ele>569.5</ele><time>2026-04-26T06:55:36.232Z</time></trkpt><trkpt lat="43.377415" lon="13.2167933"><ele>569.25</ele><time>2026-04-26T06:55:37.232Z</time></trkpt><trkpt lat="43.3772917" lon="13.2168883"><ele>569.0</ele><time>2026-04-26T06:55:38.233Z</time></trkpt><trkpt lat="43.37717" lon="13.2169833"><ele>570.0</ele><time>2026-04-26T06:55:39.232Z</time></trkpt><trkpt lat="43.37705" lon="13.217075"><ele>571.0</ele><time>2026-04-26T06:55:40.231Z</time></trkpt><trkpt lat="43.376925" lon="13.21717"><ele>572.0</ele><time>2026-04-26T06:55:41.235Z</time></trkpt><trkpt lat="43.3767967" lon="13.217265"><ele>573.0</ele><time>2026-04-26T06:55:42.233Z</time></trkpt><trkpt lat="43.376665" lon="13.2173633"><ele>573.0</ele><time>2026-04-26T06:55:43.232Z</time></trkpt><trkpt lat="43.3765317" lon="13.2174617"><ele>573.0</ele><time>2026-04-26T06:55:44.233Z</time></trkpt><trkpt lat="43.376395" lon="13.2175683"><ele>573.0</ele><time>2026-04-26T06:55:45.236Z</time></trkpt><trkpt lat="43.376255" lon="13.2176767"><ele>580.3333333333334</ele><time>2026-04-26T06:55:46.233Z</time></trkpt><trkpt lat="43.3761167" lon="13.2177867"><ele>587.6666666666667</ele><time>2026-04-26T06:55:47.23Z</time></trkpt><trkpt lat="43.375975" lon="13.2179017"><ele>595.0</ele><time>2026-04-26T06:55:48.229Z</time></trkpt><trkpt lat="43.375835" lon="13.21801"><ele>595.0</ele><time>2026-04-26T06:55:49.234Z</time></trkpt><trkpt lat="43.3756967" lon="13.2181217"><ele>595.0</ele><time>2026-04-26T06:55:50.231Z</time></trkpt><trkpt lat="43.3755667" lon="13.2182183"><ele>595.0</ele><time>2026-04-26T06:55:51.233Z</time></trkpt><trkpt lat="43.375445" lon="13.21831"><ele>595.0</ele><time>2026-04-26T06:55:52.235Z</time></trkpt><trkpt lat="43.3753233" lon="13.218405"><ele>596.5</ele><time>2026-04-26T06:55:53.234Z</time></trkpt><trkpt lat="43.375205" lon="13.2184933"><ele>598.0</ele><time>2026-04-26T06:55:54.234Z</time></trkpt><trkpt lat="43.375085" lon="13.2185833"><ele>599.5</ele><time>2026-04-26T06:55:55.233Z</time></trkpt><trkpt lat="43.374965" lon="13.2186733"><ele>601.0</ele><time>2026-04-26T06:55:56.232Z</time></trkpt><trkpt lat="43.3748517" lon="13.218765"><ele>601.0</ele><time>2026-04-26T06:55:57.236Z</time></trkpt><trkpt lat="43.3747367" lon="13.2188583"><ele>601.0</ele><time>2026-04-26T06:55:58.237Z</time></trkpt><trkpt lat="43.374625" lon="13.218945"><ele>601.0</ele><time>2026-04-26T06:55:59.232Z</time></trkpt><trkpt lat="43.3745233" lon="13.2190183"><ele>601.0</ele><time>2026-04-26T06:56:00.231Z</time></trkpt><trkpt lat="43.37443" lon="13.21909"><ele>601.1666666666667</ele><time>2026-04-26T06:56:01.231Z</time></trkpt><trkpt lat="43.374345" lon="13.2191567"><ele>601.3333333333334</ele><time>2026-04-26T06:56:02.235Z</time></trkpt><trkpt lat="43.3742633" lon="13.21922"><ele>601.5</ele><time>2026-04-26T06:56:03.237Z</time></trkpt><trkpt lat="43.3741833" lon="13.2192783"><ele>601.6666666666666</ele><time>2026-04-26T06:56:04.232Z</time></trkpt><trkpt lat="43.3741033" lon="13.2193217"><ele>601.8333333333333</ele><time>2026-04-26T06:56:05.233Z</time></trkpt><trkpt lat="43.374035" lon="13.219335"><ele>602.0</ele><time>2026-04-26T06:56:06.235Z</time></trkpt><trkpt lat="43.373925" lon="13.2193283"><ele>604.0</ele><time>2026-04-26T06:56:08.234Z</time></trkpt><trkpt lat="43.3738367" lon="13.2193417"><ele>606.0</ele><time>2026-04-26T06:56:10.233Z</time></trkpt><trkpt lat="43.3737683" lon="13.2193517"><ele>608.0</ele><time>2026-04-26T06:56:12.235Z</time></trkpt><trkpt lat="43.373705" lon="13.2193583"><ele>610.0</ele><time>2026-04-26T06:56:14.236Z</time></trkpt><trkpt lat="43.3735817" lon="13.2194183"><ele>612.0</ele><time>2026-04-26T06:57:30.234Z</time></trkpt><trkpt lat="43.37352" lon="13.2194433"><ele>614.0</ele><time>2026-04-26T06:57:31.244Z</time></trkpt><trkpt lat="43.3734467" lon="13.219465"><ele>614.0</ele><time>2026-04-26T06:57:32.231Z</time></trkpt><trkpt lat="43.3733767" lon="13.2194783"><ele>614.0</ele><time>2026-04-26T06:57:33.234Z</time></trkpt><trkpt lat="43.3733" lon="13.2194883"><ele>614.0</ele><time>2026-04-26T06:57:34.231Z</time></trkpt><trkpt lat="43.37321" lon="13.2195067"><ele>614.0</ele><time>2026-04-26T06:57:35.231Z</time></trkpt><trkpt lat="43.373115" lon="13.2195317"><ele>614.0</ele><time>2026-04-26T06:57:36.234Z</time></trkpt><trkpt lat="43.3730267" lon="13.21957"><ele>614.0</ele><time>2026-04-26T06:57:37.234Z</time></trkpt><trkpt lat="43.372935" lon="13.2196117"><ele>614.0</ele><time>2026-04-26T06:57:38.231Z</time></trkpt><trkpt lat="43.372835" lon="13.219665"><ele>614.0</ele><time>2026-04-26T06:57:39.235Z</time></trkpt><trkpt lat="43.37273" lon="13.2197117"><ele>614.0</ele><time>2026-04-26T06:57:40.235Z</time></trkpt><trkpt lat="43.3726267" lon="13.21976"><ele>614.0</ele><time>2026-04-26T06:57:41.234Z</time></trkpt><trkpt lat="43.3725233" lon="13.219805"><ele>614.0</ele><time>2026-04-26T06:57:42.237Z</time></trkpt><trkpt lat="43.37242" lon="13.2198483"><ele>609.6</ele><time>2026-04-26T06:57:43.233Z</time></trkpt><trkpt lat="43.3723117" lon="13.2198667"><ele>605.2</ele><time>2026-04-26T06:57:44.233Z</time></trkpt><trkpt lat="43.3722083" lon="13.219845"><ele>600.8000000000001</ele><time>2026-04-26T06:57:45.236Z</time></trkpt><trkpt lat="43.3721167" lon="13.2197833"><ele>596.4</ele><time>2026-04-26T06:57:46.231Z</time></trkpt><trkpt lat="43.37204" lon="13.2196833"><ele>592.0</ele><time>2026-04-26T06:57:47.233Z</time></trkpt><trkpt lat="43.3719733" lon="13.21957"><ele>588.5</ele><time>2026-04-26T06:57:48.234Z</time></trkpt><trkpt lat="43.37191" lon="13.2194467"><ele>585.0</ele><time>2026-04-26T06:57:49.232Z</time></trkpt><trkpt lat="43.3718533" lon="13.21931"><ele>581.5</ele><time>2026-04-26T06:57:50.233Z</time></trkpt><trkpt lat="43.37182" lon="13.2191583"><ele>578.0</ele><time>2026-04-26T06:57:51.232Z</time></trkpt><trkpt lat="43.3718033" lon="13.2189983"><ele>581.0</ele><time>2026-04-26T06:57:52.236Z</time></trkpt><trkpt lat="43.3717917" lon="13.2188383"><ele>584.0</ele><time>2026-04-26T06:57:53.234Z</time></trkpt><trkpt lat="43.3717817" lon="13.2186733"><ele>587.0</ele><time>2026-04-26T06:57:54.235Z</time></trkpt><trkpt lat="43.37177" lon="13.2185067"><ele>590.0</ele><time>2026-04-26T06:57:55.234Z</time></trkpt><trkpt lat="43.3717583" lon="13.218335"><ele>590.0</ele><time>2026-04-26T06:57:56.232Z</time></trkpt><trkpt lat="43.37175" lon="13.2181767"><ele>590.0</ele><time>2026-04-26T06:57:57.237Z</time></trkpt><trkpt lat="43.3717433" lon="13.21803"><ele>590.0</ele><time>2026-04-26T06:57:58.232Z</time></trkpt><trkpt lat="43.37175" lon="13.21789"><ele>590.0</ele><time>2026-04-26T06:57:59.234Z</time></trkpt><trkpt lat="43.371775" lon="13.2177633"><ele>590.0</ele><time>2026-04-26T06:58:00.232Z</time></trkpt><trkpt lat="43.3718233" lon="13.2176717"><ele>590.3333333333333</ele><time>2026-04-26T06:58:01.233Z</time></trkpt><trkpt lat="43.371885" lon="13.2176033"><ele>590.6666666666666</ele><time>2026-04-26T06:58:02.234Z</time></trkpt><trkpt lat="43.3719533" lon="13.2175483"><ele>591.0</ele><time>2026-04-26T06:58:03.233Z</time></trkpt><trkpt lat="43.3720133" lon="13.217475"><ele>591.3333333333334</ele><time>2026-04-26T06:58:04.235Z</time></trkpt><trkpt lat="43.3720767" lon="13.21741"><ele>591.6666666666667</ele><time>2026-04-26T06:58:05.229Z</time></trkpt><trkpt lat="43.3721683" lon="13.2173517"><ele>592.0</ele><time>2026-04-26T06:58:06.228Z</time></trkpt><trkpt lat="43.3722367" lon="13.2172567"><ele>594.75</ele><time>2026-04-26T06:58:07.233Z</time></trkpt><trkpt lat="43.3723183" lon="13.2171033"><ele>597.5</ele><time>2026-04-26T06:58:08.234Z</time></trkpt><trkpt lat="43.3723683" lon="13.216945"><ele>600.25</ele><time>2026-04-26T06:58:09.235Z</time></trkpt><trkpt lat="43.3724167" lon="13.2168"><ele>603.0</ele><time>2026-04-26T06:58:10.234Z</time></trkpt><trkpt lat="43.3724583" lon="13.21664"><ele>600.75</ele><time>2026-04-26T06:58:11.234Z</time></trkpt><trkpt lat="43.372505" lon="13.2164767"><ele>598.5</ele><time>2026-04-26T06:58:12.231Z</time></trkpt><trkpt lat="43.3725533" lon="13.2163133"><ele>596.25</ele><time>2026-04-26T06:58:13.232Z</time></trkpt><trkpt lat="43.3725933" lon="13.216135"><ele>594.0</ele><time>2026-04-26T06:58:14.232Z</time></trkpt><trkpt lat="43.372635" lon="13.215955"><ele>594.0</ele><time>2026-04-26T06:58:15.234Z</time></trkpt><trkpt lat="43.372675" lon="13.215775"><ele>594.0</ele><time>2026-04-26T06:58:16.233Z</time></trkpt><trkpt lat="43.3727217" lon="13.2155933"><ele>594.0</ele><time>2026-04-26T06:58:17.233Z</time></trkpt><trkpt lat="43.3727683" lon="13.215415"><ele>594.0</ele><time>2026-04-26T06:58:18.234Z</time></trkpt><trkpt lat="43.37282" lon="13.215235"><ele>595.0</ele><time>2026-04-26T06:58:19.233Z</time></trkpt><trkpt lat="43.372885" lon="13.2150633"><ele>596.0</ele><time>2026-04-26T06:58:20.232Z</time></trkpt><trkpt lat="43.37295" lon="13.2148967"><ele>597.0</ele><time>2026-04-26T06:58:21.232Z</time></trkpt><trkpt lat="43.37302" lon="13.2147317"><ele>598.0</ele><time>2026-04-26T06:58:22.233Z</time></trkpt><trkpt lat="43.3730917" lon="13.2145783"><ele>598.0</ele><time>2026-04-26T06:58:23.228Z</time></trkpt><trkpt lat="43.3731667" lon="13.21442"><ele>598.0</ele><time>2026-04-26T06:58:24.231Z</time></trkpt><trkpt lat="43.3732633" lon="13.21427"><ele>598.0</ele><time>2026-04-26T06:58:25.234Z</time></trkpt><trkpt lat="43.373365" lon="13.214125"><ele>598.0</ele><time>2026-04-26T06:58:26.23Z</time></trkpt><trkpt lat="43.3734667" lon="13.21399"><ele>597.25</ele><time>2026-04-26T06:58:27.234Z</time></trkpt><trkpt lat="43.3735717" lon="13.2138683"><ele>596.5</ele><time>2026-04-26T06:58:28.234Z</time></trkpt><trkpt lat="43.3736783" lon="13.213765"><ele>595.75</ele><time>2026-04-26T06:58:29.234Z</time></trkpt><trkpt lat="43.3737867" lon="13.2136733"><ele>595.0</ele><time>2026-04-26T06:58:30.236Z</time></trkpt><trkpt lat="43.3739017" lon="13.2135917"><ele>595.0</ele><time>2026-04-26T06:58:31.23Z</time></trkpt><trkpt lat="43.3740233" lon="13.2135367"><ele>595.0</ele><time>2026-04-26T06:58:32.233Z</time></trkpt><trkpt lat="43.3741433" lon="13.21349"><ele>595.0</ele><time>2026-04-26T06:58:33.236Z</time></trkpt><trkpt lat="43.37426" lon="13.2134567"><ele>595.0</ele><time>2026-04-26T06:58:34.232Z</time></trkpt><trkpt lat="43.37437" lon="13.213425"><ele>595.0</ele><time>2026-04-26T06:58:35.235Z</time></trkpt><trkpt lat="43.37447" lon="13.213395"><ele>595.0</ele><time>2026-04-26T06:58:36.233Z</time></trkpt><trkpt lat="43.3745633" lon="13.21338"><ele>595.0</ele><time>2026-04-26T06:58:37.235Z</time></trkpt><trkpt lat="43.3746433" lon="13.2133717"><ele>595.0</ele><time>2026-04-26T06:58:38.233Z</time></trkpt><trkpt lat="43.374715" lon="13.2133667"><ele>595.0</ele><time>2026-04-26T06:58:39.232Z</time></trkpt><trkpt lat="43.3747917" lon="13.21336"><ele>595.0</ele><time>2026-04-26T06:58:40.231Z</time></trkpt><trkpt lat="43.3748667" lon="13.2133583"><ele>595.5</ele><time>2026-04-26T06:58:41.225Z</time></trkpt><trkpt lat="43.3749433" lon="13.2133583"><ele>596.0</ele><time>2026-04-26T06:58:42.235Z</time></trkpt><trkpt lat="43.37502" lon="13.2133567"><ele>596.5</ele><time>2026-04-26T06:58:43.23Z</time></trkpt><trkpt lat="43.375095" lon="13.2133533"><ele>597.0</ele><time>2026-04-26T06:58:44.231Z</time></trkpt><trkpt lat="43.3751633" lon="13.21335"><ele>597.5</ele><time>2026-04-26T06:58:45.236Z</time></trkpt><trkpt lat="43.3752283" lon="13.2133433"><ele>598.0</ele><time>2026-04-26T06:58:46.232Z</time></trkpt><trkpt lat="43.3753383" lon="13.2133283"><ele>598.0</ele><time>2026-04-26T06:58:48.231Z</time></trkpt><trkpt lat="43.3754233" lon="13.21332"><ele>598.0</ele><time>2026-04-26T06:58:50.231Z</time></trkpt><trkpt lat="43.3755117" lon="13.2133067"><ele>598.0</ele><time>2026-04-26T06:58:52.233Z</time></trkpt><trkpt lat="43.3755867" lon="13.2133083"><ele>598.0</ele><time>2026-04-26T06:58:55.232Z</time></trkpt><trkpt lat="43.3756567" lon="13.21329"><ele>598.0</ele><time>2026-04-26T06:58:58.235Z</time></trkpt><trkpt lat="43.375735" lon="13.2132683"><ele>598.0</ele><time>2026-04-26T06:59:00.233Z</time></trkpt><trkpt lat="43.3758367" lon="13.21326"><ele>598.75</ele><time>2026-04-26T06:59:02.234Z</time></trkpt><trkpt lat="43.3759533" lon="13.213245"><ele>599.5</ele><time>2026-04-26T06:59:04.231Z</time></trkpt><trkpt lat="43.3760667" lon="13.213235"><ele>600.25</ele><time>2026-04-26T06:59:06.231Z</time></trkpt><trkpt lat="43.3761817" lon="13.213235"><ele>601.0</ele><time>2026-04-26T06:59:08.232Z</time></trkpt><trkpt lat="43.3762983" lon="13.2132433"><ele>601.3333333333334</ele><time>2026-04-26T06:59:10.233Z</time></trkpt><trkpt lat="43.3764233" lon="13.213285"><ele>601.6666666666667</ele><time>2026-04-26T06:59:12.235Z</time></trkpt><trkpt lat="43.376485" lon="13.2133167"><ele>602.0</ele><time>2026-04-26T06:59:13.236Z</time></trkpt><trkpt lat="43.3765467" lon="13.213355"><ele>602.3333333333334</ele><time>2026-04-26T06:59:14.234Z</time></trkpt><trkpt lat="43.3766067" lon="13.2133933"><ele>602.6666666666666</ele><time>2026-04-26T06:59:15.236Z</time></trkpt><trkpt lat="43.376665" lon="13.21343"><ele>603.0</ele><time>2026-04-26T06:59:16.234Z</time></trkpt><trkpt lat="43.3767233" lon="13.213465"><ele>603.0</ele><time>2026-04-26T06:59:17.236Z</time></trkpt><trkpt lat="43.37681" lon="13.2135217"><ele>603.0</ele><time>2026-04-26T06:59:19.232Z</time></trkpt><trkpt lat="43.3768733" lon="13.2135417"><ele>603.0</ele><time>2026-04-26T06:59:22.236Z</time></trkpt><trkpt lat="43.3769217" lon="13.21344"><ele>603.0</ele><time>2026-04-26T06:59:25.236Z</time></trkpt><trkpt lat="43.37692" lon="13.21332"><ele>603.0</ele><time>2026-04-26T06:59:27.233Z</time></trkpt><trkpt lat="43.3768983" lon="13.2131983"><ele>603.0</ele><time>2026-04-26T06:59:29.229Z</time></trkpt><trkpt lat="43.3768567" lon="13.2130517"><ele>602.3333333333334</ele><time>2026-04-26T06:59:31.231Z</time></trkpt><trkpt lat="43.3768133" lon="13.2129017"><ele>601.6666666666666</ele><time>2026-04-26T06:59:33.234Z</time></trkpt><trkpt lat="43.3767633" lon="13.2127833"><ele>601.0</ele><time>2026-04-26T06:59:35.234Z</time></trkpt><trkpt lat="43.3767317" lon="13.2126933"><ele>600.3333333333333</ele><time>2026-04-26T06:59:37.23Z</time></trkpt><trkpt lat="43.3767017" lon="13.21261"><ele>599.6666666666666</ele><time>2026-04-26T06:59:39.237Z</time></trkpt><trkpt lat="43.3766717" lon="13.2125233"><ele>599.0</ele><time>2026-04-26T06:59:41.232Z</time></trkpt><trkpt lat="43.37665" lon="13.212425"><ele>599.0</ele><time>2026-04-26T06:59:43.236Z</time></trkpt><trkpt lat="43.3766383" lon="13.2123283"><ele>599.0</ele><time>2026-04-26T06:59:45.236Z</time></trkpt><trkpt lat="43.376635" lon="13.2122267"><ele>599.0</ele><time>2026-04-26T06:59:47.236Z</time></trkpt><trkpt lat="43.3766217" lon="13.2121283"><ele>599.0</ele><time>2026-04-26T06:59:49.233Z</time></trkpt><trkpt lat="43.376605" lon="13.2119767"><ele>599.0</ele><time>2026-04-26T06:59:51.234Z</time></trkpt><trkpt lat="43.3765967" lon="13.2118867"><ele>599.0</ele><time>2026-04-26T06:59:52.23Z</time></trkpt><trkpt lat="43.3765933" lon="13.2117883"><ele>597.8333333333333</ele><time>2026-04-26T06:59:53.229Z</time></trkpt><trkpt lat="43.376585" lon="13.211685"><ele>596.6666666666666</ele><time>2026-04-26T06:59:54.235Z</time></trkpt><trkpt lat="43.3765817" lon="13.2115683"><ele>595.5</ele><time>2026-04-26T06:59:55.233Z</time></trkpt><trkpt lat="43.3765783" lon="13.2114433"><ele>594.3333333333334</ele><time>2026-04-26T06:59:56.232Z</time></trkpt><trkpt lat="43.3765717" lon="13.21131"><ele>593.1666666666667</ele><time>2026-04-26T06:59:57.235Z</time></trkpt><trkpt lat="43.376565" lon="13.2111867"><ele>592.0</ele><time>2026-04-26T06:59:58.231Z</time></trkpt><trkpt lat="43.3765583" lon="13.2110617"><ele>591.5</ele><time>2026-04-26T06:59:59.233Z</time></trkpt><trkpt lat="43.3765467" lon="13.2109417"><ele>591.0</ele><time>2026-04-26T07:00:00.231Z</time></trkpt><trkpt lat="43.3765367" lon="13.2108317"><ele>590.5</ele><time>2026-04-26T07:00:01.231Z</time></trkpt><trkpt lat="43.3765283" lon="13.210725"><ele>590.0</ele><time>2026-04-26T07:00:02.229Z</time></trkpt><trkpt lat="43.3765183" lon="13.2106183"><ele>589.5</ele><time>2026-04-26T07:00:03.23Z</time></trkpt><trkpt lat="43.3765" lon="13.2105217"><ele>589.0</ele><time>2026-04-26T07:00:04.234Z</time></trkpt><trkpt lat="43.3764533" lon="13.2104433"><ele>588.4285714285714</ele><time>2026-04-26T07:00:05.231Z</time></trkpt><trkpt lat="43.3763983" lon="13.2103717"><ele>587.8571428571428</ele><time>2026-04-26T07:00:06.236Z</time></trkpt><trkpt lat="43.376335" lon="13.21032"><ele>587.2857142857142</ele><time>2026-04-26T07:00:07.23Z</time></trkpt><trkpt lat="43.37627" lon="13.2102633"><ele>586.7142857142857</ele><time>2026-04-26T07:00:08.227Z</time></trkpt><trkpt lat="43.37621" lon="13.2102117"><ele>586.1428571428571</ele><time>2026-04-26T07:00:09.232Z</time></trkpt><trkpt lat="43.37615" lon="13.2101517"><ele>585.5714285714286</ele><time>2026-04-26T07:00:10.231Z</time></trkpt><trkpt lat="43.3760867" lon="13.2100967"><ele>585.0</ele><time>2026-04-26T07:00:11.231Z</time></trkpt><trkpt lat="43.376035" lon="13.21003"><ele>586.0</ele><time>2026-04-26T07:00:12.231Z</time></trkpt><trkpt lat="43.3759833" lon="13.2099617"><ele>587.0</ele><time>2026-04-26T07:00:13.233Z</time></trkpt><trkpt lat="43.3759317" lon="13.2098967"><ele>588.0</ele><time>2026-04-26T07:00:14.233Z</time></trkpt><trkpt lat="43.3758917" lon="13.2098283"><ele>589.0</ele><time>2026-04-26T07:00:15.234Z</time></trkpt><trkpt lat="43.3758217" lon="13.209685"><ele>590.0</ele><time>2026-04-26T07:00:17.234Z</time></trkpt><trkpt lat="43.3757833" lon="13.209605"><ele>591.0</ele><time>2026-04-26T07:00:18.234Z</time></trkpt><trkpt lat="43.37575" lon="13.2095133"><ele>591.0</ele><time>2026-04-26T07:00:19.235Z</time></trkpt><trkpt lat="43.3757167" lon="13.20943"><ele>591.0</ele><time>2026-04-26T07:00:20.233Z</time></trkpt><trkpt lat="43.3756817" lon="13.209355"><ele>591.0</ele><time>2026-04-26T07:00:21.232Z</time></trkpt><trkpt lat="43.37565" lon="13.20928"><ele>591.0</ele><time>2026-04-26T07:00:22.232Z</time></trkpt><trkpt lat="43.375605" lon="13.2091817"><ele>591.0</ele><time>2026-04-26T07:00:24.233Z</time></trkpt><trkpt lat="43.375585" lon="13.209065"><ele>591.0</ele><time>2026-04-26T07:00:28.233Z</time></trkpt><trkpt lat="43.37558" lon="13.208965"><ele>591.0</ele><time>2026-04-26T07:00:30.233Z</time></trkpt><trkpt lat="43.375575" lon="13.2088417"><ele>590.2</ele><time>2026-04-26T07:00:32.231Z</time></trkpt><trkpt lat="43.3755833" lon="13.2086917"><ele>589.4000000000001</ele><time>2026-04-26T07:00:34.235Z</time></trkpt><trkpt lat="43.3755933" lon="13.208605"><ele>588.6</ele><time>2026-04-26T07:00:35.233Z</time></trkpt><trkpt lat="43.375595" lon="13.208515"><ele>587.8000000000001</ele><time>2026-04-26T07:00:36.232Z</time></trkpt><trkpt lat="43.375565" lon="13.2083533"><ele>587.0</ele><time>2026-04-26T07:00:38.235Z</time></trkpt><trkpt lat="43.3755" lon="13.2082333"><ele>590.0</ele><time>2026-04-26T07:00:40.233Z</time></trkpt><trkpt lat="43.3754317" lon="13.208165"><ele>593.0</ele><time>2026-04-26T07:00:42.232Z</time></trkpt><trkpt lat="43.3753617" lon="13.2081117"><ele>596.0</ele><time>2026-04-26T07:00:46.234Z</time></trkpt><trkpt lat="43.3752817" lon="13.2080617"><ele>599.0</ele><time>2026-04-26T07:00:49.234Z</time></trkpt><trkpt lat="43.375215" lon="13.2080583"><ele>602.0</ele><time>2026-04-26T07:00:51.236Z</time></trkpt><trkpt lat="43.37514" lon="13.2080883"><ele>605.0</ele><time>2026-04-26T07:00:53.234Z</time></trkpt><trkpt lat="43.37507" lon="13.2081533"><ele>605.0</ele><time>2026-04-26T07:00:55.234Z</time></trkpt><trkpt lat="43.374995" lon="13.2082583"><ele>605.0</ele><time>2026-04-26T07:00:57.229Z</time></trkpt><trkpt lat="43.3749367" lon="13.208375"><ele>605.0</ele><time>2026-04-26T07:00:59.236Z</time></trkpt><trkpt lat="43.374895" lon="13.2084867"><ele>605.0</ele><time>2026-04-26T07:01:01.23Z</time></trkpt><trkpt lat="43.3748867" lon="13.2086067"><ele>605.0</ele><time>2026-04-26T07:01:03.236Z</time></trkpt><trkpt lat="43.3748833" lon="13.208705"><ele>605.0</ele><time>2026-04-26T07:01:05.232Z</time></trkpt><trkpt lat="43.37491" lon="13.208815"><ele>605.0</ele><time>2026-04-26T07:01:08.237Z</time></trkpt><trkpt lat="43.37494" lon="13.20893"><ele>605.0</ele><time>2026-04-26T07:01:11.238Z</time></trkpt><trkpt lat="43.3748933" lon="13.2090233"><ele>605.0</ele><time>2026-04-26T07:01:15.234Z</time></trkpt><trkpt lat="43.3747667" lon="13.209045"><ele>605.0</ele><time>2026-04-26T07:12:06.235Z</time></trkpt><trkpt lat="43.37468" lon="13.2090867"><ele>604.5</ele><time>2026-04-26T07:12:08.236Z</time></trkpt><trkpt lat="43.3746183" lon="13.209115"><ele>604.0</ele><time>2026-04-26T07:12:09.233Z</time></trkpt><trkpt lat="43.37456" lon="13.2091517"><ele>603.5</ele><time>2026-04-26T07:12:10.234Z</time></trkpt><trkpt lat="43.3744433" lon="13.2092267"><ele>603.0</ele><time>2026-04-26T07:12:12.233Z</time></trkpt><trkpt lat="43.3743667" lon="13.20928"><ele>602.5</ele><time>2026-04-26T07:12:13.233Z</time></trkpt><trkpt lat="43.374275" lon="13.2093167"><ele>602.0</ele><time>2026-04-26T07:12:14.247Z</time></trkpt><trkpt lat="43.37419" lon="13.2093333"><ele>602.0</ele><time>2026-04-26T07:12:15.236Z</time></trkpt><trkpt lat="43.374095" lon="13.209345"><ele>602.0</ele><time>2026-04-26T07:12:16.234Z</time></trkpt><trkpt lat="43.37399" lon="13.2093283"><ele>602.0</ele><time>2026-04-26T07:12:17.234Z</time></trkpt><trkpt lat="43.37389" lon="13.2092767"><ele>602.0</ele><time>2026-04-26T07:12:18.233Z</time></trkpt><trkpt lat="43.373775" lon="13.2092167"><ele>602.0</ele><time>2026-04-26T07:12:19.236Z</time></trkpt><trkpt lat="43.3736267" lon="13.2091417"><ele>600.0</ele><time>2026-04-26T07:12:20.234Z</time></trkpt><trkpt lat="43.3734917" lon="13.2090717"><ele>598.0</ele><time>2026-04-26T07:12:21.234Z</time></trkpt><trkpt lat="43.3733567" lon="13.2089933"><ele>596.0</ele><time>2026-04-26T07:12:22.232Z</time></trkpt><trkpt lat="43.37324" lon="13.208925"><ele>594.0</ele><time>2026-04-26T07:12:23.231Z</time></trkpt><trkpt lat="43.3731083" lon="13.2088733"><ele>600.5</ele><time>2026-04-26T07:12:24.233Z</time></trkpt><trkpt lat="43.3729667" lon="13.2088333"><ele>607.0</ele><time>2026-04-26T07:12:25.231Z</time></trkpt><trkpt lat="43.3728217" lon="13.2088183"><ele>613.5</ele><time>2026-04-26T07:12:26.235Z</time></trkpt><trkpt lat="43.3726967" lon="13.208835"><ele>620.0</ele><time>2026-04-26T07:12:27.236Z</time></trkpt><trkpt lat="43.3725717" lon="13.2088633"><ele>620.0</ele><time>2026-04-26T07:12:28.232Z</time></trkpt><trkpt lat="43.372455" lon="13.2088883"><ele>620.0</ele><time>2026-04-26T07:12:29.234Z</time></trkpt><trkpt lat="43.37234" lon="13.2088983"><ele>620.0</ele><time>2026-04-26T07:12:30.23Z</time></trkpt><trkpt lat="43.3722183" lon="13.20888"><ele>620.0</ele><time>2026-04-26T07:12:31.232Z</time></trkpt><trkpt lat="43.3721" lon="13.2088383"><ele>614.25</ele><time>2026-04-26T07:12:32.236Z</time></trkpt><trkpt lat="43.37198" lon="13.20876"><ele>608.5</ele><time>2026-04-26T07:12:33.238Z</time></trkpt><trkpt lat="43.3718617" lon="13.208655"><ele>602.75</ele><time>2026-04-26T07:12:34.231Z</time></trkpt><trkpt lat="43.3717533" lon="13.208525"><ele>597.0</ele><time>2026-04-26T07:12:35.232Z</time></trkpt><trkpt lat="43.3716633" lon="13.208375"><ele>597.0</ele><time>2026-04-26T07:12:36.235Z</time></trkpt><trkpt lat="43.371585" lon="13.2082167"><ele>597.0</ele><time>2026-04-26T07:12:37.235Z</time></trkpt><trkpt lat="43.3715133" lon="13.208035"><ele>597.0</ele><time>2026-04-26T07:12:38.232Z</time></trkpt><trkpt lat="43.37145" lon="13.2078533"><ele>597.0</ele><time>2026-04-26T07:12:39.233Z</time></trkpt><trkpt lat="43.3714017" lon="13.2076617"><ele>604.0</ele><time>2026-04-26T07:12:40.232Z</time></trkpt><trkpt lat="43.3713667" lon="13.2074583"><ele>611.0</ele><time>2026-04-26T07:12:41.236Z</time></trkpt><trkpt lat="43.371345" lon="13.20725"><ele>618.0</ele><time>2026-04-26T07:12:42.237Z</time></trkpt><trkpt lat="43.3713333" lon="13.2070417"><ele>601.6666666666666</ele><time>2026-04-26T07:12:43.231Z</time></trkpt><trkpt lat="43.3713183" lon="13.206825"><ele>585.3333333333333</ele><time>2026-04-26T07:12:44.233Z</time></trkpt><trkpt lat="43.3713083" lon="13.2066117"><ele>569.0</ele><time>2026-04-26T07:12:45.232Z</time></trkpt><trkpt lat="43.37131" lon="13.2064017"><ele>569.0</ele><time>2026-04-26T07:12:46.231Z</time></trkpt><trkpt lat="43.3713217" lon="13.2061917"><ele>569.0</ele><time>2026-04-26T07:12:47.232Z</time></trkpt><trkpt lat="43.37134" lon="13.2059833"><ele>569.0</ele><time>2026-04-26T07:12:48.234Z</time></trkpt><trkpt lat="43.37135" lon="13.205785"><ele>572.75</ele><time>2026-04-26T07:12:49.233Z</time></trkpt><trkpt lat="43.371335" lon="13.2055917"><ele>576.5</ele><time>2026-04-26T07:12:50.232Z</time></trkpt><trkpt lat="43.3712933" lon="13.2054"><ele>580.25</ele><time>2026-04-26T07:12:51.234Z</time></trkpt><trkpt lat="43.3712283" lon="13.205215"><ele>584.0</ele><time>2026-04-26T07:12:52.232Z</time></trkpt><trkpt lat="43.371145" lon="13.2050183"><ele>591.0</ele><time>2026-04-26T07:12:53.234Z</time></trkpt><trkpt lat="43.371045" lon="13.20482"><ele>598.0</ele><time>2026-04-26T07:12:54.236Z</time></trkpt><trkpt lat="43.370945" lon="13.20462"><ele>605.0</ele><time>2026-04-26T07:12:55.233Z</time></trkpt><trkpt lat="43.37086" lon="13.2044067"><ele>605.0</ele><time>2026-04-26T07:12:56.234Z</time></trkpt><trkpt lat="43.3707933" lon="13.2041833"><ele>605.0</ele><time>2026-04-26T07:12:57.237Z</time></trkpt><trkpt lat="43.3707367" lon="13.20395"><ele>605.0</ele><time>2026-04-26T07:12:58.231Z</time></trkpt><trkpt lat="43.3706783" lon="13.2037167"><ele>600.6666666666666</ele><time>2026-04-26T07:12:59.235Z</time></trkpt><trkpt lat="43.370615" lon="13.2034833"><ele>596.3333333333334</ele><time>2026-04-26T07:13:00.233Z</time></trkpt><trkpt lat="43.370545" lon="13.2032417"><ele>592.0</ele><time>2026-04-26T07:13:01.236Z</time></trkpt><trkpt lat="43.3704783" lon="13.2029967"><ele>592.0</ele><time>2026-04-26T07:13:02.233Z</time></trkpt><trkpt lat="43.3704167" lon="13.20275"><ele>592.0</ele><time>2026-04-26T07:13:03.233Z</time></trkpt><trkpt lat="43.37036" lon="13.2025033"><ele>592.0</ele><time>2026-04-26T07:13:04.233Z</time></trkpt><trkpt lat="43.3703033" lon="13.202255"><ele>595.3333333333334</ele><time>2026-04-26T07:13:05.234Z</time></trkpt><trkpt lat="43.3702517" lon="13.2020083"><ele>598.6666666666666</ele><time>2026-04-26T07:13:06.235Z</time></trkpt><trkpt lat="43.3702" lon="13.2017633"><ele>602.0</ele><time>2026-04-26T07:13:07.232Z</time></trkpt><trkpt lat="43.37015" lon="13.2015267"><ele>605.6666666666666</ele><time>2026-04-26T07:13:08.233Z</time></trkpt><trkpt lat="43.3701" lon="13.2013083"><ele>609.3333333333334</ele><time>2026-04-26T07:13:09.235Z</time></trkpt><trkpt lat="43.3700467" lon="13.2011067"><ele>613.0</ele><time>2026-04-26T07:13:10.233Z</time></trkpt><trkpt lat="43.369975" lon="13.20095"><ele>613.0</ele><time>2026-04-26T07:13:11.23Z</time></trkpt><trkpt lat="43.36988" lon="13.2008383"><ele>613.0</ele><time>2026-04-26T07:13:12.231Z</time></trkpt><trkpt lat="43.3697567" lon="13.200775"><ele>613.0</ele><time>2026-04-26T07:13:13.233Z</time></trkpt><trkpt lat="43.369615" lon="13.2007667"><ele>613.0</ele><time>2026-04-26T07:13:14.232Z</time></trkpt><trkpt lat="43.36948" lon="13.2008133"><ele>615.3333333333334</ele><time>2026-04-26T07:13:15.234Z</time></trkpt><trkpt lat="43.3693467" lon="13.2009217"><ele>617.6666666666666</ele><time>2026-04-26T07:13:16.232Z</time></trkpt><trkpt lat="43.369215" lon="13.2010633"><ele>620.0</ele><time>2026-04-26T07:13:17.243Z</time></trkpt><trkpt lat="43.3690883" lon="13.201215"><ele>620.0</ele><time>2026-04-26T07:13:18.233Z</time></trkpt><trkpt lat="43.3689717" lon="13.201375"><ele>620.0</ele><time>2026-04-26T07:13:19.235Z</time></trkpt><trkpt lat="43.368855" lon="13.201525"><ele>620.0</ele><time>2026-04-26T07:13:20.233Z</time></trkpt><trkpt lat="43.3687383" lon="13.2016733"><ele>618.0</ele><time>2026-04-26T07:13:21.236Z</time></trkpt><trkpt lat="43.368625" lon="13.2018133"><ele>616.0</ele><time>2026-04-26T07:13:22.235Z</time></trkpt><trkpt lat="43.3685167" lon="13.2019567"><ele>614.0</ele><time>2026-04-26T07:13:23.231Z</time></trkpt><trkpt lat="43.3684383" lon="13.2021117"><ele>612.0</ele><time>2026-04-26T07:13:24.232Z</time></trkpt><trkpt lat="43.368395" lon="13.2022817"><ele>612.5</ele><time>2026-04-26T07:13:25.235Z</time></trkpt><trkpt lat="43.3683933" lon="13.2024617"><ele>613.0</ele><time>2026-04-26T07:13:26.232Z</time></trkpt><trkpt lat="43.3684183" lon="13.20267"><ele>613.5</ele><time>2026-04-26T07:13:27.232Z</time></trkpt><trkpt lat="43.3684617" lon="13.2028867"><ele>614.0</ele><time>2026-04-26T07:13:28.233Z</time></trkpt><trkpt lat="43.3684983" lon="13.2031117"><ele>616.3333333333333</ele><time>2026-04-26T07:13:29.232Z</time></trkpt><trkpt lat="43.3685217" lon="13.2033483"><ele>618.6666666666666</ele><time>2026-04-26T07:13:30.232Z</time></trkpt><trkpt lat="43.3685467" lon="13.203595"><ele>621.0</ele><time>2026-04-26T07:13:31.23Z</time></trkpt><trkpt lat="43.368565" lon="13.2038467"><ele>623.0</ele><time>2026-04-26T07:13:32.232Z</time></trkpt><trkpt lat="43.368575" lon="13.2040983"><ele>625.0</ele><time>2026-04-26T07:13:33.232Z</time></trkpt><trkpt lat="43.3685733" lon="13.2043533"><ele>627.0</ele><time>2026-04-26T07:13:34.233Z</time></trkpt><trkpt lat="43.368565" lon="13.2046117"><ele>627.6666666666666</ele><time>2026-04-26T07:13:35.232Z</time></trkpt><trkpt lat="43.3685467" lon="13.2048683"><ele>628.3333333333333</ele><time>2026-04-26T07:13:36.234Z</time></trkpt><trkpt lat="43.3685267" lon="13.2051233"><ele>629.0</ele><time>2026-04-26T07:13:37.233Z</time></trkpt><trkpt lat="43.3685033" lon="13.2053833"><ele>629.0</ele><time>2026-04-26T07:13:38.233Z</time></trkpt><trkpt lat="43.368495" lon="13.2056483"><ele>629.0</ele><time>2026-04-26T07:13:39.234Z</time></trkpt><trkpt lat="43.3684717" lon="13.2059217"><ele>629.0</ele><time>2026-04-26T07:13:40.235Z</time></trkpt><trkpt lat="43.36845" lon="13.2062083"><ele>627.3333333333333</ele><time>2026-04-26T07:13:41.232Z</time></trkpt><trkpt lat="43.36842" lon="13.2065033"><ele>625.6666666666666</ele><time>2026-04-26T07:13:42.235Z</time></trkpt><trkpt lat="43.3683883" lon="13.2068017"><ele>624.0</ele><time>2026-04-26T07:13:43.233Z</time></trkpt><trkpt lat="43.3683583" lon="13.207095"><ele>623.0</ele><time>2026-04-26T07:13:44.233Z</time></trkpt><trkpt lat="43.36833" lon="13.2073883"><ele>622.0</ele><time>2026-04-26T07:13:45.235Z</time></trkpt><trkpt lat="43.3682967" lon="13.2076717"><ele>621.0</ele><time>2026-04-26T07:13:46.234Z</time></trkpt><trkpt lat="43.36826" lon="13.207935"><ele>619.3333333333334</ele><time>2026-04-26T07:13:47.231Z</time></trkpt><trkpt lat="43.3682233" lon="13.2081783"><ele>617.6666666666667</ele><time>2026-04-26T07:13:48.231Z</time></trkpt><trkpt lat="43.368185" lon="13.2084033"><ele>616.0</ele><time>2026-04-26T07:13:49.236Z</time></trkpt><trkpt lat="43.368155" lon="13.2086117"><ele>616.0</ele><time>2026-04-26T07:13:50.232Z</time></trkpt><trkpt lat="43.3681233" lon="13.2088033"><ele>616.0</ele><time>2026-04-26T07:13:51.234Z</time></trkpt><trkpt lat="43.3680717" lon="13.208965"><ele>616.0</ele><time>2026-04-26T07:13:52.229Z</time></trkpt><trkpt lat="43.368" lon="13.2090967"><ele>616.0</ele><time>2026-04-26T07:13:53.235Z</time></trkpt><trkpt lat="43.3679033" lon="13.20918"><ele>615.0</ele><time>2026-04-26T07:13:54.233Z</time></trkpt><trkpt lat="43.36778" lon="13.2091933"><ele>614.0</ele><time>2026-04-26T07:13:55.234Z</time></trkpt><trkpt lat="43.3676533" lon="13.2091417"><ele>613.0</ele><time>2026-04-26T07:13:56.23Z</time></trkpt><trkpt lat="43.3675167" lon="13.2090367"><ele>612.0</ele><time>2026-04-26T07:13:57.237Z</time></trkpt><trkpt lat="43.367375" lon="13.2089083"><ele>613.6666666666666</ele><time>2026-04-26T07:13:58.232Z</time></trkpt><trkpt lat="43.3672267" lon="13.2087583"><ele>615.3333333333333</ele><time>2026-04-26T07:13:59.23Z</time></trkpt><trkpt lat="43.367065" lon="13.2085883"><ele>617.0</ele><time>2026-04-26T07:14:00.234Z</time></trkpt><trkpt lat="43.366895" lon="13.2084133"><ele>617.0</ele><time>2026-04-26T07:14:01.232Z</time></trkpt><trkpt lat="43.3667183" lon="13.2082283"><ele>617.0</ele><time>2026-04-26T07:14:02.232Z</time></trkpt><trkpt lat="43.3665233" lon="13.208025"><ele>619.0</ele><time>2026-04-26T07:14:03.232Z</time></trkpt><trkpt lat="43.3663133" lon="13.2078067"><ele>621.0</ele><time>2026-04-26T07:14:04.232Z</time></trkpt><trkpt lat="43.366095" lon="13.2075817"><ele>621.0</ele><time>2026-04-26T07:14:05.234Z</time></trkpt><trkpt lat="43.3658817" lon="13.2073583"><ele>621.0</ele><time>2026-04-26T07:14:06.233Z</time></trkpt><trkpt lat="43.3656833" lon="13.2071433"><ele>620.5</ele><time>2026-04-26T07:14:07.235Z</time></trkpt><trkpt lat="43.3654967" lon="13.2069267"><ele>620.0</ele><time>2026-04-26T07:14:08.232Z</time></trkpt><trkpt lat="43.3653167" lon="13.2067067"><ele>634.0</ele><time>2026-04-26T07:14:09.235Z</time></trkpt><trkpt lat="43.36514" lon="13.206485"><ele>648.0</ele><time>2026-04-26T07:14:10.232Z</time></trkpt><trkpt lat="43.36497" lon="13.206255"><ele>648.0</ele><time>2026-04-26T07:14:11.234Z</time></trkpt><trkpt lat="43.3648017" lon="13.2060233"><ele>648.0</ele><time>2026-04-26T07:14:12.232Z</time></trkpt><trkpt lat="43.36464" lon="13.20579"><ele>641.3333333333334</ele><time>2026-04-26T07:14:13.232Z</time></trkpt><trkpt lat="43.3644883" lon="13.2055583"><ele>634.6666666666667</ele><time>2026-04-26T07:14:14.232Z</time></trkpt><trkpt lat="43.3643483" lon="13.2053267"><ele>628.0</ele><time>2026-04-26T07:14:15.234Z</time></trkpt><trkpt lat="43.364225" lon="13.20508"><ele>628.0</ele><time>2026-04-26T07:14:16.233Z</time></trkpt><trkpt lat="43.3641033" lon="13.204835"><ele>628.0</ele><time>2026-04-26T07:14:17.237Z</time></trkpt><trkpt lat="43.364" lon="13.2045733"><ele>628.0</ele><time>2026-04-26T07:14:18.233Z</time></trkpt><trkpt lat="43.3639133" lon="13.2043083"><ele>622.6666666666667</ele><time>2026-04-26T07:14:19.227Z</time></trkpt><trkpt lat="43.3638467" lon="13.2040433"><ele>617.3333333333334</ele><time>2026-04-26T07:14:20.233Z</time></trkpt><trkpt lat="43.363785" lon="13.2037817"><ele>612.0</ele><time>2026-04-26T07:14:21.233Z</time></trkpt><trkpt lat="43.3637233" lon="13.2035183"><ele>612.0</ele><time>2026-04-26T07:14:22.233Z</time></trkpt><trkpt lat="43.3636567" lon="13.2032667"><ele>612.0</ele><time>2026-04-26T07:14:23.233Z</time></trkpt><trkpt lat="43.3635883" lon="13.2030233"><ele>612.0</ele><time>2026-04-26T07:14:24.233Z</time></trkpt><trkpt lat="43.36352" lon="13.2027833"><ele>620.0</ele><time>2026-04-26T07:14:25.232Z</time></trkpt><trkpt lat="43.3634383" lon="13.2025617"><ele>628.0</ele><time>2026-04-26T07:14:26.233Z</time></trkpt><trkpt lat="43.3633533" lon="13.2023467"><ele>636.0</ele><time>2026-04-26T07:14:27.233Z</time></trkpt><trkpt lat="43.36326" lon="13.2021283"><ele>640.6666666666666</ele><time>2026-04-26T07:14:28.232Z</time></trkpt><trkpt lat="43.3631467" lon="13.201905"><ele>645.3333333333333</ele><time>2026-04-26T07:14:29.233Z</time></trkpt><trkpt lat="43.363015" lon="13.2016833"><ele>650.0</ele><time>2026-04-26T07:14:30.233Z</time></trkpt><trkpt lat="43.3628817" lon="13.2014683"><ele>650.0</ele><time>2026-04-26T07:14:31.237Z</time></trkpt><trkpt lat="43.36275" lon="13.2012633"><ele>650.0</ele><time>2026-04-26T07:14:32.233Z</time></trkpt><trkpt lat="43.3626283" lon="13.2010733"><ele>650.0</ele><time>2026-04-26T07:14:33.232Z</time></trkpt><trkpt lat="43.3625133" lon="13.2008933"><ele>650.0</ele><time>2026-04-26T07:14:34.232Z</time></trkpt><trkpt lat="43.3624017" lon="13.2007367"><ele>650.0</ele><time>2026-04-26T07:14:35.234Z</time></trkpt><trkpt lat="43.36229" lon="13.2006117"><ele>650.0</ele><time>2026-04-26T07:14:36.233Z</time></trkpt><trkpt lat="43.3621733" lon="13.2005183"><ele>650.0</ele><time>2026-04-26T07:14:37.232Z</time></trkpt><trkpt lat="43.36204" lon="13.200475"><ele>655.25</ele><time>2026-04-26T07:14:38.232Z</time></trkpt><trkpt lat="43.3618967" lon="13.2004717"><ele>660.5</ele><time>2026-04-26T07:14:39.233Z</time></trkpt><trkpt lat="43.361745" lon="13.2004817"><ele>665.75</ele><time>2026-04-26T07:14:40.231Z</time></trkpt><trkpt lat="43.3615933" lon="13.200465"><ele>671.0</ele><time>2026-04-26T07:14:41.23Z</time></trkpt><trkpt lat="43.3614367" lon="13.200385"><ele>664.6666666666666</ele><time>2026-04-26T07:14:42.233Z</time></trkpt><trkpt lat="43.3612733" lon="13.2002833"><ele>658.3333333333334</ele><time>2026-04-26T07:14:43.235Z</time></trkpt><trkpt lat="43.3611033" lon="13.20018"><ele>652.0</ele><time>2026-04-26T07:14:44.232Z</time></trkpt><trkpt lat="43.3609233" lon="13.2000883"><ele>652.0</ele><time>2026-04-26T07:14:45.233Z</time></trkpt><trkpt lat="43.36075" lon="13.200025"><ele>652.0</ele><time>2026-04-26T07:14:46.232Z</time></trkpt><trkpt lat="43.3605767" lon="13.20002"><ele>652.0</ele><time>2026-04-26T07:14:47.233Z</time></trkpt><trkpt lat="43.36042" lon="13.2000017"><ele>649.25</ele><time>2026-04-26T07:14:48.232Z</time></trkpt><trkpt lat="43.3602817" lon="13.199985"><ele>646.5</ele><time>2026-04-26T07:14:49.233Z</time></trkpt><trkpt lat="43.36016" lon="13.19997"><ele>643.75</ele><time>2026-04-26T07:14:50.23Z</time></trkpt><trkpt lat="43.3600533" lon="13.1999433"><ele>641.0</ele><time>2026-04-26T07:14:51.235Z</time></trkpt><trkpt lat="43.359955" lon="13.1999017"><ele>641.0</ele><time>2026-04-26T07:14:52.233Z</time></trkpt><trkpt lat="43.3598583" lon="13.1998533"><ele>641.0</ele><time>2026-04-26T07:14:53.232Z</time></trkpt><trkpt lat="43.359765" lon="13.199785"><ele>641.0</ele><time>2026-04-26T07:14:54.233Z</time></trkpt><trkpt lat="43.35968" lon="13.1997083"><ele>641.0</ele><time>2026-04-26T07:14:55.234Z</time></trkpt><trkpt lat="43.359595" lon="13.199635"><ele>641.0</ele><time>2026-04-26T07:14:56.233Z</time></trkpt><trkpt lat="43.35951" lon="13.1995683"><ele>648.4</ele><time>2026-04-26T07:14:57.235Z</time></trkpt><trkpt lat="43.3594183" lon="13.199515"><ele>655.8</ele><time>2026-04-26T07:14:58.231Z</time></trkpt><trkpt lat="43.3593233" lon="13.1994817"><ele>663.1999999999999</ele><time>2026-04-26T07:14:59.231Z</time></trkpt><trkpt lat="43.359225" lon="13.19948"><ele>670.5999999999999</ele><time>2026-04-26T07:15:00.236Z</time></trkpt><trkpt lat="43.3591317" lon="13.1995033"><ele>678.0</ele><time>2026-04-26T07:15:01.234Z</time></trkpt><trkpt lat="43.3590467" lon="13.19955"><ele>678.0</ele><time>2026-04-26T07:15:02.231Z</time></trkpt><trkpt lat="43.3589683" lon="13.199615"><ele>678.0</ele><time>2026-04-26T07:15:03.233Z</time></trkpt><trkpt lat="43.358895" lon="13.1996917"><ele>678.0</ele><time>2026-04-26T07:15:04.233Z</time></trkpt><trkpt lat="43.3588217" lon="13.1997867"><ele>678.0</ele><time>2026-04-26T07:15:05.231Z</time></trkpt><trkpt lat="43.3587733" lon="13.1999233"><ele>678.0</ele><time>2026-04-26T07:15:06.232Z</time></trkpt><trkpt lat="43.3587467" lon="13.2000767"><ele>679.0</ele><time>2026-04-26T07:15:07.232Z</time></trkpt><trkpt lat="43.3587367" lon="13.2002617"><ele>680.0</ele><time>2026-04-26T07:15:08.229Z</time></trkpt><trkpt lat="43.3587417" lon="13.2005017"><ele>681.0</ele><time>2026-04-26T07:15:09.233Z</time></trkpt><trkpt lat="43.3587367" lon="13.2007817"><ele>679.0</ele><time>2026-04-26T07:15:10.234Z</time></trkpt><trkpt lat="43.358725" lon="13.20107"><ele>677.0</ele><time>2026-04-26T07:15:11.235Z</time></trkpt><trkpt lat="43.3587217" lon="13.2013433"><ele>675.0</ele><time>2026-04-26T07:15:12.235Z</time></trkpt><trkpt lat="43.35872" lon="13.20159"><ele>672.75</ele><time>2026-04-26T07:15:13.234Z</time></trkpt><trkpt lat="43.35872" lon="13.2018067"><ele>670.5</ele><time>2026-04-26T07:15:14.233Z</time></trkpt><trkpt lat="43.358695" lon="13.2020017"><ele>668.25</ele><time>2026-04-26T07:15:15.233Z</time></trkpt><trkpt lat="43.358645" lon="13.2021583"><ele>666.0</ele><time>2026-04-26T07:15:16.234Z</time></trkpt><trkpt lat="43.3585617" lon="13.2022633"><ele>666.0</ele><time>2026-04-26T07:15:17.234Z</time></trkpt><trkpt lat="43.358465" lon="13.2022983"><ele>666.0</ele><time>2026-04-26T07:15:18.233Z</time></trkpt><trkpt lat="43.3583583" lon="13.2022817"><ele>666.0</ele><time>2026-04-26T07:15:19.234Z</time></trkpt><trkpt lat="43.3581967" lon="13.2021933"><ele>666.0</ele><time>2026-04-26T07:15:20.234Z</time></trkpt><trkpt lat="43.3580067" lon="13.2021217"><ele>669.0</ele><time>2026-04-26T07:15:21.234Z</time></trkpt><trkpt lat="43.3577883" lon="13.2020683"><ele>672.0</ele><time>2026-04-26T07:15:22.231Z</time></trkpt><trkpt lat="43.3575567" lon="13.2020083"><ele>672.0</ele><time>2026-04-26T07:15:23.232Z</time></trkpt><trkpt lat="43.357315" lon="13.2019367"><ele>672.0</ele><time>2026-04-26T07:15:24.232Z</time></trkpt><trkpt lat="43.3570917" lon="13.2018583"><ele>668.0</ele><time>2026-04-26T07:15:25.234Z</time></trkpt><trkpt lat="43.3568817" lon="13.2017867"><ele>664.0</ele><time>2026-04-26T07:15:26.235Z</time></trkpt><trkpt lat="43.3566833" lon="13.201705"><ele>660.0</ele><time>2026-04-26T07:15:27.237Z</time></trkpt><trkpt lat="43.3565" lon="13.2016033"><ele>662.3333333333334</ele><time>2026-04-26T07:15:28.232Z</time></trkpt><trkpt lat="43.356345" lon="13.2014783"><ele>664.6666666666667</ele><time>2026-04-26T07:15:29.233Z</time></trkpt><trkpt lat="43.3562267" lon="13.2013033"><ele>667.0</ele><time>2026-04-26T07:15:30.237Z</time></trkpt><trkpt lat="43.3561433" lon="13.2010933"><ele>667.0</ele><time>2026-04-26T07:15:31.232Z</time></trkpt><trkpt lat="43.3560633" lon="13.200925"><ele>667.0</ele><time>2026-04-26T07:15:32.226Z</time></trkpt><trkpt lat="43.355975" lon="13.2008067"><ele>667.0</ele><time>2026-04-26T07:15:33.234Z</time></trkpt><trkpt lat="43.3558667" lon="13.2007417"><ele>667.0</ele><time>2026-04-26T07:15:34.232Z</time></trkpt><trkpt lat="43.355735" lon="13.2007167"><ele>667.0</ele><time>2026-04-26T07:15:35.229Z</time></trkpt><trkpt lat="43.3555867" lon="13.200745"><ele>667.0</ele><time>2026-04-26T07:15:36.232Z</time></trkpt><trkpt lat="43.3554433" lon="13.2007583"><ele>667.0</ele><time>2026-04-26T07:15:37.236Z</time></trkpt><trkpt lat="43.3552933" lon="13.2007617"><ele>667.0</ele><time>2026-04-26T07:15:38.232Z</time></trkpt><trkpt lat="43.3551717" lon="13.200715"><ele>674.6666666666667</ele><time>2026-04-26T07:15:39.238Z</time></trkpt><trkpt lat="43.3550483" lon="13.2006283"><ele>682.3333333333334</ele><time>2026-04-26T07:15:40.233Z</time></trkpt><trkpt lat="43.35492" lon="13.2005017"><ele>690.0</ele><time>2026-04-26T07:15:41.233Z</time></trkpt><trkpt lat="43.3547767" lon="13.2003633"><ele>685.0</ele><time>2026-04-26T07:15:42.235Z</time></trkpt><trkpt lat="43.3546217" lon="13.2002283"><ele>680.0</ele><time>2026-04-26T07:15:43.235Z</time></trkpt><trkpt lat="43.35447" lon="13.2000967"><ele>675.0</ele><time>2026-04-26T07:15:44.233Z</time></trkpt><trkpt lat="43.3543283" lon="13.1999967"><ele>675.0</ele><time>2026-04-26T07:15:45.234Z</time></trkpt><trkpt lat="43.3542017" lon="13.1999417"><ele>675.0</ele><time>2026-04-26T07:15:46.232Z</time></trkpt><trkpt lat="43.35408" lon="13.1999433"><ele>675.0</ele><time>2026-04-26T07:15:47.23Z</time></trkpt><trkpt lat="43.3539717" lon="13.1999983"><ele>675.0</ele><time>2026-04-26T07:15:48.233Z</time></trkpt><trkpt lat="43.35388" lon="13.2000967"><ele>673.75</ele><time>2026-04-26T07:15:49.232Z</time></trkpt><trkpt lat="43.3537833" lon="13.20018"><ele>672.5</ele><time>2026-04-26T07:15:50.234Z</time></trkpt><trkpt lat="43.3536767" lon="13.2002383"><ele>671.25</ele><time>2026-04-26T07:15:51.24Z</time></trkpt><trkpt lat="43.353545" lon="13.200245"><ele>670.0</ele><time>2026-04-26T07:15:52.234Z</time></trkpt><trkpt lat="43.35339" lon="13.2002033"><ele>670.0</ele><time>2026-04-26T07:15:53.232Z</time></trkpt><trkpt lat="43.3532167" lon="13.20013"><ele>670.0</ele><time>2026-04-26T07:15:54.233Z</time></trkpt><trkpt lat="43.353025" lon="13.2000467"><ele>670.0</ele><time>2026-04-26T07:15:55.233Z</time></trkpt><trkpt lat="43.352835" lon="13.199955"><ele>665.6666666666667</ele><time>2026-04-26T07:15:56.238Z</time></trkpt><trkpt lat="43.35265" lon="13.1998517"><ele>661.3333333333334</ele><time>2026-04-26T07:15:57.237Z</time></trkpt><trkpt lat="43.3524783" lon="13.19975"><ele>657.0</ele><time>2026-04-26T07:15:58.234Z</time></trkpt><trkpt lat="43.35231" lon="13.19965"><ele>661.6666666666666</ele><time>2026-04-26T07:15:59.233Z</time></trkpt><trkpt lat="43.3521483" lon="13.199545"><ele>666.3333333333333</ele><time>2026-04-26T07:16:00.235Z</time></trkpt><trkpt lat="43.3519967" lon="13.1994517"><ele>671.0</ele><time>2026-04-26T07:16:01.232Z</time></trkpt><trkpt lat="43.3518567" lon="13.19936"><ele>671.0</ele><time>2026-04-26T07:16:02.229Z</time></trkpt><trkpt lat="43.3517183" lon="13.19927"><ele>671.0</ele><time>2026-04-26T07:16:03.234Z</time></trkpt><trkpt lat="43.3515733" lon="13.1991817"><ele>671.0</ele><time>2026-04-26T07:16:04.231Z</time></trkpt><trkpt lat="43.3514267" lon="13.19909"><ele>673.6666666666666</ele><time>2026-04-26T07:16:05.231Z</time></trkpt><trkpt lat="43.3512867" lon="13.1989983"><ele>676.3333333333334</ele><time>2026-04-26T07:16:06.231Z</time></trkpt><trkpt lat="43.3511433" lon="13.1989083"><ele>679.0</ele><time>2026-04-26T07:16:07.234Z</time></trkpt><trkpt lat="43.3510083" lon="13.1988067"><ele>679.0</ele><time>2026-04-26T07:16:08.231Z</time></trkpt><trkpt lat="43.3508783" lon="13.19869"><ele>679.0</ele><time>2026-04-26T07:16:09.238Z</time></trkpt><trkpt lat="43.350755" lon="13.1985517"><ele>679.0</ele><time>2026-04-26T07:16:10.226Z</time></trkpt><trkpt lat="43.3506317" lon="13.198405"><ele>680.0</ele><time>2026-04-26T07:16:11.234Z</time></trkpt><trkpt lat="43.350495" lon="13.1982667"><ele>681.0</ele><time>2026-04-26T07:16:12.233Z</time></trkpt><trkpt lat="43.350345" lon="13.198125"><ele>682.0</ele><time>2026-04-26T07:16:13.233Z</time></trkpt><trkpt lat="43.3501883" lon="13.1979733"><ele>684.3333333333334</ele><time>2026-04-26T07:16:14.232Z</time></trkpt><trkpt lat="43.3500283" lon="13.19781"><ele>686.6666666666666</ele><time>2026-04-26T07:16:15.233Z</time></trkpt><trkpt lat="43.3498767" lon="13.1976567"><ele>689.0</ele><time>2026-04-26T07:16:16.233Z</time></trkpt><trkpt lat="43.3497117" lon="13.1975167"><ele>690.0</ele><time>2026-04-26T07:16:17.229Z</time></trkpt><trkpt lat="43.349545" lon="13.1973817"><ele>691.0</ele><time>2026-04-26T07:16:18.233Z</time></trkpt><trkpt lat="43.3493833" lon="13.1972433"><ele>692.0</ele><time>2026-04-26T07:16:19.235Z</time></trkpt><trkpt lat="43.349225" lon="13.1971033"><ele>692.0</ele><time>2026-04-26T07:16:20.232Z</time></trkpt><trkpt lat="43.34907" lon="13.1969617"><ele>692.0</ele><time>2026-04-26T07:16:21.232Z</time></trkpt><trkpt lat="43.3489067" lon="13.196815"><ele>692.0</ele><time>2026-04-26T07:16:22.235Z</time></trkpt><trkpt lat="43.3487517" lon="13.1966517"><ele>683.3333333333333</ele><time>2026-04-26T07:16:23.232Z</time></trkpt><trkpt lat="43.3486033" lon="13.1965133"><ele>674.6666666666666</ele><time>2026-04-26T07:16:24.232Z</time></trkpt><trkpt lat="43.348505" lon="13.196265"><ele>666.0</ele><time>2026-04-26T07:16:25.233Z</time></trkpt><trkpt lat="43.348435" lon="13.1959683"><ele>667.0</ele><time>2026-04-26T07:16:26.232Z</time></trkpt><trkpt lat="43.3482767" lon="13.19584"><ele>668.0</ele><time>2026-04-26T07:16:27.229Z</time></trkpt><trkpt lat="43.348155" lon="13.19565"><ele>669.0</ele><time>2026-04-26T07:16:28.233Z</time></trkpt><trkpt lat="43.3480333" lon="13.1954383"><ele>658.6666666666666</ele><time>2026-04-26T07:16:29.233Z</time></trkpt><trkpt lat="43.3479033" lon="13.1952333"><ele>648.3333333333333</ele><time>2026-04-26T07:16:30.235Z</time></trkpt><trkpt lat="43.34779" lon="13.1950367"><ele>638.0</ele><time>2026-04-26T07:16:31.235Z</time></trkpt><trkpt lat="43.3476967" lon="13.19484"><ele>639.3333333333333</ele><time>2026-04-26T07:16:32.232Z</time></trkpt><trkpt lat="43.3476383" lon="13.1946267"><ele>640.6666666666666</ele><time>2026-04-26T07:16:33.24Z</time></trkpt><trkpt lat="43.3476267" lon="13.1944183"><ele>642.0</ele><time>2026-04-26T07:16:34.229Z</time></trkpt><trkpt lat="43.3476267" lon="13.1942183"><ele>642.0</ele><time>2026-04-26T07:16:35.229Z</time></trkpt><trkpt lat="43.3476383" lon="13.19402"><ele>642.0</ele><time>2026-04-26T07:16:36.234Z</time></trkpt><trkpt lat="43.3476583" lon="13.1938217"><ele>642.0</ele><time>2026-04-26T07:16:37.232Z</time></trkpt><trkpt lat="43.3476983" lon="13.1936317"><ele>642.0</ele><time>2026-04-26T07:16:38.233Z</time></trkpt><trkpt lat="43.3477633" lon="13.1934567"><ele>640.3333333333334</ele><time>2026-04-26T07:16:39.231Z</time></trkpt><trkpt lat="43.3478517" lon="13.1932917"><ele>638.6666666666667</ele><time>2026-04-26T07:16:40.233Z</time></trkpt><trkpt lat="43.3479567" lon="13.1931417"><ele>637.0</ele><time>2026-04-26T07:16:41.231Z</time></trkpt><trkpt lat="43.3480717" lon="13.193"><ele>637.0</ele><time>2026-04-26T07:16:42.234Z</time></trkpt><trkpt lat="43.3481933" lon="13.1928633"><ele>637.0</ele><time>2026-04-26T07:16:43.234Z</time></trkpt><trkpt lat="43.3483183" lon="13.1927317"><ele>637.0</ele><time>2026-04-26T07:16:44.235Z</time></trkpt><trkpt lat="43.348445" lon="13.19261"><ele>637.0</ele><time>2026-04-26T07:16:45.234Z</time></trkpt><trkpt lat="43.3485783" lon="13.1925117"><ele>637.0</ele><time>2026-04-26T07:16:46.231Z</time></trkpt><trkpt lat="43.3487183" lon="13.1924417"><ele>637.0</ele><time>2026-04-26T07:16:47.234Z</time></trkpt><trkpt lat="43.3488583" lon="13.192385"><ele>637.0</ele><time>2026-04-26T07:16:48.231Z</time></trkpt><trkpt lat="43.34899" lon="13.1923433"><ele>635.4</ele><time>2026-04-26T07:16:49.234Z</time></trkpt><trkpt lat="43.3491167" lon="13.1923117"><ele>633.8000000000001</ele><time>2026-04-26T07:16:50.234Z</time></trkpt><trkpt lat="43.3492167" lon="13.1922617"><ele>632.2</ele><time>2026-04-26T07:16:51.234Z</time></trkpt><trkpt lat="43.349285" lon="13.192185"><ele>630.6</ele><time>2026-04-26T07:16:52.231Z</time></trkpt><trkpt lat="43.3493" lon="13.1920983"><ele>629.0</ele><time>2026-04-26T07:16:53.236Z</time></trkpt><trkpt lat="43.3491967" lon="13.1920017"><ele>629.0</ele><time>2026-04-26T07:16:55.232Z</time></trkpt><trkpt lat="43.3491017" lon="13.19203"><ele>629.0</ele><time>2026-04-26T07:16:56.231Z</time></trkpt><trkpt lat="43.3489833" lon="13.1920917"><ele>629.0</ele><time>2026-04-26T07:16:57.233Z</time></trkpt><trkpt lat="43.348845" lon="13.19213"><ele>629.0</ele><time>2026-04-26T07:16:58.236Z</time></trkpt><trkpt lat="43.3486833" lon="13.1921383"><ele>627.3333333333333</ele><time>2026-04-26T07:16:59.233Z</time></trkpt><trkpt lat="43.3485083" lon="13.1920983"><ele>625.6666666666666</ele><time>2026-04-26T07:17:00.232Z</time></trkpt><trkpt lat="43.34834" lon="13.1920483"><ele>624.0</ele><time>2026-04-26T07:17:01.233Z</time></trkpt><trkpt lat="43.3481783" lon="13.1920233"><ele>620.6666666666666</ele><time>2026-04-26T07:17:02.232Z</time></trkpt><trkpt lat="43.3480183" lon="13.1920667"><ele>617.3333333333333</ele><time>2026-04-26T07:17:03.233Z</time></trkpt><trkpt lat="43.3478717" lon="13.1921633"><ele>614.0</ele><time>2026-04-26T07:17:04.231Z</time></trkpt><trkpt lat="43.3477183" lon="13.1923067"><ele>617.6666666666666</ele><time>2026-04-26T07:17:05.231Z</time></trkpt><trkpt lat="43.3475683" lon="13.1924633"><ele>621.3333333333334</ele><time>2026-04-26T07:17:06.234Z</time></trkpt><trkpt lat="43.3474217" lon="13.1926167"><ele>625.0</ele><time>2026-04-26T07:17:07.232Z</time></trkpt><trkpt lat="43.34728" lon="13.1927617"><ele>620.6666666666667</ele><time>2026-04-26T07:17:08.234Z</time></trkpt><trkpt lat="43.34715" lon="13.1929033"><ele>616.3333333333334</ele><time>2026-04-26T07:17:09.234Z</time></trkpt><trkpt lat="43.347025" lon="13.19306"><ele>612.0</ele><time>2026-04-26T07:17:10.233Z</time></trkpt><trkpt lat="43.346925" lon="13.1932367"><ele>612.0</ele><time>2026-04-26T07:17:11.233Z</time></trkpt><trkpt lat="43.34685" lon="13.1934383"><ele>612.0</ele><time>2026-04-26T07:17:12.232Z</time></trkpt><trkpt lat="43.346795" lon="13.193655"><ele>612.0</ele><time>2026-04-26T07:17:13.233Z</time></trkpt><trkpt lat="43.3467617" lon="13.19389"><ele>612.3333333333334</ele><time>2026-04-26T07:17:14.231Z</time></trkpt><trkpt lat="43.3467467" lon="13.1941367"><ele>612.6666666666667</ele><time>2026-04-26T07:17:15.233Z</time></trkpt><trkpt lat="43.346755" lon="13.1943917"><ele>613.0</ele><time>2026-04-26T07:17:16.234Z</time></trkpt><trkpt lat="43.346775" lon="13.194655"><ele>611.6666666666667</ele><time>2026-04-26T07:17:17.232Z</time></trkpt><trkpt lat="43.346795" lon="13.1949233"><ele>610.3333333333334</ele><time>2026-04-26T07:17:18.231Z</time></trkpt><trkpt lat="43.3468183" lon="13.1951983"><ele>609.0</ele><time>2026-04-26T07:17:19.237Z</time></trkpt><trkpt lat="43.3468317" lon="13.1954817"><ele>608.3333333333334</ele><time>2026-04-26T07:17:20.235Z</time></trkpt><trkpt lat="43.3468333" lon="13.19578"><ele>607.6666666666667</ele><time>2026-04-26T07:17:21.234Z</time></trkpt><trkpt lat="43.3468133" lon="13.1960833"><ele>607.0</ele><time>2026-04-26T07:17:22.232Z</time></trkpt><trkpt lat="43.3467833" lon="13.196375"><ele>606.6666666666667</ele><time>2026-04-26T07:17:23.231Z</time></trkpt><trkpt lat="43.346745" lon="13.1966533"><ele>606.3333333333334</ele><time>2026-04-26T07:17:24.232Z</time></trkpt><trkpt lat="43.346705" lon="13.19692"><ele>606.0</ele><time>2026-04-26T07:17:25.235Z</time></trkpt><trkpt lat="43.346655" lon="13.1971717"><ele>606.3333333333334</ele><time>2026-04-26T07:17:26.234Z</time></trkpt><trkpt lat="43.3465867" lon="13.1973967"><ele>606.6666666666667</ele><time>2026-04-26T07:17:27.233Z</time></trkpt><trkpt lat="43.3464883" lon="13.19758"><ele>607.0</ele><time>2026-04-26T07:17:28.233Z</time></trkpt><trkpt lat="43.3463683" lon="13.1977267"><ele>604.0</ele><time>2026-04-26T07:17:29.233Z</time></trkpt><trkpt lat="43.3462267" lon="13.1978317"><ele>601.0</ele><time>2026-04-26T07:17:30.231Z</time></trkpt><trkpt lat="43.3460817" lon="13.19791"><ele>598.0</ele><time>2026-04-26T07:17:31.235Z</time></trkpt><trkpt lat="43.3459367" lon="13.1979683"><ele>598.0</ele><time>2026-04-26T07:17:32.228Z</time></trkpt><trkpt lat="43.345795" lon="13.1979867"><ele>598.0</ele><time>2026-04-26T07:17:33.234Z</time></trkpt><trkpt lat="43.345665" lon="13.1979317"><ele>598.0</ele><time>2026-04-26T07:17:34.234Z</time></trkpt><trkpt lat="43.3455667" lon="13.1978083"><ele>598.0</ele><time>2026-04-26T07:17:35.233Z</time></trkpt><trkpt lat="43.3455" lon="13.1976017"><ele>598.3333333333334</ele><time>2026-04-26T07:17:36.231Z</time></trkpt><trkpt lat="43.3454467" lon="13.1973483"><ele>598.6666666666666</ele><time>2026-04-26T07:17:37.232Z</time></trkpt><trkpt lat="43.3453917" lon="13.1970867"><ele>599.0</ele><time>2026-04-26T07:17:38.244Z</time></trkpt><trkpt lat="43.3453283" lon="13.1968217"><ele>597.6666666666666</ele><time>2026-04-26T07:17:39.235Z</time></trkpt><trkpt lat="43.3452667" lon="13.196545"><ele>596.3333333333334</ele><time>2026-04-26T07:17:40.234Z</time></trkpt><trkpt lat="43.3452" lon="13.1962717"><ele>595.0</ele><time>2026-04-26T07:17:41.232Z</time></trkpt><trkpt lat="43.3451317" lon="13.1959933"><ele>593.0</ele><time>2026-04-26T07:17:42.232Z</time></trkpt><trkpt lat="43.3450683" lon="13.19572"><ele>591.0</ele><time>2026-04-26T07:17:43.231Z</time></trkpt><trkpt lat="43.344995" lon="13.1954617"><ele>589.0</ele><time>2026-04-26T07:17:44.232Z</time></trkpt><trkpt lat="43.3449067" lon="13.1952183"><ele>589.3333333333334</ele><time>2026-04-26T07:17:45.233Z</time></trkpt><trkpt lat="43.3447967" lon="13.1949867"><ele>589.6666666666666</ele><time>2026-04-26T07:17:46.235Z</time></trkpt><trkpt lat="43.3446717" lon="13.1947483"><ele>590.0</ele><time>2026-04-26T07:17:47.232Z</time></trkpt><trkpt lat="43.3445433" lon="13.1944983"><ele>590.0</ele><time>2026-04-26T07:17:48.231Z</time></trkpt><trkpt lat="43.3444133" lon="13.19424"><ele>590.0</ele><time>2026-04-26T07:17:49.233Z</time></trkpt><trkpt lat="43.3443017" lon="13.193985"><ele>590.0</ele><time>2026-04-26T07:17:50.234Z</time></trkpt><trkpt lat="43.3442067" lon="13.1937383"><ele>587.0</ele><time>2026-04-26T07:17:51.231Z</time></trkpt><trkpt lat="43.3441183" lon="13.1935083"><ele>584.0</ele><time>2026-04-26T07:17:52.232Z</time></trkpt><trkpt lat="43.3440283" lon="13.1933117"><ele>581.0</ele><time>2026-04-26T07:17:53.232Z</time></trkpt><trkpt lat="43.3439183" lon="13.1931483"><ele>579.0</ele><time>2026-04-26T07:17:54.236Z</time></trkpt><trkpt lat="43.3437833" lon="13.1930317"><ele>577.0</ele><time>2026-04-26T07:17:55.235Z</time></trkpt><trkpt lat="43.34362" lon="13.192965"><ele>575.0</ele><time>2026-04-26T07:17:56.233Z</time></trkpt><trkpt lat="43.34344" lon="13.1929567"><ele>575.0</ele><time>2026-04-26T07:17:57.242Z</time></trkpt><trkpt lat="43.34326" lon="13.1929717"><ele>575.0</ele><time>2026-04-26T07:17:58.234Z</time></trkpt><trkpt lat="43.3430783" lon="13.1929983"><ele>575.0</ele><time>2026-04-26T07:17:59.231Z</time></trkpt><trkpt lat="43.3428917" lon="13.1930267"><ele>573.0</ele><time>2026-04-26T07:18:00.232Z</time></trkpt><trkpt lat="43.3427067" lon="13.1930733"><ele>571.0</ele><time>2026-04-26T07:18:01.233Z</time></trkpt><trkpt lat="43.342525" lon="13.1931483"><ele>569.0</ele><time>2026-04-26T07:18:02.233Z</time></trkpt><trkpt lat="43.3423483" lon="13.1932233"><ele>575.0</ele><time>2026-04-26T07:18:03.232Z</time></trkpt><trkpt lat="43.3421633" lon="13.1932833"><ele>581.0</ele><time>2026-04-26T07:18:04.233Z</time></trkpt><trkpt lat="43.34197" lon="13.1932967"><ele>587.0</ele><time>2026-04-26T07:18:05.231Z</time></trkpt><trkpt lat="43.3417667" lon="13.1932833"><ele>587.0</ele><time>2026-04-26T07:18:06.234Z</time></trkpt><trkpt lat="43.341555" lon="13.1932533"><ele>587.0</ele><time>2026-04-26T07:18:07.234Z</time></trkpt><trkpt lat="43.341345" lon="13.19321"><ele>587.0</ele><time>2026-04-26T07:18:08.235Z</time></trkpt><trkpt lat="43.3411417" lon="13.19316"><ele>580.3333333333333</ele><time>2026-04-26T07:18:09.231Z</time></trkpt><trkpt lat="43.3409383" lon="13.193125"><ele>573.6666666666666</ele><time>2026-04-26T07:18:10.232Z</time></trkpt><trkpt lat="43.3407317" lon="13.1931217"><ele>567.0</ele><time>2026-04-26T07:18:11.231Z</time></trkpt><trkpt lat="43.3405267" lon="13.193155"><ele>569.0</ele><time>2026-04-26T07:18:12.233Z</time></trkpt><trkpt lat="43.3403167" lon="13.19322"><ele>571.0</ele><time>2026-04-26T07:18:13.234Z</time></trkpt><trkpt lat="43.3401033" lon="13.193295"><ele>573.0</ele><time>2026-04-26T07:18:14.235Z</time></trkpt><trkpt lat="43.3398817" lon="13.193375"><ele>571.3333333333334</ele><time>2026-04-26T07:18:15.239Z</time></trkpt><trkpt lat="43.3396667" lon="13.1934583"><ele>569.6666666666667</ele><time>2026-04-26T07:18:16.235Z</time></trkpt><trkpt lat="43.3394583" lon="13.19354"><ele>568.0</ele><time>2026-04-26T07:18:17.232Z</time></trkpt><trkpt lat="43.3392583" lon="13.1936183"><ele>568.0</ele><time>2026-04-26T07:18:18.234Z</time></trkpt><trkpt lat="43.3390567" lon="13.1936567"><ele>568.0</ele><time>2026-04-26T07:18:19.235Z</time></trkpt><trkpt lat="43.33885" lon="13.19364"><ele>568.0</ele><time>2026-04-26T07:18:20.232Z</time></trkpt><trkpt lat="43.3386483" lon="13.1935983"><ele>568.0</ele><time>2026-04-26T07:18:21.233Z</time></trkpt><trkpt lat="43.3384483" lon="13.19357"><ele>568.0</ele><time>2026-04-26T07:18:22.233Z</time></trkpt><trkpt lat="43.33825" lon="13.19357"><ele>568.0</ele><time>2026-04-26T07:18:23.23Z</time></trkpt><trkpt lat="43.3380467" lon="13.193585"><ele>568.0</ele><time>2026-04-26T07:18:24.231Z</time></trkpt><trkpt lat="43.3378433" lon="13.1935667"><ele>568.0</ele><time>2026-04-26T07:18:25.23Z</time></trkpt><trkpt lat="43.33766" lon="13.1935333"><ele>568.0</ele><time>2026-04-26T07:18:26.236Z</time></trkpt><trkpt lat="43.337485" lon="13.1935383"><ele>568.0</ele><time>2026-04-26T07:18:27.234Z</time></trkpt><trkpt lat="43.3373083" lon="13.1936067"><ele>568.0</ele><time>2026-04-26T07:18:28.231Z</time></trkpt><trkpt lat="43.3371383" lon="13.1937033"><ele>568.0</ele><time>2026-04-26T07:18:29.233Z</time></trkpt><trkpt lat="43.3369833" lon="13.193785"><ele>566.6666666666667</ele><time>2026-04-26T07:18:30.232Z</time></trkpt><trkpt lat="43.33683" lon="13.1938233"><ele>565.3333333333334</ele><time>2026-04-26T07:18:31.231Z</time></trkpt><trkpt lat="43.3366817" lon="13.1938017"><ele>564.0</ele><time>2026-04-26T07:18:32.234Z</time></trkpt><trkpt lat="43.3365417" lon="13.1937133"><ele>564.0</ele><time>2026-04-26T07:18:33.233Z</time></trkpt><trkpt lat="43.3363983" lon="13.1935967"><ele>564.0</ele><time>2026-04-26T07:18:34.231Z</time></trkpt><trkpt lat="43.3362467" lon="13.1934633"><ele>564.0</ele><time>2026-04-26T07:18:35.231Z</time></trkpt><trkpt lat="43.3360833" lon="13.1933333"><ele>562.6666666666666</ele><time>2026-04-26T07:18:36.237Z</time></trkpt><trkpt lat="43.3359067" lon="13.1932133"><ele>561.3333333333333</ele><time>2026-04-26T07:18:37.231Z</time></trkpt><trkpt lat="43.3357233" lon="13.1931067"><ele>560.0</ele><time>2026-04-26T07:18:38.231Z</time></trkpt><trkpt lat="43.33554" lon="13.19301"><ele>558.3333333333333</ele><time>2026-04-26T07:18:39.234Z</time></trkpt><trkpt lat="43.3353633" lon="13.1929283"><ele>556.6666666666666</ele><time>2026-04-26T07:18:40.233Z</time></trkpt><trkpt lat="43.3351817" lon="13.19288"><ele>555.0</ele><time>2026-04-26T07:18:41.231Z</time></trkpt><trkpt lat="43.334995" lon="13.1928817"><ele>555.0</ele><time>2026-04-26T07:18:42.231Z</time></trkpt><trkpt lat="43.3348033" lon="13.1929183"><ele>555.0</ele><time>2026-04-26T07:18:43.233Z</time></trkpt><trkpt lat="43.334605" lon="13.1929717"><ele>555.0</ele><time>2026-04-26T07:18:44.232Z</time></trkpt><trkpt lat="43.3343967" lon="13.193025"><ele>553.6666666666666</ele><time>2026-04-26T07:18:45.234Z</time></trkpt><trkpt lat="43.3341817" lon="13.1930733"><ele>552.3333333333333</ele><time>2026-04-26T07:18:46.234Z</time></trkpt><trkpt lat="43.3339633" lon="13.19312"><ele>551.0</ele><time>2026-04-26T07:18:47.232Z</time></trkpt><trkpt lat="43.3337483" lon="13.1931667"><ele>549.0</ele><time>2026-04-26T07:18:48.233Z</time></trkpt><trkpt lat="43.3335417" lon="13.19321"><ele>547.0</ele><time>2026-04-26T07:18:49.23Z</time></trkpt><trkpt lat="43.33334" lon="13.1932517"><ele>545.0</ele><time>2026-04-26T07:18:50.231Z</time></trkpt><trkpt lat="43.333145" lon="13.1932833"><ele>544.0</ele><time>2026-04-26T07:18:51.234Z</time></trkpt><trkpt lat="43.33296" lon="13.1932833"><ele>543.0</ele><time>2026-04-26T07:18:52.232Z</time></trkpt><trkpt lat="43.3327783" lon="13.19325"><ele>542.0</ele><time>2026-04-26T07:18:53.232Z</time></trkpt><trkpt lat="43.3325867" lon="13.1931783"><ele>540.0</ele><time>2026-04-26T07:18:54.236Z</time></trkpt><trkpt lat="43.33239" lon="13.193095"><ele>538.0</ele><time>2026-04-26T07:18:55.233Z</time></trkpt><trkpt lat="43.332195" lon="13.1930117"><ele>536.0</ele><time>2026-04-26T07:18:56.236Z</time></trkpt><trkpt lat="43.3319983" lon="13.1929283"><ele>536.0</ele><time>2026-04-26T07:18:57.231Z</time></trkpt><trkpt lat="43.33181" lon="13.1928483"><ele>536.0</ele><time>2026-04-26T07:18:58.233Z</time></trkpt><trkpt lat="43.331625" lon="13.19277"><ele>536.0</ele><time>2026-04-26T07:18:59.232Z</time></trkpt><trkpt lat="43.3314417" lon="13.1926917"><ele>537.0</ele><time>2026-04-26T07:19:00.233Z</time></trkpt><trkpt lat="43.3312583" lon="13.1926133"><ele>538.0</ele><time>2026-04-26T07:19:01.234Z</time></trkpt><trkpt lat="43.3310833" lon="13.1925367"><ele>539.0</ele><time>2026-04-26T07:19:02.234Z</time></trkpt><trkpt lat="43.3309183" lon="13.1924667"><ele>539.0</ele><time>2026-04-26T07:19:03.234Z</time></trkpt><trkpt lat="43.3307617" lon="13.1924033"><ele>539.0</ele><time>2026-04-26T07:19:04.23Z</time></trkpt><trkpt lat="43.3306167" lon="13.1923633"><ele>539.0</ele><time>2026-04-26T07:19:05.231Z</time></trkpt><trkpt lat="43.3304733" lon="13.1923717"><ele>541.6666666666666</ele><time>2026-04-26T07:19:06.231Z</time></trkpt><trkpt lat="43.3303267" lon="13.1924383"><ele>544.3333333333334</ele><time>2026-04-26T07:19:07.232Z</time></trkpt><trkpt lat="43.330185" lon="13.19255"><ele>547.0</ele><time>2026-04-26T07:19:08.23Z</time></trkpt><trkpt lat="43.3300617" lon="13.1927017"><ele>547.0</ele><time>2026-04-26T07:19:09.24Z</time></trkpt><trkpt lat="43.3299667" lon="13.192885"><ele>547.0</ele><time>2026-04-26T07:19:10.232Z</time></trkpt><trkpt lat="43.3298967" lon="13.19309"><ele>547.0</ele><time>2026-04-26T07:19:11.231Z</time></trkpt><trkpt lat="43.3298333" lon="13.1932983"><ele>548.3333333333334</ele><time>2026-04-26T07:19:12.231Z</time></trkpt><trkpt lat="43.329745" lon="13.1934917"><ele>549.6666666666666</ele><time>2026-04-26T07:19:13.234Z</time></trkpt><trkpt lat="43.3296267" lon="13.1936567"><ele>551.0</ele><time>2026-04-26T07:19:14.229Z</time></trkpt><trkpt lat="43.329485" lon="13.1937733"><ele>551.0</ele><time>2026-04-26T07:19:15.232Z</time></trkpt><trkpt lat="43.329335" lon="13.1938317"><ele>551.0</ele><time>2026-04-26T07:19:16.232Z</time></trkpt><trkpt lat="43.3291917" lon="13.19383"><ele>551.0</ele><time>2026-04-26T07:19:17.233Z</time></trkpt><trkpt lat="43.3290717" lon="13.19376"><ele>551.0</ele><time>2026-04-26T07:19:18.233Z</time></trkpt><trkpt lat="43.328975" lon="13.1936333"><ele>551.0</ele><time>2026-04-26T07:19:19.234Z</time></trkpt><trkpt lat="43.3288933" lon="13.19347"><ele>551.0</ele><time>2026-04-26T07:19:20.231Z</time></trkpt><trkpt lat="43.3288" lon="13.1933183"><ele>551.0</ele><time>2026-04-26T07:19:21.231Z</time></trkpt><trkpt lat="43.32868" lon="13.1932033"><ele>551.0</ele><time>2026-04-26T07:19:22.232Z</time></trkpt><trkpt lat="43.32854" lon="13.1931333"><ele>550.75</ele><time>2026-04-26T07:19:23.232Z</time></trkpt><trkpt lat="43.3283967" lon="13.1930883"><ele>550.5</ele><time>2026-04-26T07:19:24.231Z</time></trkpt><trkpt lat="43.32826" lon="13.1930317"><ele>550.25</ele><time>2026-04-26T07:19:25.231Z</time></trkpt><trkpt lat="43.328145" lon="13.19293"><ele>550.0</ele><time>2026-04-26T07:19:26.23Z</time></trkpt><trkpt lat="43.32805" lon="13.1927733"><ele>546.3333333333334</ele><time>2026-04-26T07:19:27.235Z</time></trkpt><trkpt lat="43.3279833" lon="13.19257"><ele>542.6666666666666</ele><time>2026-04-26T07:19:28.23Z</time></trkpt><trkpt lat="43.3279283" lon="13.1923417"><ele>539.0</ele><time>2026-04-26T07:19:29.231Z</time></trkpt><trkpt lat="43.3278617" lon="13.19211"><ele>539.0</ele><time>2026-04-26T07:19:30.231Z</time></trkpt><trkpt lat="43.32778" lon="13.191885"><ele>539.0</ele><time>2026-04-26T07:19:31.234Z</time></trkpt><trkpt lat="43.3276883" lon="13.1916717"><ele>539.0</ele><time>2026-04-26T07:19:32.234Z</time></trkpt><trkpt lat="43.32759" lon="13.1914767"><ele>541.0</ele><time>2026-04-26T07:19:33.233Z</time></trkpt><trkpt lat="43.3274783" lon="13.1912833"><ele>543.0</ele><time>2026-04-26T07:19:34.232Z</time></trkpt><trkpt lat="43.32736" lon="13.191095"><ele>545.0</ele><time>2026-04-26T07:19:35.231Z</time></trkpt><trkpt lat="43.327225" lon="13.1909133"><ele>543.3333333333333</ele><time>2026-04-26T07:19:36.229Z</time></trkpt><trkpt lat="43.3270767" lon="13.1907483"><ele>541.6666666666666</ele><time>2026-04-26T07:19:37.234Z</time></trkpt><trkpt lat="43.3269267" lon="13.19059"><ele>540.0</ele><time>2026-04-26T07:19:38.233Z</time></trkpt><trkpt lat="43.326765" lon="13.1904283"><ele>540.0</ele><time>2026-04-26T07:19:39.232Z</time></trkpt><trkpt lat="43.3265917" lon="13.1902583"><ele>540.0</ele><time>2026-04-26T07:19:40.232Z</time></trkpt><trkpt lat="43.32642" lon="13.1900867"><ele>540.0</ele><time>2026-04-26T07:19:41.232Z</time></trkpt><trkpt lat="43.326255" lon="13.1899217"><ele>538.3333333333334</ele><time>2026-04-26T07:19:42.236Z</time></trkpt><trkpt lat="43.3260883" lon="13.1897633"><ele>536.6666666666667</ele><time>2026-04-26T07:19:43.236Z</time></trkpt><trkpt lat="43.3259167" lon="13.18963"><ele>535.0</ele><time>2026-04-26T07:19:44.232Z</time></trkpt><trkpt lat="43.3257317" lon="13.1895267"><ele>532.3333333333334</ele><time>2026-04-26T07:19:45.235Z</time></trkpt><trkpt lat="43.325545" lon="13.1894533"><ele>529.6666666666666</ele><time>2026-04-26T07:19:46.232Z</time></trkpt><trkpt lat="43.3253567" lon="13.18939"><ele>527.0</ele><time>2026-04-26T07:19:47.234Z</time></trkpt><trkpt lat="43.32517" lon="13.189335"><ele>527.0</ele><time>2026-04-26T07:19:48.233Z</time></trkpt><trkpt lat="43.3249933" lon="13.18929"><ele>527.0</ele><time>2026-04-26T07:19:49.232Z</time></trkpt><trkpt lat="43.3248233" lon="13.189265"><ele>527.0</ele><time>2026-04-26T07:19:50.231Z</time></trkpt><trkpt lat="43.3246767" lon="13.1892233"><ele>524.5</ele><time>2026-04-26T07:19:51.234Z</time></trkpt><trkpt lat="43.3245483" lon="13.1891483"><ele>522.0</ele><time>2026-04-26T07:19:52.23Z</time></trkpt><trkpt lat="43.3244433" lon="13.1890267"><ele>519.5</ele><time>2026-04-26T07:19:53.231Z</time></trkpt><trkpt lat="43.3243767" lon="13.18887"><ele>517.0</ele><time>2026-04-26T07:19:54.232Z</time></trkpt><trkpt lat="43.3243317" lon="13.1886967"><ele>517.0</ele><time>2026-04-26T07:19:55.231Z</time></trkpt><trkpt lat="43.3242633" lon="13.1885367"><ele>517.0</ele><time>2026-04-26T07:19:56.231Z</time></trkpt><trkpt lat="43.3241467" lon="13.1883967"><ele>517.0</ele><time>2026-04-26T07:19:57.233Z</time></trkpt><trkpt lat="43.324" lon="13.18828"><ele>514.6666666666667</ele><time>2026-04-26T07:19:58.231Z</time></trkpt><trkpt lat="43.3238467" lon="13.188175"><ele>512.3333333333334</ele><time>2026-04-26T07:19:59.231Z</time></trkpt><trkpt lat="43.3237033" lon="13.1880633"><ele>510.0</ele><time>2026-04-26T07:20:00.236Z</time></trkpt><trkpt lat="43.3235817" lon="13.1879317"><ele>510.0</ele><time>2026-04-26T07:20:01.229Z</time></trkpt><trkpt lat="43.3234867" lon="13.187775"><ele>510.0</ele><time>2026-04-26T07:20:02.229Z</time></trkpt><trkpt lat="43.3234183" lon="13.1876067"><ele>510.0</ele><time>2026-04-26T07:20:03.232Z</time></trkpt><trkpt lat="43.3233467" lon="13.1874533"><ele>510.0</ele><time>2026-04-26T07:20:04.232Z</time></trkpt><trkpt lat="43.3232483" lon="13.1873433"><ele>511.0</ele><time>2026-04-26T07:20:05.23Z</time></trkpt><trkpt lat="43.3231133" lon="13.187285"><ele>512.0</ele><time>2026-04-26T07:20:06.232Z</time></trkpt><trkpt lat="43.322945" lon="13.1872633"><ele>513.0</ele><time>2026-04-26T07:20:07.231Z</time></trkpt><trkpt lat="43.3227617" lon="13.18724"><ele>510.33333333333337</ele><time>2026-04-26T07:20:08.234Z</time></trkpt><trkpt lat="43.3225767" lon="13.18721"><ele>507.6666666666667</ele><time>2026-04-26T07:20:09.233Z</time></trkpt><trkpt lat="43.3223867" lon="13.1871867"><ele>505.0</ele><time>2026-04-26T07:20:10.232Z</time></trkpt><trkpt lat="43.3221917" lon="13.1871583"><ele>504.6666666666667</ele><time>2026-04-26T07:20:11.232Z</time></trkpt><trkpt lat="43.3220017" lon="13.187125"><ele>504.33333333333337</ele><time>2026-04-26T07:20:12.242Z</time></trkpt><trkpt lat="43.32182" lon="13.1870833"><ele>504.0</ele><time>2026-04-26T07:20:13.236Z</time></trkpt><trkpt lat="43.3216583" lon="13.187015"><ele>504.0</ele><time>2026-04-26T07:20:14.234Z</time></trkpt><trkpt lat="43.321515" lon="13.1869117"><ele>504.0</ele><time>2026-04-26T07:20:15.233Z</time></trkpt><trkpt lat="43.32139" lon="13.1867617"><ele>504.0</ele><time>2026-04-26T07:20:16.232Z</time></trkpt><trkpt lat="43.3212683" lon="13.1865767"><ele>505.0</ele><time>2026-04-26T07:20:17.232Z</time></trkpt><trkpt lat="43.3211517" lon="13.1863633"><ele>506.0</ele><time>2026-04-26T07:20:18.233Z</time></trkpt><trkpt lat="43.321045" lon="13.1861217"><ele>507.0</ele><time>2026-04-26T07:20:19.234Z</time></trkpt><trkpt lat="43.3209533" lon="13.1858517"><ele>505.66666666666663</ele><time>2026-04-26T07:20:20.236Z</time></trkpt><trkpt lat="43.3208783" lon="13.18558"><ele>504.3333333333333</ele><time>2026-04-26T07:20:21.238Z</time></trkpt><trkpt lat="43.3208" lon="13.1853233"><ele>503.0</ele><time>2026-04-26T07:20:22.232Z</time></trkpt><trkpt lat="43.320705" lon="13.1850833"><ele>503.0</ele><time>2026-04-26T07:20:23.232Z</time></trkpt><trkpt lat="43.3206017" lon="13.1848667"><ele>503.0</ele><time>2026-04-26T07:20:24.233Z</time></trkpt><trkpt lat="43.320495" lon="13.184665"><ele>503.0</ele><time>2026-04-26T07:20:25.235Z</time></trkpt><trkpt lat="43.32039" lon="13.1844967"><ele>502.3333333333333</ele><time>2026-04-26T07:20:26.234Z</time></trkpt><trkpt lat="43.320275" lon="13.1843717"><ele>501.66666666666663</ele><time>2026-04-26T07:20:27.236Z</time></trkpt><trkpt lat="43.3201367" lon="13.1842867"><ele>501.0</ele><time>2026-04-26T07:20:28.231Z</time></trkpt><trkpt lat="43.31996" lon="13.1842483"><ele>501.0</ele><time>2026-04-26T07:20:29.232Z</time></trkpt><trkpt lat="43.3197633" lon="13.1842367"><ele>501.0</ele><time>2026-04-26T07:20:30.235Z</time></trkpt><trkpt lat="43.319565" lon="13.1842283"><ele>501.0</ele><time>2026-04-26T07:20:31.233Z</time></trkpt><trkpt lat="43.3193717" lon="13.1842167"><ele>501.0</ele><time>2026-04-26T07:20:32.234Z</time></trkpt><trkpt lat="43.3191883" lon="13.184205"><ele>501.0</ele><time>2026-04-26T07:20:33.235Z</time></trkpt><trkpt lat="43.3190133" lon="13.184195"><ele>501.0</ele><time>2026-04-26T07:20:34.232Z</time></trkpt><trkpt lat="43.31885" lon="13.184175"><ele>501.0</ele><time>2026-04-26T07:20:35.232Z</time></trkpt><trkpt lat="43.3187083" lon="13.18413"><ele>501.0</ele><time>2026-04-26T07:20:36.23Z</time></trkpt><trkpt lat="43.3186083" lon="13.1840233"><ele>501.0</ele><time>2026-04-26T07:20:37.234Z</time></trkpt><trkpt lat="43.3185483" lon="13.1838483"><ele>501.0</ele><time>2026-04-26T07:20:38.233Z</time></trkpt><trkpt lat="43.3185183" lon="13.183635"><ele>501.0</ele><time>2026-04-26T07:20:39.235Z</time></trkpt><trkpt lat="43.3184933" lon="13.1834067"><ele>501.0</ele><time>2026-04-26T07:20:40.233Z</time></trkpt><trkpt lat="43.3184333" lon="13.1831867"><ele>501.0</ele><time>2026-04-26T07:20:41.232Z</time></trkpt><trkpt lat="43.3183417" lon="13.1829867"><ele>501.0</ele><time>2026-04-26T07:20:42.233Z</time></trkpt><trkpt lat="43.3182333" lon="13.18282"><ele>501.0</ele><time>2026-04-26T07:20:43.231Z</time></trkpt><trkpt lat="43.31809" lon="13.18268"><ele>501.0</ele><time>2026-04-26T07:20:44.233Z</time></trkpt><trkpt lat="43.3179217" lon="13.1825617"><ele>501.0</ele><time>2026-04-26T07:20:45.234Z</time></trkpt><trkpt lat="43.31774" lon="13.1824617"><ele>501.0</ele><time>2026-04-26T07:20:46.234Z</time></trkpt><trkpt lat="43.3175617" lon="13.18237"><ele>501.0</ele><time>2026-04-26T07:20:47.232Z</time></trkpt><trkpt lat="43.3173933" lon="13.1822833"><ele>497.33333333333337</ele><time>2026-04-26T07:20:48.233Z</time></trkpt><trkpt lat="43.31723" lon="13.182195"><ele>493.6666666666667</ele><time>2026-04-26T07:20:49.232Z</time></trkpt><trkpt lat="43.3170767" lon="13.1820883"><ele>490.0</ele><time>2026-04-26T07:20:50.233Z</time></trkpt><trkpt lat="43.3169483" lon="13.1819433"><ele>490.0</ele><time>2026-04-26T07:20:51.233Z</time></trkpt><trkpt lat="43.3168333" lon="13.1817967"><ele>490.0</ele><time>2026-04-26T07:20:52.232Z</time></trkpt><trkpt lat="43.31672" lon="13.18167"><ele>490.0</ele><time>2026-04-26T07:20:53.233Z</time></trkpt><trkpt lat="43.3165917" lon="13.1815917"><ele>490.0</ele><time>2026-04-26T07:20:54.232Z</time></trkpt><trkpt lat="43.31643" lon="13.1815517"><ele>490.33333333333337</ele><time>2026-04-26T07:20:55.233Z</time></trkpt><trkpt lat="43.3162483" lon="13.1815583"><ele>490.66666666666663</ele><time>2026-04-26T07:20:56.235Z</time></trkpt><trkpt lat="43.3160717" lon="13.1815633"><ele>491.0</ele><time>2026-04-26T07:20:57.236Z</time></trkpt><trkpt lat="43.315905" lon="13.181565"><ele>491.0</ele><time>2026-04-26T07:20:58.23Z</time></trkpt><trkpt lat="43.31575" lon="13.1815817"><ele>491.0</ele><time>2026-04-26T07:20:59.236Z</time></trkpt><trkpt lat="43.31561" lon="13.18162"><ele>491.0</ele><time>2026-04-26T07:21:00.234Z</time></trkpt><trkpt lat="43.3154767" lon="13.18168"><ele>491.0</ele><time>2026-04-26T07:21:01.233Z</time></trkpt><trkpt lat="43.3153583" lon="13.181775"><ele>491.0</ele><time>2026-04-26T07:21:02.235Z</time></trkpt><trkpt lat="43.3152417" lon="13.18186"><ele>491.0</ele><time>2026-04-26T07:21:03.234Z</time></trkpt><trkpt lat="43.3151283" lon="13.18193"><ele>491.0</ele><time>2026-04-26T07:21:04.232Z</time></trkpt><trkpt lat="43.315025" lon="13.1819767"><ele>491.0</ele><time>2026-04-26T07:21:05.231Z</time></trkpt><trkpt lat="43.3149317" lon="13.1819783"><ele>491.0</ele><time>2026-04-26T07:21:06.234Z</time></trkpt><trkpt lat="43.314855" lon="13.18196"><ele>491.0</ele><time>2026-04-26T07:21:07.235Z</time></trkpt><trkpt lat="43.3148067" lon="13.1819033"><ele>491.0</ele><time>2026-04-26T07:21:08.233Z</time></trkpt><trkpt lat="43.3148183" lon="13.1817633"><ele>491.0</ele><time>2026-04-26T07:21:09.232Z</time></trkpt><trkpt lat="43.314835" lon="13.1816317"><ele>491.0</ele><time>2026-04-26T07:21:10.236Z</time></trkpt><trkpt lat="43.314855" lon="13.1814817"><ele>487.75</ele><time>2026-04-26T07:21:11.234Z</time></trkpt><trkpt lat="43.3148533" lon="13.181315"><ele>484.5</ele><time>2026-04-26T07:21:12.234Z</time></trkpt><trkpt lat="43.314815" lon="13.1811367"><ele>481.25</ele><time>2026-04-26T07:21:13.235Z</time></trkpt><trkpt lat="43.3147783" lon="13.180955"><ele>478.0</ele><time>2026-04-26T07:21:14.233Z</time></trkpt><trkpt lat="43.3147467" lon="13.1807667"><ele>478.25</ele><time>2026-04-26T07:21:15.235Z</time></trkpt><trkpt lat="43.3147267" lon="13.1805733"><ele>478.5</ele><time>2026-04-26T07:21:16.231Z</time></trkpt><trkpt lat="43.31472" lon="13.1803817"><ele>478.75</ele><time>2026-04-26T07:21:17.234Z</time></trkpt><trkpt lat="43.3147167" lon="13.1801967"><ele>479.0</ele><time>2026-04-26T07:21:18.234Z</time></trkpt><trkpt lat="43.3147033" lon="13.18002"><ele>479.0</ele><time>2026-04-26T07:21:19.235Z</time></trkpt><trkpt lat="43.3146633" lon="13.1798583"><ele>479.0</ele><time>2026-04-26T07:21:20.234Z</time></trkpt><trkpt lat="43.3145883" lon="13.17971"><ele>479.0</ele><time>2026-04-26T07:21:21.238Z</time></trkpt><trkpt lat="43.3144833" lon="13.1795683"><ele>479.0</ele><time>2026-04-26T07:21:22.235Z</time></trkpt><trkpt lat="43.314335" lon="13.1794067"><ele>475.66666666666663</ele><time>2026-04-26T07:21:23.233Z</time></trkpt><trkpt lat="43.3141767" lon="13.1792467"><ele>472.33333333333337</ele><time>2026-04-26T07:21:24.232Z</time></trkpt><trkpt lat="43.3140167" lon="13.1790917"><ele>469.0</ele><time>2026-04-26T07:21:25.232Z</time></trkpt><trkpt lat="43.313865" lon="13.1789483"><ele>468.0</ele><time>2026-04-26T07:21:26.232Z</time></trkpt><trkpt lat="43.3137167" lon="13.1787983"><ele>467.0</ele><time>2026-04-26T07:21:27.232Z</time></trkpt><trkpt lat="43.3135767" lon="13.1786517"><ele>466.0</ele><time>2026-04-26T07:21:28.235Z</time></trkpt><trkpt lat="43.3134483" lon="13.17851"><ele>466.0</ele><time>2026-04-26T07:21:29.234Z</time></trkpt><trkpt lat="43.3133233" lon="13.1783717"><ele>466.0</ele><time>2026-04-26T07:21:30.233Z</time></trkpt><trkpt lat="43.3132033" lon="13.1782333"><ele>466.0</ele><time>2026-04-26T07:21:31.233Z</time></trkpt><trkpt lat="43.3130833" lon="13.1781"><ele>466.25</ele><time>2026-04-26T07:21:32.233Z</time></trkpt><trkpt lat="43.3129617" lon="13.17797"><ele>466.5</ele><time>2026-04-26T07:21:33.231Z</time></trkpt><trkpt lat="43.3128483" lon="13.1778433"><ele>466.75</ele><time>2026-04-26T07:21:34.234Z</time></trkpt><trkpt lat="43.3127267" lon="13.1777317"><ele>467.0</ele><time>2026-04-26T07:21:35.232Z</time></trkpt><trkpt lat="43.3126033" lon="13.1776533"><ele>467.0</ele><time>2026-04-26T07:21:36.231Z</time></trkpt><trkpt lat="43.3124717" lon="13.1776067"><ele>467.0</ele><time>2026-04-26T07:21:37.233Z</time></trkpt><trkpt lat="43.312345" lon="13.1775917"><ele>467.0</ele><time>2026-04-26T07:21:38.233Z</time></trkpt><trkpt lat="43.3122283" lon="13.1776"><ele>467.0</ele><time>2026-04-26T07:21:39.232Z</time></trkpt><trkpt lat="43.312125" lon="13.17762"><ele>466.99999999999994</ele><time>2026-04-26T07:21:40.232Z</time></trkpt><trkpt lat="43.3120233" lon="13.1776233"><ele>467.0</ele><time>2026-04-26T07:21:41.234Z</time></trkpt><trkpt lat="43.3119317" lon="13.177595"><ele>467.0</ele><time>2026-04-26T07:21:42.233Z</time></trkpt><trkpt lat="43.3118583" lon="13.177535"><ele>467.0</ele><time>2026-04-26T07:21:43.234Z</time></trkpt><trkpt lat="43.3118033" lon="13.177455"><ele>466.99999999999994</ele><time>2026-04-26T07:21:44.232Z</time></trkpt><trkpt lat="43.3117583" lon="13.1773683"><ele>467.0</ele><time>2026-04-26T07:21:45.234Z</time></trkpt><trkpt lat="43.311715" lon="13.177295"><ele>466.99999999999994</ele><time>2026-04-26T07:21:46.231Z</time></trkpt><trkpt lat="43.3116667" lon="13.1772383"><ele>467.0</ele><time>2026-04-26T07:21:47.234Z</time></trkpt><trkpt lat="43.3116" lon="13.1772167"><ele>467.0</ele><time>2026-04-26T07:21:48.235Z</time></trkpt><trkpt lat="43.3115133" lon="13.1772933"><ele>467.0</ele><time>2026-04-26T07:21:49.229Z</time></trkpt><trkpt lat="43.3114417" lon="13.177385"><ele>466.99999999999994</ele><time>2026-04-26T07:21:50.233Z</time></trkpt><trkpt lat="43.311375" lon="13.1774933"><ele>467.0</ele><time>2026-04-26T07:21:51.237Z</time></trkpt><trkpt lat="43.3113083" lon="13.1776117"><ele>462.5</ele><time>2026-04-26T07:21:52.235Z</time></trkpt><trkpt lat="43.3112317" lon="13.1777283"><ele>458.0</ele><time>2026-04-26T07:21:53.235Z</time></trkpt><trkpt lat="43.3111417" lon="13.1778183"><ele>453.5</ele><time>2026-04-26T07:21:54.234Z</time></trkpt><trkpt lat="43.311035" lon="13.1778767"><ele>449.0</ele><time>2026-04-26T07:21:55.233Z</time></trkpt><trkpt lat="43.310905" lon="13.1779067"><ele>449.0</ele><time>2026-04-26T07:21:56.236Z</time></trkpt><trkpt lat="43.3107583" lon="13.1779433"><ele>449.0</ele><time>2026-04-26T07:21:57.238Z</time></trkpt><trkpt lat="43.3105983" lon="13.17799"><ele>449.0</ele><time>2026-04-26T07:21:58.236Z</time></trkpt><trkpt lat="43.31043" lon="13.1780717"><ele>447.66666666666663</ele><time>2026-04-26T07:21:59.235Z</time></trkpt><trkpt lat="43.3102583" lon="13.1781633"><ele>446.33333333333337</ele><time>2026-04-26T07:22:00.234Z</time></trkpt><trkpt lat="43.3100833" lon="13.17825"><ele>445.0</ele><time>2026-04-26T07:22:01.234Z</time></trkpt><trkpt lat="43.3098917" lon="13.1783483"><ele>438.0</ele><time>2026-04-26T07:22:02.233Z</time></trkpt><trkpt lat="43.309695" lon="13.178465"><ele>431.0</ele><time>2026-04-26T07:22:03.234Z</time></trkpt><trkpt lat="43.3094817" lon="13.1786033"><ele>431.0</ele><time>2026-04-26T07:22:04.233Z</time></trkpt><trkpt lat="43.3092517" lon="13.1787567"><ele>431.0</ele><time>2026-04-26T07:22:05.234Z</time></trkpt><trkpt lat="43.3090133" lon="13.1789217"><ele>430.0</ele><time>2026-04-26T07:22:06.236Z</time></trkpt><trkpt lat="43.3087833" lon="13.179075"><ele>429.0</ele><time>2026-04-26T07:22:07.24Z</time></trkpt><trkpt lat="43.3085583" lon="13.1792233"><ele>429.0</ele><time>2026-04-26T07:22:08.234Z</time></trkpt><trkpt lat="43.3083433" lon="13.1793667"><ele>429.0</ele><time>2026-04-26T07:22:09.237Z</time></trkpt><trkpt lat="43.30814" lon="13.1795167"><ele>426.0</ele><time>2026-04-26T07:22:10.238Z</time></trkpt><trkpt lat="43.3079517" lon="13.179695"><ele>423.0</ele><time>2026-04-26T07:22:11.238Z</time></trkpt><trkpt lat="43.307785" lon="13.1798733"><ele>420.0</ele><time>2026-04-26T07:22:12.233Z</time></trkpt><trkpt lat="43.30763" lon="13.1800383"><ele>420.0</ele><time>2026-04-26T07:22:13.23Z</time></trkpt><trkpt lat="43.3074883" lon="13.1802017"><ele>420.0</ele><time>2026-04-26T07:22:14.232Z</time></trkpt><trkpt lat="43.30737" lon="13.1803717"><ele>420.0</ele><time>2026-04-26T07:22:15.235Z</time></trkpt><trkpt lat="43.30726" lon="13.1805367"><ele>419.33333333333337</ele><time>2026-04-26T07:22:16.234Z</time></trkpt><trkpt lat="43.3071517" lon="13.180695"><ele>418.6666666666667</ele><time>2026-04-26T07:22:17.233Z</time></trkpt><trkpt lat="43.3070067" lon="13.1808217"><ele>418.0</ele><time>2026-04-26T07:22:18.236Z</time></trkpt><trkpt lat="43.3068283" lon="13.1809167"><ele>418.0</ele><time>2026-04-26T07:22:19.235Z</time></trkpt><trkpt lat="43.3066333" lon="13.180985"><ele>418.0</ele><time>2026-04-26T07:22:20.23Z</time></trkpt><trkpt lat="43.3064417" lon="13.1810467"><ele>418.0</ele><time>2026-04-26T07:22:21.234Z</time></trkpt><trkpt lat="43.3062433" lon="13.181075"><ele>414.0</ele><time>2026-04-26T07:22:22.233Z</time></trkpt><trkpt lat="43.3060433" lon="13.1810683"><ele>410.0</ele><time>2026-04-26T07:22:23.233Z</time></trkpt><trkpt lat="43.3058533" lon="13.1810667"><ele>406.0</ele><time>2026-04-26T07:22:24.235Z</time></trkpt><trkpt lat="43.3056633" lon="13.1810967"><ele>401.6666666666667</ele><time>2026-04-26T07:22:25.235Z</time></trkpt><trkpt lat="43.3054667" lon="13.1811783"><ele>397.33333333333337</ele><time>2026-04-26T07:22:26.234Z</time></trkpt><trkpt lat="43.305275" lon="13.181285"><ele>393.0</ele><time>2026-04-26T07:22:27.235Z</time></trkpt><trkpt lat="43.3050917" lon="13.1813983"><ele>393.0</ele><time>2026-04-26T07:22:28.234Z</time></trkpt><trkpt lat="43.3049117" lon="13.181515"><ele>393.0</ele><time>2026-04-26T07:22:29.233Z</time></trkpt><trkpt lat="43.3047167" lon="13.181615"><ele>393.0</ele><time>2026-04-26T07:22:30.235Z</time></trkpt><trkpt lat="43.3045167" lon="13.18168"><ele>394.33333333333337</ele><time>2026-04-26T07:22:31.235Z</time></trkpt><trkpt lat="43.3043167" lon="13.1817217"><ele>395.6666666666667</ele><time>2026-04-26T07:22:32.235Z</time></trkpt><trkpt lat="43.304135" lon="13.1817567"><ele>397.0</ele><time>2026-04-26T07:22:33.237Z</time></trkpt><trkpt lat="43.3039667" lon="13.1817833"><ele>395.0</ele><time>2026-04-26T07:22:34.235Z</time></trkpt><trkpt lat="43.3038167" lon="13.1818167"><ele>393.0</ele><time>2026-04-26T07:22:35.231Z</time></trkpt><trkpt lat="43.3036783" lon="13.18186"><ele>391.0</ele><time>2026-04-26T07:22:36.233Z</time></trkpt><trkpt lat="43.3035717" lon="13.1819433"><ele>389.0</ele><time>2026-04-26T07:22:37.232Z</time></trkpt><trkpt lat="43.3035033" lon="13.182035"><ele>389.0</ele><time>2026-04-26T07:22:38.232Z</time></trkpt><trkpt lat="43.3034733" lon="13.182175"><ele>389.0</ele><time>2026-04-26T07:22:39.236Z</time></trkpt><trkpt lat="43.303475" lon="13.1823383"><ele>389.0</ele><time>2026-04-26T07:22:40.234Z</time></trkpt><trkpt lat="43.303465" lon="13.1824967"><ele>389.0</ele><time>2026-04-26T07:22:41.229Z</time></trkpt><trkpt lat="43.3034183" lon="13.1826467"><ele>388.75</ele><time>2026-04-26T07:22:42.233Z</time></trkpt><trkpt lat="43.3033267" lon="13.1827733"><ele>388.5</ele><time>2026-04-26T07:22:43.235Z</time></trkpt><trkpt lat="43.3032033" lon="13.182855"><ele>388.25</ele><time>2026-04-26T07:22:44.235Z</time></trkpt><trkpt lat="43.30306" lon="13.1828883"><ele>388.0</ele><time>2026-04-26T07:22:45.236Z</time></trkpt><trkpt lat="43.3029167" lon="13.1828767"><ele>388.0</ele><time>2026-04-26T07:22:46.237Z</time></trkpt><trkpt lat="43.30279" lon="13.1828317"><ele>388.0</ele><time>2026-04-26T07:22:47.232Z</time></trkpt><trkpt lat="43.30268" lon="13.1827533"><ele>388.0</ele><time>2026-04-26T07:22:48.236Z</time></trkpt><trkpt lat="43.3025833" lon="13.1826183"><ele>388.0</ele><time>2026-04-26T07:22:49.235Z</time></trkpt><trkpt lat="43.3024967" lon="13.18243"><ele>386.0</ele><time>2026-04-26T07:22:50.232Z</time></trkpt><trkpt lat="43.30242" lon="13.1822267"><ele>384.0</ele><time>2026-04-26T07:22:51.234Z</time></trkpt><trkpt lat="43.302345" lon="13.1820083"><ele>382.0</ele><time>2026-04-26T07:22:52.234Z</time></trkpt><trkpt lat="43.3022733" lon="13.1817883"><ele>382.0</ele><time>2026-04-26T07:22:53.233Z</time></trkpt><trkpt lat="43.3022067" lon="13.1815633"><ele>382.0</ele><time>2026-04-26T07:22:54.233Z</time></trkpt><trkpt lat="43.30214" lon="13.18135"><ele>382.0</ele><time>2026-04-26T07:22:55.232Z</time></trkpt><trkpt lat="43.3020767" lon="13.1811417"><ele>382.0</ele><time>2026-04-26T07:22:56.231Z</time></trkpt><trkpt lat="43.3020117" lon="13.1809367"><ele>382.0</ele><time>2026-04-26T07:22:57.233Z</time></trkpt><trkpt lat="43.301945" lon="13.18073"><ele>382.0</ele><time>2026-04-26T07:22:58.232Z</time></trkpt><trkpt lat="43.3018733" lon="13.1805233"><ele>380.0</ele><time>2026-04-26T07:22:59.234Z</time></trkpt><trkpt lat="43.3017933" lon="13.1803417"><ele>378.0</ele><time>2026-04-26T07:23:00.232Z</time></trkpt><trkpt lat="43.3017033" lon="13.1801917"><ele>376.0</ele><time>2026-04-26T07:23:01.233Z</time></trkpt><trkpt lat="43.3016033" lon="13.180085"><ele>374.0</ele><time>2026-04-26T07:23:02.231Z</time></trkpt><trkpt lat="43.30149" lon="13.1800183"><ele>372.5</ele><time>2026-04-26T07:23:03.234Z</time></trkpt><trkpt lat="43.3013633" lon="13.1799933"><ele>371.0</ele><time>2026-04-26T07:23:04.231Z</time></trkpt><trkpt lat="43.3012217" lon="13.1800117"><ele>369.5</ele><time>2026-04-26T07:23:05.237Z</time></trkpt><trkpt lat="43.30107" lon="13.1800567"><ele>368.0</ele><time>2026-04-26T07:23:06.231Z</time></trkpt><trkpt lat="43.3009117" lon="13.18013"><ele>368.0</ele><time>2026-04-26T07:23:07.232Z</time></trkpt><trkpt lat="43.300755" lon="13.1802267"><ele>368.0</ele><time>2026-04-26T07:23:08.233Z</time></trkpt><trkpt lat="43.3006033" lon="13.18035"><ele>368.0</ele><time>2026-04-26T07:23:09.23Z</time></trkpt><trkpt lat="43.30046" lon="13.1804967"><ele>367.33333333333337</ele><time>2026-04-26T07:23:10.232Z</time></trkpt><trkpt lat="43.3003233" lon="13.180625"><ele>366.6666666666667</ele><time>2026-04-26T07:23:11.233Z</time></trkpt><trkpt lat="43.3001817" lon="13.1807283"><ele>366.0</ele><time>2026-04-26T07:23:12.234Z</time></trkpt><trkpt lat="43.3000217" lon="13.1807867"><ele>366.0</ele><time>2026-04-26T07:23:13.232Z</time></trkpt><trkpt lat="43.2998567" lon="13.1808067"><ele>366.0</ele><time>2026-04-26T07:23:14.231Z</time></trkpt><trkpt lat="43.2996867" lon="13.1807767"><ele>366.0</ele><time>2026-04-26T07:23:15.237Z</time></trkpt><trkpt lat="43.29952" lon="13.180725"><ele>362.0</ele><time>2026-04-26T07:23:16.232Z</time></trkpt><trkpt lat="43.2993517" lon="13.180655"><ele>358.0</ele><time>2026-04-26T07:23:17.235Z</time></trkpt><trkpt lat="43.299185" lon="13.18057"><ele>354.0</ele><time>2026-04-26T07:23:18.233Z</time></trkpt><trkpt lat="43.299025" lon="13.1804733"><ele>353.3333333333333</ele><time>2026-04-26T07:23:19.231Z</time></trkpt><trkpt lat="43.2988633" lon="13.18039"><ele>352.66666666666663</ele><time>2026-04-26T07:23:20.234Z</time></trkpt><trkpt lat="43.29869" lon="13.180335"><ele>352.0</ele><time>2026-04-26T07:23:21.235Z</time></trkpt><trkpt lat="43.2984967" lon="13.1803033"><ele>352.0</ele><time>2026-04-26T07:23:22.235Z</time></trkpt><trkpt lat="43.2982867" lon="13.1802983"><ele>352.0</ele><time>2026-04-26T07:23:23.235Z</time></trkpt><trkpt lat="43.2980783" lon="13.1802983"><ele>352.0</ele><time>2026-04-26T07:23:24.232Z</time></trkpt><trkpt lat="43.2978733" lon="13.1803"><ele>351.0</ele><time>2026-04-26T07:23:25.238Z</time></trkpt><trkpt lat="43.2976817" lon="13.1803"><ele>350.0</ele><time>2026-04-26T07:23:26.235Z</time></trkpt><trkpt lat="43.297495" lon="13.1802817"><ele>349.0</ele><time>2026-04-26T07:23:27.233Z</time></trkpt><trkpt lat="43.2973067" lon="13.1802383"><ele>349.0</ele><time>2026-04-26T07:23:28.233Z</time></trkpt><trkpt lat="43.2971217" lon="13.18018"><ele>349.0</ele><time>2026-04-26T07:23:29.232Z</time></trkpt><trkpt lat="43.2969383" lon="13.1801133"><ele>349.0</ele><time>2026-04-26T07:23:30.233Z</time></trkpt><trkpt lat="43.2967617" lon="13.1800483"><ele>349.0</ele><time>2026-04-26T07:23:31.229Z</time></trkpt><trkpt lat="43.2965833" lon="13.1799783"><ele>349.0</ele><time>2026-04-26T07:23:32.237Z</time></trkpt><trkpt lat="43.2964083" lon="13.179915"><ele>349.0</ele><time>2026-04-26T07:23:33.235Z</time></trkpt><trkpt lat="43.29624" lon="13.1798533"><ele>348.3333333333333</ele><time>2026-04-26T07:23:34.236Z</time></trkpt><trkpt lat="43.296075" lon="13.1797967"><ele>347.6666666666667</ele><time>2026-04-26T07:23:35.229Z</time></trkpt><trkpt lat="43.2959117" lon="13.1797483"><ele>347.0</ele><time>2026-04-26T07:23:36.234Z</time></trkpt><trkpt lat="43.29574" lon="13.1797167"><ele>345.6666666666667</ele><time>2026-04-26T07:23:37.233Z</time></trkpt><trkpt lat="43.29557" lon="13.1797133"><ele>344.3333333333333</ele><time>2026-04-26T07:23:38.232Z</time></trkpt><trkpt lat="43.2954033" lon="13.1797517"><ele>343.0</ele><time>2026-04-26T07:23:39.236Z</time></trkpt><trkpt lat="43.2952467" lon="13.17982"><ele>342.0</ele><time>2026-04-26T07:23:40.233Z</time></trkpt><trkpt lat="43.2951067" lon="13.179915"><ele>341.0</ele><time>2026-04-26T07:23:41.229Z</time></trkpt><trkpt lat="43.2949767" lon="13.1800133"><ele>340.0</ele><time>2026-04-26T07:23:42.234Z</time></trkpt><trkpt lat="43.29485" lon="13.18011"><ele>339.0</ele><time>2026-04-26T07:23:43.232Z</time></trkpt><trkpt lat="43.2947267" lon="13.1802067"><ele>339.0</ele><time>2026-04-26T07:23:44.233Z</time></trkpt><trkpt lat="43.29461" lon="13.1802967"><ele>339.0</ele><time>2026-04-26T07:23:45.236Z</time></trkpt><trkpt lat="43.2944983" lon="13.18039"><ele>339.0</ele><time>2026-04-26T07:23:46.233Z</time></trkpt><trkpt lat="43.2943917" lon="13.1804817"><ele>339.0</ele><time>2026-04-26T07:23:47.231Z</time></trkpt><trkpt lat="43.2942917" lon="13.1805567"><ele>339.0</ele><time>2026-04-26T07:23:48.233Z</time></trkpt><trkpt lat="43.2942017" lon="13.180615"><ele>339.0</ele><time>2026-04-26T07:23:49.232Z</time></trkpt><trkpt lat="43.2941183" lon="13.1806733"><ele>339.0</ele><time>2026-04-26T07:23:50.234Z</time></trkpt><trkpt lat="43.2940417" lon="13.1807267"><ele>339.0</ele><time>2026-04-26T07:23:51.232Z</time></trkpt><trkpt lat="43.29397" lon="13.1807817"><ele>339.0</ele><time>2026-04-26T07:23:52.234Z</time></trkpt><trkpt lat="43.2938933" lon="13.1808333"><ele>339.0</ele><time>2026-04-26T07:23:53.23Z</time></trkpt><trkpt lat="43.293825" lon="13.1808867"><ele>338.4</ele><time>2026-04-26T07:23:54.239Z</time></trkpt><trkpt lat="43.293755" lon="13.1809467"><ele>337.79999999999995</ele><time>2026-04-26T07:23:55.234Z</time></trkpt><trkpt lat="43.2936733" lon="13.1810133"><ele>337.20000000000005</ele><time>2026-04-26T07:23:56.232Z</time></trkpt><trkpt lat="43.293575" lon="13.1810833"><ele>336.6</ele><time>2026-04-26T07:23:57.235Z</time></trkpt><trkpt lat="43.293465" lon="13.181145"><ele>336.0</ele><time>2026-04-26T07:23:58.233Z</time></trkpt><trkpt lat="43.293335" lon="13.1811917"><ele>336.0</ele><time>2026-04-26T07:23:59.23Z</time></trkpt><trkpt lat="43.2932067" lon="13.181205"><ele>336.0</ele><time>2026-04-26T07:24:00.23Z</time></trkpt><trkpt lat="43.2930817" lon="13.1811933"><ele>336.0</ele><time>2026-04-26T07:24:01.23Z</time></trkpt><trkpt lat="43.2929583" lon="13.18116"><ele>336.0</ele><time>2026-04-26T07:24:02.231Z</time></trkpt><trkpt lat="43.2928283" lon="13.1811117"><ele>334.75</ele><time>2026-04-26T07:24:03.235Z</time></trkpt><trkpt lat="43.2926917" lon="13.1810633"><ele>333.5</ele><time>2026-04-26T07:24:04.233Z</time></trkpt><trkpt lat="43.292555" lon="13.1810067"><ele>332.25</ele><time>2026-04-26T07:24:05.233Z</time></trkpt><trkpt lat="43.2924333" lon="13.1809133"><ele>331.0</ele><time>2026-04-26T07:24:06.235Z</time></trkpt><trkpt lat="43.2923217" lon="13.1808033"><ele>332.5</ele><time>2026-04-26T07:24:07.235Z</time></trkpt><trkpt lat="43.2922133" lon="13.1807133"><ele>334.0</ele><time>2026-04-26T07:24:08.235Z</time></trkpt><trkpt lat="43.2920967" lon="13.18067"><ele>335.5</ele><time>2026-04-26T07:24:09.233Z</time></trkpt><trkpt lat="43.29197" lon="13.180685"><ele>337.0</ele><time>2026-04-26T07:24:10.231Z</time></trkpt><trkpt lat="43.29185" lon="13.1807533"><ele>337.0</ele><time>2026-04-26T07:24:11.231Z</time></trkpt><trkpt lat="43.291735" lon="13.1808617"><ele>337.0</ele><time>2026-04-26T07:24:12.23Z</time></trkpt><trkpt lat="43.2916217" lon="13.1809733"><ele>337.0</ele><time>2026-04-26T07:24:13.234Z</time></trkpt><trkpt lat="43.2914883" lon="13.1810733"><ele>337.0</ele><time>2026-04-26T07:24:14.232Z</time></trkpt><trkpt lat="43.2913367" lon="13.1811517"><ele>339.66666666666663</ele><time>2026-04-26T07:24:15.24Z</time></trkpt><trkpt lat="43.2911717" lon="13.1812033"><ele>342.3333333333333</ele><time>2026-04-26T07:24:16.232Z</time></trkpt><trkpt lat="43.291005" lon="13.1812317"><ele>345.0</ele><time>2026-04-26T07:24:17.233Z</time></trkpt><trkpt lat="43.2908517" lon="13.1812583"><ele>345.0</ele><time>2026-04-26T07:24:18.235Z</time></trkpt><trkpt lat="43.2907067" lon="13.1812983"><ele>345.0</ele><time>2026-04-26T07:24:19.234Z</time></trkpt><trkpt lat="43.2905667" lon="13.1813733"><ele>345.0</ele><time>2026-04-26T07:24:20.233Z</time></trkpt><trkpt lat="43.290435" lon="13.1814917"><ele>341.0</ele><time>2026-04-26T07:24:21.235Z</time></trkpt><trkpt lat="43.2903217" lon="13.181645"><ele>337.0</ele><time>2026-04-26T07:24:22.232Z</time></trkpt><trkpt lat="43.2901983" lon="13.1817867"><ele>333.0</ele><time>2026-04-26T07:24:23.231Z</time></trkpt><trkpt lat="43.290065" lon="13.1818983"><ele>333.0</ele><time>2026-04-26T07:24:24.233Z</time></trkpt><trkpt lat="43.2899133" lon="13.1819683"><ele>333.0</ele><time>2026-04-26T07:24:25.236Z</time></trkpt><trkpt lat="43.2897583" lon="13.1819983"><ele>333.0</ele><time>2026-04-26T07:24:26.234Z</time></trkpt><trkpt lat="43.2895967" lon="13.1820083"><ele>334.0</ele><time>2026-04-26T07:24:27.235Z</time></trkpt><trkpt lat="43.2894283" lon="13.1820117"><ele>335.0</ele><time>2026-04-26T07:24:28.236Z</time></trkpt><trkpt lat="43.2892567" lon="13.182005"><ele>336.0</ele><time>2026-04-26T07:24:29.232Z</time></trkpt><trkpt lat="43.2890817" lon="13.1819883"><ele>333.6666666666667</ele><time>2026-04-26T07:24:30.232Z</time></trkpt><trkpt lat="43.2889117" lon="13.18195"><ele>331.33333333333337</ele><time>2026-04-26T07:24:31.227Z</time></trkpt><trkpt lat="43.2887433" lon="13.1818967"><ele>329.0</ele><time>2026-04-26T07:24:32.236Z</time></trkpt><trkpt lat="43.2885767" lon="13.1818367"><ele>329.0</ele><time>2026-04-26T07:24:33.238Z</time></trkpt><trkpt lat="43.2884067" lon="13.18177"><ele>329.0</ele><time>2026-04-26T07:24:34.233Z</time></trkpt><trkpt lat="43.288245" lon="13.1816833"><ele>329.0</ele><time>2026-04-26T07:24:35.233Z</time></trkpt><trkpt lat="43.28808" lon="13.1815733"><ele>332.6666666666667</ele><time>2026-04-26T07:24:36.234Z</time></trkpt><trkpt lat="43.2879067" lon="13.18148"><ele>336.3333333333333</ele><time>2026-04-26T07:24:37.231Z</time></trkpt><trkpt lat="43.2877217" lon="13.1814017"><ele>340.0</ele><time>2026-04-26T07:24:38.235Z</time></trkpt><trkpt lat="43.287535" lon="13.1813633"><ele>340.0</ele><time>2026-04-26T07:24:39.233Z</time></trkpt><trkpt lat="43.287335" lon="13.1813467"><ele>340.0</ele><time>2026-04-26T07:24:40.232Z</time></trkpt><trkpt lat="43.2871217" lon="13.181335"><ele>340.0</ele><time>2026-04-26T07:24:41.233Z</time></trkpt><trkpt lat="43.2869" lon="13.1813217"><ele>340.0</ele><time>2026-04-26T07:24:42.234Z</time></trkpt><trkpt lat="43.2866817" lon="13.1813017"><ele>340.0</ele><time>2026-04-26T07:24:43.236Z</time></trkpt><trkpt lat="43.2864617" lon="13.1812817"><ele>340.0</ele><time>2026-04-26T07:24:44.236Z</time></trkpt><trkpt lat="43.2862467" lon="13.18126"><ele>340.0</ele><time>2026-04-26T07:24:45.233Z</time></trkpt><trkpt lat="43.286045" lon="13.18124"><ele>340.0</ele><time>2026-04-26T07:24:46.232Z</time></trkpt><trkpt lat="43.2858467" lon="13.18122"><ele>340.0</ele><time>2026-04-26T07:24:47.231Z</time></trkpt><trkpt lat="43.28565" lon="13.1812033"><ele>339.3333333333333</ele><time>2026-04-26T07:24:48.234Z</time></trkpt><trkpt lat="43.2854533" lon="13.1811933"><ele>338.6666666666667</ele><time>2026-04-26T07:24:49.233Z</time></trkpt><trkpt lat="43.2852667" lon="13.1812017"><ele>338.0</ele><time>2026-04-26T07:24:50.234Z</time></trkpt><trkpt lat="43.285085" lon="13.1812383"><ele>338.0</ele><time>2026-04-26T07:24:51.235Z</time></trkpt><trkpt lat="43.2849033" lon="13.181315"><ele>338.0</ele><time>2026-04-26T07:24:52.231Z</time></trkpt><trkpt lat="43.2847183" lon="13.18141"><ele>338.0</ele><time>2026-04-26T07:24:53.231Z</time></trkpt><trkpt lat="43.2845283" lon="13.181515"><ele>332.6666666666667</ele><time>2026-04-26T07:24:54.232Z</time></trkpt><trkpt lat="43.2843367" lon="13.18162"><ele>327.3333333333333</ele><time>2026-04-26T07:24:55.235Z</time></trkpt><trkpt lat="43.2841467" lon="13.1817283"><ele>322.0</ele><time>2026-04-26T07:24:56.239Z</time></trkpt><trkpt lat="43.283965" lon="13.1818367"><ele>320.66666666666663</ele><time>2026-04-26T07:24:57.234Z</time></trkpt><trkpt lat="43.2837867" lon="13.1819417"><ele>319.3333333333333</ele><time>2026-04-26T07:24:58.232Z</time></trkpt><trkpt lat="43.28362" lon="13.182045"><ele>318.0</ele><time>2026-04-26T07:24:59.23Z</time></trkpt><trkpt lat="43.28346" lon="13.1821317"><ele>318.0</ele><time>2026-04-26T07:25:00.233Z</time></trkpt><trkpt lat="43.283305" lon="13.182225"><ele>318.0</ele><time>2026-04-26T07:25:01.235Z</time></trkpt><trkpt lat="43.283145" lon="13.1823267"><ele>318.0</ele><time>2026-04-26T07:25:02.232Z</time></trkpt><trkpt lat="43.28297" lon="13.18243"><ele>316.3333333333333</ele><time>2026-04-26T07:25:03.233Z</time></trkpt><trkpt lat="43.2827817" lon="13.182525"><ele>314.66666666666663</ele><time>2026-04-26T07:25:04.232Z</time></trkpt><trkpt lat="43.2825883" lon="13.1826183"><ele>313.0</ele><time>2026-04-26T07:25:05.231Z</time></trkpt><trkpt lat="43.2824017" lon="13.1827117"><ele>309.0</ele><time>2026-04-26T07:25:06.245Z</time></trkpt><trkpt lat="43.2822233" lon="13.1828017"><ele>305.0</ele><time>2026-04-26T07:25:07.236Z</time></trkpt><trkpt lat="43.282055" lon="13.18289"><ele>301.0</ele><time>2026-04-26T07:25:08.232Z</time></trkpt><trkpt lat="43.2819033" lon="13.1829783"><ele>301.0</ele><time>2026-04-26T07:25:09.231Z</time></trkpt><trkpt lat="43.2817733" lon="13.1830917"><ele>301.0</ele><time>2026-04-26T07:25:10.231Z</time></trkpt><trkpt lat="43.2816667" lon="13.1832467"><ele>301.0</ele><time>2026-04-26T07:25:11.231Z</time></trkpt><trkpt lat="43.2815867" lon="13.183455"><ele>301.66666666666663</ele><time>2026-04-26T07:25:12.231Z</time></trkpt><trkpt lat="43.2815183" lon="13.18369"><ele>302.3333333333333</ele><time>2026-04-26T07:25:13.233Z</time></trkpt><trkpt lat="43.2814533" lon="13.1839117"><ele>303.0</ele><time>2026-04-26T07:25:14.236Z</time></trkpt><trkpt lat="43.2813783" lon="13.1841067"><ele>301.0</ele><time>2026-04-26T07:25:15.234Z</time></trkpt><trkpt lat="43.2812833" lon="13.1842583"><ele>299.0</ele><time>2026-04-26T07:25:16.234Z</time></trkpt><trkpt lat="43.2811567" lon="13.18435"><ele>297.0</ele><time>2026-04-26T07:25:17.233Z</time></trkpt><trkpt lat="43.2810083" lon="13.1844033"><ele>295.0</ele><time>2026-04-26T07:25:18.235Z</time></trkpt><trkpt lat="43.2808533" lon="13.1844183"><ele>295.0</ele><time>2026-04-26T07:25:19.233Z</time></trkpt><trkpt lat="43.2806967" lon="13.18442"><ele>295.0</ele><time>2026-04-26T07:25:20.231Z</time></trkpt><trkpt lat="43.28054" lon="13.1844433"><ele>295.0</ele><time>2026-04-26T07:25:21.236Z</time></trkpt><trkpt lat="43.2804017" lon="13.1844967"><ele>294.0</ele><time>2026-04-26T07:25:22.234Z</time></trkpt><trkpt lat="43.2802783" lon="13.1845583"><ele>293.0</ele><time>2026-04-26T07:25:23.233Z</time></trkpt><trkpt lat="43.28017" lon="13.1846267"><ele>292.0</ele><time>2026-04-26T07:25:24.232Z</time></trkpt><trkpt lat="43.2800883" lon="13.1847133"><ele>291.0</ele><time>2026-04-26T07:25:25.233Z</time></trkpt><trkpt lat="43.28005" lon="13.18482"><ele>290.0</ele><time>2026-04-26T07:25:26.234Z</time></trkpt><trkpt lat="43.2800367" lon="13.1849467"><ele>289.83333333333337</ele><time>2026-04-26T07:25:27.236Z</time></trkpt><trkpt lat="43.2800317" lon="13.185065"><ele>289.6666666666667</ele><time>2026-04-26T07:25:28.231Z</time></trkpt><trkpt lat="43.2800517" lon="13.1851767"><ele>289.5</ele><time>2026-04-26T07:25:29.229Z</time></trkpt><trkpt lat="43.28006" lon="13.1852767"><ele>289.3333333333333</ele><time>2026-04-26T07:25:30.233Z</time></trkpt><trkpt lat="43.280005" lon="13.1853917"><ele>289.16666666666663</ele><time>2026-04-26T07:25:32.229Z</time></trkpt><trkpt lat="43.2799433" lon="13.1853567"><ele>289.0</ele><time>2026-04-26T07:25:33.234Z</time></trkpt><trkpt lat="43.279855" lon="13.1852333"><ele>289.0</ele><time>2026-04-26T07:25:35.232Z</time></trkpt><trkpt lat="43.2798417" lon="13.1851233"><ele>289.0</ele><time>2026-04-26T07:25:36.231Z</time></trkpt><trkpt lat="43.27982" lon="13.1849883"><ele>289.0</ele><time>2026-04-26T07:25:37.234Z</time></trkpt><trkpt lat="43.2797767" lon="13.184845"><ele>289.0</ele><time>2026-04-26T07:25:38.232Z</time></trkpt><trkpt lat="43.2796817" lon="13.184725"><ele>289.0</ele><time>2026-04-26T07:25:39.234Z</time></trkpt><trkpt lat="43.2795567" lon="13.1846383"><ele>292.25</ele><time>2026-04-26T07:25:40.232Z</time></trkpt><trkpt lat="43.2794383" lon="13.1845733"><ele>295.5</ele><time>2026-04-26T07:25:41.235Z</time></trkpt><trkpt lat="43.2793117" lon="13.1845217"><ele>298.75</ele><time>2026-04-26T07:25:42.232Z</time></trkpt><trkpt lat="43.27918" lon="13.184505"><ele>302.0</ele><time>2026-04-26T07:25:43.234Z</time></trkpt><trkpt lat="43.2790317" lon="13.1845383"><ele>305.33333333333337</ele><time>2026-04-26T07:25:44.233Z</time></trkpt><trkpt lat="43.2788683" lon="13.1846067"><ele>308.6666666666667</ele><time>2026-04-26T07:25:45.236Z</time></trkpt><trkpt lat="43.278695" lon="13.1846883"><ele>312.0</ele><time>2026-04-26T07:25:46.233Z</time></trkpt><trkpt lat="43.2785283" lon="13.184765"><ele>312.0</ele><time>2026-04-26T07:25:47.234Z</time></trkpt><trkpt lat="43.2783733" lon="13.1848367"><ele>312.0</ele><time>2026-04-26T07:25:48.234Z</time></trkpt><trkpt lat="43.2782217" lon="13.1848867"><ele>312.0</ele><time>2026-04-26T07:25:49.234Z</time></trkpt><trkpt lat="43.2780617" lon="13.1849183"><ele>308.6666666666667</ele><time>2026-04-26T07:25:50.234Z</time></trkpt><trkpt lat="43.2778867" lon="13.1849233"><ele>305.33333333333337</ele><time>2026-04-26T07:25:51.232Z</time></trkpt><trkpt lat="43.2777" lon="13.184935"><ele>302.0</ele><time>2026-04-26T07:25:52.231Z</time></trkpt><trkpt lat="43.2775033" lon="13.1849383"><ele>302.0</ele><time>2026-04-26T07:25:53.235Z</time></trkpt><trkpt lat="43.2773117" lon="13.1849233"><ele>302.0</ele><time>2026-04-26T07:25:54.233Z</time></trkpt><trkpt lat="43.2771333" lon="13.1848933"><ele>302.0</ele><time>2026-04-26T07:25:55.233Z</time></trkpt><trkpt lat="43.2769633" lon="13.1848633"><ele>304.0</ele><time>2026-04-26T07:25:56.232Z</time></trkpt><trkpt lat="43.2767967" lon="13.1848167"><ele>306.0</ele><time>2026-04-26T07:25:57.234Z</time></trkpt><trkpt lat="43.2766383" lon="13.1847567"><ele>308.0</ele><time>2026-04-26T07:25:58.232Z</time></trkpt><trkpt lat="43.2764867" lon="13.18469"><ele>307.5</ele><time>2026-04-26T07:25:59.233Z</time></trkpt><trkpt lat="43.276345" lon="13.1846233"><ele>307.0</ele><time>2026-04-26T07:26:00.231Z</time></trkpt><trkpt lat="43.2762067" lon="13.184565"><ele>306.5</ele><time>2026-04-26T07:26:01.233Z</time></trkpt><trkpt lat="43.2760783" lon="13.1845083"><ele>306.0</ele><time>2026-04-26T07:26:02.232Z</time></trkpt><trkpt lat="43.2759517" lon="13.18446"><ele>306.0</ele><time>2026-04-26T07:26:03.233Z</time></trkpt><trkpt lat="43.2758233" lon="13.1844567"><ele>306.0</ele><time>2026-04-26T07:26:04.233Z</time></trkpt><trkpt lat="43.2756967" lon="13.1845167"><ele>306.0</ele><time>2026-04-26T07:26:05.235Z</time></trkpt><trkpt lat="43.2755567" lon="13.18462"><ele>306.0</ele><time>2026-04-26T07:26:06.232Z</time></trkpt><trkpt lat="43.2754067" lon="13.1847417"><ele>304.0</ele><time>2026-04-26T07:26:07.236Z</time></trkpt><trkpt lat="43.2752583" lon="13.18487"><ele>302.0</ele><time>2026-04-26T07:26:08.234Z</time></trkpt><trkpt lat="43.2751067" lon="13.1849983"><ele>300.0</ele><time>2026-04-26T07:26:09.236Z</time></trkpt><trkpt lat="43.2749633" lon="13.185115"><ele>300.0</ele><time>2026-04-26T07:26:10.232Z</time></trkpt><trkpt lat="43.2748233" lon="13.1852267"><ele>300.0</ele><time>2026-04-26T07:26:11.235Z</time></trkpt><trkpt lat="43.2746883" lon="13.1853433"><ele>300.0</ele><time>2026-04-26T07:26:12.233Z</time></trkpt><trkpt lat="43.2745533" lon="13.1854617"><ele>299.3333333333333</ele><time>2026-04-26T07:26:13.232Z</time></trkpt><trkpt lat="43.2744167" lon="13.18558"><ele>298.66666666666663</ele><time>2026-04-26T07:26:14.233Z</time></trkpt><trkpt lat="43.2742783" lon="13.185695"><ele>298.0</ele><time>2026-04-26T07:26:15.232Z</time></trkpt><trkpt lat="43.2741367" lon="13.1858117"><ele>298.0</ele><time>2026-04-26T07:26:16.233Z</time></trkpt><trkpt lat="43.27399" lon="13.1859283"><ele>298.0</ele><time>2026-04-26T07:26:17.234Z</time></trkpt><trkpt lat="43.2738383" lon="13.186055"><ele>298.0</ele><time>2026-04-26T07:26:18.232Z</time></trkpt><trkpt lat="43.273685" lon="13.1861783"><ele>296.3333333333333</ele><time>2026-04-26T07:26:19.233Z</time></trkpt><trkpt lat="43.2735267" lon="13.1863083"><ele>294.6666666666667</ele><time>2026-04-26T07:26:20.23Z</time></trkpt><trkpt lat="43.273365" lon="13.18644"><ele>293.0</ele><time>2026-04-26T07:26:21.236Z</time></trkpt><trkpt lat="43.2732017" lon="13.1865783"><ele>295.0</ele><time>2026-04-26T07:26:22.235Z</time></trkpt><trkpt lat="43.2730383" lon="13.1867183"><ele>297.0</ele><time>2026-04-26T07:26:23.234Z</time></trkpt><trkpt lat="43.272875" lon="13.1868517"><ele>299.0</ele><time>2026-04-26T07:26:24.235Z</time></trkpt><trkpt lat="43.2727117" lon="13.1869817"><ele>299.0</ele><time>2026-04-26T07:26:25.235Z</time></trkpt><trkpt lat="43.2725517" lon="13.1871133"><ele>299.0</ele><time>2026-04-26T07:26:26.231Z</time></trkpt><trkpt lat="43.2723933" lon="13.18725"><ele>299.0</ele><time>2026-04-26T07:26:27.233Z</time></trkpt><trkpt lat="43.2722283" lon="13.1873583"><ele>296.6666666666667</ele><time>2026-04-26T07:26:28.232Z</time></trkpt><trkpt lat="43.2720583" lon="13.1874567"><ele>294.3333333333333</ele><time>2026-04-26T07:26:29.234Z</time></trkpt><trkpt lat="43.2718917" lon="13.18755"><ele>292.0</ele><time>2026-04-26T07:26:30.236Z</time></trkpt><trkpt lat="43.27172" lon="13.18764"><ele>292.0</ele><time>2026-04-26T07:26:31.233Z</time></trkpt><trkpt lat="43.271545" lon="13.1877233"><ele>292.0</ele><time>2026-04-26T07:26:32.234Z</time></trkpt><trkpt lat="43.271365" lon="13.1878083"><ele>292.0</ele><time>2026-04-26T07:26:33.234Z</time></trkpt><trkpt lat="43.2711883" lon="13.1878933"><ele>290.66666666666663</ele><time>2026-04-26T07:26:34.233Z</time></trkpt><trkpt lat="43.27102" lon="13.1879867"><ele>289.3333333333333</ele><time>2026-04-26T07:26:35.233Z</time></trkpt><trkpt lat="43.2708683" lon="13.1881033"><ele>288.0</ele><time>2026-04-26T07:26:36.232Z</time></trkpt><trkpt lat="43.2707383" lon="13.18825"><ele>288.0</ele><time>2026-04-26T07:26:37.231Z</time></trkpt><trkpt lat="43.27063" lon="13.188425"><ele>288.0</ele><time>2026-04-26T07:26:38.231Z</time></trkpt><trkpt lat="43.2705283" lon="13.1886133"><ele>288.0</ele><time>2026-04-26T07:26:39.235Z</time></trkpt><trkpt lat="43.2704133" lon="13.1888083"><ele>288.6666666666667</ele><time>2026-04-26T07:26:40.229Z</time></trkpt><trkpt lat="43.2702633" lon="13.189"><ele>289.33333333333337</ele><time>2026-04-26T07:26:41.232Z</time></trkpt><trkpt lat="43.270095" lon="13.18919"><ele>290.0</ele><time>2026-04-26T07:26:42.232Z</time></trkpt><trkpt lat="43.26991" lon="13.1893667"><ele>296.0</ele><time>2026-04-26T07:26:43.235Z</time></trkpt><trkpt lat="43.2697183" lon="13.1895283"><ele>302.0</ele><time>2026-04-26T07:26:44.232Z</time></trkpt><trkpt lat="43.2695283" lon="13.1896817"><ele>308.0</ele><time>2026-04-26T07:26:45.233Z</time></trkpt><trkpt lat="43.2693383" lon="13.1898133"><ele>297.6666666666667</ele><time>2026-04-26T07:26:46.234Z</time></trkpt><trkpt lat="43.269155" lon="13.189915"><ele>287.3333333333333</ele><time>2026-04-26T07:26:47.225Z</time></trkpt><trkpt lat="43.26897" lon="13.1899733"><ele>277.0</ele><time>2026-04-26T07:26:48.233Z</time></trkpt><trkpt lat="43.268785" lon="13.189995"><ele>276.66666666666663</ele><time>2026-04-26T07:26:49.239Z</time></trkpt><trkpt lat="43.2686133" lon="13.1899533"><ele>276.3333333333333</ele><time>2026-04-26T07:26:50.234Z</time></trkpt><trkpt lat="43.26846" lon="13.1898967"><ele>276.0</ele><time>2026-04-26T07:26:51.234Z</time></trkpt><trkpt lat="43.2683133" lon="13.1898367"><ele>279.0</ele><time>2026-04-26T07:26:52.232Z</time></trkpt><trkpt lat="43.2681667" lon="13.189795"><ele>282.0</ele><time>2026-04-26T07:26:53.229Z</time></trkpt><trkpt lat="43.26802" lon="13.1898083"><ele>285.0</ele><time>2026-04-26T07:26:54.231Z</time></trkpt><trkpt lat="43.2678767" lon="13.189855"><ele>288.0</ele><time>2026-04-26T07:26:55.233Z</time></trkpt><trkpt lat="43.26774" lon="13.1899283"><ele>288.0</ele><time>2026-04-26T07:26:56.233Z</time></trkpt><trkpt lat="43.26762" lon="13.19004"><ele>288.0</ele><time>2026-04-26T07:26:57.232Z</time></trkpt><trkpt lat="43.2674933" lon="13.1902183"><ele>288.0</ele><time>2026-04-26T07:26:58.23Z</time></trkpt><trkpt lat="43.267355" lon="13.1904117"><ele>289.3333333333333</ele><time>2026-04-26T07:26:59.232Z</time></trkpt><trkpt lat="43.2672067" lon="13.1905767"><ele>290.66666666666663</ele><time>2026-04-26T07:27:00.233Z</time></trkpt><trkpt lat="43.267055" lon="13.1907183"><ele>292.0</ele><time>2026-04-26T07:27:01.231Z</time></trkpt><trkpt lat="43.26691" lon="13.1908417"><ele>286.66666666666663</ele><time>2026-04-26T07:27:02.249Z</time></trkpt><trkpt lat="43.2667783" lon="13.1909633"><ele>281.3333333333333</ele><time>2026-04-26T07:27:03.233Z</time></trkpt><trkpt lat="43.2666517" lon="13.19108"><ele>276.0</ele><time>2026-04-26T07:27:04.232Z</time></trkpt><trkpt lat="43.2665333" lon="13.1911883"><ele>275.25</ele><time>2026-04-26T07:27:05.23Z</time></trkpt><trkpt lat="43.2664267" lon="13.1912883"><ele>274.5</ele><time>2026-04-26T07:27:06.232Z</time></trkpt><trkpt lat="43.266315" lon="13.191375"><ele>273.75</ele><time>2026-04-26T07:27:07.239Z</time></trkpt><trkpt lat="43.26621" lon="13.1914467"><ele>273.0</ele><time>2026-04-26T07:27:08.235Z</time></trkpt><trkpt lat="43.2661083" lon="13.191505"><ele>270.6</ele><time>2026-04-26T07:27:09.234Z</time></trkpt><trkpt lat="43.2660117" lon="13.1915567"><ele>268.20000000000005</ele><time>2026-04-26T07:27:10.232Z</time></trkpt><trkpt lat="43.2659183" lon="13.19161"><ele>265.8</ele><time>2026-04-26T07:27:11.234Z</time></trkpt><trkpt lat="43.2658283" lon="13.1916583"><ele>263.40000000000003</ele><time>2026-04-26T07:27:12.232Z</time></trkpt><trkpt lat="43.265745" lon="13.191705"><ele>261.0</ele><time>2026-04-26T07:27:13.231Z</time></trkpt><trkpt lat="43.2656583" lon="13.1917483"><ele>260.2</ele><time>2026-04-26T07:27:14.233Z</time></trkpt><trkpt lat="43.2655717" lon="13.1917967"><ele>259.40000000000003</ele><time>2026-04-26T07:27:15.235Z</time></trkpt><trkpt lat="43.2654783" lon="13.1918467"><ele>258.6</ele><time>2026-04-26T07:27:16.234Z</time></trkpt><trkpt lat="43.2653867" lon="13.1919033"><ele>257.8</ele><time>2026-04-26T07:27:17.233Z</time></trkpt><trkpt lat="43.2652917" lon="13.191955"><ele>257.0</ele><time>2026-04-26T07:27:18.232Z</time></trkpt><trkpt lat="43.2652033" lon="13.1920083"><ele>257.0</ele><time>2026-04-26T07:27:19.228Z</time></trkpt><trkpt lat="43.265115" lon="13.1920667"><ele>257.0</ele><time>2026-04-26T07:27:20.226Z</time></trkpt><trkpt lat="43.2650651" lon="13.1923624"><ele>257.0</ele><time>2026-04-26T07:27:22.474Z</time></trkpt><trkpt lat="43.2649649" lon="13.1924133"><ele>257.0</ele><time>2026-04-26T07:27:23.73Z</time></trkpt><trkpt lat="43.2648566" lon="13.192434"><ele>256.5</ele><time>2026-04-26T07:27:24.732Z</time></trkpt><trkpt lat="43.2647007" lon="13.1924939"><ele>256.0</ele><time>2026-04-26T07:27:26.239Z</time></trkpt><trkpt lat="43.2645903" lon="13.1925446"><ele>255.5</ele><time>2026-04-26T07:27:27.234Z</time></trkpt><trkpt lat="43.2644802" lon="13.1926075"><ele>255.0</ele><time>2026-04-26T07:27:28.236Z</time></trkpt><trkpt lat="43.264374" lon="13.1926763"><ele>255.0</ele><time>2026-04-26T07:27:29.232Z</time></trkpt><trkpt lat="43.2642751" lon="13.1927563"><ele>255.0</ele><time>2026-04-26T07:27:30.232Z</time></trkpt><trkpt lat="43.2641795" lon="13.1928436"><ele>255.0</ele><time>2026-04-26T07:27:31.231Z</time></trkpt><trkpt lat="43.2640819" lon="13.1929373"><ele>255.0</ele><time>2026-04-26T07:27:32.231Z</time></trkpt><trkpt lat="43.2639812" lon="13.1930303"><ele>255.5</ele><time>2026-04-26T07:27:33.232Z</time></trkpt><trkpt lat="43.2638789" lon="13.1931194"><ele>256.0</ele><time>2026-04-26T07:27:34.231Z</time></trkpt><trkpt lat="43.263782" lon="13.1932063"><ele>256.5</ele><time>2026-04-26T07:27:35.233Z</time></trkpt><trkpt lat="43.2636847" lon="13.1932968"><ele>257.0</ele><time>2026-04-26T07:27:36.234Z</time></trkpt><trkpt lat="43.2635806" lon="13.1933937"><ele>257.0</ele><time>2026-04-26T07:27:37.235Z</time></trkpt><trkpt lat="43.2634723" lon="13.1934936"><ele>257.0</ele><time>2026-04-26T07:27:38.227Z</time></trkpt><trkpt lat="43.2633588" lon="13.1935917"><ele>257.0</ele><time>2026-04-26T07:27:39.231Z</time></trkpt><trkpt lat="43.263239" lon="13.1936761"><ele>257.0</ele><time>2026-04-26T07:27:40.234Z</time></trkpt><trkpt lat="43.2631048" lon="13.1937404"><ele>259.33333333333337</ele><time>2026-04-26T07:27:41.229Z</time></trkpt><trkpt lat="43.262955" lon="13.1937733"><ele>261.6666666666667</ele><time>2026-04-26T07:27:42.229Z</time></trkpt><trkpt lat="43.2628083" lon="13.193805"><ele>264.0</ele><time>2026-04-26T07:27:43.228Z</time></trkpt><trkpt lat="43.262655" lon="13.1938283"><ele>264.0</ele><time>2026-04-26T07:27:44.228Z</time></trkpt><trkpt lat="43.2625083" lon="13.193845"><ele>264.0</ele><time>2026-04-26T07:27:45.228Z</time></trkpt><trkpt lat="43.262375" lon="13.1938633"><ele>264.0</ele><time>2026-04-26T07:27:46.235Z</time></trkpt><trkpt lat="43.2622483" lon="13.1938783"><ele>264.0</ele><time>2026-04-26T07:27:47.23Z</time></trkpt><trkpt lat="43.262125" lon="13.1938883"><ele>265.0</ele><time>2026-04-26T07:27:48.234Z</time></trkpt><trkpt lat="43.2620067" lon="13.193905"><ele>266.0</ele><time>2026-04-26T07:27:49.231Z</time></trkpt><trkpt lat="43.2618867" lon="13.193925"><ele>267.0</ele><time>2026-04-26T07:27:50.237Z</time></trkpt><trkpt lat="43.2617617" lon="13.1939467"><ele>268.0</ele><time>2026-04-26T07:27:51.236Z</time></trkpt><trkpt lat="43.2616367" lon="13.1939733"><ele>265.5</ele><time>2026-04-26T07:27:52.231Z</time></trkpt><trkpt lat="43.2615083" lon="13.194005"><ele>263.0</ele><time>2026-04-26T07:27:53.228Z</time></trkpt><trkpt lat="43.2613783" lon="13.19405"><ele>260.5</ele><time>2026-04-26T07:27:54.235Z</time></trkpt><trkpt lat="43.261245" lon="13.1941083"><ele>258.0</ele><time>2026-04-26T07:27:55.234Z</time></trkpt><trkpt lat="43.26111" lon="13.1941667"><ele>258.0</ele><time>2026-04-26T07:27:56.233Z</time></trkpt><trkpt lat="43.2609733" lon="13.1942267"><ele>258.0</ele><time>2026-04-26T07:27:57.232Z</time></trkpt><trkpt lat="43.260835" lon="13.19429"><ele>258.0</ele><time>2026-04-26T07:27:58.233Z</time></trkpt><trkpt lat="43.2606983" lon="13.1943517"><ele>258.0</ele><time>2026-04-26T07:27:59.23Z</time></trkpt><trkpt lat="43.260565" lon="13.1944117"><ele>257.5</ele><time>2026-04-26T07:28:00.228Z</time></trkpt><trkpt lat="43.2604367" lon="13.1944683"><ele>257.0</ele><time>2026-04-26T07:28:01.234Z</time></trkpt><trkpt lat="43.2603083" lon="13.194525"><ele>256.5</ele><time>2026-04-26T07:28:02.232Z</time></trkpt><trkpt lat="43.2601783" lon="13.1945817"><ele>256.0</ele><time>2026-04-26T07:28:03.23Z</time></trkpt><trkpt lat="43.2600433" lon="13.1946383"><ele>256.0</ele><time>2026-04-26T07:28:04.228Z</time></trkpt><trkpt lat="43.2599117" lon="13.1946983"><ele>256.0</ele><time>2026-04-26T07:28:05.228Z</time></trkpt><trkpt lat="43.25978" lon="13.1947567"><ele>256.0</ele><time>2026-04-26T07:28:06.228Z</time></trkpt><trkpt lat="43.259645" lon="13.1948"><ele>256.0</ele><time>2026-04-26T07:28:07.23Z</time></trkpt><trkpt lat="43.2595017" lon="13.1948217"><ele>256.66666666666663</ele><time>2026-04-26T07:28:08.228Z</time></trkpt><trkpt lat="43.25935" lon="13.1948133"><ele>257.3333333333333</ele><time>2026-04-26T07:28:09.228Z</time></trkpt><trkpt lat="43.2591933" lon="13.194785"><ele>258.0</ele><time>2026-04-26T07:28:10.23Z</time></trkpt><trkpt lat="43.25904" lon="13.1947517"><ele>259.0</ele><time>2026-04-26T07:28:11.229Z</time></trkpt><trkpt lat="43.2588867" lon="13.194725"><ele>260.0</ele><time>2026-04-26T07:28:12.228Z</time></trkpt><trkpt lat="43.258735" lon="13.194705"><ele>261.0</ele><time>2026-04-26T07:28:13.227Z</time></trkpt><trkpt lat="43.2585883" lon="13.19469"><ele>261.0</ele><time>2026-04-26T07:28:14.229Z</time></trkpt><trkpt lat="43.25845" lon="13.19467"><ele>261.0</ele><time>2026-04-26T07:28:15.228Z</time></trkpt><trkpt lat="43.2583133" lon="13.1946467"><ele>261.0</ele><time>2026-04-26T07:28:16.228Z</time></trkpt><trkpt lat="43.25817" lon="13.1946233"><ele>261.0</ele><time>2026-04-26T07:28:17.229Z</time></trkpt><trkpt lat="43.25803" lon="13.1946033"><ele>260.75</ele><time>2026-04-26T07:28:18.23Z</time></trkpt><trkpt lat="43.2578917" lon="13.1945767"><ele>260.5</ele><time>2026-04-26T07:28:19.231Z</time></trkpt><trkpt lat="43.25776" lon="13.1945533"><ele>260.25</ele><time>2026-04-26T07:28:20.23Z</time></trkpt><trkpt lat="43.2576283" lon="13.1945233"><ele>260.0</ele><time>2026-04-26T07:28:21.23Z</time></trkpt><trkpt lat="43.2575067" lon="13.1944867"><ele>260.0</ele><time>2026-04-26T07:28:22.228Z</time></trkpt><trkpt lat="43.2573867" lon="13.1944433"><ele>260.0</ele><time>2026-04-26T07:28:23.23Z</time></trkpt><trkpt lat="43.257265" lon="13.1943833"><ele>260.0</ele><time>2026-04-26T07:28:24.229Z</time></trkpt><trkpt lat="43.2571367" lon="13.1943117"><ele>260.0</ele><time>2026-04-26T07:28:25.229Z</time></trkpt><trkpt lat="43.2570033" lon="13.19424"><ele>259.0</ele><time>2026-04-26T07:28:26.23Z</time></trkpt><trkpt lat="43.256865" lon="13.1941667"><ele>258.0</ele><time>2026-04-26T07:28:27.233Z</time></trkpt><trkpt lat="43.2567267" lon="13.194085"><ele>257.0</ele><time>2026-04-26T07:28:28.235Z</time></trkpt><trkpt lat="43.2565967" lon="13.1940067"><ele>256.0</ele><time>2026-04-26T07:28:29.228Z</time></trkpt><trkpt lat="43.2564733" lon="13.1939333"><ele>256.25</ele><time>2026-04-26T07:28:30.229Z</time></trkpt><trkpt lat="43.256355" lon="13.19387"><ele>256.5</ele><time>2026-04-26T07:28:31.237Z</time></trkpt><trkpt lat="43.2562367" lon="13.19381"><ele>256.75</ele><time>2026-04-26T07:28:32.232Z</time></trkpt><trkpt lat="43.256115" lon="13.19375"><ele>257.0</ele><time>2026-04-26T07:28:33.233Z</time></trkpt><trkpt lat="43.2559867" lon="13.1936933"><ele>257.0</ele><time>2026-04-26T07:28:34.231Z</time></trkpt><trkpt lat="43.2558483" lon="13.1936267"><ele>257.0</ele><time>2026-04-26T07:28:35.231Z</time></trkpt><trkpt lat="43.255705" lon="13.1935567"><ele>257.0</ele><time>2026-04-26T07:28:36.227Z</time></trkpt><trkpt lat="43.2555483" lon="13.19348"><ele>257.0</ele><time>2026-04-26T07:28:37.229Z</time></trkpt><trkpt lat="43.2553833" lon="13.1933933"><ele>257.0</ele><time>2026-04-26T07:28:38.231Z</time></trkpt><trkpt lat="43.2552083" lon="13.1933017"><ele>257.0</ele><time>2026-04-26T07:28:39.229Z</time></trkpt><trkpt lat="43.255025" lon="13.1932083"><ele>257.0</ele><time>2026-04-26T07:28:40.228Z</time></trkpt><trkpt lat="43.25484" lon="13.1931083"><ele>257.0</ele><time>2026-04-26T07:28:41.227Z</time></trkpt><trkpt lat="43.2546483" lon="13.193005"><ele>257.0</ele><time>2026-04-26T07:28:42.227Z</time></trkpt><trkpt lat="43.254445" lon="13.1929"><ele>257.0</ele><time>2026-04-26T07:28:43.228Z</time></trkpt><trkpt lat="43.25424" lon="13.19279"><ele>257.0</ele><time>2026-04-26T07:28:44.23Z</time></trkpt><trkpt lat="43.2540317" lon="13.1926783"><ele>257.0</ele><time>2026-04-26T07:28:45.23Z</time></trkpt><trkpt lat="43.25382" lon="13.1925633"><ele>256.5</ele><time>2026-04-26T07:28:46.232Z</time></trkpt><trkpt lat="43.25361" lon="13.1924433"><ele>256.0</ele><time>2026-04-26T07:28:47.233Z</time></trkpt><trkpt lat="43.253395" lon="13.192325"><ele>256.0</ele><time>2026-04-26T07:28:48.233Z</time></trkpt><trkpt lat="43.2531783" lon="13.1922033"><ele>256.0</ele><time>2026-04-26T07:28:49.229Z</time></trkpt><trkpt lat="43.2529567" lon="13.1920817"><ele>256.0</ele><time>2026-04-26T07:28:50.229Z</time></trkpt><trkpt lat="43.252725" lon="13.1919633"><ele>256.0</ele><time>2026-04-26T07:28:51.233Z</time></trkpt><trkpt lat="43.2524917" lon="13.1918417"><ele>256.0</ele><time>2026-04-26T07:28:52.23Z</time></trkpt><trkpt lat="43.2522583" lon="13.19172"><ele>256.0</ele><time>2026-04-26T07:28:53.231Z</time></trkpt><trkpt lat="43.2520283" lon="13.1915983"><ele>256.5</ele><time>2026-04-26T07:28:54.235Z</time></trkpt><trkpt lat="43.251805" lon="13.1914767"><ele>257.0</ele><time>2026-04-26T07:28:55.231Z</time></trkpt><trkpt lat="43.2515783" lon="13.191355"><ele>256.5</ele><time>2026-04-26T07:28:56.235Z</time></trkpt><trkpt lat="43.2513567" lon="13.1912367"><ele>256.0</ele><time>2026-04-26T07:28:57.232Z</time></trkpt><trkpt lat="43.2511367" lon="13.1911217"><ele>256.0</ele><time>2026-04-26T07:28:58.234Z</time></trkpt><trkpt lat="43.2509167" lon="13.1910067"><ele>256.0</ele><time>2026-04-26T07:28:59.231Z</time></trkpt><trkpt lat="43.2507" lon="13.19089"><ele>255.0</ele><time>2026-04-26T07:29:00.233Z</time></trkpt><trkpt lat="43.2504867" lon="13.1907767"><ele>254.0</ele><time>2026-04-26T07:29:01.235Z</time></trkpt><trkpt lat="43.2502683" lon="13.190665"><ele>254.0</ele><time>2026-04-26T07:29:02.233Z</time></trkpt><trkpt lat="43.2500483" lon="13.1905517"><ele>254.0</ele><time>2026-04-26T07:29:03.236Z</time></trkpt><trkpt lat="43.2498267" lon="13.1904367"><ele>254.0</ele><time>2026-04-26T07:29:04.247Z</time></trkpt><trkpt lat="43.2496033" lon="13.19032"><ele>254.0</ele><time>2026-04-26T07:29:05.231Z</time></trkpt><trkpt lat="43.2493783" lon="13.1902017"><ele>254.0</ele><time>2026-04-26T07:29:06.235Z</time></trkpt><trkpt lat="43.2491517" lon="13.1900817"><ele>254.0</ele><time>2026-04-26T07:29:07.233Z</time></trkpt><trkpt lat="43.248925" lon="13.1899617"><ele>254.0</ele><time>2026-04-26T07:29:08.231Z</time></trkpt><trkpt lat="43.2486967" lon="13.1898433"><ele>254.0</ele><time>2026-04-26T07:29:09.234Z</time></trkpt><trkpt lat="43.24847" lon="13.1897233"><ele>254.0</ele><time>2026-04-26T07:29:10.233Z</time></trkpt><trkpt lat="43.24824" lon="13.1896017"><ele>254.0</ele><time>2026-04-26T07:29:11.232Z</time></trkpt><trkpt lat="43.2479967" lon="13.1894733"><ele>255.0</ele><time>2026-04-26T07:29:12.232Z</time></trkpt><trkpt lat="43.247745" lon="13.1893383"><ele>256.0</ele><time>2026-04-26T07:29:13.234Z</time></trkpt><trkpt lat="43.24748" lon="13.1891983"><ele>255.5</ele><time>2026-04-26T07:29:14.234Z</time></trkpt><trkpt lat="43.2471833" lon="13.1890533"><ele>255.0</ele><time>2026-04-26T07:29:15.234Z</time></trkpt><trkpt lat="43.2468617" lon="13.1889067"><ele>255.0</ele><time>2026-04-26T07:29:16.234Z</time></trkpt><trkpt lat="43.24652" lon="13.1887367"><ele>255.0</ele><time>2026-04-26T07:29:17.234Z</time></trkpt><trkpt lat="43.2462067" lon="13.188555"><ele>256.5</ele><time>2026-04-26T07:29:18.236Z</time></trkpt><trkpt lat="43.2459417" lon="13.1883867"><ele>258.0</ele><time>2026-04-26T07:29:19.232Z</time></trkpt><trkpt lat="43.24573" lon="13.1882567"><ele>262.0</ele><time>2026-04-26T07:29:20.242Z</time></trkpt><trkpt lat="43.2455217" lon="13.1881467"><ele>266.0</ele><time>2026-04-26T07:29:21.237Z</time></trkpt><trkpt lat="43.2453067" lon="13.188035"><ele>266.0</ele><time>2026-04-26T07:29:22.234Z</time></trkpt><trkpt lat="43.2450883" lon="13.1879217"><ele>266.0</ele><time>2026-04-26T07:29:23.235Z</time></trkpt><trkpt lat="43.2448683" lon="13.187805"><ele>265.6666666666667</ele><time>2026-04-26T07:29:24.237Z</time></trkpt><trkpt lat="43.2446567" lon="13.1876933"><ele>265.3333333333333</ele><time>2026-04-26T07:29:25.235Z</time></trkpt><trkpt lat="43.24445" lon="13.187585"><ele>265.0</ele><time>2026-04-26T07:29:26.234Z</time></trkpt><trkpt lat="43.244245" lon="13.1874817"><ele>265.0</ele><time>2026-04-26T07:29:27.234Z</time></trkpt><trkpt lat="43.24404" lon="13.1873733"><ele>265.0</ele><time>2026-04-26T07:29:28.233Z</time></trkpt><trkpt lat="43.2438483" lon="13.18727"><ele>265.0</ele><time>2026-04-26T07:29:29.23Z</time></trkpt><trkpt lat="43.2436683" lon="13.1871767"><ele>265.3333333333333</ele><time>2026-04-26T07:29:30.232Z</time></trkpt><trkpt lat="43.2434917" lon="13.18709"><ele>265.6666666666667</ele><time>2026-04-26T07:29:31.234Z</time></trkpt><trkpt lat="43.2433067" lon="13.1870017"><ele>266.0</ele><time>2026-04-26T07:29:32.233Z</time></trkpt><trkpt lat="43.2431167" lon="13.1869283"><ele>266.0</ele><time>2026-04-26T07:29:33.235Z</time></trkpt><trkpt lat="43.24292" lon="13.1868817"><ele>266.0</ele><time>2026-04-26T07:29:34.232Z</time></trkpt><trkpt lat="43.2427233" lon="13.1868617"><ele>266.0</ele><time>2026-04-26T07:29:35.24Z</time></trkpt><trkpt lat="43.2425233" lon="13.18686"><ele>266.0</ele><time>2026-04-26T07:29:36.233Z</time></trkpt><trkpt lat="43.24232" lon="13.1868767"><ele>266.0</ele><time>2026-04-26T07:29:37.234Z</time></trkpt><trkpt lat="43.242125" lon="13.1869083"><ele>266.0</ele><time>2026-04-26T07:29:38.234Z</time></trkpt><trkpt lat="43.2419467" lon="13.1869417"><ele>266.6666666666667</ele><time>2026-04-26T07:29:39.237Z</time></trkpt><trkpt lat="43.241785" lon="13.1869783"><ele>267.3333333333333</ele><time>2026-04-26T07:29:40.234Z</time></trkpt><trkpt lat="43.24163" lon="13.1870167"><ele>268.0</ele><time>2026-04-26T07:29:41.233Z</time></trkpt><trkpt lat="43.2414667" lon="13.1870567"><ele>267.66666666666663</ele><time>2026-04-26T07:29:42.233Z</time></trkpt><trkpt lat="43.241295" lon="13.1870983"><ele>267.3333333333333</ele><time>2026-04-26T07:29:43.235Z</time></trkpt><trkpt lat="43.24112" lon="13.18714"><ele>267.0</ele><time>2026-04-26T07:29:44.233Z</time></trkpt><trkpt lat="43.2409417" lon="13.1871817"><ele>267.0</ele><time>2026-04-26T07:29:45.233Z</time></trkpt><trkpt lat="43.2407617" lon="13.1872267"><ele>267.0</ele><time>2026-04-26T07:29:46.24Z</time></trkpt><trkpt lat="43.2405783" lon="13.1872833"><ele>267.0</ele><time>2026-04-26T07:29:47.231Z</time></trkpt><trkpt lat="43.2403983" lon="13.1873633"><ele>265.0</ele><time>2026-04-26T07:29:48.232Z</time></trkpt><trkpt lat="43.24022" lon="13.1874633"><ele>263.0</ele><time>2026-04-26T07:29:49.232Z</time></trkpt><trkpt lat="43.24005" lon="13.1875833"><ele>261.0</ele><time>2026-04-26T07:29:50.232Z</time></trkpt><trkpt lat="43.239885" lon="13.187725"><ele>259.6666666666667</ele><time>2026-04-26T07:29:51.231Z</time></trkpt><trkpt lat="43.2397283" lon="13.18789"><ele>258.33333333333337</ele><time>2026-04-26T07:29:52.229Z</time></trkpt><trkpt lat="43.2395717" lon="13.1880617"><ele>257.0</ele><time>2026-04-26T07:29:53.231Z</time></trkpt><trkpt lat="43.2394167" lon="13.1882333"><ele>257.0</ele><time>2026-04-26T07:29:54.232Z</time></trkpt><trkpt lat="43.23926" lon="13.1884017"><ele>257.0</ele><time>2026-04-26T07:29:55.233Z</time></trkpt><trkpt lat="43.23911" lon="13.1885633"><ele>257.0</ele><time>2026-04-26T07:29:56.233Z</time></trkpt><trkpt lat="43.238965" lon="13.18872"><ele>256.0</ele><time>2026-04-26T07:29:57.233Z</time></trkpt><trkpt lat="43.2388267" lon="13.1888767"><ele>255.0</ele><time>2026-04-26T07:29:58.23Z</time></trkpt><trkpt lat="43.2386917" lon="13.189025"><ele>254.0</ele><time>2026-04-26T07:29:59.231Z</time></trkpt><trkpt lat="43.23856" lon="13.189165"><ele>254.0</ele><time>2026-04-26T07:30:00.233Z</time></trkpt><trkpt lat="43.238435" lon="13.18928"><ele>254.0</ele><time>2026-04-26T07:30:01.236Z</time></trkpt><trkpt lat="43.238315" lon="13.1893733"><ele>254.0</ele><time>2026-04-26T07:30:02.229Z</time></trkpt><trkpt lat="43.2381933" lon="13.1894417"><ele>254.0</ele><time>2026-04-26T07:30:03.234Z</time></trkpt><trkpt lat="43.2380767" lon="13.1894917"><ele>252.6</ele><time>2026-04-26T07:30:04.234Z</time></trkpt><trkpt lat="43.2379617" lon="13.1895283"><ele>251.2</ele><time>2026-04-26T07:30:05.231Z</time></trkpt><trkpt lat="43.2378517" lon="13.1895517"><ele>249.79999999999998</ele><time>2026-04-26T07:30:06.231Z</time></trkpt><trkpt lat="43.237745" lon="13.1895533"><ele>248.39999999999998</ele><time>2026-04-26T07:30:07.232Z</time></trkpt><trkpt lat="43.2376467" lon="13.18954"><ele>247.0</ele><time>2026-04-26T07:30:08.234Z</time></trkpt><trkpt lat="43.2375567" lon="13.1895083"><ele>247.0</ele><time>2026-04-26T07:30:09.234Z</time></trkpt><trkpt lat="43.23748" lon="13.1894483"><ele>247.0</ele><time>2026-04-26T07:30:10.233Z</time></trkpt><trkpt lat="43.237425" lon="13.18936"><ele>247.0</ele><time>2026-04-26T07:30:11.232Z</time></trkpt><trkpt lat="43.2373767" lon="13.1892417"><ele>247.0</ele><time>2026-04-26T07:30:12.238Z</time></trkpt><trkpt lat="43.23734" lon="13.189105"><ele>247.0</ele><time>2026-04-26T07:30:13.232Z</time></trkpt><trkpt lat="43.2372967" lon="13.1889633"><ele>246.0</ele><time>2026-04-26T07:30:14.231Z</time></trkpt><trkpt lat="43.2372417" lon="13.1888083"><ele>245.0</ele><time>2026-04-26T07:30:15.233Z</time></trkpt><trkpt lat="43.2371783" lon="13.188645"><ele>244.0</ele><time>2026-04-26T07:30:16.231Z</time></trkpt><trkpt lat="43.23711" lon="13.18848"><ele>243.0</ele><time>2026-04-26T07:30:17.232Z</time></trkpt><trkpt lat="43.2370467" lon="13.188315"><ele>243.5</ele><time>2026-04-26T07:30:18.229Z</time></trkpt><trkpt lat="43.2369917" lon="13.18815"><ele>244.0</ele><time>2026-04-26T07:30:19.23Z</time></trkpt><trkpt lat="43.236945" lon="13.18798"><ele>244.5</ele><time>2026-04-26T07:30:20.235Z</time></trkpt><trkpt lat="43.2369067" lon="13.1878133"><ele>245.0</ele><time>2026-04-26T07:30:21.23Z</time></trkpt><trkpt lat="43.2368733" lon="13.18765"><ele>245.0</ele><time>2026-04-26T07:30:22.23Z</time></trkpt><trkpt lat="43.23684" lon="13.1874817"><ele>245.0</ele><time>2026-04-26T07:30:23.233Z</time></trkpt><trkpt lat="43.2368067" lon="13.1873117"><ele>245.0</ele><time>2026-04-26T07:30:24.231Z</time></trkpt><trkpt lat="43.2367717" lon="13.1871467"><ele>245.0</ele><time>2026-04-26T07:30:25.231Z</time></trkpt><trkpt lat="43.23674" lon="13.1869867"><ele>245.8</ele><time>2026-04-26T07:30:26.233Z</time></trkpt><trkpt lat="43.23671" lon="13.186835"><ele>246.6</ele><time>2026-04-26T07:30:27.235Z</time></trkpt><trkpt lat="43.236685" lon="13.1866967"><ele>247.39999999999998</ele><time>2026-04-26T07:30:28.233Z</time></trkpt><trkpt lat="43.2366617" lon="13.1865733"><ele>248.2</ele><time>2026-04-26T07:30:29.23Z</time></trkpt><trkpt lat="43.2366517" lon="13.1864633"><ele>249.0</ele><time>2026-04-26T07:30:30.229Z</time></trkpt><trkpt lat="43.23664" lon="13.186365"><ele>249.39999999999998</ele><time>2026-04-26T07:30:31.23Z</time></trkpt><trkpt lat="43.2366467" lon="13.1862783"><ele>249.79999999999998</ele><time>2026-04-26T07:30:32.232Z</time></trkpt><trkpt lat="43.236645" lon="13.1861333"><ele>250.20000000000002</ele><time>2026-04-26T07:30:34.231Z</time></trkpt><trkpt lat="43.2365433" lon="13.1860233"><ele>250.60000000000002</ele><time>2026-04-26T07:30:36.232Z</time></trkpt><trkpt lat="43.2364617" lon="13.1859833"><ele>251.0</ele><time>2026-04-26T07:30:37.233Z</time></trkpt><trkpt lat="43.236355" lon="13.1859533"><ele>248.75</ele><time>2026-04-26T07:30:38.234Z</time></trkpt><trkpt lat="43.2362317" lon="13.1859233"><ele>246.5</ele><time>2026-04-26T07:30:39.235Z</time></trkpt><trkpt lat="43.2361117" lon="13.1859033"><ele>244.25</ele><time>2026-04-26T07:30:40.227Z</time></trkpt><trkpt lat="43.2359967" lon="13.1858833"><ele>242.0</ele><time>2026-04-26T07:30:41.234Z</time></trkpt><trkpt lat="43.2358883" lon="13.185865"><ele>242.0</ele><time>2026-04-26T07:30:42.233Z</time></trkpt><trkpt lat="43.2357883" lon="13.185845"><ele>242.0</ele><time>2026-04-26T07:30:43.233Z</time></trkpt><trkpt lat="43.235695" lon="13.1858267"><ele>242.0</ele><time>2026-04-26T07:30:44.228Z</time></trkpt><trkpt lat="43.235605" lon="13.1858067"><ele>242.0</ele><time>2026-04-26T07:30:45.231Z</time></trkpt><trkpt lat="43.23552" lon="13.18579"><ele>242.0</ele><time>2026-04-26T07:30:46.23Z</time></trkpt><trkpt lat="43.2354383" lon="13.1857717"><ele>240.66666666666669</ele><time>2026-04-26T07:30:47.235Z</time></trkpt><trkpt lat="43.23536" lon="13.1857533"><ele>239.33333333333334</ele><time>2026-04-26T07:30:48.232Z</time></trkpt><trkpt lat="43.2352833" lon="13.1857367"><ele>238.0</ele><time>2026-04-26T07:30:49.233Z</time></trkpt><trkpt lat="43.2352167" lon="13.18572"><ele>236.66666666666669</ele><time>2026-04-26T07:30:50.231Z</time></trkpt><trkpt lat="43.2351533" lon="13.1857033"><ele>235.33333333333334</ele><time>2026-04-26T07:30:51.233Z</time></trkpt><trkpt lat="43.235035" lon="13.18568"><ele>234.0</ele><time>2026-04-26T07:30:53.232Z</time></trkpt><trkpt lat="43.2349117" lon="13.1856583"><ele>234.0</ele><time>2026-04-26T07:30:55.231Z</time></trkpt><trkpt lat="43.2348433" lon="13.1856467"><ele>234.00000000000003</ele><time>2026-04-26T07:30:56.232Z</time></trkpt><trkpt lat="43.2347783" lon="13.1856333"><ele>234.0</ele><time>2026-04-26T07:30:57.232Z</time></trkpt><trkpt lat="43.2347117" lon="13.185625"><ele>234.0</ele><time>2026-04-26T07:30:58.231Z</time></trkpt><trkpt lat="43.234645" lon="13.1856133"><ele>234.00000000000003</ele><time>2026-04-26T07:30:59.236Z</time></trkpt><trkpt lat="43.234545" lon="13.1855783"><ele>234.0</ele><time>2026-04-26T07:31:01.231Z</time></trkpt><trkpt lat="43.2344817" lon="13.18554"><ele>234.0</ele><time>2026-04-26T07:31:03.235Z</time></trkpt><trkpt lat="43.2344167" lon="13.1854533"><ele>234.0</ele><time>2026-04-26T07:31:07.232Z</time></trkpt><trkpt lat="43.2343983" lon="13.1853433"><ele>233.99999999999997</ele><time>2026-04-26T07:31:08.23Z</time></trkpt><trkpt lat="43.2343833" lon="13.185215"><ele>233.99999999999997</ele><time>2026-04-26T07:31:09.229Z</time></trkpt><trkpt lat="43.2343617" lon="13.185085"><ele>234.0</ele><time>2026-04-26T07:31:10.233Z</time></trkpt><trkpt lat="43.23434" lon="13.184955"><ele>234.0</ele><time>2026-04-26T07:31:11.236Z</time></trkpt><trkpt lat="43.2343183" lon="13.1848233"><ele>234.0</ele><time>2026-04-26T07:31:12.231Z</time></trkpt><trkpt lat="43.234305" lon="13.184685"><ele>234.0</ele><time>2026-04-26T07:31:13.233Z</time></trkpt><trkpt lat="43.2343" lon="13.1845383"><ele>234.0</ele><time>2026-04-26T07:31:14.232Z</time></trkpt><trkpt lat="43.2343033" lon="13.1843783"><ele>234.0</ele><time>2026-04-26T07:31:15.233Z</time></trkpt><trkpt lat="43.2343133" lon="13.184205"><ele>234.0</ele><time>2026-04-26T07:31:16.236Z</time></trkpt><trkpt lat="43.234325" lon="13.1840267"><ele>234.0</ele><time>2026-04-26T07:31:17.23Z</time></trkpt><trkpt lat="43.2343383" lon="13.18384"><ele>234.0</ele><time>2026-04-26T07:31:18.231Z</time></trkpt><trkpt lat="43.2343517" lon="13.1836417"><ele>234.0</ele><time>2026-04-26T07:31:19.228Z</time></trkpt><trkpt lat="43.2343583" lon="13.183435"><ele>235.33333333333331</ele><time>2026-04-26T07:31:20.233Z</time></trkpt><trkpt lat="43.2343517" lon="13.183225"><ele>236.66666666666666</ele><time>2026-04-26T07:31:21.234Z</time></trkpt><trkpt lat="43.23433" lon="13.183005"><ele>238.0</ele><time>2026-04-26T07:31:22.231Z</time></trkpt><trkpt lat="43.2342833" lon="13.1827733"><ele>238.5</ele><time>2026-04-26T07:31:23.231Z</time></trkpt><trkpt lat="43.2342283" lon="13.1824933"><ele>239.0</ele><time>2026-04-26T07:31:24.237Z</time></trkpt><trkpt lat="43.2341633" lon="13.182155"><ele>239.5</ele><time>2026-04-26T07:31:25.235Z</time></trkpt><trkpt lat="43.2340967" lon="13.1817767"><ele>240.0</ele><time>2026-04-26T07:31:26.232Z</time></trkpt><trkpt lat="43.2340233" lon="13.18138"><ele>240.0</ele><time>2026-04-26T07:31:27.238Z</time></trkpt><trkpt lat="43.2339433" lon="13.1809733"><ele>240.0</ele><time>2026-04-26T07:31:28.236Z</time></trkpt><trkpt lat="43.2338583" lon="13.18056"><ele>240.0</ele><time>2026-04-26T07:31:29.232Z</time></trkpt><trkpt lat="43.2337767" lon="13.1801583"><ele>240.0</ele><time>2026-04-26T07:31:30.232Z</time></trkpt><trkpt lat="43.2337033" lon="13.1797783"><ele>241.0</ele><time>2026-04-26T07:31:31.234Z</time></trkpt><trkpt lat="43.23365" lon="13.1794083"><ele>242.0</ele><time>2026-04-26T07:31:32.236Z</time></trkpt><trkpt lat="43.23362" lon="13.1790417"><ele>243.0</ele><time>2026-04-26T07:31:33.232Z</time></trkpt><trkpt lat="43.2336167" lon="13.178685"><ele>244.0</ele><time>2026-04-26T07:31:34.232Z</time></trkpt><trkpt lat="43.2336283" lon="13.1783433"><ele>244.5</ele><time>2026-04-26T07:31:35.235Z</time></trkpt><trkpt lat="43.233655" lon="13.178005"><ele>245.0</ele><time>2026-04-26T07:31:36.233Z</time></trkpt><trkpt lat="43.2336783" lon="13.17767"><ele>245.5</ele><time>2026-04-26T07:31:37.233Z</time></trkpt><trkpt lat="43.2336917" lon="13.177345"><ele>246.0</ele><time>2026-04-26T07:31:38.235Z</time></trkpt><trkpt lat="43.233695" lon="13.1770217"><ele>246.0</ele><time>2026-04-26T07:31:39.237Z</time></trkpt><trkpt lat="43.2336983" lon="13.1766983"><ele>246.0</ele><time>2026-04-26T07:31:40.236Z</time></trkpt><trkpt lat="43.2337017" lon="13.17637"><ele>248.0</ele><time>2026-04-26T07:31:41.235Z</time></trkpt><trkpt lat="43.2337" lon="13.1760367"><ele>250.0</ele><time>2026-04-26T07:31:42.233Z</time></trkpt><trkpt lat="43.2336983" lon="13.1757067"><ele>250.0</ele><time>2026-04-26T07:31:43.232Z</time></trkpt><trkpt lat="43.2337" lon="13.1753733"><ele>250.0</ele><time>2026-04-26T07:31:44.231Z</time></trkpt><trkpt lat="43.2337033" lon="13.1750367"><ele>250.0</ele><time>2026-04-26T07:31:45.236Z</time></trkpt><trkpt lat="43.233705" lon="13.1746933"><ele>250.0</ele><time>2026-04-26T07:31:46.233Z</time></trkpt><trkpt lat="43.2337033" lon="13.1743433"><ele>249.0</ele><time>2026-04-26T07:31:47.233Z</time></trkpt><trkpt lat="43.233695" lon="13.1739917"><ele>248.0</ele><time>2026-04-26T07:31:48.234Z</time></trkpt><trkpt lat="43.2336767" lon="13.1736383"><ele>248.0</ele><time>2026-04-26T07:31:49.236Z</time></trkpt><trkpt lat="43.2336433" lon="13.1732883"><ele>248.0</ele><time>2026-04-26T07:31:50.235Z</time></trkpt><trkpt lat="43.2335867" lon="13.172935"><ele>250.5</ele><time>2026-04-26T07:31:51.234Z</time></trkpt><trkpt lat="43.2335217" lon="13.1725883"><ele>253.0</ele><time>2026-04-26T07:31:52.235Z</time></trkpt><trkpt lat="43.23345" lon="13.172245"><ele>256.5</ele><time>2026-04-26T07:31:53.234Z</time></trkpt><trkpt lat="43.233375" lon="13.1719033"><ele>260.0</ele><time>2026-04-26T07:31:54.234Z</time></trkpt><trkpt lat="43.2333017" lon="13.17156"><ele>262.0</ele><time>2026-04-26T07:31:55.234Z</time></trkpt><trkpt lat="43.2332283" lon="13.171215"><ele>264.0</ele><time>2026-04-26T07:31:56.234Z</time></trkpt><trkpt lat="43.2331567" lon="13.17087"><ele>254.0</ele><time>2026-04-26T07:31:57.235Z</time></trkpt><trkpt lat="43.2330833" lon="13.1705283"><ele>244.0</ele><time>2026-04-26T07:31:58.234Z</time></trkpt><trkpt lat="43.2330133" lon="13.1701933"><ele>244.0</ele><time>2026-04-26T07:31:59.232Z</time></trkpt><trkpt lat="43.232945" lon="13.1698717"><ele>244.0</ele><time>2026-04-26T07:32:00.235Z</time></trkpt><trkpt lat="43.2328783" lon="13.1695533"><ele>246.0</ele><time>2026-04-26T07:32:01.232Z</time></trkpt><trkpt lat="43.2328133" lon="13.1692333"><ele>248.0</ele><time>2026-04-26T07:32:02.233Z</time></trkpt><trkpt lat="43.2327467" lon="13.168915"><ele>248.0</ele><time>2026-04-26T07:32:03.241Z</time></trkpt><trkpt lat="43.2326833" lon="13.1685967"><ele>248.0</ele><time>2026-04-26T07:32:04.235Z</time></trkpt><trkpt lat="43.232615" lon="13.16828"><ele>247.5</ele><time>2026-04-26T07:32:05.234Z</time></trkpt><trkpt lat="43.2325383" lon="13.1679667"><ele>247.0</ele><time>2026-04-26T07:32:06.234Z</time></trkpt><trkpt lat="43.2324467" lon="13.1676617"><ele>247.0</ele><time>2026-04-26T07:32:07.235Z</time></trkpt><trkpt lat="43.2323383" lon="13.167365"><ele>247.0</ele><time>2026-04-26T07:32:08.232Z</time></trkpt><trkpt lat="43.23221" lon="13.1670733"><ele>244.5</ele><time>2026-04-26T07:32:09.233Z</time></trkpt><trkpt lat="43.2320717" lon="13.16678"><ele>242.0</ele><time>2026-04-26T07:32:10.232Z</time></trkpt><trkpt lat="43.2319233" lon="13.1664717"><ele>247.0</ele><time>2026-04-26T07:32:11.231Z</time></trkpt><trkpt lat="43.23177" lon="13.1661517"><ele>252.0</ele><time>2026-04-26T07:32:12.23Z</time></trkpt><trkpt lat="43.2316167" lon="13.1658367"><ele>251.0</ele><time>2026-04-26T07:32:13.232Z</time></trkpt><trkpt lat="43.2314783" lon="13.16554"><ele>250.0</ele><time>2026-04-26T07:32:14.232Z</time></trkpt><trkpt lat="43.2313483" lon="13.16525"><ele>250.0</ele><time>2026-04-26T07:32:15.233Z</time></trkpt><trkpt lat="43.231235" lon="13.16496"><ele>250.0</ele><time>2026-04-26T07:32:16.234Z</time></trkpt><trkpt lat="43.23114" lon="13.16467"><ele>253.33333333333331</ele><time>2026-04-26T07:32:17.232Z</time></trkpt><trkpt lat="43.2310667" lon="13.16438"><ele>256.6666666666667</ele><time>2026-04-26T07:32:18.238Z</time></trkpt><trkpt lat="43.2310133" lon="13.164085"><ele>260.0</ele><time>2026-04-26T07:32:19.233Z</time></trkpt><trkpt lat="43.2309783" lon="13.163785"><ele>260.5</ele><time>2026-04-26T07:32:20.233Z</time></trkpt><trkpt lat="43.2309617" lon="13.163475"><ele>261.0</ele><time>2026-04-26T07:32:21.234Z</time></trkpt><trkpt lat="43.2309583" lon="13.1631533"><ele>261.0</ele><time>2026-04-26T07:32:22.235Z</time></trkpt><trkpt lat="43.2309617" lon="13.1628283"><ele>261.0</ele><time>2026-04-26T07:32:23.23Z</time></trkpt><trkpt lat="43.2309583" lon="13.1625"><ele>259.5</ele><time>2026-04-26T07:32:24.235Z</time></trkpt><trkpt lat="43.2309483" lon="13.1621783"><ele>258.0</ele><time>2026-04-26T07:32:25.234Z</time></trkpt><trkpt lat="43.230935" lon="13.1618667"><ele>258.0</ele><time>2026-04-26T07:32:26.233Z</time></trkpt><trkpt lat="43.23092" lon="13.1615617"><ele>258.0</ele><time>2026-04-26T07:32:27.234Z</time></trkpt><trkpt lat="43.2309033" lon="13.1612583"><ele>258.0</ele><time>2026-04-26T07:32:28.233Z</time></trkpt><trkpt lat="43.2308867" lon="13.1609533"><ele>258.0</ele><time>2026-04-26T07:32:29.234Z</time></trkpt><trkpt lat="43.23087" lon="13.1606517"><ele>258.0</ele><time>2026-04-26T07:32:30.232Z</time></trkpt><trkpt lat="43.230855" lon="13.1603617"><ele>258.0</ele><time>2026-04-26T07:32:31.235Z</time></trkpt><trkpt lat="43.2308417" lon="13.1600883"><ele>259.3333333333333</ele><time>2026-04-26T07:32:32.233Z</time></trkpt><trkpt lat="43.2308267" lon="13.1598267"><ele>260.66666666666663</ele><time>2026-04-26T07:32:33.236Z</time></trkpt><trkpt lat="43.2308133" lon="13.1595733"><ele>262.0</ele><time>2026-04-26T07:32:34.234Z</time></trkpt><trkpt lat="43.2308" lon="13.15932"><ele>262.0</ele><time>2026-04-26T07:32:35.239Z</time></trkpt><trkpt lat="43.2307817" lon="13.1590633"><ele>262.0</ele><time>2026-04-26T07:32:36.235Z</time></trkpt><trkpt lat="43.2307533" lon="13.1588067"><ele>262.0</ele><time>2026-04-26T07:32:37.232Z</time></trkpt><trkpt lat="43.2307133" lon="13.1585517"><ele>264.0</ele><time>2026-04-26T07:32:38.232Z</time></trkpt><trkpt lat="43.2306617" lon="13.1583067"><ele>266.0</ele><time>2026-04-26T07:32:39.235Z</time></trkpt><trkpt lat="43.2306017" lon="13.158065"><ele>268.0</ele><time>2026-04-26T07:32:40.235Z</time></trkpt><trkpt lat="43.2305283" lon="13.1578283"><ele>263.0</ele><time>2026-04-26T07:32:41.233Z</time></trkpt><trkpt lat="43.2304483" lon="13.1575983"><ele>258.0</ele><time>2026-04-26T07:32:42.233Z</time></trkpt><trkpt lat="43.2303633" lon="13.157375"><ele>253.0</ele><time>2026-04-26T07:32:43.237Z</time></trkpt><trkpt lat="43.2302767" lon="13.1571583"><ele>253.0</ele><time>2026-04-26T07:32:44.235Z</time></trkpt><trkpt lat="43.23019" lon="13.1569483"><ele>253.0</ele><time>2026-04-26T07:32:45.233Z</time></trkpt><trkpt lat="43.2301083" lon="13.1567433"><ele>253.0</ele><time>2026-04-26T07:32:46.235Z</time></trkpt><trkpt lat="43.23003" lon="13.1565567"><ele>254.25</ele><time>2026-04-26T07:32:47.233Z</time></trkpt><trkpt lat="43.2299533" lon="13.15639"><ele>255.5</ele><time>2026-04-26T07:32:48.233Z</time></trkpt><trkpt lat="43.2298833" lon="13.1562217"><ele>256.75</ele><time>2026-04-26T07:32:49.233Z</time></trkpt><trkpt lat="43.2298183" lon="13.1560567"><ele>258.0</ele><time>2026-04-26T07:32:50.235Z</time></trkpt><trkpt lat="43.2297533" lon="13.1559"><ele>254.25</ele><time>2026-04-26T07:32:51.234Z</time></trkpt><trkpt lat="43.2296917" lon="13.1557467"><ele>250.5</ele><time>2026-04-26T07:32:52.228Z</time></trkpt><trkpt lat="43.2296333" lon="13.1555933"><ele>246.75</ele><time>2026-04-26T07:32:53.237Z</time></trkpt><trkpt lat="43.2295683" lon="13.1554333"><ele>243.0</ele><time>2026-04-26T07:32:54.233Z</time></trkpt><trkpt lat="43.2295017" lon="13.1552783"><ele>243.0</ele><time>2026-04-26T07:32:55.235Z</time></trkpt><trkpt lat="43.2294383" lon="13.1551183"><ele>243.0</ele><time>2026-04-26T07:32:56.237Z</time></trkpt><trkpt lat="43.2293733" lon="13.1549633"><ele>243.0</ele><time>2026-04-26T07:32:57.236Z</time></trkpt><trkpt lat="43.22931" lon="13.1548033"><ele>243.0</ele><time>2026-04-26T07:32:58.234Z</time></trkpt><trkpt lat="43.2292467" lon="13.154645"><ele>245.5</ele><time>2026-04-26T07:32:59.24Z</time></trkpt><trkpt lat="43.2291833" lon="13.154485"><ele>248.0</ele><time>2026-04-26T07:33:00.228Z</time></trkpt><trkpt lat="43.229115" lon="13.1543267"><ele>250.5</ele><time>2026-04-26T07:33:01.234Z</time></trkpt><trkpt lat="43.2290483" lon="13.1541567"><ele>253.0</ele><time>2026-04-26T07:33:02.233Z</time></trkpt><trkpt lat="43.2289783" lon="13.1539817"><ele>250.33333333333331</ele><time>2026-04-26T07:33:03.232Z</time></trkpt><trkpt lat="43.228905" lon="13.1538017"><ele>247.66666666666669</ele><time>2026-04-26T07:33:04.233Z</time></trkpt><trkpt lat="43.2288283" lon="13.1536167"><ele>245.0</ele><time>2026-04-26T07:33:05.233Z</time></trkpt><trkpt lat="43.22875" lon="13.1534283"><ele>245.0</ele><time>2026-04-26T07:33:06.233Z</time></trkpt><trkpt lat="43.2286667" lon="13.15323"><ele>245.0</ele><time>2026-04-26T07:33:07.232Z</time></trkpt><trkpt lat="43.228585" lon="13.1530217"><ele>245.0</ele><time>2026-04-26T07:33:08.235Z</time></trkpt><trkpt lat="43.2285" lon="13.1528017"><ele>247.66666666666669</ele><time>2026-04-26T07:33:09.237Z</time></trkpt><trkpt lat="43.2284067" lon="13.1525683"><ele>250.33333333333331</ele><time>2026-04-26T07:33:10.233Z</time></trkpt><trkpt lat="43.2283083" lon="13.1523217"><ele>253.0</ele><time>2026-04-26T07:33:11.232Z</time></trkpt><trkpt lat="43.228205" lon="13.1520667"><ele>250.5</ele><time>2026-04-26T07:33:12.235Z</time></trkpt><trkpt lat="43.2281" lon="13.1518"><ele>248.0</ele><time>2026-04-26T07:33:13.234Z</time></trkpt><trkpt lat="43.2279867" lon="13.1515217"><ele>248.0</ele><time>2026-04-26T07:33:14.235Z</time></trkpt><trkpt lat="43.2278717" lon="13.1512367"><ele>248.0</ele><time>2026-04-26T07:33:15.235Z</time></trkpt><trkpt lat="43.2277567" lon="13.1509517"><ele>251.5</ele><time>2026-04-26T07:33:16.234Z</time></trkpt><trkpt lat="43.2276433" lon="13.1506617"><ele>255.0</ele><time>2026-04-26T07:33:17.236Z</time></trkpt><trkpt lat="43.22753" lon="13.1503717"><ele>255.0</ele><time>2026-04-26T07:33:18.233Z</time></trkpt><trkpt lat="43.2274233" lon="13.1500983"><ele>255.0</ele><time>2026-04-26T07:33:19.234Z</time></trkpt><trkpt lat="43.2273167" lon="13.1498217"><ele>253.0</ele><time>2026-04-26T07:33:20.235Z</time></trkpt><trkpt lat="43.227215" lon="13.1495367"><ele>251.0</ele><time>2026-04-26T07:33:21.23Z</time></trkpt><trkpt lat="43.2271283" lon="13.14924"><ele>250.5</ele><time>2026-04-26T07:33:22.228Z</time></trkpt><trkpt lat="43.2270583" lon="13.1489183"><ele>250.0</ele><time>2026-04-26T07:33:23.233Z</time></trkpt><trkpt lat="43.2270083" lon="13.1485917"><ele>250.0</ele><time>2026-04-26T07:33:24.234Z</time></trkpt><trkpt lat="43.2269783" lon="13.148275"><ele>250.0</ele><time>2026-04-26T07:33:25.233Z</time></trkpt><trkpt lat="43.2269717" lon="13.14796"><ele>250.0</ele><time>2026-04-26T07:33:26.232Z</time></trkpt><trkpt lat="43.2269967" lon="13.1476617"><ele>250.0</ele><time>2026-04-26T07:33:27.235Z</time></trkpt><trkpt lat="43.22704" lon="13.147385"><ele>250.0</ele><time>2026-04-26T07:33:28.233Z</time></trkpt><trkpt lat="43.2270967" lon="13.1471233"><ele>249.0</ele><time>2026-04-26T07:33:29.235Z</time></trkpt><trkpt lat="43.2271633" lon="13.1468633"><ele>248.0</ele><time>2026-04-26T07:33:30.234Z</time></trkpt><trkpt lat="43.2272367" lon="13.1466017"><ele>247.0</ele><time>2026-04-26T07:33:31.233Z</time></trkpt><trkpt lat="43.227315" lon="13.14634"><ele>250.33333333333331</ele><time>2026-04-26T07:33:32.233Z</time></trkpt><trkpt lat="43.2273917" lon="13.1460733"><ele>253.66666666666669</ele><time>2026-04-26T07:33:33.234Z</time></trkpt><trkpt lat="43.2274617" lon="13.1458017"><ele>257.0</ele><time>2026-04-26T07:33:34.234Z</time></trkpt><trkpt lat="43.2275167" lon="13.145515"><ele>258.0</ele><time>2026-04-26T07:33:35.231Z</time></trkpt><trkpt lat="43.2275483" lon="13.1452217"><ele>259.0</ele><time>2026-04-26T07:33:36.233Z</time></trkpt><trkpt lat="43.2275617" lon="13.1449"><ele>260.5</ele><time>2026-04-26T07:33:37.235Z</time></trkpt><trkpt lat="43.2275633" lon="13.14456"><ele>262.0</ele><time>2026-04-26T07:33:38.236Z</time></trkpt><trkpt lat="43.2275567" lon="13.144205"><ele>262.0</ele><time>2026-04-26T07:33:39.234Z</time></trkpt><trkpt lat="43.227545" lon="13.1438367"><ele>262.0</ele><time>2026-04-26T07:33:40.236Z</time></trkpt><trkpt lat="43.22754" lon="13.1434583"><ele>260.0</ele><time>2026-04-26T07:33:41.234Z</time></trkpt><trkpt lat="43.2275367" lon="13.1431033"><ele>258.0</ele><time>2026-04-26T07:33:42.233Z</time></trkpt><trkpt lat="43.2275383" lon="13.14277"><ele>258.0</ele><time>2026-04-26T07:33:43.233Z</time></trkpt><trkpt lat="43.2275467" lon="13.1424533"><ele>258.0</ele><time>2026-04-26T07:33:44.236Z</time></trkpt><trkpt lat="43.227535" lon="13.1421583"><ele>258.0</ele><time>2026-04-26T07:33:45.235Z</time></trkpt><trkpt lat="43.2275017" lon="13.14187"><ele>258.6666666666667</ele><time>2026-04-26T07:33:46.233Z</time></trkpt><trkpt lat="43.2274467" lon="13.141585"><ele>259.33333333333337</ele><time>2026-04-26T07:33:47.232Z</time></trkpt><trkpt lat="43.2273733" lon="13.1413067"><ele>260.0</ele><time>2026-04-26T07:33:48.234Z</time></trkpt><trkpt lat="43.2272733" lon="13.1410417"><ele>262.5</ele><time>2026-04-26T07:33:49.233Z</time></trkpt><trkpt lat="43.2271433" lon="13.1407883"><ele>265.0</ele><time>2026-04-26T07:33:50.234Z</time></trkpt><trkpt lat="43.226995" lon="13.1405283"><ele>265.0</ele><time>2026-04-26T07:33:51.234Z</time></trkpt><trkpt lat="43.2268467" lon="13.14026"><ele>265.0</ele><time>2026-04-26T07:33:52.233Z</time></trkpt><trkpt lat="43.2267" lon="13.139995"><ele>261.0</ele><time>2026-04-26T07:33:53.231Z</time></trkpt><trkpt lat="43.226545" lon="13.1397417"><ele>257.0</ele><time>2026-04-26T07:33:54.232Z</time></trkpt><trkpt lat="43.2263867" lon="13.139505"><ele>257.0</ele><time>2026-04-26T07:33:55.236Z</time></trkpt><trkpt lat="43.2262167" lon="13.1392733"><ele>257.0</ele><time>2026-04-26T07:33:56.234Z</time></trkpt><trkpt lat="43.2260333" lon="13.13905"><ele>254.5</ele><time>2026-04-26T07:33:57.234Z</time></trkpt><trkpt lat="43.2258367" lon="13.1388267"><ele>252.0</ele><time>2026-04-26T07:33:58.236Z</time></trkpt><trkpt lat="43.22563" lon="13.1386167"><ele>252.0</ele><time>2026-04-26T07:33:59.232Z</time></trkpt><trkpt lat="43.22543" lon="13.1384017"><ele>252.0</ele><time>2026-04-26T07:34:00.23Z</time></trkpt><trkpt lat="43.2252333" lon="13.1381883"><ele>257.0</ele><time>2026-04-26T07:34:01.235Z</time></trkpt><trkpt lat="43.2250233" lon="13.13796"><ele>262.0</ele><time>2026-04-26T07:34:02.232Z</time></trkpt><trkpt lat="43.2248217" lon="13.1377283"><ele>261.5</ele><time>2026-04-26T07:34:03.234Z</time></trkpt><trkpt lat="43.2246267" lon="13.1374983"><ele>261.0</ele><time>2026-04-26T07:34:04.233Z</time></trkpt><trkpt lat="43.22445" lon="13.137285"><ele>261.0</ele><time>2026-04-26T07:34:05.234Z</time></trkpt><trkpt lat="43.22429" lon="13.1370767"><ele>261.0</ele><time>2026-04-26T07:34:06.232Z</time></trkpt><trkpt lat="43.2241383" lon="13.1368783"><ele>261.0</ele><time>2026-04-26T07:34:07.235Z</time></trkpt><trkpt lat="43.223995" lon="13.1366867"><ele>259.6666666666667</ele><time>2026-04-26T07:34:08.235Z</time></trkpt><trkpt lat="43.2238633" lon="13.1365"><ele>258.33333333333337</ele><time>2026-04-26T07:34:09.234Z</time></trkpt><trkpt lat="43.22374" lon="13.1363"><ele>257.0</ele><time>2026-04-26T07:34:10.235Z</time></trkpt><trkpt lat="43.2236317" lon="13.13608"><ele>257.0</ele><time>2026-04-26T07:34:11.231Z</time></trkpt><trkpt lat="43.2235367" lon="13.135835"><ele>257.0</ele><time>2026-04-26T07:34:12.235Z</time></trkpt><trkpt lat="43.2234517" lon="13.135565"><ele>257.0</ele><time>2026-04-26T07:34:13.233Z</time></trkpt><trkpt lat="43.22338" lon="13.135285"><ele>258.6666666666667</ele><time>2026-04-26T07:34:14.237Z</time></trkpt><trkpt lat="43.2233167" lon="13.1350017"><ele>260.3333333333333</ele><time>2026-04-26T07:34:15.232Z</time></trkpt><trkpt lat="43.22326" lon="13.1347033"><ele>262.0</ele><time>2026-04-26T07:34:16.235Z</time></trkpt><trkpt lat="43.2232083" lon="13.134395"><ele>263.66666666666663</ele><time>2026-04-26T07:34:17.234Z</time></trkpt><trkpt lat="43.2231617" lon="13.134095"><ele>265.3333333333333</ele><time>2026-04-26T07:34:18.238Z</time></trkpt><trkpt lat="43.2231217" lon="13.1337983"><ele>267.0</ele><time>2026-04-26T07:34:19.234Z</time></trkpt><trkpt lat="43.2230967" lon="13.1335067"><ele>263.0</ele><time>2026-04-26T07:34:20.232Z</time></trkpt><trkpt lat="43.223095" lon="13.1332133"><ele>259.0</ele><time>2026-04-26T07:34:21.235Z</time></trkpt><trkpt lat="43.2231083" lon="13.1329133"><ele>255.0</ele><time>2026-04-26T07:34:22.235Z</time></trkpt><trkpt lat="43.2231233" lon="13.1326067"><ele>260.0</ele><time>2026-04-26T07:34:23.235Z</time></trkpt><trkpt lat="43.2231583" lon="13.1322983"><ele>265.0</ele><time>2026-04-26T07:34:24.234Z</time></trkpt><trkpt lat="43.2232067" lon="13.1319917"><ele>265.0</ele><time>2026-04-26T07:34:25.233Z</time></trkpt><trkpt lat="43.223275" lon="13.1316917"><ele>265.0</ele><time>2026-04-26T07:34:26.234Z</time></trkpt><trkpt lat="43.2233617" lon="13.1314117"><ele>263.3333333333333</ele><time>2026-04-26T07:34:27.235Z</time></trkpt><trkpt lat="43.223445" lon="13.1311417"><ele>261.6666666666667</ele><time>2026-04-26T07:34:28.234Z</time></trkpt><trkpt lat="43.2235283" lon="13.1308683"><ele>260.0</ele><time>2026-04-26T07:34:29.231Z</time></trkpt><trkpt lat="43.223615" lon="13.1305883"><ele>256.5</ele><time>2026-04-26T07:34:30.235Z</time></trkpt><trkpt lat="43.2237083" lon="13.1302983"><ele>253.0</ele><time>2026-04-26T07:34:31.233Z</time></trkpt><trkpt lat="43.2238017" lon="13.1300067"><ele>252.0</ele><time>2026-04-26T07:34:32.235Z</time></trkpt><trkpt lat="43.2238917" lon="13.1297167"><ele>251.0</ele><time>2026-04-26T07:34:33.234Z</time></trkpt><trkpt lat="43.2239717" lon="13.12942"><ele>263.5</ele><time>2026-04-26T07:34:34.231Z</time></trkpt><trkpt lat="43.2240333" lon="13.1291167"><ele>276.0</ele><time>2026-04-26T07:34:35.23Z</time></trkpt><trkpt lat="43.2240767" lon="13.128795"><ele>276.0</ele><time>2026-04-26T07:34:36.232Z</time></trkpt><trkpt lat="43.2240983" lon="13.1284617"><ele>276.0</ele><time>2026-04-26T07:34:37.233Z</time></trkpt><trkpt lat="43.2240967" lon="13.1281017"><ele>277.0</ele><time>2026-04-26T07:34:38.231Z</time></trkpt><trkpt lat="43.2240717" lon="13.12771"><ele>278.0</ele><time>2026-04-26T07:34:39.235Z</time></trkpt><trkpt lat="43.22403" lon="13.1273183"><ele>280.5</ele><time>2026-04-26T07:34:40.233Z</time></trkpt><trkpt lat="43.2239833" lon="13.1269317"><ele>283.0</ele><time>2026-04-26T07:34:41.231Z</time></trkpt><trkpt lat="43.2239383" lon="13.12655"><ele>269.5</ele><time>2026-04-26T07:34:42.232Z</time></trkpt><trkpt lat="43.2238967" lon="13.1261667"><ele>256.0</ele><time>2026-04-26T07:34:43.231Z</time></trkpt><trkpt lat="43.223855" lon="13.125785"><ele>255.0</ele><time>2026-04-26T07:34:44.236Z</time></trkpt><trkpt lat="43.2238317" lon="13.1254083"><ele>254.0</ele><time>2026-04-26T07:34:45.236Z</time></trkpt><trkpt lat="43.2238217" lon="13.1250433"><ele>254.5</ele><time>2026-04-26T07:34:46.235Z</time></trkpt><trkpt lat="43.223825" lon="13.1246783"><ele>255.0</ele><time>2026-04-26T07:34:47.238Z</time></trkpt><trkpt lat="43.2238383" lon="13.1243067"><ele>255.5</ele><time>2026-04-26T07:34:48.236Z</time></trkpt><trkpt lat="43.2238633" lon="13.1239283"><ele>256.0</ele><time>2026-04-26T07:34:49.232Z</time></trkpt><trkpt lat="43.2238967" lon="13.1235533"><ele>256.5</ele><time>2026-04-26T07:34:50.235Z</time></trkpt><trkpt lat="43.22393" lon="13.1231933"><ele>257.0</ele><time>2026-04-26T07:34:51.232Z</time></trkpt><trkpt lat="43.2239667" lon="13.1228483"><ele>267.5</ele><time>2026-04-26T07:34:52.231Z</time></trkpt><trkpt lat="43.2240017" lon="13.1225033"><ele>278.0</ele><time>2026-04-26T07:34:53.233Z</time></trkpt><trkpt lat="43.2240267" lon="13.1221567"><ele>278.0</ele><time>2026-04-26T07:34:54.235Z</time></trkpt><trkpt lat="43.224035" lon="13.12181"><ele>278.0</ele><time>2026-04-26T07:34:55.232Z</time></trkpt><trkpt lat="43.22403" lon="13.1214567"><ele>277.5</ele><time>2026-04-26T07:34:56.232Z</time></trkpt><trkpt lat="43.224025" lon="13.1210883"><ele>277.0</ele><time>2026-04-26T07:34:57.234Z</time></trkpt><trkpt lat="43.2240283" lon="13.120725"><ele>275.5</ele><time>2026-04-26T07:34:58.232Z</time></trkpt><trkpt lat="43.2240433" lon="13.1203817"><ele>274.0</ele><time>2026-04-26T07:34:59.233Z</time></trkpt><trkpt lat="43.224065" lon="13.120055"><ele>272.5</ele><time>2026-04-26T07:35:00.233Z</time></trkpt><trkpt lat="43.2240967" lon="13.1197367"><ele>271.0</ele><time>2026-04-26T07:35:01.233Z</time></trkpt><trkpt lat="43.2241317" lon="13.1194167"><ele>271.0</ele><time>2026-04-26T07:35:02.233Z</time></trkpt><trkpt lat="43.2241683" lon="13.1190867"><ele>271.0</ele><time>2026-04-26T07:35:03.235Z</time></trkpt><trkpt lat="43.2242067" lon="13.118745"><ele>268.5</ele><time>2026-04-26T07:35:04.233Z</time></trkpt><trkpt lat="43.2242433" lon="13.1184017"><ele>266.0</ele><time>2026-04-26T07:35:05.233Z</time></trkpt><trkpt lat="43.2242767" lon="13.11807"><ele>264.5</ele><time>2026-04-26T07:35:06.233Z</time></trkpt><trkpt lat="43.2243083" lon="13.1177567"><ele>263.0</ele><time>2026-04-26T07:35:07.232Z</time></trkpt><trkpt lat="43.2243417" lon="13.1174533"><ele>262.6666666666667</ele><time>2026-04-26T07:35:08.234Z</time></trkpt><trkpt lat="43.2243783" lon="13.1171517"><ele>262.3333333333333</ele><time>2026-04-26T07:35:09.235Z</time></trkpt><trkpt lat="43.2244133" lon="13.1168683"><ele>262.0</ele><time>2026-04-26T07:35:10.233Z</time></trkpt><trkpt lat="43.2244433" lon="13.1165933"><ele>261.66666666666663</ele><time>2026-04-26T07:35:11.233Z</time></trkpt><trkpt lat="43.2244683" lon="13.116325"><ele>261.3333333333333</ele><time>2026-04-26T07:35:12.232Z</time></trkpt><trkpt lat="43.2244833" lon="13.1160517"><ele>261.0</ele><time>2026-04-26T07:35:13.232Z</time></trkpt><trkpt lat="43.2244783" lon="13.1157717"><ele>262.6666666666667</ele><time>2026-04-26T07:35:14.235Z</time></trkpt><trkpt lat="43.2244583" lon="13.1155017"><ele>264.33333333333337</ele><time>2026-04-26T07:35:15.235Z</time></trkpt><trkpt lat="43.2244217" lon="13.11523"><ele>266.0</ele><time>2026-04-26T07:35:16.233Z</time></trkpt><trkpt lat="43.2243667" lon="13.1149483"><ele>271.5</ele><time>2026-04-26T07:35:17.234Z</time></trkpt><trkpt lat="43.22428" lon="13.1146467"><ele>277.0</ele><time>2026-04-26T07:35:18.233Z</time></trkpt><trkpt lat="43.2241617" lon="13.1143317"><ele>270.5</ele><time>2026-04-26T07:35:19.233Z</time></trkpt><trkpt lat="43.2240417" lon="13.1139967"><ele>264.0</ele><time>2026-04-26T07:35:20.233Z</time></trkpt><trkpt lat="43.2239283" lon="13.1136417"><ele>264.0</ele><time>2026-04-26T07:35:21.236Z</time></trkpt><trkpt lat="43.223815" lon="13.113265"><ele>264.0</ele><time>2026-04-26T07:35:22.233Z</time></trkpt><trkpt lat="43.223705" lon="13.1128633"><ele>264.0</ele><time>2026-04-26T07:35:23.232Z</time></trkpt><trkpt lat="43.223605" lon="13.1124433"><ele>264.0</ele><time>2026-04-26T07:35:24.234Z</time></trkpt><trkpt lat="43.2235083" lon="13.112005"><ele>268.0</ele><time>2026-04-26T07:35:25.233Z</time></trkpt><trkpt lat="43.223405" lon="13.1115617"><ele>272.0</ele><time>2026-04-26T07:35:26.235Z</time></trkpt><trkpt lat="43.2233067" lon="13.1111333"><ele>275.5</ele><time>2026-04-26T07:35:27.233Z</time></trkpt><trkpt lat="43.2232117" lon="13.1107217"><ele>279.0</ele><time>2026-04-26T07:35:28.234Z</time></trkpt><trkpt lat="43.22312" lon="13.1103167"><ele>270.0</ele><time>2026-04-26T07:35:29.237Z</time></trkpt><trkpt lat="43.2230317" lon="13.1099083"><ele>261.0</ele><time>2026-04-26T07:35:30.236Z</time></trkpt><trkpt lat="43.2229583" lon="13.1095"><ele>261.0</ele><time>2026-04-26T07:35:31.234Z</time></trkpt><trkpt lat="43.2228933" lon="13.10908"><ele>261.0</ele><time>2026-04-26T07:35:32.235Z</time></trkpt><trkpt lat="43.2228367" lon="13.1086667"><ele>263.0</ele><time>2026-04-26T07:35:33.233Z</time></trkpt><trkpt lat="43.22279" lon="13.10826"><ele>265.0</ele><time>2026-04-26T07:35:34.233Z</time></trkpt><trkpt lat="43.2227517" lon="13.1078533"><ele>266.0</ele><time>2026-04-26T07:35:35.236Z</time></trkpt><trkpt lat="43.2227283" lon="13.10744"><ele>267.0</ele><time>2026-04-26T07:35:36.235Z</time></trkpt><trkpt lat="43.2227133" lon="13.1070233"><ele>269.0</ele><time>2026-04-26T07:35:37.235Z</time></trkpt><trkpt lat="43.22271" lon="13.1066017"><ele>271.0</ele><time>2026-04-26T07:35:38.235Z</time></trkpt><trkpt lat="43.2227117" lon="13.106185"><ele>271.0</ele><time>2026-04-26T07:35:39.235Z</time></trkpt><trkpt lat="43.222715" lon="13.1057717"><ele>271.0</ele><time>2026-04-26T07:35:40.231Z</time></trkpt><trkpt lat="43.2227183" lon="13.1053583"><ele>271.0</ele><time>2026-04-26T07:35:41.233Z</time></trkpt><trkpt lat="43.2227267" lon="13.1049467"><ele>271.0</ele><time>2026-04-26T07:35:42.234Z</time></trkpt><trkpt lat="43.2227367" lon="13.10455"><ele>270.5</ele><time>2026-04-26T07:35:43.234Z</time></trkpt><trkpt lat="43.2227533" lon="13.1041767"><ele>270.0</ele><time>2026-04-26T07:35:44.234Z</time></trkpt><trkpt lat="43.2227783" lon="13.1038183"><ele>269.0</ele><time>2026-04-26T07:35:45.233Z</time></trkpt><trkpt lat="43.2228117" lon="13.103475"><ele>268.0</ele><time>2026-04-26T07:35:46.239Z</time></trkpt><trkpt lat="43.2228517" lon="13.1031467"><ele>268.0</ele><time>2026-04-26T07:35:47.231Z</time></trkpt><trkpt lat="43.2228783" lon="13.1028317"><ele>268.0</ele><time>2026-04-26T07:35:48.235Z</time></trkpt><trkpt lat="43.2228817" lon="13.1025283"><ele>271.3333333333333</ele><time>2026-04-26T07:35:49.236Z</time></trkpt><trkpt lat="43.222855" lon="13.1022333"><ele>274.6666666666667</ele><time>2026-04-26T07:35:50.24Z</time></trkpt><trkpt lat="43.2227933" lon="13.1019533"><ele>278.0</ele><time>2026-04-26T07:35:51.235Z</time></trkpt><trkpt lat="43.22269" lon="13.101685"><ele>278.6666666666667</ele><time>2026-04-26T07:35:52.234Z</time></trkpt><trkpt lat="43.2225583" lon="13.10144"><ele>279.3333333333333</ele><time>2026-04-26T07:35:53.23Z</time></trkpt><trkpt lat="43.2223983" lon="13.1012283"><ele>280.0</ele><time>2026-04-26T07:35:54.233Z</time></trkpt><trkpt lat="43.222215" lon="13.1010633"><ele>280.0</ele><time>2026-04-26T07:35:55.233Z</time></trkpt><trkpt lat="43.2220067" lon="13.1009467"><ele>280.0</ele><time>2026-04-26T07:35:56.235Z</time></trkpt><trkpt lat="43.2217983" lon="13.100865"><ele>280.0</ele><time>2026-04-26T07:35:57.233Z</time></trkpt><trkpt lat="43.2216067" lon="13.1008033"><ele>278.3333333333333</ele><time>2026-04-26T07:35:58.235Z</time></trkpt><trkpt lat="43.2214283" lon="13.100745"><ele>276.6666666666667</ele><time>2026-04-26T07:35:59.234Z</time></trkpt><trkpt lat="43.2212583" lon="13.10068"><ele>275.0</ele><time>2026-04-26T07:36:00.236Z</time></trkpt><trkpt lat="43.2211033" lon="13.1005967"><ele>275.0</ele><time>2026-04-26T07:36:01.233Z</time></trkpt><trkpt lat="43.220975" lon="13.1004817"><ele>275.0</ele><time>2026-04-26T07:36:02.234Z</time></trkpt><trkpt lat="43.2208717" lon="13.1003267"><ele>275.0</ele><time>2026-04-26T07:36:03.236Z</time></trkpt><trkpt lat="43.2207983" lon="13.1001267"><ele>275.6666666666667</ele><time>2026-04-26T07:36:04.232Z</time></trkpt><trkpt lat="43.2207483" lon="13.0998983"><ele>276.3333333333333</ele><time>2026-04-26T07:36:05.235Z</time></trkpt><trkpt lat="43.2207017" lon="13.0996517"><ele>277.0</ele><time>2026-04-26T07:36:06.231Z</time></trkpt><trkpt lat="43.2206483" lon="13.0993933"><ele>275.3333333333333</ele><time>2026-04-26T07:36:07.237Z</time></trkpt><trkpt lat="43.2205917" lon="13.0991167"><ele>273.6666666666667</ele><time>2026-04-26T07:36:08.233Z</time></trkpt><trkpt lat="43.2205517" lon="13.0988217"><ele>272.0</ele><time>2026-04-26T07:36:09.236Z</time></trkpt><trkpt lat="43.2205467" lon="13.0985067"><ele>270.5</ele><time>2026-04-26T07:36:10.235Z</time></trkpt><trkpt lat="43.2205667" lon="13.09816"><ele>269.0</ele><time>2026-04-26T07:36:11.236Z</time></trkpt><trkpt lat="43.22061" lon="13.097785"><ele>272.5</ele><time>2026-04-26T07:36:12.233Z</time></trkpt><trkpt lat="43.220675" lon="13.0973967"><ele>276.0</ele><time>2026-04-26T07:36:13.234Z</time></trkpt><trkpt lat="43.2207583" lon="13.0970083"><ele>276.0</ele><time>2026-04-26T07:36:14.233Z</time></trkpt><trkpt lat="43.2208417" lon="13.0966283"><ele>276.0</ele><time>2026-04-26T07:36:15.236Z</time></trkpt><trkpt lat="43.2209067" lon="13.0962683"><ele>276.0</ele><time>2026-04-26T07:36:16.232Z</time></trkpt><trkpt lat="43.2209583" lon="13.095925"><ele>276.0</ele><time>2026-04-26T07:36:17.232Z</time></trkpt><trkpt lat="43.22098" lon="13.0955867"><ele>276.0</ele><time>2026-04-26T07:36:18.235Z</time></trkpt><trkpt lat="43.2209733" lon="13.0952267"><ele>276.0</ele><time>2026-04-26T07:36:19.236Z</time></trkpt><trkpt lat="43.2209417" lon="13.094845"><ele>276.0</ele><time>2026-04-26T07:36:20.236Z</time></trkpt><trkpt lat="43.2209017" lon="13.0944583"><ele>276.0</ele><time>2026-04-26T07:36:21.235Z</time></trkpt><trkpt lat="43.2208667" lon="13.0940617"><ele>277.0</ele><time>2026-04-26T07:36:22.234Z</time></trkpt><trkpt lat="43.2208417" lon="13.0936533"><ele>278.0</ele><time>2026-04-26T07:36:23.235Z</time></trkpt><trkpt lat="43.2208217" lon="13.0932367"><ele>279.0</ele><time>2026-04-26T07:36:24.233Z</time></trkpt><trkpt lat="43.2207983" lon="13.0928217"><ele>280.0</ele><time>2026-04-26T07:36:25.234Z</time></trkpt><trkpt lat="43.220755" lon="13.0924283"><ele>283.5</ele><time>2026-04-26T07:36:26.234Z</time></trkpt><trkpt lat="43.22069" lon="13.09206"><ele>287.0</ele><time>2026-04-26T07:36:27.232Z</time></trkpt><trkpt lat="43.22062" lon="13.0917167"><ele>280.0</ele><time>2026-04-26T07:36:28.234Z</time></trkpt><trkpt lat="43.2205483" lon="13.0914067"><ele>273.0</ele><time>2026-04-26T07:36:29.23Z</time></trkpt><trkpt lat="43.2204817" lon="13.091115"><ele>273.0</ele><time>2026-04-26T07:36:30.234Z</time></trkpt><trkpt lat="43.2204233" lon="13.09084"><ele>273.0</ele><time>2026-04-26T07:36:31.235Z</time></trkpt><trkpt lat="43.2203767" lon="13.090575"><ele>273.0</ele><time>2026-04-26T07:36:32.235Z</time></trkpt><trkpt lat="43.2203367" lon="13.0903167"><ele>273.3333333333333</ele><time>2026-04-26T07:36:33.238Z</time></trkpt><trkpt lat="43.2203067" lon="13.090065"><ele>273.66666666666663</ele><time>2026-04-26T07:36:34.231Z</time></trkpt><trkpt lat="43.2202883" lon="13.0898217"><ele>274.0</ele><time>2026-04-26T07:36:35.23Z</time></trkpt><trkpt lat="43.2202967" lon="13.0895917"><ele>274.0</ele><time>2026-04-26T07:36:36.234Z</time></trkpt><trkpt lat="43.2203283" lon="13.0893783"><ele>274.0</ele><time>2026-04-26T07:36:37.236Z</time></trkpt><trkpt lat="43.2203933" lon="13.08919"><ele>274.0</ele><time>2026-04-26T07:36:38.232Z</time></trkpt><trkpt lat="43.2204983" lon="13.0890217"><ele>274.3333333333333</ele><time>2026-04-26T07:36:39.234Z</time></trkpt><trkpt lat="43.2206317" lon="13.088865"><ele>274.6666666666667</ele><time>2026-04-26T07:36:40.233Z</time></trkpt><trkpt lat="43.220775" lon="13.08873"><ele>275.0</ele><time>2026-04-26T07:36:41.233Z</time></trkpt><trkpt lat="43.2209167" lon="13.0886017"><ele>274.6666666666667</ele><time>2026-04-26T07:36:42.232Z</time></trkpt><trkpt lat="43.2210433" lon="13.0884617"><ele>274.3333333333333</ele><time>2026-04-26T07:36:43.232Z</time></trkpt><trkpt lat="43.2211417" lon="13.0882867"><ele>274.0</ele><time>2026-04-26T07:36:44.236Z</time></trkpt><trkpt lat="43.2212117" lon="13.0880867"><ele>274.0</ele><time>2026-04-26T07:36:45.233Z</time></trkpt><trkpt lat="43.2212483" lon="13.0878517"><ele>274.0</ele><time>2026-04-26T07:36:46.233Z</time></trkpt><trkpt lat="43.2212533" lon="13.0875867"><ele>274.0</ele><time>2026-04-26T07:36:47.233Z</time></trkpt><trkpt lat="43.2212367" lon="13.0873233"><ele>273.66666666666663</ele><time>2026-04-26T07:36:48.232Z</time></trkpt><trkpt lat="43.2212117" lon="13.0870717"><ele>273.3333333333333</ele><time>2026-04-26T07:36:49.234Z</time></trkpt><trkpt lat="43.2211817" lon="13.0868283"><ele>273.0</ele><time>2026-04-26T07:36:50.236Z</time></trkpt><trkpt lat="43.2211533" lon="13.0865967"><ele>273.6666666666667</ele><time>2026-04-26T07:36:51.23Z</time></trkpt><trkpt lat="43.2211283" lon="13.08636"><ele>274.33333333333337</ele><time>2026-04-26T07:36:52.232Z</time></trkpt><trkpt lat="43.2211033" lon="13.0861183"><ele>275.0</ele><time>2026-04-26T07:36:53.232Z</time></trkpt><trkpt lat="43.22108" lon="13.0858783"><ele>275.0</ele><time>2026-04-26T07:36:54.235Z</time></trkpt><trkpt lat="43.221055" lon="13.0856433"><ele>275.0</ele><time>2026-04-26T07:36:55.232Z</time></trkpt><trkpt lat="43.2210317" lon="13.085415"><ele>275.0</ele><time>2026-04-26T07:36:56.235Z</time></trkpt><trkpt lat="43.2210067" lon="13.0851783"><ele>275.0</ele><time>2026-04-26T07:36:57.234Z</time></trkpt><trkpt lat="43.2209817" lon="13.084945"><ele>275.0</ele><time>2026-04-26T07:36:58.232Z</time></trkpt><trkpt lat="43.2209617" lon="13.0847117"><ele>275.0</ele><time>2026-04-26T07:36:59.232Z</time></trkpt><trkpt lat="43.2209383" lon="13.0844783"><ele>275.0</ele><time>2026-04-26T07:37:00.234Z</time></trkpt><trkpt lat="43.2209183" lon="13.0842417"><ele>275.0</ele><time>2026-04-26T07:37:01.231Z</time></trkpt><trkpt lat="43.2208967" lon="13.0840033"><ele>275.0</ele><time>2026-04-26T07:37:02.234Z</time></trkpt><trkpt lat="43.220875" lon="13.08377"><ele>275.0</ele><time>2026-04-26T07:37:03.233Z</time></trkpt><trkpt lat="43.22085" lon="13.0835317"><ele>275.0</ele><time>2026-04-26T07:37:04.232Z</time></trkpt><trkpt lat="43.2208233" lon="13.0833017"><ele>275.0</ele><time>2026-04-26T07:37:05.233Z</time></trkpt><trkpt lat="43.2208" lon="13.0830833"><ele>275.0</ele><time>2026-04-26T07:37:06.236Z</time></trkpt><trkpt lat="43.2207817" lon="13.0828617"><ele>275.0</ele><time>2026-04-26T07:37:07.236Z</time></trkpt><trkpt lat="43.2207633" lon="13.0826383"><ele>275.0</ele><time>2026-04-26T07:37:08.233Z</time></trkpt><trkpt lat="43.22074" lon="13.082405"><ele>274.0</ele><time>2026-04-26T07:37:09.235Z</time></trkpt><trkpt lat="43.2207117" lon="13.0821683"><ele>273.0</ele><time>2026-04-26T07:37:10.233Z</time></trkpt><trkpt lat="43.22068" lon="13.081935"><ele>272.0</ele><time>2026-04-26T07:37:11.235Z</time></trkpt><trkpt lat="43.2206467" lon="13.0817083"><ele>273.6666666666667</ele><time>2026-04-26T07:37:12.232Z</time></trkpt><trkpt lat="43.2206117" lon="13.0814783"><ele>275.3333333333333</ele><time>2026-04-26T07:37:13.234Z</time></trkpt><trkpt lat="43.220575" lon="13.0812417"><ele>277.0</ele><time>2026-04-26T07:37:14.235Z</time></trkpt><trkpt lat="43.220545" lon="13.081"><ele>278.3333333333333</ele><time>2026-04-26T07:37:15.234Z</time></trkpt><trkpt lat="43.22052" lon="13.080755"><ele>279.6666666666667</ele><time>2026-04-26T07:37:16.233Z</time></trkpt><trkpt lat="43.2205033" lon="13.080505"><ele>281.0</ele><time>2026-04-26T07:37:17.233Z</time></trkpt><trkpt lat="43.2204883" lon="13.08025"><ele>281.0</ele><time>2026-04-26T07:37:18.235Z</time></trkpt><trkpt lat="43.2204733" lon="13.0799967"><ele>281.0</ele><time>2026-04-26T07:37:19.235Z</time></trkpt><trkpt lat="43.2204517" lon="13.0797517"><ele>281.0</ele><time>2026-04-26T07:37:20.236Z</time></trkpt><trkpt lat="43.2204183" lon="13.0795183"><ele>282.0</ele><time>2026-04-26T07:37:21.237Z</time></trkpt><trkpt lat="43.2203733" lon="13.0792867"><ele>283.0</ele><time>2026-04-26T07:37:22.233Z</time></trkpt><trkpt lat="43.2203233" lon="13.0790583"><ele>284.0</ele><time>2026-04-26T07:37:23.233Z</time></trkpt><trkpt lat="43.220275" lon="13.078835"><ele>285.0</ele><time>2026-04-26T07:37:24.236Z</time></trkpt><trkpt lat="43.2202267" lon="13.07861"><ele>286.0</ele><time>2026-04-26T07:37:25.235Z</time></trkpt><trkpt lat="43.22018" lon="13.0783833"><ele>287.0</ele><time>2026-04-26T07:37:26.229Z</time></trkpt><trkpt lat="43.2201367" lon="13.0781567"><ele>288.0</ele><time>2026-04-26T07:37:27.235Z</time></trkpt><trkpt lat="43.2200967" lon="13.0779267"><ele>289.0</ele><time>2026-04-26T07:37:28.232Z</time></trkpt><trkpt lat="43.2200567" lon="13.077695"><ele>290.0</ele><time>2026-04-26T07:37:29.231Z</time></trkpt><trkpt lat="43.2200233" lon="13.0774583"><ele>290.33333333333337</ele><time>2026-04-26T07:37:30.234Z</time></trkpt><trkpt lat="43.219985" lon="13.0772117"><ele>290.6666666666667</ele><time>2026-04-26T07:37:31.233Z</time></trkpt><trkpt lat="43.21994" lon="13.0769583"><ele>291.0</ele><time>2026-04-26T07:37:32.239Z</time></trkpt><trkpt lat="43.21989" lon="13.0767"><ele>292.0</ele><time>2026-04-26T07:37:33.24Z</time></trkpt><trkpt lat="43.2198383" lon="13.0764433"><ele>293.0</ele><time>2026-04-26T07:37:34.233Z</time></trkpt><trkpt lat="43.2197817" lon="13.0761933"><ele>294.0</ele><time>2026-04-26T07:37:35.233Z</time></trkpt><trkpt lat="43.2197283" lon="13.0759467"><ele>291.6666666666667</ele><time>2026-04-26T07:37:36.233Z</time></trkpt><trkpt lat="43.219675" lon="13.0757"><ele>289.33333333333337</ele><time>2026-04-26T07:37:37.235Z</time></trkpt><trkpt lat="43.2196233" lon="13.075455"><ele>287.0</ele><time>2026-04-26T07:37:38.235Z</time></trkpt><trkpt lat="43.2195717" lon="13.0752083"><ele>287.0</ele><time>2026-04-26T07:37:39.234Z</time></trkpt><trkpt lat="43.2195217" lon="13.0749533"><ele>287.0</ele><time>2026-04-26T07:37:40.232Z</time></trkpt><trkpt lat="43.2194733" lon="13.0746867"><ele>287.0</ele><time>2026-04-26T07:37:41.232Z</time></trkpt><trkpt lat="43.2194183" lon="13.0744233"><ele>287.0</ele><time>2026-04-26T07:37:42.235Z</time></trkpt><trkpt lat="43.2193633" lon="13.0741617"><ele>287.0</ele><time>2026-04-26T07:37:43.233Z</time></trkpt><trkpt lat="43.21931" lon="13.0738983"><ele>287.0</ele><time>2026-04-26T07:37:44.235Z</time></trkpt><trkpt lat="43.219255" lon="13.0736333"><ele>287.6666666666667</ele><time>2026-04-26T07:37:45.236Z</time></trkpt><trkpt lat="43.2192067" lon="13.0733633"><ele>288.3333333333333</ele><time>2026-04-26T07:37:46.232Z</time></trkpt><trkpt lat="43.2191667" lon="13.0730867"><ele>289.0</ele><time>2026-04-26T07:37:47.233Z</time></trkpt><trkpt lat="43.2191417" lon="13.0728017"><ele>289.0</ele><time>2026-04-26T07:37:48.234Z</time></trkpt><trkpt lat="43.2191267" lon="13.0725067"><ele>289.0</ele><time>2026-04-26T07:37:49.232Z</time></trkpt><trkpt lat="43.21912" lon="13.072215"><ele>289.0</ele><time>2026-04-26T07:37:50.235Z</time></trkpt><trkpt lat="43.2191167" lon="13.071925"><ele>289.0</ele><time>2026-04-26T07:37:51.233Z</time></trkpt><trkpt lat="43.2191117" lon="13.071635"><ele>289.0</ele><time>2026-04-26T07:37:52.237Z</time></trkpt><trkpt lat="43.2191083" lon="13.07135"><ele>289.0</ele><time>2026-04-26T07:37:53.234Z</time></trkpt><trkpt lat="43.2191017" lon="13.0710767"><ele>289.0</ele><time>2026-04-26T07:37:54.234Z</time></trkpt><trkpt lat="43.2190983" lon="13.070815"><ele>289.0</ele><time>2026-04-26T07:37:55.234Z</time></trkpt><trkpt lat="43.219095" lon="13.07056"><ele>289.0</ele><time>2026-04-26T07:37:56.232Z</time></trkpt><trkpt lat="43.2190917" lon="13.0703133"><ele>289.3333333333333</ele><time>2026-04-26T07:37:57.236Z</time></trkpt><trkpt lat="43.21909" lon="13.07007"><ele>289.6666666666667</ele><time>2026-04-26T07:37:58.235Z</time></trkpt><trkpt lat="43.21909" lon="13.0698283"><ele>290.0</ele><time>2026-04-26T07:37:59.233Z</time></trkpt><trkpt lat="43.2190933" lon="13.0695883"><ele>290.0</ele><time>2026-04-26T07:38:00.233Z</time></trkpt><trkpt lat="43.2191033" lon="13.0693417"><ele>290.0</ele><time>2026-04-26T07:38:01.233Z</time></trkpt><trkpt lat="43.2191217" lon="13.0691"><ele>290.0</ele><time>2026-04-26T07:38:02.243Z</time></trkpt><trkpt lat="43.219145" lon="13.0688717"><ele>289.75</ele><time>2026-04-26T07:38:03.229Z</time></trkpt><trkpt lat="43.2191667" lon="13.0686617"><ele>289.5</ele><time>2026-04-26T07:38:04.231Z</time></trkpt><trkpt lat="43.21918" lon="13.0684667"><ele>289.25</ele><time>2026-04-26T07:38:05.236Z</time></trkpt><trkpt lat="43.2191833" lon="13.0682817"><ele>289.0</ele><time>2026-04-26T07:38:06.233Z</time></trkpt><trkpt lat="43.2191767" lon="13.068105"><ele>289.5</ele><time>2026-04-26T07:38:07.231Z</time></trkpt><trkpt lat="43.2191533" lon="13.067925"><ele>290.0</ele><time>2026-04-26T07:38:08.232Z</time></trkpt><trkpt lat="43.219115" lon="13.0677333"><ele>290.5</ele><time>2026-04-26T07:38:09.233Z</time></trkpt><trkpt lat="43.2190683" lon="13.0675333"><ele>291.0</ele><time>2026-04-26T07:38:10.233Z</time></trkpt><trkpt lat="43.2190233" lon="13.06734"><ele>290.25</ele><time>2026-04-26T07:38:11.233Z</time></trkpt><trkpt lat="43.218975" lon="13.0671583"><ele>289.5</ele><time>2026-04-26T07:38:12.235Z</time></trkpt><trkpt lat="43.2189317" lon="13.0669867"><ele>288.75</ele><time>2026-04-26T07:38:13.232Z</time></trkpt><trkpt lat="43.2188883" lon="13.0668167"><ele>288.0</ele><time>2026-04-26T07:38:14.232Z</time></trkpt><trkpt lat="43.21884" lon="13.0666417"><ele>289.3333333333333</ele><time>2026-04-26T07:38:15.233Z</time></trkpt><trkpt lat="43.218775" lon="13.0664583"><ele>290.66666666666663</ele><time>2026-04-26T07:38:16.23Z</time></trkpt><trkpt lat="43.2186817" lon="13.0662817"><ele>292.0</ele><time>2026-04-26T07:38:17.233Z</time></trkpt><trkpt lat="43.2185683" lon="13.0661117"><ele>292.0</ele><time>2026-04-26T07:38:18.23Z</time></trkpt><trkpt lat="43.21844" lon="13.0659433"><ele>292.0</ele><time>2026-04-26T07:38:19.233Z</time></trkpt><trkpt lat="43.2183017" lon="13.0657633"><ele>292.0</ele><time>2026-04-26T07:38:20.243Z</time></trkpt><trkpt lat="43.2181633" lon="13.06558"><ele>291.0</ele><time>2026-04-26T07:38:21.235Z</time></trkpt><trkpt lat="43.2180217" lon="13.0653867"><ele>290.0</ele><time>2026-04-26T07:38:22.235Z</time></trkpt><trkpt lat="43.2178933" lon="13.0651867"><ele>289.0</ele><time>2026-04-26T07:38:23.233Z</time></trkpt><trkpt lat="43.2177833" lon="13.0649733"><ele>289.66666666666663</ele><time>2026-04-26T07:38:24.235Z</time></trkpt><trkpt lat="43.217695" lon="13.0647433"><ele>290.3333333333333</ele><time>2026-04-26T07:38:25.234Z</time></trkpt><trkpt lat="43.2176217" lon="13.0645033"><ele>291.0</ele><time>2026-04-26T07:38:26.234Z</time></trkpt><trkpt lat="43.217555" lon="13.0642583"><ele>292.6666666666667</ele><time>2026-04-26T07:38:27.233Z</time></trkpt><trkpt lat="43.2174833" lon="13.0640117"><ele>294.33333333333337</ele><time>2026-04-26T07:38:28.235Z</time></trkpt><trkpt lat="43.2174067" lon="13.0637683"><ele>296.0</ele><time>2026-04-26T07:38:29.232Z</time></trkpt><trkpt lat="43.217315" lon="13.06353"><ele>295.0</ele><time>2026-04-26T07:38:30.233Z</time></trkpt><trkpt lat="43.2171983" lon="13.063305"><ele>294.0</ele><time>2026-04-26T07:38:31.234Z</time></trkpt><trkpt lat="43.2170617" lon="13.0630917"><ele>293.0</ele><time>2026-04-26T07:38:32.236Z</time></trkpt><trkpt lat="43.2169183" lon="13.0628867"><ele>293.0</ele><time>2026-04-26T07:38:33.233Z</time></trkpt><trkpt lat="43.2167767" lon="13.0626867"><ele>293.0</ele><time>2026-04-26T07:38:34.241Z</time></trkpt><trkpt lat="43.2166417" lon="13.0624983"><ele>293.0</ele><time>2026-04-26T07:38:35.232Z</time></trkpt><trkpt lat="43.216515" lon="13.062325"><ele>293.0</ele><time>2026-04-26T07:38:36.235Z</time></trkpt><trkpt lat="43.2163833" lon="13.0621767"><ele>293.0</ele><time>2026-04-26T07:38:37.233Z</time></trkpt><trkpt lat="43.2162467" lon="13.0620583"><ele>293.0</ele><time>2026-04-26T07:38:38.234Z</time></trkpt><trkpt lat="43.2160983" lon="13.0619617"><ele>293.0</ele><time>2026-04-26T07:38:39.233Z</time></trkpt><trkpt lat="43.2159367" lon="13.0618767"><ele>293.0</ele><time>2026-04-26T07:38:40.232Z</time></trkpt><trkpt lat="43.21576" lon="13.0617933"><ele>293.0</ele><time>2026-04-26T07:38:41.233Z</time></trkpt><trkpt lat="43.21558" lon="13.06171"><ele>293.33333333333337</ele><time>2026-04-26T07:38:42.234Z</time></trkpt><trkpt lat="43.2154083" lon="13.0615933"><ele>293.6666666666667</ele><time>2026-04-26T07:38:43.233Z</time></trkpt><trkpt lat="43.2152367" lon="13.0614333"><ele>294.0</ele><time>2026-04-26T07:38:44.232Z</time></trkpt><trkpt lat="43.2150733" lon="13.0612467"><ele>294.0</ele><time>2026-04-26T07:38:45.235Z</time></trkpt><trkpt lat="43.21492" lon="13.0610483"><ele>294.0</ele><time>2026-04-26T07:38:46.235Z</time></trkpt><trkpt lat="43.2147667" lon="13.06086"><ele>294.0</ele><time>2026-04-26T07:38:47.242Z</time></trkpt><trkpt lat="43.2146233" lon="13.060685"><ele>292.6666666666667</ele><time>2026-04-26T07:38:48.233Z</time></trkpt><trkpt lat="43.2144917" lon="13.0605233"><ele>291.33333333333337</ele><time>2026-04-26T07:38:49.233Z</time></trkpt><trkpt lat="43.2143667" lon="13.0603833"><ele>290.0</ele><time>2026-04-26T07:38:50.234Z</time></trkpt><trkpt lat="43.2142367" lon="13.0602583"><ele>290.0</ele><time>2026-04-26T07:38:51.234Z</time></trkpt><trkpt lat="43.2140983" lon="13.0601567"><ele>290.0</ele><time>2026-04-26T07:38:52.235Z</time></trkpt><trkpt lat="43.2139533" lon="13.0600833"><ele>290.0</ele><time>2026-04-26T07:38:53.231Z</time></trkpt><trkpt lat="43.2138017" lon="13.0600417"><ele>290.0</ele><time>2026-04-26T07:38:54.233Z</time></trkpt><trkpt lat="43.2136383" lon="13.0600267"><ele>290.0</ele><time>2026-04-26T07:38:55.233Z</time></trkpt><trkpt lat="43.213465" lon="13.0600283"><ele>290.0</ele><time>2026-04-26T07:38:56.233Z</time></trkpt><trkpt lat="43.21328" lon="13.06004"><ele>290.33333333333337</ele><time>2026-04-26T07:38:57.236Z</time></trkpt><trkpt lat="43.21309" lon="13.060055"><ele>290.6666666666667</ele><time>2026-04-26T07:38:58.232Z</time></trkpt><trkpt lat="43.2128917" lon="13.060075"><ele>291.0</ele><time>2026-04-26T07:38:59.232Z</time></trkpt><trkpt lat="43.2126967" lon="13.06009"><ele>291.0</ele><time>2026-04-26T07:39:00.234Z</time></trkpt><trkpt lat="43.21251" lon="13.060105"><ele>291.0</ele><time>2026-04-26T07:39:01.233Z</time></trkpt><trkpt lat="43.2123333" lon="13.0601183"><ele>291.0</ele><time>2026-04-26T07:39:02.232Z</time></trkpt><trkpt lat="43.2121617" lon="13.0601233"><ele>290.0</ele><time>2026-04-26T07:39:03.235Z</time></trkpt><trkpt lat="43.2119967" lon="13.0601133"><ele>289.0</ele><time>2026-04-26T07:39:04.239Z</time></trkpt><trkpt lat="43.211835" lon="13.06008"><ele>288.0</ele><time>2026-04-26T07:39:05.233Z</time></trkpt><trkpt lat="43.2116767" lon="13.06003"><ele>288.0</ele><time>2026-04-26T07:39:06.233Z</time></trkpt><trkpt lat="43.211525" lon="13.0599667"><ele>288.0</ele><time>2026-04-26T07:39:07.228Z</time></trkpt><trkpt lat="43.2113833" lon="13.0598983"><ele>288.0</ele><time>2026-04-26T07:39:08.231Z</time></trkpt><trkpt lat="43.2112517" lon="13.0598317"><ele>288.0</ele><time>2026-04-26T07:39:09.233Z</time></trkpt><trkpt lat="43.2111217" lon="13.0597917"><ele>290.0</ele><time>2026-04-26T07:39:10.23Z</time></trkpt><trkpt lat="43.2109833" lon="13.0597767"><ele>292.0</ele><time>2026-04-26T07:39:11.231Z</time></trkpt><trkpt lat="43.21084" lon="13.05978"><ele>294.0</ele><time>2026-04-26T07:39:12.229Z</time></trkpt><trkpt lat="43.2106933" lon="13.059785"><ele>296.0</ele><time>2026-04-26T07:39:13.233Z</time></trkpt><trkpt lat="43.210545" lon="13.0597883"><ele>296.0</ele><time>2026-04-26T07:39:14.23Z</time></trkpt><trkpt lat="43.2103967" lon="13.0597817"><ele>296.0</ele><time>2026-04-26T07:39:15.235Z</time></trkpt><trkpt lat="43.21026" lon="13.059755"><ele>296.0</ele><time>2026-04-26T07:39:16.231Z</time></trkpt><trkpt lat="43.2101333" lon="13.0597133"><ele>296.0</ele><time>2026-04-26T07:39:17.238Z</time></trkpt><trkpt lat="43.2100233" lon="13.0596533"><ele>296.0</ele><time>2026-04-26T07:39:18.231Z</time></trkpt><trkpt lat="43.2099283" lon="13.059585"><ele>296.0</ele><time>2026-04-26T07:39:19.233Z</time></trkpt><trkpt lat="43.20984" lon="13.05949"><ele>296.0</ele><time>2026-04-26T07:39:20.233Z</time></trkpt><trkpt lat="43.20974" lon="13.0593783"><ele>296.0</ele><time>2026-04-26T07:39:21.234Z</time></trkpt><trkpt lat="43.2096367" lon="13.059255"><ele>295.75</ele><time>2026-04-26T07:39:22.231Z</time></trkpt><trkpt lat="43.209535" lon="13.0591317"><ele>295.5</ele><time>2026-04-26T07:39:23.232Z</time></trkpt><trkpt lat="43.20944" lon="13.059015"><ele>295.25</ele><time>2026-04-26T07:39:24.234Z</time></trkpt><trkpt lat="43.209345" lon="13.0588983"><ele>295.0</ele><time>2026-04-26T07:39:25.231Z</time></trkpt><trkpt lat="43.209245" lon="13.058775"><ele>296.0</ele><time>2026-04-26T07:39:26.232Z</time></trkpt><trkpt lat="43.2091333" lon="13.0586417"><ele>297.0</ele><time>2026-04-26T07:39:27.233Z</time></trkpt><trkpt lat="43.2090233" lon="13.05851"><ele>298.0</ele><time>2026-04-26T07:39:28.231Z</time></trkpt><trkpt lat="43.20892" lon="13.0583767"><ele>299.0</ele><time>2026-04-26T07:39:29.234Z</time></trkpt><trkpt lat="43.2088217" lon="13.05825"><ele>301.75</ele><time>2026-04-26T07:39:30.232Z</time></trkpt><trkpt lat="43.2087217" lon="13.05813"><ele>304.5</ele><time>2026-04-26T07:39:31.232Z</time></trkpt><trkpt lat="43.20862" lon="13.058015"><ele>307.25</ele><time>2026-04-26T07:39:32.236Z</time></trkpt><trkpt lat="43.2085117" lon="13.0579033"><ele>310.0</ele><time>2026-04-26T07:39:33.234Z</time></trkpt><trkpt lat="43.2083933" lon="13.0578133"><ele>310.0</ele><time>2026-04-26T07:39:34.233Z</time></trkpt><trkpt lat="43.2082667" lon="13.05775"><ele>310.0</ele><time>2026-04-26T07:39:35.231Z</time></trkpt><trkpt lat="43.2081333" lon="13.0577"><ele>310.0</ele><time>2026-04-26T07:39:36.232Z</time></trkpt><trkpt lat="43.2080133" lon="13.05766"><ele>310.0</ele><time>2026-04-26T07:39:37.235Z</time></trkpt><trkpt lat="43.2079067" lon="13.0576167"><ele>310.0</ele><time>2026-04-26T07:39:38.234Z</time></trkpt><trkpt lat="43.2078117" lon="13.0575817"><ele>310.0</ele><time>2026-04-26T07:39:39.234Z</time></trkpt><trkpt lat="43.2077283" lon="13.057545"><ele>310.0</ele><time>2026-04-26T07:39:40.232Z</time></trkpt><trkpt lat="43.20765" lon="13.0574983"><ele>310.0</ele><time>2026-04-26T07:39:41.231Z</time></trkpt><trkpt lat="43.2075817" lon="13.0574367"><ele>310.0</ele><time>2026-04-26T07:39:42.234Z</time></trkpt><trkpt lat="43.207515" lon="13.0573833"><ele>310.0</ele><time>2026-04-26T07:39:43.231Z</time></trkpt><trkpt lat="43.2074467" lon="13.05734"><ele>310.0</ele><time>2026-04-26T07:39:44.232Z</time></trkpt><trkpt lat="43.2073717" lon="13.05732"><ele>310.0</ele><time>2026-04-26T07:39:45.234Z</time></trkpt><trkpt lat="43.2072817" lon="13.0572917"><ele>310.0</ele><time>2026-04-26T07:39:46.229Z</time></trkpt><trkpt lat="43.207175" lon="13.0572433"><ele>310.0</ele><time>2026-04-26T07:39:47.232Z</time></trkpt><trkpt lat="43.2070483" lon="13.0571883"><ele>310.0</ele><time>2026-04-26T07:39:48.232Z</time></trkpt><trkpt lat="43.2069183" lon="13.0571333"><ele>310.0</ele><time>2026-04-26T07:39:49.233Z</time></trkpt><trkpt lat="43.2067867" lon="13.0570783"><ele>310.0</ele><time>2026-04-26T07:39:50.237Z</time></trkpt><trkpt lat="43.2066583" lon="13.0570217"><ele>310.0</ele><time>2026-04-26T07:39:51.232Z</time></trkpt><trkpt lat="43.2065317" lon="13.0569683"><ele>310.0</ele><time>2026-04-26T07:39:52.236Z</time></trkpt><trkpt lat="43.2064083" lon="13.0569183"><ele>310.0</ele><time>2026-04-26T07:39:53.232Z</time></trkpt><trkpt lat="43.2062883" lon="13.0568717"><ele>310.0</ele><time>2026-04-26T07:39:54.231Z</time></trkpt><trkpt lat="43.2061533" lon="13.0568217"><ele>310.0</ele><time>2026-04-26T07:39:55.235Z</time></trkpt><trkpt lat="43.20601" lon="13.05676"><ele>310.0</ele><time>2026-04-26T07:39:56.236Z</time></trkpt><trkpt lat="43.2058583" lon="13.0566883"><ele>309.66666666666663</ele><time>2026-04-26T07:39:57.233Z</time></trkpt><trkpt lat="43.2057067" lon="13.0565983"><ele>309.3333333333333</ele><time>2026-04-26T07:39:58.232Z</time></trkpt><trkpt lat="43.205565" lon="13.0564783"><ele>309.0</ele><time>2026-04-26T07:39:59.231Z</time></trkpt><trkpt lat="43.205445" lon="13.0563317"><ele>309.0</ele><time>2026-04-26T07:40:00.23Z</time></trkpt><trkpt lat="43.2053383" lon="13.0561567"><ele>309.0</ele><time>2026-04-26T07:40:01.236Z</time></trkpt><trkpt lat="43.2052383" lon="13.0559767"><ele>309.0</ele><time>2026-04-26T07:40:02.233Z</time></trkpt><trkpt lat="43.205135" lon="13.0558033"><ele>310.3333333333333</ele><time>2026-04-26T07:40:03.234Z</time></trkpt><trkpt lat="43.2050317" lon="13.05564"><ele>311.66666666666663</ele><time>2026-04-26T07:40:04.233Z</time></trkpt><trkpt lat="43.2049183" lon="13.055485"><ele>313.0</ele><time>2026-04-26T07:40:05.231Z</time></trkpt><trkpt lat="43.2048083" lon="13.0553417"><ele>314.5</ele><time>2026-04-26T07:40:06.232Z</time></trkpt><trkpt lat="43.2047" lon="13.0552133"><ele>316.0</ele><time>2026-04-26T07:40:07.233Z</time></trkpt><trkpt lat="43.2045933" lon="13.0551017"><ele>317.5</ele><time>2026-04-26T07:40:08.23Z</time></trkpt><trkpt lat="43.2044967" lon="13.0550067"><ele>319.0</ele><time>2026-04-26T07:40:09.234Z</time></trkpt><trkpt lat="43.204415" lon="13.054915"><ele>319.0</ele><time>2026-04-26T07:40:10.231Z</time></trkpt><trkpt lat="43.20435" lon="13.05482"><ele>319.0</ele><time>2026-04-26T07:40:11.235Z</time></trkpt><trkpt lat="43.2043067" lon="13.0547267"><ele>319.0</ele><time>2026-04-26T07:40:12.231Z</time></trkpt><trkpt lat="43.2042783" lon="13.0546333"><ele>319.0</ele><time>2026-04-26T07:40:13.231Z</time></trkpt><trkpt lat="43.204245" lon="13.054505"><ele>319.0</ele><time>2026-04-26T07:40:15.232Z</time></trkpt><trkpt lat="43.2042017" lon="13.0544183"><ele>319.0</ele><time>2026-04-26T07:40:17.232Z</time></trkpt><trkpt lat="43.2040767" lon="13.0543367"><ele>318.75</ele><time>2026-04-26T07:40:19.231Z</time></trkpt><trkpt lat="43.2039883" lon="13.0543167"><ele>318.5</ele><time>2026-04-26T07:40:20.231Z</time></trkpt><trkpt lat="43.2038817" lon="13.054305"><ele>318.25</ele><time>2026-04-26T07:40:21.234Z</time></trkpt><trkpt lat="43.2037467" lon="13.0542983"><ele>318.0</ele><time>2026-04-26T07:40:22.231Z</time></trkpt><trkpt lat="43.20358" lon="13.0543017"><ele>318.0</ele><time>2026-04-26T07:40:23.231Z</time></trkpt><trkpt lat="43.2034" lon="13.0543033"><ele>318.0</ele><time>2026-04-26T07:40:24.232Z</time></trkpt><trkpt lat="43.20323" lon="13.05432"><ele>318.0</ele><time>2026-04-26T07:40:25.233Z</time></trkpt><trkpt lat="43.2030733" lon="13.05434"><ele>318.5</ele><time>2026-04-26T07:40:26.235Z</time></trkpt><trkpt lat="43.20293" lon="13.0543533"><ele>319.0</ele><time>2026-04-26T07:40:27.233Z</time></trkpt><trkpt lat="43.2027933" lon="13.0543633"><ele>319.5</ele><time>2026-04-26T07:40:28.231Z</time></trkpt><trkpt lat="43.202645" lon="13.0543783"><ele>320.0</ele><time>2026-04-26T07:40:29.234Z</time></trkpt><trkpt lat="43.2024833" lon="13.0543817"><ele>317.33333333333337</ele><time>2026-04-26T07:40:30.23Z</time></trkpt><trkpt lat="43.2023067" lon="13.05438"><ele>314.6666666666667</ele><time>2026-04-26T07:40:31.231Z</time></trkpt><trkpt lat="43.202125" lon="13.05435"><ele>312.0</ele><time>2026-04-26T07:40:32.245Z</time></trkpt><trkpt lat="43.2019417" lon="13.054295"><ele>312.0</ele><time>2026-04-26T07:40:33.232Z</time></trkpt><trkpt lat="43.2017633" lon="13.054215"><ele>312.0</ele><time>2026-04-26T07:40:34.234Z</time></trkpt><trkpt lat="43.20158" lon="13.05412"><ele>312.0</ele><time>2026-04-26T07:40:35.232Z</time></trkpt><trkpt lat="43.2013983" lon="13.0540083"><ele>312.6666666666667</ele><time>2026-04-26T07:40:36.233Z</time></trkpt><trkpt lat="43.2012283" lon="13.0538933"><ele>313.33333333333337</ele><time>2026-04-26T07:40:37.235Z</time></trkpt><trkpt lat="43.201065" lon="13.0537767"><ele>314.0</ele><time>2026-04-26T07:40:38.232Z</time></trkpt><trkpt lat="43.20091" lon="13.0536633"><ele>314.0</ele><time>2026-04-26T07:40:39.232Z</time></trkpt><trkpt lat="43.20076" lon="13.05356"><ele>314.0</ele><time>2026-04-26T07:40:40.231Z</time></trkpt><trkpt lat="43.200605" lon="13.0534567"><ele>314.0</ele><time>2026-04-26T07:40:41.232Z</time></trkpt><trkpt lat="43.2004483" lon="13.053345"><ele>313.6666666666667</ele><time>2026-04-26T07:40:42.239Z</time></trkpt><trkpt lat="43.2002917" lon="13.05323"><ele>313.3333333333333</ele><time>2026-04-26T07:40:43.232Z</time></trkpt><trkpt lat="43.2001383" lon="13.053115"><ele>313.0</ele><time>2026-04-26T07:40:44.231Z</time></trkpt><trkpt lat="43.199985" lon="13.052985"><ele>310.0</ele><time>2026-04-26T07:40:45.241Z</time></trkpt><trkpt lat="43.1998333" lon="13.052845"><ele>307.0</ele><time>2026-04-26T07:40:46.232Z</time></trkpt><trkpt lat="43.1996867" lon="13.0526917"><ele>304.0</ele><time>2026-04-26T07:40:47.233Z</time></trkpt><trkpt lat="43.1995433" lon="13.0525283"><ele>306.0</ele><time>2026-04-26T07:40:48.237Z</time></trkpt><trkpt lat="43.1994033" lon="13.05237"><ele>308.0</ele><time>2026-04-26T07:40:49.235Z</time></trkpt><trkpt lat="43.1992617" lon="13.0522133"><ele>310.0</ele><time>2026-04-26T07:40:50.233Z</time></trkpt><trkpt lat="43.1991233" lon="13.0520617"><ele>309.3333333333333</ele><time>2026-04-26T07:40:51.234Z</time></trkpt><trkpt lat="43.19899" lon="13.0519183"><ele>308.6666666666667</ele><time>2026-04-26T07:40:52.234Z</time></trkpt><trkpt lat="43.1988633" lon="13.0517783"><ele>308.0</ele><time>2026-04-26T07:40:53.231Z</time></trkpt><trkpt lat="43.198745" lon="13.051645"><ele>307.33333333333337</ele><time>2026-04-26T07:40:54.232Z</time></trkpt><trkpt lat="43.1986283" lon="13.05151"><ele>306.6666666666667</ele><time>2026-04-26T07:40:55.231Z</time></trkpt><trkpt lat="43.19851" lon="13.0513767"><ele>306.0</ele><time>2026-04-26T07:40:56.232Z</time></trkpt><trkpt lat="43.1983917" lon="13.051245"><ele>306.0</ele><time>2026-04-26T07:40:57.231Z</time></trkpt><trkpt lat="43.1982733" lon="13.0511217"><ele>306.0</ele><time>2026-04-26T07:40:58.227Z</time></trkpt><trkpt lat="43.198155" lon="13.0509967"><ele>306.0</ele><time>2026-04-26T07:40:59.23Z</time></trkpt><trkpt lat="43.1980383" lon="13.0508683"><ele>306.0</ele><time>2026-04-26T07:41:00.231Z</time></trkpt><trkpt lat="43.1979283" lon="13.0507417"><ele>307.0</ele><time>2026-04-26T07:41:01.233Z</time></trkpt><trkpt lat="43.197825" lon="13.0506217"><ele>308.0</ele><time>2026-04-26T07:41:02.232Z</time></trkpt><trkpt lat="43.1977267" lon="13.0505083"><ele>309.0</ele><time>2026-04-26T07:41:03.237Z</time></trkpt><trkpt lat="43.1976317" lon="13.0504083"><ele>310.0</ele><time>2026-04-26T07:41:04.232Z</time></trkpt><trkpt lat="43.1975417" lon="13.050325"><ele>310.0</ele><time>2026-04-26T07:41:05.23Z</time></trkpt><trkpt lat="43.1974517" lon="13.0502533"><ele>310.0</ele><time>2026-04-26T07:41:06.233Z</time></trkpt><trkpt lat="43.197365" lon="13.0501883"><ele>310.0</ele><time>2026-04-26T07:41:07.234Z</time></trkpt><trkpt lat="43.197275" lon="13.0501183"><ele>310.0</ele><time>2026-04-26T07:41:08.228Z</time></trkpt><trkpt lat="43.1971867" lon="13.050035"><ele>310.0</ele><time>2026-04-26T07:41:09.233Z</time></trkpt><trkpt lat="43.1971017" lon="13.049975"><ele>310.0</ele><time>2026-04-26T07:41:10.234Z</time></trkpt><trkpt lat="43.1970117" lon="13.049945"><ele>310.0</ele><time>2026-04-26T07:41:11.232Z</time></trkpt><trkpt lat="43.19693" lon="13.049965"><ele>310.0</ele><time>2026-04-26T07:41:12.232Z</time></trkpt><trkpt lat="43.1968533" lon="13.050025"><ele>310.0</ele><time>2026-04-26T07:41:13.232Z</time></trkpt><trkpt lat="43.1967733" lon="13.0501183"><ele>310.0</ele><time>2026-04-26T07:41:14.233Z</time></trkpt><trkpt lat="43.1966767" lon="13.05023"><ele>309.75</ele><time>2026-04-26T07:41:15.234Z</time></trkpt><trkpt lat="43.1965517" lon="13.0503183"><ele>309.5</ele><time>2026-04-26T07:41:16.235Z</time></trkpt><trkpt lat="43.1964183" lon="13.050405"><ele>309.25</ele><time>2026-04-26T07:41:17.233Z</time></trkpt><trkpt lat="43.19627" lon="13.0504817"><ele>309.0</ele><time>2026-04-26T07:41:18.23Z</time></trkpt><trkpt lat="43.19612" lon="13.0505717"><ele>309.6666666666667</ele><time>2026-04-26T07:41:19.234Z</time></trkpt><trkpt lat="43.19596" lon="13.0506817"><ele>310.33333333333337</ele><time>2026-04-26T07:41:20.235Z</time></trkpt><trkpt lat="43.1957817" lon="13.0508167"><ele>311.0</ele><time>2026-04-26T07:41:21.235Z</time></trkpt><trkpt lat="43.1955867" lon="13.0509867"><ele>313.0</ele><time>2026-04-26T07:41:22.231Z</time></trkpt><trkpt lat="43.19539" lon="13.0511733"><ele>315.0</ele><time>2026-04-26T07:41:23.232Z</time></trkpt><trkpt lat="43.195195" lon="13.0513567"><ele>315.0</ele><time>2026-04-26T07:41:24.235Z</time></trkpt><trkpt lat="43.1950017" lon="13.05153"><ele>315.0</ele><time>2026-04-26T07:41:25.238Z</time></trkpt><trkpt lat="43.1948067" lon="13.051695"><ele>317.0</ele><time>2026-04-26T07:41:26.231Z</time></trkpt><trkpt lat="43.1946117" lon="13.05185"><ele>319.0</ele><time>2026-04-26T07:41:27.232Z</time></trkpt><trkpt lat="43.19441" lon="13.0519917"><ele>319.0</ele><time>2026-04-26T07:41:28.232Z</time></trkpt><trkpt lat="43.1941983" lon="13.0521217"><ele>319.0</ele><time>2026-04-26T07:41:29.232Z</time></trkpt><trkpt lat="43.1939833" lon="13.0522467"><ele>320.0</ele><time>2026-04-26T07:41:30.232Z</time></trkpt><trkpt lat="43.19377" lon="13.0523717"><ele>321.0</ele><time>2026-04-26T07:41:31.235Z</time></trkpt><trkpt lat="43.1935617" lon="13.052505"><ele>321.0</ele><time>2026-04-26T07:41:32.234Z</time></trkpt><trkpt lat="43.1933617" lon="13.0526383"><ele>321.0</ele><time>2026-04-26T07:41:33.238Z</time></trkpt><trkpt lat="43.1931633" lon="13.052775"><ele>321.0</ele><time>2026-04-26T07:41:34.234Z</time></trkpt><trkpt lat="43.1929667" lon="13.0529133"><ele>321.0</ele><time>2026-04-26T07:41:35.232Z</time></trkpt><trkpt lat="43.1927683" lon="13.053055"><ele>321.0</ele><time>2026-04-26T07:41:36.233Z</time></trkpt><trkpt lat="43.1925717" lon="13.0531967"><ele>321.0</ele><time>2026-04-26T07:41:37.234Z</time></trkpt><trkpt lat="43.1923717" lon="13.05334"><ele>321.5</ele><time>2026-04-26T07:41:38.234Z</time></trkpt><trkpt lat="43.1921733" lon="13.053485"><ele>322.0</ele><time>2026-04-26T07:41:39.235Z</time></trkpt><trkpt lat="43.1919733" lon="13.0536283"><ele>322.0</ele><time>2026-04-26T07:41:40.237Z</time></trkpt><trkpt lat="43.1917633" lon="13.0537717"><ele>322.0</ele><time>2026-04-26T07:41:41.232Z</time></trkpt><trkpt lat="43.191545" lon="13.0539083"><ele>323.5</ele><time>2026-04-26T07:41:42.237Z</time></trkpt><trkpt lat="43.1913067" lon="13.0540267"><ele>325.0</ele><time>2026-04-26T07:41:43.232Z</time></trkpt><trkpt lat="43.1910517" lon="13.05412"><ele>324.0</ele><time>2026-04-26T07:41:44.233Z</time></trkpt><trkpt lat="43.1907867" lon="13.0542"><ele>323.0</ele><time>2026-04-26T07:41:45.233Z</time></trkpt><trkpt lat="43.190515" lon="13.0542683"><ele>327.0</ele><time>2026-04-26T07:41:46.235Z</time></trkpt><trkpt lat="43.1902383" lon="13.054335"><ele>331.0</ele><time>2026-04-26T07:41:47.232Z</time></trkpt><trkpt lat="43.1899533" lon="13.0544"><ele>335.5</ele><time>2026-04-26T07:41:48.235Z</time></trkpt><trkpt lat="43.1896583" lon="13.054465"><ele>340.0</ele><time>2026-04-26T07:41:49.231Z</time></trkpt><trkpt lat="43.1893617" lon="13.0545267"><ele>340.0</ele><time>2026-04-26T07:41:50.234Z</time></trkpt><trkpt lat="43.1890583" lon="13.05458"><ele>340.0</ele><time>2026-04-26T07:41:51.233Z</time></trkpt><trkpt lat="43.1887517" lon="13.0546283"><ele>346.0</ele><time>2026-04-26T07:41:52.231Z</time></trkpt><trkpt lat="43.1884417" lon="13.0546733"><ele>352.0</ele><time>2026-04-26T07:41:53.231Z</time></trkpt><trkpt lat="43.1881417" lon="13.0547133"><ele>353.0</ele><time>2026-04-26T07:41:54.233Z</time></trkpt><trkpt lat="43.18785" lon="13.0547583"><ele>354.0</ele><time>2026-04-26T07:41:55.234Z</time></trkpt><trkpt lat="43.1875667" lon="13.0548117"><ele>355.0</ele><time>2026-04-26T07:41:56.234Z</time></trkpt><trkpt lat="43.1872833" lon="13.0548717"><ele>356.0</ele><time>2026-04-26T07:41:57.234Z</time></trkpt><trkpt lat="43.1869983" lon="13.0549433"><ele>349.5</ele><time>2026-04-26T07:41:58.232Z</time></trkpt><trkpt lat="43.1867083" lon="13.055005"><ele>343.0</ele><time>2026-04-26T07:41:59.234Z</time></trkpt><trkpt lat="43.186415" lon="13.055075"><ele>341.5</ele><time>2026-04-26T07:42:00.232Z</time></trkpt><trkpt lat="43.18612" lon="13.055145"><ele>340.0</ele><time>2026-04-26T07:42:01.234Z</time></trkpt><trkpt lat="43.1858283" lon="13.055215"><ele>343.0</ele><time>2026-04-26T07:42:02.235Z</time></trkpt><trkpt lat="43.1855467" lon="13.0552817"><ele>346.0</ele><time>2026-04-26T07:42:03.238Z</time></trkpt><trkpt lat="43.18527" lon="13.055345"><ele>346.0</ele><time>2026-04-26T07:42:04.232Z</time></trkpt><trkpt lat="43.1850017" lon="13.0554017"><ele>346.0</ele><time>2026-04-26T07:42:05.233Z</time></trkpt><trkpt lat="43.18474" lon="13.0554517"><ele>346.5</ele><time>2026-04-26T07:42:06.228Z</time></trkpt><trkpt lat="43.18449" lon="13.0554917"><ele>347.0</ele><time>2026-04-26T07:42:07.233Z</time></trkpt><trkpt lat="43.1842467" lon="13.0555033"><ele>341.5</ele><time>2026-04-26T07:42:08.234Z</time></trkpt><trkpt lat="43.1840067" lon="13.0554767"><ele>336.0</ele><time>2026-04-26T07:42:09.234Z</time></trkpt><trkpt lat="43.18377" lon="13.055395"><ele>336.0</ele><time>2026-04-26T07:42:10.232Z</time></trkpt><trkpt lat="43.18353" lon="13.0552633"><ele>336.0</ele><time>2026-04-26T07:42:11.231Z</time></trkpt><trkpt lat="43.18329" lon="13.055125"><ele>339.0</ele><time>2026-04-26T07:42:12.233Z</time></trkpt><trkpt lat="43.183045" lon="13.0549917"><ele>342.0</ele><time>2026-04-26T07:42:13.232Z</time></trkpt><trkpt lat="43.1827983" lon="13.0548533"><ele>342.0</ele><time>2026-04-26T07:42:14.232Z</time></trkpt><trkpt lat="43.1825633" lon="13.0547317"><ele>342.0</ele><time>2026-04-26T07:42:15.234Z</time></trkpt><trkpt lat="43.1823483" lon="13.0546183"><ele>340.0</ele><time>2026-04-26T07:42:16.231Z</time></trkpt><trkpt lat="43.18215" lon="13.054515"><ele>338.0</ele><time>2026-04-26T07:42:17.233Z</time></trkpt><trkpt lat="43.1819517" lon="13.0544233"><ele>336.0</ele><time>2026-04-26T07:42:18.232Z</time></trkpt><trkpt lat="43.1817467" lon="13.0543417"><ele>336.0</ele><time>2026-04-26T07:42:19.233Z</time></trkpt><trkpt lat="43.18153" lon="13.0542717"><ele>336.0</ele><time>2026-04-26T07:42:20.231Z</time></trkpt><trkpt lat="43.1813" lon="13.0542183"><ele>334.5</ele><time>2026-04-26T07:42:21.233Z</time></trkpt><trkpt lat="43.1810683" lon="13.0541733"><ele>333.0</ele><time>2026-04-26T07:42:22.234Z</time></trkpt><trkpt lat="43.1808267" lon="13.0541333"><ele>337.5</ele><time>2026-04-26T07:42:23.233Z</time></trkpt><trkpt lat="43.180565" lon="13.0541033"><ele>342.0</ele><time>2026-04-26T07:42:24.232Z</time></trkpt><trkpt lat="43.1802933" lon="13.05408"><ele>342.0</ele><time>2026-04-26T07:42:25.237Z</time></trkpt><trkpt lat="43.1800233" lon="13.0540617"><ele>342.0</ele><time>2026-04-26T07:42:26.237Z</time></trkpt><trkpt lat="43.1797567" lon="13.0540417"><ele>342.5</ele><time>2026-04-26T07:42:27.231Z</time></trkpt><trkpt lat="43.1794983" lon="13.0540267"><ele>343.0</ele><time>2026-04-26T07:42:28.236Z</time></trkpt><trkpt lat="43.1792533" lon="13.05402"><ele>342.5</ele><time>2026-04-26T07:42:29.233Z</time></trkpt><trkpt lat="43.1790117" lon="13.0540333"><ele>342.0</ele><time>2026-04-26T07:42:30.232Z</time></trkpt><trkpt lat="43.1787817" lon="13.0540617"><ele>342.0</ele><time>2026-04-26T07:42:31.234Z</time></trkpt><trkpt lat="43.1785583" lon="13.0540933"><ele>342.0</ele><time>2026-04-26T07:42:32.235Z</time></trkpt><trkpt lat="43.1783433" lon="13.054125"><ele>342.0</ele><time>2026-04-26T07:42:33.235Z</time></trkpt><trkpt lat="43.178135" lon="13.0541517"><ele>339.3333333333333</ele><time>2026-04-26T07:42:34.232Z</time></trkpt><trkpt lat="43.1779383" lon="13.05418"><ele>336.66666666666663</ele><time>2026-04-26T07:42:35.231Z</time></trkpt><trkpt lat="43.177755" lon="13.0542067"><ele>334.0</ele><time>2026-04-26T07:42:36.233Z</time></trkpt><trkpt lat="43.1775833" lon="13.0542333"><ele>334.0</ele><time>2026-04-26T07:42:37.232Z</time></trkpt><trkpt lat="43.1774217" lon="13.0542583"><ele>334.0</ele><time>2026-04-26T07:42:38.23Z</time></trkpt><trkpt lat="43.177275" lon="13.0542867"><ele>334.0</ele><time>2026-04-26T07:42:39.231Z</time></trkpt><trkpt lat="43.1771317" lon="13.0543117"><ele>333.75</ele><time>2026-04-26T07:42:40.231Z</time></trkpt><trkpt lat="43.1769983" lon="13.0543317"><ele>333.5</ele><time>2026-04-26T07:42:41.231Z</time></trkpt><trkpt lat="43.1768717" lon="13.0543467"><ele>333.25</ele><time>2026-04-26T07:42:42.23Z</time></trkpt><trkpt lat="43.1767533" lon="13.0543583"><ele>333.0</ele><time>2026-04-26T07:42:43.229Z</time></trkpt><trkpt lat="43.176645" lon="13.054375"><ele>333.0</ele><time>2026-04-26T07:42:44.233Z</time></trkpt><trkpt lat="43.1765617" lon="13.0543917"><ele>333.0</ele><time>2026-04-26T07:42:45.235Z</time></trkpt><trkpt lat="43.1764917" lon="13.0544133"><ele>333.0</ele><time>2026-04-26T07:42:46.23Z</time></trkpt><trkpt lat="43.1764" lon="13.0544833"><ele>333.0</ele><time>2026-04-26T07:42:48.231Z</time></trkpt><trkpt lat="43.1763467" lon="13.0545617"><ele>333.0</ele><time>2026-04-26T07:42:50.23Z</time></trkpt><trkpt lat="43.176305" lon="13.0546267"><ele>333.0</ele><time>2026-04-26T07:42:52.231Z</time></trkpt><trkpt lat="43.1762683" lon="13.05471"><ele>332.79999999999995</ele><time>2026-04-26T07:42:55.232Z</time></trkpt><trkpt lat="43.1763617" lon="13.05471"><ele>332.6</ele><time>2026-04-26T07:46:11.233Z</time></trkpt><trkpt lat="43.17646" lon="13.0546933"><ele>332.4</ele><time>2026-04-26T07:48:37.233Z</time></trkpt><trkpt lat="43.176385" lon="13.0546417"><ele>332.20000000000005</ele><time>2026-04-26T07:50:18.238Z</time></trkpt><trkpt lat="43.1764067" lon="13.0547933"><ele>332.0</ele><time>2026-04-26T07:51:37.232Z</time></trkpt><trkpt lat="43.1763633" lon="13.0547233"><ele>332.0</ele><time>2026-04-26T07:52:32.234Z</time></trkpt><trkpt lat="43.1763017" lon="13.0547033"><ele>332.0</ele><time>2026-04-26T08:02:37.241Z</time></trkpt><trkpt lat="43.1762383" lon="13.0546567"><ele>332.0</ele><time>2026-04-26T08:02:41.235Z</time></trkpt><trkpt lat="43.176165" lon="13.054625"><ele>332.0</ele><time>2026-04-26T08:02:45.235Z</time></trkpt><trkpt lat="43.176095" lon="13.0545767"><ele>332.0</ele><time>2026-04-26T08:02:49.234Z</time></trkpt><trkpt lat="43.1760417" lon="13.0545233"><ele>332.0</ele><time>2026-04-26T08:02:56.229Z</time></trkpt><trkpt lat="43.1759333" lon="13.054465"><ele>332.0</ele><time>2026-04-26T08:02:58.232Z</time></trkpt><trkpt lat="43.1758517" lon="13.054465"><ele>332.0</ele><time>2026-04-26T08:02:59.231Z</time></trkpt><trkpt lat="43.17574" lon="13.0544883"><ele>332.0</ele><time>2026-04-26T08:03:00.232Z</time></trkpt><trkpt lat="43.1756067" lon="13.0545167"><ele>332.0</ele><time>2026-04-26T08:03:01.239Z</time></trkpt><trkpt lat="43.17548" lon="13.0545367"><ele>331.25</ele><time>2026-04-26T08:03:02.233Z</time></trkpt><trkpt lat="43.1753467" lon="13.0545517"><ele>330.5</ele><time>2026-04-26T08:03:03.234Z</time></trkpt><trkpt lat="43.1752033" lon="13.05457"><ele>329.75</ele><time>2026-04-26T08:03:04.231Z</time></trkpt><trkpt lat="43.1750583" lon="13.0545883"><ele>329.0</ele><time>2026-04-26T08:03:05.228Z</time></trkpt><trkpt lat="43.174915" lon="13.054605"><ele>330.0</ele><time>2026-04-26T08:03:06.234Z</time></trkpt><trkpt lat="43.1747667" lon="13.0546267"><ele>331.0</ele><time>2026-04-26T08:03:07.232Z</time></trkpt><trkpt lat="43.1746083" lon="13.0546533"><ele>332.0</ele><time>2026-04-26T08:03:08.232Z</time></trkpt><trkpt lat="43.17444" lon="13.05468"><ele>332.0</ele><time>2026-04-26T08:03:09.231Z</time></trkpt><trkpt lat="43.1742633" lon="13.0547067"><ele>332.0</ele><time>2026-04-26T08:03:10.231Z</time></trkpt><trkpt lat="43.174085" lon="13.0547333"><ele>332.0</ele><time>2026-04-26T08:03:11.232Z</time></trkpt><trkpt lat="43.1739" lon="13.0547617"><ele>333.33333333333337</ele><time>2026-04-26T08:03:12.231Z</time></trkpt><trkpt lat="43.1737133" lon="13.0548017"><ele>334.6666666666667</ele><time>2026-04-26T08:03:13.233Z</time></trkpt><trkpt lat="43.1735233" lon="13.05486"><ele>336.0</ele><time>2026-04-26T08:03:14.232Z</time></trkpt><trkpt lat="43.173335" lon="13.05494"><ele>335.3333333333333</ele><time>2026-04-26T08:03:15.237Z</time></trkpt><trkpt lat="43.1731517" lon="13.055035"><ele>334.66666666666663</ele><time>2026-04-26T08:03:16.232Z</time></trkpt><trkpt lat="43.1729683" lon="13.0551333"><ele>334.0</ele><time>2026-04-26T08:03:17.234Z</time></trkpt><trkpt lat="43.1727917" lon="13.0552367"><ele>334.0</ele><time>2026-04-26T08:03:18.234Z</time></trkpt><trkpt lat="43.1726133" lon="13.0553383"><ele>334.0</ele><time>2026-04-26T08:03:19.235Z</time></trkpt><trkpt lat="43.1724367" lon="13.0554417"><ele>334.0</ele><time>2026-04-26T08:03:20.233Z</time></trkpt><trkpt lat="43.172255" lon="13.0555467"><ele>334.0</ele><time>2026-04-26T08:03:21.231Z</time></trkpt><trkpt lat="43.1720733" lon="13.05565"><ele>334.0</ele><time>2026-04-26T08:03:22.233Z</time></trkpt><trkpt lat="43.1718933" lon="13.05575"><ele>334.0</ele><time>2026-04-26T08:03:23.231Z</time></trkpt><trkpt lat="43.1717067" lon="13.055855"><ele>333.66666666666663</ele><time>2026-04-26T08:03:24.232Z</time></trkpt><trkpt lat="43.1715217" lon="13.0559567"><ele>333.3333333333333</ele><time>2026-04-26T08:03:25.236Z</time></trkpt><trkpt lat="43.1713367" lon="13.056065"><ele>333.0</ele><time>2026-04-26T08:03:26.234Z</time></trkpt><trkpt lat="43.1711583" lon="13.0561733"><ele>333.0</ele><time>2026-04-26T08:03:27.237Z</time></trkpt><trkpt lat="43.1709833" lon="13.05628"><ele>333.0</ele><time>2026-04-26T08:03:28.232Z</time></trkpt><trkpt lat="43.1708083" lon="13.056385"><ele>333.0</ele><time>2026-04-26T08:03:29.234Z</time></trkpt><trkpt lat="43.1706367" lon="13.056485"><ele>333.0</ele><time>2026-04-26T08:03:30.232Z</time></trkpt><trkpt lat="43.17046" lon="13.0565833"><ele>333.0</ele><time>2026-04-26T08:03:31.234Z</time></trkpt><trkpt lat="43.1702867" lon="13.0566833"><ele>333.0</ele><time>2026-04-26T08:03:32.232Z</time></trkpt><trkpt lat="43.17011" lon="13.0567817"><ele>333.0</ele><time>2026-04-26T08:03:33.235Z</time></trkpt><trkpt lat="43.1699367" lon="13.0568833"><ele>333.0</ele><time>2026-04-26T08:03:34.237Z</time></trkpt><trkpt lat="43.1697583" lon="13.0569867"><ele>333.0</ele><time>2026-04-26T08:03:35.231Z</time></trkpt><trkpt lat="43.1695867" lon="13.0570883"><ele>333.3333333333333</ele><time>2026-04-26T08:03:36.231Z</time></trkpt><trkpt lat="43.1694183" lon="13.057185"><ele>333.66666666666663</ele><time>2026-04-26T08:03:37.238Z</time></trkpt><trkpt lat="43.16925" lon="13.05728"><ele>334.0</ele><time>2026-04-26T08:03:38.233Z</time></trkpt><trkpt lat="43.1690767" lon="13.0573767"><ele>334.0</ele><time>2026-04-26T08:03:39.233Z</time></trkpt><trkpt lat="43.1689033" lon="13.057465"><ele>334.0</ele><time>2026-04-26T08:03:40.233Z</time></trkpt><trkpt lat="43.16873" lon="13.0575483"><ele>334.0</ele><time>2026-04-26T08:03:41.231Z</time></trkpt><trkpt lat="43.168555" lon="13.057635"><ele>334.0</ele><time>2026-04-26T08:03:42.233Z</time></trkpt><trkpt lat="43.1683767" lon="13.0577217"><ele>334.0</ele><time>2026-04-26T08:03:43.232Z</time></trkpt><trkpt lat="43.1682017" lon="13.057805"><ele>334.0</ele><time>2026-04-26T08:03:44.232Z</time></trkpt><trkpt lat="43.1680283" lon="13.0578833"><ele>334.66666666666663</ele><time>2026-04-26T08:03:45.234Z</time></trkpt><trkpt lat="43.1678517" lon="13.0579533"><ele>335.3333333333333</ele><time>2026-04-26T08:03:46.233Z</time></trkpt><trkpt lat="43.16767" lon="13.0579983"><ele>336.0</ele><time>2026-04-26T08:03:47.232Z</time></trkpt><trkpt lat="43.167475" lon="13.05802"><ele>336.6666666666667</ele><time>2026-04-26T08:03:48.233Z</time></trkpt><trkpt lat="43.1672717" lon="13.0580333"><ele>337.33333333333337</ele><time>2026-04-26T08:03:49.235Z</time></trkpt><trkpt lat="43.1670733" lon="13.0580567"><ele>338.0</ele><time>2026-04-26T08:03:50.233Z</time></trkpt><trkpt lat="43.166885" lon="13.0581067"><ele>338.0</ele><time>2026-04-26T08:03:51.234Z</time></trkpt><trkpt lat="43.1667033" lon="13.0581883"><ele>338.0</ele><time>2026-04-26T08:03:52.233Z</time></trkpt><trkpt lat="43.1665267" lon="13.0582867"><ele>338.0</ele><time>2026-04-26T08:03:53.232Z</time></trkpt><trkpt lat="43.1663583" lon="13.0583867"><ele>339.6666666666667</ele><time>2026-04-26T08:03:54.234Z</time></trkpt><trkpt lat="43.1661867" lon="13.0584917"><ele>341.3333333333333</ele><time>2026-04-26T08:03:55.233Z</time></trkpt><trkpt lat="43.1660167" lon="13.058595"><ele>343.0</ele><time>2026-04-26T08:03:56.233Z</time></trkpt><trkpt lat="43.1658433" lon="13.0586867"><ele>342.3333333333333</ele><time>2026-04-26T08:03:57.232Z</time></trkpt><trkpt lat="43.1656733" lon="13.0587517"><ele>341.6666666666667</ele><time>2026-04-26T08:03:58.234Z</time></trkpt><trkpt lat="43.1655067" lon="13.0587733"><ele>341.0</ele><time>2026-04-26T08:03:59.233Z</time></trkpt><trkpt lat="43.1653483" lon="13.05875"><ele>341.0</ele><time>2026-04-26T08:04:00.234Z</time></trkpt><trkpt lat="43.1651933" lon="13.058705"><ele>341.0</ele><time>2026-04-26T08:04:01.235Z</time></trkpt><trkpt lat="43.1650433" lon="13.0586733"><ele>341.0</ele><time>2026-04-26T08:04:02.232Z</time></trkpt><trkpt lat="43.164895" lon="13.0586633"><ele>341.25</ele><time>2026-04-26T08:04:03.233Z</time></trkpt><trkpt lat="43.1647483" lon="13.0586783"><ele>341.5</ele><time>2026-04-26T08:04:04.232Z</time></trkpt><trkpt lat="43.1646067" lon="13.0587133"><ele>341.75</ele><time>2026-04-26T08:04:05.23Z</time></trkpt><trkpt lat="43.16448" lon="13.0587533"><ele>342.0</ele><time>2026-04-26T08:04:06.231Z</time></trkpt><trkpt lat="43.1643517" lon="13.0587983"><ele>342.0</ele><time>2026-04-26T08:04:07.232Z</time></trkpt><trkpt lat="43.16422" lon="13.05884"><ele>342.0</ele><time>2026-04-26T08:04:08.231Z</time></trkpt><trkpt lat="43.1640817" lon="13.05888"><ele>342.0</ele><time>2026-04-26T08:04:09.234Z</time></trkpt><trkpt lat="43.16393" lon="13.058915"><ele>342.0</ele><time>2026-04-26T08:04:10.23Z</time></trkpt><trkpt lat="43.16378" lon="13.05895"><ele>344.3333333333333</ele><time>2026-04-26T08:04:11.231Z</time></trkpt><trkpt lat="43.1636283" lon="13.058985"><ele>346.66666666666663</ele><time>2026-04-26T08:04:12.236Z</time></trkpt><trkpt lat="43.1634733" lon="13.059025"><ele>349.0</ele><time>2026-04-26T08:04:13.234Z</time></trkpt><trkpt lat="43.1633217" lon="13.059065"><ele>349.66666666666663</ele><time>2026-04-26T08:04:14.231Z</time></trkpt><trkpt lat="43.16316" lon="13.0591117"><ele>350.3333333333333</ele><time>2026-04-26T08:04:15.232Z</time></trkpt><trkpt lat="43.1629817" lon="13.0591767"><ele>351.0</ele><time>2026-04-26T08:04:16.23Z</time></trkpt><trkpt lat="43.1627883" lon="13.0592567"><ele>351.0</ele><time>2026-04-26T08:04:17.233Z</time></trkpt><trkpt lat="43.1625917" lon="13.05936"><ele>351.0</ele><time>2026-04-26T08:04:18.229Z</time></trkpt><trkpt lat="43.1624033" lon="13.059485"><ele>351.0</ele><time>2026-04-26T08:04:19.234Z</time></trkpt><trkpt lat="43.1622167" lon="13.0596283"><ele>353.3333333333333</ele><time>2026-04-26T08:04:20.232Z</time></trkpt><trkpt lat="43.16203" lon="13.059775"><ele>355.66666666666663</ele><time>2026-04-26T08:04:21.235Z</time></trkpt><trkpt lat="43.1618467" lon="13.0599267"><ele>358.0</ele><time>2026-04-26T08:04:22.234Z</time></trkpt><trkpt lat="43.16166" lon="13.060105"><ele>362.0</ele><time>2026-04-26T08:04:23.232Z</time></trkpt><trkpt lat="43.1614717" lon="13.0603083"><ele>366.0</ele><time>2026-04-26T08:04:24.233Z</time></trkpt><trkpt lat="43.16129" lon="13.0605233"><ele>366.0</ele><time>2026-04-26T08:04:25.232Z</time></trkpt><trkpt lat="43.1611183" lon="13.0607267"><ele>366.0</ele><time>2026-04-26T08:04:26.234Z</time></trkpt><trkpt lat="43.1609467" lon="13.0609133"><ele>366.0</ele><time>2026-04-26T08:04:27.235Z</time></trkpt><trkpt lat="43.1607733" lon="13.0610783"><ele>367.0</ele><time>2026-04-26T08:04:28.231Z</time></trkpt><trkpt lat="43.1605967" lon="13.0612267"><ele>368.0</ele><time>2026-04-26T08:04:29.234Z</time></trkpt><trkpt lat="43.1604117" lon="13.0613583"><ele>369.0</ele><time>2026-04-26T08:04:30.234Z</time></trkpt><trkpt lat="43.16023" lon="13.0614783"><ele>369.0</ele><time>2026-04-26T08:04:31.235Z</time></trkpt><trkpt lat="43.1600483" lon="13.06157"><ele>369.0</ele><time>2026-04-26T08:04:32.233Z</time></trkpt><trkpt lat="43.159865" lon="13.06163"><ele>369.0</ele><time>2026-04-26T08:04:33.23Z</time></trkpt><trkpt lat="43.1596733" lon="13.0616617"><ele>369.0</ele><time>2026-04-26T08:04:34.233Z</time></trkpt><trkpt lat="43.1594683" lon="13.0616817"><ele>369.0</ele><time>2026-04-26T08:04:35.232Z</time></trkpt><trkpt lat="43.1592583" lon="13.061705"><ele>369.0</ele><time>2026-04-26T08:04:36.232Z</time></trkpt><trkpt lat="43.1590517" lon="13.0617383"><ele>372.0</ele><time>2026-04-26T08:04:37.233Z</time></trkpt><trkpt lat="43.1588583" lon="13.0617767"><ele>375.0</ele><time>2026-04-26T08:04:38.234Z</time></trkpt><trkpt lat="43.1586783" lon="13.0618233"><ele>378.0</ele><time>2026-04-26T08:04:39.233Z</time></trkpt><trkpt lat="43.1585133" lon="13.061865"><ele>378.0</ele><time>2026-04-26T08:04:40.233Z</time></trkpt><trkpt lat="43.158355" lon="13.061905"><ele>378.0</ele><time>2026-04-26T08:04:41.234Z</time></trkpt><trkpt lat="43.1582017" lon="13.0619317"><ele>378.0</ele><time>2026-04-26T08:04:42.233Z</time></trkpt><trkpt lat="43.158055" lon="13.0619383"><ele>379.0</ele><time>2026-04-26T08:04:43.233Z</time></trkpt><trkpt lat="43.1579133" lon="13.0619233"><ele>380.0</ele><time>2026-04-26T08:04:44.231Z</time></trkpt><trkpt lat="43.1577733" lon="13.06188"><ele>381.0</ele><time>2026-04-26T08:04:45.234Z</time></trkpt><trkpt lat="43.1576233" lon="13.0618133"><ele>382.0</ele><time>2026-04-26T08:04:46.233Z</time></trkpt><trkpt lat="43.1574617" lon="13.0617267"><ele>381.3333333333333</ele><time>2026-04-26T08:04:47.232Z</time></trkpt><trkpt lat="43.1572817" lon="13.0616267"><ele>380.6666666666667</ele><time>2026-04-26T08:04:48.236Z</time></trkpt><trkpt lat="43.1570917" lon="13.0615133"><ele>380.0</ele><time>2026-04-26T08:04:49.236Z</time></trkpt><trkpt lat="43.156905" lon="13.06139"><ele>383.6666666666667</ele><time>2026-04-26T08:04:50.234Z</time></trkpt><trkpt lat="43.1567233" lon="13.0612717"><ele>387.33333333333337</ele><time>2026-04-26T08:04:51.233Z</time></trkpt><trkpt lat="43.1565533" lon="13.06116"><ele>391.0</ele><time>2026-04-26T08:04:52.231Z</time></trkpt><trkpt lat="43.15639" lon="13.0610617"><ele>391.0</ele><time>2026-04-26T08:04:53.234Z</time></trkpt><trkpt lat="43.1562317" lon="13.06098"><ele>391.0</ele><time>2026-04-26T08:04:54.229Z</time></trkpt><trkpt lat="43.1560833" lon="13.0609183"><ele>391.0</ele><time>2026-04-26T08:04:55.231Z</time></trkpt><trkpt lat="43.155935" lon="13.06088"><ele>391.0</ele><time>2026-04-26T08:04:56.23Z</time></trkpt><trkpt lat="43.1557917" lon="13.0608583"><ele>391.0</ele><time>2026-04-26T08:04:57.232Z</time></trkpt><trkpt lat="43.15565" lon="13.06087"><ele>391.0</ele><time>2026-04-26T08:04:58.232Z</time></trkpt><trkpt lat="43.1555217" lon="13.0609167"><ele>391.0</ele><time>2026-04-26T08:04:59.23Z</time></trkpt><trkpt lat="43.1554067" lon="13.0609817"><ele>392.0</ele><time>2026-04-26T08:05:00.234Z</time></trkpt><trkpt lat="43.15531" lon="13.0610733"><ele>393.0</ele><time>2026-04-26T08:05:01.232Z</time></trkpt><trkpt lat="43.155225" lon="13.0611717"><ele>394.0</ele><time>2026-04-26T08:05:02.233Z</time></trkpt><trkpt lat="43.1551433" lon="13.0612667"><ele>395.0</ele><time>2026-04-26T08:05:03.231Z</time></trkpt><trkpt lat="43.15506" lon="13.0613517"><ele>396.0</ele><time>2026-04-26T08:05:04.23Z</time></trkpt><trkpt lat="43.1549717" lon="13.0614167"><ele>398.20000000000005</ele><time>2026-04-26T08:05:05.233Z</time></trkpt><trkpt lat="43.1548683" lon="13.0614433"><ele>400.40000000000003</ele><time>2026-04-26T08:05:06.233Z</time></trkpt><trkpt lat="43.1547617" lon="13.0614283"><ele>402.6</ele><time>2026-04-26T08:05:07.229Z</time></trkpt><trkpt lat="43.1546733" lon="13.0613633"><ele>404.8</ele><time>2026-04-26T08:05:08.232Z</time></trkpt><trkpt lat="43.1546067" lon="13.0612583"><ele>407.0</ele><time>2026-04-26T08:05:09.232Z</time></trkpt><trkpt lat="43.1545717" lon="13.06113"><ele>407.0</ele><time>2026-04-26T08:05:10.232Z</time></trkpt><trkpt lat="43.1545667" lon="13.0609883"><ele>407.0</ele><time>2026-04-26T08:05:11.23Z</time></trkpt><trkpt lat="43.1545983" lon="13.06084"><ele>407.0</ele><time>2026-04-26T08:05:12.232Z</time></trkpt><trkpt lat="43.1546617" lon="13.0606983"><ele>407.0</ele><time>2026-04-26T08:05:13.235Z</time></trkpt><trkpt lat="43.154745" lon="13.0605783"><ele>407.5</ele><time>2026-04-26T08:05:14.231Z</time></trkpt><trkpt lat="43.1548383" lon="13.0604733"><ele>408.0</ele><time>2026-04-26T08:05:15.238Z</time></trkpt><trkpt lat="43.1549333" lon="13.0603817"><ele>408.5</ele><time>2026-04-26T08:05:16.232Z</time></trkpt><trkpt lat="43.1550267" lon="13.06029"><ele>409.0</ele><time>2026-04-26T08:05:17.232Z</time></trkpt><trkpt lat="43.1551" lon="13.0601733"><ele>409.2</ele><time>2026-04-26T08:05:18.231Z</time></trkpt><trkpt lat="43.1551417" lon="13.06004"><ele>409.4</ele><time>2026-04-26T08:05:19.231Z</time></trkpt><trkpt lat="43.155155" lon="13.0598867"><ele>409.6</ele><time>2026-04-26T08:05:20.232Z</time></trkpt><trkpt lat="43.1551367" lon="13.05974"><ele>409.8</ele><time>2026-04-26T08:05:21.234Z</time></trkpt><trkpt lat="43.1550883" lon="13.0596017"><ele>410.0</ele><time>2026-04-26T08:05:22.23Z</time></trkpt><trkpt lat="43.155015" lon="13.0594833"><ele>410.0</ele><time>2026-04-26T08:05:23.232Z</time></trkpt><trkpt lat="43.154915" lon="13.059395"><ele>410.0</ele><time>2026-04-26T08:05:24.234Z</time></trkpt><trkpt lat="43.1547933" lon="13.059345"><ele>410.0</ele><time>2026-04-26T08:05:25.231Z</time></trkpt><trkpt lat="43.1546683" lon="13.0593483"><ele>410.0</ele><time>2026-04-26T08:05:26.232Z</time></trkpt><trkpt lat="43.15455" lon="13.0593983"><ele>411.5</ele><time>2026-04-26T08:05:27.233Z</time></trkpt><trkpt lat="43.1544367" lon="13.0594733"><ele>413.0</ele><time>2026-04-26T08:05:28.234Z</time></trkpt><trkpt lat="43.1543217" lon="13.059575"><ele>414.5</ele><time>2026-04-26T08:05:29.235Z</time></trkpt><trkpt lat="43.154205" lon="13.059685"><ele>416.0</ele><time>2026-04-26T08:05:30.233Z</time></trkpt><trkpt lat="43.154095" lon="13.0598067"><ele>417.0</ele><time>2026-04-26T08:05:31.231Z</time></trkpt><trkpt lat="43.15399" lon="13.0599433"><ele>418.0</ele><time>2026-04-26T08:05:32.229Z</time></trkpt><trkpt lat="43.15389" lon="13.0601083"><ele>419.0</ele><time>2026-04-26T08:05:33.232Z</time></trkpt><trkpt lat="43.15379" lon="13.0603333"><ele>419.0</ele><time>2026-04-26T08:05:34.234Z</time></trkpt><trkpt lat="43.1537" lon="13.0605783"><ele>419.0</ele><time>2026-04-26T08:05:35.233Z</time></trkpt><trkpt lat="43.1536217" lon="13.0608083"><ele>419.0</ele><time>2026-04-26T08:05:36.236Z</time></trkpt><trkpt lat="43.15356" lon="13.0610233"><ele>419.0</ele><time>2026-04-26T08:05:37.232Z</time></trkpt><trkpt lat="43.1535067" lon="13.061225"><ele>419.0</ele><time>2026-04-26T08:05:38.233Z</time></trkpt><trkpt lat="43.1534467" lon="13.06142"><ele>419.0</ele><time>2026-04-26T08:05:39.234Z</time></trkpt><trkpt lat="43.1533733" lon="13.061605"><ele>418.66666666666663</ele><time>2026-04-26T08:05:40.233Z</time></trkpt><trkpt lat="43.1532767" lon="13.0617667"><ele>418.33333333333337</ele><time>2026-04-26T08:05:41.233Z</time></trkpt><trkpt lat="43.1531467" lon="13.0619167"><ele>418.0</ele><time>2026-04-26T08:05:42.231Z</time></trkpt><trkpt lat="43.1529833" lon="13.062065"><ele>422.5</ele><time>2026-04-26T08:05:43.231Z</time></trkpt><trkpt lat="43.1527717" lon="13.062195"><ele>427.0</ele><time>2026-04-26T08:05:44.232Z</time></trkpt><trkpt lat="43.1525367" lon="13.0623233"><ele>430.5</ele><time>2026-04-26T08:05:45.236Z</time></trkpt><trkpt lat="43.15231" lon="13.0624517"><ele>434.0</ele><time>2026-04-26T08:05:46.233Z</time></trkpt><trkpt lat="43.15211" lon="13.0625667"><ele>434.0</ele><time>2026-04-26T08:05:47.232Z</time></trkpt><trkpt lat="43.1519433" lon="13.0626383"><ele>434.0</ele><time>2026-04-26T08:05:48.233Z</time></trkpt><trkpt lat="43.151795" lon="13.0626433"><ele>434.0</ele><time>2026-04-26T08:05:49.233Z</time></trkpt><trkpt lat="43.1516783" lon="13.0625917"><ele>434.0</ele><time>2026-04-26T08:05:50.233Z</time></trkpt><trkpt lat="43.1515817" lon="13.062485"><ele>435.0</ele><time>2026-04-26T08:05:51.233Z</time></trkpt><trkpt lat="43.15152" lon="13.062325"><ele>436.0</ele><time>2026-04-26T08:05:52.233Z</time></trkpt><trkpt lat="43.1515033" lon="13.0621167"><ele>437.0</ele><time>2026-04-26T08:05:53.233Z</time></trkpt><trkpt lat="43.1515483" lon="13.0618533"><ele>438.3333333333333</ele><time>2026-04-26T08:05:54.231Z</time></trkpt><trkpt lat="43.1516133" lon="13.0615633"><ele>439.66666666666663</ele><time>2026-04-26T08:05:55.235Z</time></trkpt><trkpt lat="43.1516667" lon="13.0613033"><ele>441.0</ele><time>2026-04-26T08:05:56.233Z</time></trkpt><trkpt lat="43.1517067" lon="13.0610517"><ele>441.0</ele><time>2026-04-26T08:05:57.234Z</time></trkpt><trkpt lat="43.1517267" lon="13.0608183"><ele>441.0</ele><time>2026-04-26T08:05:58.233Z</time></trkpt><trkpt lat="43.1517083" lon="13.0606083"><ele>441.0</ele><time>2026-04-26T08:05:59.233Z</time></trkpt><trkpt lat="43.15165" lon="13.0604383"><ele>441.25</ele><time>2026-04-26T08:06:00.233Z</time></trkpt><trkpt lat="43.1515633" lon="13.0603217"><ele>441.5</ele><time>2026-04-26T08:06:01.233Z</time></trkpt><trkpt lat="43.1514533" lon="13.0602517"><ele>441.75</ele><time>2026-04-26T08:06:02.233Z</time></trkpt><trkpt lat="43.1513333" lon="13.06023"><ele>442.0</ele><time>2026-04-26T08:06:03.232Z</time></trkpt><trkpt lat="43.1512117" lon="13.0602667"><ele>444.75</ele><time>2026-04-26T08:06:04.23Z</time></trkpt><trkpt lat="43.1511" lon="13.0603517"><ele>447.5</ele><time>2026-04-26T08:06:05.234Z</time></trkpt><trkpt lat="43.1510083" lon="13.0604833"><ele>450.25</ele><time>2026-04-26T08:06:06.232Z</time></trkpt><trkpt lat="43.1509267" lon="13.06066"><ele>453.0</ele><time>2026-04-26T08:06:07.232Z</time></trkpt><trkpt lat="43.1508533" lon="13.06086"><ele>453.25</ele><time>2026-04-26T08:06:08.231Z</time></trkpt><trkpt lat="43.15078" lon="13.0610433"><ele>453.5</ele><time>2026-04-26T08:06:09.233Z</time></trkpt><trkpt lat="43.1507067" lon="13.06121"><ele>453.75</ele><time>2026-04-26T08:06:10.23Z</time></trkpt><trkpt lat="43.1506267" lon="13.0613667"><ele>454.0</ele><time>2026-04-26T08:06:11.232Z</time></trkpt><trkpt lat="43.1505267" lon="13.0615317"><ele>456.6666666666667</ele><time>2026-04-26T08:06:12.231Z</time></trkpt><trkpt lat="43.1504133" lon="13.0616983"><ele>459.33333333333337</ele><time>2026-04-26T08:06:13.231Z</time></trkpt><trkpt lat="43.1502917" lon="13.0618583"><ele>462.0</ele><time>2026-04-26T08:06:14.236Z</time></trkpt><trkpt lat="43.1501667" lon="13.0620183"><ele>462.0</ele><time>2026-04-26T08:06:15.231Z</time></trkpt><trkpt lat="43.15004" lon="13.062175"><ele>462.0</ele><time>2026-04-26T08:06:16.233Z</time></trkpt><trkpt lat="43.1499183" lon="13.0623317"><ele>462.0</ele><time>2026-04-26T08:06:17.233Z</time></trkpt><trkpt lat="43.149795" lon="13.06249"><ele>465.0</ele><time>2026-04-26T08:06:18.232Z</time></trkpt><trkpt lat="43.149665" lon="13.06265"><ele>468.0</ele><time>2026-04-26T08:06:19.233Z</time></trkpt><trkpt lat="43.1495317" lon="13.0628167"><ele>471.0</ele><time>2026-04-26T08:06:20.233Z</time></trkpt><trkpt lat="43.149395" lon="13.06298"><ele>471.0</ele><time>2026-04-26T08:06:21.237Z</time></trkpt><trkpt lat="43.149255" lon="13.0631283"><ele>471.0</ele><time>2026-04-26T08:06:22.234Z</time></trkpt><trkpt lat="43.149115" lon="13.063265"><ele>471.0</ele><time>2026-04-26T08:06:23.234Z</time></trkpt><trkpt lat="43.1489733" lon="13.063395"><ele>473.0</ele><time>2026-04-26T08:06:24.235Z</time></trkpt><trkpt lat="43.148825" lon="13.0635267"><ele>475.0</ele><time>2026-04-26T08:06:25.234Z</time></trkpt><trkpt lat="43.1486717" lon="13.0636617"><ele>477.0</ele><time>2026-04-26T08:06:26.233Z</time></trkpt><trkpt lat="43.1485167" lon="13.0637983"><ele>477.0</ele><time>2026-04-26T08:06:27.233Z</time></trkpt><trkpt lat="43.1483633" lon="13.0639367"><ele>477.0</ele><time>2026-04-26T08:06:28.233Z</time></trkpt><trkpt lat="43.148215" lon="13.064075"><ele>477.0</ele><time>2026-04-26T08:06:29.233Z</time></trkpt><trkpt lat="43.1480683" lon="13.0642117"><ele>479.5</ele><time>2026-04-26T08:06:30.232Z</time></trkpt><trkpt lat="43.1479333" lon="13.0643367"><ele>482.0</ele><time>2026-04-26T08:06:31.235Z</time></trkpt><trkpt lat="43.1478083" lon="13.0644433"><ele>484.5</ele><time>2026-04-26T08:06:32.232Z</time></trkpt><trkpt lat="43.147695" lon="13.0645433"><ele>487.0</ele><time>2026-04-26T08:06:33.235Z</time></trkpt><trkpt lat="43.1475867" lon="13.0646433"><ele>487.0</ele><time>2026-04-26T08:06:34.231Z</time></trkpt><trkpt lat="43.1474783" lon="13.0647333"><ele>487.0</ele><time>2026-04-26T08:06:35.231Z</time></trkpt><trkpt lat="43.1473783" lon="13.06481"><ele>487.0</ele><time>2026-04-26T08:06:36.235Z</time></trkpt><trkpt lat="43.147275" lon="13.0648733"><ele>487.0</ele><time>2026-04-26T08:06:37.232Z</time></trkpt><trkpt lat="43.147165" lon="13.0649167"><ele>487.25</ele><time>2026-04-26T08:06:38.231Z</time></trkpt><trkpt lat="43.1470483" lon="13.0649433"><ele>487.5</ele><time>2026-04-26T08:06:39.234Z</time></trkpt><trkpt lat="43.146925" lon="13.0649683"><ele>487.75</ele><time>2026-04-26T08:06:40.231Z</time></trkpt><trkpt lat="43.1467983" lon="13.0650067"><ele>488.0</ele><time>2026-04-26T08:06:41.232Z</time></trkpt><trkpt lat="43.1466717" lon="13.0650583"><ele>488.0</ele><time>2026-04-26T08:06:42.233Z</time></trkpt><trkpt lat="43.1465483" lon="13.0651133"><ele>488.0</ele><time>2026-04-26T08:06:43.232Z</time></trkpt><trkpt lat="43.146435" lon="13.0651583"><ele>488.0</ele><time>2026-04-26T08:06:44.232Z</time></trkpt><trkpt lat="43.1463133" lon="13.0652017"><ele>488.0</ele><time>2026-04-26T08:06:45.235Z</time></trkpt><trkpt lat="43.1461917" lon="13.065245"><ele>490.0</ele><time>2026-04-26T08:06:46.234Z</time></trkpt><trkpt lat="43.1460783" lon="13.0652867"><ele>491.99999999999994</ele><time>2026-04-26T08:06:47.232Z</time></trkpt><trkpt lat="43.1459783" lon="13.0653217"><ele>493.99999999999994</ele><time>2026-04-26T08:06:48.238Z</time></trkpt><trkpt lat="43.145885" lon="13.0653333"><ele>496.0</ele><time>2026-04-26T08:06:49.232Z</time></trkpt><trkpt lat="43.145795" lon="13.0653067"><ele>498.0</ele><time>2026-04-26T08:06:50.23Z</time></trkpt><trkpt lat="43.14571" lon="13.065275"><ele>498.59999999999997</ele><time>2026-04-26T08:06:51.237Z</time></trkpt><trkpt lat="43.1456283" lon="13.0652567"><ele>499.19999999999993</ele><time>2026-04-26T08:06:52.231Z</time></trkpt><trkpt lat="43.1455517" lon="13.0652767"><ele>499.8</ele><time>2026-04-26T08:06:53.231Z</time></trkpt><trkpt lat="43.1454883" lon="13.0653767"><ele>500.4</ele><time>2026-04-26T08:06:54.232Z</time></trkpt><trkpt lat="43.1454067" lon="13.0654967"><ele>501.0</ele><time>2026-04-26T08:06:55.235Z</time></trkpt><trkpt lat="43.1453033" lon="13.0656067"><ele>501.0</ele><time>2026-04-26T08:06:56.233Z</time></trkpt><trkpt lat="43.1451867" lon="13.06569"><ele>501.0</ele><time>2026-04-26T08:06:57.234Z</time></trkpt><trkpt lat="43.14507" lon="13.065755"><ele>501.0</ele><time>2026-04-26T08:06:58.233Z</time></trkpt><trkpt lat="43.1449533" lon="13.06581"><ele>501.0</ele><time>2026-04-26T08:06:59.233Z</time></trkpt><trkpt lat="43.144835" lon="13.065865"><ele>503.0</ele><time>2026-04-26T08:07:00.231Z</time></trkpt><trkpt lat="43.1447217" lon="13.0659183"><ele>505.0</ele><time>2026-04-26T08:07:01.236Z</time></trkpt><trkpt lat="43.1446167" lon="13.065965"><ele>507.0</ele><time>2026-04-26T08:07:02.233Z</time></trkpt><trkpt lat="43.1445183" lon="13.066"><ele>509.0</ele><time>2026-04-26T08:07:03.235Z</time></trkpt><trkpt lat="43.1444317" lon="13.0660217"><ele>511.0</ele><time>2026-04-26T08:07:04.231Z</time></trkpt><trkpt lat="43.1443517" lon="13.0660233"><ele>511.0</ele><time>2026-04-26T08:07:05.232Z</time></trkpt><trkpt lat="43.14427" lon="13.0660217"><ele>511.0</ele><time>2026-04-26T08:07:06.235Z</time></trkpt><trkpt lat="43.1441867" lon="13.0660367"><ele>511.0</ele><time>2026-04-26T08:07:07.235Z</time></trkpt><trkpt lat="43.144115" lon="13.0661133"><ele>511.0</ele><time>2026-04-26T08:07:08.232Z</time></trkpt><trkpt lat="43.14404" lon="13.0661967"><ele>511.0</ele><time>2026-04-26T08:07:09.236Z</time></trkpt><trkpt lat="43.143955" lon="13.0662633"><ele>512.4</ele><time>2026-04-26T08:07:10.234Z</time></trkpt><trkpt lat="43.1438633" lon="13.0663183"><ele>513.8</ele><time>2026-04-26T08:07:11.234Z</time></trkpt><trkpt lat="43.1437683" lon="13.0663783"><ele>515.1999999999999</ele><time>2026-04-26T08:07:12.234Z</time></trkpt><trkpt lat="43.143675" lon="13.06645"><ele>516.6</ele><time>2026-04-26T08:07:13.233Z</time></trkpt><trkpt lat="43.143575" lon="13.0665283"><ele>518.0</ele><time>2026-04-26T08:07:14.234Z</time></trkpt><trkpt lat="43.1434767" lon="13.0666117"><ele>519.1999999999999</ele><time>2026-04-26T08:07:15.231Z</time></trkpt><trkpt lat="43.1433917" lon="13.0667067"><ele>520.4</ele><time>2026-04-26T08:07:16.228Z</time></trkpt><trkpt lat="43.1433233" lon="13.0667983"><ele>521.5999999999999</ele><time>2026-04-26T08:07:17.232Z</time></trkpt><trkpt lat="43.1432567" lon="13.0668933"><ele>522.8</ele><time>2026-04-26T08:07:18.231Z</time></trkpt><trkpt lat="43.1431917" lon="13.06699"><ele>524.0</ele><time>2026-04-26T08:07:19.231Z</time></trkpt><trkpt lat="43.14311" lon="13.06709"><ele>526.0</ele><time>2026-04-26T08:07:20.232Z</time></trkpt><trkpt lat="43.143015" lon="13.06719"><ele>528.0</ele><time>2026-04-26T08:07:21.233Z</time></trkpt><trkpt lat="43.1429217" lon="13.0672817"><ele>530.0</ele><time>2026-04-26T08:07:22.23Z</time></trkpt><trkpt lat="43.1428267" lon="13.0673633"><ele>532.0</ele><time>2026-04-26T08:07:23.231Z</time></trkpt><trkpt lat="43.1427283" lon="13.0674333"><ele>532.1666666666667</ele><time>2026-04-26T08:07:24.232Z</time></trkpt><trkpt lat="43.14265" lon="13.0674967"><ele>532.3333333333334</ele><time>2026-04-26T08:07:25.232Z</time></trkpt><trkpt lat="43.1425867" lon="13.0675633"><ele>532.5</ele><time>2026-04-26T08:07:26.232Z</time></trkpt><trkpt lat="43.1425417" lon="13.067635"><ele>532.6666666666666</ele><time>2026-04-26T08:07:27.232Z</time></trkpt><trkpt lat="43.142585" lon="13.0677667"><ele>532.8333333333333</ele><time>2026-04-26T08:07:29.231Z</time></trkpt><trkpt lat="43.1426733" lon="13.0678167"><ele>533.0</ele><time>2026-04-26T08:07:30.232Z</time></trkpt><trkpt lat="43.1427767" lon="13.0678583"><ele>533.0</ele><time>2026-04-26T08:07:31.232Z</time></trkpt><trkpt lat="43.1428767" lon="13.0679133"><ele>533.0</ele><time>2026-04-26T08:07:32.232Z</time></trkpt><trkpt lat="43.1429567" lon="13.0679833"><ele>533.0</ele><time>2026-04-26T08:07:33.233Z</time></trkpt><trkpt lat="43.1430183" lon="13.0680617"><ele>533.0</ele><time>2026-04-26T08:07:34.233Z</time></trkpt><trkpt lat="43.14306" lon="13.0681483"><ele>533.0</ele><time>2026-04-26T08:07:35.233Z</time></trkpt><trkpt lat="43.1430783" lon="13.0682333"><ele>533.0</ele><time>2026-04-26T08:07:36.234Z</time></trkpt><trkpt lat="43.1429917" lon="13.0683483"><ele>533.5</ele><time>2026-04-26T08:07:38.233Z</time></trkpt><trkpt lat="43.1429067" lon="13.068375"><ele>534.0</ele><time>2026-04-26T08:07:39.231Z</time></trkpt><trkpt lat="43.1428017" lon="13.0683867"><ele>534.5</ele><time>2026-04-26T08:07:40.23Z</time></trkpt><trkpt lat="43.14267" lon="13.0683667"><ele>535.0</ele><time>2026-04-26T08:07:41.235Z</time></trkpt><trkpt lat="43.1425333" lon="13.06831"><ele>534.3333333333334</ele><time>2026-04-26T08:07:42.232Z</time></trkpt><trkpt lat="43.1423883" lon="13.0682083"><ele>533.6666666666666</ele><time>2026-04-26T08:07:43.231Z</time></trkpt><trkpt lat="43.14225" lon="13.0680867"><ele>533.0</ele><time>2026-04-26T08:07:44.232Z</time></trkpt><trkpt lat="43.14211" lon="13.0679583"><ele>535.6666666666666</ele><time>2026-04-26T08:07:45.233Z</time></trkpt><trkpt lat="43.141975" lon="13.0678333"><ele>538.3333333333334</ele><time>2026-04-26T08:07:46.231Z</time></trkpt><trkpt lat="43.1418417" lon="13.0677083"><ele>541.0</ele><time>2026-04-26T08:07:47.233Z</time></trkpt><trkpt lat="43.14171" lon="13.0675867"><ele>541.0</ele><time>2026-04-26T08:07:48.23Z</time></trkpt><trkpt lat="43.1415783" lon="13.0674667"><ele>541.0</ele><time>2026-04-26T08:07:49.233Z</time></trkpt><trkpt lat="43.1414467" lon="13.067345"><ele>541.0</ele><time>2026-04-26T08:07:50.233Z</time></trkpt><trkpt lat="43.1412867" lon="13.06707"><ele>542.5</ele><time>2026-04-26T08:07:51.233Z</time></trkpt><trkpt lat="43.1411267" lon="13.0667333"><ele>544.0</ele><time>2026-04-26T08:07:52.233Z</time></trkpt><trkpt lat="43.1409533" lon="13.0664183"><ele>543.3333333333334</ele><time>2026-04-26T08:07:53.231Z</time></trkpt><trkpt lat="43.1408083" lon="13.0661767"><ele>542.6666666666666</ele><time>2026-04-26T08:07:54.236Z</time></trkpt><trkpt lat="43.14066" lon="13.06597"><ele>542.0</ele><time>2026-04-26T08:07:55.233Z</time></trkpt><trkpt lat="43.14052" lon="13.0657783"><ele>542.0</ele><time>2026-04-26T08:07:56.236Z</time></trkpt><trkpt lat="43.1403817" lon="13.0655933"><ele>542.0</ele><time>2026-04-26T08:07:57.234Z</time></trkpt><trkpt lat="43.1402433" lon="13.0654"><ele>542.0</ele><time>2026-04-26T08:07:58.232Z</time></trkpt><trkpt lat="43.140105" lon="13.06521"><ele>542.0</ele><time>2026-04-26T08:07:59.233Z</time></trkpt><trkpt lat="43.1399783" lon="13.065005"><ele>542.0</ele><time>2026-04-26T08:08:00.232Z</time></trkpt><trkpt lat="43.13987" lon="13.0647833"><ele>542.0</ele><time>2026-04-26T08:08:01.235Z</time></trkpt><trkpt lat="43.1397833" lon="13.06454"><ele>541.6666666666666</ele><time>2026-04-26T08:08:02.235Z</time></trkpt><trkpt lat="43.1397117" lon="13.06428"><ele>541.3333333333334</ele><time>2026-04-26T08:08:03.234Z</time></trkpt><trkpt lat="43.1396367" lon="13.0640133"><ele>541.0</ele><time>2026-04-26T08:08:04.233Z</time></trkpt><trkpt lat="43.139535" lon="13.0637567"><ele>541.0</ele><time>2026-04-26T08:08:05.233Z</time></trkpt><trkpt lat="43.1394017" lon="13.063525"><ele>541.0</ele><time>2026-04-26T08:08:06.237Z</time></trkpt><trkpt lat="43.13925" lon="13.0632983"><ele>541.0</ele><time>2026-04-26T08:08:07.234Z</time></trkpt><trkpt lat="43.1390933" lon="13.0630733"><ele>543.0</ele><time>2026-04-26T08:08:08.235Z</time></trkpt><trkpt lat="43.138935" lon="13.0628417"><ele>545.0</ele><time>2026-04-26T08:08:09.234Z</time></trkpt><trkpt lat="43.138775" lon="13.06261"><ele>543.0</ele><time>2026-04-26T08:08:10.235Z</time></trkpt><trkpt lat="43.138615" lon="13.0623767"><ele>541.0</ele><time>2026-04-26T08:08:11.235Z</time></trkpt><trkpt lat="43.1384567" lon="13.062145"><ele>541.0</ele><time>2026-04-26T08:08:12.234Z</time></trkpt><trkpt lat="43.1382983" lon="13.0619133"><ele>541.0</ele><time>2026-04-26T08:08:13.233Z</time></trkpt><trkpt lat="43.1381433" lon="13.0616883"><ele>542.0</ele><time>2026-04-26T08:08:14.231Z</time></trkpt><trkpt lat="43.1379933" lon="13.061475"><ele>543.0</ele><time>2026-04-26T08:08:15.234Z</time></trkpt><trkpt lat="43.1378433" lon="13.0612833"><ele>544.0</ele><time>2026-04-26T08:08:16.236Z</time></trkpt><trkpt lat="43.137685" lon="13.0611283"><ele>544.0</ele><time>2026-04-26T08:08:17.237Z</time></trkpt><trkpt lat="43.1375067" lon="13.061015"><ele>544.0</ele><time>2026-04-26T08:08:18.234Z</time></trkpt><trkpt lat="43.13731" lon="13.0609317"><ele>544.0</ele><time>2026-04-26T08:08:19.235Z</time></trkpt><trkpt lat="43.137105" lon="13.0608633"><ele>543.6666666666667</ele><time>2026-04-26T08:08:20.233Z</time></trkpt><trkpt lat="43.1368933" lon="13.0607933"><ele>543.3333333333334</ele><time>2026-04-26T08:08:21.237Z</time></trkpt><trkpt lat="43.1366817" lon="13.0607267"><ele>543.0</ele><time>2026-04-26T08:08:22.235Z</time></trkpt><trkpt lat="43.1364667" lon="13.0606717"><ele>542.3333333333334</ele><time>2026-04-26T08:08:23.232Z</time></trkpt><trkpt lat="43.13625" lon="13.0606333"><ele>541.6666666666667</ele><time>2026-04-26T08:08:24.232Z</time></trkpt><trkpt lat="43.1360267" lon="13.0606117"><ele>541.0</ele><time>2026-04-26T08:08:25.235Z</time></trkpt><trkpt lat="43.1357917" lon="13.0606017"><ele>542.5</ele><time>2026-04-26T08:08:26.232Z</time></trkpt><trkpt lat="43.1355567" lon="13.0605983"><ele>544.0</ele><time>2026-04-26T08:08:27.232Z</time></trkpt><trkpt lat="43.1353183" lon="13.0605967"><ele>544.0</ele><time>2026-04-26T08:08:28.233Z</time></trkpt><trkpt lat="43.1350833" lon="13.0605917"><ele>544.0</ele><time>2026-04-26T08:08:29.232Z</time></trkpt><trkpt lat="43.1348517" lon="13.0605883"><ele>545.6666666666667</ele><time>2026-04-26T08:08:30.233Z</time></trkpt><trkpt lat="43.1346283" lon="13.060585"><ele>547.3333333333334</ele><time>2026-04-26T08:08:31.235Z</time></trkpt><trkpt lat="43.1344133" lon="13.06058"><ele>549.0</ele><time>2026-04-26T08:08:32.234Z</time></trkpt><trkpt lat="43.1341983" lon="13.06057"><ele>552.6666666666666</ele><time>2026-04-26T08:08:33.234Z</time></trkpt><trkpt lat="43.1339883" lon="13.060545"><ele>556.3333333333333</ele><time>2026-04-26T08:08:34.233Z</time></trkpt><trkpt lat="43.1337883" lon="13.0604967"><ele>560.0</ele><time>2026-04-26T08:08:35.233Z</time></trkpt><trkpt lat="43.1336033" lon="13.0604267"><ele>560.0</ele><time>2026-04-26T08:08:36.233Z</time></trkpt><trkpt lat="43.1334367" lon="13.0603283"><ele>560.0</ele><time>2026-04-26T08:08:37.232Z</time></trkpt><trkpt lat="43.1332817" lon="13.0602083"><ele>560.0</ele><time>2026-04-26T08:08:38.232Z</time></trkpt><trkpt lat="43.13313" lon="13.0600733"><ele>559.0</ele><time>2026-04-26T08:08:39.237Z</time></trkpt><trkpt lat="43.1329733" lon="13.0599333"><ele>558.0</ele><time>2026-04-26T08:08:40.233Z</time></trkpt><trkpt lat="43.132805" lon="13.0597983"><ele>557.0</ele><time>2026-04-26T08:08:41.234Z</time></trkpt><trkpt lat="43.1326317" lon="13.059675"><ele>557.0</ele><time>2026-04-26T08:08:42.236Z</time></trkpt><trkpt lat="43.13246" lon="13.05957"><ele>557.0</ele><time>2026-04-26T08:08:43.233Z</time></trkpt><trkpt lat="43.1322917" lon="13.05949"><ele>557.0</ele><time>2026-04-26T08:08:44.233Z</time></trkpt><trkpt lat="43.13213" lon="13.0594383"><ele>558.0</ele><time>2026-04-26T08:08:45.234Z</time></trkpt><trkpt lat="43.1319683" lon="13.059415"><ele>559.0</ele><time>2026-04-26T08:08:46.233Z</time></trkpt><trkpt lat="43.1318" lon="13.0594133"><ele>560.0</ele><time>2026-04-26T08:08:47.24Z</time></trkpt><trkpt lat="43.1316183" lon="13.0594267"><ele>557.3333333333333</ele><time>2026-04-26T08:08:48.232Z</time></trkpt><trkpt lat="43.13143" lon="13.0594267"><ele>554.6666666666666</ele><time>2026-04-26T08:08:49.238Z</time></trkpt><trkpt lat="43.1312367" lon="13.0594067"><ele>552.0</ele><time>2026-04-26T08:08:50.235Z</time></trkpt><trkpt lat="43.1310483" lon="13.05937"><ele>552.0</ele><time>2026-04-26T08:08:51.24Z</time></trkpt><trkpt lat="43.1308633" lon="13.0593183"><ele>552.0</ele><time>2026-04-26T08:08:52.233Z</time></trkpt><trkpt lat="43.130685" lon="13.0592667"><ele>552.0</ele><time>2026-04-26T08:08:53.233Z</time></trkpt><trkpt lat="43.1305117" lon="13.0592217"><ele>550.6666666666666</ele><time>2026-04-26T08:08:54.233Z</time></trkpt><trkpt lat="43.1303433" lon="13.059195"><ele>549.3333333333333</ele><time>2026-04-26T08:08:55.236Z</time></trkpt><trkpt lat="43.1301833" lon="13.0591983"><ele>548.0</ele><time>2026-04-26T08:08:56.232Z</time></trkpt><trkpt lat="43.1300333" lon="13.0592417"><ele>545.0</ele><time>2026-04-26T08:08:57.233Z</time></trkpt><trkpt lat="43.129885" lon="13.059305"><ele>542.0</ele><time>2026-04-26T08:08:58.233Z</time></trkpt><trkpt lat="43.1297417" lon="13.059375"><ele>539.0</ele><time>2026-04-26T08:08:59.233Z</time></trkpt><trkpt lat="43.1296" lon="13.0594317"><ele>539.0</ele><time>2026-04-26T08:09:00.233Z</time></trkpt><trkpt lat="43.1294633" lon="13.05948"><ele>539.0</ele><time>2026-04-26T08:09:01.234Z</time></trkpt><trkpt lat="43.1293233" lon="13.0595133"><ele>539.0</ele><time>2026-04-26T08:09:02.232Z</time></trkpt><trkpt lat="43.12919" lon="13.0595317"><ele>539.0</ele><time>2026-04-26T08:09:03.232Z</time></trkpt><trkpt lat="43.129065" lon="13.0595467"><ele>537.4</ele><time>2026-04-26T08:09:04.235Z</time></trkpt><trkpt lat="43.128955" lon="13.0595467"><ele>535.8</ele><time>2026-04-26T08:09:05.237Z</time></trkpt><trkpt lat="43.1288667" lon="13.0595183"><ele>534.2</ele><time>2026-04-26T08:09:06.235Z</time></trkpt><trkpt lat="43.1288233" lon="13.0594517"><ele>532.6</ele><time>2026-04-26T08:09:07.232Z</time></trkpt><trkpt lat="43.128835" lon="13.059275"><ele>531.0</ele><time>2026-04-26T08:09:09.234Z</time></trkpt><trkpt lat="43.1288783" lon="13.0591767"><ele>529.0</ele><time>2026-04-26T08:09:10.232Z</time></trkpt><trkpt lat="43.129" lon="13.059095"><ele>527.0</ele><time>2026-04-26T08:09:11.232Z</time></trkpt><trkpt lat="43.129145" lon="13.05901"><ele>525.0</ele><time>2026-04-26T08:09:12.236Z</time></trkpt><trkpt lat="43.129305" lon="13.058935"><ele>525.0</ele><time>2026-04-26T08:09:13.234Z</time></trkpt><trkpt lat="43.1294633" lon="13.0588533"><ele>525.0</ele><time>2026-04-26T08:09:14.235Z</time></trkpt><trkpt lat="43.129615" lon="13.058755"><ele>525.0</ele><time>2026-04-26T08:09:15.235Z</time></trkpt><trkpt lat="43.1297633" lon="13.0586383"><ele>524.0</ele><time>2026-04-26T08:09:16.233Z</time></trkpt><trkpt lat="43.1299" lon="13.0585017"><ele>523.0</ele><time>2026-04-26T08:09:17.229Z</time></trkpt><trkpt lat="43.1300433" lon="13.0583533"><ele>522.0</ele><time>2026-04-26T08:09:18.233Z</time></trkpt><trkpt lat="43.1301683" lon="13.0581817"><ele>522.0</ele><time>2026-04-26T08:09:19.232Z</time></trkpt><trkpt lat="43.1302883" lon="13.057985"><ele>522.0</ele><time>2026-04-26T08:09:20.232Z</time></trkpt><trkpt lat="43.130385" lon="13.0577783"><ele>522.0</ele><time>2026-04-26T08:09:21.234Z</time></trkpt><trkpt lat="43.1304583" lon="13.0575667"><ele>521.0</ele><time>2026-04-26T08:09:22.233Z</time></trkpt><trkpt lat="43.130495" lon="13.0573483"><ele>520.0</ele><time>2026-04-26T08:09:23.235Z</time></trkpt><trkpt lat="43.1304983" lon="13.05712"><ele>519.0</ele><time>2026-04-26T08:09:24.231Z</time></trkpt><trkpt lat="43.1304617" lon="13.0568833"><ele>519.0</ele><time>2026-04-26T08:09:25.235Z</time></trkpt><trkpt lat="43.1303867" lon="13.0566483"><ele>519.0</ele><time>2026-04-26T08:09:26.232Z</time></trkpt><trkpt lat="43.1302917" lon="13.0564317"><ele>519.0</ele><time>2026-04-26T08:09:27.234Z</time></trkpt><trkpt lat="43.1301817" lon="13.0562267"><ele>519.6666666666666</ele><time>2026-04-26T08:09:28.234Z</time></trkpt><trkpt lat="43.1300617" lon="13.0560383"><ele>520.3333333333333</ele><time>2026-04-26T08:09:29.235Z</time></trkpt><trkpt lat="43.1299367" lon="13.05587"><ele>521.0</ele><time>2026-04-26T08:09:30.234Z</time></trkpt><trkpt lat="43.1298083" lon="13.0557233"><ele>517.75</ele><time>2026-04-26T08:09:31.232Z</time></trkpt><trkpt lat="43.1296817" lon="13.0556017"><ele>514.5</ele><time>2026-04-26T08:09:32.233Z</time></trkpt><trkpt lat="43.12956" lon="13.0554883"><ele>511.25</ele><time>2026-04-26T08:09:33.234Z</time></trkpt><trkpt lat="43.1294617" lon="13.0553617"><ele>508.0</ele><time>2026-04-26T08:09:34.234Z</time></trkpt><trkpt lat="43.12939" lon="13.0552217"><ele>508.0</ele><time>2026-04-26T08:09:35.236Z</time></trkpt><trkpt lat="43.12935" lon="13.05507"><ele>508.0</ele><time>2026-04-26T08:09:36.233Z</time></trkpt><trkpt lat="43.12933" lon="13.05491"><ele>508.0</ele><time>2026-04-26T08:09:37.235Z</time></trkpt><trkpt lat="43.1293267" lon="13.0547417"><ele>508.0</ele><time>2026-04-26T08:09:38.231Z</time></trkpt><trkpt lat="43.12932" lon="13.0545717"><ele>507.0</ele><time>2026-04-26T08:09:39.236Z</time></trkpt><trkpt lat="43.1293117" lon="13.0543933"><ele>506.0</ele><time>2026-04-26T08:09:40.233Z</time></trkpt><trkpt lat="43.1293017" lon="13.05421"><ele>505.0</ele><time>2026-04-26T08:09:41.234Z</time></trkpt><trkpt lat="43.1292933" lon="13.05403"><ele>504.0</ele><time>2026-04-26T08:09:42.232Z</time></trkpt><trkpt lat="43.1292867" lon="13.0538567"><ele>504.0</ele><time>2026-04-26T08:09:43.234Z</time></trkpt><trkpt lat="43.1292633" lon="13.05369"><ele>504.0</ele><time>2026-04-26T08:09:44.231Z</time></trkpt><trkpt lat="43.1292267" lon="13.0535433"><ele>504.0</ele><time>2026-04-26T08:09:45.234Z</time></trkpt><trkpt lat="43.1291767" lon="13.0534017"><ele>504.0</ele><time>2026-04-26T08:09:46.23Z</time></trkpt><trkpt lat="43.1291183" lon="13.053265"><ele>504.4</ele><time>2026-04-26T08:09:47.231Z</time></trkpt><trkpt lat="43.1290617" lon="13.05314"><ele>504.79999999999995</ele><time>2026-04-26T08:09:48.232Z</time></trkpt><trkpt lat="43.129" lon="13.0530233"><ele>505.20000000000005</ele><time>2026-04-26T08:09:49.233Z</time></trkpt><trkpt lat="43.1289317" lon="13.052915"><ele>505.6</ele><time>2026-04-26T08:09:50.23Z</time></trkpt><trkpt lat="43.12885" lon="13.0528167"><ele>506.0</ele><time>2026-04-26T08:09:51.232Z</time></trkpt><trkpt lat="43.1287467" lon="13.05274"><ele>506.0</ele><time>2026-04-26T08:09:52.23Z</time></trkpt><trkpt lat="43.1286383" lon="13.0527033"><ele>506.0</ele><time>2026-04-26T08:09:53.231Z</time></trkpt><trkpt lat="43.128535" lon="13.0527183"><ele>506.0</ele><time>2026-04-26T08:09:54.234Z</time></trkpt><trkpt lat="43.128445" lon="13.052795"><ele>506.0</ele><time>2026-04-26T08:09:55.233Z</time></trkpt><trkpt lat="43.1283767" lon="13.0529133"><ele>506.0</ele><time>2026-04-26T08:09:56.233Z</time></trkpt><trkpt lat="43.1283217" lon="13.0530767"><ele>503.0</ele><time>2026-04-26T08:09:57.236Z</time></trkpt><trkpt lat="43.1282967" lon="13.053315"><ele>500.0</ele><time>2026-04-26T08:09:58.234Z</time></trkpt><trkpt lat="43.1282833" lon="13.05356"><ele>497.0</ele><time>2026-04-26T08:09:59.232Z</time></trkpt><trkpt lat="43.128285" lon="13.053815"><ele>497.0</ele><time>2026-04-26T08:10:00.233Z</time></trkpt><trkpt lat="43.1283117" lon="13.0540683"><ele>497.0</ele><time>2026-04-26T08:10:01.231Z</time></trkpt><trkpt lat="43.12835" lon="13.0543033"><ele>497.0</ele><time>2026-04-26T08:10:02.231Z</time></trkpt><trkpt lat="43.1283817" lon="13.0545133"><ele>496.25</ele><time>2026-04-26T08:10:03.233Z</time></trkpt><trkpt lat="43.1283917" lon="13.0547017"><ele>495.5</ele><time>2026-04-26T08:10:04.234Z</time></trkpt><trkpt lat="43.128375" lon="13.05487"><ele>494.75</ele><time>2026-04-26T08:10:05.231Z</time></trkpt><trkpt lat="43.1283183" lon="13.0550167"><ele>494.0</ele><time>2026-04-26T08:10:06.233Z</time></trkpt><trkpt lat="43.1282217" lon="13.05515"><ele>488.66666666666663</ele><time>2026-04-26T08:10:07.229Z</time></trkpt><trkpt lat="43.1281033" lon="13.0552783"><ele>483.33333333333337</ele><time>2026-04-26T08:10:08.233Z</time></trkpt><trkpt lat="43.127965" lon="13.055405"><ele>478.0</ele><time>2026-04-26T08:10:09.236Z</time></trkpt><trkpt lat="43.12783" lon="13.0555333"><ele>478.0</ele><time>2026-04-26T08:10:10.237Z</time></trkpt><trkpt lat="43.1276983" lon="13.0556717"><ele>478.0</ele><time>2026-04-26T08:10:11.232Z</time></trkpt><trkpt lat="43.1275733" lon="13.055825"><ele>478.0</ele><time>2026-04-26T08:10:12.233Z</time></trkpt><trkpt lat="43.1274533" lon="13.0559967"><ele>475.33333333333337</ele><time>2026-04-26T08:10:13.232Z</time></trkpt><trkpt lat="43.1273383" lon="13.0561717"><ele>472.66666666666663</ele><time>2026-04-26T08:10:14.231Z</time></trkpt><trkpt lat="43.127225" lon="13.0563367"><ele>470.0</ele><time>2026-04-26T08:10:15.234Z</time></trkpt><trkpt lat="43.1271133" lon="13.05649"><ele>472.0</ele><time>2026-04-26T08:10:16.233Z</time></trkpt><trkpt lat="43.1269983" lon="13.05663"><ele>474.0</ele><time>2026-04-26T08:10:17.234Z</time></trkpt><trkpt lat="43.1268717" lon="13.0567417"><ele>476.0</ele><time>2026-04-26T08:10:18.237Z</time></trkpt><trkpt lat="43.1267367" lon="13.056805"><ele>478.0</ele><time>2026-04-26T08:10:19.235Z</time></trkpt><trkpt lat="43.1265933" lon="13.0568267"><ele>476.25</ele><time>2026-04-26T08:10:20.233Z</time></trkpt><trkpt lat="43.12645" lon="13.0568417"><ele>474.5</ele><time>2026-04-26T08:10:21.235Z</time></trkpt><trkpt lat="43.126315" lon="13.0568817"><ele>472.75</ele><time>2026-04-26T08:10:22.235Z</time></trkpt><trkpt lat="43.126195" lon="13.0569617"><ele>471.0</ele><time>2026-04-26T08:10:23.232Z</time></trkpt><trkpt lat="43.1260883" lon="13.0570817"><ele>471.0</ele><time>2026-04-26T08:10:24.232Z</time></trkpt><trkpt lat="43.1259867" lon="13.0572433"><ele>471.0</ele><time>2026-04-26T08:10:25.235Z</time></trkpt><trkpt lat="43.1258767" lon="13.0574317"><ele>471.0</ele><time>2026-04-26T08:10:26.232Z</time></trkpt><trkpt lat="43.1257633" lon="13.05762"><ele>468.33333333333337</ele><time>2026-04-26T08:10:27.235Z</time></trkpt><trkpt lat="43.1256517" lon="13.057795"><ele>465.6666666666667</ele><time>2026-04-26T08:10:28.229Z</time></trkpt><trkpt lat="43.125525" lon="13.0579567"><ele>463.0</ele><time>2026-04-26T08:10:29.233Z</time></trkpt><trkpt lat="43.1253783" lon="13.0580867"><ele>463.0</ele><time>2026-04-26T08:10:30.231Z</time></trkpt><trkpt lat="43.125215" lon="13.058195"><ele>463.0</ele><time>2026-04-26T08:10:31.23Z</time></trkpt><trkpt lat="43.1250483" lon="13.0583183"><ele>463.0</ele><time>2026-04-26T08:10:32.235Z</time></trkpt><trkpt lat="43.1248933" lon="13.0584633"><ele>461.0</ele><time>2026-04-26T08:10:33.235Z</time></trkpt><trkpt lat="43.1247517" lon="13.0586183"><ele>459.0</ele><time>2026-04-26T08:10:34.233Z</time></trkpt><trkpt lat="43.1246217" lon="13.0587717"><ele>457.0</ele><time>2026-04-26T08:10:35.232Z</time></trkpt><trkpt lat="43.1244867" lon="13.0589267"><ele>457.0</ele><time>2026-04-26T08:10:36.232Z</time></trkpt><trkpt lat="43.1243433" lon="13.0590733"><ele>457.0</ele><time>2026-04-26T08:10:37.232Z</time></trkpt><trkpt lat="43.1241867" lon="13.0591967"><ele>457.0</ele><time>2026-04-26T08:10:38.234Z</time></trkpt><trkpt lat="43.124015" lon="13.059295"><ele>456.33333333333337</ele><time>2026-04-26T08:10:39.235Z</time></trkpt><trkpt lat="43.1238367" lon="13.0593683"><ele>455.66666666666663</ele><time>2026-04-26T08:10:40.232Z</time></trkpt><trkpt lat="43.1236583" lon="13.05943"><ele>455.0</ele><time>2026-04-26T08:10:41.233Z</time></trkpt><trkpt lat="43.1234833" lon="13.0594783"><ele>455.0</ele><time>2026-04-26T08:10:42.234Z</time></trkpt><trkpt lat="43.12331" lon="13.0595067"><ele>455.0</ele><time>2026-04-26T08:10:43.233Z</time></trkpt><trkpt lat="43.12313" lon="13.0595"><ele>455.0</ele><time>2026-04-26T08:10:44.232Z</time></trkpt><trkpt lat="43.122945" lon="13.0594617"><ele>455.3333333333333</ele><time>2026-04-26T08:10:45.239Z</time></trkpt><trkpt lat="43.122755" lon="13.059405"><ele>455.66666666666663</ele><time>2026-04-26T08:10:46.235Z</time></trkpt><trkpt lat="43.122565" lon="13.0593383"><ele>456.0</ele><time>2026-04-26T08:10:47.234Z</time></trkpt><trkpt lat="43.1223733" lon="13.0592683"><ele>456.0</ele><time>2026-04-26T08:10:48.233Z</time></trkpt><trkpt lat="43.1221833" lon="13.059195"><ele>456.0</ele><time>2026-04-26T08:10:49.236Z</time></trkpt><trkpt lat="43.12201" lon="13.05911"><ele>456.0</ele><time>2026-04-26T08:10:50.234Z</time></trkpt><trkpt lat="43.12185" lon="13.0589983"><ele>455.66666666666663</ele><time>2026-04-26T08:10:51.235Z</time></trkpt><trkpt lat="43.121715" lon="13.0588483"><ele>455.3333333333333</ele><time>2026-04-26T08:10:52.233Z</time></trkpt><trkpt lat="43.121605" lon="13.0586583"><ele>455.0</ele><time>2026-04-26T08:10:53.232Z</time></trkpt><trkpt lat="43.1215133" lon="13.05844"><ele>456.3333333333333</ele><time>2026-04-26T08:10:54.235Z</time></trkpt><trkpt lat="43.1214233" lon="13.0582117"><ele>457.66666666666663</ele><time>2026-04-26T08:10:55.234Z</time></trkpt><trkpt lat="43.1213233" lon="13.0579933"><ele>459.0</ele><time>2026-04-26T08:10:56.233Z</time></trkpt><trkpt lat="43.121195" lon="13.0578067"><ele>459.0</ele><time>2026-04-26T08:10:57.233Z</time></trkpt><trkpt lat="43.121045" lon="13.0576533"><ele>459.0</ele><time>2026-04-26T08:10:58.232Z</time></trkpt><trkpt lat="43.1208717" lon="13.057525"><ele>459.0</ele><time>2026-04-26T08:10:59.241Z</time></trkpt><trkpt lat="43.1206783" lon="13.057395"><ele>460.5</ele><time>2026-04-26T08:11:00.234Z</time></trkpt><trkpt lat="43.1204683" lon="13.0572483"><ele>462.0</ele><time>2026-04-26T08:11:01.234Z</time></trkpt><trkpt lat="43.1202483" lon="13.0570867"><ele>462.0</ele><time>2026-04-26T08:11:02.235Z</time></trkpt><trkpt lat="43.1200283" lon="13.0569233"><ele>462.0</ele><time>2026-04-26T08:11:03.236Z</time></trkpt><trkpt lat="43.1198083" lon="13.0567583"><ele>464.0</ele><time>2026-04-26T08:11:04.234Z</time></trkpt><trkpt lat="43.1195917" lon="13.0565917"><ele>466.0</ele><time>2026-04-26T08:11:05.233Z</time></trkpt><trkpt lat="43.1193783" lon="13.05642"><ele>466.0</ele><time>2026-04-26T08:11:06.234Z</time></trkpt><trkpt lat="43.1191683" lon="13.0562433"><ele>466.0</ele><time>2026-04-26T08:11:07.234Z</time></trkpt><trkpt lat="43.118965" lon="13.0560683"><ele>466.6666666666667</ele><time>2026-04-26T08:11:08.235Z</time></trkpt><trkpt lat="43.11877" lon="13.0559033"><ele>467.33333333333337</ele><time>2026-04-26T08:11:09.233Z</time></trkpt><trkpt lat="43.11858" lon="13.055755"><ele>468.0</ele><time>2026-04-26T08:11:10.233Z</time></trkpt><trkpt lat="43.1183933" lon="13.0556383"><ele>469.0</ele><time>2026-04-26T08:11:11.233Z</time></trkpt><trkpt lat="43.1181917" lon="13.055555"><ele>470.0</ele><time>2026-04-26T08:11:12.237Z</time></trkpt><trkpt lat="43.1179733" lon="13.055505"><ele>471.0</ele><time>2026-04-26T08:11:13.235Z</time></trkpt><trkpt lat="43.1177383" lon="13.055475"><ele>471.0</ele><time>2026-04-26T08:11:14.237Z</time></trkpt><trkpt lat="43.1174933" lon="13.0554533"><ele>471.0</ele><time>2026-04-26T08:11:15.233Z</time></trkpt><trkpt lat="43.1172483" lon="13.0554367"><ele>472.0</ele><time>2026-04-26T08:11:16.234Z</time></trkpt><trkpt lat="43.117005" lon="13.055425"><ele>473.0</ele><time>2026-04-26T08:11:17.233Z</time></trkpt><trkpt lat="43.1167617" lon="13.0554117"><ele>477.0</ele><time>2026-04-26T08:11:18.236Z</time></trkpt><trkpt lat="43.1165167" lon="13.0553833"><ele>481.0</ele><time>2026-04-26T08:11:19.235Z</time></trkpt><trkpt lat="43.116275" lon="13.05533"><ele>481.0</ele><time>2026-04-26T08:11:20.234Z</time></trkpt><trkpt lat="43.1160467" lon="13.05525"><ele>481.0</ele><time>2026-04-26T08:11:21.237Z</time></trkpt><trkpt lat="43.115825" lon="13.0551517"><ele>481.5</ele><time>2026-04-26T08:11:22.232Z</time></trkpt><trkpt lat="43.1156083" lon="13.0550483"><ele>482.0</ele><time>2026-04-26T08:11:23.233Z</time></trkpt><trkpt lat="43.1153917" lon="13.054945"><ele>482.0</ele><time>2026-04-26T08:11:24.233Z</time></trkpt><trkpt lat="43.1151783" lon="13.0548417"><ele>482.0</ele><time>2026-04-26T08:11:25.235Z</time></trkpt><trkpt lat="43.1149783" lon="13.0547267"><ele>482.0</ele><time>2026-04-26T08:11:26.234Z</time></trkpt><trkpt lat="43.1147867" lon="13.0545867"><ele>484.66666666666663</ele><time>2026-04-26T08:11:27.237Z</time></trkpt><trkpt lat="43.1146083" lon="13.0544117"><ele>487.33333333333337</ele><time>2026-04-26T08:11:28.234Z</time></trkpt><trkpt lat="43.114445" lon="13.054195"><ele>490.0</ele><time>2026-04-26T08:11:29.233Z</time></trkpt><trkpt lat="43.1143" lon="13.0539367"><ele>490.0</ele><time>2026-04-26T08:11:30.234Z</time></trkpt><trkpt lat="43.114175" lon="13.0536683"><ele>490.0</ele><time>2026-04-26T08:11:31.236Z</time></trkpt><trkpt lat="43.1140683" lon="13.0534067"><ele>492.0</ele><time>2026-04-26T08:11:32.234Z</time></trkpt><trkpt lat="43.1139633" lon="13.0531683"><ele>494.0</ele><time>2026-04-26T08:11:33.235Z</time></trkpt><trkpt lat="43.1138567" lon="13.05296"><ele>496.0</ele><time>2026-04-26T08:11:34.234Z</time></trkpt><trkpt lat="43.11374" lon="13.052785"><ele>496.0</ele><time>2026-04-26T08:11:35.231Z</time></trkpt><trkpt lat="43.1136083" lon="13.0526467"><ele>496.0</ele><time>2026-04-26T08:11:36.232Z</time></trkpt><trkpt lat="43.1134617" lon="13.0525533"><ele>496.0</ele><time>2026-04-26T08:11:37.234Z</time></trkpt><trkpt lat="43.113305" lon="13.0524883"><ele>495.6666666666667</ele><time>2026-04-26T08:11:38.229Z</time></trkpt><trkpt lat="43.1131317" lon="13.05243"><ele>495.33333333333337</ele><time>2026-04-26T08:11:39.236Z</time></trkpt><trkpt lat="43.1129433" lon="13.0523633"><ele>495.0</ele><time>2026-04-26T08:11:40.233Z</time></trkpt><trkpt lat="43.1127417" lon="13.0522733"><ele>495.0</ele><time>2026-04-26T08:11:41.233Z</time></trkpt><trkpt lat="43.1125283" lon="13.05216"><ele>495.0</ele><time>2026-04-26T08:11:42.233Z</time></trkpt><trkpt lat="43.112315" lon="13.0520333"><ele>499.0</ele><time>2026-04-26T08:11:43.233Z</time></trkpt><trkpt lat="43.11211" lon="13.0519067"><ele>503.0</ele><time>2026-04-26T08:11:44.235Z</time></trkpt><trkpt lat="43.1119183" lon="13.0517917"><ele>507.0</ele><time>2026-04-26T08:11:45.235Z</time></trkpt><trkpt lat="43.111735" lon="13.05168"><ele>507.0</ele><time>2026-04-26T08:11:46.232Z</time></trkpt><trkpt lat="43.1115467" lon="13.05157"><ele>507.0</ele><time>2026-04-26T08:11:47.234Z</time></trkpt><trkpt lat="43.11135" lon="13.05146"><ele>507.0</ele><time>2026-04-26T08:11:48.233Z</time></trkpt><trkpt lat="43.1111383" lon="13.0513533"><ele>507.0</ele><time>2026-04-26T08:11:49.236Z</time></trkpt><trkpt lat="43.1109117" lon="13.051255"><ele>507.0</ele><time>2026-04-26T08:11:50.233Z</time></trkpt><trkpt lat="43.1106733" lon="13.0511633"><ele>511.0</ele><time>2026-04-26T08:11:51.234Z</time></trkpt><trkpt lat="43.110435" lon="13.0510717"><ele>515.0</ele><time>2026-04-26T08:11:52.232Z</time></trkpt><trkpt lat="43.1102" lon="13.0509767"><ele>515.0</ele><time>2026-04-26T08:11:53.236Z</time></trkpt><trkpt lat="43.1099617" lon="13.0508833"><ele>515.0</ele><time>2026-04-26T08:11:54.235Z</time></trkpt><trkpt lat="43.109725" lon="13.0507933"><ele>515.0</ele><time>2026-04-26T08:11:55.232Z</time></trkpt><trkpt lat="43.1094917" lon="13.050705"><ele>515.0</ele><time>2026-04-26T08:11:56.233Z</time></trkpt><trkpt lat="43.109255" lon="13.0506183"><ele>518.0</ele><time>2026-04-26T08:11:57.236Z</time></trkpt><trkpt lat="43.1090183" lon="13.0505333"><ele>521.0</ele><time>2026-04-26T08:11:58.234Z</time></trkpt><trkpt lat="43.1087883" lon="13.0504583"><ele>521.0</ele><time>2026-04-26T08:11:59.231Z</time></trkpt><trkpt lat="43.108575" lon="13.0504083"><ele>521.0</ele><time>2026-04-26T08:12:00.234Z</time></trkpt><trkpt lat="43.1083733" lon="13.05038"><ele>521.0</ele><time>2026-04-26T08:12:01.233Z</time></trkpt><trkpt lat="43.1081817" lon="13.0503483"><ele>523.0</ele><time>2026-04-26T08:12:02.233Z</time></trkpt><trkpt lat="43.1080067" lon="13.05029"><ele>525.0</ele><time>2026-04-26T08:12:03.234Z</time></trkpt><trkpt lat="43.107845" lon="13.0501867"><ele>527.0</ele><time>2026-04-26T08:12:04.233Z</time></trkpt><trkpt lat="43.1077" lon="13.0500267"><ele>529.0</ele><time>2026-04-26T08:12:05.232Z</time></trkpt><trkpt lat="43.1075767" lon="13.04984"><ele>531.0</ele><time>2026-04-26T08:12:06.236Z</time></trkpt><trkpt lat="43.1074567" lon="13.04965"><ele>533.0</ele><time>2026-04-26T08:12:07.234Z</time></trkpt><trkpt lat="43.10733" lon="13.0494733"><ele>533.0</ele><time>2026-04-26T08:12:08.235Z</time></trkpt><trkpt lat="43.1071883" lon="13.0493217"><ele>533.0</ele><time>2026-04-26T08:12:09.236Z</time></trkpt><trkpt lat="43.1070333" lon="13.0491967"><ele>533.0</ele><time>2026-04-26T08:12:10.236Z</time></trkpt><trkpt lat="43.1068633" lon="13.0490983"><ele>530.3333333333333</ele><time>2026-04-26T08:12:11.236Z</time></trkpt><trkpt lat="43.1066883" lon="13.04903"><ele>527.6666666666666</ele><time>2026-04-26T08:12:12.235Z</time></trkpt><trkpt lat="43.1065033" lon="13.048995"><ele>525.0</ele><time>2026-04-26T08:12:13.232Z</time></trkpt><trkpt lat="43.106305" lon="13.048985"><ele>525.0</ele><time>2026-04-26T08:12:14.232Z</time></trkpt><trkpt lat="43.1060933" lon="13.0489833"><ele>525.0</ele><time>2026-04-26T08:12:15.237Z</time></trkpt><trkpt lat="43.1058733" lon="13.0489867"><ele>525.0</ele><time>2026-04-26T08:12:16.238Z</time></trkpt><trkpt lat="43.105655" lon="13.0489833"><ele>528.3333333333334</ele><time>2026-04-26T08:12:17.233Z</time></trkpt><trkpt lat="43.105445" lon="13.0489567"><ele>531.6666666666667</ele><time>2026-04-26T08:12:18.233Z</time></trkpt><trkpt lat="43.1052417" lon="13.0489017"><ele>535.0</ele><time>2026-04-26T08:12:19.235Z</time></trkpt><trkpt lat="43.105035" lon="13.0488217"><ele>539.5</ele><time>2026-04-26T08:12:20.234Z</time></trkpt><trkpt lat="43.104825" lon="13.0487233"><ele>544.0</ele><time>2026-04-26T08:12:21.233Z</time></trkpt><trkpt lat="43.10461" lon="13.04862"><ele>544.0</ele><time>2026-04-26T08:12:22.23Z</time></trkpt><trkpt lat="43.1043933" lon="13.0485283"><ele>544.0</ele><time>2026-04-26T08:12:23.229Z</time></trkpt><trkpt lat="43.1041683" lon="13.0484683"><ele>545.0</ele><time>2026-04-26T08:12:24.234Z</time></trkpt><trkpt lat="43.1039317" lon="13.04844"><ele>546.0</ele><time>2026-04-26T08:12:25.235Z</time></trkpt><trkpt lat="43.1036833" lon="13.0484217"><ele>546.0</ele><time>2026-04-26T08:12:26.234Z</time></trkpt><trkpt lat="43.10343" lon="13.0483683"><ele>546.0</ele><time>2026-04-26T08:12:27.239Z</time></trkpt><trkpt lat="43.103195" lon="13.04828"><ele>547.6666666666666</ele><time>2026-04-26T08:12:28.234Z</time></trkpt><trkpt lat="43.1029783" lon="13.0481817"><ele>549.3333333333333</ele><time>2026-04-26T08:12:29.233Z</time></trkpt><trkpt lat="43.1027767" lon="13.0480883"><ele>551.0</ele><time>2026-04-26T08:12:30.232Z</time></trkpt><trkpt lat="43.1025883" lon="13.0480167"><ele>556.3333333333333</ele><time>2026-04-26T08:12:31.23Z</time></trkpt><trkpt lat="43.1024133" lon="13.0479783"><ele>561.6666666666666</ele><time>2026-04-26T08:12:32.234Z</time></trkpt><trkpt lat="43.1022567" lon="13.04797"><ele>567.0</ele><time>2026-04-26T08:12:33.233Z</time></trkpt><trkpt lat="43.1021117" lon="13.0479883"><ele>567.0</ele><time>2026-04-26T08:12:34.231Z</time></trkpt><trkpt lat="43.1019683" lon="13.048025"><ele>567.0</ele><time>2026-04-26T08:12:35.23Z</time></trkpt><trkpt lat="43.1018333" lon="13.0480667"><ele>567.0</ele><time>2026-04-26T08:12:36.236Z</time></trkpt><trkpt lat="43.1017017" lon="13.048115"><ele>567.0</ele><time>2026-04-26T08:12:37.239Z</time></trkpt><trkpt lat="43.1015717" lon="13.048165"><ele>568.25</ele><time>2026-04-26T08:12:38.231Z</time></trkpt><trkpt lat="43.1014483" lon="13.0482167"><ele>569.5</ele><time>2026-04-26T08:12:39.231Z</time></trkpt><trkpt lat="43.10133" lon="13.0482617"><ele>570.75</ele><time>2026-04-26T08:12:40.236Z</time></trkpt><trkpt lat="43.1012183" lon="13.0483067"><ele>572.0</ele><time>2026-04-26T08:12:41.231Z</time></trkpt><trkpt lat="43.10111" lon="13.0483367"><ele>569.8000000000001</ele><time>2026-04-26T08:12:42.233Z</time></trkpt><trkpt lat="43.1010067" lon="13.048355"><ele>567.6</ele><time>2026-04-26T08:12:43.234Z</time></trkpt><trkpt lat="43.1009017" lon="13.0483567"><ele>565.4000000000001</ele><time>2026-04-26T08:12:44.232Z</time></trkpt><trkpt lat="43.1008" lon="13.0483333"><ele>563.2</ele><time>2026-04-26T08:12:45.232Z</time></trkpt><trkpt lat="43.100705" lon="13.0482867"><ele>561.0</ele><time>2026-04-26T08:12:46.231Z</time></trkpt><trkpt lat="43.10062" lon="13.0482333"><ele>561.0</ele><time>2026-04-26T08:12:47.233Z</time></trkpt><trkpt lat="43.1005417" lon="13.04818"><ele>561.0</ele><time>2026-04-26T08:12:48.233Z</time></trkpt><trkpt lat="43.1004667" lon="13.0481333"><ele>561.0</ele><time>2026-04-26T08:12:49.233Z</time></trkpt><trkpt lat="43.1003967" lon="13.0480883"><ele>561.0</ele><time>2026-04-26T08:12:50.231Z</time></trkpt><trkpt lat="43.1003367" lon="13.0480483"><ele>561.0</ele><time>2026-04-26T08:12:51.238Z</time></trkpt><trkpt lat="43.100255" lon="13.0479917"><ele>561.0</ele><time>2026-04-26T08:12:53.232Z</time></trkpt><trkpt lat="43.10018" lon="13.0479433"><ele>561.0</ele><time>2026-04-26T08:12:56.235Z</time></trkpt><trkpt lat="43.1001" lon="13.047895"><ele>561.0</ele><time>2026-04-26T08:12:59.231Z</time></trkpt><trkpt lat="43.1000167" lon="13.0478267"><ele>561.0</ele><time>2026-04-26T08:13:02.232Z</time></trkpt><trkpt lat="43.0999267" lon="13.047765"><ele>561.0</ele><time>2026-04-26T08:13:04.232Z</time></trkpt><trkpt lat="43.099815" lon="13.047695"><ele>561.0</ele><time>2026-04-26T08:13:06.235Z</time></trkpt><trkpt lat="43.099755" lon="13.0476533"><ele>561.6</ele><time>2026-04-26T08:13:07.234Z</time></trkpt><trkpt lat="43.09969" lon="13.04761"><ele>562.2</ele><time>2026-04-26T08:13:08.232Z</time></trkpt><trkpt lat="43.0996117" lon="13.0475583"><ele>562.8</ele><time>2026-04-26T08:13:09.232Z</time></trkpt><trkpt lat="43.0995167" lon="13.0474983"><ele>563.4</ele><time>2026-04-26T08:13:10.231Z</time></trkpt><trkpt lat="43.0994233" lon="13.047455"><ele>564.0</ele><time>2026-04-26T08:13:11.23Z</time></trkpt><trkpt lat="43.0993233" lon="13.0474133"><ele>564.0</ele><time>2026-04-26T08:13:12.232Z</time></trkpt><trkpt lat="43.0992217" lon="13.0473633"><ele>564.0</ele><time>2026-04-26T08:13:13.231Z</time></trkpt><trkpt lat="43.0991083" lon="13.0473167"><ele>564.0</ele><time>2026-04-26T08:13:14.234Z</time></trkpt><trkpt lat="43.0989833" lon="13.0472817"><ele>564.0</ele><time>2026-04-26T08:13:15.23Z</time></trkpt><trkpt lat="43.0988433" lon="13.047275"><ele>562.75</ele><time>2026-04-26T08:13:16.231Z</time></trkpt><trkpt lat="43.0987033" lon="13.047285"><ele>561.5</ele><time>2026-04-26T08:13:17.232Z</time></trkpt><trkpt lat="43.09857" lon="13.0473017"><ele>560.25</ele><time>2026-04-26T08:13:18.233Z</time></trkpt><trkpt lat="43.0984283" lon="13.0473283"><ele>559.0</ele><time>2026-04-26T08:13:19.234Z</time></trkpt><trkpt lat="43.0982783" lon="13.0473583"><ele>558.3333333333334</ele><time>2026-04-26T08:13:20.23Z</time></trkpt><trkpt lat="43.098125" lon="13.0473917"><ele>557.6666666666666</ele><time>2026-04-26T08:13:21.234Z</time></trkpt><trkpt lat="43.0979683" lon="13.0474283"><ele>557.0</ele><time>2026-04-26T08:13:22.229Z</time></trkpt><trkpt lat="43.0978" lon="13.0474617"><ele>551.3333333333333</ele><time>2026-04-26T08:13:23.232Z</time></trkpt><trkpt lat="43.0976217" lon="13.0475"><ele>545.6666666666666</ele><time>2026-04-26T08:13:24.232Z</time></trkpt><trkpt lat="43.09744" lon="13.047535"><ele>540.0</ele><time>2026-04-26T08:13:25.234Z</time></trkpt><trkpt lat="43.0972567" lon="13.0475683"><ele>539.6666666666666</ele><time>2026-04-26T08:13:26.233Z</time></trkpt><trkpt lat="43.0970767" lon="13.0476067"><ele>539.3333333333333</ele><time>2026-04-26T08:13:27.235Z</time></trkpt><trkpt lat="43.096905" lon="13.0476467"><ele>539.0</ele><time>2026-04-26T08:13:28.23Z</time></trkpt><trkpt lat="43.0967383" lon="13.0476917"><ele>540.0</ele><time>2026-04-26T08:13:29.231Z</time></trkpt><trkpt lat="43.0965817" lon="13.0477583"><ele>541.0</ele><time>2026-04-26T08:13:30.231Z</time></trkpt><trkpt lat="43.0964317" lon="13.0478517"><ele>542.0</ele><time>2026-04-26T08:13:31.234Z</time></trkpt><trkpt lat="43.09629" lon="13.04797"><ele>542.0</ele><time>2026-04-26T08:13:32.235Z</time></trkpt><trkpt lat="43.09617" lon="13.0480983"><ele>542.0</ele><time>2026-04-26T08:13:33.233Z</time></trkpt><trkpt lat="43.0960633" lon="13.0482317"><ele>542.0</ele><time>2026-04-26T08:13:34.232Z</time></trkpt><trkpt lat="43.095965" lon="13.0483667"><ele>542.0</ele><time>2026-04-26T08:13:35.233Z</time></trkpt><trkpt lat="43.0958733" lon="13.0485033"><ele>538.75</ele><time>2026-04-26T08:13:36.232Z</time></trkpt><trkpt lat="43.0957883" lon="13.0486317"><ele>535.5</ele><time>2026-04-26T08:13:37.232Z</time></trkpt><trkpt lat="43.0957033" lon="13.04875"><ele>532.25</ele><time>2026-04-26T08:13:38.239Z</time></trkpt><trkpt lat="43.0956133" lon="13.0488533"><ele>529.0</ele><time>2026-04-26T08:13:39.235Z</time></trkpt><trkpt lat="43.0955133" lon="13.0489317"><ele>529.0</ele><time>2026-04-26T08:13:40.234Z</time></trkpt><trkpt lat="43.0954" lon="13.0489933"><ele>529.0</ele><time>2026-04-26T08:13:41.233Z</time></trkpt><trkpt lat="43.0952733" lon="13.0490367"><ele>529.0</ele><time>2026-04-26T08:13:42.233Z</time></trkpt><trkpt lat="43.095125" lon="13.0490517"><ele>529.0</ele><time>2026-04-26T08:13:43.23Z</time></trkpt><trkpt lat="43.09497" lon="13.0490467"><ele>528.3333333333334</ele><time>2026-04-26T08:13:44.232Z</time></trkpt><trkpt lat="43.0947833" lon="13.0490283"><ele>527.6666666666666</ele><time>2026-04-26T08:13:45.233Z</time></trkpt><trkpt lat="43.094605" lon="13.049005"><ele>527.0</ele><time>2026-04-26T08:13:46.242Z</time></trkpt><trkpt lat="43.09444" lon="13.0489933"><ele>527.0</ele><time>2026-04-26T08:13:47.233Z</time></trkpt><trkpt lat="43.0942817" lon="13.0490033"><ele>527.0</ele><time>2026-04-26T08:13:48.23Z</time></trkpt><trkpt lat="43.0941367" lon="13.049045"><ele>527.0</ele><time>2026-04-26T08:13:49.231Z</time></trkpt><trkpt lat="43.094005" lon="13.04911"><ele>527.0</ele><time>2026-04-26T08:13:50.233Z</time></trkpt><trkpt lat="43.0938767" lon="13.0491817"><ele>524.0</ele><time>2026-04-26T08:13:51.232Z</time></trkpt><trkpt lat="43.09374" lon="13.04926"><ele>521.0</ele><time>2026-04-26T08:13:52.231Z</time></trkpt><trkpt lat="43.0936033" lon="13.04933"><ele>518.0</ele><time>2026-04-26T08:13:53.231Z</time></trkpt><trkpt lat="43.0934517" lon="13.04939"><ele>518.0</ele><time>2026-04-26T08:13:54.233Z</time></trkpt><trkpt lat="43.0932833" lon="13.0494433"><ele>518.0</ele><time>2026-04-26T08:13:55.231Z</time></trkpt><trkpt lat="43.0930833" lon="13.0494733"><ele>518.0</ele><time>2026-04-26T08:13:56.233Z</time></trkpt><trkpt lat="43.0928567" lon="13.04947"><ele>516.5</ele><time>2026-04-26T08:13:57.234Z</time></trkpt><trkpt lat="43.092615" lon="13.04944"><ele>515.0</ele><time>2026-04-26T08:13:58.235Z</time></trkpt><trkpt lat="43.0923667" lon="13.0494083"><ele>512.0</ele><time>2026-04-26T08:13:59.233Z</time></trkpt><trkpt lat="43.0921133" lon="13.049375"><ele>509.0</ele><time>2026-04-26T08:14:00.237Z</time></trkpt><trkpt lat="43.0918533" lon="13.0493317"><ele>509.0</ele><time>2026-04-26T08:14:01.234Z</time></trkpt><trkpt lat="43.091595" lon="13.0492783"><ele>509.0</ele><time>2026-04-26T08:14:02.245Z</time></trkpt><trkpt lat="43.091345" lon="13.0492117"><ele>506.0</ele><time>2026-04-26T08:14:03.238Z</time></trkpt><trkpt lat="43.0911083" lon="13.0491383"><ele>503.0</ele><time>2026-04-26T08:14:04.233Z</time></trkpt><trkpt lat="43.0908817" lon="13.0490667"><ele>505.0</ele><time>2026-04-26T08:14:05.233Z</time></trkpt><trkpt lat="43.090665" lon="13.0489983"><ele>507.0</ele><time>2026-04-26T08:14:06.234Z</time></trkpt><trkpt lat="43.09046" lon="13.048935"><ele>509.0</ele><time>2026-04-26T08:14:07.233Z</time></trkpt><trkpt lat="43.0902617" lon="13.0488733"><ele>509.0</ele><time>2026-04-26T08:14:08.234Z</time></trkpt><trkpt lat="43.0900733" lon="13.0488067"><ele>509.0</ele><time>2026-04-26T08:14:09.232Z</time></trkpt><trkpt lat="43.0898933" lon="13.04873"><ele>509.0</ele><time>2026-04-26T08:14:10.233Z</time></trkpt><trkpt lat="43.08973" lon="13.0486267"><ele>506.0</ele><time>2026-04-26T08:14:11.234Z</time></trkpt><trkpt lat="43.0895867" lon="13.048505"><ele>503.0</ele><time>2026-04-26T08:14:12.233Z</time></trkpt><trkpt lat="43.0894633" lon="13.0483617"><ele>500.0</ele><time>2026-04-26T08:14:13.232Z</time></trkpt><trkpt lat="43.08936" lon="13.0481933"><ele>500.0</ele><time>2026-04-26T08:14:14.233Z</time></trkpt><trkpt lat="43.0892683" lon="13.047995"><ele>500.0</ele><time>2026-04-26T08:14:15.237Z</time></trkpt><trkpt lat="43.089175" lon="13.0477917"><ele>500.0</ele><time>2026-04-26T08:14:16.232Z</time></trkpt><trkpt lat="43.0890783" lon="13.0476017"><ele>496.3333333333333</ele><time>2026-04-26T08:14:17.231Z</time></trkpt><trkpt lat="43.088975" lon="13.04743"><ele>492.66666666666663</ele><time>2026-04-26T08:14:18.232Z</time></trkpt><trkpt lat="43.0888667" lon="13.0472733"><ele>489.0</ele><time>2026-04-26T08:14:19.229Z</time></trkpt><trkpt lat="43.0887517" lon="13.0471483"><ele>489.0</ele><time>2026-04-26T08:14:20.233Z</time></trkpt><trkpt lat="43.0886417" lon="13.047025"><ele>489.0</ele><time>2026-04-26T08:14:21.238Z</time></trkpt><trkpt lat="43.0885467" lon="13.046885"><ele>489.0</ele><time>2026-04-26T08:14:22.233Z</time></trkpt><trkpt lat="43.0884667" lon="13.0467317"><ele>489.0</ele><time>2026-04-26T08:14:23.23Z</time></trkpt><trkpt lat="43.0884017" lon="13.04658"><ele>489.0</ele><time>2026-04-26T08:14:24.232Z</time></trkpt><trkpt lat="43.0883283" lon="13.04645"><ele>489.0</ele><time>2026-04-26T08:14:25.229Z</time></trkpt><trkpt lat="43.0882417" lon="13.0463417"><ele>489.0</ele><time>2026-04-26T08:14:26.233Z</time></trkpt><trkpt lat="43.0881367" lon="13.0462583"><ele>489.0</ele><time>2026-04-26T08:14:27.231Z</time></trkpt><trkpt lat="43.0880133" lon="13.0462067"><ele>489.0</ele><time>2026-04-26T08:14:28.232Z</time></trkpt><trkpt lat="43.0878767" lon="13.0461783"><ele>489.0</ele><time>2026-04-26T08:14:29.234Z</time></trkpt><trkpt lat="43.0877383" lon="13.0461483"><ele>489.0</ele><time>2026-04-26T08:14:30.235Z</time></trkpt><trkpt lat="43.0876117" lon="13.046105"><ele>489.0</ele><time>2026-04-26T08:14:31.233Z</time></trkpt><trkpt lat="43.087495" lon="13.0460417"><ele>487.5</ele><time>2026-04-26T08:14:32.235Z</time></trkpt><trkpt lat="43.0873783" lon="13.0459617"><ele>486.0</ele><time>2026-04-26T08:14:33.234Z</time></trkpt><trkpt lat="43.087255" lon="13.04586"><ele>484.5</ele><time>2026-04-26T08:14:34.233Z</time></trkpt><trkpt lat="43.0871317" lon="13.0457417"><ele>483.0</ele><time>2026-04-26T08:14:35.235Z</time></trkpt><trkpt lat="43.08701" lon="13.04563"><ele>483.0</ele><time>2026-04-26T08:14:36.236Z</time></trkpt><trkpt lat="43.0868967" lon="13.0455083"><ele>483.0</ele><time>2026-04-26T08:14:37.236Z</time></trkpt><trkpt lat="43.08679" lon="13.04539"><ele>483.0</ele><time>2026-04-26T08:14:38.232Z</time></trkpt><trkpt lat="43.0866817" lon="13.0452933"><ele>483.0</ele><time>2026-04-26T08:14:39.234Z</time></trkpt><trkpt lat="43.0865583" lon="13.0452183"><ele>481.0</ele><time>2026-04-26T08:14:40.229Z</time></trkpt><trkpt lat="43.0864267" lon="13.0451517"><ele>479.0</ele><time>2026-04-26T08:14:41.234Z</time></trkpt><trkpt lat="43.0862967" lon="13.0450983"><ele>477.0</ele><time>2026-04-26T08:14:42.233Z</time></trkpt><trkpt lat="43.0861683" lon="13.0450483"><ele>475.0</ele><time>2026-04-26T08:14:43.232Z</time></trkpt><trkpt lat="43.086045" lon="13.045005"><ele>475.5</ele><time>2026-04-26T08:14:44.236Z</time></trkpt><trkpt lat="43.0859167" lon="13.0449533"><ele>476.0</ele><time>2026-04-26T08:14:45.232Z</time></trkpt><trkpt lat="43.0857883" lon="13.0448917"><ele>476.5</ele><time>2026-04-26T08:14:46.232Z</time></trkpt><trkpt lat="43.0856617" lon="13.04483"><ele>477.0</ele><time>2026-04-26T08:14:47.234Z</time></trkpt><trkpt lat="43.085535" lon="13.0447717"><ele>475.5</ele><time>2026-04-26T08:14:48.234Z</time></trkpt><trkpt lat="43.0854083" lon="13.044715"><ele>474.0</ele><time>2026-04-26T08:14:49.233Z</time></trkpt><trkpt lat="43.08529" lon="13.0446483"><ele>472.5</ele><time>2026-04-26T08:14:50.234Z</time></trkpt><trkpt lat="43.0851767" lon="13.0445767"><ele>471.0</ele><time>2026-04-26T08:14:51.236Z</time></trkpt><trkpt lat="43.0850633" lon="13.0445067"><ele>471.0</ele><time>2026-04-26T08:14:52.232Z</time></trkpt><trkpt lat="43.0849567" lon="13.04442"><ele>471.0</ele><time>2026-04-26T08:14:53.232Z</time></trkpt><trkpt lat="43.0848583" lon="13.0443267"><ele>471.0</ele><time>2026-04-26T08:14:54.234Z</time></trkpt><trkpt lat="43.084755" lon="13.04423"><ele>471.0</ele><time>2026-04-26T08:14:55.232Z</time></trkpt><trkpt lat="43.084645" lon="13.0441333"><ele>470.5</ele><time>2026-04-26T08:14:56.237Z</time></trkpt><trkpt lat="43.084535" lon="13.04405"><ele>470.0</ele><time>2026-04-26T08:14:57.234Z</time></trkpt><trkpt lat="43.0844233" lon="13.0439733"><ele>469.5</ele><time>2026-04-26T08:14:58.235Z</time></trkpt><trkpt lat="43.0843083" lon="13.043915"><ele>469.0</ele><time>2026-04-26T08:14:59.234Z</time></trkpt><trkpt lat="43.0841933" lon="13.0438717"><ele>467.75</ele><time>2026-04-26T08:15:00.231Z</time></trkpt><trkpt lat="43.0840783" lon="13.04384"><ele>466.5</ele><time>2026-04-26T08:15:01.232Z</time></trkpt><trkpt lat="43.0839583" lon="13.04382"><ele>465.25</ele><time>2026-04-26T08:15:02.233Z</time></trkpt><trkpt lat="43.0838283" lon="13.0438033"><ele>464.0</ele><time>2026-04-26T08:15:03.235Z</time></trkpt><trkpt lat="43.083695" lon="13.0437883"><ele>464.0</ele><time>2026-04-26T08:15:04.237Z</time></trkpt><trkpt lat="43.0835683" lon="13.0437733"><ele>464.0</ele><time>2026-04-26T08:15:05.233Z</time></trkpt><trkpt lat="43.0834467" lon="13.0437583"><ele>464.0</ele><time>2026-04-26T08:15:06.235Z</time></trkpt><trkpt lat="43.0833267" lon="13.0437467"><ele>464.0</ele><time>2026-04-26T08:15:07.232Z</time></trkpt><trkpt lat="43.0832117" lon="13.0437333"><ele>463.0</ele><time>2026-04-26T08:15:08.233Z</time></trkpt><trkpt lat="43.0830983" lon="13.0437183"><ele>462.0</ele><time>2026-04-26T08:15:09.232Z</time></trkpt><trkpt lat="43.0829817" lon="13.0437083"><ele>461.0</ele><time>2026-04-26T08:15:10.231Z</time></trkpt><trkpt lat="43.0828683" lon="13.0437017"><ele>460.0</ele><time>2026-04-26T08:15:11.229Z</time></trkpt><trkpt lat="43.0827567" lon="13.04369"><ele>460.0</ele><time>2026-04-26T08:15:12.232Z</time></trkpt><trkpt lat="43.0826467" lon="13.0436817"><ele>460.0</ele><time>2026-04-26T08:15:13.231Z</time></trkpt><trkpt lat="43.0825433" lon="13.0436717"><ele>460.0</ele><time>2026-04-26T08:15:14.231Z</time></trkpt><trkpt lat="43.0824483" lon="13.0436533"><ele>460.0</ele><time>2026-04-26T08:15:15.233Z</time></trkpt><trkpt lat="43.0823567" lon="13.0436317"><ele>460.0</ele><time>2026-04-26T08:15:16.234Z</time></trkpt><trkpt lat="43.08227" lon="13.0435983"><ele>459.4</ele><time>2026-04-26T08:15:17.234Z</time></trkpt><trkpt lat="43.0821783" lon="13.0435583"><ele>458.8</ele><time>2026-04-26T08:15:18.234Z</time></trkpt><trkpt lat="43.0820783" lon="13.0435233"><ele>458.20000000000005</ele><time>2026-04-26T08:15:19.233Z</time></trkpt><trkpt lat="43.08197" lon="13.0434983"><ele>457.6</ele><time>2026-04-26T08:15:20.232Z</time></trkpt><trkpt lat="43.0818567" lon="13.043505"><ele>457.0</ele><time>2026-04-26T08:15:21.23Z</time></trkpt><trkpt lat="43.081735" lon="13.0435317"><ele>457.0</ele><time>2026-04-26T08:15:22.233Z</time></trkpt><trkpt lat="43.0816017" lon="13.0435667"><ele>457.0</ele><time>2026-04-26T08:15:23.23Z</time></trkpt><trkpt lat="43.081475" lon="13.0435933"><ele>457.0</ele><time>2026-04-26T08:15:24.232Z</time></trkpt><trkpt lat="43.08135" lon="13.043615"><ele>457.0</ele><time>2026-04-26T08:15:25.231Z</time></trkpt><trkpt lat="43.0812367" lon="13.04363"><ele>456.40000000000003</ele><time>2026-04-26T08:15:26.234Z</time></trkpt><trkpt lat="43.081135" lon="13.0436467"><ele>455.80000000000007</ele><time>2026-04-26T08:15:27.232Z</time></trkpt><trkpt lat="43.0810567" lon="13.04366"><ele>455.2</ele><time>2026-04-26T08:15:28.231Z</time></trkpt><trkpt lat="43.0809383" lon="13.0436667"><ele>454.6</ele><time>2026-04-26T08:15:30.234Z</time></trkpt><trkpt lat="43.0808483" lon="13.0436317"><ele>454.0</ele><time>2026-04-26T08:15:32.231Z</time></trkpt><trkpt lat="43.08076" lon="13.04356"><ele>455.2</ele><time>2026-04-26T08:15:41.232Z</time></trkpt><trkpt lat="43.080725" lon="13.0434083"><ele>456.4</ele><time>2026-04-26T08:15:43.235Z</time></trkpt><trkpt lat="43.0807217" lon="13.04329"><ele>457.6</ele><time>2026-04-26T08:15:44.235Z</time></trkpt><trkpt lat="43.08072" lon="13.0431517"><ele>458.8</ele><time>2026-04-26T08:15:45.232Z</time></trkpt><trkpt lat="43.0807233" lon="13.0429783"><ele>460.0</ele><time>2026-04-26T08:15:46.235Z</time></trkpt><trkpt lat="43.0807167" lon="13.04282"><ele>460.4</ele><time>2026-04-26T08:15:47.236Z</time></trkpt><trkpt lat="43.0807117" lon="13.0426683"><ele>460.8</ele><time>2026-04-26T08:15:48.231Z</time></trkpt><trkpt lat="43.0807033" lon="13.04252"><ele>461.20000000000005</ele><time>2026-04-26T08:15:49.236Z</time></trkpt><trkpt lat="43.0806983" lon="13.04237"><ele>461.6</ele><time>2026-04-26T08:15:50.234Z</time></trkpt><trkpt lat="43.0806917" lon="13.0422167"><ele>462.0</ele><time>2026-04-26T08:15:51.238Z</time></trkpt><trkpt lat="43.0806833" lon="13.04206"><ele>462.75</ele><time>2026-04-26T08:15:52.236Z</time></trkpt><trkpt lat="43.0806733" lon="13.0419017"><ele>463.5</ele><time>2026-04-26T08:15:53.234Z</time></trkpt><trkpt lat="43.0806683" lon="13.0417433"><ele>464.25</ele><time>2026-04-26T08:15:54.234Z</time></trkpt><trkpt lat="43.0806633" lon="13.0415833"><ele>465.0</ele><time>2026-04-26T08:15:55.24Z</time></trkpt><trkpt lat="43.0806567" lon="13.0414217"><ele>466.0</ele><time>2026-04-26T08:15:56.232Z</time></trkpt><trkpt lat="43.08065" lon="13.041245"><ele>467.0</ele><time>2026-04-26T08:15:57.232Z</time></trkpt><trkpt lat="43.0806417" lon="13.041035"><ele>468.0</ele><time>2026-04-26T08:15:58.235Z</time></trkpt><trkpt lat="43.08063" lon="13.040805"><ele>469.33333333333337</ele><time>2026-04-26T08:15:59.235Z</time></trkpt><trkpt lat="43.0806217" lon="13.0405683"><ele>470.6666666666667</ele><time>2026-04-26T08:16:00.233Z</time></trkpt><trkpt lat="43.08061" lon="13.040315"><ele>472.0</ele><time>2026-04-26T08:16:01.233Z</time></trkpt><trkpt lat="43.0806" lon="13.0400483"><ele>474.33333333333337</ele><time>2026-04-26T08:16:02.232Z</time></trkpt><trkpt lat="43.0805867" lon="13.0397767"><ele>476.66666666666663</ele><time>2026-04-26T08:16:03.236Z</time></trkpt><trkpt lat="43.08057" lon="13.0395133"><ele>479.0</ele><time>2026-04-26T08:16:04.236Z</time></trkpt><trkpt lat="43.0805417" lon="13.0392833"><ele>479.3333333333333</ele><time>2026-04-26T08:16:05.235Z</time></trkpt><trkpt lat="43.08049" lon="13.0390533"><ele>479.66666666666663</ele><time>2026-04-26T08:16:06.233Z</time></trkpt><trkpt lat="43.0804117" lon="13.0388317"><ele>480.0</ele><time>2026-04-26T08:16:07.233Z</time></trkpt><trkpt lat="43.0803233" lon="13.0386167"><ele>480.0</ele><time>2026-04-26T08:16:08.231Z</time></trkpt><trkpt lat="43.0802267" lon="13.0384"><ele>480.0</ele><time>2026-04-26T08:16:09.238Z</time></trkpt><trkpt lat="43.0801283" lon="13.0381683"><ele>480.0</ele><time>2026-04-26T08:16:10.231Z</time></trkpt><trkpt lat="43.0800367" lon="13.0379233"><ele>476.66666666666663</ele><time>2026-04-26T08:16:11.233Z</time></trkpt><trkpt lat="43.07995" lon="13.0376733"><ele>473.3333333333333</ele><time>2026-04-26T08:16:12.233Z</time></trkpt><trkpt lat="43.079865" lon="13.0374317"><ele>470.0</ele><time>2026-04-26T08:16:13.235Z</time></trkpt><trkpt lat="43.0797783" lon="13.03719"><ele>474.0</ele><time>2026-04-26T08:16:14.235Z</time></trkpt><trkpt lat="43.079685" lon="13.0369517"><ele>478.0</ele><time>2026-04-26T08:16:15.235Z</time></trkpt><trkpt lat="43.0795883" lon="13.03672"><ele>482.0</ele><time>2026-04-26T08:16:16.231Z</time></trkpt><trkpt lat="43.0794883" lon="13.0365033"><ele>482.0</ele><time>2026-04-26T08:16:17.232Z</time></trkpt><trkpt lat="43.0793983" lon="13.03629"><ele>482.0</ele><time>2026-04-26T08:16:18.237Z</time></trkpt><trkpt lat="43.079315" lon="13.036075"><ele>482.0</ele><time>2026-04-26T08:16:19.238Z</time></trkpt><trkpt lat="43.07923" lon="13.03587"><ele>482.0</ele><time>2026-04-26T08:16:20.232Z</time></trkpt><trkpt lat="43.0791167" lon="13.03569"><ele>482.0</ele><time>2026-04-26T08:16:21.234Z</time></trkpt><trkpt lat="43.0789633" lon="13.0355367"><ele>482.0</ele><time>2026-04-26T08:16:22.231Z</time></trkpt><trkpt lat="43.07879" lon="13.0353967"><ele>482.0</ele><time>2026-04-26T08:16:23.234Z</time></trkpt><trkpt lat="43.078625" lon="13.0352333"><ele>482.0</ele><time>2026-04-26T08:16:24.233Z</time></trkpt><trkpt lat="43.0784667" lon="13.035055"><ele>482.0</ele><time>2026-04-26T08:16:25.231Z</time></trkpt><trkpt lat="43.07831" lon="13.0348767"><ele>480.0</ele><time>2026-04-26T08:16:26.233Z</time></trkpt><trkpt lat="43.0781517" lon="13.0347167"><ele>478.0</ele><time>2026-04-26T08:16:27.233Z</time></trkpt><trkpt lat="43.07798" lon="13.0345783"><ele>476.0</ele><time>2026-04-26T08:16:28.233Z</time></trkpt><trkpt lat="43.0778017" lon="13.0344667"><ele>476.0</ele><time>2026-04-26T08:16:29.233Z</time></trkpt><trkpt lat="43.07762" lon="13.0343617"><ele>476.0</ele><time>2026-04-26T08:16:30.229Z</time></trkpt><trkpt lat="43.07743" lon="13.0342783"><ele>476.0</ele><time>2026-04-26T08:16:31.239Z</time></trkpt><trkpt lat="43.077265" lon="13.0341567"><ele>485.66666666666663</ele><time>2026-04-26T08:16:32.236Z</time></trkpt><trkpt lat="43.0771367" lon="13.0339917"><ele>495.33333333333337</ele><time>2026-04-26T08:16:33.228Z</time></trkpt><trkpt lat="43.0770283" lon="13.033805"><ele>505.0</ele><time>2026-04-26T08:16:34.229Z</time></trkpt><trkpt lat="43.07694" lon="13.0335933"><ele>505.0</ele><time>2026-04-26T08:16:35.236Z</time></trkpt><trkpt lat="43.0768783" lon="13.0333617"><ele>505.0</ele><time>2026-04-26T08:16:36.234Z</time></trkpt><trkpt lat="43.0768817" lon="13.033115"><ele>505.0</ele><time>2026-04-26T08:16:37.235Z</time></trkpt><trkpt lat="43.07695" lon="13.0328217"><ele>507.6666666666667</ele><time>2026-04-26T08:16:38.231Z</time></trkpt><trkpt lat="43.0769833" lon="13.032545"><ele>510.33333333333337</ele><time>2026-04-26T08:16:39.232Z</time></trkpt><trkpt lat="43.0770117" lon="13.0322633"><ele>513.0</ele><time>2026-04-26T08:16:40.234Z</time></trkpt><trkpt lat="43.07703" lon="13.0319867"><ele>518.0</ele><time>2026-04-26T08:16:41.228Z</time></trkpt><trkpt lat="43.0770483" lon="13.0317"><ele>523.0</ele><time>2026-04-26T08:16:42.238Z</time></trkpt><trkpt lat="43.0770617" lon="13.031395"><ele>528.0</ele><time>2026-04-26T08:16:43.235Z</time></trkpt><trkpt lat="43.0770967" lon="13.0310783"><ele>528.3333333333334</ele><time>2026-04-26T08:16:44.233Z</time></trkpt><trkpt lat="43.0771433" lon="13.0307767"><ele>528.6666666666667</ele><time>2026-04-26T08:16:45.238Z</time></trkpt><trkpt lat="43.0772017" lon="13.0304983"><ele>529.0</ele><time>2026-04-26T08:16:46.235Z</time></trkpt><trkpt lat="43.07723" lon="13.0302417"><ele>529.0</ele><time>2026-04-26T08:16:47.232Z</time></trkpt><trkpt lat="43.0772183" lon="13.0300117"><ele>529.0</ele><time>2026-04-26T08:16:48.235Z</time></trkpt><trkpt lat="43.0771617" lon="13.0297867"><ele>529.0</ele><time>2026-04-26T08:16:49.234Z</time></trkpt><trkpt lat="43.0770583" lon="13.029545"><ele>521.5</ele><time>2026-04-26T08:16:50.233Z</time></trkpt><trkpt lat="43.07693" lon="13.0292767"><ele>514.0</ele><time>2026-04-26T08:16:51.229Z</time></trkpt><trkpt lat="43.07682" lon="13.0289717"><ele>508.5</ele><time>2026-04-26T08:16:52.229Z</time></trkpt><trkpt lat="43.0767133" lon="13.02862"><ele>503.0</ele><time>2026-04-26T08:16:53.225Z</time></trkpt><trkpt lat="43.07659" lon="13.0282433"><ele>516.0</ele><time>2026-04-26T08:16:54.232Z</time></trkpt><trkpt lat="43.076445" lon="13.0278783"><ele>529.0</ele><time>2026-04-26T08:16:55.23Z</time></trkpt><trkpt lat="43.0762933" lon="13.02754"><ele>519.5</ele><time>2026-04-26T08:16:56.233Z</time></trkpt><trkpt lat="43.07615" lon="13.0272367"><ele>510.0</ele><time>2026-04-26T08:16:57.235Z</time></trkpt><trkpt lat="43.0760133" lon="13.0269567"><ele>510.0</ele><time>2026-04-26T08:16:58.233Z</time></trkpt><trkpt lat="43.0758817" lon="13.0266817"><ele>510.0</ele><time>2026-04-26T08:16:59.24Z</time></trkpt><trkpt lat="43.07574" lon="13.0264233"><ele>510.5</ele><time>2026-04-26T08:17:00.234Z</time></trkpt><trkpt lat="43.0755783" lon="13.0262017"><ele>511.0</ele><time>2026-04-26T08:17:01.238Z</time></trkpt><trkpt lat="43.0754017" lon="13.0260167"><ele>511.0</ele><time>2026-04-26T08:17:02.234Z</time></trkpt><trkpt lat="43.07521" lon="13.0258583"><ele>511.0</ele><time>2026-04-26T08:17:03.228Z</time></trkpt><trkpt lat="43.0750083" lon="13.0257183"><ele>511.0</ele><time>2026-04-26T08:17:04.229Z</time></trkpt><trkpt lat="43.074795" lon="13.0255733"><ele>511.0</ele><time>2026-04-26T08:17:05.233Z</time></trkpt><trkpt lat="43.0745717" lon="13.0254167"><ele>511.0</ele><time>2026-04-26T08:17:06.232Z</time></trkpt><trkpt lat="43.07435" lon="13.0252417"><ele>511.0</ele><time>2026-04-26T08:17:07.23Z</time></trkpt><trkpt lat="43.07413" lon="13.0250483"><ele>511.0</ele><time>2026-04-26T08:17:08.233Z</time></trkpt><trkpt lat="43.0739167" lon="13.0248517"><ele>511.0</ele><time>2026-04-26T08:17:09.234Z</time></trkpt><trkpt lat="43.0737183" lon="13.0246567"><ele>511.0</ele><time>2026-04-26T08:17:10.233Z</time></trkpt><trkpt lat="43.0735283" lon="13.0244583"><ele>511.0</ele><time>2026-04-26T08:17:11.233Z</time></trkpt><trkpt lat="43.073355" lon="13.0242633"><ele>518.3333333333334</ele><time>2026-04-26T08:17:12.233Z</time></trkpt><trkpt lat="43.0732" lon="13.024075"><ele>525.6666666666666</ele><time>2026-04-26T08:17:13.232Z</time></trkpt><trkpt lat="43.0730667" lon="13.02389"><ele>533.0</ele><time>2026-04-26T08:17:14.232Z</time></trkpt><trkpt lat="43.072955" lon="13.02368"><ele>533.0</ele><time>2026-04-26T08:17:15.232Z</time></trkpt><trkpt lat="43.072865" lon="13.0234383"><ele>533.0</ele><time>2026-04-26T08:17:16.233Z</time></trkpt><trkpt lat="43.0727917" lon="13.02318"><ele>533.0</ele><time>2026-04-26T08:17:17.236Z</time></trkpt><trkpt lat="43.0727017" lon="13.0229217"><ele>535.5</ele><time>2026-04-26T08:17:18.232Z</time></trkpt><trkpt lat="43.072575" lon="13.0226667"><ele>538.0</ele><time>2026-04-26T08:17:19.233Z</time></trkpt><trkpt lat="43.07243" lon="13.0224317"><ele>538.0</ele><time>2026-04-26T08:17:20.233Z</time></trkpt><trkpt lat="43.0723067" lon="13.0221983"><ele>538.0</ele><time>2026-04-26T08:17:21.235Z</time></trkpt><trkpt lat="43.0722067" lon="13.0219333"><ele>538.0</ele><time>2026-04-26T08:17:22.231Z</time></trkpt><trkpt lat="43.07214" lon="13.0216367"><ele>532.6666666666667</ele><time>2026-04-26T08:17:23.231Z</time></trkpt><trkpt lat="43.0720867" lon="13.02135"><ele>527.3333333333334</ele><time>2026-04-26T08:17:24.234Z</time></trkpt><trkpt lat="43.0720367" lon="13.0210867"><ele>522.0</ele><time>2026-04-26T08:17:25.234Z</time></trkpt><trkpt lat="43.07195" lon="13.0208583"><ele>519.3333333333334</ele><time>2026-04-26T08:17:26.234Z</time></trkpt><trkpt lat="43.0718133" lon="13.0206517"><ele>516.6666666666667</ele><time>2026-04-26T08:17:27.238Z</time></trkpt><trkpt lat="43.07167" lon="13.020435"><ele>514.0</ele><time>2026-04-26T08:17:28.235Z</time></trkpt><trkpt lat="43.0715217" lon="13.0201833"><ele>520.5</ele><time>2026-04-26T08:17:29.23Z</time></trkpt><trkpt lat="43.0713817" lon="13.0198983"><ele>527.0</ele><time>2026-04-26T08:17:30.231Z</time></trkpt><trkpt lat="43.0712517" lon="13.01958"><ele>527.0</ele><time>2026-04-26T08:17:31.234Z</time></trkpt><trkpt lat="43.071115" lon="13.0192617"><ele>527.0</ele><time>2026-04-26T08:17:32.232Z</time></trkpt><trkpt lat="43.0709783" lon="13.0189583"><ele>519.5</ele><time>2026-04-26T08:17:33.234Z</time></trkpt><trkpt lat="43.0708433" lon="13.0186717"><ele>512.0</ele><time>2026-04-26T08:17:34.234Z</time></trkpt><trkpt lat="43.07068" lon="13.0184083"><ele>523.0</ele><time>2026-04-26T08:17:35.232Z</time></trkpt><trkpt lat="43.07051" lon="13.0181667"><ele>534.0</ele><time>2026-04-26T08:17:36.234Z</time></trkpt><trkpt lat="43.070355" lon="13.0179467"><ele>534.0</ele><time>2026-04-26T08:17:37.234Z</time></trkpt><trkpt lat="43.07022" lon="13.01772"><ele>534.0</ele><time>2026-04-26T08:17:38.234Z</time></trkpt><trkpt lat="43.07011" lon="13.0174567"><ele>534.0</ele><time>2026-04-26T08:17:39.238Z</time></trkpt><trkpt lat="43.0700383" lon="13.0171567"><ele>528.0</ele><time>2026-04-26T08:17:40.234Z</time></trkpt><trkpt lat="43.0699933" lon="13.0168317"><ele>522.0</ele><time>2026-04-26T08:17:41.232Z</time></trkpt><trkpt lat="43.069945" lon="13.01651"><ele>539.5</ele><time>2026-04-26T08:17:42.233Z</time></trkpt><trkpt lat="43.0698633" lon="13.0161867"><ele>557.0</ele><time>2026-04-26T08:17:43.237Z</time></trkpt><trkpt lat="43.06976" lon="13.01586"><ele>546.5</ele><time>2026-04-26T08:17:44.234Z</time></trkpt><trkpt lat="43.0696517" lon="13.0155367"><ele>536.0</ele><time>2026-04-26T08:17:45.232Z</time></trkpt><trkpt lat="43.069545" lon="13.0152267"><ele>533.5</ele><time>2026-04-26T08:17:46.234Z</time></trkpt><trkpt lat="43.0694467" lon="13.01494"><ele>531.0</ele><time>2026-04-26T08:17:47.233Z</time></trkpt><trkpt lat="43.0693667" lon="13.01466"><ele>531.0</ele><time>2026-04-26T08:17:48.231Z</time></trkpt><trkpt lat="43.06931" lon="13.01438"><ele>531.0</ele><time>2026-04-26T08:17:49.233Z</time></trkpt><trkpt lat="43.06928" lon="13.0140767"><ele>531.0</ele><time>2026-04-26T08:17:50.233Z</time></trkpt><trkpt lat="43.0692683" lon="13.0137717"><ele>529.6666666666666</ele><time>2026-04-26T08:17:51.233Z</time></trkpt><trkpt lat="43.0692667" lon="13.0134717"><ele>528.3333333333333</ele><time>2026-04-26T08:17:52.233Z</time></trkpt><trkpt lat="43.069275" lon="13.0131717"><ele>527.0</ele><time>2026-04-26T08:17:53.232Z</time></trkpt><trkpt lat="43.069315" lon="13.0128883"><ele>527.0</ele><time>2026-04-26T08:17:54.232Z</time></trkpt><trkpt lat="43.0693983" lon="13.0126367"><ele>527.0</ele><time>2026-04-26T08:17:55.235Z</time></trkpt><trkpt lat="43.06953" lon="13.0124367"><ele>527.0</ele><time>2026-04-26T08:17:56.232Z</time></trkpt><trkpt lat="43.06968" lon="13.012275"><ele>526.3333333333333</ele><time>2026-04-26T08:17:57.234Z</time></trkpt><trkpt lat="43.06982" lon="13.0121167"><ele>525.6666666666666</ele><time>2026-04-26T08:17:58.232Z</time></trkpt><trkpt lat="43.0699483" lon="13.0119717"><ele>525.0</ele><time>2026-04-26T08:17:59.23Z</time></trkpt><trkpt lat="43.07007" lon="13.0118367"><ele>525.0</ele><time>2026-04-26T08:18:00.231Z</time></trkpt><trkpt lat="43.0701833" lon="13.0117017"><ele>525.0</ele><time>2026-04-26T08:18:01.232Z</time></trkpt><trkpt lat="43.070295" lon="13.0115633"><ele>525.0</ele><time>2026-04-26T08:18:02.232Z</time></trkpt><trkpt lat="43.0704017" lon="13.01143"><ele>525.0</ele><time>2026-04-26T08:18:03.233Z</time></trkpt><trkpt lat="43.07051" lon="13.0112933"><ele>526.0</ele><time>2026-04-26T08:18:04.233Z</time></trkpt><trkpt lat="43.070615" lon="13.01115"><ele>527.0</ele><time>2026-04-26T08:18:05.231Z</time></trkpt><trkpt lat="43.07072" lon="13.0110017"><ele>528.0</ele><time>2026-04-26T08:18:06.233Z</time></trkpt><trkpt lat="43.0708233" lon="13.010855"><ele>529.0</ele><time>2026-04-26T08:18:07.23Z</time></trkpt><trkpt lat="43.0709217" lon="13.0107117"><ele>535.75</ele><time>2026-04-26T08:18:08.237Z</time></trkpt><trkpt lat="43.0710083" lon="13.0105767"><ele>542.5</ele><time>2026-04-26T08:18:09.236Z</time></trkpt><trkpt lat="43.071095" lon="13.0104517"><ele>549.25</ele><time>2026-04-26T08:18:10.233Z</time></trkpt><trkpt lat="43.071185" lon="13.0103383"><ele>556.0</ele><time>2026-04-26T08:18:11.23Z</time></trkpt><trkpt lat="43.0712767" lon="13.0102283"><ele>556.0</ele><time>2026-04-26T08:18:12.232Z</time></trkpt><trkpt lat="43.0713733" lon="13.0101217"><ele>556.0</ele><time>2026-04-26T08:18:13.235Z</time></trkpt><trkpt lat="43.07147" lon="13.0100133"><ele>556.0</ele><time>2026-04-26T08:18:14.233Z</time></trkpt><trkpt lat="43.0715633" lon="13.0099"><ele>556.0</ele><time>2026-04-26T08:18:15.234Z</time></trkpt><trkpt lat="43.0716517" lon="13.0097817"><ele>555.0</ele><time>2026-04-26T08:18:16.232Z</time></trkpt><trkpt lat="43.0717333" lon="13.009655"><ele>554.0</ele><time>2026-04-26T08:18:17.232Z</time></trkpt><trkpt lat="43.0718033" lon="13.0095167"><ele>553.0</ele><time>2026-04-26T08:18:18.233Z</time></trkpt><trkpt lat="43.0718583" lon="13.0093633"><ele>552.0</ele><time>2026-04-26T08:18:19.237Z</time></trkpt><trkpt lat="43.0719033" lon="13.0092083"><ele>558.25</ele><time>2026-04-26T08:18:20.234Z</time></trkpt><trkpt lat="43.0719533" lon="13.0090617"><ele>564.5</ele><time>2026-04-26T08:18:21.231Z</time></trkpt><trkpt lat="43.0720133" lon="13.0089217"><ele>570.75</ele><time>2026-04-26T08:18:22.233Z</time></trkpt><trkpt lat="43.0720817" lon="13.008785"><ele>577.0</ele><time>2026-04-26T08:18:23.233Z</time></trkpt><trkpt lat="43.0721567" lon="13.0086467"><ele>577.0</ele><time>2026-04-26T08:18:24.225Z</time></trkpt><trkpt lat="43.07223" lon="13.0085083"><ele>577.0</ele><time>2026-04-26T08:18:25.234Z</time></trkpt><trkpt lat="43.0723067" lon="13.0083667"><ele>577.0</ele><time>2026-04-26T08:18:26.233Z</time></trkpt><trkpt lat="43.0723817" lon="13.0082183"><ele>577.0</ele><time>2026-04-26T08:18:27.229Z</time></trkpt><trkpt lat="43.072465" lon="13.0080517"><ele>575.6666666666667</ele><time>2026-04-26T08:18:28.231Z</time></trkpt><trkpt lat="43.0725567" lon="13.0078617"><ele>574.3333333333334</ele><time>2026-04-26T08:18:29.235Z</time></trkpt><trkpt lat="43.0726533" lon="13.0076567"><ele>573.0</ele><time>2026-04-26T08:18:30.236Z</time></trkpt><trkpt lat="43.072745" lon="13.00744"><ele>573.0</ele><time>2026-04-26T08:18:31.232Z</time></trkpt><trkpt lat="43.0728383" lon="13.0072017"><ele>573.0</ele><time>2026-04-26T08:18:32.232Z</time></trkpt><trkpt lat="43.0729483" lon="13.0069567"><ele>573.0</ele><time>2026-04-26T08:18:33.232Z</time></trkpt><trkpt lat="43.0730783" lon="13.006715"><ele>582.0</ele><time>2026-04-26T08:18:34.229Z</time></trkpt><trkpt lat="43.0732183" lon="13.0064833"><ele>591.0</ele><time>2026-04-26T08:18:35.231Z</time></trkpt><trkpt lat="43.0733467" lon="13.0062517"><ele>600.0</ele><time>2026-04-26T08:18:36.233Z</time></trkpt><trkpt lat="43.0734383" lon="13.0060067"><ele>586.6666666666666</ele><time>2026-04-26T08:18:37.233Z</time></trkpt><trkpt lat="43.0735017" lon="13.0057483"><ele>573.3333333333333</ele><time>2026-04-26T08:18:38.235Z</time></trkpt><trkpt lat="43.0735717" lon="13.0054967"><ele>560.0</ele><time>2026-04-26T08:18:39.235Z</time></trkpt><trkpt lat="43.0736583" lon="13.0052583"><ele>560.0</ele><time>2026-04-26T08:18:40.235Z</time></trkpt><trkpt lat="43.0737667" lon="13.0050433"><ele>560.0</ele><time>2026-04-26T08:18:41.231Z</time></trkpt><trkpt lat="43.073895" lon="13.0048733"><ele>560.0</ele><time>2026-04-26T08:18:42.232Z</time></trkpt><trkpt lat="43.0740233" lon="13.0047383"><ele>557.0</ele><time>2026-04-26T08:18:43.229Z</time></trkpt><trkpt lat="43.0741467" lon="13.0046083"><ele>554.0</ele><time>2026-04-26T08:18:44.233Z</time></trkpt><trkpt lat="43.0742567" lon="13.0044667"><ele>551.0</ele><time>2026-04-26T08:18:45.234Z</time></trkpt><trkpt lat="43.0743433" lon="13.004295"><ele>555.3333333333333</ele><time>2026-04-26T08:18:46.233Z</time></trkpt><trkpt lat="43.0744233" lon="13.0041083"><ele>559.6666666666666</ele><time>2026-04-26T08:18:47.23Z</time></trkpt><trkpt lat="43.0744983" lon="13.00392"><ele>564.0</ele><time>2026-04-26T08:18:48.232Z</time></trkpt><trkpt lat="43.0745767" lon="13.003735"><ele>564.0</ele><time>2026-04-26T08:18:49.233Z</time></trkpt><trkpt lat="43.0746617" lon="13.0035533"><ele>564.0</ele><time>2026-04-26T08:18:50.236Z</time></trkpt><trkpt lat="43.07473" lon="13.0033667"><ele>564.0</ele><time>2026-04-26T08:18:51.232Z</time></trkpt><trkpt lat="43.07479" lon="13.00319"><ele>564.0</ele><time>2026-04-26T08:18:52.231Z</time></trkpt><trkpt lat="43.0748417" lon="13.0030217"><ele>564.0</ele><time>2026-04-26T08:18:53.232Z</time></trkpt><trkpt lat="43.0748917" lon="13.0028683"><ele>564.0</ele><time>2026-04-26T08:18:54.231Z</time></trkpt><trkpt lat="43.0749433" lon="13.0027217"><ele>564.0</ele><time>2026-04-26T08:18:55.23Z</time></trkpt><trkpt lat="43.0749967" lon="13.0025867"><ele>563.6666666666666</ele><time>2026-04-26T08:18:56.233Z</time></trkpt><trkpt lat="43.07505" lon="13.002465"><ele>563.3333333333334</ele><time>2026-04-26T08:18:57.235Z</time></trkpt><trkpt lat="43.0751" lon="13.0023683"><ele>563.0</ele><time>2026-04-26T08:18:58.232Z</time></trkpt><trkpt lat="43.0751417" lon="13.0023033"><ele>562.6666666666667</ele><time>2026-04-26T08:18:59.231Z</time></trkpt><trkpt lat="43.075195" lon="13.002235"><ele>562.3333333333334</ele><time>2026-04-26T08:19:01.232Z</time></trkpt><trkpt lat="43.0752083" lon="13.0021067"><ele>562.0</ele><time>2026-04-26T08:19:30.233Z</time></trkpt><trkpt lat="43.0752633" lon="13.00204"><ele>562.0</ele><time>2026-04-26T08:19:31.234Z</time></trkpt><trkpt lat="43.07533" lon="13.0019433"><ele>562.0</ele><time>2026-04-26T08:19:32.236Z</time></trkpt><trkpt lat="43.0754133" lon="13.0018233"><ele>562.0</ele><time>2026-04-26T08:19:33.235Z</time></trkpt><trkpt lat="43.0755383" lon="13.00166"><ele>562.0</ele><time>2026-04-26T08:19:34.234Z</time></trkpt><trkpt lat="43.07566" lon="13.0015017"><ele>559.3333333333334</ele><time>2026-04-26T08:19:35.234Z</time></trkpt><trkpt lat="43.0757883" lon="13.0013283"><ele>556.6666666666666</ele><time>2026-04-26T08:19:36.232Z</time></trkpt><trkpt lat="43.0759017" lon="13.0011383"><ele>554.0</ele><time>2026-04-26T08:19:37.236Z</time></trkpt><trkpt lat="43.0759983" lon="13.0009283"><ele>555.6666666666666</ele><time>2026-04-26T08:19:38.234Z</time></trkpt><trkpt lat="43.0760583" lon="13.0006867"><ele>557.3333333333334</ele><time>2026-04-26T08:19:39.234Z</time></trkpt><trkpt lat="43.0760833" lon="13.0004083"><ele>559.0</ele><time>2026-04-26T08:19:40.235Z</time></trkpt><trkpt lat="43.0760867" lon="13.000115"><ele>559.0</ele><time>2026-04-26T08:19:41.235Z</time></trkpt><trkpt lat="43.0761067" lon="12.9998217"><ele>559.0</ele><time>2026-04-26T08:19:42.233Z</time></trkpt><trkpt lat="43.0761533" lon="12.9995317"><ele>559.0</ele><time>2026-04-26T08:19:43.234Z</time></trkpt><trkpt lat="43.0762283" lon="12.999235"><ele>561.5</ele><time>2026-04-26T08:19:44.232Z</time></trkpt><trkpt lat="43.076305" lon="12.998925"><ele>564.0</ele><time>2026-04-26T08:19:45.236Z</time></trkpt><trkpt lat="43.0763583" lon="12.9986133"><ele>565.3333333333334</ele><time>2026-04-26T08:19:46.235Z</time></trkpt><trkpt lat="43.0763867" lon="12.9983067"><ele>566.6666666666667</ele><time>2026-04-26T08:19:47.233Z</time></trkpt><trkpt lat="43.0763633" lon="12.9980083"><ele>568.0</ele><time>2026-04-26T08:19:48.232Z</time></trkpt><trkpt lat="43.076325" lon="12.9976917"><ele>570.0</ele><time>2026-04-26T08:19:49.23Z</time></trkpt><trkpt lat="43.076295" lon="12.9973717"><ele>572.0</ele><time>2026-04-26T08:19:50.231Z</time></trkpt><trkpt lat="43.0762833" lon="12.9970583"><ele>572.0</ele><time>2026-04-26T08:19:51.234Z</time></trkpt><trkpt lat="43.0762933" lon="12.9967633"><ele>572.0</ele><time>2026-04-26T08:19:52.234Z</time></trkpt><trkpt lat="43.0763217" lon="12.9964733"><ele>572.0</ele><time>2026-04-26T08:19:53.231Z</time></trkpt><trkpt lat="43.0763633" lon="12.9961933"><ele>572.6666666666666</ele><time>2026-04-26T08:19:54.232Z</time></trkpt><trkpt lat="43.0764233" lon="12.99592"><ele>573.3333333333334</ele><time>2026-04-26T08:19:55.233Z</time></trkpt><trkpt lat="43.076495" lon="12.9956567"><ele>574.0</ele><time>2026-04-26T08:19:56.233Z</time></trkpt><trkpt lat="43.0765717" lon="12.9954033"><ele>572.0</ele><time>2026-04-26T08:19:57.234Z</time></trkpt><trkpt lat="43.0766517" lon="12.99516"><ele>570.0</ele><time>2026-04-26T08:19:58.235Z</time></trkpt><trkpt lat="43.0767333" lon="12.99491"><ele>568.0</ele><time>2026-04-26T08:19:59.234Z</time></trkpt><trkpt lat="43.0768" lon="12.99466"><ele>568.0</ele><time>2026-04-26T08:20:00.233Z</time></trkpt><trkpt lat="43.0768417" lon="12.9943983"><ele>568.0</ele><time>2026-04-26T08:20:01.233Z</time></trkpt><trkpt lat="43.0768317" lon="12.9941133"><ele>568.0</ele><time>2026-04-26T08:20:02.233Z</time></trkpt><trkpt lat="43.0767867" lon="12.9938167"><ele>568.0</ele><time>2026-04-26T08:20:03.235Z</time></trkpt><trkpt lat="43.0767233" lon="12.9935333"><ele>568.0</ele><time>2026-04-26T08:20:04.23Z</time></trkpt><trkpt lat="43.07665" lon="12.9932717"><ele>568.0</ele><time>2026-04-26T08:20:05.236Z</time></trkpt><trkpt lat="43.076575" lon="12.9930183"><ele>577.3333333333334</ele><time>2026-04-26T08:20:06.232Z</time></trkpt><trkpt lat="43.0765083" lon="12.992755"><ele>586.6666666666666</ele><time>2026-04-26T08:20:07.233Z</time></trkpt><trkpt lat="43.0764617" lon="12.9924767"><ele>596.0</ele><time>2026-04-26T08:20:08.233Z</time></trkpt><trkpt lat="43.076455" lon="12.9921817"><ele>596.3333333333333</ele><time>2026-04-26T08:20:09.237Z</time></trkpt><trkpt lat="43.0764583" lon="12.9919"><ele>596.6666666666666</ele><time>2026-04-26T08:20:10.235Z</time></trkpt><trkpt lat="43.0764633" lon="12.9916383"><ele>597.0</ele><time>2026-04-26T08:20:11.233Z</time></trkpt><trkpt lat="43.076475" lon="12.9913917"><ele>598.6666666666666</ele><time>2026-04-26T08:20:12.236Z</time></trkpt><trkpt lat="43.076495" lon="12.9911667"><ele>600.3333333333333</ele><time>2026-04-26T08:20:13.235Z</time></trkpt><trkpt lat="43.0765367" lon="12.99096"><ele>602.0</ele><time>2026-04-26T08:20:14.231Z</time></trkpt><trkpt lat="43.0766267" lon="12.990785"><ele>591.6666666666666</ele><time>2026-04-26T08:20:15.233Z</time></trkpt><trkpt lat="43.076735" lon="12.9906383"><ele>581.3333333333334</ele><time>2026-04-26T08:20:16.232Z</time></trkpt><trkpt lat="43.0768217" lon="12.990475"><ele>571.0</ele><time>2026-04-26T08:20:17.23Z</time></trkpt><trkpt lat="43.0768767" lon="12.9902817"><ele>571.0</ele><time>2026-04-26T08:20:18.231Z</time></trkpt><trkpt lat="43.0768933" lon="12.9900317"><ele>571.0</ele><time>2026-04-26T08:20:19.233Z</time></trkpt><trkpt lat="43.0769033" lon="12.9897683"><ele>571.0</ele><time>2026-04-26T08:20:20.234Z</time></trkpt><trkpt lat="43.07691" lon="12.9894967"><ele>571.6666666666667</ele><time>2026-04-26T08:20:21.235Z</time></trkpt><trkpt lat="43.0769117" lon="12.9892083"><ele>572.3333333333334</ele><time>2026-04-26T08:20:22.234Z</time></trkpt><trkpt lat="43.0769183" lon="12.9889167"><ele>573.0</ele><time>2026-04-26T08:20:23.232Z</time></trkpt><trkpt lat="43.076935" lon="12.9886283"><ele>573.6666666666666</ele><time>2026-04-26T08:20:24.233Z</time></trkpt><trkpt lat="43.076955" lon="12.988335"><ele>574.3333333333333</ele><time>2026-04-26T08:20:25.234Z</time></trkpt><trkpt lat="43.0769783" lon="12.9880333"><ele>575.0</ele><time>2026-04-26T08:20:26.231Z</time></trkpt><trkpt lat="43.0770033" lon="12.987725"><ele>576.6666666666666</ele><time>2026-04-26T08:20:27.238Z</time></trkpt><trkpt lat="43.077045" lon="12.9874233"><ele>578.3333333333334</ele><time>2026-04-26T08:20:28.232Z</time></trkpt><trkpt lat="43.0771033" lon="12.987135"><ele>580.0</ele><time>2026-04-26T08:20:29.235Z</time></trkpt><trkpt lat="43.077165" lon="12.98685"><ele>582.3333333333334</ele><time>2026-04-26T08:20:30.233Z</time></trkpt><trkpt lat="43.0772017" lon="12.9865717"><ele>584.6666666666666</ele><time>2026-04-26T08:20:31.236Z</time></trkpt><trkpt lat="43.07721" lon="12.9863067"><ele>587.0</ele><time>2026-04-26T08:20:32.236Z</time></trkpt><trkpt lat="43.0772" lon="12.9860583"><ele>588.3333333333333</ele><time>2026-04-26T08:20:33.234Z</time></trkpt><trkpt lat="43.0771783" lon="12.9858233"><ele>589.6666666666666</ele><time>2026-04-26T08:20:34.234Z</time></trkpt><trkpt lat="43.0771417" lon="12.9855917"><ele>591.0</ele><time>2026-04-26T08:20:35.235Z</time></trkpt><trkpt lat="43.0770883" lon="12.9853767"><ele>591.0</ele><time>2026-04-26T08:20:36.232Z</time></trkpt><trkpt lat="43.077015" lon="12.98517"><ele>591.0</ele><time>2026-04-26T08:20:37.234Z</time></trkpt><trkpt lat="43.07692" lon="12.9849717"><ele>591.0</ele><time>2026-04-26T08:20:38.236Z</time></trkpt><trkpt lat="43.0768067" lon="12.9847867"><ele>591.6666666666666</ele><time>2026-04-26T08:20:39.238Z</time></trkpt><trkpt lat="43.076685" lon="12.98461"><ele>592.3333333333333</ele><time>2026-04-26T08:20:40.231Z</time></trkpt><trkpt lat="43.0765733" lon="12.9844383"><ele>593.0</ele><time>2026-04-26T08:20:41.236Z</time></trkpt><trkpt lat="43.0764817" lon="12.9842583"><ele>601.3333333333333</ele><time>2026-04-26T08:20:42.233Z</time></trkpt><trkpt lat="43.076425" lon="12.98405"><ele>609.6666666666666</ele><time>2026-04-26T08:20:43.234Z</time></trkpt><trkpt lat="43.0764033" lon="12.9838133"><ele>618.0</ele><time>2026-04-26T08:20:44.231Z</time></trkpt><trkpt lat="43.0764283" lon="12.9835467"><ele>615.3333333333334</ele><time>2026-04-26T08:20:45.235Z</time></trkpt><trkpt lat="43.0764733" lon="12.9832583"><ele>612.6666666666667</ele><time>2026-04-26T08:20:46.233Z</time></trkpt><trkpt lat="43.0765167" lon="12.98297"><ele>610.0</ele><time>2026-04-26T08:20:47.233Z</time></trkpt><trkpt lat="43.0765317" lon="12.9826817"><ele>606.6666666666667</ele><time>2026-04-26T08:20:48.233Z</time></trkpt><trkpt lat="43.076515" lon="12.9823883"><ele>603.3333333333334</ele><time>2026-04-26T08:20:49.232Z</time></trkpt><trkpt lat="43.0765" lon="12.9820967"><ele>600.0</ele><time>2026-04-26T08:20:50.235Z</time></trkpt><trkpt lat="43.076515" lon="12.9818"><ele>599.0</ele><time>2026-04-26T08:20:51.234Z</time></trkpt><trkpt lat="43.07654" lon="12.9815033"><ele>598.0</ele><time>2026-04-26T08:20:52.231Z</time></trkpt><trkpt lat="43.0765517" lon="12.9812083"><ele>597.0</ele><time>2026-04-26T08:20:53.235Z</time></trkpt><trkpt lat="43.076535" lon="12.9809367"><ele>596.3333333333334</ele><time>2026-04-26T08:20:54.234Z</time></trkpt><trkpt lat="43.0764867" lon="12.98067"><ele>595.6666666666667</ele><time>2026-04-26T08:20:55.231Z</time></trkpt><trkpt lat="43.076395" lon="12.980425"><ele>595.0</ele><time>2026-04-26T08:20:56.232Z</time></trkpt><trkpt lat="43.076285" lon="12.9802033"><ele>594.3333333333334</ele><time>2026-04-26T08:20:57.236Z</time></trkpt><trkpt lat="43.07616" lon="12.9800067"><ele>593.6666666666666</ele><time>2026-04-26T08:20:58.236Z</time></trkpt><trkpt lat="43.0760333" lon="12.9798217"><ele>593.0</ele><time>2026-04-26T08:20:59.233Z</time></trkpt><trkpt lat="43.0759017" lon="12.9796467"><ele>596.0</ele><time>2026-04-26T08:21:00.235Z</time></trkpt><trkpt lat="43.0757683" lon="12.9794717"><ele>599.0</ele><time>2026-04-26T08:21:01.236Z</time></trkpt><trkpt lat="43.0756433" lon="12.979285"><ele>602.0</ele><time>2026-04-26T08:21:02.237Z</time></trkpt><trkpt lat="43.07553" lon="12.97909"><ele>602.0</ele><time>2026-04-26T08:21:03.245Z</time></trkpt><trkpt lat="43.075425" lon="12.9788833"><ele>602.0</ele><time>2026-04-26T08:21:04.235Z</time></trkpt><trkpt lat="43.0753267" lon="12.97867"><ele>602.0</ele><time>2026-04-26T08:21:05.231Z</time></trkpt><trkpt lat="43.07524" lon="12.97845"><ele>600.0</ele><time>2026-04-26T08:21:06.232Z</time></trkpt><trkpt lat="43.0751583" lon="12.9782233"><ele>598.0</ele><time>2026-04-26T08:21:07.236Z</time></trkpt><trkpt lat="43.0750733" lon="12.9779967"><ele>596.0</ele><time>2026-04-26T08:21:08.234Z</time></trkpt><trkpt lat="43.0749883" lon="12.9777683"><ele>601.3333333333333</ele><time>2026-04-26T08:21:09.234Z</time></trkpt><trkpt lat="43.0749017" lon="12.977545"><ele>606.6666666666666</ele><time>2026-04-26T08:21:10.232Z</time></trkpt><trkpt lat="43.0748167" lon="12.9773217"><ele>612.0</ele><time>2026-04-26T08:21:11.233Z</time></trkpt><trkpt lat="43.0747317" lon="12.9770933"><ele>612.0</ele><time>2026-04-26T08:21:12.231Z</time></trkpt><trkpt lat="43.074645" lon="12.97686"><ele>612.0</ele><time>2026-04-26T08:21:13.234Z</time></trkpt><trkpt lat="43.07456" lon="12.9766267"><ele>612.0</ele><time>2026-04-26T08:21:14.233Z</time></trkpt><trkpt lat="43.074475" lon="12.9763933"><ele>609.0</ele><time>2026-04-26T08:21:15.237Z</time></trkpt><trkpt lat="43.0743983" lon="12.976155"><ele>606.0</ele><time>2026-04-26T08:21:16.235Z</time></trkpt><trkpt lat="43.0743333" lon="12.975915"><ele>603.0</ele><time>2026-04-26T08:21:17.231Z</time></trkpt><trkpt lat="43.0742817" lon="12.975665"><ele>602.3333333333334</ele><time>2026-04-26T08:21:18.233Z</time></trkpt><trkpt lat="43.074245" lon="12.97542"><ele>601.6666666666667</ele><time>2026-04-26T08:21:19.233Z</time></trkpt><trkpt lat="43.0742233" lon="12.9751883"><ele>601.0</ele><time>2026-04-26T08:21:20.233Z</time></trkpt><trkpt lat="43.0742233" lon="12.974965"><ele>601.0</ele><time>2026-04-26T08:21:21.233Z</time></trkpt><trkpt lat="43.07424" lon="12.9747467"><ele>601.0</ele><time>2026-04-26T08:21:22.233Z</time></trkpt><trkpt lat="43.074265" lon="12.9745167"><ele>601.0</ele><time>2026-04-26T08:21:23.228Z</time></trkpt><trkpt lat="43.074305" lon="12.9742883"><ele>601.6666666666667</ele><time>2026-04-26T08:21:24.232Z</time></trkpt><trkpt lat="43.0743533" lon="12.9740633"><ele>602.3333333333334</ele><time>2026-04-26T08:21:25.236Z</time></trkpt><trkpt lat="43.0744083" lon="12.97384"><ele>603.0</ele><time>2026-04-26T08:21:26.233Z</time></trkpt><trkpt lat="43.0744683" lon="12.9736167"><ele>603.0</ele><time>2026-04-26T08:21:27.233Z</time></trkpt><trkpt lat="43.074535" lon="12.9733983"><ele>603.0</ele><time>2026-04-26T08:21:28.232Z</time></trkpt><trkpt lat="43.0746" lon="12.9731817"><ele>603.0</ele><time>2026-04-26T08:21:29.235Z</time></trkpt><trkpt lat="43.0746617" lon="12.972965"><ele>603.6666666666666</ele><time>2026-04-26T08:21:30.232Z</time></trkpt><trkpt lat="43.07473" lon="12.97275"><ele>604.3333333333333</ele><time>2026-04-26T08:21:31.233Z</time></trkpt><trkpt lat="43.0748" lon="12.9725433"><ele>605.0</ele><time>2026-04-26T08:21:32.229Z</time></trkpt><trkpt lat="43.0748717" lon="12.9723483"><ele>603.0</ele><time>2026-04-26T08:21:33.236Z</time></trkpt><trkpt lat="43.07494" lon="12.972175"><ele>601.0</ele><time>2026-04-26T08:21:34.228Z</time></trkpt><trkpt lat="43.07501" lon="12.9720233"><ele>599.0</ele><time>2026-04-26T08:21:35.232Z</time></trkpt><trkpt lat="43.075095" lon="12.9719083"><ele>597.0</ele><time>2026-04-26T08:21:36.232Z</time></trkpt><trkpt lat="43.0751867" lon="12.97183"><ele>597.0</ele><time>2026-04-26T08:21:37.234Z</time></trkpt><trkpt lat="43.0752633" lon="12.9717533"><ele>597.0</ele><time>2026-04-26T08:21:38.233Z</time></trkpt><trkpt lat="43.07531" lon="12.971655"><ele>597.0</ele><time>2026-04-26T08:21:39.233Z</time></trkpt><trkpt lat="43.0753383" lon="12.9715383"><ele>597.0</ele><time>2026-04-26T08:21:40.232Z</time></trkpt><trkpt lat="43.0753417" lon="12.9713983"><ele>597.0</ele><time>2026-04-26T08:21:41.233Z</time></trkpt><trkpt lat="43.0753633" lon="12.9712617"><ele>598.0</ele><time>2026-04-26T08:21:42.233Z</time></trkpt><trkpt lat="43.0754067" lon="12.9711217"><ele>599.0</ele><time>2026-04-26T08:21:43.233Z</time></trkpt><trkpt lat="43.0754717" lon="12.9709717"><ele>600.0</ele><time>2026-04-26T08:21:44.232Z</time></trkpt><trkpt lat="43.0755383" lon="12.9708183"><ele>601.0</ele><time>2026-04-26T08:21:45.233Z</time></trkpt><trkpt lat="43.07561" lon="12.9706583"><ele>599.6666666666667</ele><time>2026-04-26T08:21:46.233Z</time></trkpt><trkpt lat="43.075685" lon="12.970485"><ele>598.3333333333334</ele><time>2026-04-26T08:21:47.234Z</time></trkpt><trkpt lat="43.075765" lon="12.9703067"><ele>597.0</ele><time>2026-04-26T08:21:48.236Z</time></trkpt><trkpt lat="43.0758433" lon="12.9701317"><ele>596.6666666666666</ele><time>2026-04-26T08:21:49.236Z</time></trkpt><trkpt lat="43.0759267" lon="12.9699517"><ele>596.3333333333333</ele><time>2026-04-26T08:21:50.235Z</time></trkpt><trkpt lat="43.0760133" lon="12.9697667"><ele>596.0</ele><time>2026-04-26T08:21:51.237Z</time></trkpt><trkpt lat="43.0760983" lon="12.96959"><ele>596.0</ele><time>2026-04-26T08:21:52.235Z</time></trkpt><trkpt lat="43.0761733" lon="12.9694283"><ele>596.0</ele><time>2026-04-26T08:21:53.234Z</time></trkpt><trkpt lat="43.0762433" lon="12.9692717"><ele>596.0</ele><time>2026-04-26T08:21:54.235Z</time></trkpt><trkpt lat="43.0763167" lon="12.9691017"><ele>596.0</ele><time>2026-04-26T08:21:55.234Z</time></trkpt><trkpt lat="43.0764067" lon="12.9689133"><ele>597.3333333333333</ele><time>2026-04-26T08:21:56.232Z</time></trkpt><trkpt lat="43.07651" lon="12.9687083"><ele>598.6666666666666</ele><time>2026-04-26T08:21:57.233Z</time></trkpt><trkpt lat="43.076615" lon="12.9684917"><ele>600.0</ele><time>2026-04-26T08:21:58.232Z</time></trkpt><trkpt lat="43.0767217" lon="12.9682667"><ele>602.6666666666666</ele><time>2026-04-26T08:21:59.232Z</time></trkpt><trkpt lat="43.076825" lon="12.9680283"><ele>605.3333333333333</ele><time>2026-04-26T08:22:00.233Z</time></trkpt><trkpt lat="43.076915" lon="12.9677783"><ele>608.0</ele><time>2026-04-26T08:22:01.233Z</time></trkpt><trkpt lat="43.0769883" lon="12.9675117"><ele>608.0</ele><time>2026-04-26T08:22:02.232Z</time></trkpt><trkpt lat="43.0770467" lon="12.9672333"><ele>608.0</ele><time>2026-04-26T08:22:03.233Z</time></trkpt><trkpt lat="43.0770933" lon="12.96694"><ele>608.0</ele><time>2026-04-26T08:22:04.233Z</time></trkpt><trkpt lat="43.0771367" lon="12.9666417"><ele>608.5</ele><time>2026-04-26T08:22:05.233Z</time></trkpt><trkpt lat="43.0771783" lon="12.9663367"><ele>609.0</ele><time>2026-04-26T08:22:06.232Z</time></trkpt><trkpt lat="43.0772233" lon="12.9660333"><ele>610.5</ele><time>2026-04-26T08:22:07.236Z</time></trkpt><trkpt lat="43.07728" lon="12.965735"><ele>612.0</ele><time>2026-04-26T08:22:08.234Z</time></trkpt><trkpt lat="43.0773367" lon="12.965435"><ele>612.0</ele><time>2026-04-26T08:22:09.235Z</time></trkpt><trkpt lat="43.0773933" lon="12.9651333"><ele>612.0</ele><time>2026-04-26T08:22:10.231Z</time></trkpt><trkpt lat="43.0774433" lon="12.96484"><ele>612.0</ele><time>2026-04-26T08:22:11.23Z</time></trkpt><trkpt lat="43.0774917" lon="12.9645617"><ele>613.6666666666666</ele><time>2026-04-26T08:22:12.232Z</time></trkpt><trkpt lat="43.0775217" lon="12.9642917"><ele>615.3333333333333</ele><time>2026-04-26T08:22:13.235Z</time></trkpt><trkpt lat="43.0775217" lon="12.9640217"><ele>617.0</ele><time>2026-04-26T08:22:14.234Z</time></trkpt><trkpt lat="43.0774933" lon="12.96375"><ele>616.6666666666666</ele><time>2026-04-26T08:22:15.237Z</time></trkpt><trkpt lat="43.0774333" lon="12.9634783"><ele>616.3333333333334</ele><time>2026-04-26T08:22:16.233Z</time></trkpt><trkpt lat="43.07735" lon="12.9632067"><ele>616.0</ele><time>2026-04-26T08:22:17.233Z</time></trkpt><trkpt lat="43.0772517" lon="12.9629383"><ele>616.0</ele><time>2026-04-26T08:22:18.236Z</time></trkpt><trkpt lat="43.0771533" lon="12.9626683"><ele>616.0</ele><time>2026-04-26T08:22:19.234Z</time></trkpt><trkpt lat="43.0770783" lon="12.9623817"><ele>616.0</ele><time>2026-04-26T08:22:20.231Z</time></trkpt><trkpt lat="43.0770133" lon="12.96209"><ele>616.0</ele><time>2026-04-26T08:22:21.234Z</time></trkpt><trkpt lat="43.076935" lon="12.9618067"><ele>616.0</ele><time>2026-04-26T08:22:22.235Z</time></trkpt><trkpt lat="43.07684" lon="12.9615467"><ele>616.0</ele><time>2026-04-26T08:22:23.236Z</time></trkpt><trkpt lat="43.076735" lon="12.9613167"><ele>616.0</ele><time>2026-04-26T08:22:24.235Z</time></trkpt><trkpt lat="43.0766283" lon="12.9611033"><ele>616.0</ele><time>2026-04-26T08:22:25.238Z</time></trkpt><trkpt lat="43.0765167" lon="12.9609083"><ele>616.0</ele><time>2026-04-26T08:22:26.232Z</time></trkpt><trkpt lat="43.0764117" lon="12.9607167"><ele>617.6666666666667</ele><time>2026-04-26T08:22:27.234Z</time></trkpt><trkpt lat="43.0763133" lon="12.9605283"><ele>619.3333333333334</ele><time>2026-04-26T08:22:28.235Z</time></trkpt><trkpt lat="43.076225" lon="12.9603317"><ele>621.0</ele><time>2026-04-26T08:22:29.23Z</time></trkpt><trkpt lat="43.0761533" lon="12.9601283"><ele>623.0</ele><time>2026-04-26T08:22:30.235Z</time></trkpt><trkpt lat="43.0761" lon="12.9599183"><ele>625.0</ele><time>2026-04-26T08:22:31.235Z</time></trkpt><trkpt lat="43.0760683" lon="12.9596967"><ele>627.0</ele><time>2026-04-26T08:22:32.234Z</time></trkpt><trkpt lat="43.0760567" lon="12.9594667"><ele>627.0</ele><time>2026-04-26T08:22:33.234Z</time></trkpt><trkpt lat="43.076065" lon="12.9592283"><ele>627.0</ele><time>2026-04-26T08:22:34.231Z</time></trkpt><trkpt lat="43.0760817" lon="12.9589867"><ele>627.0</ele><time>2026-04-26T08:22:35.233Z</time></trkpt><trkpt lat="43.076115" lon="12.9587417"><ele>627.6666666666666</ele><time>2026-04-26T08:22:36.234Z</time></trkpt><trkpt lat="43.0761433" lon="12.958475"><ele>628.3333333333333</ele><time>2026-04-26T08:22:37.235Z</time></trkpt><trkpt lat="43.076165" lon="12.9582067"><ele>629.0</ele><time>2026-04-26T08:22:38.232Z</time></trkpt><trkpt lat="43.076155" lon="12.9579333"><ele>629.0</ele><time>2026-04-26T08:22:39.234Z</time></trkpt><trkpt lat="43.0760917" lon="12.957665"><ele>629.0</ele><time>2026-04-26T08:22:40.233Z</time></trkpt><trkpt lat="43.0759767" lon="12.9574067"><ele>629.0</ele><time>2026-04-26T08:22:41.232Z</time></trkpt><trkpt lat="43.07583" lon="12.95716"><ele>629.5</ele><time>2026-04-26T08:22:42.235Z</time></trkpt><trkpt lat="43.0756717" lon="12.9569317"><ele>630.0</ele><time>2026-04-26T08:22:43.232Z</time></trkpt><trkpt lat="43.0755167" lon="12.9567183"><ele>631.6666666666666</ele><time>2026-04-26T08:22:44.231Z</time></trkpt><trkpt lat="43.07537" lon="12.95651"><ele>633.3333333333333</ele><time>2026-04-26T08:22:45.236Z</time></trkpt><trkpt lat="43.0752217" lon="12.956305"><ele>635.0</ele><time>2026-04-26T08:22:46.238Z</time></trkpt><trkpt lat="43.0750767" lon="12.9561033"><ele>633.6666666666666</ele><time>2026-04-26T08:22:47.234Z</time></trkpt><trkpt lat="43.0749317" lon="12.9559067"><ele>632.3333333333334</ele><time>2026-04-26T08:22:48.232Z</time></trkpt><trkpt lat="43.07478" lon="12.95572"><ele>631.0</ele><time>2026-04-26T08:22:49.237Z</time></trkpt><trkpt lat="43.0746167" lon="12.9555467"><ele>632.6666666666667</ele><time>2026-04-26T08:22:50.233Z</time></trkpt><trkpt lat="43.0744417" lon="12.95539"><ele>634.3333333333334</ele><time>2026-04-26T08:22:51.233Z</time></trkpt><trkpt lat="43.0742633" lon="12.9552367"><ele>636.0</ele><time>2026-04-26T08:22:52.232Z</time></trkpt><trkpt lat="43.0740883" lon="12.9550867"><ele>638.6666666666666</ele><time>2026-04-26T08:22:53.231Z</time></trkpt><trkpt lat="43.07392" lon="12.9549383"><ele>641.3333333333333</ele><time>2026-04-26T08:22:54.231Z</time></trkpt><trkpt lat="43.0737667" lon="12.9547817"><ele>644.0</ele><time>2026-04-26T08:22:55.233Z</time></trkpt><trkpt lat="43.0736367" lon="12.9545917"><ele>644.0</ele><time>2026-04-26T08:22:56.233Z</time></trkpt><trkpt lat="43.07352" lon="12.9543667"><ele>644.0</ele><time>2026-04-26T08:22:57.234Z</time></trkpt><trkpt lat="43.07341" lon="12.95412"><ele>644.0</ele><time>2026-04-26T08:22:58.233Z</time></trkpt><trkpt lat="43.0733" lon="12.953865"><ele>643.6666666666666</ele><time>2026-04-26T08:22:59.233Z</time></trkpt><trkpt lat="43.0731833" lon="12.95361"><ele>643.3333333333334</ele><time>2026-04-26T08:23:00.236Z</time></trkpt><trkpt lat="43.0730667" lon="12.9533483"><ele>643.0</ele><time>2026-04-26T08:23:01.234Z</time></trkpt><trkpt lat="43.07295" lon="12.953095"><ele>644.3333333333334</ele><time>2026-04-26T08:23:02.233Z</time></trkpt><trkpt lat="43.0728383" lon="12.9528467"><ele>645.6666666666666</ele><time>2026-04-26T08:23:03.24Z</time></trkpt><trkpt lat="43.0727317" lon="12.9526067"><ele>647.0</ele><time>2026-04-26T08:23:04.235Z</time></trkpt><trkpt lat="43.072635" lon="12.9523733"><ele>649.6666666666666</ele><time>2026-04-26T08:23:05.236Z</time></trkpt><trkpt lat="43.072555" lon="12.95214"><ele>652.3333333333334</ele><time>2026-04-26T08:23:06.236Z</time></trkpt><trkpt lat="43.0725" lon="12.95189"><ele>655.0</ele><time>2026-04-26T08:23:07.232Z</time></trkpt><trkpt lat="43.0724717" lon="12.9516183"><ele>654.3333333333334</ele><time>2026-04-26T08:23:08.236Z</time></trkpt><trkpt lat="43.0724633" lon="12.9513333"><ele>653.6666666666666</ele><time>2026-04-26T08:23:09.233Z</time></trkpt><trkpt lat="43.0724517" lon="12.95105"><ele>653.0</ele><time>2026-04-26T08:23:10.232Z</time></trkpt><trkpt lat="43.0724333" lon="12.95077"><ele>653.0</ele><time>2026-04-26T08:23:11.231Z</time></trkpt><trkpt lat="43.0723967" lon="12.9505017"><ele>653.0</ele><time>2026-04-26T08:23:12.235Z</time></trkpt><trkpt lat="43.0723333" lon="12.950235"><ele>653.0</ele><time>2026-04-26T08:23:13.236Z</time></trkpt><trkpt lat="43.07225" lon="12.9499733"><ele>654.0</ele><time>2026-04-26T08:23:14.233Z</time></trkpt><trkpt lat="43.0721533" lon="12.94972"><ele>655.0</ele><time>2026-04-26T08:23:15.234Z</time></trkpt><trkpt lat="43.0720417" lon="12.9494783"><ele>656.0</ele><time>2026-04-26T08:23:16.234Z</time></trkpt><trkpt lat="43.0719083" lon="12.949255"><ele>657.6666666666666</ele><time>2026-04-26T08:23:17.233Z</time></trkpt><trkpt lat="43.0717567" lon="12.9490433"><ele>659.3333333333334</ele><time>2026-04-26T08:23:18.234Z</time></trkpt><trkpt lat="43.071595" lon="12.948835"><ele>661.0</ele><time>2026-04-26T08:23:19.231Z</time></trkpt><trkpt lat="43.0714333" lon="12.948635"><ele>661.0</ele><time>2026-04-26T08:23:20.235Z</time></trkpt><trkpt lat="43.0712683" lon="12.948435"><ele>661.0</ele><time>2026-04-26T08:23:21.236Z</time></trkpt><trkpt lat="43.071105" lon="12.94823"><ele>661.0</ele><time>2026-04-26T08:23:22.233Z</time></trkpt><trkpt lat="43.07094" lon="12.94803"><ele>661.3333333333334</ele><time>2026-04-26T08:23:23.234Z</time></trkpt><trkpt lat="43.0707667" lon="12.9478467"><ele>661.6666666666666</ele><time>2026-04-26T08:23:24.233Z</time></trkpt><trkpt lat="43.0705817" lon="12.9476983"><ele>662.0</ele><time>2026-04-26T08:23:25.232Z</time></trkpt><trkpt lat="43.0703883" lon="12.9475633"><ele>662.6666666666666</ele><time>2026-04-26T08:23:26.231Z</time></trkpt><trkpt lat="43.0701917" lon="12.9474417"><ele>663.3333333333334</ele><time>2026-04-26T08:23:27.233Z</time></trkpt><trkpt lat="43.07" lon="12.9473283"><ele>664.0</ele><time>2026-04-26T08:23:28.236Z</time></trkpt><trkpt lat="43.06982" lon="12.9472167"><ele>664.0</ele><time>2026-04-26T08:23:29.234Z</time></trkpt><trkpt lat="43.0696483" lon="12.947115"><ele>664.0</ele><time>2026-04-26T08:23:30.233Z</time></trkpt><trkpt lat="43.0694733" lon="12.9470333"><ele>664.0</ele><time>2026-04-26T08:23:31.235Z</time></trkpt><trkpt lat="43.0692883" lon="12.94698"><ele>665.6666666666667</ele><time>2026-04-26T08:23:32.234Z</time></trkpt><trkpt lat="43.0690867" lon="12.946965"><ele>667.3333333333334</ele><time>2026-04-26T08:23:33.232Z</time></trkpt><trkpt lat="43.068875" lon="12.9469683"><ele>669.0</ele><time>2026-04-26T08:23:34.232Z</time></trkpt><trkpt lat="43.068665" lon="12.946965"><ele>669.0</ele><time>2026-04-26T08:23:35.235Z</time></trkpt><trkpt lat="43.068465" lon="12.946925"><ele>669.0</ele><time>2026-04-26T08:23:36.233Z</time></trkpt><trkpt lat="43.0682833" lon="12.946845"><ele>669.0</ele><time>2026-04-26T08:23:37.236Z</time></trkpt><trkpt lat="43.0681233" lon="12.9467233"><ele>668.6666666666666</ele><time>2026-04-26T08:23:38.233Z</time></trkpt><trkpt lat="43.06798" lon="12.9465717"><ele>668.3333333333333</ele><time>2026-04-26T08:23:39.235Z</time></trkpt><trkpt lat="43.0678617" lon="12.946395"><ele>668.0</ele><time>2026-04-26T08:23:40.234Z</time></trkpt><trkpt lat="43.0677633" lon="12.9461983"><ele>668.0</ele><time>2026-04-26T08:23:41.231Z</time></trkpt><trkpt lat="43.0676917" lon="12.945985"><ele>668.0</ele><time>2026-04-26T08:23:42.233Z</time></trkpt><trkpt lat="43.067655" lon="12.9457583"><ele>668.0</ele><time>2026-04-26T08:23:43.232Z</time></trkpt><trkpt lat="43.0676333" lon="12.9455333"><ele>670.0</ele><time>2026-04-26T08:23:44.231Z</time></trkpt><trkpt lat="43.06762" lon="12.9453133"><ele>672.0</ele><time>2026-04-26T08:23:45.232Z</time></trkpt><trkpt lat="43.0675933" lon="12.9450967"><ele>674.0</ele><time>2026-04-26T08:23:46.234Z</time></trkpt><trkpt lat="43.0675467" lon="12.94488"><ele>675.3333333333333</ele><time>2026-04-26T08:23:47.229Z</time></trkpt><trkpt lat="43.06747" lon="12.9446617"><ele>676.6666666666666</ele><time>2026-04-26T08:23:48.233Z</time></trkpt><trkpt lat="43.0673617" lon="12.944445"><ele>678.0</ele><time>2026-04-26T08:23:49.235Z</time></trkpt><trkpt lat="43.067235" lon="12.9442317"><ele>678.0</ele><time>2026-04-26T08:23:50.236Z</time></trkpt><trkpt lat="43.0671083" lon="12.9440333"><ele>678.0</ele><time>2026-04-26T08:23:51.235Z</time></trkpt><trkpt lat="43.0669717" lon="12.9438633"><ele>678.0</ele><time>2026-04-26T08:23:52.235Z</time></trkpt><trkpt lat="43.06683" lon="12.943705"><ele>678.0</ele><time>2026-04-26T08:23:53.229Z</time></trkpt><trkpt lat="43.066685" lon="12.9435633"><ele>678.0</ele><time>2026-04-26T08:23:54.244Z</time></trkpt><trkpt lat="43.0665367" lon="12.9434367"><ele>678.0</ele><time>2026-04-26T08:23:55.232Z</time></trkpt><trkpt lat="43.06639" lon="12.943335"><ele>680.6666666666666</ele><time>2026-04-26T08:23:56.234Z</time></trkpt><trkpt lat="43.0662583" lon="12.9432233"><ele>683.3333333333333</ele><time>2026-04-26T08:23:57.235Z</time></trkpt><trkpt lat="43.0661333" lon="12.9431033"><ele>686.0</ele><time>2026-04-26T08:23:58.233Z</time></trkpt><trkpt lat="43.0660217" lon="12.942965"><ele>686.0</ele><time>2026-04-26T08:23:59.232Z</time></trkpt><trkpt lat="43.0659233" lon="12.9428083"><ele>686.0</ele><time>2026-04-26T08:24:00.235Z</time></trkpt><trkpt lat="43.0658417" lon="12.9426467"><ele>686.0</ele><time>2026-04-26T08:24:01.234Z</time></trkpt><trkpt lat="43.06577" lon="12.9424983"><ele>686.0</ele><time>2026-04-26T08:24:02.23Z</time></trkpt><trkpt lat="43.0657067" lon="12.94234"><ele>687.6666666666666</ele><time>2026-04-26T08:24:03.235Z</time></trkpt><trkpt lat="43.0656567" lon="12.9421633"><ele>689.3333333333334</ele><time>2026-04-26T08:24:04.234Z</time></trkpt><trkpt lat="43.06563" lon="12.9419533"><ele>691.0</ele><time>2026-04-26T08:24:05.233Z</time></trkpt><trkpt lat="43.0656183" lon="12.941715"><ele>691.0</ele><time>2026-04-26T08:24:06.233Z</time></trkpt><trkpt lat="43.06563" lon="12.9414567"><ele>691.0</ele><time>2026-04-26T08:24:07.235Z</time></trkpt><trkpt lat="43.0656683" lon="12.941175"><ele>691.0</ele><time>2026-04-26T08:24:08.234Z</time></trkpt><trkpt lat="43.0657317" lon="12.9408833"><ele>697.0</ele><time>2026-04-26T08:24:09.233Z</time></trkpt><trkpt lat="43.0658117" lon="12.9405867"><ele>703.0</ele><time>2026-04-26T08:24:10.233Z</time></trkpt><trkpt lat="43.06589" lon="12.9402967"><ele>704.0</ele><time>2026-04-26T08:24:11.236Z</time></trkpt><trkpt lat="43.0659683" lon="12.9400067"><ele>705.0</ele><time>2026-04-26T08:24:12.234Z</time></trkpt><trkpt lat="43.0660417" lon="12.9397333"><ele>706.0</ele><time>2026-04-26T08:24:13.237Z</time></trkpt><trkpt lat="43.06611" lon="12.9394817"><ele>706.0</ele><time>2026-04-26T08:24:14.238Z</time></trkpt><trkpt lat="43.066185" lon="12.93928"><ele>706.0</ele><time>2026-04-26T08:24:15.236Z</time></trkpt><trkpt lat="43.0662583" lon="12.9391217"><ele>706.0</ele><time>2026-04-26T08:24:16.234Z</time></trkpt><trkpt lat="43.0663" lon="12.9389817"><ele>706.0</ele><time>2026-04-26T08:24:17.234Z</time></trkpt><trkpt lat="43.0662867" lon="12.9388617"><ele>707.5999999999999</ele><time>2026-04-26T08:24:18.234Z</time></trkpt><trkpt lat="43.06623" lon="12.9387733"><ele>709.2</ele><time>2026-04-26T08:24:19.23Z</time></trkpt><trkpt lat="43.0661283" lon="12.9387483"><ele>710.8</ele><time>2026-04-26T08:24:20.237Z</time></trkpt><trkpt lat="43.06601" lon="12.9387633"><ele>712.4000000000001</ele><time>2026-04-26T08:24:21.234Z</time></trkpt><trkpt lat="43.0658817" lon="12.938825"><ele>714.0</ele><time>2026-04-26T08:24:22.233Z</time></trkpt><trkpt lat="43.0657417" lon="12.9389383"><ele>721.0</ele><time>2026-04-26T08:24:23.232Z</time></trkpt><trkpt lat="43.065555" lon="12.9391033"><ele>728.0</ele><time>2026-04-26T08:24:24.237Z</time></trkpt><trkpt lat="43.0653817" lon="12.939355"><ele>728.0</ele><time>2026-04-26T08:24:25.236Z</time></trkpt><trkpt lat="43.0652517" lon="12.9397267"><ele>728.0</ele><time>2026-04-26T08:24:26.232Z</time></trkpt><trkpt lat="43.065175" lon="12.9400367"><ele>722.0</ele><time>2026-04-26T08:24:27.234Z</time></trkpt><trkpt lat="43.0651067" lon="12.9402983"><ele>716.0</ele><time>2026-04-26T08:24:28.237Z</time></trkpt><trkpt lat="43.0650233" lon="12.94051"><ele>710.0</ele><time>2026-04-26T08:24:29.232Z</time></trkpt><trkpt lat="43.0649267" lon="12.94068"><ele>710.0</ele><time>2026-04-26T08:24:30.23Z</time></trkpt><trkpt lat="43.0648267" lon="12.940795"><ele>710.0</ele><time>2026-04-26T08:24:31.231Z</time></trkpt><trkpt lat="43.0647083" lon="12.940825"><ele>710.0</ele><time>2026-04-26T08:24:32.235Z</time></trkpt><trkpt lat="43.0645867" lon="12.94081"><ele>710.0</ele><time>2026-04-26T08:24:33.232Z</time></trkpt><trkpt lat="43.064465" lon="12.9406983"><ele>710.0</ele><time>2026-04-26T08:24:34.231Z</time></trkpt><trkpt lat="43.0643483" lon="12.94053"><ele>710.0</ele><time>2026-04-26T08:24:35.233Z</time></trkpt><trkpt lat="43.064255" lon="12.9403233"><ele>710.0</ele><time>2026-04-26T08:24:36.232Z</time></trkpt><trkpt lat="43.0641917" lon="12.940085"><ele>710.3333333333333</ele><time>2026-04-26T08:24:37.235Z</time></trkpt><trkpt lat="43.0641233" lon="12.9398467"><ele>710.6666666666666</ele><time>2026-04-26T08:24:38.233Z</time></trkpt><trkpt lat="43.0640217" lon="12.9396283"><ele>711.0</ele><time>2026-04-26T08:24:39.232Z</time></trkpt><trkpt lat="43.0638783" lon="12.9394267"><ele>711.0</ele><time>2026-04-26T08:24:40.234Z</time></trkpt><trkpt lat="43.0636733" lon="12.9392467"><ele>711.0</ele><time>2026-04-26T08:24:41.233Z</time></trkpt><trkpt lat="43.0634383" lon="12.9390717"><ele>713.0</ele><time>2026-04-26T08:24:42.234Z</time></trkpt><trkpt lat="43.0631967" lon="12.938895"><ele>715.0</ele><time>2026-04-26T08:24:43.233Z</time></trkpt><trkpt lat="43.06296" lon="12.9386867"><ele>715.0</ele><time>2026-04-26T08:24:44.236Z</time></trkpt><trkpt lat="43.0627233" lon="12.93844"><ele>715.0</ele><time>2026-04-26T08:24:45.234Z</time></trkpt><trkpt lat="43.0625067" lon="12.9381733"><ele>717.0</ele><time>2026-04-26T08:24:46.232Z</time></trkpt><trkpt lat="43.0623017" lon="12.9379083"><ele>719.0</ele><time>2026-04-26T08:24:47.232Z</time></trkpt><trkpt lat="43.0620833" lon="12.93767"><ele>730.5</ele><time>2026-04-26T08:24:48.231Z</time></trkpt><trkpt lat="43.0618567" lon="12.937455"><ele>742.0</ele><time>2026-04-26T08:24:49.233Z</time></trkpt><trkpt lat="43.061635" lon="12.9372683"><ele>738.5</ele><time>2026-04-26T08:24:50.243Z</time></trkpt><trkpt lat="43.06141" lon="12.9371167"><ele>735.0</ele><time>2026-04-26T08:24:51.235Z</time></trkpt><trkpt lat="43.0611733" lon="12.9369933"><ele>735.0</ele><time>2026-04-26T08:24:52.234Z</time></trkpt><trkpt lat="43.0609333" lon="12.9368917"><ele>735.0</ele><time>2026-04-26T08:24:53.232Z</time></trkpt><trkpt lat="43.06071" lon="12.9368"><ele>738.0</ele><time>2026-04-26T08:24:54.234Z</time></trkpt><trkpt lat="43.0605117" lon="12.93669"><ele>741.0</ele><time>2026-04-26T08:24:55.234Z</time></trkpt><trkpt lat="43.0603383" lon="12.9365467"><ele>744.0</ele><time>2026-04-26T08:24:56.237Z</time></trkpt><trkpt lat="43.0601867" lon="12.93636"><ele>744.0</ele><time>2026-04-26T08:24:57.232Z</time></trkpt><trkpt lat="43.060045" lon="12.9361317"><ele>744.0</ele><time>2026-04-26T08:24:58.237Z</time></trkpt><trkpt lat="43.059915" lon="12.935895"><ele>744.0</ele><time>2026-04-26T08:24:59.236Z</time></trkpt><trkpt lat="43.059795" lon="12.9356667"><ele>742.0</ele><time>2026-04-26T08:25:00.232Z</time></trkpt><trkpt lat="43.0596733" lon="12.9354417"><ele>740.0</ele><time>2026-04-26T08:25:01.234Z</time></trkpt><trkpt lat="43.0595467" lon="12.9352267"><ele>738.0</ele><time>2026-04-26T08:25:02.233Z</time></trkpt><trkpt lat="43.0594083" lon="12.9350217"><ele>738.3333333333334</ele><time>2026-04-26T08:25:03.234Z</time></trkpt><trkpt lat="43.0592633" lon="12.9348217"><ele>738.6666666666667</ele><time>2026-04-26T08:25:04.232Z</time></trkpt><trkpt lat="43.059115" lon="12.93463"><ele>739.0</ele><time>2026-04-26T08:25:05.234Z</time></trkpt><trkpt lat="43.0589667" lon="12.9344417"><ele>739.0</ele><time>2026-04-26T08:25:06.232Z</time></trkpt><trkpt lat="43.0588217" lon="12.934255"><ele>739.0</ele><time>2026-04-26T08:25:07.231Z</time></trkpt><trkpt lat="43.0586767" lon="12.934075"><ele>739.0</ele><time>2026-04-26T08:25:08.235Z</time></trkpt><trkpt lat="43.05853" lon="12.9338967"><ele>738.6666666666667</ele><time>2026-04-26T08:25:09.239Z</time></trkpt><trkpt lat="43.058385" lon="12.93372"><ele>738.3333333333334</ele><time>2026-04-26T08:25:10.233Z</time></trkpt><trkpt lat="43.0582417" lon="12.9335417"><ele>738.0</ele><time>2026-04-26T08:25:11.231Z</time></trkpt><trkpt lat="43.0581033" lon="12.9333617"><ele>742.3333333333334</ele><time>2026-04-26T08:25:12.233Z</time></trkpt><trkpt lat="43.057965" lon="12.933185"><ele>746.6666666666667</ele><time>2026-04-26T08:25:13.235Z</time></trkpt><trkpt lat="43.0578283" lon="12.93301"><ele>751.0</ele><time>2026-04-26T08:25:14.23Z</time></trkpt><trkpt lat="43.0576917" lon="12.93284"><ele>751.0</ele><time>2026-04-26T08:25:15.233Z</time></trkpt><trkpt lat="43.0575583" lon="12.9326667"><ele>751.0</ele><time>2026-04-26T08:25:16.233Z</time></trkpt><trkpt lat="43.0574183" lon="12.9325033"><ele>751.0</ele><time>2026-04-26T08:25:17.233Z</time></trkpt><trkpt lat="43.0572767" lon="12.9323467"><ele>753.0</ele><time>2026-04-26T08:25:18.233Z</time></trkpt><trkpt lat="43.0571333" lon="12.9321917"><ele>755.0</ele><time>2026-04-26T08:25:19.235Z</time></trkpt><trkpt lat="43.05699" lon="12.9320433"><ele>757.0</ele><time>2026-04-26T08:25:20.235Z</time></trkpt><trkpt lat="43.0568467" lon="12.9318967"><ele>757.0</ele><time>2026-04-26T08:25:21.237Z</time></trkpt><trkpt lat="43.0567033" lon="12.931755"><ele>757.0</ele><time>2026-04-26T08:25:22.236Z</time></trkpt><trkpt lat="43.0565567" lon="12.93162"><ele>757.0</ele><time>2026-04-26T08:25:23.23Z</time></trkpt><trkpt lat="43.0564083" lon="12.9314933"><ele>759.3333333333334</ele><time>2026-04-26T08:25:24.233Z</time></trkpt><trkpt lat="43.0562683" lon="12.9313633"><ele>761.6666666666666</ele><time>2026-04-26T08:25:25.232Z</time></trkpt><trkpt lat="43.0561317" lon="12.9312333"><ele>764.0</ele><time>2026-04-26T08:25:26.23Z</time></trkpt><trkpt lat="43.056005" lon="12.9311"><ele>764.0</ele><time>2026-04-26T08:25:27.23Z</time></trkpt><trkpt lat="43.05588" lon="12.93096"><ele>764.0</ele><time>2026-04-26T08:25:28.231Z</time></trkpt><trkpt lat="43.05576" lon="12.9308183"><ele>764.0</ele><time>2026-04-26T08:25:29.234Z</time></trkpt><trkpt lat="43.0556483" lon="12.9306767"><ele>766.3333333333333</ele><time>2026-04-26T08:25:30.233Z</time></trkpt><trkpt lat="43.0555383" lon="12.9305333"><ele>768.6666666666666</ele><time>2026-04-26T08:25:31.229Z</time></trkpt><trkpt lat="43.0554317" lon="12.9303867"><ele>771.0</ele><time>2026-04-26T08:25:32.233Z</time></trkpt><trkpt lat="43.0553317" lon="12.93023"><ele>771.0</ele><time>2026-04-26T08:25:33.232Z</time></trkpt><trkpt lat="43.0552367" lon="12.9300667"><ele>771.0</ele><time>2026-04-26T08:25:34.233Z</time></trkpt><trkpt lat="43.0551417" lon="12.9299017"><ele>771.0</ele><time>2026-04-26T08:25:35.231Z</time></trkpt><trkpt lat="43.0550433" lon="12.9297367"><ele>769.6666666666666</ele><time>2026-04-26T08:25:36.233Z</time></trkpt><trkpt lat="43.054945" lon="12.9295717"><ele>768.3333333333333</ele><time>2026-04-26T08:25:37.233Z</time></trkpt><trkpt lat="43.05484" lon="12.9294117"><ele>767.0</ele><time>2026-04-26T08:25:38.234Z</time></trkpt><trkpt lat="43.0547367" lon="12.92925"><ele>766.3333333333333</ele><time>2026-04-26T08:25:39.234Z</time></trkpt><trkpt lat="43.054635" lon="12.9290833"><ele>765.6666666666666</ele><time>2026-04-26T08:25:40.234Z</time></trkpt><trkpt lat="43.0545317" lon="12.9289183"><ele>765.0</ele><time>2026-04-26T08:25:41.234Z</time></trkpt><trkpt lat="43.054425" lon="12.92875"><ele>765.0</ele><time>2026-04-26T08:25:42.234Z</time></trkpt><trkpt lat="43.0543167" lon="12.9285833"><ele>765.0</ele><time>2026-04-26T08:25:43.232Z</time></trkpt><trkpt lat="43.0542117" lon="12.92841"><ele>765.0</ele><time>2026-04-26T08:25:44.263Z</time></trkpt><trkpt lat="43.0541083" lon="12.928235"><ele>762.6666666666666</ele><time>2026-04-26T08:25:45.238Z</time></trkpt><trkpt lat="43.0540083" lon="12.92806"><ele>760.3333333333333</ele><time>2026-04-26T08:25:46.233Z</time></trkpt><trkpt lat="43.0539133" lon="12.9278817"><ele>758.0</ele><time>2026-04-26T08:25:47.232Z</time></trkpt><trkpt lat="43.05381" lon="12.9277017"><ele>758.6666666666666</ele><time>2026-04-26T08:25:48.231Z</time></trkpt><trkpt lat="43.05371" lon="12.92752"><ele>759.3333333333334</ele><time>2026-04-26T08:25:49.233Z</time></trkpt><trkpt lat="43.0536133" lon="12.927335"><ele>760.0</ele><time>2026-04-26T08:25:50.234Z</time></trkpt><trkpt lat="43.05352" lon="12.9271467"><ele>760.0</ele><time>2026-04-26T08:25:51.233Z</time></trkpt><trkpt lat="43.053435" lon="12.9269517"><ele>760.0</ele><time>2026-04-26T08:25:52.233Z</time></trkpt><trkpt lat="43.05335" lon="12.92675"><ele>760.0</ele><time>2026-04-26T08:25:53.233Z</time></trkpt><trkpt lat="43.0532667" lon="12.9265417"><ele>758.0</ele><time>2026-04-26T08:25:54.231Z</time></trkpt><trkpt lat="43.053185" lon="12.9263317"><ele>756.0</ele><time>2026-04-26T08:25:55.232Z</time></trkpt><trkpt lat="43.0531" lon="12.9261217"><ele>754.0</ele><time>2026-04-26T08:25:56.234Z</time></trkpt><trkpt lat="43.0530133" lon="12.9259083"><ele>754.3333333333334</ele><time>2026-04-26T08:25:57.232Z</time></trkpt><trkpt lat="43.0529283" lon="12.9256967"><ele>754.6666666666666</ele><time>2026-04-26T08:25:58.233Z</time></trkpt><trkpt lat="43.0528517" lon="12.9254767"><ele>755.0</ele><time>2026-04-26T08:25:59.234Z</time></trkpt><trkpt lat="43.0527867" lon="12.925255"><ele>754.3333333333333</ele><time>2026-04-26T08:26:00.233Z</time></trkpt><trkpt lat="43.052735" lon="12.925025"><ele>753.6666666666666</ele><time>2026-04-26T08:26:01.231Z</time></trkpt><trkpt lat="43.0526967" lon="12.9247933"><ele>753.0</ele><time>2026-04-26T08:26:02.234Z</time></trkpt><trkpt lat="43.0526683" lon="12.9245633"><ele>753.0</ele><time>2026-04-26T08:26:03.235Z</time></trkpt><trkpt lat="43.0526433" lon="12.92433"><ele>753.0</ele><time>2026-04-26T08:26:04.232Z</time></trkpt><trkpt lat="43.0526233" lon="12.9240883"><ele>753.0</ele><time>2026-04-26T08:26:05.23Z</time></trkpt><trkpt lat="43.0526" lon="12.9238483"><ele>753.6666666666666</ele><time>2026-04-26T08:26:06.231Z</time></trkpt><trkpt lat="43.0525783" lon="12.92361"><ele>754.3333333333333</ele><time>2026-04-26T08:26:07.232Z</time></trkpt><trkpt lat="43.0525683" lon="12.9233733"><ele>755.0</ele><time>2026-04-26T08:26:08.231Z</time></trkpt><trkpt lat="43.0525767" lon="12.923135"><ele>757.0</ele><time>2026-04-26T08:26:09.233Z</time></trkpt><trkpt lat="43.0526" lon="12.9229033"><ele>759.0</ele><time>2026-04-26T08:26:10.234Z</time></trkpt><trkpt lat="43.0526417" lon="12.9226817"><ele>761.0</ele><time>2026-04-26T08:26:11.231Z</time></trkpt><trkpt lat="43.0526883" lon="12.92246"><ele>761.0</ele><time>2026-04-26T08:26:12.237Z</time></trkpt><trkpt lat="43.0527217" lon="12.9222333"><ele>761.0</ele><time>2026-04-26T08:26:13.23Z</time></trkpt><trkpt lat="43.05274" lon="12.921995"><ele>761.0</ele><time>2026-04-26T08:26:14.234Z</time></trkpt><trkpt lat="43.0527417" lon="12.9217583"><ele>760.6666666666666</ele><time>2026-04-26T08:26:15.235Z</time></trkpt><trkpt lat="43.0527217" lon="12.9215233"><ele>760.3333333333334</ele><time>2026-04-26T08:26:16.229Z</time></trkpt><trkpt lat="43.0526883" lon="12.9212933"><ele>760.0</ele><time>2026-04-26T08:26:17.234Z</time></trkpt><trkpt lat="43.052655" lon="12.9210617"><ele>759.0</ele><time>2026-04-26T08:26:18.232Z</time></trkpt><trkpt lat="43.0526317" lon="12.92083"><ele>758.0</ele><time>2026-04-26T08:26:19.233Z</time></trkpt><trkpt lat="43.0526167" lon="12.9206"><ele>757.0</ele><time>2026-04-26T08:26:20.231Z</time></trkpt><trkpt lat="43.0526083" lon="12.92037"><ele>757.0</ele><time>2026-04-26T08:26:21.233Z</time></trkpt><trkpt lat="43.0526" lon="12.92014"><ele>757.0</ele><time>2026-04-26T08:26:22.233Z</time></trkpt><trkpt lat="43.0525883" lon="12.91991"><ele>757.0</ele><time>2026-04-26T08:26:23.235Z</time></trkpt><trkpt lat="43.0525617" lon="12.9196817"><ele>756.0</ele><time>2026-04-26T08:26:24.231Z</time></trkpt><trkpt lat="43.05252" lon="12.9194633"><ele>755.0</ele><time>2026-04-26T08:26:25.235Z</time></trkpt><trkpt lat="43.052465" lon="12.9192583"><ele>754.0</ele><time>2026-04-26T08:26:26.234Z</time></trkpt><trkpt lat="43.0524083" lon="12.919065"><ele>752.3333333333334</ele><time>2026-04-26T08:26:27.236Z</time></trkpt><trkpt lat="43.0523533" lon="12.918875"><ele>750.6666666666666</ele><time>2026-04-26T08:26:28.232Z</time></trkpt><trkpt lat="43.052295" lon="12.9186817"><ele>749.0</ele><time>2026-04-26T08:26:29.231Z</time></trkpt><trkpt lat="43.0522383" lon="12.9184917"><ele>749.75</ele><time>2026-04-26T08:26:30.232Z</time></trkpt><trkpt lat="43.0521817" lon="12.918305"><ele>750.5</ele><time>2026-04-26T08:26:31.233Z</time></trkpt><trkpt lat="43.0521233" lon="12.9181167"><ele>751.25</ele><time>2026-04-26T08:26:32.235Z</time></trkpt><trkpt lat="43.0520683" lon="12.91793"><ele>752.0</ele><time>2026-04-26T08:26:33.234Z</time></trkpt><trkpt lat="43.052015" lon="12.917745"><ele>752.25</ele><time>2026-04-26T08:26:34.233Z</time></trkpt><trkpt lat="43.0519617" lon="12.9175583"><ele>752.5</ele><time>2026-04-26T08:26:35.232Z</time></trkpt><trkpt lat="43.0519067" lon="12.9173717"><ele>752.75</ele><time>2026-04-26T08:26:36.234Z</time></trkpt><trkpt lat="43.05185" lon="12.9171817"><ele>753.0</ele><time>2026-04-26T08:26:37.235Z</time></trkpt><trkpt lat="43.0517933" lon="12.916985"><ele>753.0</ele><time>2026-04-26T08:26:38.231Z</time></trkpt><trkpt lat="43.0517317" lon="12.9167867"><ele>753.0</ele><time>2026-04-26T08:26:39.234Z</time></trkpt><trkpt lat="43.0516683" lon="12.9165817"><ele>753.0</ele><time>2026-04-26T08:26:40.231Z</time></trkpt><trkpt lat="43.051605" lon="12.9163683"><ele>753.0</ele><time>2026-04-26T08:26:41.229Z</time></trkpt><trkpt lat="43.0515383" lon="12.9161467"><ele>753.0</ele><time>2026-04-26T08:26:42.233Z</time></trkpt><trkpt lat="43.051465" lon="12.9159233"><ele>753.0</ele><time>2026-04-26T08:26:43.231Z</time></trkpt><trkpt lat="43.051385" lon="12.9156983"><ele>752.6666666666666</ele><time>2026-04-26T08:26:44.233Z</time></trkpt><trkpt lat="43.0513017" lon="12.9154733"><ele>752.3333333333333</ele><time>2026-04-26T08:26:45.235Z</time></trkpt><trkpt lat="43.0512133" lon="12.915245"><ele>752.0</ele><time>2026-04-26T08:26:46.232Z</time></trkpt><trkpt lat="43.0511217" lon="12.9150167"><ele>752.0</ele><time>2026-04-26T08:26:47.232Z</time></trkpt><trkpt lat="43.05103" lon="12.9147883"><ele>752.0</ele><time>2026-04-26T08:26:48.231Z</time></trkpt><trkpt lat="43.0509417" lon="12.914555"><ele>752.0</ele><time>2026-04-26T08:26:49.235Z</time></trkpt><trkpt lat="43.0508533" lon="12.9143167"><ele>751.3333333333333</ele><time>2026-04-26T08:26:50.233Z</time></trkpt><trkpt lat="43.0507717" lon="12.9140733"><ele>750.6666666666666</ele><time>2026-04-26T08:26:51.235Z</time></trkpt><trkpt lat="43.0506967" lon="12.9138233"><ele>750.0</ele><time>2026-04-26T08:26:52.236Z</time></trkpt><trkpt lat="43.0506333" lon="12.9135633"><ele>750.3333333333334</ele><time>2026-04-26T08:26:53.231Z</time></trkpt><trkpt lat="43.0505717" lon="12.913305"><ele>750.6666666666667</ele><time>2026-04-26T08:26:54.236Z</time></trkpt><trkpt lat="43.0505083" lon="12.9130467"><ele>751.0</ele><time>2026-04-26T08:26:55.235Z</time></trkpt><trkpt lat="43.05044" lon="12.912795"><ele>752.0</ele><time>2026-04-26T08:26:56.236Z</time></trkpt><trkpt lat="43.0503667" lon="12.912545"><ele>753.0</ele><time>2026-04-26T08:26:57.237Z</time></trkpt><trkpt lat="43.05029" lon="12.912295"><ele>754.0</ele><time>2026-04-26T08:26:58.236Z</time></trkpt><trkpt lat="43.0502067" lon="12.9120483"><ele>754.0</ele><time>2026-04-26T08:26:59.232Z</time></trkpt><trkpt lat="43.0501117" lon="12.91181"><ele>754.0</ele><time>2026-04-26T08:27:00.232Z</time></trkpt><trkpt lat="43.0500017" lon="12.911585"><ele>754.0</ele><time>2026-04-26T08:27:01.231Z</time></trkpt><trkpt lat="43.049875" lon="12.9113733"><ele>753.6666666666667</ele><time>2026-04-26T08:27:02.232Z</time></trkpt><trkpt lat="43.0497433" lon="12.9111667"><ele>753.3333333333334</ele><time>2026-04-26T08:27:03.234Z</time></trkpt><trkpt lat="43.0496117" lon="12.9109533"><ele>753.0</ele><time>2026-04-26T08:27:04.232Z</time></trkpt><trkpt lat="43.0494833" lon="12.9107383"><ele>753.0</ele><time>2026-04-26T08:27:05.233Z</time></trkpt><trkpt lat="43.0493567" lon="12.9105233"><ele>753.0</ele><time>2026-04-26T08:27:06.231Z</time></trkpt><trkpt lat="43.0492317" lon="12.9103067"><ele>753.0</ele><time>2026-04-26T08:27:07.233Z</time></trkpt><trkpt lat="43.049105" lon="12.9100883"><ele>752.6666666666666</ele><time>2026-04-26T08:27:08.232Z</time></trkpt><trkpt lat="43.0489767" lon="12.90987"><ele>752.3333333333333</ele><time>2026-04-26T08:27:09.233Z</time></trkpt><trkpt lat="43.0488533" lon="12.90965"><ele>752.0</ele><time>2026-04-26T08:27:10.233Z</time></trkpt><trkpt lat="43.0487317" lon="12.90943"><ele>752.3333333333333</ele><time>2026-04-26T08:27:11.232Z</time></trkpt><trkpt lat="43.0486133" lon="12.9092033"><ele>752.6666666666666</ele><time>2026-04-26T08:27:12.237Z</time></trkpt><trkpt lat="43.0484967" lon="12.9089733"><ele>753.0</ele><time>2026-04-26T08:27:13.236Z</time></trkpt><trkpt lat="43.0483783" lon="12.90874"><ele>752.6666666666666</ele><time>2026-04-26T08:27:14.231Z</time></trkpt><trkpt lat="43.0482633" lon="12.9085033"><ele>752.3333333333333</ele><time>2026-04-26T08:27:15.236Z</time></trkpt><trkpt lat="43.04815" lon="12.9082617"><ele>752.0</ele><time>2026-04-26T08:27:16.232Z</time></trkpt><trkpt lat="43.04804" lon="12.908015"><ele>752.0</ele><time>2026-04-26T08:27:17.233Z</time></trkpt><trkpt lat="43.0479333" lon="12.9077617"><ele>752.0</ele><time>2026-04-26T08:27:18.234Z</time></trkpt><trkpt lat="43.04783" lon="12.9075067"><ele>752.0</ele><time>2026-04-26T08:27:19.233Z</time></trkpt><trkpt lat="43.0477283" lon="12.9072483"><ele>751.6666666666666</ele><time>2026-04-26T08:27:20.233Z</time></trkpt><trkpt lat="43.0476267" lon="12.9069867"><ele>751.3333333333334</ele><time>2026-04-26T08:27:21.233Z</time></trkpt><trkpt lat="43.047525" lon="12.906725"><ele>751.0</ele><time>2026-04-26T08:27:22.232Z</time></trkpt><trkpt lat="43.0474217" lon="12.90646"><ele>751.0</ele><time>2026-04-26T08:27:23.235Z</time></trkpt><trkpt lat="43.0473167" lon="12.9061967"><ele>751.0</ele><time>2026-04-26T08:27:24.232Z</time></trkpt><trkpt lat="43.0472117" lon="12.90593"><ele>751.0</ele><time>2026-04-26T08:27:25.233Z</time></trkpt><trkpt lat="43.0471067" lon="12.90566"><ele>751.3333333333334</ele><time>2026-04-26T08:27:26.237Z</time></trkpt><trkpt lat="43.0470083" lon="12.9053883"><ele>751.6666666666666</ele><time>2026-04-26T08:27:27.234Z</time></trkpt><trkpt lat="43.0469183" lon="12.90511"><ele>752.0</ele><time>2026-04-26T08:27:28.234Z</time></trkpt><trkpt lat="43.0468417" lon="12.9048267"><ele>752.0</ele><time>2026-04-26T08:27:29.233Z</time></trkpt><trkpt lat="43.0467667" lon="12.9045433"><ele>752.0</ele><time>2026-04-26T08:27:30.232Z</time></trkpt><trkpt lat="43.0466933" lon="12.9042583"><ele>752.0</ele><time>2026-04-26T08:27:31.236Z</time></trkpt><trkpt lat="43.0466183" lon="12.9039733"><ele>752.0</ele><time>2026-04-26T08:27:32.233Z</time></trkpt><trkpt lat="43.0465433" lon="12.90369"><ele>752.0</ele><time>2026-04-26T08:27:33.236Z</time></trkpt><trkpt lat="43.0464683" lon="12.903405"><ele>752.0</ele><time>2026-04-26T08:27:34.231Z</time></trkpt><trkpt lat="43.0463983" lon="12.9031183"><ele>751.6666666666666</ele><time>2026-04-26T08:27:35.233Z</time></trkpt><trkpt lat="43.04633" lon="12.9028333"><ele>751.3333333333334</ele><time>2026-04-26T08:27:36.233Z</time></trkpt><trkpt lat="43.0462617" lon="12.9025467"><ele>751.0</ele><time>2026-04-26T08:27:37.235Z</time></trkpt><trkpt lat="43.0461967" lon="12.902265"><ele>751.0</ele><time>2026-04-26T08:27:38.242Z</time></trkpt><trkpt lat="43.0461417" lon="12.90198"><ele>751.0</ele><time>2026-04-26T08:27:39.232Z</time></trkpt><trkpt lat="43.0461" lon="12.90169"><ele>751.0</ele><time>2026-04-26T08:27:40.232Z</time></trkpt><trkpt lat="43.0460683" lon="12.9014"><ele>751.0</ele><time>2026-04-26T08:27:41.232Z</time></trkpt><trkpt lat="43.0460383" lon="12.9011117"><ele>751.0</ele><time>2026-04-26T08:27:42.233Z</time></trkpt><trkpt lat="43.0460033" lon="12.90082"><ele>751.0</ele><time>2026-04-26T08:27:43.231Z</time></trkpt><trkpt lat="43.0459617" lon="12.9005283"><ele>751.3333333333334</ele><time>2026-04-26T08:27:44.232Z</time></trkpt><trkpt lat="43.0459133" lon="12.9002383"><ele>751.6666666666666</ele><time>2026-04-26T08:27:45.241Z</time></trkpt><trkpt lat="43.0458567" lon="12.89995"><ele>752.0</ele><time>2026-04-26T08:27:46.231Z</time></trkpt><trkpt lat="43.0457933" lon="12.8996633"><ele>752.0</ele><time>2026-04-26T08:27:47.235Z</time></trkpt><trkpt lat="43.0457133" lon="12.8993883"><ele>752.0</ele><time>2026-04-26T08:27:48.234Z</time></trkpt><trkpt lat="43.04561" lon="12.899135"><ele>752.0</ele><time>2026-04-26T08:27:49.234Z</time></trkpt><trkpt lat="43.04549" lon="12.898895"><ele>752.0</ele><time>2026-04-26T08:27:50.232Z</time></trkpt><trkpt lat="43.04535" lon="12.8986767"><ele>752.0</ele><time>2026-04-26T08:27:51.236Z</time></trkpt><trkpt lat="43.0451933" lon="12.898475"><ele>752.0</ele><time>2026-04-26T08:27:52.232Z</time></trkpt><trkpt lat="43.0450233" lon="12.898295"><ele>755.3333333333333</ele><time>2026-04-26T08:27:53.234Z</time></trkpt><trkpt lat="43.0448383" lon="12.898145"><ele>758.6666666666666</ele><time>2026-04-26T08:27:54.232Z</time></trkpt><trkpt lat="43.0446383" lon="12.8980333"><ele>762.0</ele><time>2026-04-26T08:27:55.235Z</time></trkpt><trkpt lat="43.0444317" lon="12.897965"><ele>762.0</ele><time>2026-04-26T08:27:56.231Z</time></trkpt><trkpt lat="43.0442167" lon="12.8979233"><ele>762.0</ele><time>2026-04-26T08:27:57.237Z</time></trkpt><trkpt lat="43.0439983" lon="12.8978917"><ele>762.0</ele><time>2026-04-26T08:27:58.244Z</time></trkpt><trkpt lat="43.0437767" lon="12.8978633"><ele>760.6666666666666</ele><time>2026-04-26T08:27:59.233Z</time></trkpt><trkpt lat="43.0435567" lon="12.897845"><ele>759.3333333333333</ele><time>2026-04-26T08:28:00.233Z</time></trkpt><trkpt lat="43.0433383" lon="12.8978367"><ele>758.0</ele><time>2026-04-26T08:28:01.232Z</time></trkpt><trkpt lat="43.04312" lon="12.8978433"><ele>758.0</ele><time>2026-04-26T08:28:02.232Z</time></trkpt><trkpt lat="43.0429017" lon="12.8978567"><ele>758.0</ele><time>2026-04-26T08:28:03.235Z</time></trkpt><trkpt lat="43.04268" lon="12.897875"><ele>758.0</ele><time>2026-04-26T08:28:04.232Z</time></trkpt><trkpt lat="43.04246" lon="12.897895"><ele>756.6666666666666</ele><time>2026-04-26T08:28:05.234Z</time></trkpt><trkpt lat="43.04224" lon="12.89791"><ele>755.3333333333334</ele><time>2026-04-26T08:28:06.231Z</time></trkpt><trkpt lat="43.0420217" lon="12.8979233"><ele>754.0</ele><time>2026-04-26T08:28:07.236Z</time></trkpt><trkpt lat="43.0418017" lon="12.897935"><ele>754.0</ele><time>2026-04-26T08:28:08.235Z</time></trkpt><trkpt lat="43.04158" lon="12.8979467"><ele>754.0</ele><time>2026-04-26T08:28:09.235Z</time></trkpt><trkpt lat="43.04136" lon="12.8979567"><ele>754.0</ele><time>2026-04-26T08:28:10.233Z</time></trkpt><trkpt lat="43.0411417" lon="12.8979633"><ele>754.0</ele><time>2026-04-26T08:28:11.234Z</time></trkpt><trkpt lat="43.0409233" lon="12.897965"><ele>754.0</ele><time>2026-04-26T08:28:12.236Z</time></trkpt><trkpt lat="43.040705" lon="12.8979617"><ele>754.0</ele><time>2026-04-26T08:28:13.238Z</time></trkpt><trkpt lat="43.040485" lon="12.8979467"><ele>754.0</ele><time>2026-04-26T08:28:14.233Z</time></trkpt><trkpt lat="43.040265" lon="12.8979133"><ele>754.0</ele><time>2026-04-26T08:28:15.242Z</time></trkpt><trkpt lat="43.0400467" lon="12.89786"><ele>754.0</ele><time>2026-04-26T08:28:16.233Z</time></trkpt><trkpt lat="43.039825" lon="12.8978"><ele>755.0</ele><time>2026-04-26T08:28:17.235Z</time></trkpt><trkpt lat="43.039605" lon="12.897735"><ele>756.0</ele><time>2026-04-26T08:28:18.234Z</time></trkpt><trkpt lat="43.0393867" lon="12.8976633"><ele>756.0</ele><time>2026-04-26T08:28:19.234Z</time></trkpt><trkpt lat="43.039165" lon="12.8975883"><ele>756.0</ele><time>2026-04-26T08:28:20.234Z</time></trkpt><trkpt lat="43.038945" lon="12.8975117"><ele>757.5</ele><time>2026-04-26T08:28:21.233Z</time></trkpt><trkpt lat="43.0387233" lon="12.8974283"><ele>759.0</ele><time>2026-04-26T08:28:22.231Z</time></trkpt><trkpt lat="43.038505" lon="12.897335"><ele>757.5</ele><time>2026-04-26T08:28:23.231Z</time></trkpt><trkpt lat="43.0382867" lon="12.8972333"><ele>756.0</ele><time>2026-04-26T08:28:24.233Z</time></trkpt><trkpt lat="43.0380683" lon="12.897125"><ele>756.0</ele><time>2026-04-26T08:28:25.233Z</time></trkpt><trkpt lat="43.0378533" lon="12.8970133"><ele>756.0</ele><time>2026-04-26T08:28:26.232Z</time></trkpt><trkpt lat="43.0376383" lon="12.8968983"><ele>757.0</ele><time>2026-04-26T08:28:27.237Z</time></trkpt><trkpt lat="43.0374233" lon="12.8967833"><ele>758.0</ele><time>2026-04-26T08:28:28.235Z</time></trkpt><trkpt lat="43.0372083" lon="12.8966683"><ele>758.0</ele><time>2026-04-26T08:28:29.233Z</time></trkpt><trkpt lat="43.036995" lon="12.8965533"><ele>758.0</ele><time>2026-04-26T08:28:30.233Z</time></trkpt><trkpt lat="43.0367817" lon="12.8964383"><ele>758.3333333333333</ele><time>2026-04-26T08:28:31.235Z</time></trkpt><trkpt lat="43.0365733" lon="12.8963267"><ele>758.6666666666666</ele><time>2026-04-26T08:28:32.234Z</time></trkpt><trkpt lat="43.0363667" lon="12.8962117"><ele>759.0</ele><time>2026-04-26T08:28:33.232Z</time></trkpt><trkpt lat="43.0361633" lon="12.8960983"><ele>759.0</ele><time>2026-04-26T08:28:34.231Z</time></trkpt><trkpt lat="43.03596" lon="12.8959817"><ele>759.0</ele><time>2026-04-26T08:28:35.233Z</time></trkpt><trkpt lat="43.0357583" lon="12.8958633"><ele>759.0</ele><time>2026-04-26T08:28:36.234Z</time></trkpt><trkpt lat="43.035555" lon="12.895745"><ele>759.3333333333334</ele><time>2026-04-26T08:28:37.235Z</time></trkpt><trkpt lat="43.0353483" lon="12.8956233"><ele>759.6666666666667</ele><time>2026-04-26T08:28:38.233Z</time></trkpt><trkpt lat="43.0351417" lon="12.8955033"><ele>760.0</ele><time>2026-04-26T08:28:39.233Z</time></trkpt><trkpt lat="43.0349333" lon="12.8953817"><ele>759.3333333333334</ele><time>2026-04-26T08:28:40.233Z</time></trkpt><trkpt lat="43.0347283" lon="12.8952583"><ele>758.6666666666666</ele><time>2026-04-26T08:28:41.232Z</time></trkpt><trkpt lat="43.0345233" lon="12.8951367"><ele>758.0</ele><time>2026-04-26T08:28:42.232Z</time></trkpt><trkpt lat="43.0343267" lon="12.8950183"><ele>758.0</ele><time>2026-04-26T08:28:43.232Z</time></trkpt><trkpt lat="43.0341367" lon="12.8949067"><ele>758.0</ele><time>2026-04-26T08:28:44.234Z</time></trkpt><trkpt lat="43.0339517" lon="12.8947983"><ele>758.0</ele><time>2026-04-26T08:28:45.236Z</time></trkpt><trkpt lat="43.0337767" lon="12.8946933"><ele>758.0</ele><time>2026-04-26T08:28:46.231Z</time></trkpt><trkpt lat="43.0336067" lon="12.8945933"><ele>758.0</ele><time>2026-04-26T08:28:47.23Z</time></trkpt><trkpt lat="43.0334383" lon="12.894495"><ele>758.0</ele><time>2026-04-26T08:28:48.233Z</time></trkpt><trkpt lat="43.033275" lon="12.8943983"><ele>758.3333333333333</ele><time>2026-04-26T08:28:49.235Z</time></trkpt><trkpt lat="43.0331117" lon="12.8943033"><ele>758.6666666666666</ele><time>2026-04-26T08:28:50.233Z</time></trkpt><trkpt lat="43.032955" lon="12.8942117"><ele>759.0</ele><time>2026-04-26T08:28:51.233Z</time></trkpt><trkpt lat="43.0328017" lon="12.8941217"><ele>758.6666666666666</ele><time>2026-04-26T08:28:52.231Z</time></trkpt><trkpt lat="43.03265" lon="12.8940317"><ele>758.3333333333333</ele><time>2026-04-26T08:28:53.232Z</time></trkpt><trkpt lat="43.0325" lon="12.8939533"><ele>758.0</ele><time>2026-04-26T08:28:54.233Z</time></trkpt><trkpt lat="43.032355" lon="12.8938717"><ele>758.0</ele><time>2026-04-26T08:28:55.234Z</time></trkpt><trkpt lat="43.03221" lon="12.8937817"><ele>758.0</ele><time>2026-04-26T08:28:56.232Z</time></trkpt><trkpt lat="43.0320683" lon="12.8936883"><ele>758.0</ele><time>2026-04-26T08:28:57.233Z</time></trkpt><trkpt lat="43.0319267" lon="12.8935833"><ele>758.0</ele><time>2026-04-26T08:28:58.231Z</time></trkpt><trkpt lat="43.031785" lon="12.8934733"><ele>758.0</ele><time>2026-04-26T08:28:59.232Z</time></trkpt><trkpt lat="43.0316433" lon="12.8933583"><ele>758.0</ele><time>2026-04-26T08:29:00.23Z</time></trkpt><trkpt lat="43.031505" lon="12.89324"><ele>759.0</ele><time>2026-04-26T08:29:01.231Z</time></trkpt><trkpt lat="43.0313633" lon="12.8931217"><ele>760.0</ele><time>2026-04-26T08:29:02.232Z</time></trkpt><trkpt lat="43.0312183" lon="12.8930033"><ele>761.0</ele><time>2026-04-26T08:29:03.232Z</time></trkpt><trkpt lat="43.0310767" lon="12.8928783"><ele>761.0</ele><time>2026-04-26T08:29:04.233Z</time></trkpt><trkpt lat="43.030925" lon="12.8927617"><ele>761.0</ele><time>2026-04-26T08:29:05.233Z</time></trkpt><trkpt lat="43.030775" lon="12.8926417"><ele>761.0</ele><time>2026-04-26T08:29:06.234Z</time></trkpt><trkpt lat="43.0306217" lon="12.8925233"><ele>761.0</ele><time>2026-04-26T08:29:07.23Z</time></trkpt><trkpt lat="43.03047" lon="12.8924017"><ele>761.0</ele><time>2026-04-26T08:29:08.233Z</time></trkpt><trkpt lat="43.03032" lon="12.8922817"><ele>761.0</ele><time>2026-04-26T08:29:09.231Z</time></trkpt><trkpt lat="43.0301667" lon="12.89216"><ele>761.0</ele><time>2026-04-26T08:29:10.24Z</time></trkpt><trkpt lat="43.0300117" lon="12.89204"><ele>761.0</ele><time>2026-04-26T08:29:11.236Z</time></trkpt><trkpt lat="43.0298533" lon="12.8919283"><ele>761.0</ele><time>2026-04-26T08:29:12.232Z</time></trkpt><trkpt lat="43.0296917" lon="12.89183"><ele>760.6666666666666</ele><time>2026-04-26T08:29:13.233Z</time></trkpt><trkpt lat="43.0295367" lon="12.8917383"><ele>760.3333333333334</ele><time>2026-04-26T08:29:14.231Z</time></trkpt><trkpt lat="43.02939" lon="12.891665"><ele>760.0</ele><time>2026-04-26T08:29:15.245Z</time></trkpt><trkpt lat="43.0292467" lon="12.8915933"><ele>761.0</ele><time>2026-04-26T08:29:16.225Z</time></trkpt><trkpt lat="43.029115" lon="12.891525"><ele>762.0</ele><time>2026-04-26T08:29:17.234Z</time></trkpt><trkpt lat="43.02898" lon="12.8914567"><ele>763.0</ele><time>2026-04-26T08:29:18.232Z</time></trkpt><trkpt lat="43.028845" lon="12.89139"><ele>764.0</ele><time>2026-04-26T08:29:19.231Z</time></trkpt><trkpt lat="43.0287117" lon="12.891325"><ele>764.0</ele><time>2026-04-26T08:29:20.229Z</time></trkpt><trkpt lat="43.0285767" lon="12.89126"><ele>764.0</ele><time>2026-04-26T08:29:21.232Z</time></trkpt><trkpt lat="43.0284383" lon="12.891195"><ele>764.0</ele><time>2026-04-26T08:29:22.23Z</time></trkpt><trkpt lat="43.0283033" lon="12.8911233"><ele>764.0</ele><time>2026-04-26T08:29:23.235Z</time></trkpt><trkpt lat="43.0281667" lon="12.8910583"><ele>764.5</ele><time>2026-04-26T08:29:24.232Z</time></trkpt><trkpt lat="43.02804" lon="12.8909833"><ele>765.0</ele><time>2026-04-26T08:29:25.227Z</time></trkpt><trkpt lat="43.02793" lon="12.8908883"><ele>765.5</ele><time>2026-04-26T08:29:26.229Z</time></trkpt><trkpt lat="43.0278467" lon="12.8907667"><ele>766.0</ele><time>2026-04-26T08:29:27.233Z</time></trkpt><trkpt lat="43.0277883" lon="12.89062"><ele>766.0</ele><time>2026-04-26T08:29:28.234Z</time></trkpt><trkpt lat="43.0277533" lon="12.8904533"><ele>766.0</ele><time>2026-04-26T08:29:29.232Z</time></trkpt><trkpt lat="43.0277367" lon="12.8902833"><ele>766.0</ele><time>2026-04-26T08:29:30.233Z</time></trkpt><trkpt lat="43.027715" lon="12.8900933"><ele>766.0</ele><time>2026-04-26T08:29:31.229Z</time></trkpt><trkpt lat="43.0276783" lon="12.8898933"><ele>764.3333333333334</ele><time>2026-04-26T08:29:32.232Z</time></trkpt><trkpt lat="43.0276267" lon="12.8896917"><ele>762.6666666666666</ele><time>2026-04-26T08:29:33.241Z</time></trkpt><trkpt lat="43.02756" lon="12.8894983"><ele>761.0</ele><time>2026-04-26T08:29:34.235Z</time></trkpt><trkpt lat="43.0274883" lon="12.8893083"><ele>760.6666666666666</ele><time>2026-04-26T08:29:35.231Z</time></trkpt><trkpt lat="43.0274167" lon="12.88912"><ele>760.3333333333334</ele><time>2026-04-26T08:29:36.232Z</time></trkpt><trkpt lat="43.027345" lon="12.8889333"><ele>760.0</ele><time>2026-04-26T08:29:37.236Z</time></trkpt><trkpt lat="43.02727" lon="12.8887533"><ele>760.0</ele><time>2026-04-26T08:29:38.231Z</time></trkpt><trkpt lat="43.0271717" lon="12.888585"><ele>760.0</ele><time>2026-04-26T08:29:39.234Z</time></trkpt><trkpt lat="43.0270667" lon="12.88843"><ele>760.0</ele><time>2026-04-26T08:29:40.231Z</time></trkpt><trkpt lat="43.0269583" lon="12.8882767"><ele>760.6666666666667</ele><time>2026-04-26T08:29:41.233Z</time></trkpt><trkpt lat="43.026855" lon="12.8881117"><ele>761.3333333333334</ele><time>2026-04-26T08:29:42.231Z</time></trkpt><trkpt lat="43.0267667" lon="12.887935"><ele>762.0</ele><time>2026-04-26T08:29:43.231Z</time></trkpt><trkpt lat="43.02669" lon="12.8877483"><ele>761.6666666666666</ele><time>2026-04-26T08:29:44.231Z</time></trkpt><trkpt lat="43.0266217" lon="12.8875533"><ele>761.3333333333333</ele><time>2026-04-26T08:29:45.232Z</time></trkpt><trkpt lat="43.0265583" lon="12.8873567"><ele>761.0</ele><time>2026-04-26T08:29:46.228Z</time></trkpt><trkpt lat="43.0264933" lon="12.88716"><ele>761.0</ele><time>2026-04-26T08:29:47.231Z</time></trkpt><trkpt lat="43.0264317" lon="12.8869617"><ele>761.0</ele><time>2026-04-26T08:29:48.233Z</time></trkpt><trkpt lat="43.0263633" lon="12.8867633"><ele>761.0</ele><time>2026-04-26T08:29:49.231Z</time></trkpt><trkpt lat="43.0262817" lon="12.88656"><ele>761.3333333333333</ele><time>2026-04-26T08:29:50.234Z</time></trkpt><trkpt lat="43.0261783" lon="12.8863567"><ele>761.6666666666666</ele><time>2026-04-26T08:29:51.231Z</time></trkpt><trkpt lat="43.0260667" lon="12.88615"><ele>762.0</ele><time>2026-04-26T08:29:52.232Z</time></trkpt><trkpt lat="43.0259667" lon="12.8859333"><ele>762.3333333333334</ele><time>2026-04-26T08:29:53.233Z</time></trkpt><trkpt lat="43.0258783" lon="12.88571"><ele>762.6666666666667</ele><time>2026-04-26T08:29:54.231Z</time></trkpt><trkpt lat="43.0258" lon="12.8854833"><ele>763.0</ele><time>2026-04-26T08:29:55.233Z</time></trkpt><trkpt lat="43.0257267" lon="12.88526"><ele>761.0</ele><time>2026-04-26T08:29:56.233Z</time></trkpt><trkpt lat="43.0256567" lon="12.885045"><ele>759.0</ele><time>2026-04-26T08:29:57.232Z</time></trkpt><trkpt lat="43.0255917" lon="12.884845"><ele>757.0</ele><time>2026-04-26T08:29:58.232Z</time></trkpt><trkpt lat="43.0255233" lon="12.8846567"><ele>757.0</ele><time>2026-04-26T08:29:59.231Z</time></trkpt><trkpt lat="43.0254383" lon="12.8844917"><ele>757.0</ele><time>2026-04-26T08:30:00.231Z</time></trkpt><trkpt lat="43.0253217" lon="12.8843633"><ele>757.0</ele><time>2026-04-26T08:30:01.232Z</time></trkpt><trkpt lat="43.0251883" lon="12.88428"><ele>757.0</ele><time>2026-04-26T08:30:02.232Z</time></trkpt><trkpt lat="43.0250367" lon="12.8842533"><ele>759.3333333333334</ele><time>2026-04-26T08:30:03.231Z</time></trkpt><trkpt lat="43.0248817" lon="12.8842733"><ele>761.6666666666666</ele><time>2026-04-26T08:30:04.231Z</time></trkpt><trkpt lat="43.0247317" lon="12.88431"><ele>764.0</ele><time>2026-04-26T08:30:05.232Z</time></trkpt><trkpt lat="43.0245867" lon="12.88433"><ele>764.0</ele><time>2026-04-26T08:30:06.233Z</time></trkpt><trkpt lat="43.0244633" lon="12.884305"><ele>764.0</ele><time>2026-04-26T08:30:07.234Z</time></trkpt><trkpt lat="43.0243667" lon="12.884235"><ele>764.0</ele><time>2026-04-26T08:30:08.233Z</time></trkpt><trkpt lat="43.02431" lon="12.8841083"><ele>764.0</ele><time>2026-04-26T08:30:09.232Z</time></trkpt><trkpt lat="43.0242783" lon="12.8839433"><ele>764.0</ele><time>2026-04-26T08:30:10.229Z</time></trkpt><trkpt lat="43.0242717" lon="12.8837433"><ele>764.0</ele><time>2026-04-26T08:30:11.233Z</time></trkpt><trkpt lat="43.0242733" lon="12.88353"><ele>764.0</ele><time>2026-04-26T08:30:12.233Z</time></trkpt><trkpt lat="43.0242767" lon="12.8833133"><ele>764.0</ele><time>2026-04-26T08:30:13.231Z</time></trkpt><trkpt lat="43.024275" lon="12.88309"><ele>764.0</ele><time>2026-04-26T08:30:14.23Z</time></trkpt><trkpt lat="43.024255" lon="12.8828683"><ele>764.0</ele><time>2026-04-26T08:30:15.23Z</time></trkpt><trkpt lat="43.024205" lon="12.88265"><ele>766.0</ele><time>2026-04-26T08:30:16.232Z</time></trkpt><trkpt lat="43.0241233" lon="12.88244"><ele>768.0</ele><time>2026-04-26T08:30:17.233Z</time></trkpt><trkpt lat="43.0240167" lon="12.8822533"><ele>770.0</ele><time>2026-04-26T08:30:18.233Z</time></trkpt><trkpt lat="43.0238883" lon="12.8821133"><ele>770.0</ele><time>2026-04-26T08:30:19.23Z</time></trkpt><trkpt lat="43.023735" lon="12.88202"><ele>770.0</ele><time>2026-04-26T08:30:20.231Z</time></trkpt><trkpt lat="43.023565" lon="12.881965"><ele>770.0</ele><time>2026-04-26T08:30:21.233Z</time></trkpt><trkpt lat="43.0233833" lon="12.8819533"><ele>771.0</ele><time>2026-04-26T08:30:22.231Z</time></trkpt><trkpt lat="43.023195" lon="12.8819767"><ele>772.0</ele><time>2026-04-26T08:30:23.23Z</time></trkpt><trkpt lat="43.02301" lon="12.88201"><ele>773.0</ele><time>2026-04-26T08:30:24.231Z</time></trkpt><trkpt lat="43.0228283" lon="12.8820267"><ele>773.0</ele><time>2026-04-26T08:30:25.234Z</time></trkpt><trkpt lat="43.0226433" lon="12.8820133"><ele>773.0</ele><time>2026-04-26T08:30:26.232Z</time></trkpt><trkpt lat="43.0224617" lon="12.8819567"><ele>773.0</ele><time>2026-04-26T08:30:27.234Z</time></trkpt><trkpt lat="43.02228" lon="12.88186"><ele>770.0</ele><time>2026-04-26T08:30:28.232Z</time></trkpt><trkpt lat="43.0220983" lon="12.8817383"><ele>767.0</ele><time>2026-04-26T08:30:29.236Z</time></trkpt><trkpt lat="43.0219133" lon="12.8816067"><ele>764.0</ele><time>2026-04-26T08:30:30.232Z</time></trkpt><trkpt lat="43.0217283" lon="12.8814717"><ele>766.6666666666666</ele><time>2026-04-26T08:30:31.233Z</time></trkpt><trkpt lat="43.02154" lon="12.8813417"><ele>769.3333333333333</ele><time>2026-04-26T08:30:32.235Z</time></trkpt><trkpt lat="43.021355" lon="12.8812083"><ele>772.0</ele><time>2026-04-26T08:30:33.233Z</time></trkpt><trkpt lat="43.02117" lon="12.88107"><ele>770.3333333333333</ele><time>2026-04-26T08:30:34.23Z</time></trkpt><trkpt lat="43.02099" lon="12.8809217"><ele>768.6666666666666</ele><time>2026-04-26T08:30:35.233Z</time></trkpt><trkpt lat="43.0208183" lon="12.8807533"><ele>767.0</ele><time>2026-04-26T08:30:36.235Z</time></trkpt><trkpt lat="43.0206617" lon="12.88056"><ele>767.0</ele><time>2026-04-26T08:30:37.233Z</time></trkpt><trkpt lat="43.0205283" lon="12.88035"><ele>767.0</ele><time>2026-04-26T08:30:38.235Z</time></trkpt><trkpt lat="43.0204167" lon="12.8801317"><ele>767.0</ele><time>2026-04-26T08:30:39.234Z</time></trkpt><trkpt lat="43.02031" lon="12.87993"><ele>766.0</ele><time>2026-04-26T08:30:40.231Z</time></trkpt><trkpt lat="43.02019" lon="12.8797617"><ele>765.0</ele><time>2026-04-26T08:30:41.233Z</time></trkpt><trkpt lat="43.020035" lon="12.8796217"><ele>764.0</ele><time>2026-04-26T08:30:42.233Z</time></trkpt><trkpt lat="43.01986" lon="12.8795017"><ele>764.3333333333333</ele><time>2026-04-26T08:30:43.233Z</time></trkpt><trkpt lat="43.0196783" lon="12.8793833"><ele>764.6666666666666</ele><time>2026-04-26T08:30:44.232Z</time></trkpt><trkpt lat="43.01949" lon="12.879265"><ele>765.0</ele><time>2026-04-26T08:30:45.235Z</time></trkpt><trkpt lat="43.0193067" lon="12.8791483"><ele>765.0</ele><time>2026-04-26T08:30:46.235Z</time></trkpt><trkpt lat="43.0191183" lon="12.8790417"><ele>765.0</ele><time>2026-04-26T08:30:47.235Z</time></trkpt><trkpt lat="43.0189333" lon="12.8789383"><ele>765.0</ele><time>2026-04-26T08:30:48.234Z</time></trkpt><trkpt lat="43.0187467" lon="12.8788417"><ele>765.0</ele><time>2026-04-26T08:30:49.232Z</time></trkpt><trkpt lat="43.0185517" lon="12.8787483"><ele>765.0</ele><time>2026-04-26T08:30:50.235Z</time></trkpt><trkpt lat="43.018355" lon="12.8786433"><ele>765.0</ele><time>2026-04-26T08:30:51.232Z</time></trkpt><trkpt lat="43.01816" lon="12.8785117"><ele>761.5</ele><time>2026-04-26T08:30:52.234Z</time></trkpt><trkpt lat="43.017965" lon="12.8783617"><ele>758.0</ele><time>2026-04-26T08:30:53.232Z</time></trkpt><trkpt lat="43.017775" lon="12.8781883"><ele>758.0</ele><time>2026-04-26T08:30:54.236Z</time></trkpt><trkpt lat="43.0175833" lon="12.8780083"><ele>758.0</ele><time>2026-04-26T08:30:55.235Z</time></trkpt><trkpt lat="43.017395" lon="12.8778233"><ele>759.0</ele><time>2026-04-26T08:30:56.233Z</time></trkpt><trkpt lat="43.017205" lon="12.8776367"><ele>760.0</ele><time>2026-04-26T08:30:57.231Z</time></trkpt><trkpt lat="43.01702" lon="12.8774467"><ele>760.0</ele><time>2026-04-26T08:30:58.232Z</time></trkpt><trkpt lat="43.0168367" lon="12.8772533"><ele>760.0</ele><time>2026-04-26T08:30:59.233Z</time></trkpt><trkpt lat="43.0166533" lon="12.8770583"><ele>760.0</ele><time>2026-04-26T08:31:00.235Z</time></trkpt><trkpt lat="43.01647" lon="12.87686"><ele>760.0</ele><time>2026-04-26T08:31:01.233Z</time></trkpt><trkpt lat="43.016285" lon="12.876665"><ele>760.0</ele><time>2026-04-26T08:31:02.235Z</time></trkpt><trkpt lat="43.0161" lon="12.8764717"><ele>760.0</ele><time>2026-04-26T08:31:03.237Z</time></trkpt><trkpt lat="43.0159217" lon="12.8762817"><ele>760.0</ele><time>2026-04-26T08:31:04.233Z</time></trkpt><trkpt lat="43.0157483" lon="12.8761"><ele>760.0</ele><time>2026-04-26T08:31:05.234Z</time></trkpt><trkpt lat="43.01558" lon="12.8759267"><ele>760.0</ele><time>2026-04-26T08:31:06.236Z</time></trkpt><trkpt lat="43.0154167" lon="12.8757583"><ele>760.0</ele><time>2026-04-26T08:31:07.233Z</time></trkpt><trkpt lat="43.015255" lon="12.87559"><ele>760.0</ele><time>2026-04-26T08:31:08.234Z</time></trkpt><trkpt lat="43.0150983" lon="12.8754167"><ele>760.0</ele><time>2026-04-26T08:31:09.235Z</time></trkpt><trkpt lat="43.0149383" lon="12.8752483"><ele>761.6666666666667</ele><time>2026-04-26T08:31:10.236Z</time></trkpt><trkpt lat="43.014785" lon="12.8750867"><ele>763.3333333333334</ele><time>2026-04-26T08:31:11.231Z</time></trkpt><trkpt lat="43.0146317" lon="12.8749283"><ele>765.0</ele><time>2026-04-26T08:31:12.233Z</time></trkpt><trkpt lat="43.014485" lon="12.8747783"><ele>765.0</ele><time>2026-04-26T08:31:13.237Z</time></trkpt><trkpt lat="43.0143417" lon="12.8746317"><ele>765.0</ele><time>2026-04-26T08:31:14.233Z</time></trkpt><trkpt lat="43.0142033" lon="12.8744867"><ele>765.0</ele><time>2026-04-26T08:31:15.234Z</time></trkpt><trkpt lat="43.0140633" lon="12.8743383"><ele>764.3333333333334</ele><time>2026-04-26T08:31:16.233Z</time></trkpt><trkpt lat="43.01392" lon="12.8741867"><ele>763.6666666666667</ele><time>2026-04-26T08:31:17.234Z</time></trkpt><trkpt lat="43.0137667" lon="12.87403"><ele>763.0</ele><time>2026-04-26T08:31:18.232Z</time></trkpt><trkpt lat="43.0135983" lon="12.8738683"><ele>763.0</ele><time>2026-04-26T08:31:19.235Z</time></trkpt><trkpt lat="43.0134167" lon="12.8736883"><ele>763.0</ele><time>2026-04-26T08:31:20.235Z</time></trkpt><trkpt lat="43.013225" lon="12.8734817"><ele>764.0</ele><time>2026-04-26T08:31:21.234Z</time></trkpt><trkpt lat="43.0130267" lon="12.873255"><ele>765.0</ele><time>2026-04-26T08:31:22.233Z</time></trkpt><trkpt lat="43.0128267" lon="12.873025"><ele>765.0</ele><time>2026-04-26T08:31:23.233Z</time></trkpt><trkpt lat="43.0126267" lon="12.8728033"><ele>765.0</ele><time>2026-04-26T08:31:24.232Z</time></trkpt><trkpt lat="43.0124267" lon="12.8725917"><ele>765.0</ele><time>2026-04-26T08:31:25.233Z</time></trkpt><trkpt lat="43.0122283" lon="12.8723817"><ele>765.0</ele><time>2026-04-26T08:31:26.235Z</time></trkpt><trkpt lat="43.01203" lon="12.8721717"><ele>765.0</ele><time>2026-04-26T08:31:27.236Z</time></trkpt><trkpt lat="43.0118317" lon="12.8719667"><ele>765.0</ele><time>2026-04-26T08:31:28.231Z</time></trkpt><trkpt lat="43.01164" lon="12.871765"><ele>766.0</ele><time>2026-04-26T08:31:29.233Z</time></trkpt><trkpt lat="43.011455" lon="12.8715683"><ele>767.0</ele><time>2026-04-26T08:31:30.234Z</time></trkpt><trkpt lat="43.011275" lon="12.87138"><ele>767.0</ele><time>2026-04-26T08:31:31.235Z</time></trkpt><trkpt lat="43.0110967" lon="12.8711917"><ele>767.0</ele><time>2026-04-26T08:31:32.234Z</time></trkpt><trkpt lat="43.0109183" lon="12.871005"><ele>767.6666666666666</ele><time>2026-04-26T08:31:33.232Z</time></trkpt><trkpt lat="43.0107467" lon="12.87082"><ele>768.3333333333333</ele><time>2026-04-26T08:31:34.233Z</time></trkpt><trkpt lat="43.0105783" lon="12.87064"><ele>769.0</ele><time>2026-04-26T08:31:35.232Z</time></trkpt><trkpt lat="43.0104133" lon="12.8704617"><ele>769.0</ele><time>2026-04-26T08:31:36.232Z</time></trkpt><trkpt lat="43.010245" lon="12.870285"><ele>769.0</ele><time>2026-04-26T08:31:37.234Z</time></trkpt><trkpt lat="43.010075" lon="12.8701067"><ele>769.0</ele><time>2026-04-26T08:31:38.234Z</time></trkpt><trkpt lat="43.0099033" lon="12.8699217"><ele>770.3333333333333</ele><time>2026-04-26T08:31:39.233Z</time></trkpt><trkpt lat="43.00973" lon="12.869735"><ele>771.6666666666667</ele><time>2026-04-26T08:31:40.234Z</time></trkpt><trkpt lat="43.00955" lon="12.869545"><ele>773.0</ele><time>2026-04-26T08:31:41.238Z</time></trkpt><trkpt lat="43.0093617" lon="12.8693567"><ele>773.3333333333334</ele><time>2026-04-26T08:31:42.235Z</time></trkpt><trkpt lat="43.00918" lon="12.8691667"><ele>773.6666666666667</ele><time>2026-04-26T08:31:43.235Z</time></trkpt><trkpt lat="43.009" lon="12.8689933"><ele>774.0</ele><time>2026-04-26T08:31:44.233Z</time></trkpt><trkpt lat="43.0088317" lon="12.8688267"><ele>774.6666666666667</ele><time>2026-04-26T08:31:45.236Z</time></trkpt><trkpt lat="43.00866" lon="12.8686667"><ele>775.3333333333334</ele><time>2026-04-26T08:31:46.232Z</time></trkpt><trkpt lat="43.008485" lon="12.86851"><ele>776.0</ele><time>2026-04-26T08:31:47.236Z</time></trkpt><trkpt lat="43.008305" lon="12.8683483"><ele>777.3333333333334</ele><time>2026-04-26T08:31:48.234Z</time></trkpt><trkpt lat="43.0081283" lon="12.8681767"><ele>778.6666666666667</ele><time>2026-04-26T08:31:49.236Z</time></trkpt><trkpt lat="43.0079533" lon="12.8679883"><ele>780.0</ele><time>2026-04-26T08:31:50.236Z</time></trkpt><trkpt lat="43.0077717" lon="12.8677917"><ele>782.0</ele><time>2026-04-26T08:31:51.234Z</time></trkpt><trkpt lat="43.007585" lon="12.86759"><ele>784.0</ele><time>2026-04-26T08:31:52.235Z</time></trkpt><trkpt lat="43.00739" lon="12.867395"><ele>784.0</ele><time>2026-04-26T08:31:53.234Z</time></trkpt><trkpt lat="43.0072" lon="12.8671983"><ele>784.0</ele><time>2026-04-26T08:31:54.233Z</time></trkpt><trkpt lat="43.0070133" lon="12.8670017"><ele>784.0</ele><time>2026-04-26T08:31:55.236Z</time></trkpt><trkpt lat="43.0068267" lon="12.8668117"><ele>784.0</ele><time>2026-04-26T08:31:56.235Z</time></trkpt><trkpt lat="43.0066417" lon="12.8666217"><ele>785.6666666666666</ele><time>2026-04-26T08:31:57.236Z</time></trkpt><trkpt lat="43.0064567" lon="12.866445"><ele>787.3333333333333</ele><time>2026-04-26T08:31:58.234Z</time></trkpt><trkpt lat="43.0062667" lon="12.8662867"><ele>789.0</ele><time>2026-04-26T08:31:59.234Z</time></trkpt><trkpt lat="43.0060683" lon="12.8661583"><ele>789.0</ele><time>2026-04-26T08:32:00.236Z</time></trkpt><trkpt lat="43.0058633" lon="12.86605"><ele>789.0</ele><time>2026-04-26T08:32:01.235Z</time></trkpt><trkpt lat="43.0056633" lon="12.8659583"><ele>789.0</ele><time>2026-04-26T08:32:02.233Z</time></trkpt><trkpt lat="43.0054717" lon="12.8658583"><ele>790.0</ele><time>2026-04-26T08:32:03.235Z</time></trkpt><trkpt lat="43.0052883" lon="12.8657383"><ele>791.0</ele><time>2026-04-26T08:32:04.236Z</time></trkpt><trkpt lat="43.0051117" lon="12.8655883"><ele>792.0</ele><time>2026-04-26T08:32:05.236Z</time></trkpt><trkpt lat="43.0049417" lon="12.8654183"><ele>792.0</ele><time>2026-04-26T08:32:06.233Z</time></trkpt><trkpt lat="43.0047767" lon="12.865235"><ele>792.0</ele><time>2026-04-26T08:32:07.233Z</time></trkpt><trkpt lat="43.0046133" lon="12.8650433"><ele>792.0</ele><time>2026-04-26T08:32:08.234Z</time></trkpt><trkpt lat="43.0044517" lon="12.864845"><ele>793.0</ele><time>2026-04-26T08:32:09.236Z</time></trkpt><trkpt lat="43.0042983" lon="12.8646333"><ele>794.0</ele><time>2026-04-26T08:32:10.235Z</time></trkpt><trkpt lat="43.004155" lon="12.86441"><ele>795.0</ele><time>2026-04-26T08:32:11.232Z</time></trkpt><trkpt lat="43.0040183" lon="12.86418"><ele>796.3333333333333</ele><time>2026-04-26T08:32:12.233Z</time></trkpt><trkpt lat="43.0038833" lon="12.8639433"><ele>797.6666666666666</ele><time>2026-04-26T08:32:13.236Z</time></trkpt><trkpt lat="43.00375" lon="12.8637083"><ele>799.0</ele><time>2026-04-26T08:32:14.234Z</time></trkpt><trkpt lat="43.0036233" lon="12.863465"><ele>801.3333333333333</ele><time>2026-04-26T08:32:15.235Z</time></trkpt><trkpt lat="43.003525" lon="12.8632033"><ele>803.6666666666667</ele><time>2026-04-26T08:32:16.236Z</time></trkpt><trkpt lat="43.0034667" lon="12.8629267"><ele>806.0</ele><time>2026-04-26T08:32:17.231Z</time></trkpt><trkpt lat="43.0034517" lon="12.862635"><ele>807.6666666666667</ele><time>2026-04-26T08:32:18.234Z</time></trkpt><trkpt lat="43.003475" lon="12.86234"><ele>809.3333333333333</ele><time>2026-04-26T08:32:19.237Z</time></trkpt><trkpt lat="43.0035267" lon="12.8620467"><ele>811.0</ele><time>2026-04-26T08:32:20.231Z</time></trkpt><trkpt lat="43.0035867" lon="12.8617583"><ele>813.0</ele><time>2026-04-26T08:32:21.237Z</time></trkpt><trkpt lat="43.0036317" lon="12.8614717"><ele>815.0</ele><time>2026-04-26T08:32:22.226Z</time></trkpt><trkpt lat="43.00365" lon="12.8611817"><ele>817.0</ele><time>2026-04-26T08:32:23.233Z</time></trkpt><trkpt lat="43.00363" lon="12.8608967"><ele>819.3333333333333</ele><time>2026-04-26T08:32:24.235Z</time></trkpt><trkpt lat="43.0035717" lon="12.86062"><ele>821.6666666666667</ele><time>2026-04-26T08:32:25.238Z</time></trkpt><trkpt lat="43.003485" lon="12.860345"><ele>824.0</ele><time>2026-04-26T08:32:26.232Z</time></trkpt><trkpt lat="43.00338" lon="12.8600733"><ele>829.0</ele><time>2026-04-26T08:32:27.238Z</time></trkpt><trkpt lat="43.0032667" lon="12.8598017"><ele>834.0</ele><time>2026-04-26T08:32:28.238Z</time></trkpt><trkpt lat="43.0031533" lon="12.859535"><ele>832.3333333333333</ele><time>2026-04-26T08:32:29.233Z</time></trkpt><trkpt lat="43.0030483" lon="12.8592667"><ele>830.6666666666666</ele><time>2026-04-26T08:32:30.238Z</time></trkpt><trkpt lat="43.0029417" lon="12.859005"><ele>829.0</ele><time>2026-04-26T08:32:31.235Z</time></trkpt><trkpt lat="43.0028333" lon="12.8587383"><ele>829.0</ele><time>2026-04-26T08:32:32.228Z</time></trkpt><trkpt lat="43.0027233" lon="12.8584733"><ele>829.0</ele><time>2026-04-26T08:32:33.228Z</time></trkpt><trkpt lat="43.0025917" lon="12.8582183"><ele>830.5</ele><time>2026-04-26T08:32:34.228Z</time></trkpt><trkpt lat="43.00246" lon="12.85796"><ele>832.0</ele><time>2026-04-26T08:32:35.227Z</time></trkpt><trkpt lat="43.0023167" lon="12.8577"><ele>828.0</ele><time>2026-04-26T08:32:36.226Z</time></trkpt><trkpt lat="43.0021567" lon="12.8574583"><ele>824.0</ele><time>2026-04-26T08:32:37.228Z</time></trkpt><trkpt lat="43.0019983" lon="12.857215"><ele>824.0</ele><time>2026-04-26T08:32:38.23Z</time></trkpt><trkpt lat="43.0018383" lon="12.85697"><ele>824.0</ele><time>2026-04-26T08:32:39.237Z</time></trkpt><trkpt lat="43.0016783" lon="12.85672"><ele>822.5</ele><time>2026-04-26T08:32:40.232Z</time></trkpt><trkpt lat="43.0015183" lon="12.8564733"><ele>821.0</ele><time>2026-04-26T08:32:41.228Z</time></trkpt><trkpt lat="43.0013533" lon="12.8562183"><ele>821.0</ele><time>2026-04-26T08:32:42.228Z</time></trkpt><trkpt lat="43.0011883" lon="12.85597"><ele>821.0</ele><time>2026-04-26T08:32:43.227Z</time></trkpt><trkpt lat="43.0010233" lon="12.8557183"><ele>822.0</ele><time>2026-04-26T08:32:44.226Z</time></trkpt><trkpt lat="43.00086" lon="12.85547"><ele>823.0</ele><time>2026-04-26T08:32:45.226Z</time></trkpt><trkpt lat="43.0006983" lon="12.8552183"><ele>820.5</ele><time>2026-04-26T08:32:46.226Z</time></trkpt><trkpt lat="43.000535" lon="12.8549667"><ele>818.0</ele><time>2026-04-26T08:32:47.228Z</time></trkpt><trkpt lat="43.0003733" lon="12.854725"><ele>818.0</ele><time>2026-04-26T08:32:48.228Z</time></trkpt><trkpt lat="43.0002017" lon="12.854505"><ele>818.0</ele><time>2026-04-26T08:32:49.227Z</time></trkpt><trkpt lat="43.0000083" lon="12.854305"><ele>812.5</ele><time>2026-04-26T08:32:50.226Z</time></trkpt><trkpt lat="42.99982" lon="12.8540883"><ele>807.0</ele><time>2026-04-26T08:32:51.23Z</time></trkpt><trkpt lat="42.999655" lon="12.8538433"><ele>807.0</ele><time>2026-04-26T08:32:52.231Z</time></trkpt><trkpt lat="42.9995083" lon="12.8535817"><ele>807.0</ele><time>2026-04-26T08:32:53.227Z</time></trkpt><trkpt lat="42.9993833" lon="12.853295"><ele>803.5</ele><time>2026-04-26T08:32:54.228Z</time></trkpt><trkpt lat="42.9992833" lon="12.8529917"><ele>800.0</ele><time>2026-04-26T08:32:55.229Z</time></trkpt><trkpt lat="42.9992083" lon="12.8526733"><ele>801.0</ele><time>2026-04-26T08:32:56.227Z</time></trkpt><trkpt lat="42.99914" lon="12.8523467"><ele>802.0</ele><time>2026-04-26T08:32:57.227Z</time></trkpt><trkpt lat="42.9990767" lon="12.8520133"><ele>802.0</ele><time>2026-04-26T08:32:58.227Z</time></trkpt><trkpt lat="42.9990117" lon="12.8516817"><ele>802.0</ele><time>2026-04-26T08:32:59.228Z</time></trkpt><trkpt lat="42.9989333" lon="12.8513617"><ele>802.0</ele><time>2026-04-26T08:33:00.226Z</time></trkpt><trkpt lat="42.9988667" lon="12.851035"><ele>802.0</ele><time>2026-04-26T08:33:01.229Z</time></trkpt><trkpt lat="42.9987983" lon="12.85071"><ele>802.5</ele><time>2026-04-26T08:33:02.232Z</time></trkpt><trkpt lat="42.9987283" lon="12.8503833"><ele>803.0</ele><time>2026-04-26T08:33:03.23Z</time></trkpt><trkpt lat="42.99866" lon="12.8500667"><ele>802.0</ele><time>2026-04-26T08:33:04.229Z</time></trkpt><trkpt lat="42.9985933" lon="12.8497533"><ele>801.0</ele><time>2026-04-26T08:33:05.229Z</time></trkpt><trkpt lat="42.99853" lon="12.849445"><ele>801.0</ele><time>2026-04-26T08:33:06.229Z</time></trkpt><trkpt lat="42.9984717" lon="12.8491583"><ele>801.0</ele><time>2026-04-26T08:33:07.227Z</time></trkpt><trkpt lat="42.99841" lon="12.8488717"><ele>801.0</ele><time>2026-04-26T08:33:08.226Z</time></trkpt><trkpt lat="42.9983517" lon="12.8485883"><ele>801.6666666666667</ele><time>2026-04-26T08:33:09.227Z</time></trkpt><trkpt lat="42.9982933" lon="12.8483117"><ele>802.3333333333334</ele><time>2026-04-26T08:33:10.229Z</time></trkpt><trkpt lat="42.998235" lon="12.8480383"><ele>803.0</ele><time>2026-04-26T08:33:11.228Z</time></trkpt><trkpt lat="42.998175" lon="12.847765"><ele>804.0</ele><time>2026-04-26T08:33:12.227Z</time></trkpt><trkpt lat="42.9981183" lon="12.8474983"><ele>805.0</ele><time>2026-04-26T08:33:13.231Z</time></trkpt><trkpt lat="42.9980583" lon="12.8472517"><ele>806.0</ele><time>2026-04-26T08:33:14.229Z</time></trkpt><trkpt lat="42.9979783" lon="12.847025"><ele>806.0</ele><time>2026-04-26T08:33:15.23Z</time></trkpt><trkpt lat="42.9978667" lon="12.8468217"><ele>806.0</ele><time>2026-04-26T08:33:16.23Z</time></trkpt><trkpt lat="42.9977183" lon="12.846675"><ele>806.0</ele><time>2026-04-26T08:33:17.23Z</time></trkpt><trkpt lat="42.99755" lon="12.8465933"><ele>806.3333333333334</ele><time>2026-04-26T08:33:18.227Z</time></trkpt><trkpt lat="42.9973483" lon="12.8465767"><ele>806.6666666666667</ele><time>2026-04-26T08:33:19.225Z</time></trkpt><trkpt lat="42.9971317" lon="12.8466117"><ele>807.0</ele><time>2026-04-26T08:33:20.228Z</time></trkpt><trkpt lat="42.9969283" lon="12.84664"><ele>807.0</ele><time>2026-04-26T08:33:21.226Z</time></trkpt><trkpt lat="42.99673" lon="12.8466583"><ele>807.0</ele><time>2026-04-26T08:33:22.227Z</time></trkpt><trkpt lat="42.9965317" lon="12.8466717"><ele>807.0</ele><time>2026-04-26T08:33:23.229Z</time></trkpt><trkpt lat="42.9963333" lon="12.8466783"><ele>806.3333333333333</ele><time>2026-04-26T08:33:24.228Z</time></trkpt><trkpt lat="42.9961383" lon="12.846665"><ele>805.6666666666666</ele><time>2026-04-26T08:33:25.232Z</time></trkpt><trkpt lat="42.9959617" lon="12.8466017"><ele>805.0</ele><time>2026-04-26T08:33:26.23Z</time></trkpt><trkpt lat="42.995805" lon="12.8464883"><ele>806.0</ele><time>2026-04-26T08:33:27.23Z</time></trkpt><trkpt lat="42.99566" lon="12.8463183"><ele>807.0</ele><time>2026-04-26T08:33:28.229Z</time></trkpt><trkpt lat="42.9955233" lon="12.846115"><ele>808.0</ele><time>2026-04-26T08:33:29.226Z</time></trkpt><trkpt lat="42.9953933" lon="12.845905"><ele>808.0</ele><time>2026-04-26T08:33:30.231Z</time></trkpt><trkpt lat="42.995275" lon="12.845685"><ele>808.0</ele><time>2026-04-26T08:33:31.226Z</time></trkpt><trkpt lat="42.99517" lon="12.8454417"><ele>808.0</ele><time>2026-04-26T08:33:32.227Z</time></trkpt><trkpt lat="42.9950917" lon="12.8451683"><ele>810.6666666666666</ele><time>2026-04-26T08:33:33.227Z</time></trkpt><trkpt lat="42.995005" lon="12.8449033"><ele>813.3333333333333</ele><time>2026-04-26T08:33:34.231Z</time></trkpt><trkpt lat="42.99489" lon="12.8446767"><ele>816.0</ele><time>2026-04-26T08:33:35.229Z</time></trkpt><trkpt lat="42.994765" lon="12.8444783"><ele>811.6666666666667</ele><time>2026-04-26T08:33:36.233Z</time></trkpt><trkpt lat="42.9946567" lon="12.8442767"><ele>807.3333333333334</ele><time>2026-04-26T08:33:37.229Z</time></trkpt><trkpt lat="42.994585" lon="12.844075"><ele>803.0</ele><time>2026-04-26T08:33:38.23Z</time></trkpt><trkpt lat="42.9945717" lon="12.8438667"><ele>803.0</ele><time>2026-04-26T08:33:39.226Z</time></trkpt><trkpt lat="42.99461" lon="12.84366"><ele>803.0</ele><time>2026-04-26T08:33:40.227Z</time></trkpt><trkpt lat="42.9946783" lon="12.8434467"><ele>803.0</ele><time>2026-04-26T08:33:41.228Z</time></trkpt><trkpt lat="42.994755" lon="12.8432233"><ele>802.6666666666667</ele><time>2026-04-26T08:33:42.228Z</time></trkpt><trkpt lat="42.9947983" lon="12.8429867"><ele>802.3333333333333</ele><time>2026-04-26T08:33:43.229Z</time></trkpt><trkpt lat="42.9948017" lon="12.842715"><ele>802.0</ele><time>2026-04-26T08:33:44.226Z</time></trkpt><trkpt lat="42.9947833" lon="12.8424217"><ele>802.3333333333333</ele><time>2026-04-26T08:33:45.228Z</time></trkpt><trkpt lat="42.9947617" lon="12.8421333"><ele>802.6666666666667</ele><time>2026-04-26T08:33:46.228Z</time></trkpt><trkpt lat="42.99474" lon="12.8418617"><ele>803.0</ele><time>2026-04-26T08:33:47.227Z</time></trkpt><trkpt lat="42.9947183" lon="12.8416217"><ele>803.0</ele><time>2026-04-26T08:33:48.23Z</time></trkpt><trkpt lat="42.9946883" lon="12.8414267"><ele>803.0</ele><time>2026-04-26T08:33:49.233Z</time></trkpt><trkpt lat="42.9946367" lon="12.8412667"><ele>803.0</ele><time>2026-04-26T08:33:50.228Z</time></trkpt><trkpt lat="42.994565" lon="12.8411383"><ele>803.0</ele><time>2026-04-26T08:33:51.228Z</time></trkpt><trkpt lat="42.9944433" lon="12.84109"><ele>803.0</ele><time>2026-04-26T08:33:52.23Z</time></trkpt><trkpt lat="42.9943" lon="12.8411117"><ele>803.0</ele><time>2026-04-26T08:33:53.229Z</time></trkpt><trkpt lat="42.99418" lon="12.8412283"><ele>803.0</ele><time>2026-04-26T08:33:54.23Z</time></trkpt><trkpt lat="42.9940767" lon="12.841455"><ele>797.0</ele><time>2026-04-26T08:33:55.225Z</time></trkpt><trkpt lat="42.9939617" lon="12.8416917"><ele>791.0</ele><time>2026-04-26T08:33:56.227Z</time></trkpt><trkpt lat="42.9938367" lon="12.8418917"><ele>785.0</ele><time>2026-04-26T08:33:57.227Z</time></trkpt><trkpt lat="42.9937067" lon="12.8420533"><ele>780.3333333333334</ele><time>2026-04-26T08:33:58.226Z</time></trkpt><trkpt lat="42.9935717" lon="12.8422017"><ele>775.6666666666667</ele><time>2026-04-26T08:33:59.227Z</time></trkpt><trkpt lat="42.993435" lon="12.8423167"><ele>771.0</ele><time>2026-04-26T08:34:00.226Z</time></trkpt><trkpt lat="42.9933033" lon="12.8424133"><ele>771.0</ele><time>2026-04-26T08:34:01.225Z</time></trkpt><trkpt lat="42.9931617" lon="12.8424833"><ele>771.0</ele><time>2026-04-26T08:34:02.227Z</time></trkpt><trkpt lat="42.9930217" lon="12.8425067"><ele>771.0</ele><time>2026-04-26T08:34:03.227Z</time></trkpt><trkpt lat="42.992885" lon="12.8424567"><ele>771.0</ele><time>2026-04-26T08:34:04.227Z</time></trkpt><trkpt lat="42.9927483" lon="12.8423433"><ele>771.0</ele><time>2026-04-26T08:34:05.226Z</time></trkpt><trkpt lat="42.9926133" lon="12.84218"><ele>771.0</ele><time>2026-04-26T08:34:06.227Z</time></trkpt><trkpt lat="42.9924533" lon="12.8419883"><ele>771.0</ele><time>2026-04-26T08:34:07.227Z</time></trkpt><trkpt lat="42.99228" lon="12.8418333"><ele>774.6666666666667</ele><time>2026-04-26T08:34:08.228Z</time></trkpt><trkpt lat="42.9921067" lon="12.841705"><ele>778.3333333333334</ele><time>2026-04-26T08:34:09.231Z</time></trkpt><trkpt lat="42.9919533" lon="12.841605"><ele>782.0</ele><time>2026-04-26T08:34:10.23Z</time></trkpt><trkpt lat="42.9918067" lon="12.84155"><ele>779.5</ele><time>2026-04-26T08:34:11.228Z</time></trkpt><trkpt lat="42.9916633" lon="12.84156"><ele>777.0</ele><time>2026-04-26T08:34:12.23Z</time></trkpt><trkpt lat="42.9915583" lon="12.8416883"><ele>774.5</ele><time>2026-04-26T08:34:13.226Z</time></trkpt><trkpt lat="42.9914633" lon="12.8418683"><ele>772.0</ele><time>2026-04-26T08:34:14.228Z</time></trkpt><trkpt lat="42.991405" lon="12.8421567"><ele>766.6666666666666</ele><time>2026-04-26T08:34:15.227Z</time></trkpt><trkpt lat="42.9913567" lon="12.84245"><ele>761.3333333333333</ele><time>2026-04-26T08:34:16.229Z</time></trkpt><trkpt lat="42.9913083" lon="12.8427383"><ele>756.0</ele><time>2026-04-26T08:34:17.228Z</time></trkpt><trkpt lat="42.9912483" lon="12.84304"><ele>748.0</ele><time>2026-04-26T08:34:18.228Z</time></trkpt><trkpt lat="42.991185" lon="12.84335"><ele>740.0</ele><time>2026-04-26T08:34:19.228Z</time></trkpt><trkpt lat="42.991135" lon="12.8436533"><ele>734.0</ele><time>2026-04-26T08:34:20.228Z</time></trkpt><trkpt lat="42.9911017" lon="12.8439483"><ele>728.0</ele><time>2026-04-26T08:34:21.228Z</time></trkpt><trkpt lat="42.991085" lon="12.8442433"><ele>722.0</ele><time>2026-04-26T08:34:22.225Z</time></trkpt><trkpt lat="42.9910667" lon="12.84453"><ele>718.6666666666666</ele><time>2026-04-26T08:34:23.23Z</time></trkpt><trkpt lat="42.9910383" lon="12.8447983"><ele>715.3333333333334</ele><time>2026-04-26T08:34:24.226Z</time></trkpt><trkpt lat="42.9909817" lon="12.8450383"><ele>712.0</ele><time>2026-04-26T08:34:25.23Z</time></trkpt><trkpt lat="42.9908983" lon="12.845245"><ele>718.25</ele><time>2026-04-26T08:34:26.228Z</time></trkpt><trkpt lat="42.9908083" lon="12.8454133"><ele>724.5</ele><time>2026-04-26T08:34:27.226Z</time></trkpt><trkpt lat="42.99069" lon="12.8455017"><ele>730.75</ele><time>2026-04-26T08:34:28.226Z</time></trkpt><trkpt lat="42.9905567" lon="12.8455233"><ele>737.0</ele><time>2026-04-26T08:34:29.232Z</time></trkpt><trkpt lat="42.99041" lon="12.8454817"><ele>737.0</ele><time>2026-04-26T08:34:30.228Z</time></trkpt><trkpt lat="42.9902467" lon="12.8453683"><ele>737.0</ele><time>2026-04-26T08:34:31.226Z</time></trkpt><trkpt lat="42.9900933" lon="12.84526"><ele>737.0</ele><time>2026-04-26T08:34:32.229Z</time></trkpt><trkpt lat="42.989955" lon="12.8451617"><ele>738.25</ele><time>2026-04-26T08:34:33.228Z</time></trkpt><trkpt lat="42.9898233" lon="12.8450917"><ele>739.5</ele><time>2026-04-26T08:34:34.229Z</time></trkpt><trkpt lat="42.9897033" lon="12.845125"><ele>740.75</ele><time>2026-04-26T08:34:35.229Z</time></trkpt><trkpt lat="42.98961" lon="12.8452183"><ele>742.0</ele><time>2026-04-26T08:34:36.226Z</time></trkpt><trkpt lat="42.98956" lon="12.84536"><ele>742.0</ele><time>2026-04-26T08:34:37.227Z</time></trkpt><trkpt lat="42.9895733" lon="12.845595"><ele>742.0</ele><time>2026-04-26T08:34:38.228Z</time></trkpt><trkpt lat="42.9896483" lon="12.8459467"><ele>742.0</ele><time>2026-04-26T08:34:39.228Z</time></trkpt><trkpt lat="42.9896833" lon="12.8462567"><ele>738.3333333333334</ele><time>2026-04-26T08:34:40.227Z</time></trkpt><trkpt lat="42.9897083" lon="12.8465617"><ele>734.6666666666666</ele><time>2026-04-26T08:34:41.229Z</time></trkpt><trkpt lat="42.9897483" lon="12.846845"><ele>731.0</ele><time>2026-04-26T08:34:42.227Z</time></trkpt><trkpt lat="42.9898017" lon="12.84711"><ele>731.0</ele><time>2026-04-26T08:34:43.228Z</time></trkpt><trkpt lat="42.9898767" lon="12.8473333"><ele>731.0</ele><time>2026-04-26T08:34:44.228Z</time></trkpt><trkpt lat="42.9899467" lon="12.84752"><ele>731.0</ele><time>2026-04-26T08:34:45.227Z</time></trkpt><trkpt lat="42.9900017" lon="12.8476867"><ele>727.5</ele><time>2026-04-26T08:34:46.228Z</time></trkpt><trkpt lat="42.9900217" lon="12.8478517"><ele>724.0</ele><time>2026-04-26T08:34:47.228Z</time></trkpt><trkpt lat="42.98998" lon="12.8479967"><ele>720.5</ele><time>2026-04-26T08:34:48.23Z</time></trkpt><trkpt lat="42.9899033" lon="12.848115"><ele>717.0</ele><time>2026-04-26T08:34:49.237Z</time></trkpt><trkpt lat="42.9897667" lon="12.8482133"><ele>717.0</ele><time>2026-04-26T08:34:50.226Z</time></trkpt><trkpt lat="42.9895767" lon="12.8482383"><ele>717.0</ele><time>2026-04-26T08:34:51.229Z</time></trkpt><trkpt lat="42.9893733" lon="12.84825"><ele>717.0</ele><time>2026-04-26T08:34:52.227Z</time></trkpt><trkpt lat="42.989165" lon="12.8482567"><ele>719.6666666666666</ele><time>2026-04-26T08:34:53.226Z</time></trkpt><trkpt lat="42.9889583" lon="12.8482533"><ele>722.3333333333333</ele><time>2026-04-26T08:34:54.228Z</time></trkpt><trkpt lat="42.9887467" lon="12.84824"><ele>725.0</ele><time>2026-04-26T08:34:55.232Z</time></trkpt><trkpt lat="42.98854" lon="12.84823"><ele>724.3333333333333</ele><time>2026-04-26T08:34:56.228Z</time></trkpt><trkpt lat="42.988335" lon="12.8482333"><ele>723.6666666666666</ele><time>2026-04-26T08:34:57.233Z</time></trkpt><trkpt lat="42.988125" lon="12.84825"><ele>723.0</ele><time>2026-04-26T08:34:58.229Z</time></trkpt><trkpt lat="42.9879117" lon="12.8483283"><ele>723.0</ele><time>2026-04-26T08:34:59.228Z</time></trkpt><trkpt lat="42.9877117" lon="12.8484283"><ele>723.0</ele><time>2026-04-26T08:35:00.23Z</time></trkpt><trkpt lat="42.9875133" lon="12.8484967"><ele>723.0</ele><time>2026-04-26T08:35:01.229Z</time></trkpt><trkpt lat="42.987315" lon="12.8484617"><ele>723.6666666666666</ele><time>2026-04-26T08:35:02.229Z</time></trkpt><trkpt lat="42.9871117" lon="12.848405"><ele>724.3333333333333</ele><time>2026-04-26T08:35:03.228Z</time></trkpt><trkpt lat="42.9869133" lon="12.8483517"><ele>725.0</ele><time>2026-04-26T08:35:04.228Z</time></trkpt><trkpt lat="42.986715" lon="12.8483083"><ele>721.3333333333333</ele><time>2026-04-26T08:35:05.23Z</time></trkpt><trkpt lat="42.9865233" lon="12.8482933"><ele>717.6666666666666</ele><time>2026-04-26T08:35:06.228Z</time></trkpt><trkpt lat="42.986335" lon="12.8482867"><ele>714.0</ele><time>2026-04-26T08:35:07.23Z</time></trkpt><trkpt lat="42.98614" lon="12.8483"><ele>714.0</ele><time>2026-04-26T08:35:08.228Z</time></trkpt><trkpt lat="42.9859467" lon="12.8483183"><ele>714.0</ele><time>2026-04-26T08:35:09.229Z</time></trkpt><trkpt lat="42.9857617" lon="12.8483283"><ele>714.0</ele><time>2026-04-26T08:35:10.231Z</time></trkpt><trkpt lat="42.9855833" lon="12.8483217"><ele>713.3333333333334</ele><time>2026-04-26T08:35:11.229Z</time></trkpt><trkpt lat="42.985415" lon="12.8482817"><ele>712.6666666666667</ele><time>2026-04-26T08:35:12.229Z</time></trkpt><trkpt lat="42.9852483" lon="12.848205"><ele>712.0</ele><time>2026-04-26T08:35:13.229Z</time></trkpt><trkpt lat="42.985085" lon="12.8481183"><ele>706.3333333333334</ele><time>2026-04-26T08:35:14.233Z</time></trkpt><trkpt lat="42.9849183" lon="12.84803"><ele>700.6666666666666</ele><time>2026-04-26T08:35:15.227Z</time></trkpt><trkpt lat="42.9847517" lon="12.8479483"><ele>695.0</ele><time>2026-04-26T08:35:16.227Z</time></trkpt><trkpt lat="42.9845883" lon="12.8478633"><ele>695.0</ele><time>2026-04-26T08:35:17.226Z</time></trkpt><trkpt lat="42.984425" lon="12.847775"><ele>695.0</ele><time>2026-04-26T08:35:18.225Z</time></trkpt><trkpt lat="42.984265" lon="12.8476767"><ele>695.0</ele><time>2026-04-26T08:35:19.232Z</time></trkpt><trkpt lat="42.9841083" lon="12.8475733"><ele>698.6666666666666</ele><time>2026-04-26T08:35:20.227Z</time></trkpt><trkpt lat="42.9839533" lon="12.84746"><ele>702.3333333333334</ele><time>2026-04-26T08:35:21.229Z</time></trkpt><trkpt lat="42.9838017" lon="12.8473417"><ele>706.0</ele><time>2026-04-26T08:35:22.232Z</time></trkpt><trkpt lat="42.983655" lon="12.8472217"><ele>706.0</ele><time>2026-04-26T08:35:23.232Z</time></trkpt><trkpt lat="42.98351" lon="12.8471"><ele>706.0</ele><time>2026-04-26T08:35:24.231Z</time></trkpt><trkpt lat="42.9833683" lon="12.8469783"><ele>706.0</ele><time>2026-04-26T08:35:25.228Z</time></trkpt><trkpt lat="42.98323" lon="12.84686"><ele>706.3333333333334</ele><time>2026-04-26T08:35:26.227Z</time></trkpt><trkpt lat="42.9830933" lon="12.84674"><ele>706.6666666666666</ele><time>2026-04-26T08:35:27.232Z</time></trkpt><trkpt lat="42.982955" lon="12.8466233"><ele>707.0</ele><time>2026-04-26T08:35:28.228Z</time></trkpt><trkpt lat="42.9828167" lon="12.8465083"><ele>707.0</ele><time>2026-04-26T08:35:29.232Z</time></trkpt><trkpt lat="42.9826783" lon="12.84639"><ele>707.0</ele><time>2026-04-26T08:35:30.229Z</time></trkpt><trkpt lat="42.9825417" lon="12.8462717"><ele>707.0</ele><time>2026-04-26T08:35:31.23Z</time></trkpt><trkpt lat="42.9824033" lon="12.846155"><ele>707.0</ele><time>2026-04-26T08:35:32.228Z</time></trkpt><trkpt lat="42.9822617" lon="12.8460433"><ele>707.0</ele><time>2026-04-26T08:35:33.23Z</time></trkpt><trkpt lat="42.98212" lon="12.845925"><ele>707.0</ele><time>2026-04-26T08:35:34.228Z</time></trkpt><trkpt lat="42.98197" lon="12.8458083"><ele>707.0</ele><time>2026-04-26T08:35:35.231Z</time></trkpt><trkpt lat="42.9818283" lon="12.8456783"><ele>707.0</ele><time>2026-04-26T08:35:36.225Z</time></trkpt><trkpt lat="42.981685" lon="12.84554"><ele>707.0</ele><time>2026-04-26T08:35:37.229Z</time></trkpt><trkpt lat="42.9815433" lon="12.8454"><ele>707.0</ele><time>2026-04-26T08:35:38.227Z</time></trkpt><trkpt lat="42.9814017" lon="12.8452617"><ele>707.0</ele><time>2026-04-26T08:35:39.234Z</time></trkpt><trkpt lat="42.9812617" lon="12.8451183"><ele>707.0</ele><time>2026-04-26T08:35:40.233Z</time></trkpt><trkpt lat="42.9811233" lon="12.844975"><ele>707.0</ele><time>2026-04-26T08:35:41.229Z</time></trkpt><trkpt lat="42.9809867" lon="12.8448233"><ele>707.0</ele><time>2026-04-26T08:35:42.228Z</time></trkpt><trkpt lat="42.98085" lon="12.8446783"><ele>707.0</ele><time>2026-04-26T08:35:43.227Z</time></trkpt><trkpt lat="42.98071" lon="12.8445333"><ele>704.3333333333333</ele><time>2026-04-26T08:35:44.233Z</time></trkpt><trkpt lat="42.9805683" lon="12.844385"><ele>701.6666666666666</ele><time>2026-04-26T08:35:45.23Z</time></trkpt><trkpt lat="42.9804217" lon="12.8442433"><ele>699.0</ele><time>2026-04-26T08:35:46.227Z</time></trkpt><trkpt lat="42.9802667" lon="12.8441167"><ele>699.0</ele><time>2026-04-26T08:35:47.227Z</time></trkpt><trkpt lat="42.9801033" lon="12.8440017"><ele>699.0</ele><time>2026-04-26T08:35:48.229Z</time></trkpt><trkpt lat="42.979935" lon="12.8438883"><ele>699.0</ele><time>2026-04-26T08:35:49.23Z</time></trkpt><trkpt lat="42.9797567" lon="12.843765"><ele>692.0</ele><time>2026-04-26T08:35:50.229Z</time></trkpt><trkpt lat="42.97958" lon="12.8436333"><ele>685.0</ele><time>2026-04-26T08:35:51.233Z</time></trkpt><trkpt lat="42.9794067" lon="12.8435033"><ele>678.0</ele><time>2026-04-26T08:35:52.229Z</time></trkpt><trkpt lat="42.9792367" lon="12.8433683"><ele>672.0</ele><time>2026-04-26T08:35:53.229Z</time></trkpt><trkpt lat="42.97908" lon="12.8432317"><ele>666.0</ele><time>2026-04-26T08:35:54.229Z</time></trkpt><trkpt lat="42.97894" lon="12.84309"><ele>660.0</ele><time>2026-04-26T08:35:55.229Z</time></trkpt><trkpt lat="42.9788117" lon="12.8429433"><ele>660.0</ele><time>2026-04-26T08:35:56.229Z</time></trkpt><trkpt lat="42.9786933" lon="12.8428017"><ele>660.0</ele><time>2026-04-26T08:35:57.228Z</time></trkpt><trkpt lat="42.9785867" lon="12.84267"><ele>660.0</ele><time>2026-04-26T08:35:58.228Z</time></trkpt><trkpt lat="42.978485" lon="12.84256"><ele>660.0</ele><time>2026-04-26T08:35:59.233Z</time></trkpt><trkpt lat="42.978375" lon="12.8424933"><ele>657.25</ele><time>2026-04-26T08:36:00.225Z</time></trkpt><trkpt lat="42.978255" lon="12.8424867"><ele>654.5</ele><time>2026-04-26T08:36:01.226Z</time></trkpt><trkpt lat="42.9781417" lon="12.842545"><ele>651.75</ele><time>2026-04-26T08:36:02.225Z</time></trkpt><trkpt lat="42.9780783" lon="12.8426633"><ele>649.0</ele><time>2026-04-26T08:36:03.227Z</time></trkpt><trkpt lat="42.9780783" lon="12.8428167"><ele>647.75</ele><time>2026-04-26T08:36:04.231Z</time></trkpt><trkpt lat="42.9781483" lon="12.8429817"><ele>646.5</ele><time>2026-04-26T08:36:05.229Z</time></trkpt><trkpt lat="42.97826" lon="12.8431"><ele>645.25</ele><time>2026-04-26T08:36:06.226Z</time></trkpt><trkpt lat="42.9784067" lon="12.8432017"><ele>644.0</ele><time>2026-04-26T08:36:07.231Z</time></trkpt><trkpt lat="42.978565" lon="12.8433133"><ele>641.0</ele><time>2026-04-26T08:36:08.229Z</time></trkpt><trkpt lat="42.9787267" lon="12.8434267"><ele>638.0</ele><time>2026-04-26T08:36:09.226Z</time></trkpt><trkpt lat="42.9788933" lon="12.84354"><ele>635.0</ele><time>2026-04-26T08:36:10.229Z</time></trkpt><trkpt lat="42.979065" lon="12.8436583"><ele>644.6666666666666</ele><time>2026-04-26T08:36:11.228Z</time></trkpt><trkpt lat="42.9792333" lon="12.843785"><ele>654.3333333333334</ele><time>2026-04-26T08:36:12.228Z</time></trkpt><trkpt lat="42.9793983" lon="12.8439183"><ele>664.0</ele><time>2026-04-26T08:36:13.228Z</time></trkpt><trkpt lat="42.9795633" lon="12.844055"><ele>664.0</ele><time>2026-04-26T08:36:14.233Z</time></trkpt><trkpt lat="42.979725" lon="12.84419"><ele>664.0</ele><time>2026-04-26T08:36:15.228Z</time></trkpt><trkpt lat="42.9798833" lon="12.8443283"><ele>664.0</ele><time>2026-04-26T08:36:16.229Z</time></trkpt><trkpt lat="42.9800383" lon="12.8444733"><ele>666.0</ele><time>2026-04-26T08:36:17.229Z</time></trkpt><trkpt lat="42.9801833" lon="12.844625"><ele>668.0</ele><time>2026-04-26T08:36:18.229Z</time></trkpt><trkpt lat="42.9803133" lon="12.8447767"><ele>670.0</ele><time>2026-04-26T08:36:19.226Z</time></trkpt><trkpt lat="42.9804383" lon="12.8449217"><ele>670.0</ele><time>2026-04-26T08:36:20.225Z</time></trkpt><trkpt lat="42.9805517" lon="12.8450633"><ele>670.0</ele><time>2026-04-26T08:36:21.227Z</time></trkpt><trkpt lat="42.98066" lon="12.8452"><ele>670.0</ele><time>2026-04-26T08:36:22.229Z</time></trkpt><trkpt lat="42.9807633" lon="12.8453333"><ele>670.0</ele><time>2026-04-26T08:36:23.225Z</time></trkpt><trkpt lat="42.9808667" lon="12.845465"><ele>669.75</ele><time>2026-04-26T08:36:24.227Z</time></trkpt><trkpt lat="42.980965" lon="12.845595"><ele>669.5</ele><time>2026-04-26T08:36:25.234Z</time></trkpt><trkpt lat="42.9810667" lon="12.8457283"><ele>669.25</ele><time>2026-04-26T08:36:26.228Z</time></trkpt><trkpt lat="42.9811833" lon="12.8458767"><ele>669.0</ele><time>2026-04-26T08:36:27.228Z</time></trkpt><trkpt lat="42.981325" lon="12.8460517"><ele>670.3333333333334</ele><time>2026-04-26T08:36:28.228Z</time></trkpt><trkpt lat="42.9814817" lon="12.8462517"><ele>671.6666666666667</ele><time>2026-04-26T08:36:29.228Z</time></trkpt><trkpt lat="42.9816517" lon="12.8464683"><ele>673.0</ele><time>2026-04-26T08:36:30.231Z</time></trkpt><trkpt lat="42.9818333" lon="12.8467"><ele>654.0</ele><time>2026-04-26T08:36:31.229Z</time></trkpt><trkpt lat="42.9820167" lon="12.846925"><ele>635.0</ele><time>2026-04-26T08:36:32.227Z</time></trkpt><trkpt lat="42.982195" lon="12.847145"><ele>635.0</ele><time>2026-04-26T08:36:33.23Z</time></trkpt><trkpt lat="42.9823617" lon="12.847365"><ele>635.0</ele><time>2026-04-26T08:36:34.228Z</time></trkpt><trkpt lat="42.9825267" lon="12.8475917"><ele>637.5</ele><time>2026-04-26T08:36:35.227Z</time></trkpt><trkpt lat="42.9826933" lon="12.8478167"><ele>640.0</ele><time>2026-04-26T08:36:36.227Z</time></trkpt><trkpt lat="42.9828617" lon="12.8480383"><ele>640.0</ele><time>2026-04-26T08:36:37.232Z</time></trkpt><trkpt lat="42.9830333" lon="12.848265"><ele>640.0</ele><time>2026-04-26T08:36:38.228Z</time></trkpt><trkpt lat="42.9832067" lon="12.8484933"><ele>638.5</ele><time>2026-04-26T08:36:39.228Z</time></trkpt><trkpt lat="42.9833833" lon="12.8487167"><ele>637.0</ele><time>2026-04-26T08:36:40.229Z</time></trkpt><trkpt lat="42.98356" lon="12.84893"><ele>637.0</ele><time>2026-04-26T08:36:41.234Z</time></trkpt><trkpt lat="42.98374" lon="12.8491217"><ele>637.0</ele><time>2026-04-26T08:36:42.238Z</time></trkpt><trkpt lat="42.9839183" lon="12.849285"><ele>637.0</ele><time>2026-04-26T08:36:43.231Z</time></trkpt><trkpt lat="42.98409" lon="12.849425"><ele>632.6666666666667</ele><time>2026-04-26T08:36:44.228Z</time></trkpt><trkpt lat="42.98425" lon="12.8495567"><ele>628.3333333333334</ele><time>2026-04-26T08:36:45.231Z</time></trkpt><trkpt lat="42.9844033" lon="12.8496583"><ele>624.0</ele><time>2026-04-26T08:36:46.232Z</time></trkpt><trkpt lat="42.9845467" lon="12.84974"><ele>624.0</ele><time>2026-04-26T08:36:47.226Z</time></trkpt><trkpt lat="42.9846717" lon="12.8498267"><ele>624.0</ele><time>2026-04-26T08:36:48.225Z</time></trkpt><trkpt lat="42.9847617" lon="12.8499417"><ele>624.0</ele><time>2026-04-26T08:36:49.228Z</time></trkpt><trkpt lat="42.984805" lon="12.85007"><ele>624.0</ele><time>2026-04-26T08:36:50.233Z</time></trkpt><trkpt lat="42.9847967" lon="12.8501817"><ele>624.0</ele><time>2026-04-26T08:36:51.227Z</time></trkpt><trkpt lat="42.984725" lon="12.8502833"><ele>624.0</ele><time>2026-04-26T08:36:52.229Z</time></trkpt><trkpt lat="42.984635" lon="12.85035"><ele>624.0</ele><time>2026-04-26T08:36:53.232Z</time></trkpt><trkpt lat="42.9845067" lon="12.8503183"><ele>624.0</ele><time>2026-04-26T08:36:54.229Z</time></trkpt><trkpt lat="42.98437" lon="12.8502317"><ele>624.0</ele><time>2026-04-26T08:36:55.229Z</time></trkpt><trkpt lat="42.9842283" lon="12.8500767"><ele>620.6666666666666</ele><time>2026-04-26T08:36:56.225Z</time></trkpt><trkpt lat="42.98408" lon="12.84992"><ele>617.3333333333333</ele><time>2026-04-26T08:36:57.229Z</time></trkpt><trkpt lat="42.98392" lon="12.8497533"><ele>614.0</ele><time>2026-04-26T08:36:58.226Z</time></trkpt><trkpt lat="42.9837617" lon="12.8495917"><ele>614.0</ele><time>2026-04-26T08:36:59.227Z</time></trkpt><trkpt lat="42.983605" lon="12.8494317"><ele>614.0</ele><time>2026-04-26T08:37:00.229Z</time></trkpt><trkpt lat="42.9834517" lon="12.8492767"><ele>614.0</ele><time>2026-04-26T08:37:01.227Z</time></trkpt><trkpt lat="42.9832983" lon="12.849125"><ele>613.6666666666666</ele><time>2026-04-26T08:37:02.225Z</time></trkpt><trkpt lat="42.98315" lon="12.848975"><ele>613.3333333333334</ele><time>2026-04-26T08:37:03.226Z</time></trkpt><trkpt lat="42.983015" lon="12.8488383"><ele>613.0</ele><time>2026-04-26T08:37:04.226Z</time></trkpt><trkpt lat="42.9828867" lon="12.8487117"><ele>613.0</ele><time>2026-04-26T08:37:05.229Z</time></trkpt><trkpt lat="42.98276" lon="12.8485867"><ele>613.0</ele><time>2026-04-26T08:37:06.231Z</time></trkpt><trkpt lat="42.98263" lon="12.8484617"><ele>613.0</ele><time>2026-04-26T08:37:07.23Z</time></trkpt><trkpt lat="42.9824983" lon="12.84834"><ele>611.75</ele><time>2026-04-26T08:37:08.229Z</time></trkpt><trkpt lat="42.98237" lon="12.8482283"><ele>610.5</ele><time>2026-04-26T08:37:09.226Z</time></trkpt><trkpt lat="42.982245" lon="12.8481217"><ele>609.25</ele><time>2026-04-26T08:37:10.232Z</time></trkpt><trkpt lat="42.9821283" lon="12.8480133"><ele>608.0</ele><time>2026-04-26T08:37:11.23Z</time></trkpt><trkpt lat="42.9820183" lon="12.847905"><ele>608.0</ele><time>2026-04-26T08:37:12.231Z</time></trkpt><trkpt lat="42.9819133" lon="12.8477817"><ele>608.0</ele><time>2026-04-26T08:37:13.234Z</time></trkpt><trkpt lat="42.981805" lon="12.8476533"><ele>608.0</ele><time>2026-04-26T08:37:14.233Z</time></trkpt><trkpt lat="42.9816933" lon="12.8475267"><ele>608.0</ele><time>2026-04-26T08:37:15.231Z</time></trkpt><trkpt lat="42.98158" lon="12.847405"><ele>606.75</ele><time>2026-04-26T08:37:16.228Z</time></trkpt><trkpt lat="42.9814633" lon="12.847285"><ele>605.5</ele><time>2026-04-26T08:37:17.23Z</time></trkpt><trkpt lat="42.98135" lon="12.8471717"><ele>604.25</ele><time>2026-04-26T08:37:18.227Z</time></trkpt><trkpt lat="42.98124" lon="12.8470717"><ele>603.0</ele><time>2026-04-26T08:37:19.229Z</time></trkpt><trkpt lat="42.981145" lon="12.8469867"><ele>603.0</ele><time>2026-04-26T08:37:20.231Z</time></trkpt><trkpt lat="42.9810617" lon="12.8469"><ele>603.0</ele><time>2026-04-26T08:37:21.234Z</time></trkpt><trkpt lat="42.9809683" lon="12.8468083"><ele>603.0</ele><time>2026-04-26T08:37:22.233Z</time></trkpt><trkpt lat="42.9808633" lon="12.8467"><ele>603.0</ele><time>2026-04-26T08:37:23.234Z</time></trkpt><trkpt lat="42.9807433" lon="12.8465833"><ele>603.0</ele><time>2026-04-26T08:37:24.23Z</time></trkpt><trkpt lat="42.9806133" lon="12.8464617"><ele>603.0</ele><time>2026-04-26T08:37:25.23Z</time></trkpt><trkpt lat="42.9804767" lon="12.846345"><ele>603.0</ele><time>2026-04-26T08:37:26.228Z</time></trkpt><trkpt lat="42.980335" lon="12.8462283"><ele>603.0</ele><time>2026-04-26T08:37:27.229Z</time></trkpt><trkpt lat="42.9801867" lon="12.846115"><ele>603.0</ele><time>2026-04-26T08:37:28.229Z</time></trkpt><trkpt lat="42.9800367" lon="12.846"><ele>603.0</ele><time>2026-04-26T08:37:29.225Z</time></trkpt><trkpt lat="42.979885" lon="12.84588"><ele>600.6666666666666</ele><time>2026-04-26T08:37:30.226Z</time></trkpt><trkpt lat="42.979735" lon="12.8457583"><ele>598.3333333333333</ele><time>2026-04-26T08:37:31.231Z</time></trkpt><trkpt lat="42.9795867" lon="12.8456383"><ele>596.0</ele><time>2026-04-26T08:37:32.229Z</time></trkpt><trkpt lat="42.979435" lon="12.8455133"><ele>596.0</ele><time>2026-04-26T08:37:33.228Z</time></trkpt><trkpt lat="42.979305" lon="12.84539"><ele>596.0</ele><time>2026-04-26T08:37:34.23Z</time></trkpt><trkpt lat="42.97917" lon="12.845255"><ele>596.0</ele><time>2026-04-26T08:37:35.23Z</time></trkpt><trkpt lat="42.9790117" lon="12.8451383"><ele>596.3333333333333</ele><time>2026-04-26T08:37:36.23Z</time></trkpt><trkpt lat="42.9788567" lon="12.8450283"><ele>596.6666666666666</ele><time>2026-04-26T08:37:37.228Z</time></trkpt><trkpt lat="42.9787083" lon="12.8449133"><ele>597.0</ele><time>2026-04-26T08:37:38.229Z</time></trkpt><trkpt lat="42.9785533" lon="12.8448"><ele>597.0</ele><time>2026-04-26T08:37:39.225Z</time></trkpt><trkpt lat="42.9784" lon="12.84469"><ele>597.0</ele><time>2026-04-26T08:37:40.229Z</time></trkpt><trkpt lat="42.9782483" lon="12.8445767"><ele>597.0</ele><time>2026-04-26T08:37:41.229Z</time></trkpt><trkpt lat="42.97809" lon="12.8444717"><ele>601.0</ele><time>2026-04-26T08:37:42.233Z</time></trkpt><trkpt lat="42.97793" lon="12.8443717"><ele>605.0</ele><time>2026-04-26T08:37:43.23Z</time></trkpt><trkpt lat="42.9777667" lon="12.844285"><ele>609.0</ele><time>2026-04-26T08:37:44.229Z</time></trkpt><trkpt lat="42.9776" lon="12.84422"><ele>603.0</ele><time>2026-04-26T08:37:45.236Z</time></trkpt><trkpt lat="42.9774383" lon="12.8441683"><ele>597.0</ele><time>2026-04-26T08:37:46.232Z</time></trkpt><trkpt lat="42.9772817" lon="12.8441267"><ele>591.0</ele><time>2026-04-26T08:37:47.232Z</time></trkpt><trkpt lat="42.97713" lon="12.8440983"><ele>591.0</ele><time>2026-04-26T08:37:48.233Z</time></trkpt><trkpt lat="42.9769867" lon="12.84408"><ele>591.0</ele><time>2026-04-26T08:37:49.23Z</time></trkpt><trkpt lat="42.976855" lon="12.8440683"><ele>591.0</ele><time>2026-04-26T08:37:50.233Z</time></trkpt><trkpt lat="42.9767367" lon="12.84405"><ele>591.0</ele><time>2026-04-26T08:37:51.231Z</time></trkpt><trkpt lat="42.97663" lon="12.84402"><ele>589.3333333333334</ele><time>2026-04-26T08:37:52.227Z</time></trkpt><trkpt lat="42.9765433" lon="12.84397"><ele>587.6666666666666</ele><time>2026-04-26T08:37:53.232Z</time></trkpt><trkpt lat="42.9764717" lon="12.84391"><ele>586.0</ele><time>2026-04-26T08:37:54.235Z</time></trkpt><trkpt lat="42.9764" lon="12.8438583"><ele>584.3333333333333</ele><time>2026-04-26T08:37:55.239Z</time></trkpt><trkpt lat="42.9763233" lon="12.8438233"><ele>582.6666666666666</ele><time>2026-04-26T08:37:56.232Z</time></trkpt><trkpt lat="42.9762383" lon="12.8438417"><ele>581.0</ele><time>2026-04-26T08:37:57.231Z</time></trkpt><trkpt lat="42.97616" lon="12.84389"><ele>581.0</ele><time>2026-04-26T08:37:58.231Z</time></trkpt><trkpt lat="42.976075" lon="12.8439483"><ele>581.0</ele><time>2026-04-26T08:37:59.231Z</time></trkpt><trkpt lat="42.975975" lon="12.844"><ele>581.0</ele><time>2026-04-26T08:38:00.231Z</time></trkpt><trkpt lat="42.9758617" lon="12.8440383"><ele>581.0</ele><time>2026-04-26T08:38:01.231Z</time></trkpt><trkpt lat="42.9757417" lon="12.8440717"><ele>581.0</ele><time>2026-04-26T08:38:02.23Z</time></trkpt><trkpt lat="42.9756183" lon="12.8441167"><ele>579.75</ele><time>2026-04-26T08:38:03.233Z</time></trkpt><trkpt lat="42.9754917" lon="12.84418"><ele>578.5</ele><time>2026-04-26T08:38:04.232Z</time></trkpt><trkpt lat="42.975365" lon="12.84426"><ele>577.25</ele><time>2026-04-26T08:38:05.23Z</time></trkpt><trkpt lat="42.975235" lon="12.84435"><ele>576.0</ele><time>2026-04-26T08:38:06.229Z</time></trkpt><trkpt lat="42.9751033" lon="12.844455"><ele>580.3333333333334</ele><time>2026-04-26T08:38:07.231Z</time></trkpt><trkpt lat="42.9749733" lon="12.8445717"><ele>584.6666666666667</ele><time>2026-04-26T08:38:08.23Z</time></trkpt><trkpt lat="42.97484" lon="12.8446933"><ele>589.0</ele><time>2026-04-26T08:38:09.231Z</time></trkpt><trkpt lat="42.974705" lon="12.8448233"><ele>589.0</ele><time>2026-04-26T08:38:10.235Z</time></trkpt><trkpt lat="42.9745717" lon="12.844955"><ele>589.0</ele><time>2026-04-26T08:38:11.232Z</time></trkpt><trkpt lat="42.9716983" lon="12.84782"><ele>589.6666666666667</ele><time>2026-04-26T08:38:31.233Z</time></trkpt><trkpt lat="42.9715383" lon="12.8479117"><ele>590.3333333333334</ele><time>2026-04-26T08:38:32.231Z</time></trkpt><trkpt lat="42.97137" lon="12.84799"><ele>591.0</ele><time>2026-04-26T08:38:33.229Z</time></trkpt><trkpt lat="42.9711917" lon="12.84806"><ele>591.0</ele><time>2026-04-26T08:38:34.232Z</time></trkpt><trkpt lat="42.9710133" lon="12.8481317"><ele>591.0</ele><time>2026-04-26T08:38:35.232Z</time></trkpt><trkpt lat="42.9708317" lon="12.8481983"><ele>591.0</ele><time>2026-04-26T08:38:36.227Z</time></trkpt><trkpt lat="42.97065" lon="12.8482617"><ele>589.3333333333334</ele><time>2026-04-26T08:38:37.232Z</time></trkpt><trkpt lat="42.9704683" lon="12.848325"><ele>587.6666666666667</ele><time>2026-04-26T08:38:38.232Z</time></trkpt><trkpt lat="42.97029" lon="12.8483883"><ele>586.0</ele><time>2026-04-26T08:38:39.234Z</time></trkpt><trkpt lat="42.97011" lon="12.84845"><ele>588.3333333333334</ele><time>2026-04-26T08:38:40.23Z</time></trkpt><trkpt lat="42.9699267" lon="12.84851"><ele>590.6666666666666</ele><time>2026-04-26T08:38:41.232Z</time></trkpt><trkpt lat="42.969735" lon="12.8485783"><ele>593.0</ele><time>2026-04-26T08:38:42.231Z</time></trkpt><trkpt lat="42.969525" lon="12.84866"><ele>593.0</ele><time>2026-04-26T08:38:43.237Z</time></trkpt><trkpt lat="42.9692867" lon="12.8487467"><ele>593.0</ele><time>2026-04-26T08:38:44.236Z</time></trkpt><trkpt lat="42.9690283" lon="12.8488217"><ele>592.5</ele><time>2026-04-26T08:38:45.233Z</time></trkpt><trkpt lat="42.968775" lon="12.8488883"><ele>592.0</ele><time>2026-04-26T08:38:46.231Z</time></trkpt><trkpt lat="42.96853" lon="12.8489583"><ele>594.0</ele><time>2026-04-26T08:38:47.23Z</time></trkpt><trkpt lat="42.968285" lon="12.8490367"><ele>596.0</ele><time>2026-04-26T08:38:48.229Z</time></trkpt><trkpt lat="42.9680417" lon="12.8491233"><ele>596.0</ele><time>2026-04-26T08:38:49.241Z</time></trkpt><trkpt lat="42.9678017" lon="12.8492117"><ele>596.0</ele><time>2026-04-26T08:38:50.234Z</time></trkpt><trkpt lat="42.9675717" lon="12.8492883"><ele>606.3333333333333</ele><time>2026-04-26T08:38:51.231Z</time></trkpt><trkpt lat="42.9673483" lon="12.849345"><ele>616.6666666666666</ele><time>2026-04-26T08:38:52.229Z</time></trkpt><trkpt lat="42.9671283" lon="12.8493583"><ele>627.0</ele><time>2026-04-26T08:38:53.228Z</time></trkpt><trkpt lat="42.966905" lon="12.84934"><ele>626.5</ele><time>2026-04-26T08:38:54.233Z</time></trkpt><trkpt lat="42.9666767" lon="12.8493067"><ele>626.0</ele><time>2026-04-26T08:38:55.231Z</time></trkpt><trkpt lat="42.966445" lon="12.8492617"><ele>609.5</ele><time>2026-04-26T08:38:56.237Z</time></trkpt><trkpt lat="42.9662117" lon="12.8492117"><ele>593.0</ele><time>2026-04-26T08:38:57.232Z</time></trkpt><trkpt lat="42.9659767" lon="12.849165"><ele>595.0</ele><time>2026-04-26T08:38:58.233Z</time></trkpt><trkpt lat="42.96575" lon="12.8491183"><ele>597.0</ele><time>2026-04-26T08:38:59.232Z</time></trkpt><trkpt lat="42.965535" lon="12.8490767"><ele>599.0</ele><time>2026-04-26T08:39:00.232Z</time></trkpt><trkpt lat="42.965335" lon="12.84904"><ele>599.0</ele><time>2026-04-26T08:39:01.235Z</time></trkpt><trkpt lat="42.9651467" lon="12.8490117"><ele>599.0</ele><time>2026-04-26T08:39:02.234Z</time></trkpt><trkpt lat="42.96497" lon="12.8490167"><ele>599.0</ele><time>2026-04-26T08:39:03.232Z</time></trkpt><trkpt lat="42.9648033" lon="12.8490583"><ele>599.3333333333333</ele><time>2026-04-26T08:39:04.231Z</time></trkpt><trkpt lat="42.9646633" lon="12.8491683"><ele>599.6666666666666</ele><time>2026-04-26T08:39:05.233Z</time></trkpt><trkpt lat="42.964555" lon="12.8493383"><ele>600.0</ele><time>2026-04-26T08:39:06.229Z</time></trkpt><trkpt lat="42.9644617" lon="12.8495367"><ele>607.3333333333334</ele><time>2026-04-26T08:39:07.234Z</time></trkpt><trkpt lat="42.96436" lon="12.84973"><ele>614.6666666666667</ele><time>2026-04-26T08:39:08.236Z</time></trkpt><trkpt lat="42.96426" lon="12.8499417"><ele>622.0</ele><time>2026-04-26T08:39:09.232Z</time></trkpt><trkpt lat="42.9641567" lon="12.850155"><ele>622.0</ele><time>2026-04-26T08:39:10.231Z</time></trkpt><trkpt lat="42.964045" lon="12.8503633"><ele>622.0</ele><time>2026-04-26T08:39:11.232Z</time></trkpt><trkpt lat="42.9639433" lon="12.8505583"><ele>622.0</ele><time>2026-04-26T08:39:12.23Z</time></trkpt><trkpt lat="42.963825" lon="12.8507433"><ele>622.0</ele><time>2026-04-26T08:39:13.233Z</time></trkpt><trkpt lat="42.9636783" lon="12.8508967"><ele>622.0</ele><time>2026-04-26T08:39:14.233Z</time></trkpt><trkpt lat="42.9635267" lon="12.8510367"><ele>622.0</ele><time>2026-04-26T08:39:15.233Z</time></trkpt><trkpt lat="42.9633783" lon="12.8511467"><ele>620.0</ele><time>2026-04-26T08:39:16.229Z</time></trkpt><trkpt lat="42.9632317" lon="12.8512367"><ele>618.0</ele><time>2026-04-26T08:39:17.234Z</time></trkpt><trkpt lat="42.9630867" lon="12.851305"><ele>616.0</ele><time>2026-04-26T08:39:18.232Z</time></trkpt><trkpt lat="42.9629583" lon="12.85138"><ele>616.0</ele><time>2026-04-26T08:39:19.234Z</time></trkpt><trkpt lat="42.962855" lon="12.85148"><ele>616.0</ele><time>2026-04-26T08:39:20.234Z</time></trkpt><trkpt lat="42.9628083" lon="12.8516167"><ele>616.0</ele><time>2026-04-26T08:39:21.234Z</time></trkpt><trkpt lat="42.9628283" lon="12.851775"><ele>616.0</ele><time>2026-04-26T08:39:22.238Z</time></trkpt><trkpt lat="42.96289" lon="12.85196"><ele>618.0</ele><time>2026-04-26T08:39:23.231Z</time></trkpt><trkpt lat="42.9629733" lon="12.8521683"><ele>620.0</ele><time>2026-04-26T08:39:24.233Z</time></trkpt><trkpt lat="42.96304" lon="12.85237"><ele>622.0</ele><time>2026-04-26T08:39:25.232Z</time></trkpt><trkpt lat="42.9630767" lon="12.8525683"><ele>619.75</ele><time>2026-04-26T08:39:26.232Z</time></trkpt><trkpt lat="42.9630783" lon="12.8527567"><ele>617.5</ele><time>2026-04-26T08:39:27.232Z</time></trkpt><trkpt lat="42.9630433" lon="12.852935"><ele>615.25</ele><time>2026-04-26T08:39:28.231Z</time></trkpt><trkpt lat="42.962985" lon="12.8531217"><ele>613.0</ele><time>2026-04-26T08:39:29.229Z</time></trkpt><trkpt lat="42.9629217" lon="12.8533183"><ele>619.3333333333334</ele><time>2026-04-26T08:39:30.231Z</time></trkpt><trkpt lat="42.962855" lon="12.8535233"><ele>625.6666666666666</ele><time>2026-04-26T08:39:31.233Z</time></trkpt><trkpt lat="42.962785" lon="12.85373"><ele>632.0</ele><time>2026-04-26T08:39:32.232Z</time></trkpt><trkpt lat="42.9627083" lon="12.8539267"><ele>632.0</ele><time>2026-04-26T08:39:33.232Z</time></trkpt><trkpt lat="42.9626117" lon="12.8540983"><ele>632.0</ele><time>2026-04-26T08:39:34.232Z</time></trkpt><trkpt lat="42.9624983" lon="12.854255"><ele>632.0</ele><time>2026-04-26T08:39:35.234Z</time></trkpt><trkpt lat="42.962375" lon="12.8544033"><ele>632.0</ele><time>2026-04-26T08:39:36.23Z</time></trkpt><trkpt lat="42.9622483" lon="12.8545583"><ele>632.0</ele><time>2026-04-26T08:39:37.233Z</time></trkpt><trkpt lat="42.962125" lon="12.85472"><ele>632.0</ele><time>2026-04-26T08:39:38.231Z</time></trkpt><trkpt lat="42.9620067" lon="12.8548867"><ele>632.0</ele><time>2026-04-26T08:39:39.232Z</time></trkpt><trkpt lat="42.9618883" lon="12.855055"><ele>632.0</ele><time>2026-04-26T08:39:40.231Z</time></trkpt><trkpt lat="42.9617633" lon="12.85522"><ele>632.0</ele><time>2026-04-26T08:39:41.232Z</time></trkpt><trkpt lat="42.9616283" lon="12.8553717"><ele>631.0</ele><time>2026-04-26T08:39:42.228Z</time></trkpt><trkpt lat="42.961485" lon="12.8555083"><ele>630.0</ele><time>2026-04-26T08:39:43.234Z</time></trkpt><trkpt lat="42.9613467" lon="12.8556367"><ele>629.0</ele><time>2026-04-26T08:39:44.23Z</time></trkpt><trkpt lat="42.96121" lon="12.8557567"><ele>629.0</ele><time>2026-04-26T08:39:45.233Z</time></trkpt><trkpt lat="42.961075" lon="12.8558833"><ele>629.0</ele><time>2026-04-26T08:39:46.23Z</time></trkpt><trkpt lat="42.9609467" lon="12.8560183"><ele>629.0</ele><time>2026-04-26T08:39:47.232Z</time></trkpt><trkpt lat="42.9608267" lon="12.8561667"><ele>626.6666666666666</ele><time>2026-04-26T08:39:48.234Z</time></trkpt><trkpt lat="42.9607233" lon="12.8563233"><ele>624.3333333333334</ele><time>2026-04-26T08:39:49.232Z</time></trkpt><trkpt lat="42.9606267" lon="12.8564833"><ele>622.0</ele><time>2026-04-26T08:39:50.231Z</time></trkpt><trkpt lat="42.9605333" lon="12.85665"><ele>624.3333333333334</ele><time>2026-04-26T08:39:51.233Z</time></trkpt><trkpt lat="42.9604367" lon="12.8568133"><ele>626.6666666666666</ele><time>2026-04-26T08:39:52.229Z</time></trkpt><trkpt lat="42.9603433" lon="12.8569733"><ele>629.0</ele><time>2026-04-26T08:39:53.232Z</time></trkpt><trkpt lat="42.96025" lon="12.857135"><ele>629.0</ele><time>2026-04-26T08:39:54.232Z</time></trkpt><trkpt lat="42.960155" lon="12.8572983"><ele>629.0</ele><time>2026-04-26T08:39:55.233Z</time></trkpt><trkpt lat="42.9600617" lon="12.8574617"><ele>629.0</ele><time>2026-04-26T08:39:56.233Z</time></trkpt><trkpt lat="42.9599717" lon="12.85762"><ele>631.25</ele><time>2026-04-26T08:39:57.233Z</time></trkpt><trkpt lat="42.9598817" lon="12.8577767"><ele>633.5</ele><time>2026-04-26T08:39:58.231Z</time></trkpt><trkpt lat="42.959795" lon="12.85793"><ele>635.75</ele><time>2026-04-26T08:39:59.232Z</time></trkpt><trkpt lat="42.959715" lon="12.8580767"><ele>638.0</ele><time>2026-04-26T08:40:00.232Z</time></trkpt><trkpt lat="42.9596383" lon="12.8582133"><ele>638.0</ele><time>2026-04-26T08:40:01.23Z</time></trkpt><trkpt lat="42.9595683" lon="12.8583367"><ele>638.0</ele><time>2026-04-26T08:40:02.232Z</time></trkpt><trkpt lat="42.9595033" lon="12.8584533"><ele>638.0</ele><time>2026-04-26T08:40:03.231Z</time></trkpt><trkpt lat="42.9594383" lon="12.8585717"><ele>638.0</ele><time>2026-04-26T08:40:04.229Z</time></trkpt><trkpt lat="42.95938" lon="12.8586867"><ele>638.0</ele><time>2026-04-26T08:40:05.232Z</time></trkpt><trkpt lat="42.95934" lon="12.8587983"><ele>642.0</ele><time>2026-04-26T08:40:06.229Z</time></trkpt><trkpt lat="42.95931" lon="12.8589067"><ele>646.0</ele><time>2026-04-26T08:40:07.231Z</time></trkpt><trkpt lat="42.9592883" lon="12.8590167"><ele>650.0</ele><time>2026-04-26T08:40:08.232Z</time></trkpt><trkpt lat="42.9592667" lon="12.85913"><ele>654.0</ele><time>2026-04-26T08:40:09.235Z</time></trkpt><trkpt lat="42.959245" lon="12.8592467"><ele>658.0</ele><time>2026-04-26T08:40:10.232Z</time></trkpt><trkpt lat="42.9592267" lon="12.8593517"><ele>662.0</ele><time>2026-04-26T08:40:11.232Z</time></trkpt><trkpt lat="42.9592167" lon="12.859445"><ele>662.0</ele><time>2026-04-26T08:40:12.231Z</time></trkpt><trkpt lat="42.9592033" lon="12.8595833"><ele>662.0</ele><time>2026-04-26T08:40:14.235Z</time></trkpt><trkpt lat="42.959155" lon="12.8597033"><ele>662.0</ele><time>2026-04-26T08:40:16.23Z</time></trkpt><trkpt lat="42.959075" lon="12.859765"><ele>662.0</ele><time>2026-04-26T08:40:18.231Z</time></trkpt><trkpt lat="42.9589883" lon="12.8598117"><ele>662.0</ele><time>2026-04-26T08:40:20.234Z</time></trkpt><trkpt lat="42.9588783" lon="12.859875"><ele>657.5</ele><time>2026-04-26T08:40:22.232Z</time></trkpt><trkpt lat="42.9588183" lon="12.859915"><ele>653.0</ele><time>2026-04-26T08:40:23.232Z</time></trkpt><trkpt lat="42.9587567" lon="12.859965"><ele>648.5</ele><time>2026-04-26T08:40:24.231Z</time></trkpt><trkpt lat="42.958695" lon="12.860015"><ele>644.0</ele><time>2026-04-26T08:40:25.232Z</time></trkpt><trkpt lat="42.9586317" lon="12.860075"><ele>639.5</ele><time>2026-04-26T08:40:26.234Z</time></trkpt><trkpt lat="42.958565" lon="12.8601433"><ele>635.0</ele><time>2026-04-26T08:40:27.233Z</time></trkpt><trkpt lat="42.9585" lon="12.8602117"><ele>635.0</ele><time>2026-04-26T08:40:28.231Z</time></trkpt><trkpt lat="42.958435" lon="12.860275"><ele>635.0</ele><time>2026-04-26T08:40:29.231Z</time></trkpt><trkpt lat="42.9583683" lon="12.86033"><ele>635.0</ele><time>2026-04-26T08:40:30.233Z</time></trkpt><trkpt lat="42.9582983" lon="12.860385"><ele>635.0</ele><time>2026-04-26T08:40:31.233Z</time></trkpt><trkpt lat="42.9582233" lon="12.8604333"><ele>635.0</ele><time>2026-04-26T08:40:32.236Z</time></trkpt><trkpt lat="42.9581517" lon="12.8604733"><ele>635.0</ele><time>2026-04-26T08:40:33.235Z</time></trkpt><trkpt lat="42.95808" lon="12.8605067"><ele>634.5714285714286</ele><time>2026-04-26T08:40:34.23Z</time></trkpt><trkpt lat="42.9580067" lon="12.8605383"><ele>634.1428571428571</ele><time>2026-04-26T08:40:35.234Z</time></trkpt><trkpt lat="42.9579317" lon="12.860575"><ele>633.7142857142858</ele><time>2026-04-26T08:40:36.234Z</time></trkpt><trkpt lat="42.9578617" lon="12.8606167"><ele>633.2857142857142</ele><time>2026-04-26T08:40:37.231Z</time></trkpt><trkpt lat="42.9577917" lon="12.860655"><ele>632.8571428571429</ele><time>2026-04-26T08:40:38.232Z</time></trkpt><trkpt lat="42.9577267" lon="12.8606867"><ele>632.4285714285714</ele><time>2026-04-26T08:40:39.23Z</time></trkpt><trkpt lat="42.957665" lon="12.86072"><ele>632.0</ele><time>2026-04-26T08:40:40.231Z</time></trkpt><trkpt lat="42.9575533" lon="12.8607817"><ele>632.6666666666666</ele><time>2026-04-26T08:40:42.235Z</time></trkpt><trkpt lat="42.9574483" lon="12.8608317"><ele>633.3333333333333</ele><time>2026-04-26T08:40:44.231Z</time></trkpt><trkpt lat="42.9573867" lon="12.86087"><ele>634.0</ele><time>2026-04-26T08:40:45.239Z</time></trkpt><trkpt lat="42.957315" lon="12.8609133"><ele>634.6666666666666</ele><time>2026-04-26T08:40:46.233Z</time></trkpt><trkpt lat="42.957235" lon="12.8609567"><ele>635.3333333333334</ele><time>2026-04-26T08:40:47.233Z</time></trkpt><trkpt lat="42.9571533" lon="12.8609917"><ele>636.0</ele><time>2026-04-26T08:40:48.233Z</time></trkpt><trkpt lat="42.9570817" lon="12.861015"><ele>636.0</ele><time>2026-04-26T08:40:49.233Z</time></trkpt><trkpt lat="42.95699" lon="12.8610567"><ele>636.0</ele><time>2026-04-26T08:40:51.234Z</time></trkpt><trkpt lat="42.9569067" lon="12.8610883"><ele>636.0</ele><time>2026-04-26T08:40:53.232Z</time></trkpt><trkpt lat="42.9568383" lon="12.86109"><ele>636.0</ele><time>2026-04-26T08:40:55.235Z</time></trkpt><trkpt lat="42.9567367" lon="12.8610983"><ele>636.0</ele><time>2026-04-26T08:40:57.234Z</time></trkpt><trkpt lat="42.9566733" lon="12.8610883"><ele>636.0</ele><time>2026-04-26T08:40:58.233Z</time></trkpt><trkpt lat="42.95661" lon="12.8610717"><ele>636.0</ele><time>2026-04-26T08:40:59.231Z</time></trkpt><trkpt lat="42.9565383" lon="12.861055"><ele>636.0</ele><time>2026-04-26T08:41:00.232Z</time></trkpt><trkpt lat="42.9564467" lon="12.8610417"><ele>636.0</ele><time>2026-04-26T08:41:01.23Z</time></trkpt><trkpt lat="42.9563333" lon="12.8610133"><ele>636.0</ele><time>2026-04-26T08:41:02.231Z</time></trkpt><trkpt lat="42.9562067" lon="12.860985"><ele>636.0</ele><time>2026-04-26T08:41:03.236Z</time></trkpt><trkpt lat="42.95608" lon="12.860975"><ele>636.0</ele><time>2026-04-26T08:41:04.232Z</time></trkpt><trkpt lat="42.9559633" lon="12.8609917"><ele>636.0</ele><time>2026-04-26T08:41:05.231Z</time></trkpt><trkpt lat="42.95585" lon="12.86104"><ele>636.0</ele><time>2026-04-26T08:41:06.229Z</time></trkpt><trkpt lat="42.955755" lon="12.86113"><ele>636.0</ele><time>2026-04-26T08:41:07.234Z</time></trkpt><trkpt lat="42.955675" lon="12.8612517"><ele>636.0</ele><time>2026-04-26T08:41:08.234Z</time></trkpt><trkpt lat="42.955605" lon="12.8613967"><ele>636.0</ele><time>2026-04-26T08:41:09.231Z</time></trkpt><trkpt lat="42.9555417" lon="12.8615383"><ele>636.0</ele><time>2026-04-26T08:41:10.233Z</time></trkpt><trkpt lat="42.9554783" lon="12.8616833"><ele>636.0</ele><time>2026-04-26T08:41:11.232Z</time></trkpt><trkpt lat="42.955415" lon="12.86182"><ele>636.0</ele><time>2026-04-26T08:41:12.231Z</time></trkpt><trkpt lat="42.9553483" lon="12.861945"><ele>636.0</ele><time>2026-04-26T08:41:13.23Z</time></trkpt><trkpt lat="42.9552767" lon="12.862055"><ele>636.0</ele><time>2026-04-26T08:41:14.23Z</time></trkpt><trkpt lat="42.9551867" lon="12.8621367"><ele>636.0</ele><time>2026-04-26T08:41:15.23Z</time></trkpt><trkpt lat="42.95509" lon="12.8621883"><ele>636.0</ele><time>2026-04-26T08:41:16.23Z</time></trkpt><trkpt lat="42.9549867" lon="12.86221"><ele>636.2</ele><time>2026-04-26T08:41:17.233Z</time></trkpt><trkpt lat="42.954875" lon="12.8622017"><ele>636.4000000000001</ele><time>2026-04-26T08:41:18.232Z</time></trkpt><trkpt lat="42.954765" lon="12.86217"><ele>636.6</ele><time>2026-04-26T08:41:19.232Z</time></trkpt><trkpt lat="42.9546583" lon="12.8621267"><ele>636.8000000000001</ele><time>2026-04-26T08:41:20.233Z</time></trkpt><trkpt lat="42.9545483" lon="12.86209"><ele>637.0</ele><time>2026-04-26T08:41:21.233Z</time></trkpt><trkpt lat="42.9544383" lon="12.862055"><ele>637.0</ele><time>2026-04-26T08:41:22.231Z</time></trkpt><trkpt lat="42.9543283" lon="12.862025"><ele>637.0</ele><time>2026-04-26T08:41:23.231Z</time></trkpt><trkpt lat="42.9542183" lon="12.8620033"><ele>637.0</ele><time>2026-04-26T08:41:24.231Z</time></trkpt><trkpt lat="42.954105" lon="12.8619933"><ele>637.0</ele><time>2026-04-26T08:41:25.233Z</time></trkpt><trkpt lat="42.9539917" lon="12.862"><ele>637.2</ele><time>2026-04-26T08:41:26.232Z</time></trkpt><trkpt lat="42.95388" lon="12.8620183"><ele>637.4000000000001</ele><time>2026-04-26T08:41:27.233Z</time></trkpt><trkpt lat="42.9537783" lon="12.8620433"><ele>637.5999999999999</ele><time>2026-04-26T08:41:28.229Z</time></trkpt><trkpt lat="42.95368" lon="12.8620833"><ele>637.8</ele><time>2026-04-26T08:41:29.232Z</time></trkpt><trkpt lat="42.9535817" lon="12.862125"><ele>638.0</ele><time>2026-04-26T08:41:30.231Z</time></trkpt><trkpt lat="42.9534817" lon="12.8621683"><ele>638.0</ele><time>2026-04-26T08:41:31.234Z</time></trkpt><trkpt lat="42.9533783" lon="12.8622117"><ele>638.0</ele><time>2026-04-26T08:41:32.232Z</time></trkpt><trkpt lat="42.9532767" lon="12.86225"><ele>638.0</ele><time>2026-04-26T08:41:33.232Z</time></trkpt><trkpt lat="42.9531767" lon="12.86229"><ele>638.0</ele><time>2026-04-26T08:41:34.23Z</time></trkpt><trkpt lat="42.953075" lon="12.8623283"><ele>638.0</ele><time>2026-04-26T08:41:35.232Z</time></trkpt><trkpt lat="42.9529717" lon="12.862365"><ele>638.4</ele><time>2026-04-26T08:41:36.234Z</time></trkpt><trkpt lat="42.9528667" lon="12.8624"><ele>638.8</ele><time>2026-04-26T08:41:37.235Z</time></trkpt><trkpt lat="42.9527617" lon="12.8624383"><ele>639.2</ele><time>2026-04-26T08:41:38.232Z</time></trkpt><trkpt lat="42.9526567" lon="12.8624817"><ele>639.6</ele><time>2026-04-26T08:41:39.235Z</time></trkpt><trkpt lat="42.9525517" lon="12.8625233"><ele>640.0</ele><time>2026-04-26T08:41:40.23Z</time></trkpt><trkpt lat="42.9524483" lon="12.862565"><ele>640.0</ele><time>2026-04-26T08:41:41.232Z</time></trkpt><trkpt lat="42.952345" lon="12.86261"><ele>640.0</ele><time>2026-04-26T08:41:42.232Z</time></trkpt><trkpt lat="42.952245" lon="12.8626517"><ele>640.0</ele><time>2026-04-26T08:41:43.232Z</time></trkpt><trkpt lat="42.9521483" lon="12.8626883"><ele>640.0</ele><time>2026-04-26T08:41:44.231Z</time></trkpt><trkpt lat="42.95205" lon="12.862725"><ele>640.0</ele><time>2026-04-26T08:41:45.233Z</time></trkpt><trkpt lat="42.9519517" lon="12.8627617"><ele>639.8</ele><time>2026-04-26T08:41:46.232Z</time></trkpt><trkpt lat="42.9518533" lon="12.8628033"><ele>639.6</ele><time>2026-04-26T08:41:47.232Z</time></trkpt><trkpt lat="42.9517583" lon="12.8628367"><ele>639.4</ele><time>2026-04-26T08:41:48.231Z</time></trkpt><trkpt lat="42.9516567" lon="12.8628717"><ele>639.2</ele><time>2026-04-26T08:41:49.231Z</time></trkpt><trkpt lat="42.9515517" lon="12.8629117"><ele>639.0</ele><time>2026-04-26T08:41:50.231Z</time></trkpt><trkpt lat="42.9514433" lon="12.8629583"><ele>639.0</ele><time>2026-04-26T08:41:51.234Z</time></trkpt><trkpt lat="42.9513333" lon="12.863005"><ele>639.0</ele><time>2026-04-26T08:41:52.232Z</time></trkpt><trkpt lat="42.951225" lon="12.863055"><ele>639.0</ele><time>2026-04-26T08:41:53.232Z</time></trkpt><trkpt lat="42.951115" lon="12.8631083"><ele>639.0</ele><time>2026-04-26T08:41:54.232Z</time></trkpt><trkpt lat="42.9509917" lon="12.863185"><ele>639.3333333333334</ele><time>2026-04-26T08:41:55.232Z</time></trkpt><trkpt lat="42.9508583" lon="12.8632883"><ele>639.6666666666667</ele><time>2026-04-26T08:41:56.232Z</time></trkpt><trkpt lat="42.9507217" lon="12.863415"><ele>640.0</ele><time>2026-04-26T08:41:57.233Z</time></trkpt><trkpt lat="42.950585" lon="12.86357"><ele>640.0</ele><time>2026-04-26T08:41:58.233Z</time></trkpt><trkpt lat="42.9504483" lon="12.863735"><ele>640.0</ele><time>2026-04-26T08:41:59.234Z</time></trkpt><trkpt lat="42.95031" lon="12.86389"><ele>640.0</ele><time>2026-04-26T08:42:00.233Z</time></trkpt><trkpt lat="42.950155" lon="12.86402"><ele>642.0</ele><time>2026-04-26T08:42:01.23Z</time></trkpt><trkpt lat="42.9499833" lon="12.8640983"><ele>644.0</ele><time>2026-04-26T08:42:02.233Z</time></trkpt><trkpt lat="42.9498033" lon="12.8641433"><ele>646.0</ele><time>2026-04-26T08:42:03.232Z</time></trkpt><trkpt lat="42.9496117" lon="12.86418"><ele>646.0</ele><time>2026-04-26T08:42:04.233Z</time></trkpt><trkpt lat="42.949415" lon="12.86422"><ele>646.0</ele><time>2026-04-26T08:42:05.235Z</time></trkpt><trkpt lat="42.94921" lon="12.8642517"><ele>646.0</ele><time>2026-04-26T08:42:06.231Z</time></trkpt><trkpt lat="42.949" lon="12.864285"><ele>645.3333333333334</ele><time>2026-04-26T08:42:07.234Z</time></trkpt><trkpt lat="42.9487883" lon="12.864325"><ele>644.6666666666666</ele><time>2026-04-26T08:42:08.237Z</time></trkpt><trkpt lat="42.9485833" lon="12.8643683"><ele>644.0</ele><time>2026-04-26T08:42:09.235Z</time></trkpt><trkpt lat="42.9483833" lon="12.8644017"><ele>644.6666666666666</ele><time>2026-04-26T08:42:10.233Z</time></trkpt><trkpt lat="42.948185" lon="12.8644217"><ele>645.3333333333334</ele><time>2026-04-26T08:42:11.236Z</time></trkpt><trkpt lat="42.9479833" lon="12.8644067"><ele>646.0</ele><time>2026-04-26T08:42:12.231Z</time></trkpt><trkpt lat="42.947785" lon="12.8643483"><ele>648.0</ele><time>2026-04-26T08:42:13.231Z</time></trkpt><trkpt lat="42.9475867" lon="12.86427"><ele>650.0</ele><time>2026-04-26T08:42:14.234Z</time></trkpt><trkpt lat="42.9473867" lon="12.8641817"><ele>652.0</ele><time>2026-04-26T08:42:15.237Z</time></trkpt><trkpt lat="42.9471783" lon="12.8640933"><ele>652.0</ele><time>2026-04-26T08:42:16.232Z</time></trkpt><trkpt lat="42.946965" lon="12.8640067"><ele>652.0</ele><time>2026-04-26T08:42:17.231Z</time></trkpt><trkpt lat="42.94675" lon="12.863915"><ele>652.0</ele><time>2026-04-26T08:42:18.231Z</time></trkpt><trkpt lat="42.9465367" lon="12.8638267"><ele>651.6666666666667</ele><time>2026-04-26T08:42:19.236Z</time></trkpt><trkpt lat="42.946325" lon="12.8637483"><ele>651.3333333333334</ele><time>2026-04-26T08:42:20.235Z</time></trkpt><trkpt lat="42.9461067" lon="12.8636933"><ele>651.0</ele><time>2026-04-26T08:42:21.235Z</time></trkpt><trkpt lat="42.9458817" lon="12.8636567"><ele>650.0</ele><time>2026-04-26T08:42:22.233Z</time></trkpt><trkpt lat="42.9456433" lon="12.863635"><ele>649.0</ele><time>2026-04-26T08:42:23.234Z</time></trkpt><trkpt lat="42.9454" lon="12.8636117"><ele>649.0</ele><time>2026-04-26T08:42:24.234Z</time></trkpt><trkpt lat="42.9451533" lon="12.8635883"><ele>649.0</ele><time>2026-04-26T08:42:25.233Z</time></trkpt><trkpt lat="42.9449033" lon="12.86356"><ele>650.0</ele><time>2026-04-26T08:42:26.236Z</time></trkpt><trkpt lat="42.9446517" lon="12.8635317"><ele>651.0</ele><time>2026-04-26T08:42:27.235Z</time></trkpt><trkpt lat="42.9443983" lon="12.863505"><ele>651.0</ele><time>2026-04-26T08:42:28.234Z</time></trkpt><trkpt lat="42.9441483" lon="12.86348"><ele>651.0</ele><time>2026-04-26T08:42:29.233Z</time></trkpt><trkpt lat="42.9439" lon="12.863455"><ele>660.5</ele><time>2026-04-26T08:42:30.233Z</time></trkpt><trkpt lat="42.9436517" lon="12.8634283"><ele>670.0</ele><time>2026-04-26T08:42:31.237Z</time></trkpt><trkpt lat="42.9434033" lon="12.8634017"><ele>673.0</ele><time>2026-04-26T08:42:32.233Z</time></trkpt><trkpt lat="42.9431567" lon="12.8633767"><ele>676.0</ele><time>2026-04-26T08:42:33.237Z</time></trkpt><trkpt lat="42.942915" lon="12.863355"><ele>676.0</ele><time>2026-04-26T08:42:34.233Z</time></trkpt><trkpt lat="42.9426833" lon="12.8633483"><ele>676.0</ele><time>2026-04-26T08:42:35.231Z</time></trkpt><trkpt lat="42.9424633" lon="12.86336"><ele>675.6666666666667</ele><time>2026-04-26T08:42:36.234Z</time></trkpt><trkpt lat="42.94226" lon="12.8633883"><ele>675.3333333333334</ele><time>2026-04-26T08:42:37.234Z</time></trkpt><trkpt lat="42.94207" lon="12.8634067"><ele>675.0</ele><time>2026-04-26T08:42:38.239Z</time></trkpt><trkpt lat="42.9418867" lon="12.863395"><ele>672.0</ele><time>2026-04-26T08:42:39.231Z</time></trkpt><trkpt lat="42.9417133" lon="12.863335"><ele>669.0</ele><time>2026-04-26T08:42:40.238Z</time></trkpt><trkpt lat="42.94156" lon="12.8632083"><ele>666.0</ele><time>2026-04-26T08:42:41.233Z</time></trkpt><trkpt lat="42.9414217" lon="12.8630283"><ele>666.0</ele><time>2026-04-26T08:42:42.234Z</time></trkpt><trkpt lat="42.94128" lon="12.8628367"><ele>666.0</ele><time>2026-04-26T08:42:43.232Z</time></trkpt><trkpt lat="42.9411133" lon="12.86268"><ele>666.0</ele><time>2026-04-26T08:42:44.233Z</time></trkpt><trkpt lat="42.940925" lon="12.86256"><ele>670.0</ele><time>2026-04-26T08:42:45.235Z</time></trkpt><trkpt lat="42.940715" lon="12.8624833"><ele>674.0</ele><time>2026-04-26T08:42:46.242Z</time></trkpt><trkpt lat="42.9404917" lon="12.862425"><ele>678.0</ele><time>2026-04-26T08:42:47.234Z</time></trkpt><trkpt lat="42.9402733" lon="12.8623617"><ele>678.0</ele><time>2026-04-26T08:42:48.234Z</time></trkpt><trkpt lat="42.9400583" lon="12.8622983"><ele>678.0</ele><time>2026-04-26T08:42:49.236Z</time></trkpt><trkpt lat="42.9398417" lon="12.86224"><ele>678.0</ele><time>2026-04-26T08:42:50.232Z</time></trkpt><trkpt lat="42.9396283" lon="12.8621783"><ele>675.3333333333334</ele><time>2026-04-26T08:42:51.233Z</time></trkpt><trkpt lat="42.93941" lon="12.8621183"><ele>672.6666666666667</ele><time>2026-04-26T08:42:52.236Z</time></trkpt><trkpt lat="42.9391883" lon="12.8620617"><ele>670.0</ele><time>2026-04-26T08:42:53.231Z</time></trkpt><trkpt lat="42.93897" lon="12.862005"><ele>668.0</ele><time>2026-04-26T08:42:54.235Z</time></trkpt><trkpt lat="42.9387483" lon="12.8619517"><ele>666.0</ele><time>2026-04-26T08:42:55.237Z</time></trkpt><trkpt lat="42.93853" lon="12.8618867"><ele>664.0</ele><time>2026-04-26T08:42:56.233Z</time></trkpt><trkpt lat="42.9383117" lon="12.8618233"><ele>669.0</ele><time>2026-04-26T08:42:57.232Z</time></trkpt><trkpt lat="42.938095" lon="12.8617633"><ele>674.0</ele><time>2026-04-26T08:42:58.234Z</time></trkpt><trkpt lat="42.9378733" lon="12.8617117"><ele>679.0</ele><time>2026-04-26T08:42:59.234Z</time></trkpt><trkpt lat="42.9376533" lon="12.8616617"><ele>676.0</ele><time>2026-04-26T08:43:00.247Z</time></trkpt><trkpt lat="42.9374283" lon="12.8616333"><ele>673.0</ele><time>2026-04-26T08:43:01.236Z</time></trkpt><trkpt lat="42.9372033" lon="12.86162"><ele>673.0</ele><time>2026-04-26T08:43:02.234Z</time></trkpt><trkpt lat="42.93698" lon="12.86163"><ele>673.0</ele><time>2026-04-26T08:43:03.233Z</time></trkpt><trkpt lat="42.9367583" lon="12.8616383"><ele>673.0</ele><time>2026-04-26T08:43:04.232Z</time></trkpt><trkpt lat="42.9365333" lon="12.861645"><ele>674.6666666666667</ele><time>2026-04-26T08:43:05.234Z</time></trkpt><trkpt lat="42.93631" lon="12.8616517"><ele>676.3333333333334</ele><time>2026-04-26T08:43:06.235Z</time></trkpt><trkpt lat="42.9360867" lon="12.8616583"><ele>678.0</ele><time>2026-04-26T08:43:07.232Z</time></trkpt><trkpt lat="42.9358633" lon="12.8616783"><ele>680.0</ele><time>2026-04-26T08:43:08.234Z</time></trkpt><trkpt lat="42.9356417" lon="12.86172"><ele>682.0</ele><time>2026-04-26T08:43:09.235Z</time></trkpt><trkpt lat="42.9354167" lon="12.861795"><ele>677.0</ele><time>2026-04-26T08:43:10.233Z</time></trkpt><trkpt lat="42.93519" lon="12.8618783"><ele>672.0</ele><time>2026-04-26T08:43:11.233Z</time></trkpt><trkpt lat="42.9349583" lon="12.861965"><ele>672.0</ele><time>2026-04-26T08:43:12.233Z</time></trkpt><trkpt lat="42.9347233" lon="12.8620583"><ele>672.0</ele><time>2026-04-26T08:43:13.233Z</time></trkpt><trkpt lat="42.9344883" lon="12.8621683"><ele>672.0</ele><time>2026-04-26T08:43:14.228Z</time></trkpt><trkpt lat="42.934255" lon="12.8622933"><ele>672.0</ele><time>2026-04-26T08:43:15.232Z</time></trkpt><trkpt lat="42.9340233" lon="12.86242"><ele>672.5</ele><time>2026-04-26T08:43:16.241Z</time></trkpt><trkpt lat="42.9337917" lon="12.8625433"><ele>673.0</ele><time>2026-04-26T08:43:17.234Z</time></trkpt><trkpt lat="42.93356" lon="12.862665"><ele>672.0</ele><time>2026-04-26T08:43:18.233Z</time></trkpt><trkpt lat="42.93333" lon="12.8627867"><ele>671.0</ele><time>2026-04-26T08:43:19.229Z</time></trkpt><trkpt lat="42.9330983" lon="12.8629133"><ele>671.0</ele><time>2026-04-26T08:43:20.231Z</time></trkpt><trkpt lat="42.9328683" lon="12.8630433"><ele>671.0</ele><time>2026-04-26T08:43:21.233Z</time></trkpt><trkpt lat="42.9326417" lon="12.86318"><ele>669.5</ele><time>2026-04-26T08:43:22.231Z</time></trkpt><trkpt lat="42.9324183" lon="12.8633217"><ele>668.0</ele><time>2026-04-26T08:43:23.232Z</time></trkpt><trkpt lat="42.9322" lon="12.8634783"><ele>668.0</ele><time>2026-04-26T08:43:24.237Z</time></trkpt><trkpt lat="42.9319833" lon="12.8636467"><ele>668.0</ele><time>2026-04-26T08:43:25.233Z</time></trkpt><trkpt lat="42.9317667" lon="12.8638217"><ele>672.5</ele><time>2026-04-26T08:43:26.235Z</time></trkpt><trkpt lat="42.93155" lon="12.8639933"><ele>677.0</ele><time>2026-04-26T08:43:27.234Z</time></trkpt><trkpt lat="42.9313317" lon="12.864165"><ele>673.5</ele><time>2026-04-26T08:43:28.234Z</time></trkpt><trkpt lat="42.9311167" lon="12.8643333"><ele>670.0</ele><time>2026-04-26T08:43:29.232Z</time></trkpt><trkpt lat="42.9309083" lon="12.86451"><ele>672.5</ele><time>2026-04-26T08:43:30.23Z</time></trkpt><trkpt lat="42.9307133" lon="12.86471"><ele>675.0</ele><time>2026-04-26T08:43:31.239Z</time></trkpt><trkpt lat="42.9305333" lon="12.8649283"><ele>674.0</ele><time>2026-04-26T08:43:32.227Z</time></trkpt><trkpt lat="42.9303633" lon="12.8651683"><ele>673.0</ele><time>2026-04-26T08:43:33.23Z</time></trkpt><trkpt lat="42.9302083" lon="12.86542"><ele>673.0</ele><time>2026-04-26T08:43:34.227Z</time></trkpt><trkpt lat="42.9300683" lon="12.8656917"><ele>673.0</ele><time>2026-04-26T08:43:35.232Z</time></trkpt><trkpt lat="42.9299517" lon="12.8659767"><ele>673.0</ele><time>2026-04-26T08:43:36.234Z</time></trkpt><trkpt lat="42.929855" lon="12.8662717"><ele>673.0</ele><time>2026-04-26T08:43:37.231Z</time></trkpt><trkpt lat="42.9297667" lon="12.8665733"><ele>674.0</ele><time>2026-04-26T08:43:38.233Z</time></trkpt><trkpt lat="42.9296833" lon="12.866875"><ele>675.0</ele><time>2026-04-26T08:43:39.232Z</time></trkpt><trkpt lat="42.9296033" lon="12.8671833"><ele>675.0</ele><time>2026-04-26T08:43:40.246Z</time></trkpt><trkpt lat="42.9295217" lon="12.86749"><ele>675.0</ele><time>2026-04-26T08:43:41.231Z</time></trkpt><trkpt lat="42.9294433" lon="12.8677933"><ele>678.5</ele><time>2026-04-26T08:43:42.232Z</time></trkpt><trkpt lat="42.9293667" lon="12.8680967"><ele>682.0</ele><time>2026-04-26T08:43:43.236Z</time></trkpt><trkpt lat="42.92929" lon="12.8683967"><ele>679.0</ele><time>2026-04-26T08:43:44.234Z</time></trkpt><trkpt lat="42.9292067" lon="12.8686967"><ele>676.0</ele><time>2026-04-26T08:43:45.236Z</time></trkpt><trkpt lat="42.9291233" lon="12.868995"><ele>677.3333333333334</ele><time>2026-04-26T08:43:46.233Z</time></trkpt><trkpt lat="42.929045" lon="12.86928"><ele>678.6666666666666</ele><time>2026-04-26T08:43:47.235Z</time></trkpt><trkpt lat="42.928965" lon="12.86955"><ele>680.0</ele><time>2026-04-26T08:43:48.236Z</time></trkpt><trkpt lat="42.92888" lon="12.8698183"><ele>680.0</ele><time>2026-04-26T08:43:49.235Z</time></trkpt><trkpt lat="42.9287817" lon="12.8700833"><ele>680.0</ele><time>2026-04-26T08:43:50.231Z</time></trkpt><trkpt lat="42.9286683" lon="12.870335"><ele>680.0</ele><time>2026-04-26T08:43:51.233Z</time></trkpt><trkpt lat="42.9285367" lon="12.8705717"><ele>679.5</ele><time>2026-04-26T08:43:52.233Z</time></trkpt><trkpt lat="42.9283833" lon="12.8707933"><ele>679.0</ele><time>2026-04-26T08:43:53.235Z</time></trkpt><trkpt lat="42.928205" lon="12.8709933"><ele>687.0</ele><time>2026-04-26T08:43:54.233Z</time></trkpt><trkpt lat="42.92801" lon="12.8711683"><ele>695.0</ele><time>2026-04-26T08:43:55.238Z</time></trkpt><trkpt lat="42.9277983" lon="12.871325"><ele>695.0</ele><time>2026-04-26T08:43:56.234Z</time></trkpt><trkpt lat="42.9275783" lon="12.871465"><ele>695.0</ele><time>2026-04-26T08:43:57.232Z</time></trkpt><trkpt lat="42.9273533" lon="12.8715967"><ele>691.5</ele><time>2026-04-26T08:43:58.233Z</time></trkpt><trkpt lat="42.9271267" lon="12.87173"><ele>688.0</ele><time>2026-04-26T08:43:59.232Z</time></trkpt><trkpt lat="42.926905" lon="12.871865"><ele>695.5</ele><time>2026-04-26T08:44:00.235Z</time></trkpt><trkpt lat="42.9266867" lon="12.872005"><ele>703.0</ele><time>2026-04-26T08:44:01.233Z</time></trkpt><trkpt lat="42.92647" lon="12.87214"><ele>703.0</ele><time>2026-04-26T08:44:02.235Z</time></trkpt><trkpt lat="42.9262533" lon="12.8722633"><ele>703.0</ele><time>2026-04-26T08:44:03.234Z</time></trkpt><trkpt lat="42.92603" lon="12.8723617"><ele>698.0</ele><time>2026-04-26T08:44:04.233Z</time></trkpt><trkpt lat="42.9257967" lon="12.87244"><ele>693.0</ele><time>2026-04-26T08:44:05.233Z</time></trkpt><trkpt lat="42.925555" lon="12.8724983"><ele>693.0</ele><time>2026-04-26T08:44:06.24Z</time></trkpt><trkpt lat="42.9253067" lon="12.87255"><ele>693.0</ele><time>2026-04-26T08:44:07.236Z</time></trkpt><trkpt lat="42.92506" lon="12.8726033"><ele>705.0</ele><time>2026-04-26T08:44:08.231Z</time></trkpt><trkpt lat="42.9248117" lon="12.872665"><ele>717.0</ele><time>2026-04-26T08:44:09.237Z</time></trkpt><trkpt lat="42.9245667" lon="12.872725"><ele>717.0</ele><time>2026-04-26T08:44:10.234Z</time></trkpt><trkpt lat="42.9243233" lon="12.8727867"><ele>717.0</ele><time>2026-04-26T08:44:11.235Z</time></trkpt><trkpt lat="42.9240833" lon="12.872845"><ele>715.3333333333334</ele><time>2026-04-26T08:44:12.235Z</time></trkpt><trkpt lat="42.9238583" lon="12.8729033"><ele>713.6666666666667</ele><time>2026-04-26T08:44:13.233Z</time></trkpt><trkpt lat="42.9236483" lon="12.8729567"><ele>712.0</ele><time>2026-04-26T08:44:14.233Z</time></trkpt><trkpt lat="42.9234517" lon="12.87302"><ele>708.3333333333334</ele><time>2026-04-26T08:44:15.233Z</time></trkpt><trkpt lat="42.923265" lon="12.8731217"><ele>704.6666666666666</ele><time>2026-04-26T08:44:16.231Z</time></trkpt><trkpt lat="42.923085" lon="12.87326"><ele>701.0</ele><time>2026-04-26T08:44:17.233Z</time></trkpt><trkpt lat="42.9229067" lon="12.873415"><ele>700.0</ele><time>2026-04-26T08:44:18.236Z</time></trkpt><trkpt lat="42.9227367" lon="12.873565"><ele>699.0</ele><time>2026-04-26T08:44:19.232Z</time></trkpt><trkpt lat="42.9225817" lon="12.873715"><ele>698.0</ele><time>2026-04-26T08:44:20.234Z</time></trkpt><trkpt lat="42.922455" lon="12.8738817"><ele>698.0</ele><time>2026-04-26T08:44:21.236Z</time></trkpt><trkpt lat="42.9223683" lon="12.8740667"><ele>698.0</ele><time>2026-04-26T08:44:22.231Z</time></trkpt><trkpt lat="42.9223367" lon="12.8742717"><ele>698.0</ele><time>2026-04-26T08:44:23.233Z</time></trkpt><trkpt lat="42.92236" lon="12.8745217"><ele>698.6666666666666</ele><time>2026-04-26T08:44:24.232Z</time></trkpt><trkpt lat="42.9224133" lon="12.8748117"><ele>699.3333333333334</ele><time>2026-04-26T08:44:25.233Z</time></trkpt><trkpt lat="42.9224583" lon="12.875105"><ele>700.0</ele><time>2026-04-26T08:44:26.234Z</time></trkpt><trkpt lat="42.9225083" lon="12.8754067"><ele>700.0</ele><time>2026-04-26T08:44:27.233Z</time></trkpt><trkpt lat="42.92255" lon="12.8756933"><ele>700.0</ele><time>2026-04-26T08:44:28.232Z</time></trkpt><trkpt lat="42.9225883" lon="12.8759667"><ele>700.0</ele><time>2026-04-26T08:44:29.232Z</time></trkpt><trkpt lat="42.922635" lon="12.876235"><ele>702.6666666666667</ele><time>2026-04-26T08:44:30.234Z</time></trkpt><trkpt lat="42.9227017" lon="12.8764833"><ele>705.3333333333334</ele><time>2026-04-26T08:44:31.232Z</time></trkpt><trkpt lat="42.9227983" lon="12.876725"><ele>708.0</ele><time>2026-04-26T08:44:32.232Z</time></trkpt><trkpt lat="42.9229183" lon="12.876965"><ele>708.0</ele><time>2026-04-26T08:44:33.232Z</time></trkpt><trkpt lat="42.9230517" lon="12.8772083"><ele>708.0</ele><time>2026-04-26T08:44:34.23Z</time></trkpt><trkpt lat="42.9231833" lon="12.87746"><ele>708.0</ele><time>2026-04-26T08:44:35.233Z</time></trkpt><trkpt lat="42.9233183" lon="12.8777167"><ele>714.0</ele><time>2026-04-26T08:44:36.234Z</time></trkpt><trkpt lat="42.923455" lon="12.8779733"><ele>720.0</ele><time>2026-04-26T08:44:37.234Z</time></trkpt><trkpt lat="42.9235967" lon="12.8782233"><ele>711.5</ele><time>2026-04-26T08:44:38.232Z</time></trkpt><trkpt lat="42.9237517" lon="12.8784617"><ele>703.0</ele><time>2026-04-26T08:44:39.235Z</time></trkpt><trkpt lat="42.9239283" lon="12.878665"><ele>703.0</ele><time>2026-04-26T08:44:40.232Z</time></trkpt><trkpt lat="42.924115" lon="12.8788567"><ele>703.0</ele><time>2026-04-26T08:44:41.232Z</time></trkpt><trkpt lat="42.924305" lon="12.8790483"><ele>703.5</ele><time>2026-04-26T08:44:42.235Z</time></trkpt><trkpt lat="42.9244933" lon="12.8792383"><ele>704.0</ele><time>2026-04-26T08:44:43.232Z</time></trkpt><trkpt lat="42.9246767" lon="12.8794217"><ele>704.0</ele><time>2026-04-26T08:44:44.233Z</time></trkpt><trkpt lat="42.92485" lon="12.879595"><ele>704.0</ele><time>2026-04-26T08:44:45.232Z</time></trkpt><trkpt lat="42.925015" lon="12.87976"><ele>704.0</ele><time>2026-04-26T08:44:46.233Z</time></trkpt><trkpt lat="42.9251717" lon="12.8799117"><ele>703.3333333333333</ele><time>2026-04-26T08:44:47.232Z</time></trkpt><trkpt lat="42.9253217" lon="12.880055"><ele>702.6666666666666</ele><time>2026-04-26T08:44:48.232Z</time></trkpt><trkpt lat="42.925455" lon="12.8802"><ele>702.0</ele><time>2026-04-26T08:44:49.234Z</time></trkpt><trkpt lat="42.92556" lon="12.88035"><ele>702.0</ele><time>2026-04-26T08:44:50.235Z</time></trkpt><trkpt lat="42.9256133" lon="12.8805117"><ele>702.0</ele><time>2026-04-26T08:44:51.233Z</time></trkpt><trkpt lat="42.9256217" lon="12.8806667"><ele>702.0</ele><time>2026-04-26T08:44:52.231Z</time></trkpt><trkpt lat="42.92558" lon="12.880795"><ele>702.0</ele><time>2026-04-26T08:44:53.23Z</time></trkpt><trkpt lat="42.9254983" lon="12.8808933"><ele>702.0</ele><time>2026-04-26T08:44:54.231Z</time></trkpt><trkpt lat="42.9254017" lon="12.880955"><ele>702.0</ele><time>2026-04-26T08:44:55.235Z</time></trkpt><trkpt lat="42.9252867" lon="12.88098"><ele>702.0</ele><time>2026-04-26T08:44:56.232Z</time></trkpt><trkpt lat="42.92514" lon="12.8809"><ele>702.0</ele><time>2026-04-26T08:44:57.233Z</time></trkpt><trkpt lat="42.9249683" lon="12.880795"><ele>705.6666666666666</ele><time>2026-04-26T08:44:58.232Z</time></trkpt><trkpt lat="42.924795" lon="12.8806833"><ele>709.3333333333333</ele><time>2026-04-26T08:44:59.231Z</time></trkpt><trkpt lat="42.9246167" lon="12.8805617"><ele>713.0</ele><time>2026-04-26T08:45:00.233Z</time></trkpt><trkpt lat="42.9244333" lon="12.8804383"><ele>713.0</ele><time>2026-04-26T08:45:01.235Z</time></trkpt><trkpt lat="42.92425" lon="12.880315"><ele>713.0</ele><time>2026-04-26T08:45:02.232Z</time></trkpt><trkpt lat="42.92408" lon="12.880195"><ele>713.0</ele><time>2026-04-26T08:45:03.235Z</time></trkpt><trkpt lat="42.9239233" lon="12.88009"><ele>710.0</ele><time>2026-04-26T08:45:04.238Z</time></trkpt><trkpt lat="42.9237683" lon="12.8800133"><ele>707.0</ele><time>2026-04-26T08:45:05.232Z</time></trkpt><trkpt lat="42.9236133" lon="12.87999"><ele>704.0</ele><time>2026-04-26T08:45:06.238Z</time></trkpt><trkpt lat="42.9234533" lon="12.8800183"><ele>711.6666666666666</ele><time>2026-04-26T08:45:07.235Z</time></trkpt><trkpt lat="42.9233083" lon="12.8801367"><ele>719.3333333333334</ele><time>2026-04-26T08:45:08.234Z</time></trkpt><trkpt lat="42.9231817" lon="12.880345"><ele>727.0</ele><time>2026-04-26T08:45:09.23Z</time></trkpt><trkpt lat="42.9230617" lon="12.8805733"><ele>727.0</ele><time>2026-04-26T08:45:10.233Z</time></trkpt><trkpt lat="42.9229117" lon="12.880745"><ele>727.0</ele><time>2026-04-26T08:45:11.232Z</time></trkpt><trkpt lat="42.9227367" lon="12.8808867"><ele>727.0</ele><time>2026-04-26T08:45:12.234Z</time></trkpt><trkpt lat="42.922545" lon="12.881"><ele>732.0</ele><time>2026-04-26T08:45:13.232Z</time></trkpt><trkpt lat="42.9223567" lon="12.8811233"><ele>737.0</ele><time>2026-04-26T08:45:14.234Z</time></trkpt><trkpt lat="42.9221833" lon="12.8812667"><ele>742.0</ele><time>2026-04-26T08:45:15.236Z</time></trkpt><trkpt lat="42.92202" lon="12.88142"><ele>742.0</ele><time>2026-04-26T08:45:16.233Z</time></trkpt><trkpt lat="42.92192" lon="12.8816267"><ele>742.0</ele><time>2026-04-26T08:45:17.233Z</time></trkpt><trkpt lat="42.9219017" lon="12.8819383"><ele>742.0</ele><time>2026-04-26T08:45:18.231Z</time></trkpt><trkpt lat="42.92189" lon="12.882215"><ele>744.75</ele><time>2026-04-26T08:45:19.236Z</time></trkpt><trkpt lat="42.9218733" lon="12.88243"><ele>747.5</ele><time>2026-04-26T08:45:20.231Z</time></trkpt><trkpt lat="42.9218183" lon="12.8826"><ele>750.25</ele><time>2026-04-26T08:45:21.231Z</time></trkpt><trkpt lat="42.9217367" lon="12.882705"><ele>753.0</ele><time>2026-04-26T08:45:22.231Z</time></trkpt><trkpt lat="42.921615" lon="12.8826867"><ele>753.0</ele><time>2026-04-26T08:45:23.231Z</time></trkpt><trkpt lat="42.9215033" lon="12.88262"><ele>753.0</ele><time>2026-04-26T08:45:24.231Z</time></trkpt><trkpt lat="42.921395" lon="12.882465"><ele>753.0</ele><time>2026-04-26T08:45:25.232Z</time></trkpt><trkpt lat="42.9212633" lon="12.8822883"><ele>748.6666666666666</ele><time>2026-04-26T08:45:26.233Z</time></trkpt><trkpt lat="42.9211117" lon="12.8821417"><ele>744.3333333333333</ele><time>2026-04-26T08:45:27.233Z</time></trkpt><trkpt lat="42.92094" lon="12.8820567"><ele>740.0</ele><time>2026-04-26T08:45:28.231Z</time></trkpt><trkpt lat="42.9207567" lon="12.88204"><ele>740.0</ele><time>2026-04-26T08:45:29.232Z</time></trkpt><trkpt lat="42.9205783" lon="12.8820933"><ele>740.0</ele><time>2026-04-26T08:45:30.232Z</time></trkpt><trkpt lat="42.920415" lon="12.8822017"><ele>740.0</ele><time>2026-04-26T08:45:31.234Z</time></trkpt><trkpt lat="42.9202783" lon="12.88234"><ele>740.0</ele><time>2026-04-26T08:45:32.232Z</time></trkpt><trkpt lat="42.9201917" lon="12.882525"><ele>740.0</ele><time>2026-04-26T08:45:33.236Z</time></trkpt><trkpt lat="42.9200967" lon="12.8826583"><ele>740.0</ele><time>2026-04-26T08:45:34.235Z</time></trkpt><trkpt lat="42.9200017" lon="12.8827467"><ele>740.0</ele><time>2026-04-26T08:45:35.232Z</time></trkpt><trkpt lat="42.91991" lon="12.8827917"><ele>738.25</ele><time>2026-04-26T08:45:36.234Z</time></trkpt><trkpt lat="42.919805" lon="12.8827583"><ele>736.5</ele><time>2026-04-26T08:45:37.236Z</time></trkpt><trkpt lat="42.9196833" lon="12.88265"><ele>734.75</ele><time>2026-04-26T08:45:38.234Z</time></trkpt><trkpt lat="42.9195383" lon="12.88258"><ele>733.0</ele><time>2026-04-26T08:45:39.235Z</time></trkpt><trkpt lat="42.9193817" lon="12.8825667"><ele>732.25</ele><time>2026-04-26T08:45:40.234Z</time></trkpt><trkpt lat="42.91923" lon="12.8825933"><ele>731.5</ele><time>2026-04-26T08:45:41.23Z</time></trkpt><trkpt lat="42.9191017" lon="12.8826583"><ele>730.75</ele><time>2026-04-26T08:45:42.233Z</time></trkpt><trkpt lat="42.91901" lon="12.8827567"><ele>730.0</ele><time>2026-04-26T08:45:43.232Z</time></trkpt><trkpt lat="42.91895" lon="12.8828733"><ele>734.5</ele><time>2026-04-26T08:45:44.232Z</time></trkpt><trkpt lat="42.91893" lon="12.8830167"><ele>739.0</ele><time>2026-04-26T08:45:45.233Z</time></trkpt><trkpt lat="42.9189333" lon="12.883195"><ele>743.5</ele><time>2026-04-26T08:45:46.232Z</time></trkpt><trkpt lat="42.91894" lon="12.88344"><ele>748.0</ele><time>2026-04-26T08:45:47.233Z</time></trkpt><trkpt lat="42.918945" lon="12.883705"><ele>751.6666666666667</ele><time>2026-04-26T08:45:48.234Z</time></trkpt><trkpt lat="42.91895" lon="12.883975"><ele>755.3333333333334</ele><time>2026-04-26T08:45:49.235Z</time></trkpt><trkpt lat="42.91894" lon="12.8842417"><ele>759.0</ele><time>2026-04-26T08:45:50.235Z</time></trkpt><trkpt lat="42.9189033" lon="12.88452"><ele>764.0</ele><time>2026-04-26T08:45:51.24Z</time></trkpt><trkpt lat="42.9188333" lon="12.8847917"><ele>769.0</ele><time>2026-04-26T08:45:52.233Z</time></trkpt><trkpt lat="42.9187533" lon="12.885045"><ele>774.0</ele><time>2026-04-26T08:45:53.235Z</time></trkpt><trkpt lat="42.91868" lon="12.88527"><ele>772.5</ele><time>2026-04-26T08:45:54.234Z</time></trkpt><trkpt lat="42.9186133" lon="12.8854583"><ele>771.0</ele><time>2026-04-26T08:45:55.234Z</time></trkpt><trkpt lat="42.9185317" lon="12.8855867"><ele>769.5</ele><time>2026-04-26T08:45:56.231Z</time></trkpt><trkpt lat="42.91843" lon="12.88564"><ele>768.0</ele><time>2026-04-26T08:45:57.233Z</time></trkpt><trkpt lat="42.918335" lon="12.8856133"><ele>768.0</ele><time>2026-04-26T08:45:58.232Z</time></trkpt><trkpt lat="42.9182533" lon="12.885505"><ele>768.0</ele><time>2026-04-26T08:45:59.229Z</time></trkpt><trkpt lat="42.918215" lon="12.88533"><ele>768.0</ele><time>2026-04-26T08:46:00.231Z</time></trkpt><trkpt lat="42.9182" lon="12.8851117"><ele>768.0</ele><time>2026-04-26T08:46:01.231Z</time></trkpt><trkpt lat="42.9181617" lon="12.8849017"><ele>764.75</ele><time>2026-04-26T08:46:02.235Z</time></trkpt><trkpt lat="42.918095" lon="12.8847067"><ele>761.5</ele><time>2026-04-26T08:46:03.237Z</time></trkpt><trkpt lat="42.9179983" lon="12.8845683"><ele>758.25</ele><time>2026-04-26T08:46:04.235Z</time></trkpt><trkpt lat="42.9178767" lon="12.88448"><ele>755.0</ele><time>2026-04-26T08:46:05.234Z</time></trkpt><trkpt lat="42.9177433" lon="12.8844667"><ele>760.0</ele><time>2026-04-26T08:46:06.233Z</time></trkpt><trkpt lat="42.9175633" lon="12.8845433"><ele>765.0</ele><time>2026-04-26T08:46:07.233Z</time></trkpt><trkpt lat="42.917355" lon="12.8846917"><ele>770.0</ele><time>2026-04-26T08:46:08.233Z</time></trkpt><trkpt lat="42.917125" lon="12.8848483"><ele>770.0</ele><time>2026-04-26T08:46:09.234Z</time></trkpt><trkpt lat="42.9168883" lon="12.8850083"><ele>770.0</ele><time>2026-04-26T08:46:10.233Z</time></trkpt><trkpt lat="42.9166483" lon="12.8851717"><ele>778.0</ele><time>2026-04-26T08:46:11.231Z</time></trkpt><trkpt lat="42.9164267" lon="12.88533"><ele>786.0</ele><time>2026-04-26T08:46:12.231Z</time></trkpt><trkpt lat="42.9162133" lon="12.8854733"><ele>786.0</ele><time>2026-04-26T08:46:13.234Z</time></trkpt><trkpt lat="42.91599" lon="12.8855867"><ele>786.0</ele><time>2026-04-26T08:46:14.232Z</time></trkpt><trkpt lat="42.9157617" lon="12.8856517"><ele>783.0</ele><time>2026-04-26T08:46:15.234Z</time></trkpt><trkpt lat="42.9155467" lon="12.8856933"><ele>780.0</ele><time>2026-04-26T08:46:16.234Z</time></trkpt><trkpt lat="42.9153567" lon="12.8857317"><ele>777.0</ele><time>2026-04-26T08:46:17.236Z</time></trkpt><trkpt lat="42.91519" lon="12.8857933"><ele>780.6666666666667</ele><time>2026-04-26T08:46:18.234Z</time></trkpt><trkpt lat="42.915035" lon="12.8859"><ele>784.3333333333334</ele><time>2026-04-26T08:46:19.235Z</time></trkpt><trkpt lat="42.914895" lon="12.88607"><ele>788.0</ele><time>2026-04-26T08:46:20.234Z</time></trkpt><trkpt lat="42.9147783" lon="12.8862933"><ele>788.0</ele><time>2026-04-26T08:46:21.234Z</time></trkpt><trkpt lat="42.9146867" lon="12.886525"><ele>788.0</ele><time>2026-04-26T08:46:22.232Z</time></trkpt><trkpt lat="42.9146017" lon="12.886715"><ele>788.0</ele><time>2026-04-26T08:46:23.233Z</time></trkpt><trkpt lat="42.9145183" lon="12.886875"><ele>791.75</ele><time>2026-04-26T08:46:24.234Z</time></trkpt><trkpt lat="42.9144083" lon="12.8869567"><ele>795.5</ele><time>2026-04-26T08:46:25.232Z</time></trkpt><trkpt lat="42.9142933" lon="12.8869733"><ele>799.25</ele><time>2026-04-26T08:46:26.232Z</time></trkpt><trkpt lat="42.9141783" lon="12.8869167"><ele>803.0</ele><time>2026-04-26T08:46:27.234Z</time></trkpt><trkpt lat="42.914075" lon="12.8868017"><ele>794.3333333333334</ele><time>2026-04-26T08:46:28.231Z</time></trkpt><trkpt lat="42.9139667" lon="12.886635"><ele>785.6666666666667</ele><time>2026-04-26T08:46:29.234Z</time></trkpt><trkpt lat="42.9138283" lon="12.8864983"><ele>777.0</ele><time>2026-04-26T08:46:30.231Z</time></trkpt><trkpt lat="42.913665" lon="12.8864167"><ele>777.0</ele><time>2026-04-26T08:46:31.231Z</time></trkpt><trkpt lat="42.9134817" lon="12.8863883"><ele>777.0</ele><time>2026-04-26T08:46:32.229Z</time></trkpt><trkpt lat="42.913285" lon="12.8864333"><ele>777.0</ele><time>2026-04-26T08:46:33.234Z</time></trkpt><trkpt lat="42.9130633" lon="12.8864917"><ele>782.5</ele><time>2026-04-26T08:46:34.232Z</time></trkpt><trkpt lat="42.912835" lon="12.8865533"><ele>788.0</ele><time>2026-04-26T08:46:35.234Z</time></trkpt><trkpt lat="42.91261" lon="12.8866167"><ele>786.6666666666667</ele><time>2026-04-26T08:46:36.235Z</time></trkpt><trkpt lat="42.9123983" lon="12.88668"><ele>785.3333333333333</ele><time>2026-04-26T08:46:37.234Z</time></trkpt><trkpt lat="42.9122" lon="12.8867583"><ele>784.0</ele><time>2026-04-26T08:46:38.231Z</time></trkpt><trkpt lat="42.9120133" lon="12.8868883"><ele>787.3333333333333</ele><time>2026-04-26T08:46:39.233Z</time></trkpt><trkpt lat="42.911855" lon="12.8870633"><ele>790.6666666666667</ele><time>2026-04-26T08:46:40.235Z</time></trkpt><trkpt lat="42.9117367" lon="12.8872617"><ele>794.0</ele><time>2026-04-26T08:46:41.233Z</time></trkpt><trkpt lat="42.9116383" lon="12.8874533"><ele>799.5</ele><time>2026-04-26T08:46:42.23Z</time></trkpt><trkpt lat="42.9115383" lon="12.8876017"><ele>805.0</ele><time>2026-04-26T08:46:43.235Z</time></trkpt><trkpt lat="42.9114233" lon="12.88769"><ele>810.5</ele><time>2026-04-26T08:46:44.231Z</time></trkpt><trkpt lat="42.911295" lon="12.8877083"><ele>816.0</ele><time>2026-04-26T08:46:45.233Z</time></trkpt><trkpt lat="42.91116" lon="12.8876433"><ele>812.6666666666667</ele><time>2026-04-26T08:46:46.233Z</time></trkpt><trkpt lat="42.9110317" lon="12.8875233"><ele>809.3333333333334</ele><time>2026-04-26T08:46:47.231Z</time></trkpt><trkpt lat="42.9109" lon="12.8873517"><ele>806.0</ele><time>2026-04-26T08:46:48.232Z</time></trkpt><trkpt lat="42.9107567" lon="12.88717"><ele>806.0</ele><time>2026-04-26T08:46:49.235Z</time></trkpt><trkpt lat="42.910605" lon="12.8870117"><ele>806.0</ele><time>2026-04-26T08:46:50.231Z</time></trkpt><trkpt lat="42.9104333" lon="12.88691"><ele>806.0</ele><time>2026-04-26T08:46:51.234Z</time></trkpt><trkpt lat="42.9102233" lon="12.8868783"><ele>814.0</ele><time>2026-04-26T08:46:52.235Z</time></trkpt><trkpt lat="42.909985" lon="12.8868967"><ele>822.0</ele><time>2026-04-26T08:46:53.231Z</time></trkpt><trkpt lat="42.9097367" lon="12.8869517"><ele>822.0</ele><time>2026-04-26T08:46:54.232Z</time></trkpt><trkpt lat="42.9094967" lon="12.88702"><ele>822.0</ele><time>2026-04-26T08:46:55.234Z</time></trkpt><trkpt lat="42.9092667" lon="12.8870833"><ele>822.0</ele><time>2026-04-26T08:46:56.234Z</time></trkpt><trkpt lat="42.909025" lon="12.8871133"><ele>822.0</ele><time>2026-04-26T08:46:57.234Z</time></trkpt><trkpt lat="42.9087767" lon="12.88712"><ele>822.0</ele><time>2026-04-26T08:46:58.232Z</time></trkpt><trkpt lat="42.908525" lon="12.8871017"><ele>822.0</ele><time>2026-04-26T08:46:59.233Z</time></trkpt><trkpt lat="42.9082917" lon="12.88706"><ele>823.6666666666667</ele><time>2026-04-26T08:47:00.232Z</time></trkpt><trkpt lat="42.90808" lon="12.8870117"><ele>825.3333333333334</ele><time>2026-04-26T08:47:01.233Z</time></trkpt><trkpt lat="42.9078967" lon="12.8869967"><ele>827.0</ele><time>2026-04-26T08:47:02.231Z</time></trkpt><trkpt lat="42.9077233" lon="12.887025"><ele>822.3333333333334</ele><time>2026-04-26T08:47:03.236Z</time></trkpt><trkpt lat="42.9075483" lon="12.8871283"><ele>817.6666666666667</ele><time>2026-04-26T08:47:04.234Z</time></trkpt><trkpt lat="42.90737" lon="12.8873167"><ele>813.0</ele><time>2026-04-26T08:47:05.234Z</time></trkpt><trkpt lat="42.9071917" lon="12.8875567"><ele>826.5</ele><time>2026-04-26T08:47:06.234Z</time></trkpt><trkpt lat="42.90701" lon="12.8878117"><ele>840.0</ele><time>2026-04-26T08:47:07.235Z</time></trkpt><trkpt lat="42.906835" lon="12.8880583"><ele>831.5</ele><time>2026-04-26T08:47:08.233Z</time></trkpt><trkpt lat="42.906665" lon="12.8882867"><ele>823.0</ele><time>2026-04-26T08:47:09.235Z</time></trkpt><trkpt lat="42.90651" lon="12.8884933"><ele>823.0</ele><time>2026-04-26T08:47:10.233Z</time></trkpt><trkpt lat="42.9063683" lon="12.8886883"><ele>823.0</ele><time>2026-04-26T08:47:11.232Z</time></trkpt><trkpt lat="42.9062217" lon="12.888855"><ele>823.0</ele><time>2026-04-26T08:47:12.234Z</time></trkpt><trkpt lat="42.9060467" lon="12.88899"><ele>815.5</ele><time>2026-04-26T08:47:13.232Z</time></trkpt><trkpt lat="42.905845" lon="12.88909"><ele>808.0</ele><time>2026-04-26T08:47:14.233Z</time></trkpt><trkpt lat="42.9056167" lon="12.8891683"><ele>820.0</ele><time>2026-04-26T08:47:15.235Z</time></trkpt><trkpt lat="42.9053917" lon="12.889265"><ele>832.0</ele><time>2026-04-26T08:47:16.234Z</time></trkpt><trkpt lat="42.905185" lon="12.8893933"><ele>828.0</ele><time>2026-04-26T08:47:17.236Z</time></trkpt><trkpt lat="42.9050067" lon="12.8895617"><ele>824.0</ele><time>2026-04-26T08:47:18.234Z</time></trkpt><trkpt lat="42.904855" lon="12.8897633"><ele>820.0</ele><time>2026-04-26T08:47:19.234Z</time></trkpt><trkpt lat="42.9047317" lon="12.890005"><ele>823.3333333333333</ele><time>2026-04-26T08:47:20.233Z</time></trkpt><trkpt lat="42.9046467" lon="12.8902783"><ele>826.6666666666667</ele><time>2026-04-26T08:47:21.237Z</time></trkpt><trkpt lat="42.9045967" lon="12.890575"><ele>830.0</ele><time>2026-04-26T08:47:22.232Z</time></trkpt><trkpt lat="42.9045867" lon="12.890895"><ele>830.5</ele><time>2026-04-26T08:47:23.232Z</time></trkpt><trkpt lat="42.9046017" lon="12.891215"><ele>831.0</ele><time>2026-04-26T08:47:24.235Z</time></trkpt><trkpt lat="42.9046183" lon="12.89152"><ele>830.3333333333333</ele><time>2026-04-26T08:47:25.234Z</time></trkpt><trkpt lat="42.904635" lon="12.8917967"><ele>829.6666666666666</ele><time>2026-04-26T08:47:26.236Z</time></trkpt><trkpt lat="42.9046483" lon="12.892055"><ele>829.0</ele><time>2026-04-26T08:47:27.233Z</time></trkpt><trkpt lat="42.9046633" lon="12.892295"><ele>829.0</ele><time>2026-04-26T08:47:28.235Z</time></trkpt><trkpt lat="42.90468" lon="12.8925183"><ele>829.0</ele><time>2026-04-26T08:47:29.23Z</time></trkpt><trkpt lat="42.9046917" lon="12.8927233"><ele>829.0</ele><time>2026-04-26T08:47:30.231Z</time></trkpt><trkpt lat="42.904705" lon="12.8929233"><ele>829.75</ele><time>2026-04-26T08:47:31.232Z</time></trkpt><trkpt lat="42.9047167" lon="12.8931183"><ele>830.5</ele><time>2026-04-26T08:47:32.232Z</time></trkpt><trkpt lat="42.9047283" lon="12.893315"><ele>831.25</ele><time>2026-04-26T08:47:33.235Z</time></trkpt><trkpt lat="42.90474" lon="12.8935133"><ele>832.0</ele><time>2026-04-26T08:47:34.231Z</time></trkpt><trkpt lat="42.9047467" lon="12.89371"><ele>832.75</ele><time>2026-04-26T08:47:35.232Z</time></trkpt><trkpt lat="42.90475" lon="12.8938983"><ele>833.5</ele><time>2026-04-26T08:47:36.231Z</time></trkpt><trkpt lat="42.90476" lon="12.89408"><ele>834.25</ele><time>2026-04-26T08:47:37.232Z</time></trkpt><trkpt lat="42.9047717" lon="12.8942517"><ele>835.0</ele><time>2026-04-26T08:47:38.229Z</time></trkpt><trkpt lat="42.904775" lon="12.8944133"><ele>835.0</ele><time>2026-04-26T08:47:39.232Z</time></trkpt><trkpt lat="42.9047833" lon="12.894575"><ele>835.0</ele><time>2026-04-26T08:47:40.234Z</time></trkpt><trkpt lat="42.9047933" lon="12.8947483"><ele>835.0</ele><time>2026-04-26T08:47:41.232Z</time></trkpt><trkpt lat="42.904805" lon="12.8949183"><ele>835.0</ele><time>2026-04-26T08:47:42.233Z</time></trkpt><trkpt lat="42.904815" lon="12.8950783"><ele>835.2</ele><time>2026-04-26T08:47:43.236Z</time></trkpt><trkpt lat="42.904825" lon="12.8952267"><ele>835.4</ele><time>2026-04-26T08:47:44.232Z</time></trkpt><trkpt lat="42.904835" lon="12.8953633"><ele>835.5999999999999</ele><time>2026-04-26T08:47:45.232Z</time></trkpt><trkpt lat="42.904845" lon="12.8954867"><ele>835.8</ele><time>2026-04-26T08:47:46.236Z</time></trkpt><trkpt lat="42.9048633" lon="12.8956017"><ele>836.0</ele><time>2026-04-26T08:47:47.231Z</time></trkpt><trkpt lat="42.90488" lon="12.8957117"><ele>836.0000000000001</ele><time>2026-04-26T08:47:48.23Z</time></trkpt><trkpt lat="42.9048917" lon="12.895815"><ele>836.0</ele><time>2026-04-26T08:47:49.232Z</time></trkpt><trkpt lat="42.904895" lon="12.8959133"><ele>836.0</ele><time>2026-04-26T08:47:50.233Z</time></trkpt><trkpt lat="42.904905" lon="12.8960533"><ele>836.0</ele><time>2026-04-26T08:47:52.234Z</time></trkpt><trkpt lat="42.9048233" lon="12.8961367"><ele>836.0000000000001</ele><time>2026-04-26T09:00:18.227Z</time></trkpt><trkpt lat="42.90491" lon="12.8960817"><ele>836.0</ele><time>2026-04-26T09:04:05.232Z</time></trkpt><trkpt lat="42.904935" lon="12.8961933"><ele>836.1999999999999</ele><time>2026-04-26T09:13:07.233Z</time></trkpt><trkpt lat="42.9049617" lon="12.896285"><ele>836.4</ele><time>2026-04-26T09:13:09.236Z</time></trkpt><trkpt lat="42.904985" lon="12.8964017"><ele>836.6</ele><time>2026-04-26T09:13:11.23Z</time></trkpt><trkpt lat="42.9050083" lon="12.8965417"><ele>836.8</ele><time>2026-04-26T09:13:13.231Z</time></trkpt><trkpt lat="42.9050333" lon="12.8966983"><ele>837.0</ele><time>2026-04-26T09:13:15.234Z</time></trkpt><trkpt lat="42.9050467" lon="12.8967867"><ele>837.0</ele><time>2026-04-26T09:13:16.23Z</time></trkpt><trkpt lat="42.9050617" lon="12.8968783"><ele>837.0</ele><time>2026-04-26T09:13:17.23Z</time></trkpt><trkpt lat="42.90508" lon="12.8969767"><ele>837.0</ele><time>2026-04-26T09:13:18.231Z</time></trkpt><trkpt lat="42.9050967" lon="12.8970867"><ele>837.0</ele><time>2026-04-26T09:13:19.232Z</time></trkpt><trkpt lat="42.9051183" lon="12.89721"><ele>837.0</ele><time>2026-04-26T09:13:20.235Z</time></trkpt><trkpt lat="42.9051417" lon="12.8973483"><ele>837.0</ele><time>2026-04-26T09:13:21.232Z</time></trkpt><trkpt lat="42.9051533" lon="12.8974883"><ele>835.8</ele><time>2026-04-26T09:13:22.231Z</time></trkpt><trkpt lat="42.90515" lon="12.8976317"><ele>834.6</ele><time>2026-04-26T09:13:23.233Z</time></trkpt><trkpt lat="42.90514" lon="12.897785"><ele>833.4</ele><time>2026-04-26T09:13:24.231Z</time></trkpt><trkpt lat="42.9051133" lon="12.8979367"><ele>832.1999999999999</ele><time>2026-04-26T09:13:25.232Z</time></trkpt><trkpt lat="42.9050683" lon="12.8980833"><ele>831.0</ele><time>2026-04-26T09:13:26.232Z</time></trkpt><trkpt lat="42.9050083" lon="12.8982233"><ele>831.0</ele><time>2026-04-26T09:13:27.235Z</time></trkpt><trkpt lat="42.9049333" lon="12.8983517"><ele>831.0</ele><time>2026-04-26T09:13:28.234Z</time></trkpt><trkpt lat="42.9048367" lon="12.89846"><ele>831.0</ele><time>2026-04-26T09:13:29.231Z</time></trkpt><trkpt lat="42.9047317" lon="12.8985583"><ele>831.0</ele><time>2026-04-26T09:13:30.234Z</time></trkpt><trkpt lat="42.9046233" lon="12.8986533"><ele>831.25</ele><time>2026-04-26T09:13:31.239Z</time></trkpt><trkpt lat="42.9045067" lon="12.89875"><ele>831.5</ele><time>2026-04-26T09:13:32.233Z</time></trkpt><trkpt lat="42.9043917" lon="12.8988433"><ele>831.75</ele><time>2026-04-26T09:13:33.235Z</time></trkpt><trkpt lat="42.9042817" lon="12.89893"><ele>832.0</ele><time>2026-04-26T09:13:34.23Z</time></trkpt><trkpt lat="42.9041867" lon="12.8990233"><ele>832.0</ele><time>2026-04-26T09:13:35.233Z</time></trkpt><trkpt lat="42.9041167" lon="12.8991233"><ele>832.0</ele><time>2026-04-26T09:13:36.232Z</time></trkpt><trkpt lat="42.9040767" lon="12.8992367"><ele>832.0</ele><time>2026-04-26T09:13:37.231Z</time></trkpt><trkpt lat="42.9040583" lon="12.89937"><ele>832.0</ele><time>2026-04-26T09:13:38.231Z</time></trkpt><trkpt lat="42.904085" lon="12.899505"><ele>832.0</ele><time>2026-04-26T09:13:39.234Z</time></trkpt><trkpt lat="42.90413" lon="12.8996183"><ele>831.0</ele><time>2026-04-26T09:13:40.232Z</time></trkpt><trkpt lat="42.9042017" lon="12.8996967"><ele>830.0</ele><time>2026-04-26T09:13:41.233Z</time></trkpt><trkpt lat="42.9043117" lon="12.899685"><ele>829.0</ele><time>2026-04-26T09:13:42.231Z</time></trkpt><trkpt lat="42.9044383" lon="12.8996583"><ele>828.0</ele><time>2026-04-26T09:13:43.234Z</time></trkpt><trkpt lat="42.9045717" lon="12.89963"><ele>824.75</ele><time>2026-04-26T09:13:44.234Z</time></trkpt><trkpt lat="42.9047033" lon="12.8996333"><ele>821.5</ele><time>2026-04-26T09:13:45.232Z</time></trkpt><trkpt lat="42.904845" lon="12.8996817"><ele>818.25</ele><time>2026-04-26T09:13:46.23Z</time></trkpt><trkpt lat="42.9049633" lon="12.89977"><ele>815.0</ele><time>2026-04-26T09:13:47.232Z</time></trkpt><trkpt lat="42.9050583" lon="12.8998883"><ele>812.25</ele><time>2026-04-26T09:13:48.235Z</time></trkpt><trkpt lat="42.90511" lon="12.9000317"><ele>809.5</ele><time>2026-04-26T09:13:49.235Z</time></trkpt><trkpt lat="42.905135" lon="12.9001867"><ele>806.75</ele><time>2026-04-26T09:13:50.231Z</time></trkpt><trkpt lat="42.9051383" lon="12.90035"><ele>804.0</ele><time>2026-04-26T09:13:51.234Z</time></trkpt><trkpt lat="42.905095" lon="12.9005367"><ele>806.3333333333333</ele><time>2026-04-26T09:13:52.232Z</time></trkpt><trkpt lat="42.9050083" lon="12.900745"><ele>808.6666666666666</ele><time>2026-04-26T09:13:53.23Z</time></trkpt><trkpt lat="42.9049133" lon="12.9009467"><ele>811.0</ele><time>2026-04-26T09:13:54.232Z</time></trkpt><trkpt lat="42.9048083" lon="12.90114"><ele>806.3333333333333</ele><time>2026-04-26T09:13:55.231Z</time></trkpt><trkpt lat="42.904695" lon="12.9013133"><ele>801.6666666666667</ele><time>2026-04-26T09:13:56.23Z</time></trkpt><trkpt lat="42.904575" lon="12.9014717"><ele>797.0</ele><time>2026-04-26T09:13:57.233Z</time></trkpt><trkpt lat="42.904455" lon="12.901625"><ele>798.3333333333334</ele><time>2026-04-26T09:13:58.235Z</time></trkpt><trkpt lat="42.9043383" lon="12.9017683"><ele>799.6666666666667</ele><time>2026-04-26T09:13:59.232Z</time></trkpt><trkpt lat="42.9042217" lon="12.9019183"><ele>801.0</ele><time>2026-04-26T09:14:00.233Z</time></trkpt><trkpt lat="42.9041067" lon="12.9020667"><ele>801.0</ele><time>2026-04-26T09:14:01.233Z</time></trkpt><trkpt lat="42.9040067" lon="12.90222"><ele>801.0</ele><time>2026-04-26T09:14:02.231Z</time></trkpt><trkpt lat="42.9039333" lon="12.902405"><ele>801.0</ele><time>2026-04-26T09:14:03.236Z</time></trkpt><trkpt lat="42.90388" lon="12.902585"><ele>801.0</ele><time>2026-04-26T09:14:04.232Z</time></trkpt><trkpt lat="42.90384" lon="12.902785"><ele>796.3333333333333</ele><time>2026-04-26T09:14:05.233Z</time></trkpt><trkpt lat="42.9038067" lon="12.9029883"><ele>791.6666666666666</ele><time>2026-04-26T09:14:06.232Z</time></trkpt><trkpt lat="42.903785" lon="12.9031983"><ele>787.0</ele><time>2026-04-26T09:14:07.232Z</time></trkpt><trkpt lat="42.9037667" lon="12.9034083"><ele>784.0</ele><time>2026-04-26T09:14:08.233Z</time></trkpt><trkpt lat="42.9037467" lon="12.9036067"><ele>781.0</ele><time>2026-04-26T09:14:09.232Z</time></trkpt><trkpt lat="42.9037133" lon="12.9037917"><ele>778.0</ele><time>2026-04-26T09:14:10.23Z</time></trkpt><trkpt lat="42.9036533" lon="12.903965"><ele>775.0</ele><time>2026-04-26T09:14:11.229Z</time></trkpt><trkpt lat="42.9035783" lon="12.9041267"><ele>777.0</ele><time>2026-04-26T09:14:12.235Z</time></trkpt><trkpt lat="42.9034617" lon="12.904275"><ele>779.0</ele><time>2026-04-26T09:14:13.232Z</time></trkpt><trkpt lat="42.9033433" lon="12.9044133"><ele>781.0</ele><time>2026-04-26T09:14:14.233Z</time></trkpt><trkpt lat="42.9032233" lon="12.9045417"><ele>781.0</ele><time>2026-04-26T09:14:15.235Z</time></trkpt><trkpt lat="42.9031067" lon="12.9046833"><ele>781.0</ele><time>2026-04-26T09:14:16.233Z</time></trkpt><trkpt lat="42.90298" lon="12.9048283"><ele>781.0</ele><time>2026-04-26T09:14:17.23Z</time></trkpt><trkpt lat="42.9028483" lon="12.9049767"><ele>777.6666666666666</ele><time>2026-04-26T09:14:18.233Z</time></trkpt><trkpt lat="42.9027067" lon="12.9051267"><ele>774.3333333333333</ele><time>2026-04-26T09:14:19.233Z</time></trkpt><trkpt lat="42.9025583" lon="12.905265"><ele>771.0</ele><time>2026-04-26T09:14:20.233Z</time></trkpt><trkpt lat="42.9024017" lon="12.90539"><ele>771.0</ele><time>2026-04-26T09:14:21.236Z</time></trkpt><trkpt lat="42.9022433" lon="12.9055017"><ele>771.0</ele><time>2026-04-26T09:14:22.235Z</time></trkpt><trkpt lat="42.9021083" lon="12.9056133"><ele>771.0</ele><time>2026-04-26T09:14:23.232Z</time></trkpt><trkpt lat="42.9019833" lon="12.9057667"><ele>767.3333333333334</ele><time>2026-04-26T09:14:24.231Z</time></trkpt><trkpt lat="42.9018633" lon="12.905935"><ele>763.6666666666667</ele><time>2026-04-26T09:14:25.233Z</time></trkpt><trkpt lat="42.9017333" lon="12.90607"><ele>760.0</ele><time>2026-04-26T09:14:26.231Z</time></trkpt><trkpt lat="42.9015883" lon="12.9061833"><ele>760.0</ele><time>2026-04-26T09:14:27.233Z</time></trkpt><trkpt lat="42.9014417" lon="12.90627"><ele>760.0</ele><time>2026-04-26T09:14:28.233Z</time></trkpt><trkpt lat="42.901285" lon="12.906325"><ele>760.0</ele><time>2026-04-26T09:14:29.232Z</time></trkpt><trkpt lat="42.9011267" lon="12.9063383"><ele>760.0</ele><time>2026-04-26T09:14:30.231Z</time></trkpt><trkpt lat="42.9009733" lon="12.9063317"><ele>760.0</ele><time>2026-04-26T09:14:31.23Z</time></trkpt><trkpt lat="42.9008317" lon="12.9063167"><ele>760.0</ele><time>2026-04-26T09:14:32.23Z</time></trkpt><trkpt lat="42.9006967" lon="12.90632"><ele>760.0</ele><time>2026-04-26T09:14:33.234Z</time></trkpt><trkpt lat="42.90058" lon="12.9063667"><ele>762.0</ele><time>2026-04-26T09:14:34.232Z</time></trkpt><trkpt lat="42.9004833" lon="12.9064617"><ele>764.0</ele><time>2026-04-26T09:14:35.232Z</time></trkpt><trkpt lat="42.9003867" lon="12.9066167"><ele>766.0</ele><time>2026-04-26T09:14:36.232Z</time></trkpt><trkpt lat="42.90028" lon="12.906765"><ele>768.0</ele><time>2026-04-26T09:14:37.23Z</time></trkpt><trkpt lat="42.90016" lon="12.9068967"><ele>763.3333333333334</ele><time>2026-04-26T09:14:38.232Z</time></trkpt><trkpt lat="42.9000267" lon="12.9069967"><ele>758.6666666666667</ele><time>2026-04-26T09:14:39.23Z</time></trkpt><trkpt lat="42.8998817" lon="12.9070833"><ele>754.0</ele><time>2026-04-26T09:14:40.233Z</time></trkpt><trkpt lat="42.8997317" lon="12.90717"><ele>754.0</ele><time>2026-04-26T09:14:41.232Z</time></trkpt><trkpt lat="42.899585" lon="12.9072617"><ele>754.0</ele><time>2026-04-26T09:14:42.231Z</time></trkpt><trkpt lat="42.8994383" lon="12.9073533"><ele>754.0</ele><time>2026-04-26T09:14:43.235Z</time></trkpt><trkpt lat="42.8992967" lon="12.907445"><ele>749.75</ele><time>2026-04-26T09:14:44.23Z</time></trkpt><trkpt lat="42.8991633" lon="12.9075317"><ele>745.5</ele><time>2026-04-26T09:14:45.236Z</time></trkpt><trkpt lat="42.8990283" lon="12.9076167"><ele>741.25</ele><time>2026-04-26T09:14:46.23Z</time></trkpt><trkpt lat="42.8988967" lon="12.9077117"><ele>737.0</ele><time>2026-04-26T09:14:47.232Z</time></trkpt><trkpt lat="42.898765" lon="12.9078"><ele>737.0</ele><time>2026-04-26T09:14:48.232Z</time></trkpt><trkpt lat="42.8986283" lon="12.9078883"><ele>737.0</ele><time>2026-04-26T09:14:49.231Z</time></trkpt><trkpt lat="42.8984933" lon="12.9079533"><ele>737.0</ele><time>2026-04-26T09:14:50.231Z</time></trkpt><trkpt lat="42.8983583" lon="12.9080167"><ele>737.0</ele><time>2026-04-26T09:14:51.232Z</time></trkpt><trkpt lat="42.8982283" lon="12.9080683"><ele>740.75</ele><time>2026-04-26T09:14:52.229Z</time></trkpt><trkpt lat="42.8980983" lon="12.9081117"><ele>744.5</ele><time>2026-04-26T09:14:53.233Z</time></trkpt><trkpt lat="42.897965" lon="12.9081567"><ele>748.25</ele><time>2026-04-26T09:14:54.234Z</time></trkpt><trkpt lat="42.8978317" lon="12.908205"><ele>752.0</ele><time>2026-04-26T09:14:55.23Z</time></trkpt><trkpt lat="42.89769" lon="12.9082533"><ele>752.5</ele><time>2026-04-26T09:14:56.231Z</time></trkpt><trkpt lat="42.897545" lon="12.90829"><ele>753.0</ele><time>2026-04-26T09:14:57.231Z</time></trkpt><trkpt lat="42.8974" lon="12.9082883"><ele>753.5</ele><time>2026-04-26T09:14:58.235Z</time></trkpt><trkpt lat="42.8972567" lon="12.9082567"><ele>754.0</ele><time>2026-04-26T09:14:59.235Z</time></trkpt><trkpt lat="42.8971217" lon="12.9082"><ele>754.0</ele><time>2026-04-26T09:15:00.232Z</time></trkpt><trkpt lat="42.8969917" lon="12.9081267"><ele>754.0</ele><time>2026-04-26T09:15:01.234Z</time></trkpt><trkpt lat="42.8968633" lon="12.9080533"><ele>754.0</ele><time>2026-04-26T09:15:02.233Z</time></trkpt><trkpt lat="42.896735" lon="12.90799"><ele>754.0</ele><time>2026-04-26T09:15:03.237Z</time></trkpt><trkpt lat="42.8966083" lon="12.90797"><ele>752.75</ele><time>2026-04-26T09:15:04.233Z</time></trkpt><trkpt lat="42.89648" lon="12.9080183"><ele>751.5</ele><time>2026-04-26T09:15:05.232Z</time></trkpt><trkpt lat="42.896385" lon="12.90808"><ele>750.25</ele><time>2026-04-26T09:15:06.231Z</time></trkpt><trkpt lat="42.896295" lon="12.908155"><ele>749.0</ele><time>2026-04-26T09:15:07.232Z</time></trkpt><trkpt lat="42.896195" lon="12.9082467"><ele>749.0</ele><time>2026-04-26T09:15:08.237Z</time></trkpt><trkpt lat="42.8960617" lon="12.9083517"><ele>749.0</ele><time>2026-04-26T09:15:09.235Z</time></trkpt><trkpt lat="42.895895" lon="12.9084417"><ele>749.0</ele><time>2026-04-26T09:15:10.231Z</time></trkpt><trkpt lat="42.8957083" lon="12.908505"><ele>741.0</ele><time>2026-04-26T09:15:11.236Z</time></trkpt><trkpt lat="42.8955067" lon="12.908515"><ele>733.0</ele><time>2026-04-26T09:15:12.234Z</time></trkpt><trkpt lat="42.8953067" lon="12.9084983"><ele>725.0</ele><time>2026-04-26T09:15:13.234Z</time></trkpt><trkpt lat="42.8951183" lon="12.9084783"><ele>724.6666666666666</ele><time>2026-04-26T09:15:14.236Z</time></trkpt><trkpt lat="42.89493" lon="12.9084633"><ele>724.3333333333334</ele><time>2026-04-26T09:15:15.238Z</time></trkpt><trkpt lat="42.8947483" lon="12.908465"><ele>724.0</ele><time>2026-04-26T09:15:16.231Z</time></trkpt><trkpt lat="42.8945833" lon="12.9085217"><ele>724.0</ele><time>2026-04-26T09:15:17.234Z</time></trkpt><trkpt lat="42.89444" lon="12.908635"><ele>724.0</ele><time>2026-04-26T09:15:18.231Z</time></trkpt><trkpt lat="42.894305" lon="12.9087967"><ele>724.0</ele><time>2026-04-26T09:15:19.235Z</time></trkpt><trkpt lat="42.8941617" lon="12.90896"><ele>722.3333333333334</ele><time>2026-04-26T09:15:20.237Z</time></trkpt><trkpt lat="42.8940133" lon="12.9091233"><ele>720.6666666666666</ele><time>2026-04-26T09:15:21.235Z</time></trkpt><trkpt lat="42.8938583" lon="12.9092733"><ele>719.0</ele><time>2026-04-26T09:15:22.238Z</time></trkpt><trkpt lat="42.8936917" lon="12.9094067"><ele>719.0</ele><time>2026-04-26T09:15:23.235Z</time></trkpt><trkpt lat="42.8935183" lon="12.9095083"><ele>719.0</ele><time>2026-04-26T09:15:24.232Z</time></trkpt><trkpt lat="42.8933417" lon="12.90961"><ele>719.0</ele><time>2026-04-26T09:15:25.232Z</time></trkpt><trkpt lat="42.893165" lon="12.9097067"><ele>720.0</ele><time>2026-04-26T09:15:26.234Z</time></trkpt><trkpt lat="42.8929883" lon="12.9097967"><ele>721.0</ele><time>2026-04-26T09:15:27.231Z</time></trkpt><trkpt lat="42.892815" lon="12.9098833"><ele>722.0</ele><time>2026-04-26T09:15:28.233Z</time></trkpt><trkpt lat="42.8926433" lon="12.9099733"><ele>723.0</ele><time>2026-04-26T09:15:29.232Z</time></trkpt><trkpt lat="42.892485" lon="12.91007"><ele>724.0</ele><time>2026-04-26T09:15:30.235Z</time></trkpt><trkpt lat="42.8923433" lon="12.91019"><ele>725.0</ele><time>2026-04-26T09:15:31.232Z</time></trkpt><trkpt lat="42.8922267" lon="12.910345"><ele>721.0</ele><time>2026-04-26T09:15:32.232Z</time></trkpt><trkpt lat="42.8921317" lon="12.9105267"><ele>717.0</ele><time>2026-04-26T09:15:33.233Z</time></trkpt><trkpt lat="42.8920617" lon="12.9107383"><ele>713.0</ele><time>2026-04-26T09:15:34.232Z</time></trkpt><trkpt lat="42.8920117" lon="12.91097"><ele>711.0</ele><time>2026-04-26T09:15:35.233Z</time></trkpt><trkpt lat="42.89198" lon="12.9112167"><ele>709.0</ele><time>2026-04-26T09:15:36.234Z</time></trkpt><trkpt lat="42.891945" lon="12.9114633"><ele>707.0</ele><time>2026-04-26T09:15:37.236Z</time></trkpt><trkpt lat="42.8919083" lon="12.911705"><ele>706.0</ele><time>2026-04-26T09:15:38.232Z</time></trkpt><trkpt lat="42.89187" lon="12.9119383"><ele>705.0</ele><time>2026-04-26T09:15:39.236Z</time></trkpt><trkpt lat="42.8918367" lon="12.9121617"><ele>704.0</ele><time>2026-04-26T09:15:40.231Z</time></trkpt><trkpt lat="42.8918" lon="12.91238"><ele>705.0</ele><time>2026-04-26T09:15:41.232Z</time></trkpt><trkpt lat="42.8917617" lon="12.9125867"><ele>706.0</ele><time>2026-04-26T09:15:42.231Z</time></trkpt><trkpt lat="42.89171" lon="12.912765"><ele>707.0</ele><time>2026-04-26T09:15:43.232Z</time></trkpt><trkpt lat="42.8916433" lon="12.9129117"><ele>708.0</ele><time>2026-04-26T09:15:44.232Z</time></trkpt><trkpt lat="42.8915617" lon="12.913015"><ele>709.25</ele><time>2026-04-26T09:15:45.232Z</time></trkpt><trkpt lat="42.8914717" lon="12.9130733"><ele>710.5</ele><time>2026-04-26T09:15:46.235Z</time></trkpt><trkpt lat="42.8913567" lon="12.9130917"><ele>711.75</ele><time>2026-04-26T09:15:47.233Z</time></trkpt><trkpt lat="42.8912167" lon="12.9130817"><ele>713.0</ele><time>2026-04-26T09:15:48.232Z</time></trkpt><trkpt lat="42.89105" lon="12.9130717"><ele>711.6666666666666</ele><time>2026-04-26T09:15:49.235Z</time></trkpt><trkpt lat="42.8908733" lon="12.9130633"><ele>710.3333333333334</ele><time>2026-04-26T09:15:50.236Z</time></trkpt><trkpt lat="42.8907" lon="12.9130583"><ele>709.0</ele><time>2026-04-26T09:15:51.235Z</time></trkpt><trkpt lat="42.8905167" lon="12.9130483"><ele>709.0</ele><time>2026-04-26T09:15:52.231Z</time></trkpt><trkpt lat="42.8903333" lon="12.91304"><ele>709.0</ele><time>2026-04-26T09:15:53.232Z</time></trkpt><trkpt lat="42.8901533" lon="12.91304"><ele>709.0</ele><time>2026-04-26T09:15:54.233Z</time></trkpt><trkpt lat="42.8899717" lon="12.913035"><ele>706.6666666666667</ele><time>2026-04-26T09:15:55.233Z</time></trkpt><trkpt lat="42.8897867" lon="12.9130267"><ele>704.3333333333334</ele><time>2026-04-26T09:15:56.234Z</time></trkpt><trkpt lat="42.889595" lon="12.913015"><ele>702.0</ele><time>2026-04-26T09:15:57.231Z</time></trkpt><trkpt lat="42.8894033" lon="12.9130117"><ele>701.3333333333334</ele><time>2026-04-26T09:15:58.232Z</time></trkpt><trkpt lat="42.8892083" lon="12.9130083"><ele>700.6666666666667</ele><time>2026-04-26T09:15:59.232Z</time></trkpt><trkpt lat="42.889015" lon="12.913"><ele>700.0</ele><time>2026-04-26T09:16:00.233Z</time></trkpt><trkpt lat="42.8888283" lon="12.91299"><ele>700.0</ele><time>2026-04-26T09:16:01.235Z</time></trkpt><trkpt lat="42.88865" lon="12.9129783"><ele>700.0</ele><time>2026-04-26T09:16:02.234Z</time></trkpt><trkpt lat="42.88848" lon="12.9129583"><ele>700.0</ele><time>2026-04-26T09:16:03.24Z</time></trkpt><trkpt lat="42.888315" lon="12.9129217"><ele>698.3333333333334</ele><time>2026-04-26T09:16:04.231Z</time></trkpt><trkpt lat="42.888165" lon="12.9128533"><ele>696.6666666666666</ele><time>2026-04-26T09:16:05.232Z</time></trkpt><trkpt lat="42.88801" lon="12.9127283"><ele>695.0</ele><time>2026-04-26T09:16:06.235Z</time></trkpt><trkpt lat="42.8878483" lon="12.9125817"><ele>692.6666666666666</ele><time>2026-04-26T09:16:07.235Z</time></trkpt><trkpt lat="42.88768" lon="12.91242"><ele>690.3333333333334</ele><time>2026-04-26T09:16:08.235Z</time></trkpt><trkpt lat="42.887515" lon="12.9122617"><ele>688.0</ele><time>2026-04-26T09:16:09.236Z</time></trkpt><trkpt lat="42.8873567" lon="12.9121"><ele>688.0</ele><time>2026-04-26T09:16:10.233Z</time></trkpt><trkpt lat="42.8872033" lon="12.9119333"><ele>688.0</ele><time>2026-04-26T09:16:11.236Z</time></trkpt><trkpt lat="42.88706" lon="12.91177"><ele>688.0</ele><time>2026-04-26T09:16:12.233Z</time></trkpt><trkpt lat="42.8869317" lon="12.911605"><ele>685.6666666666667</ele><time>2026-04-26T09:16:13.235Z</time></trkpt><trkpt lat="42.886805" lon="12.9114267"><ele>683.3333333333334</ele><time>2026-04-26T09:16:14.231Z</time></trkpt><trkpt lat="42.8866933" lon="12.9112367"><ele>681.0</ele><time>2026-04-26T09:16:15.231Z</time></trkpt><trkpt lat="42.8865917" lon="12.911025"><ele>686.6666666666666</ele><time>2026-04-26T09:16:16.234Z</time></trkpt><trkpt lat="42.8864833" lon="12.9108033"><ele>692.3333333333333</ele><time>2026-04-26T09:16:17.233Z</time></trkpt><trkpt lat="42.886375" lon="12.9105817"><ele>698.0</ele><time>2026-04-26T09:16:18.237Z</time></trkpt><trkpt lat="42.8862667" lon="12.910365"><ele>698.0</ele><time>2026-04-26T09:16:19.236Z</time></trkpt><trkpt lat="42.8861633" lon="12.910155"><ele>698.0</ele><time>2026-04-26T09:16:20.234Z</time></trkpt><trkpt lat="42.886065" lon="12.9099483"><ele>698.0</ele><time>2026-04-26T09:16:21.235Z</time></trkpt><trkpt lat="42.8859933" lon="12.9097383"><ele>694.6666666666666</ele><time>2026-04-26T09:16:22.233Z</time></trkpt><trkpt lat="42.8859367" lon="12.9095383"><ele>691.3333333333334</ele><time>2026-04-26T09:16:23.233Z</time></trkpt><trkpt lat="42.885905" lon="12.90934"><ele>688.0</ele><time>2026-04-26T09:16:24.23Z</time></trkpt><trkpt lat="42.8858583" lon="12.9091533"><ele>688.0</ele><time>2026-04-26T09:16:25.233Z</time></trkpt><trkpt lat="42.8857733" lon="12.9090033"><ele>688.0</ele><time>2026-04-26T09:16:26.234Z</time></trkpt><trkpt lat="42.8856467" lon="12.9088983"><ele>688.0</ele><time>2026-04-26T09:16:27.236Z</time></trkpt><trkpt lat="42.885515" lon="12.9088167"><ele>688.0</ele><time>2026-04-26T09:16:28.235Z</time></trkpt><trkpt lat="42.8853867" lon="12.908765"><ele>688.0</ele><time>2026-04-26T09:16:29.232Z</time></trkpt><trkpt lat="42.8852767" lon="12.9087667"><ele>688.0</ele><time>2026-04-26T09:16:30.235Z</time></trkpt><trkpt lat="42.8851867" lon="12.90882"><ele>688.0</ele><time>2026-04-26T09:16:31.232Z</time></trkpt><trkpt lat="42.885135" lon="12.908935"><ele>688.0</ele><time>2026-04-26T09:16:32.23Z</time></trkpt><trkpt lat="42.8851267" lon="12.9090833"><ele>688.0</ele><time>2026-04-26T09:16:33.235Z</time></trkpt><trkpt lat="42.8851683" lon="12.909275"><ele>687.0</ele><time>2026-04-26T09:16:34.234Z</time></trkpt><trkpt lat="42.885255" lon="12.9095267"><ele>686.0</ele><time>2026-04-26T09:16:35.233Z</time></trkpt><trkpt lat="42.8853383" lon="12.9097833"><ele>685.0</ele><time>2026-04-26T09:16:36.233Z</time></trkpt><trkpt lat="42.8854017" lon="12.9100467"><ele>683.6666666666667</ele><time>2026-04-26T09:16:37.233Z</time></trkpt><trkpt lat="42.8854517" lon="12.910325"><ele>682.3333333333334</ele><time>2026-04-26T09:16:38.231Z</time></trkpt><trkpt lat="42.8854817" lon="12.9106283"><ele>681.0</ele><time>2026-04-26T09:16:39.234Z</time></trkpt><trkpt lat="42.8855083" lon="12.9109383"><ele>678.0</ele><time>2026-04-26T09:16:40.232Z</time></trkpt><trkpt lat="42.885535" lon="12.9112417"><ele>675.0</ele><time>2026-04-26T09:16:41.234Z</time></trkpt><trkpt lat="42.8855433" lon="12.9115333"><ele>672.0</ele><time>2026-04-26T09:16:42.233Z</time></trkpt><trkpt lat="42.8855317" lon="12.9118167"><ele>671.3333333333334</ele><time>2026-04-26T09:16:43.232Z</time></trkpt><trkpt lat="42.8855033" lon="12.9120867"><ele>670.6666666666667</ele><time>2026-04-26T09:16:44.236Z</time></trkpt><trkpt lat="42.8854733" lon="12.9123483"><ele>670.0</ele><time>2026-04-26T09:16:45.236Z</time></trkpt><trkpt lat="42.88544" lon="12.912595"><ele>670.0</ele><time>2026-04-26T09:16:46.233Z</time></trkpt><trkpt lat="42.88542" lon="12.9128367"><ele>670.0</ele><time>2026-04-26T09:16:47.233Z</time></trkpt><trkpt lat="42.8854367" lon="12.913055"><ele>670.0</ele><time>2026-04-26T09:16:48.236Z</time></trkpt><trkpt lat="42.885505" lon="12.913255"><ele>671.0</ele><time>2026-04-26T09:16:49.235Z</time></trkpt><trkpt lat="42.8855983" lon="12.9134467"><ele>672.0</ele><time>2026-04-26T09:16:50.235Z</time></trkpt><trkpt lat="42.88569" lon="12.9136367"><ele>673.0</ele><time>2026-04-26T09:16:51.236Z</time></trkpt><trkpt lat="42.8857517" lon="12.9138483"><ele>673.0</ele><time>2026-04-26T09:16:52.235Z</time></trkpt><trkpt lat="42.885765" lon="12.914085"><ele>673.0</ele><time>2026-04-26T09:16:53.232Z</time></trkpt><trkpt lat="42.8857583" lon="12.91432"><ele>673.0</ele><time>2026-04-26T09:16:54.233Z</time></trkpt><trkpt lat="42.88573" lon="12.914545"><ele>671.0</ele><time>2026-04-26T09:16:55.233Z</time></trkpt><trkpt lat="42.885705" lon="12.9147517"><ele>669.0</ele><time>2026-04-26T09:16:56.233Z</time></trkpt><trkpt lat="42.8856417" lon="12.9149433"><ele>667.0</ele><time>2026-04-26T09:16:57.236Z</time></trkpt><trkpt lat="42.885565" lon="12.915115"><ele>665.5</ele><time>2026-04-26T09:16:58.233Z</time></trkpt><trkpt lat="42.8854867" lon="12.9152767"><ele>664.0</ele><time>2026-04-26T09:16:59.232Z</time></trkpt><trkpt lat="42.8854417" lon="12.9154533"><ele>662.5</ele><time>2026-04-26T09:17:00.234Z</time></trkpt><trkpt lat="42.8854067" lon="12.91565"><ele>661.0</ele><time>2026-04-26T09:17:01.233Z</time></trkpt><trkpt lat="42.88543" lon="12.9158583"><ele>664.6666666666667</ele><time>2026-04-26T09:17:02.232Z</time></trkpt><trkpt lat="42.8854983" lon="12.91607"><ele>668.3333333333334</ele><time>2026-04-26T09:17:03.234Z</time></trkpt><trkpt lat="42.8855933" lon="12.9162367"><ele>672.0</ele><time>2026-04-26T09:17:04.232Z</time></trkpt><trkpt lat="42.885715" lon="12.916365"><ele>672.0</ele><time>2026-04-26T09:17:05.233Z</time></trkpt><trkpt lat="42.8858667" lon="12.9164567"><ele>672.0</ele><time>2026-04-26T09:17:06.236Z</time></trkpt><trkpt lat="42.88603" lon="12.916535"><ele>672.0</ele><time>2026-04-26T09:17:07.236Z</time></trkpt><trkpt lat="42.88618" lon="12.9166167"><ele>665.0</ele><time>2026-04-26T09:17:08.233Z</time></trkpt><trkpt lat="42.8862933" lon="12.9167117"><ele>658.0</ele><time>2026-04-26T09:17:09.235Z</time></trkpt><trkpt lat="42.88636" lon="12.916825"><ele>651.0</ele><time>2026-04-26T09:17:10.235Z</time></trkpt><trkpt lat="42.88637" lon="12.9169783"><ele>644.0</ele><time>2026-04-26T09:17:11.232Z</time></trkpt><trkpt lat="42.88633" lon="12.9171767"><ele>644.0</ele><time>2026-04-26T09:17:12.233Z</time></trkpt><trkpt lat="42.8862817" lon="12.9173867"><ele>644.0</ele><time>2026-04-26T09:17:13.234Z</time></trkpt><trkpt lat="42.8862333" lon="12.9176033"><ele>644.0</ele><time>2026-04-26T09:17:14.232Z</time></trkpt><trkpt lat="42.8861833" lon="12.91781"><ele>643.6666666666666</ele><time>2026-04-26T09:17:15.234Z</time></trkpt><trkpt lat="42.8861517" lon="12.9180133"><ele>643.3333333333334</ele><time>2026-04-26T09:17:16.231Z</time></trkpt><trkpt lat="42.8861333" lon="12.91822"><ele>643.0</ele><time>2026-04-26T09:17:17.231Z</time></trkpt><trkpt lat="42.8861217" lon="12.91843"><ele>642.3333333333334</ele><time>2026-04-26T09:17:18.233Z</time></trkpt><trkpt lat="42.8861167" lon="12.9186433"><ele>641.6666666666666</ele><time>2026-04-26T09:17:19.232Z</time></trkpt><trkpt lat="42.8861217" lon="12.918855"><ele>641.0</ele><time>2026-04-26T09:17:20.232Z</time></trkpt><trkpt lat="42.886125" lon="12.9190667"><ele>640.0</ele><time>2026-04-26T09:17:21.236Z</time></trkpt><trkpt lat="42.88613" lon="12.9192833"><ele>639.0</ele><time>2026-04-26T09:17:22.234Z</time></trkpt><trkpt lat="42.8861283" lon="12.9195083"><ele>638.0</ele><time>2026-04-26T09:17:23.233Z</time></trkpt><trkpt lat="42.8861283" lon="12.9197333"><ele>638.0</ele><time>2026-04-26T09:17:24.231Z</time></trkpt><trkpt lat="42.8861317" lon="12.9199517"><ele>638.0</ele><time>2026-04-26T09:17:25.231Z</time></trkpt><trkpt lat="42.8861367" lon="12.9201667"><ele>638.0</ele><time>2026-04-26T09:17:26.235Z</time></trkpt><trkpt lat="42.88614" lon="12.92038"><ele>637.3333333333333</ele><time>2026-04-26T09:17:27.235Z</time></trkpt><trkpt lat="42.886145" lon="12.9205917"><ele>636.6666666666666</ele><time>2026-04-26T09:17:28.232Z</time></trkpt><trkpt lat="42.88615" lon="12.9208"><ele>636.0</ele><time>2026-04-26T09:17:29.235Z</time></trkpt><trkpt lat="42.8861583" lon="12.9210067"><ele>636.0</ele><time>2026-04-26T09:17:30.234Z</time></trkpt><trkpt lat="42.8861683" lon="12.9212117"><ele>636.0</ele><time>2026-04-26T09:17:31.232Z</time></trkpt><trkpt lat="42.886195" lon="12.9214117"><ele>636.0</ele><time>2026-04-26T09:17:32.231Z</time></trkpt><trkpt lat="42.8862283" lon="12.92161"><ele>636.0</ele><time>2026-04-26T09:17:33.233Z</time></trkpt><trkpt lat="42.8862667" lon="12.9218067"><ele>636.0</ele><time>2026-04-26T09:17:34.232Z</time></trkpt><trkpt lat="42.886315" lon="12.9219917"><ele>636.0</ele><time>2026-04-26T09:17:35.23Z</time></trkpt><trkpt lat="42.88637" lon="12.92217"><ele>636.0</ele><time>2026-04-26T09:17:36.236Z</time></trkpt><trkpt lat="42.8864333" lon="12.9223333"><ele>636.0</ele><time>2026-04-26T09:17:37.236Z</time></trkpt><trkpt lat="42.8864967" lon="12.9224817"><ele>635.75</ele><time>2026-04-26T09:17:38.231Z</time></trkpt><trkpt lat="42.8865733" lon="12.9226133"><ele>635.5</ele><time>2026-04-26T09:17:39.234Z</time></trkpt><trkpt lat="42.8866567" lon="12.9227417"><ele>635.25</ele><time>2026-04-26T09:17:40.232Z</time></trkpt><trkpt lat="42.886745" lon="12.922865"><ele>635.0</ele><time>2026-04-26T09:17:41.232Z</time></trkpt><trkpt lat="42.8868367" lon="12.9229783"><ele>633.5</ele><time>2026-04-26T09:17:42.238Z</time></trkpt><trkpt lat="42.8869333" lon="12.9230783"><ele>632.0</ele><time>2026-04-26T09:17:43.234Z</time></trkpt><trkpt lat="42.887025" lon="12.9231717"><ele>630.5</ele><time>2026-04-26T09:17:44.235Z</time></trkpt><trkpt lat="42.88713" lon="12.9232517"><ele>629.0</ele><time>2026-04-26T09:17:45.233Z</time></trkpt><trkpt lat="42.8872417" lon="12.9233283"><ele>627.5</ele><time>2026-04-26T09:17:46.232Z</time></trkpt><trkpt lat="42.8873517" lon="12.9234017"><ele>626.0</ele><time>2026-04-26T09:17:47.232Z</time></trkpt><trkpt lat="42.8874667" lon="12.923475"><ele>624.5</ele><time>2026-04-26T09:17:48.233Z</time></trkpt><trkpt lat="42.8875733" lon="12.9235417"><ele>623.0</ele><time>2026-04-26T09:17:49.232Z</time></trkpt><trkpt lat="42.8876817" lon="12.9236083"><ele>623.0</ele><time>2026-04-26T09:17:50.236Z</time></trkpt><trkpt lat="42.88779" lon="12.92368"><ele>623.0</ele><time>2026-04-26T09:17:51.236Z</time></trkpt><trkpt lat="42.8878967" lon="12.923765"><ele>623.0</ele><time>2026-04-26T09:17:52.234Z</time></trkpt><trkpt lat="42.8879983" lon="12.9238683"><ele>623.0</ele><time>2026-04-26T09:17:53.231Z</time></trkpt><trkpt lat="42.8880717" lon="12.9239967"><ele>623.0</ele><time>2026-04-26T09:17:54.234Z</time></trkpt><trkpt lat="42.8881267" lon="12.92413"><ele>623.0</ele><time>2026-04-26T09:17:55.232Z</time></trkpt><trkpt lat="42.8881733" lon="12.9242467"><ele>623.0</ele><time>2026-04-26T09:17:56.232Z</time></trkpt><trkpt lat="42.8882083" lon="12.9243483"><ele>623.0</ele><time>2026-04-26T09:17:57.236Z</time></trkpt><trkpt lat="42.8882333" lon="12.924435"><ele>623.0</ele><time>2026-04-26T09:17:58.234Z</time></trkpt><trkpt lat="42.8882883" lon="12.9245733"><ele>624.3333333333333</ele><time>2026-04-26T09:18:00.233Z</time></trkpt><trkpt lat="42.8883033" lon="12.9246817"><ele>625.6666666666666</ele><time>2026-04-26T09:18:01.232Z</time></trkpt><trkpt lat="42.88831" lon="12.9247817"><ele>627.0</ele><time>2026-04-26T09:18:02.228Z</time></trkpt><trkpt lat="42.8882933" lon="12.924885"><ele>628.3333333333334</ele><time>2026-04-26T09:18:03.231Z</time></trkpt><trkpt lat="42.8882633" lon="12.9249917"><ele>629.6666666666667</ele><time>2026-04-26T09:18:04.234Z</time></trkpt><trkpt lat="42.8882167" lon="12.9250733"><ele>631.0</ele><time>2026-04-26T09:18:05.236Z</time></trkpt><trkpt lat="42.8881567" lon="12.9251533"><ele>631.4</ele><time>2026-04-26T09:18:07.231Z</time></trkpt><trkpt lat="42.8881167" lon="12.9252967"><ele>631.8</ele><time>2026-04-26T09:18:15.234Z</time></trkpt><trkpt lat="42.8880583" lon="12.92536"><ele>632.1999999999999</ele><time>2026-04-26T09:18:17.232Z</time></trkpt><trkpt lat="42.8879883" lon="12.9253733"><ele>632.6</ele><time>2026-04-26T09:18:18.234Z</time></trkpt><trkpt lat="42.8878783" lon="12.9253917"><ele>633.0</ele><time>2026-04-26T09:18:19.234Z</time></trkpt><trkpt lat="42.8877683" lon="12.92538"><ele>633.0</ele><time>2026-04-26T09:18:20.23Z</time></trkpt><trkpt lat="42.88765" lon="12.9253383"><ele>633.0</ele><time>2026-04-26T09:18:21.235Z</time></trkpt><trkpt lat="42.887525" lon="12.925225"><ele>633.0</ele><time>2026-04-26T09:18:22.231Z</time></trkpt><trkpt lat="42.887395" lon="12.9250933"><ele>633.0</ele><time>2026-04-26T09:18:23.231Z</time></trkpt><trkpt lat="42.887255" lon="12.9249567"><ele>633.0</ele><time>2026-04-26T09:18:24.23Z</time></trkpt><trkpt lat="42.8871067" lon="12.9248133"><ele>633.0</ele><time>2026-04-26T09:18:25.234Z</time></trkpt><trkpt lat="42.8869633" lon="12.9246567"><ele>633.0</ele><time>2026-04-26T09:18:26.232Z</time></trkpt><trkpt lat="42.8868317" lon="12.9244883"><ele>629.3333333333334</ele><time>2026-04-26T09:18:27.234Z</time></trkpt><trkpt lat="42.8867117" lon="12.9242917"><ele>625.6666666666667</ele><time>2026-04-26T09:18:28.231Z</time></trkpt><trkpt lat="42.8866033" lon="12.9240717"><ele>622.0</ele><time>2026-04-26T09:18:29.231Z</time></trkpt><trkpt lat="42.886505" lon="12.9238567"><ele>622.0</ele><time>2026-04-26T09:18:30.232Z</time></trkpt><trkpt lat="42.8864033" lon="12.9236517"><ele>622.0</ele><time>2026-04-26T09:18:31.233Z</time></trkpt><trkpt lat="42.88629" lon="12.923475"><ele>622.0</ele><time>2026-04-26T09:18:32.233Z</time></trkpt><trkpt lat="42.8861367" lon="12.9233233"><ele>618.3333333333334</ele><time>2026-04-26T09:18:33.236Z</time></trkpt><trkpt lat="42.8859733" lon="12.9231883"><ele>614.6666666666666</ele><time>2026-04-26T09:18:34.232Z</time></trkpt><trkpt lat="42.8857983" lon="12.9230767"><ele>611.0</ele><time>2026-04-26T09:18:35.232Z</time></trkpt><trkpt lat="42.8856383" lon="12.9229517"><ele>611.0</ele><time>2026-04-26T09:18:36.231Z</time></trkpt><trkpt lat="42.8854983" lon="12.9228117"><ele>611.0</ele><time>2026-04-26T09:18:37.235Z</time></trkpt><trkpt lat="42.8853833" lon="12.9226433"><ele>611.0</ele><time>2026-04-26T09:18:38.232Z</time></trkpt><trkpt lat="42.885285" lon="12.92245"><ele>607.0</ele><time>2026-04-26T09:18:39.233Z</time></trkpt><trkpt lat="42.8852" lon="12.9222483"><ele>603.0</ele><time>2026-04-26T09:18:40.234Z</time></trkpt><trkpt lat="42.8851133" lon="12.9220433"><ele>599.0</ele><time>2026-04-26T09:18:41.232Z</time></trkpt><trkpt lat="42.8850183" lon="12.9218533"><ele>606.3333333333333</ele><time>2026-04-26T09:18:42.237Z</time></trkpt><trkpt lat="42.8848917" lon="12.921695"><ele>613.6666666666666</ele><time>2026-04-26T09:18:43.232Z</time></trkpt><trkpt lat="42.8847517" lon="12.9215733"><ele>621.0</ele><time>2026-04-26T09:18:44.234Z</time></trkpt><trkpt lat="42.88459" lon="12.9214933"><ele>621.0</ele><time>2026-04-26T09:18:45.235Z</time></trkpt><trkpt lat="42.8844133" lon="12.9214517"><ele>621.0</ele><time>2026-04-26T09:18:46.234Z</time></trkpt><trkpt lat="42.8842183" lon="12.921435"><ele>621.0</ele><time>2026-04-26T09:18:47.233Z</time></trkpt><trkpt lat="42.8840167" lon="12.921445"><ele>615.3333333333334</ele><time>2026-04-26T09:18:48.232Z</time></trkpt><trkpt lat="42.8838267" lon="12.9214533"><ele>609.6666666666667</ele><time>2026-04-26T09:18:49.231Z</time></trkpt><trkpt lat="42.8836417" lon="12.92146"><ele>604.0</ele><time>2026-04-26T09:18:50.233Z</time></trkpt><trkpt lat="42.8834567" lon="12.9214467"><ele>601.3333333333334</ele><time>2026-04-26T09:18:51.237Z</time></trkpt><trkpt lat="42.8832833" lon="12.9214217"><ele>598.6666666666666</ele><time>2026-04-26T09:18:52.235Z</time></trkpt><trkpt lat="42.8831183" lon="12.9214333"><ele>596.0</ele><time>2026-04-26T09:18:53.232Z</time></trkpt><trkpt lat="42.8829633" lon="12.9214783"><ele>596.0</ele><time>2026-04-26T09:18:54.23Z</time></trkpt><trkpt lat="42.8827967" lon="12.9215917"><ele>596.0</ele><time>2026-04-26T09:18:55.231Z</time></trkpt><trkpt lat="42.8826217" lon="12.9217133"><ele>596.0</ele><time>2026-04-26T09:18:56.237Z</time></trkpt><trkpt lat="42.8824417" lon="12.9218233"><ele>586.6666666666666</ele><time>2026-04-26T09:18:57.234Z</time></trkpt><trkpt lat="42.8822633" lon="12.9219233"><ele>577.3333333333334</ele><time>2026-04-26T09:18:58.234Z</time></trkpt><trkpt lat="42.8820883" lon="12.9220117"><ele>568.0</ele><time>2026-04-26T09:18:59.235Z</time></trkpt><trkpt lat="42.881905" lon="12.9220833"><ele>569.6666666666667</ele><time>2026-04-26T09:19:00.232Z</time></trkpt><trkpt lat="42.8817067" lon="12.92213"><ele>571.3333333333334</ele><time>2026-04-26T09:19:01.232Z</time></trkpt><trkpt lat="42.8814983" lon="12.9221633"><ele>573.0</ele><time>2026-04-26T09:19:02.233Z</time></trkpt><trkpt lat="42.8812733" lon="12.9221983"><ele>573.0</ele><time>2026-04-26T09:19:03.232Z</time></trkpt><trkpt lat="42.88104" lon="12.922235"><ele>573.0</ele><time>2026-04-26T09:19:04.234Z</time></trkpt><trkpt lat="42.880795" lon="12.9222783"><ele>576.0</ele><time>2026-04-26T09:19:05.233Z</time></trkpt><trkpt lat="42.880545" lon="12.92232"><ele>579.0</ele><time>2026-04-26T09:19:06.232Z</time></trkpt><trkpt lat="42.8802983" lon="12.9223533"><ele>578.5</ele><time>2026-04-26T09:19:07.232Z</time></trkpt><trkpt lat="42.8800667" lon="12.9223733"><ele>578.0</ele><time>2026-04-26T09:19:08.232Z</time></trkpt><trkpt lat="42.879845" lon="12.92239"><ele>578.0</ele><time>2026-04-26T09:19:09.242Z</time></trkpt><trkpt lat="42.87963" lon="12.92241"><ele>578.0</ele><time>2026-04-26T09:19:10.232Z</time></trkpt><trkpt lat="42.879425" lon="12.9224267"><ele>578.0</ele><time>2026-04-26T09:19:11.233Z</time></trkpt><trkpt lat="42.879235" lon="12.9224717"><ele>580.0</ele><time>2026-04-26T09:19:12.231Z</time></trkpt><trkpt lat="42.8790633" lon="12.9225583"><ele>582.0</ele><time>2026-04-26T09:19:13.236Z</time></trkpt><trkpt lat="42.8789167" lon="12.9227"><ele>584.0</ele><time>2026-04-26T09:19:14.233Z</time></trkpt><trkpt lat="42.8787817" lon="12.9228667"><ele>575.6666666666666</ele><time>2026-04-26T09:19:15.232Z</time></trkpt><trkpt lat="42.87864" lon="12.9230033"><ele>567.3333333333334</ele><time>2026-04-26T09:19:16.232Z</time></trkpt><trkpt lat="42.8784867" lon="12.923105"><ele>559.0</ele><time>2026-04-26T09:19:17.232Z</time></trkpt><trkpt lat="42.878315" lon="12.9231717"><ele>559.0</ele><time>2026-04-26T09:19:18.232Z</time></trkpt><trkpt lat="42.8781233" lon="12.92322"><ele>559.0</ele><time>2026-04-26T09:19:19.235Z</time></trkpt><trkpt lat="42.877925" lon="12.9232433"><ele>559.0</ele><time>2026-04-26T09:19:20.234Z</time></trkpt><trkpt lat="42.8777183" lon="12.923255"><ele>560.3333333333334</ele><time>2026-04-26T09:19:21.232Z</time></trkpt><trkpt lat="42.877515" lon="12.9232517"><ele>561.6666666666666</ele><time>2026-04-26T09:19:22.234Z</time></trkpt><trkpt lat="42.8773217" lon="12.9232317"><ele>563.0</ele><time>2026-04-26T09:19:23.231Z</time></trkpt><trkpt lat="42.87714" lon="12.9231983"><ele>563.0</ele><time>2026-04-26T09:19:24.233Z</time></trkpt><trkpt lat="42.876975" lon="12.9231517"><ele>563.0</ele><time>2026-04-26T09:19:25.23Z</time></trkpt><trkpt lat="42.8768183" lon="12.9231117"><ele>563.0</ele><time>2026-04-26T09:19:26.231Z</time></trkpt><trkpt lat="42.876675" lon="12.92309"><ele>561.75</ele><time>2026-04-26T09:19:27.236Z</time></trkpt><trkpt lat="42.87655" lon="12.923105"><ele>560.5</ele><time>2026-04-26T09:19:28.237Z</time></trkpt><trkpt lat="42.876445" lon="12.9231883"><ele>559.25</ele><time>2026-04-26T09:19:29.231Z</time></trkpt><trkpt lat="42.8763517" lon="12.9233067"><ele>558.0</ele><time>2026-04-26T09:19:30.23Z</time></trkpt><trkpt lat="42.8763" lon="12.923475"><ele>551.75</ele><time>2026-04-26T09:19:31.231Z</time></trkpt><trkpt lat="42.8762433" lon="12.9236383"><ele>545.5</ele><time>2026-04-26T09:19:32.234Z</time></trkpt><trkpt lat="42.87617" lon="12.9237567"><ele>539.25</ele><time>2026-04-26T09:19:33.235Z</time></trkpt><trkpt lat="42.87608" lon="12.92381"><ele>533.0</ele><time>2026-04-26T09:19:34.231Z</time></trkpt><trkpt lat="42.8759567" lon="12.923785"><ele>535.6666666666666</ele><time>2026-04-26T09:19:35.231Z</time></trkpt><trkpt lat="42.8758133" lon="12.9237033"><ele>538.3333333333334</ele><time>2026-04-26T09:19:36.232Z</time></trkpt><trkpt lat="42.875645" lon="12.9235867"><ele>541.0</ele><time>2026-04-26T09:19:37.231Z</time></trkpt><trkpt lat="42.8754567" lon="12.92347"><ele>545.0</ele><time>2026-04-26T09:19:38.232Z</time></trkpt><trkpt lat="42.8752617" lon="12.9233617"><ele>549.0</ele><time>2026-04-26T09:19:39.233Z</time></trkpt><trkpt lat="42.8750517" lon="12.9232817"><ele>553.0</ele><time>2026-04-26T09:19:40.232Z</time></trkpt><trkpt lat="42.8748417" lon="12.9232333"><ele>553.0</ele><time>2026-04-26T09:19:41.232Z</time></trkpt><trkpt lat="42.874635" lon="12.9232133"><ele>553.0</ele><time>2026-04-26T09:19:42.236Z</time></trkpt><trkpt lat="42.8744267" lon="12.9231967"><ele>553.0</ele><time>2026-04-26T09:19:43.233Z</time></trkpt><trkpt lat="42.8742183" lon="12.923185"><ele>549.3333333333334</ele><time>2026-04-26T09:19:44.233Z</time></trkpt><trkpt lat="42.87401" lon="12.9231867"><ele>545.6666666666666</ele><time>2026-04-26T09:19:45.234Z</time></trkpt><trkpt lat="42.8737967" lon="12.9232083"><ele>542.0</ele><time>2026-04-26T09:19:46.233Z</time></trkpt><trkpt lat="42.8735733" lon="12.9232417"><ele>541.5</ele><time>2026-04-26T09:19:47.235Z</time></trkpt><trkpt lat="42.873345" lon="12.9232817"><ele>541.0</ele><time>2026-04-26T09:19:48.233Z</time></trkpt><trkpt lat="42.8731133" lon="12.92333"><ele>541.0</ele><time>2026-04-26T09:19:49.234Z</time></trkpt><trkpt lat="42.8728883" lon="12.9233783"><ele>541.0</ele><time>2026-04-26T09:19:50.235Z</time></trkpt><trkpt lat="42.8726667" lon="12.9234383"><ele>534.0</ele><time>2026-04-26T09:19:51.235Z</time></trkpt><trkpt lat="42.8724583" lon="12.9234983"><ele>527.0</ele><time>2026-04-26T09:19:52.233Z</time></trkpt><trkpt lat="42.87227" lon="12.923565"><ele>520.0</ele><time>2026-04-26T09:19:53.232Z</time></trkpt><trkpt lat="42.872105" lon="12.92365"><ele>520.0</ele><time>2026-04-26T09:19:54.234Z</time></trkpt><trkpt lat="42.8719667" lon="12.92376"><ele>520.0</ele><time>2026-04-26T09:19:55.231Z</time></trkpt><trkpt lat="42.871855" lon="12.9239133"><ele>520.0</ele><time>2026-04-26T09:19:56.232Z</time></trkpt><trkpt lat="42.87178" lon="12.924105"><ele>520.75</ele><time>2026-04-26T09:19:57.235Z</time></trkpt><trkpt lat="42.871755" lon="12.92431"><ele>521.5</ele><time>2026-04-26T09:19:58.232Z</time></trkpt><trkpt lat="42.87177" lon="12.9245"><ele>522.25</ele><time>2026-04-26T09:19:59.232Z</time></trkpt><trkpt lat="42.8718267" lon="12.924655"><ele>523.0</ele><time>2026-04-26T09:20:00.232Z</time></trkpt><trkpt lat="42.87191" lon="12.9247767"><ele>521.6</ele><time>2026-04-26T09:20:01.231Z</time></trkpt><trkpt lat="42.8719733" lon="12.9249017"><ele>520.1999999999999</ele><time>2026-04-26T09:20:02.233Z</time></trkpt><trkpt lat="42.871995" lon="12.9250233"><ele>518.8</ele><time>2026-04-26T09:20:03.233Z</time></trkpt><trkpt lat="42.871975" lon="12.9251283"><ele>517.4</ele><time>2026-04-26T09:20:04.231Z</time></trkpt><trkpt lat="42.8719133" lon="12.9252017"><ele>516.0</ele><time>2026-04-26T09:20:05.232Z</time></trkpt><trkpt lat="42.8718083" lon="12.9252333"><ele>513.3333333333334</ele><time>2026-04-26T09:20:06.235Z</time></trkpt><trkpt lat="42.8716633" lon="12.9252317"><ele>510.6666666666667</ele><time>2026-04-26T09:20:07.232Z</time></trkpt><trkpt lat="42.87148" lon="12.92522"><ele>508.0</ele><time>2026-04-26T09:20:08.233Z</time></trkpt><trkpt lat="42.8712883" lon="12.92522"><ele>508.0</ele><time>2026-04-26T09:20:09.232Z</time></trkpt><trkpt lat="42.8710933" lon="12.9252217"><ele>508.0</ele><time>2026-04-26T09:20:10.235Z</time></trkpt><trkpt lat="42.8709017" lon="12.9252233"><ele>508.0</ele><time>2026-04-26T09:20:11.232Z</time></trkpt><trkpt lat="42.8707217" lon="12.9252333"><ele>506.33333333333337</ele><time>2026-04-26T09:20:12.234Z</time></trkpt><trkpt lat="42.8705483" lon="12.925245"><ele>504.66666666666663</ele><time>2026-04-26T09:20:13.233Z</time></trkpt><trkpt lat="42.8703767" lon="12.92529"><ele>503.0</ele><time>2026-04-26T09:20:14.233Z</time></trkpt><trkpt lat="42.8702067" lon="12.925365"><ele>503.3333333333333</ele><time>2026-04-26T09:20:15.233Z</time></trkpt><trkpt lat="42.8700533" lon="12.92548"><ele>503.66666666666663</ele><time>2026-04-26T09:20:16.231Z</time></trkpt><trkpt lat="42.869905" lon="12.9256"><ele>504.0</ele><time>2026-04-26T09:20:17.233Z</time></trkpt><trkpt lat="42.869745" lon="12.9256917"><ele>504.0</ele><time>2026-04-26T09:20:18.231Z</time></trkpt><trkpt lat="42.8695917" lon="12.9257417"><ele>504.0</ele><time>2026-04-26T09:20:19.234Z</time></trkpt><trkpt lat="42.8694233" lon="12.9257317"><ele>504.0</ele><time>2026-04-26T09:20:20.232Z</time></trkpt><trkpt lat="42.8692483" lon="12.9256833"><ele>502.33333333333337</ele><time>2026-04-26T09:20:21.234Z</time></trkpt><trkpt lat="42.8690833" lon="12.925615"><ele>500.6666666666667</ele><time>2026-04-26T09:20:22.233Z</time></trkpt><trkpt lat="42.868925" lon="12.9255517"><ele>499.0</ele><time>2026-04-26T09:20:23.232Z</time></trkpt><trkpt lat="42.8687683" lon="12.925535"><ele>499.0</ele><time>2026-04-26T09:20:24.233Z</time></trkpt><trkpt lat="42.8686283" lon="12.9255733"><ele>499.0</ele><time>2026-04-26T09:20:25.238Z</time></trkpt><trkpt lat="42.868485" lon="12.9256883"><ele>499.0</ele><time>2026-04-26T09:20:26.234Z</time></trkpt><trkpt lat="42.86835" lon="12.9258383"><ele>490.33333333333337</ele><time>2026-04-26T09:20:27.234Z</time></trkpt><trkpt lat="42.868215" lon="12.9259767"><ele>481.66666666666663</ele><time>2026-04-26T09:20:28.231Z</time></trkpt><trkpt lat="42.8680733" lon="12.9260633"><ele>473.0</ele><time>2026-04-26T09:20:29.231Z</time></trkpt><trkpt lat="42.8679167" lon="12.9260883"><ele>473.0</ele><time>2026-04-26T09:20:30.232Z</time></trkpt><trkpt lat="42.867745" lon="12.9260617"><ele>473.0</ele><time>2026-04-26T09:20:31.233Z</time></trkpt><trkpt lat="42.8675783" lon="12.9260283"><ele>473.0</ele><time>2026-04-26T09:20:32.233Z</time></trkpt><trkpt lat="42.8674233" lon="12.9259533"><ele>481.0</ele><time>2026-04-26T09:20:33.233Z</time></trkpt><trkpt lat="42.8672933" lon="12.9258383"><ele>489.0</ele><time>2026-04-26T09:20:34.232Z</time></trkpt><trkpt lat="42.867195" lon="12.9256767"><ele>497.0</ele><time>2026-04-26T09:20:35.231Z</time></trkpt><trkpt lat="42.8671367" lon="12.925465"><ele>497.0</ele><time>2026-04-26T09:20:36.23Z</time></trkpt><trkpt lat="42.8670733" lon="12.92525"><ele>497.0</ele><time>2026-04-26T09:20:37.233Z</time></trkpt><trkpt lat="42.866985" lon="12.9250383"><ele>497.0</ele><time>2026-04-26T09:20:38.23Z</time></trkpt><trkpt lat="42.866855" lon="12.9248667"><ele>493.3333333333333</ele><time>2026-04-26T09:20:39.236Z</time></trkpt><trkpt lat="42.8666983" lon="12.9247333"><ele>489.66666666666663</ele><time>2026-04-26T09:20:40.233Z</time></trkpt><trkpt lat="42.8665417" lon="12.924625"><ele>486.0</ele><time>2026-04-26T09:20:41.234Z</time></trkpt><trkpt lat="42.8663933" lon="12.9245183"><ele>486.0</ele><time>2026-04-26T09:20:42.232Z</time></trkpt><trkpt lat="42.86627" lon="12.9243883"><ele>486.0</ele><time>2026-04-26T09:20:43.232Z</time></trkpt><trkpt lat="42.8661783" lon="12.9242183"><ele>486.0</ele><time>2026-04-26T09:20:44.232Z</time></trkpt><trkpt lat="42.8661233" lon="12.9240067"><ele>488.33333333333337</ele><time>2026-04-26T09:20:45.233Z</time></trkpt><trkpt lat="42.8661033" lon="12.92376"><ele>490.6666666666667</ele><time>2026-04-26T09:20:46.232Z</time></trkpt><trkpt lat="42.86612" lon="12.92348"><ele>493.0</ele><time>2026-04-26T09:20:47.233Z</time></trkpt><trkpt lat="42.8661383" lon="12.9232033"><ele>493.0</ele><time>2026-04-26T09:20:48.232Z</time></trkpt><trkpt lat="42.866165" lon="12.9229567"><ele>493.0</ele><time>2026-04-26T09:20:49.232Z</time></trkpt><trkpt lat="42.866225" lon="12.92274"><ele>493.0</ele><time>2026-04-26T09:20:50.232Z</time></trkpt><trkpt lat="42.8663233" lon="12.92255"><ele>491.0</ele><time>2026-04-26T09:20:51.232Z</time></trkpt><trkpt lat="42.866465" lon="12.9223817"><ele>489.0</ele><time>2026-04-26T09:20:52.233Z</time></trkpt><trkpt lat="42.8666033" lon="12.9222267"><ele>487.0</ele><time>2026-04-26T09:20:53.23Z</time></trkpt><trkpt lat="42.8667233" lon="12.9220667"><ele>490.6666666666667</ele><time>2026-04-26T09:20:54.236Z</time></trkpt><trkpt lat="42.866815" lon="12.9218683"><ele>494.33333333333337</ele><time>2026-04-26T09:20:55.233Z</time></trkpt><trkpt lat="42.8668633" lon="12.92166"><ele>498.0</ele><time>2026-04-26T09:20:56.231Z</time></trkpt><trkpt lat="42.8668717" lon="12.9214567"><ele>498.0</ele><time>2026-04-26T09:20:57.232Z</time></trkpt><trkpt lat="42.8668483" lon="12.9212817"><ele>498.0</ele><time>2026-04-26T09:20:58.23Z</time></trkpt><trkpt lat="42.8667833" lon="12.9211517"><ele>498.0</ele><time>2026-04-26T09:20:59.233Z</time></trkpt><trkpt lat="42.866675" lon="12.9211"><ele>498.0</ele><time>2026-04-26T09:21:00.233Z</time></trkpt><trkpt lat="42.86653" lon="12.92112"><ele>490.66666666666663</ele><time>2026-04-26T09:21:01.232Z</time></trkpt><trkpt lat="42.8663517" lon="12.921165"><ele>483.3333333333333</ele><time>2026-04-26T09:21:02.232Z</time></trkpt><trkpt lat="42.86614" lon="12.9212333"><ele>476.0</ele><time>2026-04-26T09:21:03.232Z</time></trkpt><trkpt lat="42.8659233" lon="12.9213033"><ele>476.0</ele><time>2026-04-26T09:21:04.235Z</time></trkpt><trkpt lat="42.8657067" lon="12.9213783"><ele>476.0</ele><time>2026-04-26T09:21:05.234Z</time></trkpt><trkpt lat="42.8655" lon="12.9214583"><ele>476.0</ele><time>2026-04-26T09:21:06.233Z</time></trkpt><trkpt lat="42.8652983" lon="12.9215467"><ele>473.66666666666663</ele><time>2026-04-26T09:21:07.233Z</time></trkpt><trkpt lat="42.8651117" lon="12.9216317"><ele>471.33333333333337</ele><time>2026-04-26T09:21:08.235Z</time></trkpt><trkpt lat="42.8649433" lon="12.9217167"><ele>469.0</ele><time>2026-04-26T09:21:09.233Z</time></trkpt><trkpt lat="42.8648017" lon="12.9218133"><ele>469.0</ele><time>2026-04-26T09:21:10.233Z</time></trkpt><trkpt lat="42.8646833" lon="12.9219383"><ele>469.0</ele><time>2026-04-26T09:21:11.235Z</time></trkpt><trkpt lat="42.86461" lon="12.9221033"><ele>469.0</ele><time>2026-04-26T09:21:12.232Z</time></trkpt><trkpt lat="42.8645833" lon="12.9223167"><ele>468.33333333333337</ele><time>2026-04-26T09:21:13.23Z</time></trkpt><trkpt lat="42.8646033" lon="12.922595"><ele>467.66666666666663</ele><time>2026-04-26T09:21:14.23Z</time></trkpt><trkpt lat="42.8646067" lon="12.9228433"><ele>467.0</ele><time>2026-04-26T09:21:15.234Z</time></trkpt><trkpt lat="42.8645867" lon="12.923095"><ele>467.0</ele><time>2026-04-26T09:21:16.23Z</time></trkpt><trkpt lat="42.8645067" lon="12.92335"><ele>467.0</ele><time>2026-04-26T09:21:17.232Z</time></trkpt><trkpt lat="42.8644" lon="12.923585"><ele>467.0</ele><time>2026-04-26T09:21:18.232Z</time></trkpt><trkpt lat="42.8642883" lon="12.92381"><ele>468.3333333333333</ele><time>2026-04-26T09:21:19.233Z</time></trkpt><trkpt lat="42.864185" lon="12.92404"><ele>469.66666666666663</ele><time>2026-04-26T09:21:20.233Z</time></trkpt><trkpt lat="42.8641083" lon="12.9242767"><ele>471.0</ele><time>2026-04-26T09:21:21.235Z</time></trkpt><trkpt lat="42.864055" lon="12.9245133"><ele>471.0</ele><time>2026-04-26T09:21:22.231Z</time></trkpt><trkpt lat="42.8640367" lon="12.924745"><ele>471.0</ele><time>2026-04-26T09:21:23.235Z</time></trkpt><trkpt lat="42.8640667" lon="12.924975"><ele>471.0</ele><time>2026-04-26T09:21:24.235Z</time></trkpt><trkpt lat="42.8641367" lon="12.9251967"><ele>469.0</ele><time>2026-04-26T09:21:25.232Z</time></trkpt><trkpt lat="42.86424" lon="12.9253833"><ele>467.0</ele><time>2026-04-26T09:21:26.233Z</time></trkpt><trkpt lat="42.8643667" lon="12.9255517"><ele>465.0</ele><time>2026-04-26T09:21:27.234Z</time></trkpt><trkpt lat="42.86451" lon="12.9257017"><ele>465.0</ele><time>2026-04-26T09:21:28.233Z</time></trkpt><trkpt lat="42.8646467" lon="12.9258283"><ele>465.0</ele><time>2026-04-26T09:21:29.231Z</time></trkpt><trkpt lat="42.8647717" lon="12.9259367"><ele>465.0</ele><time>2026-04-26T09:21:30.231Z</time></trkpt><trkpt lat="42.8648767" lon="12.9260267"><ele>465.0</ele><time>2026-04-26T09:21:31.234Z</time></trkpt><trkpt lat="42.8649583" lon="12.9261133"><ele>465.2</ele><time>2026-04-26T09:21:32.236Z</time></trkpt><trkpt lat="42.865015" lon="12.926215"><ele>465.4</ele><time>2026-04-26T09:21:33.232Z</time></trkpt><trkpt lat="42.8650467" lon="12.9263367"><ele>465.6</ele><time>2026-04-26T09:21:34.231Z</time></trkpt><trkpt lat="42.8650667" lon="12.92647"><ele>465.8</ele><time>2026-04-26T09:21:35.232Z</time></trkpt><trkpt lat="42.8650767" lon="12.92661"><ele>466.0</ele><time>2026-04-26T09:21:36.231Z</time></trkpt><trkpt lat="42.86508" lon="12.9267633"><ele>466.0</ele><time>2026-04-26T09:21:37.236Z</time></trkpt><trkpt lat="42.8650717" lon="12.92692"><ele>466.0</ele><time>2026-04-26T09:21:38.231Z</time></trkpt><trkpt lat="42.8650517" lon="12.927075"><ele>466.0</ele><time>2026-04-26T09:21:39.232Z</time></trkpt><trkpt lat="42.8650117" lon="12.9272267"><ele>466.0</ele><time>2026-04-26T09:21:40.233Z</time></trkpt><trkpt lat="42.8649617" lon="12.9273733"><ele>466.0</ele><time>2026-04-26T09:21:41.231Z</time></trkpt><trkpt lat="42.8649033" lon="12.9275083"><ele>466.0</ele><time>2026-04-26T09:21:42.232Z</time></trkpt><trkpt lat="42.864835" lon="12.9276317"><ele>466.0</ele><time>2026-04-26T09:21:43.23Z</time></trkpt><trkpt lat="42.8647617" lon="12.9277483"><ele>466.0</ele><time>2026-04-26T09:21:44.233Z</time></trkpt><trkpt lat="42.8646833" lon="12.9278533"><ele>462.5</ele><time>2026-04-26T09:21:45.231Z</time></trkpt><trkpt lat="42.8645983" lon="12.92793"><ele>459.0</ele><time>2026-04-26T09:21:46.231Z</time></trkpt><trkpt lat="42.8645033" lon="12.92796"><ele>455.5</ele><time>2026-04-26T09:21:47.231Z</time></trkpt><trkpt lat="42.8643867" lon="12.9279517"><ele>452.0</ele><time>2026-04-26T09:21:48.239Z</time></trkpt><trkpt lat="42.864235" lon="12.92789"><ele>452.0</ele><time>2026-04-26T09:21:49.229Z</time></trkpt><trkpt lat="42.86406" lon="12.9277767"><ele>452.0</ele><time>2026-04-26T09:21:50.233Z</time></trkpt><trkpt lat="42.8638567" lon="12.92763"><ele>452.0</ele><time>2026-04-26T09:21:51.234Z</time></trkpt><trkpt lat="42.8636483" lon="12.9274917"><ele>458.3333333333333</ele><time>2026-04-26T09:21:52.234Z</time></trkpt><trkpt lat="42.863455" lon="12.9273767"><ele>464.66666666666663</ele><time>2026-04-26T09:21:53.233Z</time></trkpt><trkpt lat="42.863285" lon="12.92729"><ele>471.0</ele><time>2026-04-26T09:21:54.231Z</time></trkpt><trkpt lat="42.8631367" lon="12.9272517"><ele>471.0</ele><time>2026-04-26T09:21:55.233Z</time></trkpt><trkpt lat="42.8630033" lon="12.92727"><ele>471.0</ele><time>2026-04-26T09:21:56.23Z</time></trkpt><trkpt lat="42.8628983" lon="12.9273533"><ele>471.0</ele><time>2026-04-26T09:21:57.232Z</time></trkpt><trkpt lat="42.8628067" lon="12.92748"><ele>471.0</ele><time>2026-04-26T09:21:58.232Z</time></trkpt><trkpt lat="42.8627083" lon="12.927615"><ele>464.0</ele><time>2026-04-26T09:21:59.232Z</time></trkpt><trkpt lat="42.862585" lon="12.927705"><ele>457.0</ele><time>2026-04-26T09:22:00.229Z</time></trkpt><trkpt lat="42.8624517" lon="12.927735"><ele>450.0</ele><time>2026-04-26T09:22:01.235Z</time></trkpt><trkpt lat="42.8622933" lon="12.9276833"><ele>443.0</ele><time>2026-04-26T09:22:02.232Z</time></trkpt><trkpt lat="42.86211" lon="12.9275783"><ele>448.66666666666663</ele><time>2026-04-26T09:22:03.234Z</time></trkpt><trkpt lat="42.8619183" lon="12.92745"><ele>454.33333333333337</ele><time>2026-04-26T09:22:04.232Z</time></trkpt><trkpt lat="42.8617433" lon="12.9273117"><ele>460.0</ele><time>2026-04-26T09:22:05.231Z</time></trkpt><trkpt lat="42.8615833" lon="12.9272033"><ele>460.0</ele><time>2026-04-26T09:22:06.232Z</time></trkpt><trkpt lat="42.8614367" lon="12.9271533"><ele>460.0</ele><time>2026-04-26T09:22:07.23Z</time></trkpt><trkpt lat="42.8613083" lon="12.9271783"><ele>460.0</ele><time>2026-04-26T09:22:08.235Z</time></trkpt><trkpt lat="42.86119" lon="12.9272783"><ele>460.0</ele><time>2026-04-26T09:22:09.234Z</time></trkpt><trkpt lat="42.861065" lon="12.9274317"><ele>460.0</ele><time>2026-04-26T09:22:10.231Z</time></trkpt><trkpt lat="42.8609317" lon="12.92756"><ele>460.0</ele><time>2026-04-26T09:22:11.232Z</time></trkpt><trkpt lat="42.8607933" lon="12.92763"><ele>460.0</ele><time>2026-04-26T09:22:12.233Z</time></trkpt><trkpt lat="42.86066" lon="12.9276433"><ele>460.0</ele><time>2026-04-26T09:22:13.234Z</time></trkpt><trkpt lat="42.8605433" lon="12.9275883"><ele>460.0</ele><time>2026-04-26T09:22:14.232Z</time></trkpt><trkpt lat="42.8604383" lon="12.9274533"><ele>460.0</ele><time>2026-04-26T09:22:15.232Z</time></trkpt><trkpt lat="42.8603583" lon="12.9272333"><ele>460.0</ele><time>2026-04-26T09:22:16.232Z</time></trkpt><trkpt lat="42.8602517" lon="12.9270067"><ele>462.0</ele><time>2026-04-26T09:22:17.234Z</time></trkpt><trkpt lat="42.860115" lon="12.9268283"><ele>464.0</ele><time>2026-04-26T09:22:18.234Z</time></trkpt><trkpt lat="42.8599733" lon="12.92669"><ele>466.0</ele><time>2026-04-26T09:22:19.231Z</time></trkpt><trkpt lat="42.85983" lon="12.92661"><ele>466.0</ele><time>2026-04-26T09:22:20.233Z</time></trkpt><trkpt lat="42.8596783" lon="12.9266117"><ele>466.0</ele><time>2026-04-26T09:22:21.233Z</time></trkpt><trkpt lat="42.8595217" lon="12.9266867"><ele>466.0</ele><time>2026-04-26T09:22:22.236Z</time></trkpt><trkpt lat="42.859355" lon="12.9268467"><ele>458.0</ele><time>2026-04-26T09:22:23.235Z</time></trkpt><trkpt lat="42.8591767" lon="12.9270683"><ele>450.0</ele><time>2026-04-26T09:22:24.231Z</time></trkpt><trkpt lat="42.8589967" lon="12.9272917"><ele>450.0</ele><time>2026-04-26T09:22:25.232Z</time></trkpt><trkpt lat="42.8588383" lon="12.9274967"><ele>450.0</ele><time>2026-04-26T09:22:26.231Z</time></trkpt><trkpt lat="42.85871" lon="12.9276667"><ele>450.0</ele><time>2026-04-26T09:22:27.235Z</time></trkpt><trkpt lat="42.858585" lon="12.9277933"><ele>446.5</ele><time>2026-04-26T09:22:28.233Z</time></trkpt><trkpt lat="42.858465" lon="12.9278533"><ele>443.0</ele><time>2026-04-26T09:22:29.235Z</time></trkpt><trkpt lat="42.8583517" lon="12.9278383"><ele>439.5</ele><time>2026-04-26T09:22:30.23Z</time></trkpt><trkpt lat="42.8582467" lon="12.9277467"><ele>436.0</ele><time>2026-04-26T09:22:31.232Z</time></trkpt><trkpt lat="42.8581567" lon="12.9275833"><ele>441.33333333333337</ele><time>2026-04-26T09:22:32.235Z</time></trkpt><trkpt lat="42.858045" lon="12.92746"><ele>446.66666666666663</ele><time>2026-04-26T09:22:33.232Z</time></trkpt><trkpt lat="42.8579083" lon="12.92738"><ele>452.0</ele><time>2026-04-26T09:22:34.232Z</time></trkpt><trkpt lat="42.8577333" lon="12.9273167"><ele>445.0</ele><time>2026-04-26T09:22:35.231Z</time></trkpt><trkpt lat="42.8575067" lon="12.9272883"><ele>438.0</ele><time>2026-04-26T09:22:36.235Z</time></trkpt><trkpt lat="42.8572383" lon="12.927255"><ele>438.0</ele><time>2026-04-26T09:22:37.234Z</time></trkpt><trkpt lat="42.8569817" lon="12.927225"><ele>438.0</ele><time>2026-04-26T09:22:38.234Z</time></trkpt><trkpt lat="42.8567417" lon="12.9272033"><ele>436.0</ele><time>2026-04-26T09:22:39.234Z</time></trkpt><trkpt lat="42.8565133" lon="12.927175"><ele>434.0</ele><time>2026-04-26T09:22:40.235Z</time></trkpt><trkpt lat="42.8562967" lon="12.92715"><ele>432.0</ele><time>2026-04-26T09:22:41.232Z</time></trkpt><trkpt lat="42.8560883" lon="12.927125"><ele>432.0</ele><time>2026-04-26T09:22:42.231Z</time></trkpt><trkpt lat="42.855895" lon="12.92712"><ele>432.0</ele><time>2026-04-26T09:22:43.232Z</time></trkpt><trkpt lat="42.8557083" lon="12.9271667"><ele>432.0</ele><time>2026-04-26T09:22:44.235Z</time></trkpt><trkpt lat="42.8555267" lon="12.9272817"><ele>432.0</ele><time>2026-04-26T09:22:45.235Z</time></trkpt><trkpt lat="42.8553667" lon="12.92744"><ele>432.0</ele><time>2026-04-26T09:22:46.233Z</time></trkpt><trkpt lat="42.8552317" lon="12.9276033"><ele>432.0</ele><time>2026-04-26T09:22:47.229Z</time></trkpt><trkpt lat="42.8551067" lon="12.9277583"><ele>429.0</ele><time>2026-04-26T09:22:48.233Z</time></trkpt><trkpt lat="42.8549617" lon="12.9278667"><ele>426.0</ele><time>2026-04-26T09:22:49.235Z</time></trkpt><trkpt lat="42.854785" lon="12.92792"><ele>423.0</ele><time>2026-04-26T09:22:50.231Z</time></trkpt><trkpt lat="42.8545783" lon="12.9279133"><ele>423.0</ele><time>2026-04-26T09:22:51.233Z</time></trkpt><trkpt lat="42.8543767" lon="12.927865"><ele>423.0</ele><time>2026-04-26T09:22:52.232Z</time></trkpt><trkpt lat="42.8541833" lon="12.9278017"><ele>423.0</ele><time>2026-04-26T09:22:53.233Z</time></trkpt><trkpt lat="42.853995" lon="12.9277467"><ele>422.66666666666663</ele><time>2026-04-26T09:22:54.233Z</time></trkpt><trkpt lat="42.8538233" lon="12.9276983"><ele>422.3333333333333</ele><time>2026-04-26T09:22:55.233Z</time></trkpt><trkpt lat="42.85365" lon="12.9276533"><ele>422.0</ele><time>2026-04-26T09:22:56.23Z</time></trkpt><trkpt lat="42.8534767" lon="12.9276083"><ele>421.0</ele><time>2026-04-26T09:22:57.233Z</time></trkpt><trkpt lat="42.8533" lon="12.9275617"><ele>420.0</ele><time>2026-04-26T09:22:58.233Z</time></trkpt><trkpt lat="42.8531233" lon="12.9275167"><ele>419.0</ele><time>2026-04-26T09:22:59.232Z</time></trkpt><trkpt lat="42.8529467" lon="12.9274717"><ele>422.3333333333333</ele><time>2026-04-26T09:23:00.238Z</time></trkpt><trkpt lat="42.852775" lon="12.92743"><ele>425.66666666666663</ele><time>2026-04-26T09:23:01.233Z</time></trkpt><trkpt lat="42.8526017" lon="12.92739"><ele>429.0</ele><time>2026-04-26T09:23:02.234Z</time></trkpt><trkpt lat="42.8524333" lon="12.9273533"><ele>429.0</ele><time>2026-04-26T09:23:03.234Z</time></trkpt><trkpt lat="42.8522667" lon="12.9273167"><ele>429.0</ele><time>2026-04-26T09:23:04.231Z</time></trkpt><trkpt lat="42.852105" lon="12.927265"><ele>429.0</ele><time>2026-04-26T09:23:05.234Z</time></trkpt><trkpt lat="42.851955" lon="12.927195"><ele>429.0</ele><time>2026-04-26T09:23:06.234Z</time></trkpt><trkpt lat="42.8518117" lon="12.927115"><ele>429.0</ele><time>2026-04-26T09:23:07.237Z</time></trkpt><trkpt lat="42.8516683" lon="12.9270267"><ele>429.0</ele><time>2026-04-26T09:23:08.234Z</time></trkpt><trkpt lat="42.85153" lon="12.9269283"><ele>426.66666666666663</ele><time>2026-04-26T09:23:09.234Z</time></trkpt><trkpt lat="42.8514017" lon="12.92682"><ele>424.3333333333333</ele><time>2026-04-26T09:23:10.232Z</time></trkpt><trkpt lat="42.8512733" lon="12.92671"><ele>422.0</ele><time>2026-04-26T09:23:11.233Z</time></trkpt><trkpt lat="42.8511417" lon="12.9266033"><ele>423.3333333333333</ele><time>2026-04-26T09:23:12.232Z</time></trkpt><trkpt lat="42.8510033" lon="12.9265"><ele>424.66666666666663</ele><time>2026-04-26T09:23:13.231Z</time></trkpt><trkpt lat="42.8508633" lon="12.9263933"><ele>426.0</ele><time>2026-04-26T09:23:14.233Z</time></trkpt><trkpt lat="42.8507183" lon="12.9262967"><ele>426.0</ele><time>2026-04-26T09:23:15.233Z</time></trkpt><trkpt lat="42.8505717" lon="12.9262133"><ele>426.0</ele><time>2026-04-26T09:23:16.232Z</time></trkpt><trkpt lat="42.8504233" lon="12.926145"><ele>426.0</ele><time>2026-04-26T09:23:17.232Z</time></trkpt><trkpt lat="42.8502767" lon="12.9260817"><ele>426.0</ele><time>2026-04-26T09:23:18.232Z</time></trkpt><trkpt lat="42.85013" lon="12.92603"><ele>426.0</ele><time>2026-04-26T09:23:19.234Z</time></trkpt><trkpt lat="42.84998" lon="12.9259817"><ele>426.0</ele><time>2026-04-26T09:23:20.23Z</time></trkpt><trkpt lat="42.8498433" lon="12.9259317"><ele>426.0</ele><time>2026-04-26T09:23:21.232Z</time></trkpt><trkpt lat="42.8497" lon="12.9258867"><ele>426.25</ele><time>2026-04-26T09:23:22.233Z</time></trkpt><trkpt lat="42.8495583" lon="12.925835"><ele>426.5</ele><time>2026-04-26T09:23:23.229Z</time></trkpt><trkpt lat="42.8494167" lon="12.9257833"><ele>426.75</ele><time>2026-04-26T09:23:24.231Z</time></trkpt><trkpt lat="42.849275" lon="12.9257083"><ele>427.0</ele><time>2026-04-26T09:23:25.238Z</time></trkpt><trkpt lat="42.8491367" lon="12.92563"><ele>423.33333333333337</ele><time>2026-04-26T09:23:26.233Z</time></trkpt><trkpt lat="42.8489967" lon="12.9255583"><ele>419.66666666666663</ele><time>2026-04-26T09:23:27.233Z</time></trkpt><trkpt lat="42.8488533" lon="12.92549"><ele>416.0</ele><time>2026-04-26T09:23:28.233Z</time></trkpt><trkpt lat="42.8487133" lon="12.9254217"><ele>416.0</ele><time>2026-04-26T09:23:29.231Z</time></trkpt><trkpt lat="42.848575" lon="12.9253517"><ele>416.0</ele><time>2026-04-26T09:23:30.233Z</time></trkpt><trkpt lat="42.84844" lon="12.9252867"><ele>416.0</ele><time>2026-04-26T09:23:31.233Z</time></trkpt><trkpt lat="42.8483167" lon="12.92522"><ele>416.0</ele><time>2026-04-26T09:23:32.231Z</time></trkpt><trkpt lat="42.8481817" lon="12.9251533"><ele>415.0</ele><time>2026-04-26T09:23:33.234Z</time></trkpt><trkpt lat="42.8480417" lon="12.92509"><ele>414.0</ele><time>2026-04-26T09:23:34.231Z</time></trkpt><trkpt lat="42.8478933" lon="12.92503"><ele>413.0</ele><time>2026-04-26T09:23:35.235Z</time></trkpt><trkpt lat="42.8477483" lon="12.92497"><ele>413.5</ele><time>2026-04-26T09:23:36.232Z</time></trkpt><trkpt lat="42.847605" lon="12.9249133"><ele>414.0</ele><time>2026-04-26T09:23:37.233Z</time></trkpt><trkpt lat="42.847465" lon="12.92486"><ele>414.5</ele><time>2026-04-26T09:23:38.234Z</time></trkpt><trkpt lat="42.84733" lon="12.9248083"><ele>415.0</ele><time>2026-04-26T09:23:39.233Z</time></trkpt><trkpt lat="42.847195" lon="12.92476"><ele>415.0</ele><time>2026-04-26T09:23:40.233Z</time></trkpt><trkpt lat="42.84706" lon="12.9247167"><ele>415.0</ele><time>2026-04-26T09:23:41.232Z</time></trkpt><trkpt lat="42.846925" lon="12.92467"><ele>415.0</ele><time>2026-04-26T09:23:42.234Z</time></trkpt><trkpt lat="42.846785" lon="12.9246183"><ele>415.0</ele><time>2026-04-26T09:23:43.234Z</time></trkpt><trkpt lat="42.8466467" lon="12.924565"><ele>413.5</ele><time>2026-04-26T09:23:44.233Z</time></trkpt><trkpt lat="42.846505" lon="12.924505"><ele>412.0</ele><time>2026-04-26T09:23:45.237Z</time></trkpt><trkpt lat="42.8463633" lon="12.92444"><ele>410.5</ele><time>2026-04-26T09:23:46.233Z</time></trkpt><trkpt lat="42.8462183" lon="12.9243817"><ele>409.0</ele><time>2026-04-26T09:23:47.232Z</time></trkpt><trkpt lat="42.8460717" lon="12.9243317"><ele>409.25</ele><time>2026-04-26T09:23:48.231Z</time></trkpt><trkpt lat="42.8459267" lon="12.9242817"><ele>409.5</ele><time>2026-04-26T09:23:49.233Z</time></trkpt><trkpt lat="42.8457833" lon="12.924225"><ele>409.75</ele><time>2026-04-26T09:23:50.231Z</time></trkpt><trkpt lat="42.8456433" lon="12.9241667"><ele>410.0</ele><time>2026-04-26T09:23:51.234Z</time></trkpt><trkpt lat="42.8455" lon="12.924125"><ele>410.0</ele><time>2026-04-26T09:23:52.231Z</time></trkpt><trkpt lat="42.8453567" lon="12.9240817"><ele>410.0</ele><time>2026-04-26T09:23:53.23Z</time></trkpt><trkpt lat="42.845215" lon="12.9240383"><ele>410.0</ele><time>2026-04-26T09:23:54.238Z</time></trkpt><trkpt lat="42.8450683" lon="12.92399"><ele>410.0</ele><time>2026-04-26T09:23:55.235Z</time></trkpt><trkpt lat="42.844925" lon="12.92393"><ele>410.0</ele><time>2026-04-26T09:23:56.234Z</time></trkpt><trkpt lat="42.84478" lon="12.9238733"><ele>410.0</ele><time>2026-04-26T09:23:57.242Z</time></trkpt><trkpt lat="42.8446283" lon="12.9238233"><ele>410.0</ele><time>2026-04-26T09:23:58.234Z</time></trkpt><trkpt lat="42.8444783" lon="12.9237733"><ele>410.0</ele><time>2026-04-26T09:23:59.231Z</time></trkpt><trkpt lat="42.8443267" lon="12.9237183"><ele>410.0</ele><time>2026-04-26T09:24:00.232Z</time></trkpt><trkpt lat="42.8441717" lon="12.9236633"><ele>410.0</ele><time>2026-04-26T09:24:01.233Z</time></trkpt><trkpt lat="42.8440167" lon="12.923605"><ele>408.0</ele><time>2026-04-26T09:24:02.226Z</time></trkpt><trkpt lat="42.843865" lon="12.9235467"><ele>406.0</ele><time>2026-04-26T09:24:03.236Z</time></trkpt><trkpt lat="42.84371" lon="12.9234933"><ele>404.0</ele><time>2026-04-26T09:24:04.234Z</time></trkpt><trkpt lat="42.8435533" lon="12.9234333"><ele>407.0</ele><time>2026-04-26T09:24:05.236Z</time></trkpt><trkpt lat="42.8433917" lon="12.9233817"><ele>410.0</ele><time>2026-04-26T09:24:06.233Z</time></trkpt><trkpt lat="42.84323" lon="12.9233333"><ele>413.0</ele><time>2026-04-26T09:24:07.231Z</time></trkpt><trkpt lat="42.8430683" lon="12.923285"><ele>413.0</ele><time>2026-04-26T09:24:08.231Z</time></trkpt><trkpt lat="42.8429017" lon="12.923245"><ele>413.0</ele><time>2026-04-26T09:24:09.232Z</time></trkpt><trkpt lat="42.8427283" lon="12.92321"><ele>413.0</ele><time>2026-04-26T09:24:10.233Z</time></trkpt><trkpt lat="42.8425517" lon="12.9231783"><ele>412.3333333333333</ele><time>2026-04-26T09:24:11.231Z</time></trkpt><trkpt lat="42.842375" lon="12.9231467"><ele>411.66666666666663</ele><time>2026-04-26T09:24:12.23Z</time></trkpt><trkpt lat="42.8421917" lon="12.9231133"><ele>411.0</ele><time>2026-04-26T09:24:13.231Z</time></trkpt><trkpt lat="42.8420083" lon="12.9230783"><ele>411.0</ele><time>2026-04-26T09:24:14.232Z</time></trkpt><trkpt lat="42.84182" lon="12.923045"><ele>411.0</ele><time>2026-04-26T09:24:15.235Z</time></trkpt><trkpt lat="42.8416317" lon="12.9230083"><ele>411.0</ele><time>2026-04-26T09:24:16.234Z</time></trkpt><trkpt lat="42.84144" lon="12.9229717"><ele>408.33333333333337</ele><time>2026-04-26T09:24:17.231Z</time></trkpt><trkpt lat="42.8412483" lon="12.922935"><ele>405.6666666666667</ele><time>2026-04-26T09:24:18.233Z</time></trkpt><trkpt lat="42.8410583" lon="12.9228933"><ele>403.0</ele><time>2026-04-26T09:24:19.233Z</time></trkpt><trkpt lat="42.8408633" lon="12.9228483"><ele>403.0</ele><time>2026-04-26T09:24:20.236Z</time></trkpt><trkpt lat="42.8406683" lon="12.9227967"><ele>403.0</ele><time>2026-04-26T09:24:21.236Z</time></trkpt><trkpt lat="42.8404733" lon="12.92274"><ele>403.0</ele><time>2026-04-26T09:24:22.235Z</time></trkpt><trkpt lat="42.8402833" lon="12.922675"><ele>403.6666666666667</ele><time>2026-04-26T09:24:23.235Z</time></trkpt><trkpt lat="42.8400967" lon="12.9226017"><ele>404.33333333333337</ele><time>2026-04-26T09:24:24.234Z</time></trkpt><trkpt lat="42.839915" lon="12.9225217"><ele>405.0</ele><time>2026-04-26T09:24:25.237Z</time></trkpt><trkpt lat="42.83973" lon="12.92243"><ele>405.0</ele><time>2026-04-26T09:24:26.233Z</time></trkpt><trkpt lat="42.8395467" lon="12.9223317"><ele>405.0</ele><time>2026-04-26T09:24:27.233Z</time></trkpt><trkpt lat="42.8393683" lon="12.92222"><ele>405.0</ele><time>2026-04-26T09:24:28.233Z</time></trkpt><trkpt lat="42.839185" lon="12.922105"><ele>403.0</ele><time>2026-04-26T09:24:29.233Z</time></trkpt><trkpt lat="42.839005" lon="12.9219833"><ele>401.0</ele><time>2026-04-26T09:24:30.236Z</time></trkpt><trkpt lat="42.8388217" lon="12.92186"><ele>399.0</ele><time>2026-04-26T09:24:31.235Z</time></trkpt><trkpt lat="42.8386367" lon="12.92174"><ele>400.0</ele><time>2026-04-26T09:24:32.235Z</time></trkpt><trkpt lat="42.8384467" lon="12.921615"><ele>401.0</ele><time>2026-04-26T09:24:33.233Z</time></trkpt><trkpt lat="42.8382567" lon="12.92149"><ele>402.0</ele><time>2026-04-26T09:24:34.233Z</time></trkpt><trkpt lat="42.8380683" lon="12.9213667"><ele>402.0</ele><time>2026-04-26T09:24:35.23Z</time></trkpt><trkpt lat="42.8378833" lon="12.9212467"><ele>402.0</ele><time>2026-04-26T09:24:36.232Z</time></trkpt><trkpt lat="42.8377" lon="12.92113"><ele>402.0</ele><time>2026-04-26T09:24:37.233Z</time></trkpt><trkpt lat="42.8375217" lon="12.9210117"><ele>402.66666666666663</ele><time>2026-04-26T09:24:38.234Z</time></trkpt><trkpt lat="42.8373517" lon="12.9209017"><ele>403.3333333333333</ele><time>2026-04-26T09:24:39.233Z</time></trkpt><trkpt lat="42.8371883" lon="12.9207983"><ele>404.0</ele><time>2026-04-26T09:24:40.232Z</time></trkpt><trkpt lat="42.83703" lon="12.9206933"><ele>404.0</ele><time>2026-04-26T09:24:41.237Z</time></trkpt><trkpt lat="42.83687" lon="12.9205917"><ele>404.0</ele><time>2026-04-26T09:24:42.232Z</time></trkpt><trkpt lat="42.8367083" lon="12.9204883"><ele>404.0</ele><time>2026-04-26T09:24:43.232Z</time></trkpt><trkpt lat="42.836545" lon="12.9203883"><ele>400.3333333333333</ele><time>2026-04-26T09:24:44.236Z</time></trkpt><trkpt lat="42.8363783" lon="12.9202967"><ele>396.66666666666663</ele><time>2026-04-26T09:24:45.233Z</time></trkpt><trkpt lat="42.8362167" lon="12.9202233"><ele>393.0</ele><time>2026-04-26T09:24:46.233Z</time></trkpt><trkpt lat="42.8360533" lon="12.9201783"><ele>392.5</ele><time>2026-04-26T09:24:47.233Z</time></trkpt><trkpt lat="42.8358983" lon="12.92016"><ele>392.0</ele><time>2026-04-26T09:24:48.233Z</time></trkpt><trkpt lat="42.8357517" lon="12.9201583"><ele>391.5</ele><time>2026-04-26T09:24:49.23Z</time></trkpt><trkpt lat="42.835615" lon="12.9201517"><ele>391.0</ele><time>2026-04-26T09:24:50.232Z</time></trkpt><trkpt lat="42.8354867" lon="12.9201367"><ele>391.0</ele><time>2026-04-26T09:24:51.237Z</time></trkpt><trkpt lat="42.8353583" lon="12.9201033"><ele>391.0</ele><time>2026-04-26T09:24:52.233Z</time></trkpt><trkpt lat="42.835235" lon="12.920065"><ele>391.0</ele><time>2026-04-26T09:24:53.233Z</time></trkpt><trkpt lat="42.8351083" lon="12.92001"><ele>391.0</ele><time>2026-04-26T09:24:54.234Z</time></trkpt><trkpt lat="42.83497" lon="12.9199333"><ele>392.33333333333337</ele><time>2026-04-26T09:24:55.233Z</time></trkpt><trkpt lat="42.8348183" lon="12.919865"><ele>393.66666666666663</ele><time>2026-04-26T09:24:56.23Z</time></trkpt><trkpt lat="42.834665" lon="12.9198"><ele>395.0</ele><time>2026-04-26T09:24:57.233Z</time></trkpt><trkpt lat="42.83451" lon="12.9197317"><ele>395.0</ele><time>2026-04-26T09:24:58.232Z</time></trkpt><trkpt lat="42.8343533" lon="12.9196667"><ele>395.0</ele><time>2026-04-26T09:24:59.232Z</time></trkpt><trkpt lat="42.8342" lon="12.9196017"><ele>395.0</ele><time>2026-04-26T09:25:00.233Z</time></trkpt><trkpt lat="42.8340483" lon="12.9195417"><ele>393.0</ele><time>2026-04-26T09:25:01.234Z</time></trkpt><trkpt lat="42.8339" lon="12.9194983"><ele>391.0</ele><time>2026-04-26T09:25:02.231Z</time></trkpt><trkpt lat="42.833755" lon="12.91947"><ele>389.0</ele><time>2026-04-26T09:25:03.233Z</time></trkpt><trkpt lat="42.8336133" lon="12.9194467"><ele>387.0</ele><time>2026-04-26T09:25:04.233Z</time></trkpt><trkpt lat="42.8334783" lon="12.91942"><ele>386.25</ele><time>2026-04-26T09:25:05.231Z</time></trkpt><trkpt lat="42.83334" lon="12.9193883"><ele>385.5</ele><time>2026-04-26T09:25:06.231Z</time></trkpt><trkpt lat="42.8332067" lon="12.9193233"><ele>384.75</ele><time>2026-04-26T09:25:07.231Z</time></trkpt><trkpt lat="42.8330683" lon="12.9192483"><ele>384.0</ele><time>2026-04-26T09:25:08.233Z</time></trkpt><trkpt lat="42.8329367" lon="12.919165"><ele>384.0</ele><time>2026-04-26T09:25:09.236Z</time></trkpt><trkpt lat="42.8327983" lon="12.91909"><ele>384.0</ele><time>2026-04-26T09:25:10.232Z</time></trkpt><trkpt lat="42.8326517" lon="12.9190183"><ele>384.0</ele><time>2026-04-26T09:25:11.235Z</time></trkpt><trkpt lat="42.8324817" lon="12.9189633"><ele>384.0</ele><time>2026-04-26T09:25:12.233Z</time></trkpt><trkpt lat="42.832275" lon="12.9189217"><ele>384.0</ele><time>2026-04-26T09:25:13.233Z</time></trkpt><trkpt lat="42.8320433" lon="12.9188733"><ele>384.0</ele><time>2026-04-26T09:25:14.233Z</time></trkpt><trkpt lat="42.8317867" lon="12.9188217"><ele>384.0</ele><time>2026-04-26T09:25:15.234Z</time></trkpt><trkpt lat="42.8314983" lon="12.9187833"><ele>384.0</ele><time>2026-04-26T09:25:16.234Z</time></trkpt><trkpt lat="42.8312033" lon="12.91874"><ele>382.0</ele><time>2026-04-26T09:25:17.235Z</time></trkpt><trkpt lat="42.830915" lon="12.91868"><ele>380.0</ele><time>2026-04-26T09:25:18.234Z</time></trkpt><trkpt lat="42.830635" lon="12.918615"><ele>380.0</ele><time>2026-04-26T09:25:19.235Z</time></trkpt><trkpt lat="42.8303567" lon="12.9185533"><ele>380.0</ele><time>2026-04-26T09:25:20.229Z</time></trkpt><trkpt lat="42.830085" lon="12.9184983"><ele>380.0</ele><time>2026-04-26T09:25:21.23Z</time></trkpt><trkpt lat="42.82983" lon="12.918455"><ele>380.0</ele><time>2026-04-26T09:25:22.234Z</time></trkpt><trkpt lat="42.82959" lon="12.9184183"><ele>384.33333333333337</ele><time>2026-04-26T09:25:23.231Z</time></trkpt><trkpt lat="42.829365" lon="12.9183767"><ele>388.6666666666667</ele><time>2026-04-26T09:25:24.234Z</time></trkpt><trkpt lat="42.8291517" lon="12.9183333"><ele>393.0</ele><time>2026-04-26T09:25:25.233Z</time></trkpt><trkpt lat="42.8289517" lon="12.918285"><ele>393.0</ele><time>2026-04-26T09:25:26.235Z</time></trkpt><trkpt lat="42.8287567" lon="12.918225"><ele>393.0</ele><time>2026-04-26T09:25:27.234Z</time></trkpt><trkpt lat="42.828575" lon="12.9181183"><ele>393.0</ele><time>2026-04-26T09:25:28.231Z</time></trkpt><trkpt lat="42.8283967" lon="12.91797"><ele>390.0</ele><time>2026-04-26T09:25:29.234Z</time></trkpt><trkpt lat="42.8282133" lon="12.917805"><ele>387.0</ele><time>2026-04-26T09:25:30.235Z</time></trkpt><trkpt lat="42.8280117" lon="12.9176567"><ele>384.0</ele><time>2026-04-26T09:25:31.233Z</time></trkpt><trkpt lat="42.8277867" lon="12.917535"><ele>387.0</ele><time>2026-04-26T09:25:32.236Z</time></trkpt><trkpt lat="42.827555" lon="12.9174117"><ele>390.0</ele><time>2026-04-26T09:25:33.236Z</time></trkpt><trkpt lat="42.8273117" lon="12.917285"><ele>390.0</ele><time>2026-04-26T09:25:34.233Z</time></trkpt><trkpt lat="42.8270667" lon="12.9171633"><ele>390.0</ele><time>2026-04-26T09:25:35.233Z</time></trkpt><trkpt lat="42.82683" lon="12.9170467"><ele>385.0</ele><time>2026-04-26T09:25:36.232Z</time></trkpt><trkpt lat="42.8266017" lon="12.9169433"><ele>380.0</ele><time>2026-04-26T09:25:37.231Z</time></trkpt><trkpt lat="42.8263917" lon="12.91683"><ele>381.0</ele><time>2026-04-26T09:25:38.233Z</time></trkpt><trkpt lat="42.8261983" lon="12.9167117"><ele>382.0</ele><time>2026-04-26T09:25:39.234Z</time></trkpt><trkpt lat="42.8260233" lon="12.91658"><ele>383.0</ele><time>2026-04-26T09:25:40.23Z</time></trkpt><trkpt lat="42.8258667" lon="12.9164367"><ele>383.0</ele><time>2026-04-26T09:25:41.234Z</time></trkpt><trkpt lat="42.8257133" lon="12.9162833"><ele>383.0</ele><time>2026-04-26T09:25:42.232Z</time></trkpt><trkpt lat="42.82556" lon="12.9161233"><ele>383.0</ele><time>2026-04-26T09:25:43.233Z</time></trkpt><trkpt lat="42.825405" lon="12.915955"><ele>383.0</ele><time>2026-04-26T09:25:44.233Z</time></trkpt><trkpt lat="42.82525" lon="12.9157917"><ele>383.0</ele><time>2026-04-26T09:25:45.235Z</time></trkpt><trkpt lat="42.8250917" lon="12.9156283"><ele>383.0</ele><time>2026-04-26T09:25:46.233Z</time></trkpt><trkpt lat="42.8249283" lon="12.91546"><ele>382.33333333333337</ele><time>2026-04-26T09:25:47.232Z</time></trkpt><trkpt lat="42.8247583" lon="12.9152917"><ele>381.6666666666667</ele><time>2026-04-26T09:25:48.234Z</time></trkpt><trkpt lat="42.82458" lon="12.9151283"><ele>381.0</ele><time>2026-04-26T09:25:49.232Z</time></trkpt><trkpt lat="42.8244067" lon="12.914955"><ele>379.0</ele><time>2026-04-26T09:25:50.232Z</time></trkpt><trkpt lat="42.8242417" lon="12.9147467"><ele>377.0</ele><time>2026-04-26T09:25:51.233Z</time></trkpt><trkpt lat="42.8240783" lon="12.914515"><ele>377.0</ele><time>2026-04-26T09:25:52.233Z</time></trkpt><trkpt lat="42.8239133" lon="12.9142683"><ele>377.0</ele><time>2026-04-26T09:25:53.234Z</time></trkpt><trkpt lat="42.82374" lon="12.9140167"><ele>378.0</ele><time>2026-04-26T09:25:54.233Z</time></trkpt><trkpt lat="42.8235667" lon="12.9137617"><ele>379.0</ele><time>2026-04-26T09:25:55.232Z</time></trkpt><trkpt lat="42.823395" lon="12.9135083"><ele>379.0</ele><time>2026-04-26T09:25:56.233Z</time></trkpt><trkpt lat="42.8232233" lon="12.9132533"><ele>379.0</ele><time>2026-04-26T09:25:57.233Z</time></trkpt><trkpt lat="42.8230583" lon="12.9130033"><ele>379.0</ele><time>2026-04-26T09:25:58.232Z</time></trkpt><trkpt lat="42.822905" lon="12.9127617"><ele>379.0</ele><time>2026-04-26T09:25:59.23Z</time></trkpt><trkpt lat="42.82276" lon="12.9125383"><ele>379.3333333333333</ele><time>2026-04-26T09:26:00.239Z</time></trkpt><trkpt lat="42.8226217" lon="12.9123283"><ele>379.6666666666667</ele><time>2026-04-26T09:26:01.232Z</time></trkpt><trkpt lat="42.8224883" lon="12.9121433"><ele>380.0</ele><time>2026-04-26T09:26:02.231Z</time></trkpt><trkpt lat="42.8223417" lon="12.912005"><ele>380.0</ele><time>2026-04-26T09:26:03.233Z</time></trkpt><trkpt lat="42.8221767" lon="12.9119317"><ele>380.0</ele><time>2026-04-26T09:26:04.23Z</time></trkpt><trkpt lat="42.8219967" lon="12.911895"><ele>380.0</ele><time>2026-04-26T09:26:05.232Z</time></trkpt><trkpt lat="42.8217883" lon="12.9119067"><ele>375.0</ele><time>2026-04-26T09:26:06.231Z</time></trkpt><trkpt lat="42.821565" lon="12.9119533"><ele>370.0</ele><time>2026-04-26T09:26:07.232Z</time></trkpt><trkpt lat="42.8213383" lon="12.9120083"><ele>370.0</ele><time>2026-04-26T09:26:08.233Z</time></trkpt><trkpt lat="42.82111" lon="12.912065"><ele>370.0</ele><time>2026-04-26T09:26:09.233Z</time></trkpt><trkpt lat="42.8208883" lon="12.9121117"><ele>368.5</ele><time>2026-04-26T09:26:10.232Z</time></trkpt><trkpt lat="42.8206633" lon="12.9121367"><ele>367.0</ele><time>2026-04-26T09:26:11.233Z</time></trkpt><trkpt lat="42.820435" lon="12.9121267"><ele>367.0</ele><time>2026-04-26T09:26:12.232Z</time></trkpt><trkpt lat="42.8202183" lon="12.91208"><ele>367.0</ele><time>2026-04-26T09:26:13.233Z</time></trkpt><trkpt lat="42.8200117" lon="12.9120233"><ele>367.0</ele><time>2026-04-26T09:26:14.232Z</time></trkpt><trkpt lat="42.8198083" lon="12.9119717"><ele>367.0</ele><time>2026-04-26T09:26:15.233Z</time></trkpt><trkpt lat="42.8196017" lon="12.9119233"><ele>367.0</ele><time>2026-04-26T09:26:16.234Z</time></trkpt><trkpt lat="42.8193933" lon="12.911875"><ele>367.0</ele><time>2026-04-26T09:26:17.232Z</time></trkpt><trkpt lat="42.8191867" lon="12.9118283"><ele>367.0</ele><time>2026-04-26T09:26:18.237Z</time></trkpt><trkpt lat="42.81898" lon="12.9117833"><ele>367.0</ele><time>2026-04-26T09:26:19.235Z</time></trkpt><trkpt lat="42.81877" lon="12.9117267"><ele>367.0</ele><time>2026-04-26T09:26:20.234Z</time></trkpt><trkpt lat="42.8185583" lon="12.9116733"><ele>366.3333333333333</ele><time>2026-04-26T09:26:21.233Z</time></trkpt><trkpt lat="42.8183417" lon="12.911615"><ele>365.6666666666667</ele><time>2026-04-26T09:26:22.232Z</time></trkpt><trkpt lat="42.8181233" lon="12.9115567"><ele>365.0</ele><time>2026-04-26T09:26:23.235Z</time></trkpt><trkpt lat="42.8179033" lon="12.9115117"><ele>365.0</ele><time>2026-04-26T09:26:24.232Z</time></trkpt><trkpt lat="42.8176867" lon="12.9114867"><ele>365.0</ele><time>2026-04-26T09:26:25.236Z</time></trkpt><trkpt lat="42.8174683" lon="12.91149"><ele>365.0</ele><time>2026-04-26T09:26:26.231Z</time></trkpt><trkpt lat="42.8172567" lon="12.9115183"><ele>365.33333333333337</ele><time>2026-04-26T09:26:27.233Z</time></trkpt><trkpt lat="42.817055" lon="12.9115867"><ele>365.6666666666667</ele><time>2026-04-26T09:26:28.234Z</time></trkpt><trkpt lat="42.8168633" lon="12.9116867"><ele>366.0</ele><time>2026-04-26T09:26:29.232Z</time></trkpt><trkpt lat="42.8166733" lon="12.9118133"><ele>363.0</ele><time>2026-04-26T09:26:30.232Z</time></trkpt><trkpt lat="42.816475" lon="12.9119233"><ele>360.0</ele><time>2026-04-26T09:26:31.233Z</time></trkpt><trkpt lat="42.8162683" lon="12.91199"><ele>357.0</ele><time>2026-04-26T09:26:32.232Z</time></trkpt><trkpt lat="42.81606" lon="12.9120217"><ele>358.0</ele><time>2026-04-26T09:26:33.23Z</time></trkpt><trkpt lat="42.815865" lon="12.9120567"><ele>359.0</ele><time>2026-04-26T09:26:34.231Z</time></trkpt><trkpt lat="42.8156933" lon="12.9121283"><ele>360.0</ele><time>2026-04-26T09:26:35.231Z</time></trkpt><trkpt lat="42.8155417" lon="12.912235"><ele>360.0</ele><time>2026-04-26T09:26:36.234Z</time></trkpt><trkpt lat="42.8154033" lon="12.9123767"><ele>360.0</ele><time>2026-04-26T09:26:37.232Z</time></trkpt><trkpt lat="42.8152767" lon="12.9125317"><ele>360.0</ele><time>2026-04-26T09:26:38.231Z</time></trkpt><trkpt lat="42.815165" lon="12.9127"><ele>363.0</ele><time>2026-04-26T09:26:39.235Z</time></trkpt><trkpt lat="42.8150783" lon="12.912885"><ele>366.0</ele><time>2026-04-26T09:26:40.232Z</time></trkpt><trkpt lat="42.8150217" lon="12.9130783"><ele>369.0</ele><time>2026-04-26T09:26:41.232Z</time></trkpt><trkpt lat="42.8149917" lon="12.9132683"><ele>367.0</ele><time>2026-04-26T09:26:42.231Z</time></trkpt><trkpt lat="42.8149833" lon="12.9134533"><ele>365.0</ele><time>2026-04-26T09:26:43.233Z</time></trkpt><trkpt lat="42.8149633" lon="12.9136333"><ele>363.0</ele><time>2026-04-26T09:26:44.233Z</time></trkpt><trkpt lat="42.8149317" lon="12.913795"><ele>361.0</ele><time>2026-04-26T09:26:45.23Z</time></trkpt><trkpt lat="42.814885" lon="12.9139333"><ele>361.0</ele><time>2026-04-26T09:26:46.231Z</time></trkpt><trkpt lat="42.8148283" lon="12.9140583"><ele>361.0</ele><time>2026-04-26T09:26:47.23Z</time></trkpt><trkpt lat="42.814765" lon="12.9141817"><ele>361.0</ele><time>2026-04-26T09:26:48.233Z</time></trkpt><trkpt lat="42.8147" lon="12.914305"><ele>361.0</ele><time>2026-04-26T09:26:49.232Z</time></trkpt><trkpt lat="42.8146317" lon="12.914415"><ele>361.0</ele><time>2026-04-26T09:26:50.23Z</time></trkpt><trkpt lat="42.8145667" lon="12.91451"><ele>360.8</ele><time>2026-04-26T09:26:51.231Z</time></trkpt><trkpt lat="42.8145183" lon="12.9145833"><ele>360.6</ele><time>2026-04-26T09:26:52.232Z</time></trkpt><trkpt lat="42.81447" lon="12.914675"><ele>360.4</ele><time>2026-04-26T09:26:54.23Z</time></trkpt><trkpt lat="42.8144867" lon="12.914785"><ele>360.2</ele><time>2026-04-26T09:27:02.231Z</time></trkpt><trkpt lat="42.814555" lon="12.914895"><ele>360.0</ele><time>2026-04-26T09:27:03.234Z</time></trkpt><trkpt lat="42.814635" lon="12.915005"><ele>360.0</ele><time>2026-04-26T09:27:04.233Z</time></trkpt><trkpt lat="42.8147267" lon="12.9151083"><ele>360.0</ele><time>2026-04-26T09:27:05.23Z</time></trkpt><trkpt lat="42.8148233" lon="12.9152167"><ele>360.0</ele><time>2026-04-26T09:27:06.232Z</time></trkpt><trkpt lat="42.8149167" lon="12.915325"><ele>360.0</ele><time>2026-04-26T09:27:07.235Z</time></trkpt><trkpt lat="42.8150183" lon="12.9154333"><ele>360.0</ele><time>2026-04-26T09:27:08.234Z</time></trkpt><trkpt lat="42.815115" lon="12.9155283"><ele>360.0</ele><time>2026-04-26T09:27:09.234Z</time></trkpt><trkpt lat="42.8152167" lon="12.9156133"><ele>360.0</ele><time>2026-04-26T09:27:10.231Z</time></trkpt><trkpt lat="42.81532" lon="12.91568"><ele>360.0</ele><time>2026-04-26T09:27:11.232Z</time></trkpt><trkpt lat="42.815435" lon="12.9157333"><ele>360.25</ele><time>2026-04-26T09:27:12.232Z</time></trkpt><trkpt lat="42.815555" lon="12.91578"><ele>360.5</ele><time>2026-04-26T09:27:13.235Z</time></trkpt><trkpt lat="42.8156783" lon="12.915825"><ele>360.75</ele><time>2026-04-26T09:27:14.232Z</time></trkpt><trkpt lat="42.8157967" lon="12.91587"><ele>361.0</ele><time>2026-04-26T09:27:15.233Z</time></trkpt><trkpt lat="42.8159183" lon="12.915925"><ele>362.0</ele><time>2026-04-26T09:27:16.233Z</time></trkpt><trkpt lat="42.8160417" lon="12.9159867"><ele>363.0</ele><time>2026-04-26T09:27:17.233Z</time></trkpt><trkpt lat="42.8161567" lon="12.91606"><ele>364.0</ele><time>2026-04-26T09:27:18.234Z</time></trkpt><trkpt lat="42.8162683" lon="12.9161467"><ele>365.0</ele><time>2026-04-26T09:27:19.234Z</time></trkpt><trkpt lat="42.81637" lon="12.9162433"><ele>365.0</ele><time>2026-04-26T09:27:20.233Z</time></trkpt><trkpt lat="42.8164667" lon="12.9163517"><ele>365.0</ele><time>2026-04-26T09:27:21.235Z</time></trkpt><trkpt lat="42.8165533" lon="12.916475"><ele>365.0</ele><time>2026-04-26T09:27:22.232Z</time></trkpt><trkpt lat="42.8166317" lon="12.91661"><ele>365.0</ele><time>2026-04-26T09:27:23.232Z</time></trkpt><trkpt lat="42.8166917" lon="12.9167617"><ele>364.0</ele><time>2026-04-26T09:27:24.233Z</time></trkpt><trkpt lat="42.8167417" lon="12.91692"><ele>363.0</ele><time>2026-04-26T09:27:25.23Z</time></trkpt><trkpt lat="42.8167833" lon="12.9170867"><ele>362.0</ele><time>2026-04-26T09:27:26.231Z</time></trkpt><trkpt lat="42.816825" lon="12.9172517"><ele>361.0</ele><time>2026-04-26T09:27:27.233Z</time></trkpt><trkpt lat="42.8168683" lon="12.91742"><ele>368.25</ele><time>2026-04-26T09:27:28.231Z</time></trkpt><trkpt lat="42.81691" lon="12.9175867"><ele>375.5</ele><time>2026-04-26T09:27:29.231Z</time></trkpt><trkpt lat="42.81694" lon="12.9177583"><ele>382.75</ele><time>2026-04-26T09:27:30.233Z</time></trkpt><trkpt lat="42.8169817" lon="12.9179333"><ele>390.0</ele><time>2026-04-26T09:27:31.234Z</time></trkpt><trkpt lat="42.81702" lon="12.9181017"><ele>390.0</ele><time>2026-04-26T09:27:32.234Z</time></trkpt><trkpt lat="42.8170567" lon="12.9182733"><ele>390.0</ele><time>2026-04-26T09:27:33.237Z</time></trkpt><trkpt lat="42.8170833" lon="12.9184567"><ele>390.0</ele><time>2026-04-26T09:27:34.231Z</time></trkpt><trkpt lat="42.8170883" lon="12.91864"><ele>390.0</ele><time>2026-04-26T09:27:35.231Z</time></trkpt><trkpt lat="42.8170867" lon="12.918825"><ele>386.75</ele><time>2026-04-26T09:27:36.231Z</time></trkpt><trkpt lat="42.817075" lon="12.919005"><ele>383.5</ele><time>2026-04-26T09:27:37.234Z</time></trkpt><trkpt lat="42.8170633" lon="12.9191817"><ele>380.25</ele><time>2026-04-26T09:27:38.235Z</time></trkpt><trkpt lat="42.8170883" lon="12.91935"><ele>377.0</ele><time>2026-04-26T09:27:39.231Z</time></trkpt><trkpt lat="42.8171383" lon="12.919505"><ele>372.5</ele><time>2026-04-26T09:27:40.234Z</time></trkpt><trkpt lat="42.8172167" lon="12.91963"><ele>368.0</ele><time>2026-04-26T09:27:41.232Z</time></trkpt><trkpt lat="42.8173267" lon="12.9197267"><ele>363.5</ele><time>2026-04-26T09:27:42.233Z</time></trkpt><trkpt lat="42.81746" lon="12.9197767"><ele>359.0</ele><time>2026-04-26T09:27:43.231Z</time></trkpt><trkpt lat="42.8175967" lon="12.91978"><ele>358.75</ele><time>2026-04-26T09:27:44.233Z</time></trkpt><trkpt lat="42.8177417" lon="12.91974"><ele>358.5</ele><time>2026-04-26T09:27:45.232Z</time></trkpt><trkpt lat="42.817895" lon="12.919695"><ele>358.25</ele><time>2026-04-26T09:27:46.234Z</time></trkpt><trkpt lat="42.8180367" lon="12.919665"><ele>358.0</ele><time>2026-04-26T09:27:47.232Z</time></trkpt><trkpt lat="42.81818" lon="12.9196383"><ele>358.0</ele><time>2026-04-26T09:27:48.231Z</time></trkpt><trkpt lat="42.818325" lon="12.9196183"><ele>358.0</ele><time>2026-04-26T09:27:49.23Z</time></trkpt><trkpt lat="42.8184667" lon="12.919605"><ele>358.0</ele><time>2026-04-26T09:27:50.231Z</time></trkpt><trkpt lat="42.8186033" lon="12.919605"><ele>358.0</ele><time>2026-04-26T09:27:51.236Z</time></trkpt><trkpt lat="42.8187367" lon="12.9196183"><ele>362.0</ele><time>2026-04-26T09:27:52.233Z</time></trkpt><trkpt lat="42.8188683" lon="12.919645"><ele>366.0</ele><time>2026-04-26T09:27:53.233Z</time></trkpt><trkpt lat="42.818995" lon="12.9196817"><ele>370.0</ele><time>2026-04-26T09:27:54.232Z</time></trkpt><trkpt lat="42.8191217" lon="12.9197233"><ele>374.0</ele><time>2026-04-26T09:27:55.233Z</time></trkpt><trkpt lat="42.8192417" lon="12.919775"><ele>380.5</ele><time>2026-04-26T09:27:56.232Z</time></trkpt><trkpt lat="42.8193467" lon="12.919855"><ele>387.0</ele><time>2026-04-26T09:27:57.232Z</time></trkpt><trkpt lat="42.8194383" lon="12.91996"><ele>393.5</ele><time>2026-04-26T09:27:58.231Z</time></trkpt><trkpt lat="42.8195" lon="12.9201017"><ele>400.0</ele><time>2026-04-26T09:27:59.234Z</time></trkpt><trkpt lat="42.8195383" lon="12.9202633"><ele>400.0</ele><time>2026-04-26T09:28:00.232Z</time></trkpt><trkpt lat="42.81957" lon="12.9204333"><ele>400.0</ele><time>2026-04-26T09:28:01.232Z</time></trkpt><trkpt lat="42.8196" lon="12.9206083"><ele>400.0</ele><time>2026-04-26T09:28:02.233Z</time></trkpt><trkpt lat="42.8196233" lon="12.9207917"><ele>400.0</ele><time>2026-04-26T09:28:03.233Z</time></trkpt><trkpt lat="42.8196283" lon="12.92098"><ele>402.75</ele><time>2026-04-26T09:28:04.232Z</time></trkpt><trkpt lat="42.81961" lon="12.9211683"><ele>405.5</ele><time>2026-04-26T09:28:05.232Z</time></trkpt><trkpt lat="42.8195733" lon="12.921345"><ele>408.25</ele><time>2026-04-26T09:28:06.232Z</time></trkpt><trkpt lat="42.8195117" lon="12.9215117"><ele>411.0</ele><time>2026-04-26T09:28:07.231Z</time></trkpt><trkpt lat="42.8194433" lon="12.9216667"><ele>416.25</ele><time>2026-04-26T09:28:08.23Z</time></trkpt><trkpt lat="42.8193667" lon="12.9218183"><ele>421.5</ele><time>2026-04-26T09:28:09.233Z</time></trkpt><trkpt lat="42.81929" lon="12.9219733"><ele>426.75</ele><time>2026-04-26T09:28:10.233Z</time></trkpt><trkpt lat="42.8192117" lon="12.92212"><ele>432.0</ele><time>2026-04-26T09:28:11.231Z</time></trkpt><trkpt lat="42.8191333" lon="12.92227"><ele>417.5</ele><time>2026-04-26T09:28:12.233Z</time></trkpt><trkpt lat="42.8190717" lon="12.9224183"><ele>403.0</ele><time>2026-04-26T09:28:13.231Z</time></trkpt><trkpt lat="42.8190367" lon="12.92257"><ele>388.5</ele><time>2026-04-26T09:28:14.231Z</time></trkpt><trkpt lat="42.819035" lon="12.92273"><ele>374.0</ele><time>2026-04-26T09:28:15.233Z</time></trkpt><trkpt lat="42.8190817" lon="12.9229017"><ele>372.5</ele><time>2026-04-26T09:28:16.231Z</time></trkpt><trkpt lat="42.8191433" lon="12.9230533"><ele>371.0</ele><time>2026-04-26T09:28:17.23Z</time></trkpt><trkpt lat="42.8192333" lon="12.9231783"><ele>369.5</ele><time>2026-04-26T09:28:18.232Z</time></trkpt><trkpt lat="42.819335" lon="12.9232717"><ele>368.0</ele><time>2026-04-26T09:28:19.231Z</time></trkpt><trkpt lat="42.819445" lon="12.9233667"><ele>372.25</ele><time>2026-04-26T09:28:20.229Z</time></trkpt><trkpt lat="42.8195583" lon="12.923465"><ele>376.5</ele><time>2026-04-26T09:28:21.229Z</time></trkpt><trkpt lat="42.81966" lon="12.9235817"><ele>380.75</ele><time>2026-04-26T09:28:22.23Z</time></trkpt><trkpt lat="42.8197467" lon="12.92371"><ele>385.0</ele><time>2026-04-26T09:28:23.226Z</time></trkpt><trkpt lat="42.8198267" lon="12.9238433"><ele>385.0</ele><time>2026-04-26T09:28:24.226Z</time></trkpt><trkpt lat="42.819895" lon="12.9239933"><ele>385.0</ele><time>2026-04-26T09:28:25.226Z</time></trkpt><trkpt lat="42.819955" lon="12.924145"><ele>385.0</ele><time>2026-04-26T09:28:26.225Z</time></trkpt><trkpt lat="42.82001" lon="12.9243"><ele>385.0</ele><time>2026-04-26T09:28:27.226Z</time></trkpt><trkpt lat="42.8200667" lon="12.9244483"><ele>382.0</ele><time>2026-04-26T09:28:28.236Z</time></trkpt><trkpt lat="42.8201233" lon="12.9245917"><ele>379.0</ele><time>2026-04-26T09:28:29.233Z</time></trkpt><trkpt lat="42.8201717" lon="12.924735"><ele>376.0</ele><time>2026-04-26T09:28:30.23Z</time></trkpt><trkpt lat="42.8202233" lon="12.9248867"><ele>373.0</ele><time>2026-04-26T09:28:31.235Z</time></trkpt><trkpt lat="42.8202817" lon="12.925045"><ele>382.25</ele><time>2026-04-26T09:28:32.233Z</time></trkpt><trkpt lat="42.82034" lon="12.925205"><ele>391.5</ele><time>2026-04-26T09:28:33.233Z</time></trkpt><trkpt lat="42.8203983" lon="12.9253717"><ele>400.75</ele><time>2026-04-26T09:28:34.23Z</time></trkpt><trkpt lat="42.8204567" lon="12.9255383"><ele>410.0</ele><time>2026-04-26T09:28:35.232Z</time></trkpt><trkpt lat="42.8205117" lon="12.9257133"><ele>410.0</ele><time>2026-04-26T09:28:36.234Z</time></trkpt><trkpt lat="42.8205617" lon="12.9258883"><ele>410.0</ele><time>2026-04-26T09:28:37.231Z</time></trkpt><trkpt lat="42.8205967" lon="12.9260683"><ele>410.0</ele><time>2026-04-26T09:28:38.228Z</time></trkpt><trkpt lat="42.820615" lon="12.9262533"><ele>410.0</ele><time>2026-04-26T09:28:39.231Z</time></trkpt><trkpt lat="42.8206267" lon="12.92643"><ele>407.25</ele><time>2026-04-26T09:28:40.231Z</time></trkpt><trkpt lat="42.820635" lon="12.9265983"><ele>404.5</ele><time>2026-04-26T09:28:41.233Z</time></trkpt><trkpt lat="42.8206433" lon="12.92677"><ele>401.75</ele><time>2026-04-26T09:28:42.232Z</time></trkpt><trkpt lat="42.8206633" lon="12.9269383"><ele>399.0</ele><time>2026-04-26T09:28:43.23Z</time></trkpt><trkpt lat="42.82071" lon="12.9271"><ele>399.0</ele><time>2026-04-26T09:28:44.231Z</time></trkpt><trkpt lat="42.8207733" lon="12.9272583"><ele>399.0</ele><time>2026-04-26T09:28:45.233Z</time></trkpt><trkpt lat="42.8208483" lon="12.9274083"><ele>399.0</ele><time>2026-04-26T09:28:46.234Z</time></trkpt><trkpt lat="42.8209333" lon="12.9275583"><ele>399.0</ele><time>2026-04-26T09:28:47.225Z</time></trkpt><trkpt lat="42.8210167" lon="12.9277117"><ele>399.0</ele><time>2026-04-26T09:28:48.234Z</time></trkpt><trkpt lat="42.8210867" lon="12.927875"><ele>399.0</ele><time>2026-04-26T09:28:49.233Z</time></trkpt><trkpt lat="42.8211383" lon="12.9280467"><ele>399.0</ele><time>2026-04-26T09:28:50.232Z</time></trkpt><trkpt lat="42.821175" lon="12.9282317"><ele>399.0</ele><time>2026-04-26T09:28:51.233Z</time></trkpt><trkpt lat="42.8211967" lon="12.9284183"><ele>399.0</ele><time>2026-04-26T09:28:52.229Z</time></trkpt><trkpt lat="42.8212083" lon="12.9285917"><ele>399.0</ele><time>2026-04-26T09:28:53.232Z</time></trkpt><trkpt lat="42.8212133" lon="12.9287433"><ele>399.0</ele><time>2026-04-26T09:28:54.23Z</time></trkpt><trkpt lat="42.8212167" lon="12.9288717"><ele>399.0</ele><time>2026-04-26T09:28:55.233Z</time></trkpt><trkpt lat="42.82122" lon="12.9289783"><ele>399.0</ele><time>2026-04-26T09:28:56.234Z</time></trkpt><trkpt lat="42.8212267" lon="12.9291167"><ele>399.0</ele><time>2026-04-26T09:28:58.236Z</time></trkpt><trkpt lat="42.821235" lon="12.9292133"><ele>399.0</ele><time>2026-04-26T09:29:01.235Z</time></trkpt><trkpt lat="42.8212283" lon="12.9293"><ele>399.0</ele><time>2026-04-26T09:29:29.232Z</time></trkpt><trkpt lat="42.8212283" lon="12.92942"><ele>399.0</ele><time>2026-04-26T09:29:31.234Z</time></trkpt><trkpt lat="42.8212367" lon="12.9295183"><ele>399.0</ele><time>2026-04-26T09:29:33.23Z</time></trkpt><trkpt lat="42.8212417" lon="12.9296233"><ele>399.0</ele><time>2026-04-26T09:29:35.231Z</time></trkpt><trkpt lat="42.8212683" lon="12.9297867"><ele>399.5</ele><time>2026-04-26T09:29:37.231Z</time></trkpt><trkpt lat="42.82131" lon="12.9299233"><ele>400.0</ele><time>2026-04-26T09:29:38.234Z</time></trkpt><trkpt lat="42.8213633" lon="12.9301083"><ele>400.5</ele><time>2026-04-26T09:29:39.233Z</time></trkpt><trkpt lat="42.8214417" lon="12.9303"><ele>401.0</ele><time>2026-04-26T09:29:40.234Z</time></trkpt><trkpt lat="42.8215417" lon="12.9304417"><ele>399.66666666666663</ele><time>2026-04-26T09:29:41.231Z</time></trkpt><trkpt lat="42.8216633" lon="12.93056"><ele>398.33333333333337</ele><time>2026-04-26T09:29:42.229Z</time></trkpt><trkpt lat="42.8218" lon="12.93065"><ele>397.0</ele><time>2026-04-26T09:29:43.228Z</time></trkpt><trkpt lat="42.8219533" lon="12.9306883"><ele>397.0</ele><time>2026-04-26T09:29:44.233Z</time></trkpt><trkpt lat="42.8221333" lon="12.93069"><ele>397.0</ele><time>2026-04-26T09:29:45.231Z</time></trkpt><trkpt lat="42.8223433" lon="12.9306483"><ele>397.0</ele><time>2026-04-26T09:29:46.229Z</time></trkpt><trkpt lat="42.822575" lon="12.9305883"><ele>393.5</ele><time>2026-04-26T09:29:47.233Z</time></trkpt><trkpt lat="42.8228183" lon="12.9305433"><ele>390.0</ele><time>2026-04-26T09:29:48.233Z</time></trkpt><trkpt lat="42.823065" lon="12.9305"><ele>390.0</ele><time>2026-04-26T09:29:49.233Z</time></trkpt><trkpt lat="42.8232933" lon="12.930445"><ele>390.0</ele><time>2026-04-26T09:29:50.235Z</time></trkpt><trkpt lat="42.8235067" lon="12.9303733"><ele>393.33333333333337</ele><time>2026-04-26T09:29:51.229Z</time></trkpt><trkpt lat="42.8237" lon="12.930265"><ele>396.6666666666667</ele><time>2026-04-26T09:29:52.23Z</time></trkpt><trkpt lat="42.8239" lon="12.93009"><ele>400.0</ele><time>2026-04-26T09:29:53.232Z</time></trkpt><trkpt lat="42.824085" lon="12.92988"><ele>400.0</ele><time>2026-04-26T09:29:54.233Z</time></trkpt><trkpt lat="42.8242533" lon="12.92969"><ele>400.0</ele><time>2026-04-26T09:29:55.232Z</time></trkpt><trkpt lat="42.8244217" lon="12.92955"><ele>400.0</ele><time>2026-04-26T09:29:56.234Z</time></trkpt><trkpt lat="42.8246167" lon="12.92945"><ele>393.5</ele><time>2026-04-26T09:29:57.231Z</time></trkpt><trkpt lat="42.824845" lon="12.929405"><ele>387.0</ele><time>2026-04-26T09:29:58.233Z</time></trkpt><trkpt lat="42.8250983" lon="12.929405"><ele>389.5</ele><time>2026-04-26T09:29:59.228Z</time></trkpt><trkpt lat="42.8253667" lon="12.9294467"><ele>392.0</ele><time>2026-04-26T09:30:00.235Z</time></trkpt><trkpt lat="42.825635" lon="12.9295067"><ele>392.0</ele><time>2026-04-26T09:30:01.232Z</time></trkpt><trkpt lat="42.825895" lon="12.9295783"><ele>392.0</ele><time>2026-04-26T09:30:02.231Z</time></trkpt><trkpt lat="42.8261367" lon="12.9296517"><ele>395.5</ele><time>2026-04-26T09:30:03.232Z</time></trkpt><trkpt lat="42.8263667" lon="12.929715"><ele>399.0</ele><time>2026-04-26T09:30:04.232Z</time></trkpt><trkpt lat="42.8265783" lon="12.92978"><ele>399.0</ele><time>2026-04-26T09:30:05.231Z</time></trkpt><trkpt lat="42.82678" lon="12.9298333"><ele>399.0</ele><time>2026-04-26T09:30:06.233Z</time></trkpt><trkpt lat="42.82697" lon="12.9298983"><ele>399.0</ele><time>2026-04-26T09:30:07.226Z</time></trkpt><trkpt lat="42.8271467" lon="12.9299733"><ele>395.66666666666663</ele><time>2026-04-26T09:30:08.235Z</time></trkpt><trkpt lat="42.8273117" lon="12.9300717"><ele>392.3333333333333</ele><time>2026-04-26T09:30:09.233Z</time></trkpt><trkpt lat="42.8274667" lon="12.9301867"><ele>389.0</ele><time>2026-04-26T09:30:10.234Z</time></trkpt><trkpt lat="42.8276067" lon="12.9303217"><ele>394.3333333333333</ele><time>2026-04-26T09:30:11.234Z</time></trkpt><trkpt lat="42.8277417" lon="12.9304683"><ele>399.66666666666663</ele><time>2026-04-26T09:30:12.234Z</time></trkpt><trkpt lat="42.8278817" lon="12.9306167"><ele>405.0</ele><time>2026-04-26T09:30:13.232Z</time></trkpt><trkpt lat="42.8280267" lon="12.9307567"><ele>405.0</ele><time>2026-04-26T09:30:14.235Z</time></trkpt><trkpt lat="42.8281683" lon="12.9308883"><ele>405.0</ele><time>2026-04-26T09:30:15.233Z</time></trkpt><trkpt lat="42.8283183" lon="12.931"><ele>405.0</ele><time>2026-04-26T09:30:16.231Z</time></trkpt><trkpt lat="42.828465" lon="12.9311083"><ele>406.25</ele><time>2026-04-26T09:30:17.23Z</time></trkpt><trkpt lat="42.8285883" lon="12.9312333"><ele>407.5</ele><time>2026-04-26T09:30:18.232Z</time></trkpt><trkpt lat="42.828675" lon="12.93138"><ele>408.75</ele><time>2026-04-26T09:30:19.232Z</time></trkpt><trkpt lat="42.8287283" lon="12.9315383"><ele>410.0</ele><time>2026-04-26T09:30:20.233Z</time></trkpt><trkpt lat="42.828755" lon="12.9317033"><ele>413.0</ele><time>2026-04-26T09:30:21.235Z</time></trkpt><trkpt lat="42.8287633" lon="12.9318683"><ele>416.0</ele><time>2026-04-26T09:30:22.231Z</time></trkpt><trkpt lat="42.8287683" lon="12.9320383"><ele>419.0</ele><time>2026-04-26T09:30:23.231Z</time></trkpt><trkpt lat="42.8287733" lon="12.9322167"><ele>422.0</ele><time>2026-04-26T09:30:24.233Z</time></trkpt><trkpt lat="42.8287783" lon="12.9323917"><ele>427.0</ele><time>2026-04-26T09:30:25.226Z</time></trkpt><trkpt lat="42.8287833" lon="12.9325683"><ele>432.0</ele><time>2026-04-26T09:30:26.23Z</time></trkpt><trkpt lat="42.8287883" lon="12.9327433"><ele>437.0</ele><time>2026-04-26T09:30:27.232Z</time></trkpt><trkpt lat="42.8287433" lon="12.9330783"><ele>437.0</ele><time>2026-04-26T09:30:29.235Z</time></trkpt><trkpt lat="42.8286917" lon="12.9332883"><ele>437.0</ele><time>2026-04-26T09:30:30.231Z</time></trkpt><trkpt lat="42.82866" lon="12.9334867"><ele>437.0</ele><time>2026-04-26T09:30:31.229Z</time></trkpt><trkpt lat="42.8286533" lon="12.9336667"><ele>437.0</ele><time>2026-04-26T09:30:32.238Z</time></trkpt><trkpt lat="42.82864" lon="12.9338683"><ele>434.0</ele><time>2026-04-26T09:30:33.234Z</time></trkpt><trkpt lat="42.8286133" lon="12.934065"><ele>431.0</ele><time>2026-04-26T09:30:34.231Z</time></trkpt><trkpt lat="42.8285717" lon="12.93425"><ele>428.0</ele><time>2026-04-26T09:30:35.23Z</time></trkpt><trkpt lat="42.8284917" lon="12.9344183"><ele>425.0</ele><time>2026-04-26T09:30:36.231Z</time></trkpt><trkpt lat="42.8283867" lon="12.934555"><ele>425.0</ele><time>2026-04-26T09:30:37.237Z</time></trkpt><trkpt lat="42.8282733" lon="12.9346717"><ele>425.0</ele><time>2026-04-26T09:30:38.23Z</time></trkpt><trkpt lat="42.8281583" lon="12.934785"><ele>425.0</ele><time>2026-04-26T09:30:39.231Z</time></trkpt><trkpt lat="42.828055" lon="12.9348933"><ele>425.0</ele><time>2026-04-26T09:30:40.233Z</time></trkpt><trkpt lat="42.827975" lon="12.9350067"><ele>426.4</ele><time>2026-04-26T09:30:41.249Z</time></trkpt><trkpt lat="42.8279333" lon="12.9351267"><ele>427.8</ele><time>2026-04-26T09:30:42.232Z</time></trkpt><trkpt lat="42.8279217" lon="12.9352517"><ele>429.20000000000005</ele><time>2026-04-26T09:30:43.234Z</time></trkpt><trkpt lat="42.8279283" lon="12.9353767"><ele>430.6</ele><time>2026-04-26T09:30:44.23Z</time></trkpt><trkpt lat="42.82794" lon="12.93551"><ele>432.0</ele><time>2026-04-26T09:30:45.232Z</time></trkpt><trkpt lat="42.827945" lon="12.9356383"><ele>432.0</ele><time>2026-04-26T09:30:46.23Z</time></trkpt><trkpt lat="42.8279417" lon="12.9357633"><ele>432.00000000000006</ele><time>2026-04-26T09:30:47.231Z</time></trkpt><trkpt lat="42.8279217" lon="12.9358833"><ele>432.00000000000006</ele><time>2026-04-26T09:30:48.231Z</time></trkpt><trkpt lat="42.827875" lon="12.9360083"><ele>432.0</ele><time>2026-04-26T09:30:49.231Z</time></trkpt><trkpt lat="42.8277983" lon="12.9361167"><ele>432.0</ele><time>2026-04-26T09:30:50.244Z</time></trkpt><trkpt lat="42.82771" lon="12.9362117"><ele>427.8</ele><time>2026-04-26T09:30:51.229Z</time></trkpt><trkpt lat="42.827635" lon="12.93632"><ele>423.6</ele><time>2026-04-26T09:30:52.231Z</time></trkpt><trkpt lat="42.8275767" lon="12.93643"><ele>419.40000000000003</ele><time>2026-04-26T09:30:53.229Z</time></trkpt><trkpt lat="42.827545" lon="12.9365467"><ele>415.20000000000005</ele><time>2026-04-26T09:30:54.232Z</time></trkpt><trkpt lat="42.8275317" lon="12.9366683"><ele>411.0</ele><time>2026-04-26T09:30:55.23Z</time></trkpt><trkpt lat="42.827535" lon="12.936805"><ele>409.75</ele><time>2026-04-26T09:30:56.232Z</time></trkpt><trkpt lat="42.82755" lon="12.9369633"><ele>408.5</ele><time>2026-04-26T09:30:57.233Z</time></trkpt><trkpt lat="42.82758" lon="12.937125"><ele>407.25</ele><time>2026-04-26T09:30:58.232Z</time></trkpt><trkpt lat="42.8276283" lon="12.937295"><ele>406.0</ele><time>2026-04-26T09:30:59.231Z</time></trkpt><trkpt lat="42.82767" lon="12.937475"><ele>405.25</ele><time>2026-04-26T09:31:00.233Z</time></trkpt><trkpt lat="42.8277183" lon="12.9376533"><ele>404.5</ele><time>2026-04-26T09:31:01.232Z</time></trkpt><trkpt lat="42.827755" lon="12.937845"><ele>403.75</ele><time>2026-04-26T09:31:02.232Z</time></trkpt><trkpt lat="42.82777" lon="12.9380417"><ele>403.0</ele><time>2026-04-26T09:31:03.234Z</time></trkpt><trkpt lat="42.827775" lon="12.9382367"><ele>403.25</ele><time>2026-04-26T09:31:04.233Z</time></trkpt><trkpt lat="42.827785" lon="12.9384133"><ele>403.5</ele><time>2026-04-26T09:31:05.233Z</time></trkpt><trkpt lat="42.8278133" lon="12.9385683"><ele>403.75</ele><time>2026-04-26T09:31:06.233Z</time></trkpt><trkpt lat="42.8278683" lon="12.9387017"><ele>404.0</ele><time>2026-04-26T09:31:07.234Z</time></trkpt><trkpt lat="42.8279583" lon="12.9388167"><ele>404.0</ele><time>2026-04-26T09:31:08.231Z</time></trkpt><trkpt lat="42.828085" lon="12.9389283"><ele>404.0</ele><time>2026-04-26T09:31:09.234Z</time></trkpt><trkpt lat="42.8282267" lon="12.9390583"><ele>404.0</ele><time>2026-04-26T09:31:10.231Z</time></trkpt><trkpt lat="42.8283717" lon="12.9392017"><ele>404.66666666666663</ele><time>2026-04-26T09:31:11.231Z</time></trkpt><trkpt lat="42.8285183" lon="12.9393467"><ele>405.33333333333337</ele><time>2026-04-26T09:31:12.233Z</time></trkpt><trkpt lat="42.8286533" lon="12.9394917"><ele>406.0</ele><time>2026-04-26T09:31:13.232Z</time></trkpt><trkpt lat="42.82877" lon="12.9396417"><ele>406.0</ele><time>2026-04-26T09:31:14.235Z</time></trkpt><trkpt lat="42.82886" lon="12.9398083"><ele>406.0</ele><time>2026-04-26T09:31:15.231Z</time></trkpt><trkpt lat="42.8289317" lon="12.9399983"><ele>406.0</ele><time>2026-04-26T09:31:16.231Z</time></trkpt><trkpt lat="42.8289933" lon="12.9402167"><ele>412.6666666666667</ele><time>2026-04-26T09:31:17.232Z</time></trkpt><trkpt lat="42.8290567" lon="12.9404483"><ele>419.33333333333337</ele><time>2026-04-26T09:31:18.229Z</time></trkpt><trkpt lat="42.8291183" lon="12.9406717"><ele>426.0</ele><time>2026-04-26T09:31:19.233Z</time></trkpt><trkpt lat="42.82918" lon="12.9408933"><ele>428.33333333333337</ele><time>2026-04-26T09:31:20.231Z</time></trkpt><trkpt lat="42.82921" lon="12.941125"><ele>430.6666666666667</ele><time>2026-04-26T09:31:21.237Z</time></trkpt><trkpt lat="42.8292233" lon="12.94137"><ele>433.0</ele><time>2026-04-26T09:31:22.231Z</time></trkpt><trkpt lat="42.8292367" lon="12.941625"><ele>433.6666666666667</ele><time>2026-04-26T09:31:23.231Z</time></trkpt><trkpt lat="42.8292317" lon="12.9418817"><ele>434.33333333333337</ele><time>2026-04-26T09:31:24.231Z</time></trkpt><trkpt lat="42.829235" lon="12.94213"><ele>435.0</ele><time>2026-04-26T09:31:25.231Z</time></trkpt><trkpt lat="42.82924" lon="12.94237"><ele>432.66666666666663</ele><time>2026-04-26T09:31:26.233Z</time></trkpt><trkpt lat="42.8292733" lon="12.9426"><ele>430.3333333333333</ele><time>2026-04-26T09:31:27.234Z</time></trkpt><trkpt lat="42.82935" lon="12.9427983"><ele>428.0</ele><time>2026-04-26T09:31:28.234Z</time></trkpt><trkpt lat="42.8294567" lon="12.9429767"><ele>428.0</ele><time>2026-04-26T09:31:29.233Z</time></trkpt><trkpt lat="42.8296033" lon="12.9431183"><ele>428.0</ele><time>2026-04-26T09:31:30.234Z</time></trkpt><trkpt lat="42.8297517" lon="12.94323"><ele>428.0</ele><time>2026-04-26T09:31:31.233Z</time></trkpt><trkpt lat="42.8299067" lon="12.94333"><ele>431.3333333333333</ele><time>2026-04-26T09:31:32.234Z</time></trkpt><trkpt lat="42.830065" lon="12.9434317"><ele>434.66666666666663</ele><time>2026-04-26T09:31:33.232Z</time></trkpt><trkpt lat="42.8302317" lon="12.9435267"><ele>438.0</ele><time>2026-04-26T09:31:34.232Z</time></trkpt><trkpt lat="42.8304033" lon="12.9435867"><ele>438.0</ele><time>2026-04-26T09:31:35.23Z</time></trkpt><trkpt lat="42.8305733" lon="12.943595"><ele>438.0</ele><time>2026-04-26T09:31:36.228Z</time></trkpt><trkpt lat="42.8307433" lon="12.9435767"><ele>438.0</ele><time>2026-04-26T09:31:37.23Z</time></trkpt><trkpt lat="42.830915" lon="12.9435483"><ele>438.0</ele><time>2026-04-26T09:31:38.231Z</time></trkpt><trkpt lat="42.8310917" lon="12.94352"><ele>438.0</ele><time>2026-04-26T09:31:39.232Z</time></trkpt><trkpt lat="42.8312683" lon="12.9434967"><ele>438.0</ele><time>2026-04-26T09:31:40.23Z</time></trkpt><trkpt lat="42.8314433" lon="12.9434817"><ele>438.0</ele><time>2026-04-26T09:31:41.233Z</time></trkpt><trkpt lat="42.8316233" lon="12.9434833"><ele>438.0</ele><time>2026-04-26T09:31:42.232Z</time></trkpt><trkpt lat="42.8318" lon="12.9435183"><ele>438.0</ele><time>2026-04-26T09:31:43.231Z</time></trkpt><trkpt lat="42.83197" lon="12.9435817"><ele>436.33333333333337</ele><time>2026-04-26T09:31:44.232Z</time></trkpt><trkpt lat="42.832135" lon="12.943675"><ele>434.6666666666667</ele><time>2026-04-26T09:31:45.231Z</time></trkpt><trkpt lat="42.8322883" lon="12.9437883"><ele>433.0</ele><time>2026-04-26T09:31:46.23Z</time></trkpt><trkpt lat="42.8324283" lon="12.9438933"><ele>433.0</ele><time>2026-04-26T09:31:47.23Z</time></trkpt><trkpt lat="42.8325667" lon="12.943985"><ele>433.0</ele><time>2026-04-26T09:31:48.23Z</time></trkpt><trkpt lat="42.8327017" lon="12.94406"><ele>433.0</ele><time>2026-04-26T09:31:49.233Z</time></trkpt><trkpt lat="42.8328367" lon="12.9441167"><ele>433.0</ele><time>2026-04-26T09:31:50.23Z</time></trkpt><trkpt lat="42.8329667" lon="12.9441633"><ele>432.5</ele><time>2026-04-26T09:31:51.23Z</time></trkpt><trkpt lat="42.8330883" lon="12.944215"><ele>432.0</ele><time>2026-04-26T09:31:52.23Z</time></trkpt><trkpt lat="42.8331983" lon="12.9442867"><ele>431.5</ele><time>2026-04-26T09:31:53.231Z</time></trkpt><trkpt lat="42.8332983" lon="12.9443983"><ele>431.0</ele><time>2026-04-26T09:31:54.232Z</time></trkpt><trkpt lat="42.833395" lon="12.9445417"><ele>429.66666666666663</ele><time>2026-04-26T09:31:55.233Z</time></trkpt><trkpt lat="42.833495" lon="12.944715"><ele>428.33333333333337</ele><time>2026-04-26T09:31:56.23Z</time></trkpt><trkpt lat="42.8336017" lon="12.9449017"><ele>427.0</ele><time>2026-04-26T09:31:57.231Z</time></trkpt><trkpt lat="42.83372" lon="12.9450783"><ele>427.0</ele><time>2026-04-26T09:31:58.229Z</time></trkpt><trkpt lat="42.833865" lon="12.94525"><ele>427.0</ele><time>2026-04-26T09:31:59.231Z</time></trkpt><trkpt lat="42.8340517" lon="12.94542"><ele>427.0</ele><time>2026-04-26T09:32:00.231Z</time></trkpt><trkpt lat="42.83427" lon="12.9455933"><ele>430.0</ele><time>2026-04-26T09:32:01.231Z</time></trkpt><trkpt lat="42.8344867" lon="12.9457867"><ele>433.0</ele><time>2026-04-26T09:32:02.227Z</time></trkpt><trkpt lat="42.8346967" lon="12.9459733"><ele>433.0</ele><time>2026-04-26T09:32:03.236Z</time></trkpt><trkpt lat="42.834905" lon="12.9461317"><ele>433.0</ele><time>2026-04-26T09:32:04.231Z</time></trkpt><trkpt lat="42.8351233" lon="12.9462667"><ele>427.5</ele><time>2026-04-26T09:32:05.237Z</time></trkpt><trkpt lat="42.8353583" lon="12.9463783"><ele>422.0</ele><time>2026-04-26T09:32:06.234Z</time></trkpt><trkpt lat="42.8356117" lon="12.94647"><ele>422.0</ele><time>2026-04-26T09:32:07.231Z</time></trkpt><trkpt lat="42.8358767" lon="12.9465567"><ele>422.0</ele><time>2026-04-26T09:32:08.233Z</time></trkpt><trkpt lat="42.8361483" lon="12.9466433"><ele>430.5</ele><time>2026-04-26T09:32:09.234Z</time></trkpt><trkpt lat="42.83642" lon="12.94673"><ele>439.0</ele><time>2026-04-26T09:32:10.234Z</time></trkpt><trkpt lat="42.8366817" lon="12.9468167"><ele>430.5</ele><time>2026-04-26T09:32:11.232Z</time></trkpt><trkpt lat="42.836935" lon="12.9469017"><ele>422.0</ele><time>2026-04-26T09:32:12.235Z</time></trkpt><trkpt lat="42.8371733" lon="12.9469783"><ele>422.0</ele><time>2026-04-26T09:32:13.232Z</time></trkpt><trkpt lat="42.8373967" lon="12.9470633"><ele>422.0</ele><time>2026-04-26T09:32:14.235Z</time></trkpt><trkpt lat="42.83761" lon="12.9471633"><ele>425.66666666666663</ele><time>2026-04-26T09:32:15.233Z</time></trkpt><trkpt lat="42.8378083" lon="12.947285"><ele>429.33333333333337</ele><time>2026-04-26T09:32:16.232Z</time></trkpt><trkpt lat="42.838" lon="12.9474267"><ele>433.0</ele><time>2026-04-26T09:32:17.233Z</time></trkpt><trkpt lat="42.8381883" lon="12.947585"><ele>433.0</ele><time>2026-04-26T09:32:18.233Z</time></trkpt><trkpt lat="42.838375" lon="12.9477517"><ele>433.0</ele><time>2026-04-26T09:32:19.234Z</time></trkpt><trkpt lat="42.8385583" lon="12.9479133"><ele>433.0</ele><time>2026-04-26T09:32:20.235Z</time></trkpt><trkpt lat="42.8387317" lon="12.9480833"><ele>426.0</ele><time>2026-04-26T09:32:21.233Z</time></trkpt><trkpt lat="42.8388917" lon="12.9482767"><ele>419.0</ele><time>2026-04-26T09:32:22.235Z</time></trkpt><trkpt lat="42.8390317" lon="12.9484867"><ele>412.0</ele><time>2026-04-26T09:32:23.233Z</time></trkpt><trkpt lat="42.8391667" lon="12.9486883"><ele>406.6666666666667</ele><time>2026-04-26T09:32:24.233Z</time></trkpt><trkpt lat="42.8393067" lon="12.9488517"><ele>401.33333333333337</ele><time>2026-04-26T09:32:25.233Z</time></trkpt><trkpt lat="42.8394683" lon="12.9489667"><ele>396.0</ele><time>2026-04-26T09:32:26.234Z</time></trkpt><trkpt lat="42.8396283" lon="12.9490467"><ele>396.0</ele><time>2026-04-26T09:32:27.234Z</time></trkpt><trkpt lat="42.83979" lon="12.9491067"><ele>396.0</ele><time>2026-04-26T09:32:28.236Z</time></trkpt><trkpt lat="42.839945" lon="12.9491667"><ele>396.0</ele><time>2026-04-26T09:32:29.232Z</time></trkpt><trkpt lat="42.8400867" lon="12.9492367"><ele>403.25</ele><time>2026-04-26T09:32:30.232Z</time></trkpt><trkpt lat="42.8402133" lon="12.94932"><ele>410.5</ele><time>2026-04-26T09:32:31.232Z</time></trkpt><trkpt lat="42.8403067" lon="12.9494383"><ele>417.75</ele><time>2026-04-26T09:32:32.233Z</time></trkpt><trkpt lat="42.8403717" lon="12.9495967"><ele>425.0</ele><time>2026-04-26T09:32:33.232Z</time></trkpt><trkpt lat="42.8404233" lon="12.94978"><ele>425.0</ele><time>2026-04-26T09:32:34.232Z</time></trkpt><trkpt lat="42.8404817" lon="12.9499867"><ele>425.0</ele><time>2026-04-26T09:32:35.232Z</time></trkpt><trkpt lat="42.84055" lon="12.9502133"><ele>425.0</ele><time>2026-04-26T09:32:36.23Z</time></trkpt><trkpt lat="42.8406217" lon="12.9504467"><ele>420.66666666666663</ele><time>2026-04-26T09:32:37.235Z</time></trkpt><trkpt lat="42.8407" lon="12.9506667"><ele>416.33333333333337</ele><time>2026-04-26T09:32:38.234Z</time></trkpt><trkpt lat="42.8407933" lon="12.9508633"><ele>412.0</ele><time>2026-04-26T09:32:39.235Z</time></trkpt><trkpt lat="42.8409167" lon="12.9510383"><ele>415.0</ele><time>2026-04-26T09:32:40.233Z</time></trkpt><trkpt lat="42.8410583" lon="12.9511867"><ele>418.0</ele><time>2026-04-26T09:32:41.235Z</time></trkpt><trkpt lat="42.841225" lon="12.951315"><ele>421.0</ele><time>2026-04-26T09:32:42.236Z</time></trkpt><trkpt lat="42.8414017" lon="12.9514383"><ele>421.0</ele><time>2026-04-26T09:32:43.233Z</time></trkpt><trkpt lat="42.8415783" lon="12.9515633"><ele>421.0</ele><time>2026-04-26T09:32:44.235Z</time></trkpt><trkpt lat="42.8417533" lon="12.9516983"><ele>421.0</ele><time>2026-04-26T09:32:45.233Z</time></trkpt><trkpt lat="42.8419117" lon="12.951845"><ele>426.33333333333337</ele><time>2026-04-26T09:32:46.235Z</time></trkpt><trkpt lat="42.8420533" lon="12.9520117"><ele>431.66666666666663</ele><time>2026-04-26T09:32:47.232Z</time></trkpt><trkpt lat="42.842185" lon="12.9522083"><ele>437.0</ele><time>2026-04-26T09:32:48.235Z</time></trkpt><trkpt lat="42.842305" lon="12.952435"><ele>428.0</ele><time>2026-04-26T09:32:49.236Z</time></trkpt><trkpt lat="42.84243" lon="12.9526833"><ele>419.0</ele><time>2026-04-26T09:32:50.232Z</time></trkpt><trkpt lat="42.842555" lon="12.95296"><ele>429.5</ele><time>2026-04-26T09:32:51.231Z</time></trkpt><trkpt lat="42.8426933" lon="12.953255"><ele>440.0</ele><time>2026-04-26T09:32:52.234Z</time></trkpt><trkpt lat="42.8428317" lon="12.9535383"><ele>440.0</ele><time>2026-04-26T09:32:53.232Z</time></trkpt><trkpt lat="42.8429617" lon="12.9537967"><ele>440.0</ele><time>2026-04-26T09:32:54.236Z</time></trkpt><trkpt lat="42.84309" lon="12.9540467"><ele>429.5</ele><time>2026-04-26T09:32:55.234Z</time></trkpt><trkpt lat="42.8432283" lon="12.9542983"><ele>419.0</ele><time>2026-04-26T09:32:56.232Z</time></trkpt><trkpt lat="42.8433833" lon="12.9545533"><ele>424.0</ele><time>2026-04-26T09:32:57.237Z</time></trkpt><trkpt lat="42.843555" lon="12.95481"><ele>429.0</ele><time>2026-04-26T09:32:58.233Z</time></trkpt><trkpt lat="42.843735" lon="12.9550733"><ele>429.0</ele><time>2026-04-26T09:32:59.233Z</time></trkpt><trkpt lat="42.8439233" lon="12.9553467"><ele>429.0</ele><time>2026-04-26T09:33:00.236Z</time></trkpt><trkpt lat="42.8441167" lon="12.9556267"><ele>433.5</ele><time>2026-04-26T09:33:01.238Z</time></trkpt><trkpt lat="42.8443117" lon="12.9559083"><ele>438.0</ele><time>2026-04-26T09:33:02.234Z</time></trkpt><trkpt lat="42.8445033" lon="12.9561933"><ele>438.0</ele><time>2026-04-26T09:33:03.235Z</time></trkpt><trkpt lat="42.8446933" lon="12.9564733"><ele>438.0</ele><time>2026-04-26T09:33:04.234Z</time></trkpt><trkpt lat="42.8448783" lon="12.9567533"><ele>444.5</ele><time>2026-04-26T09:33:05.234Z</time></trkpt><trkpt lat="42.84506" lon="12.95704"><ele>451.0</ele><time>2026-04-26T09:33:06.241Z</time></trkpt><trkpt lat="42.8452483" lon="12.9573267"><ele>441.5</ele><time>2026-04-26T09:33:07.234Z</time></trkpt><trkpt lat="42.84544" lon="12.9576117"><ele>432.0</ele><time>2026-04-26T09:33:08.232Z</time></trkpt><trkpt lat="42.8456333" lon="12.957895"><ele>432.0</ele><time>2026-04-26T09:33:09.234Z</time></trkpt><trkpt lat="42.8458167" lon="12.9581667"><ele>432.0</ele><time>2026-04-26T09:33:10.234Z</time></trkpt><trkpt lat="42.8459867" lon="12.9584367"><ele>434.0</ele><time>2026-04-26T09:33:11.233Z</time></trkpt><trkpt lat="42.8461383" lon="12.9587067"><ele>436.0</ele><time>2026-04-26T09:33:12.234Z</time></trkpt><trkpt lat="42.8462783" lon="12.958965"><ele>432.0</ele><time>2026-04-26T09:33:13.234Z</time></trkpt><trkpt lat="42.8464133" lon="12.959215"><ele>428.0</ele><time>2026-04-26T09:33:14.235Z</time></trkpt><trkpt lat="42.8465433" lon="12.9594517"><ele>424.0</ele><time>2026-04-26T09:33:15.237Z</time></trkpt><trkpt lat="42.8466683" lon="12.9596717"><ele>424.0</ele><time>2026-04-26T09:33:16.234Z</time></trkpt><trkpt lat="42.8467883" lon="12.9598767"><ele>424.0</ele><time>2026-04-26T09:33:17.233Z</time></trkpt><trkpt lat="42.8468967" lon="12.960075"><ele>424.0</ele><time>2026-04-26T09:33:18.232Z</time></trkpt><trkpt lat="42.8469967" lon="12.960275"><ele>424.33333333333337</ele><time>2026-04-26T09:33:19.236Z</time></trkpt><trkpt lat="42.8470933" lon="12.9604833"><ele>424.66666666666663</ele><time>2026-04-26T09:33:20.231Z</time></trkpt><trkpt lat="42.8471867" lon="12.9606967"><ele>425.0</ele><time>2026-04-26T09:33:21.234Z</time></trkpt><trkpt lat="42.8472817" lon="12.96092"><ele>425.0</ele><time>2026-04-26T09:33:22.234Z</time></trkpt><trkpt lat="42.847375" lon="12.9611517"><ele>425.0</ele><time>2026-04-26T09:33:23.234Z</time></trkpt><trkpt lat="42.8474767" lon="12.9613867"><ele>425.0</ele><time>2026-04-26T09:33:24.235Z</time></trkpt><trkpt lat="42.84759" lon="12.9616217"><ele>430.0</ele><time>2026-04-26T09:33:25.231Z</time></trkpt><trkpt lat="42.8477117" lon="12.9618533"><ele>435.0</ele><time>2026-04-26T09:33:26.234Z</time></trkpt><trkpt lat="42.8478383" lon="12.9620783"><ele>440.0</ele><time>2026-04-26T09:33:27.236Z</time></trkpt><trkpt lat="42.8479667" lon="12.9623017"><ele>440.0</ele><time>2026-04-26T09:33:28.231Z</time></trkpt><trkpt lat="42.8481" lon="12.962525"><ele>440.0</ele><time>2026-04-26T09:33:29.232Z</time></trkpt><trkpt lat="42.8482333" lon="12.9627433"><ele>440.0</ele><time>2026-04-26T09:33:30.235Z</time></trkpt><trkpt lat="42.84837" lon="12.96296"><ele>436.66666666666663</ele><time>2026-04-26T09:33:31.236Z</time></trkpt><trkpt lat="42.8485067" lon="12.9631733"><ele>433.33333333333337</ele><time>2026-04-26T09:33:32.231Z</time></trkpt><trkpt lat="42.8486467" lon="12.9633783"><ele>430.0</ele><time>2026-04-26T09:33:33.235Z</time></trkpt><trkpt lat="42.8487917" lon="12.9635783"><ele>430.0</ele><time>2026-04-26T09:33:34.234Z</time></trkpt><trkpt lat="42.8489333" lon="12.9637783"><ele>430.0</ele><time>2026-04-26T09:33:35.231Z</time></trkpt><trkpt lat="42.8490733" lon="12.9639767"><ele>430.0</ele><time>2026-04-26T09:33:36.232Z</time></trkpt><trkpt lat="42.84921" lon="12.9641833"><ele>433.6666666666667</ele><time>2026-04-26T09:33:37.233Z</time></trkpt><trkpt lat="42.8493467" lon="12.96438"><ele>437.33333333333337</ele><time>2026-04-26T09:33:38.235Z</time></trkpt><trkpt lat="42.8494833" lon="12.964565"><ele>441.0</ele><time>2026-04-26T09:33:39.235Z</time></trkpt><trkpt lat="42.8496117" lon="12.9647383"><ele>441.0</ele><time>2026-04-26T09:33:40.235Z</time></trkpt><trkpt lat="42.8497433" lon="12.964895"><ele>441.0</ele><time>2026-04-26T09:33:41.234Z</time></trkpt><trkpt lat="42.8498833" lon="12.9650467"><ele>441.0</ele><time>2026-04-26T09:33:42.235Z</time></trkpt><trkpt lat="42.8500333" lon="12.96519"><ele>442.0</ele><time>2026-04-26T09:33:43.234Z</time></trkpt><trkpt lat="42.850185" lon="12.9653283"><ele>443.0</ele><time>2026-04-26T09:33:44.232Z</time></trkpt><trkpt lat="42.8503283" lon="12.965465"><ele>444.0</ele><time>2026-04-26T09:33:45.235Z</time></trkpt><trkpt lat="42.850465" lon="12.9655983"><ele>444.0</ele><time>2026-04-26T09:33:46.233Z</time></trkpt><trkpt lat="42.8506" lon="12.9657283"><ele>444.0</ele><time>2026-04-26T09:33:47.234Z</time></trkpt><trkpt lat="42.8507283" lon="12.9658667"><ele>444.0</ele><time>2026-04-26T09:33:48.236Z</time></trkpt><trkpt lat="42.85084" lon="12.9660217"><ele>446.5</ele><time>2026-04-26T09:33:49.233Z</time></trkpt><trkpt lat="42.8509167" lon="12.9661983"><ele>449.0</ele><time>2026-04-26T09:33:50.232Z</time></trkpt><trkpt lat="42.8509633" lon="12.966375"><ele>451.5</ele><time>2026-04-26T09:33:51.235Z</time></trkpt><trkpt lat="42.850995" lon="12.966555"><ele>454.0</ele><time>2026-04-26T09:33:52.233Z</time></trkpt><trkpt lat="42.8510283" lon="12.9667433"><ele>449.0</ele><time>2026-04-26T09:33:53.231Z</time></trkpt><trkpt lat="42.851075" lon="12.9669183"><ele>444.0</ele><time>2026-04-26T09:33:54.233Z</time></trkpt><trkpt lat="42.85114" lon="12.9670867"><ele>439.0</ele><time>2026-04-26T09:33:55.233Z</time></trkpt><trkpt lat="42.851225" lon="12.9672367"><ele>434.0</ele><time>2026-04-26T09:33:56.231Z</time></trkpt><trkpt lat="42.8513283" lon="12.9673633"><ele>434.0</ele><time>2026-04-26T09:33:57.231Z</time></trkpt><trkpt lat="42.851455" lon="12.967465"><ele>434.0</ele><time>2026-04-26T09:33:58.237Z</time></trkpt><trkpt lat="42.8515967" lon="12.96755"><ele>434.0</ele><time>2026-04-26T09:33:59.234Z</time></trkpt><trkpt lat="42.8517483" lon="12.9676283"><ele>432.0</ele><time>2026-04-26T09:34:00.228Z</time></trkpt><trkpt lat="42.8518983" lon="12.9677083"><ele>430.0</ele><time>2026-04-26T09:34:01.236Z</time></trkpt><trkpt lat="42.8520483" lon="12.96779"><ele>428.0</ele><time>2026-04-26T09:34:02.233Z</time></trkpt><trkpt lat="42.8521967" lon="12.967875"><ele>428.0</ele><time>2026-04-26T09:34:03.237Z</time></trkpt><trkpt lat="42.85234" lon="12.9679633"><ele>428.0</ele><time>2026-04-26T09:34:04.235Z</time></trkpt><trkpt lat="42.8524833" lon="12.96806"><ele>428.0</ele><time>2026-04-26T09:34:05.235Z</time></trkpt><trkpt lat="42.8526217" lon="12.968175"><ele>430.3333333333333</ele><time>2026-04-26T09:34:06.235Z</time></trkpt><trkpt lat="42.8527517" lon="12.968315"><ele>432.66666666666663</ele><time>2026-04-26T09:34:07.236Z</time></trkpt><trkpt lat="42.8528683" lon="12.9684733"><ele>435.0</ele><time>2026-04-26T09:34:08.233Z</time></trkpt><trkpt lat="42.85297" lon="12.9686483"><ele>435.0</ele><time>2026-04-26T09:34:09.235Z</time></trkpt><trkpt lat="42.85306" lon="12.9688317"><ele>435.0</ele><time>2026-04-26T09:34:10.237Z</time></trkpt><trkpt lat="42.8531383" lon="12.9690183"><ele>435.0</ele><time>2026-04-26T09:34:11.231Z</time></trkpt><trkpt lat="42.8532167" lon="12.9691817"><ele>433.0</ele><time>2026-04-26T09:34:12.23Z</time></trkpt><trkpt lat="42.853305" lon="12.9693167"><ele>431.0</ele><time>2026-04-26T09:34:13.236Z</time></trkpt><trkpt lat="42.8534183" lon="12.9693967"><ele>429.0</ele><time>2026-04-26T09:34:14.234Z</time></trkpt><trkpt lat="42.8535433" lon="12.9694483"><ele>427.0</ele><time>2026-04-26T09:34:15.235Z</time></trkpt><trkpt lat="42.8536883" lon="12.969485"><ele>427.0</ele><time>2026-04-26T09:34:16.232Z</time></trkpt><trkpt lat="42.85384" lon="12.9695233"><ele>427.0</ele><time>2026-04-26T09:34:17.237Z</time></trkpt><trkpt lat="42.85399" lon="12.9695733"><ele>427.0</ele><time>2026-04-26T09:34:18.235Z</time></trkpt><trkpt lat="42.8541333" lon="12.9696517"><ele>427.0</ele><time>2026-04-26T09:34:19.234Z</time></trkpt><trkpt lat="42.8542633" lon="12.9697533"><ele>427.0</ele><time>2026-04-26T09:34:20.229Z</time></trkpt><trkpt lat="42.8543883" lon="12.9698633"><ele>427.0</ele><time>2026-04-26T09:34:21.236Z</time></trkpt><trkpt lat="42.8545183" lon="12.96998"><ele>430.0</ele><time>2026-04-26T09:34:22.231Z</time></trkpt><trkpt lat="42.85465" lon="12.9700983"><ele>433.0</ele><time>2026-04-26T09:34:23.232Z</time></trkpt><trkpt lat="42.85478" lon="12.97022"><ele>436.0</ele><time>2026-04-26T09:34:24.234Z</time></trkpt><trkpt lat="42.85491" lon="12.970355"><ele>436.0</ele><time>2026-04-26T09:34:25.232Z</time></trkpt><trkpt lat="42.8550367" lon="12.970505"><ele>436.0</ele><time>2026-04-26T09:34:26.231Z</time></trkpt><trkpt lat="42.8551517" lon="12.9706667"><ele>436.0</ele><time>2026-04-26T09:34:27.231Z</time></trkpt><trkpt lat="42.8552567" lon="12.9708433"><ele>441.33333333333337</ele><time>2026-04-26T09:34:28.233Z</time></trkpt><trkpt lat="42.85535" lon="12.9710317"><ele>446.66666666666663</ele><time>2026-04-26T09:34:29.231Z</time></trkpt><trkpt lat="42.855445" lon="12.97122"><ele>452.0</ele><time>2026-04-26T09:34:30.233Z</time></trkpt><trkpt lat="42.8555417" lon="12.9714067"><ele>452.0</ele><time>2026-04-26T09:34:31.234Z</time></trkpt><trkpt lat="42.8556367" lon="12.9715867"><ele>452.0</ele><time>2026-04-26T09:34:32.234Z</time></trkpt><trkpt lat="42.8557233" lon="12.9717633"><ele>452.0</ele><time>2026-04-26T09:34:33.232Z</time></trkpt><trkpt lat="42.8557967" lon="12.971935"><ele>451.25</ele><time>2026-04-26T09:34:34.234Z</time></trkpt><trkpt lat="42.855855" lon="12.9721083"><ele>450.5</ele><time>2026-04-26T09:34:35.233Z</time></trkpt><trkpt lat="42.8559167" lon="12.9722567"><ele>449.75</ele><time>2026-04-26T09:34:36.232Z</time></trkpt><trkpt lat="42.8559983" lon="12.9723683"><ele>449.0</ele><time>2026-04-26T09:34:37.236Z</time></trkpt><trkpt lat="42.8560967" lon="12.97244"><ele>449.0</ele><time>2026-04-26T09:34:38.233Z</time></trkpt><trkpt lat="42.856205" lon="12.97248"><ele>449.0</ele><time>2026-04-26T09:34:39.235Z</time></trkpt><trkpt lat="42.85632" lon="12.972505"><ele>449.0</ele><time>2026-04-26T09:34:40.233Z</time></trkpt><trkpt lat="42.85644" lon="12.97252"><ele>449.0</ele><time>2026-04-26T09:34:41.232Z</time></trkpt><trkpt lat="42.8565617" lon="12.9725333"><ele>445.25</ele><time>2026-04-26T09:34:42.234Z</time></trkpt><trkpt lat="42.85669" lon="12.972555"><ele>441.5</ele><time>2026-04-26T09:34:43.233Z</time></trkpt><trkpt lat="42.85683" lon="12.9725917"><ele>437.75</ele><time>2026-04-26T09:34:44.233Z</time></trkpt><trkpt lat="42.856975" lon="12.9726567"><ele>434.0</ele><time>2026-04-26T09:34:45.235Z</time></trkpt><trkpt lat="42.8571267" lon="12.9727383"><ele>434.0</ele><time>2026-04-26T09:34:46.232Z</time></trkpt><trkpt lat="42.8572783" lon="12.9728283"><ele>434.0</ele><time>2026-04-26T09:34:47.231Z</time></trkpt><trkpt lat="42.85742" lon="12.9729367"><ele>434.0</ele><time>2026-04-26T09:34:48.235Z</time></trkpt><trkpt lat="42.8575483" lon="12.9730733"><ele>433.3333333333333</ele><time>2026-04-26T09:34:49.234Z</time></trkpt><trkpt lat="42.85767" lon="12.97323"><ele>432.66666666666663</ele><time>2026-04-26T09:34:50.233Z</time></trkpt><trkpt lat="42.8577883" lon="12.9733883"><ele>432.0</ele><time>2026-04-26T09:34:51.234Z</time></trkpt><trkpt lat="42.85792" lon="12.9735483"><ele>432.0</ele><time>2026-04-26T09:34:52.232Z</time></trkpt><trkpt lat="42.8580583" lon="12.9737017"><ele>432.0</ele><time>2026-04-26T09:34:53.232Z</time></trkpt><trkpt lat="42.8582033" lon="12.9738433"><ele>432.0</ele><time>2026-04-26T09:34:54.234Z</time></trkpt><trkpt lat="42.85835" lon="12.97397"><ele>433.0</ele><time>2026-04-26T09:34:55.234Z</time></trkpt><trkpt lat="42.8584933" lon="12.9740783"><ele>434.0</ele><time>2026-04-26T09:34:56.233Z</time></trkpt><trkpt lat="42.8586367" lon="12.97417"><ele>435.0</ele><time>2026-04-26T09:34:57.232Z</time></trkpt><trkpt lat="42.8587783" lon="12.97424"><ele>435.0</ele><time>2026-04-26T09:34:58.233Z</time></trkpt><trkpt lat="42.858915" lon="12.9742733"><ele>435.0</ele><time>2026-04-26T09:34:59.233Z</time></trkpt><trkpt lat="42.8590483" lon="12.97427"><ele>435.0</ele><time>2026-04-26T09:35:00.233Z</time></trkpt><trkpt lat="42.8591783" lon="12.9742317"><ele>435.0</ele><time>2026-04-26T09:35:01.232Z</time></trkpt><trkpt lat="42.85931" lon="12.9741583"><ele>438.25</ele><time>2026-04-26T09:35:02.233Z</time></trkpt><trkpt lat="42.8594383" lon="12.97407"><ele>441.5</ele><time>2026-04-26T09:35:03.234Z</time></trkpt><trkpt lat="42.8595633" lon="12.9739833"><ele>444.75</ele><time>2026-04-26T09:35:04.233Z</time></trkpt><trkpt lat="42.8596817" lon="12.9739083"><ele>448.0</ele><time>2026-04-26T09:35:05.235Z</time></trkpt><trkpt lat="42.85981" lon="12.9738633"><ele>448.0</ele><time>2026-04-26T09:35:06.236Z</time></trkpt><trkpt lat="42.859945" lon="12.97384"><ele>448.0</ele><time>2026-04-26T09:35:07.238Z</time></trkpt><trkpt lat="42.860085" lon="12.9738533"><ele>448.0</ele><time>2026-04-26T09:35:08.234Z</time></trkpt><trkpt lat="42.8602183" lon="12.9739"><ele>448.0</ele><time>2026-04-26T09:35:09.235Z</time></trkpt><trkpt lat="42.8603433" lon="12.97396"><ele>448.25</ele><time>2026-04-26T09:35:10.232Z</time></trkpt><trkpt lat="42.8604583" lon="12.9740317"><ele>448.5</ele><time>2026-04-26T09:35:11.234Z</time></trkpt><trkpt lat="42.86057" lon="12.97411"><ele>448.75</ele><time>2026-04-26T09:35:12.232Z</time></trkpt><trkpt lat="42.8606733" lon="12.974195"><ele>449.0</ele><time>2026-04-26T09:35:13.232Z</time></trkpt><trkpt lat="42.860765" lon="12.974305"><ele>449.0</ele><time>2026-04-26T09:35:14.233Z</time></trkpt><trkpt lat="42.8608467" lon="12.97446"><ele>449.0</ele><time>2026-04-26T09:35:15.235Z</time></trkpt><trkpt lat="42.8609167" lon="12.9746633"><ele>449.0</ele><time>2026-04-26T09:35:16.233Z</time></trkpt><trkpt lat="42.8609917" lon="12.9749283"><ele>462.5</ele><time>2026-04-26T09:35:17.232Z</time></trkpt><trkpt lat="42.861075" lon="12.9752283"><ele>476.0</ele><time>2026-04-26T09:35:18.231Z</time></trkpt><trkpt lat="42.8611517" lon="12.9755383"><ele>476.0</ele><time>2026-04-26T09:35:19.232Z</time></trkpt><trkpt lat="42.861225" lon="12.9758133"><ele>476.0</ele><time>2026-04-26T09:35:20.237Z</time></trkpt><trkpt lat="42.8612967" lon="12.9760483"><ele>476.0</ele><time>2026-04-26T09:35:21.237Z</time></trkpt><trkpt lat="42.861355" lon="12.9762717"><ele>471.3333333333333</ele><time>2026-04-26T09:35:22.232Z</time></trkpt><trkpt lat="42.8613783" lon="12.976495"><ele>466.66666666666663</ele><time>2026-04-26T09:35:23.23Z</time></trkpt><trkpt lat="42.861375" lon="12.9767217"><ele>462.0</ele><time>2026-04-26T09:35:24.231Z</time></trkpt><trkpt lat="42.86135" lon="12.976945"><ele>463.33333333333337</ele><time>2026-04-26T09:35:25.235Z</time></trkpt><trkpt lat="42.8613033" lon="12.977175"><ele>464.6666666666667</ele><time>2026-04-26T09:35:26.232Z</time></trkpt><trkpt lat="42.8612567" lon="12.97741"><ele>466.0</ele><time>2026-04-26T09:35:27.234Z</time></trkpt><trkpt lat="42.861215" lon="12.9776583"><ele>466.0</ele><time>2026-04-26T09:35:28.231Z</time></trkpt><trkpt lat="42.8611883" lon="12.97792"><ele>466.0</ele><time>2026-04-26T09:35:29.231Z</time></trkpt><trkpt lat="42.8611767" lon="12.9781917"><ele>466.0</ele><time>2026-04-26T09:35:30.236Z</time></trkpt><trkpt lat="42.8611667" lon="12.9784933"><ele>474.5</ele><time>2026-04-26T09:35:31.234Z</time></trkpt><trkpt lat="42.8611367" lon="12.978805"><ele>483.0</ele><time>2026-04-26T09:35:32.236Z</time></trkpt><trkpt lat="42.8611017" lon="12.9791033"><ele>481.33333333333337</ele><time>2026-04-26T09:35:33.233Z</time></trkpt><trkpt lat="42.8610667" lon="12.97939"><ele>479.6666666666667</ele><time>2026-04-26T09:35:34.234Z</time></trkpt><trkpt lat="42.8610417" lon="12.979655"><ele>478.0</ele><time>2026-04-26T09:35:35.233Z</time></trkpt><trkpt lat="42.8610467" lon="12.9799"><ele>471.0</ele><time>2026-04-26T09:35:36.234Z</time></trkpt><trkpt lat="42.8610983" lon="12.9801433"><ele>464.0</ele><time>2026-04-26T09:35:37.236Z</time></trkpt><trkpt lat="42.86121" lon="12.9803567"><ele>457.0</ele><time>2026-04-26T09:35:38.234Z</time></trkpt><trkpt lat="42.8613467" lon="12.9805783"><ele>457.0</ele><time>2026-04-26T09:35:39.236Z</time></trkpt><trkpt lat="42.8614917" lon="12.9808183"><ele>457.0</ele><time>2026-04-26T09:35:40.233Z</time></trkpt><trkpt lat="42.8616283" lon="12.9810667"><ele>454.0</ele><time>2026-04-26T09:35:41.232Z</time></trkpt><trkpt lat="42.8617517" lon="12.9813083"><ele>451.0</ele><time>2026-04-26T09:35:42.233Z</time></trkpt><trkpt lat="42.861875" lon="12.981545"><ele>448.0</ele><time>2026-04-26T09:35:43.231Z</time></trkpt><trkpt lat="42.86199" lon="12.9817717"><ele>448.0</ele><time>2026-04-26T09:35:44.235Z</time></trkpt><trkpt lat="42.8621067" lon="12.9819767"><ele>448.0</ele><time>2026-04-26T09:35:45.236Z</time></trkpt><trkpt lat="42.8622383" lon="12.9821533"><ele>448.0</ele><time>2026-04-26T09:35:46.234Z</time></trkpt><trkpt lat="42.8623883" lon="12.9823067"><ele>448.0</ele><time>2026-04-26T09:35:47.228Z</time></trkpt><trkpt lat="42.862565" lon="12.9824333"><ele>448.0</ele><time>2026-04-26T09:35:48.234Z</time></trkpt><trkpt lat="42.8627633" lon="12.9825183"><ele>448.0</ele><time>2026-04-26T09:35:49.233Z</time></trkpt><trkpt lat="42.86298" lon="12.982565"><ele>445.5</ele><time>2026-04-26T09:35:50.235Z</time></trkpt><trkpt lat="42.8632167" lon="12.9825883"><ele>443.0</ele><time>2026-04-26T09:35:51.233Z</time></trkpt><trkpt lat="42.863465" lon="12.9826117"><ele>443.0</ele><time>2026-04-26T09:35:52.236Z</time></trkpt><trkpt lat="42.8637083" lon="12.9826533"><ele>443.0</ele><time>2026-04-26T09:35:53.232Z</time></trkpt><trkpt lat="42.8639467" lon="12.98273"><ele>443.0</ele><time>2026-04-26T09:35:54.235Z</time></trkpt><trkpt lat="42.864175" lon="12.982855"><ele>443.0</ele><time>2026-04-26T09:35:55.235Z</time></trkpt><trkpt lat="42.8643967" lon="12.9830117"><ele>443.5</ele><time>2026-04-26T09:35:56.233Z</time></trkpt><trkpt lat="42.8646167" lon="12.9831817"><ele>444.0</ele><time>2026-04-26T09:35:57.233Z</time></trkpt><trkpt lat="42.8648283" lon="12.98336"><ele>444.0</ele><time>2026-04-26T09:35:58.232Z</time></trkpt><trkpt lat="42.8650233" lon="12.9835283"><ele>444.0</ele><time>2026-04-26T09:35:59.233Z</time></trkpt><trkpt lat="42.8652117" lon="12.9836783"><ele>444.0</ele><time>2026-04-26T09:36:00.234Z</time></trkpt><trkpt lat="42.8653917" lon="12.9837933"><ele>443.66666666666663</ele><time>2026-04-26T09:36:01.233Z</time></trkpt><trkpt lat="42.8655733" lon="12.9838517"><ele>443.3333333333333</ele><time>2026-04-26T09:36:02.237Z</time></trkpt><trkpt lat="42.8657833" lon="12.9838633"><ele>443.0</ele><time>2026-04-26T09:36:03.233Z</time></trkpt><trkpt lat="42.866005" lon="12.9838733"><ele>445.5</ele><time>2026-04-26T09:36:04.234Z</time></trkpt><trkpt lat="42.86624" lon="12.9838817"><ele>448.0</ele><time>2026-04-26T09:36:05.231Z</time></trkpt><trkpt lat="42.86648" lon="12.9838867"><ele>448.0</ele><time>2026-04-26T09:36:06.233Z</time></trkpt><trkpt lat="42.86671" lon="12.983895"><ele>448.0</ele><time>2026-04-26T09:36:07.234Z</time></trkpt><trkpt lat="42.8669317" lon="12.9839067"><ele>449.33333333333337</ele><time>2026-04-26T09:36:08.234Z</time></trkpt><trkpt lat="42.8671517" lon="12.98393"><ele>450.66666666666663</ele><time>2026-04-26T09:36:09.235Z</time></trkpt><trkpt lat="42.8673683" lon="12.9839967"><ele>452.0</ele><time>2026-04-26T09:36:10.235Z</time></trkpt><trkpt lat="42.86759" lon="12.984115"><ele>453.0</ele><time>2026-04-26T09:36:11.233Z</time></trkpt><trkpt lat="42.8678083" lon="12.98426"><ele>454.0</ele><time>2026-04-26T09:36:12.234Z</time></trkpt><trkpt lat="42.8680117" lon="12.9844083"><ele>454.0</ele><time>2026-04-26T09:36:13.234Z</time></trkpt><trkpt lat="42.8681933" lon="12.9845733"><ele>454.0</ele><time>2026-04-26T09:36:14.234Z</time></trkpt><trkpt lat="42.8683367" lon="12.9847717"><ele>454.0</ele><time>2026-04-26T09:36:15.233Z</time></trkpt><trkpt lat="42.8684317" lon="12.9850067"><ele>458.33333333333337</ele><time>2026-04-26T09:36:16.234Z</time></trkpt><trkpt lat="42.8684867" lon="12.9852533"><ele>462.66666666666663</ele><time>2026-04-26T09:36:17.233Z</time></trkpt><trkpt lat="42.86854" lon="12.98551"><ele>467.0</ele><time>2026-04-26T09:36:18.23Z</time></trkpt><trkpt lat="42.8686083" lon="12.985755"><ele>464.66666666666663</ele><time>2026-04-26T09:36:19.234Z</time></trkpt><trkpt lat="42.8687017" lon="12.98599"><ele>462.33333333333337</ele><time>2026-04-26T09:36:20.233Z</time></trkpt><trkpt lat="42.8688217" lon="12.986225"><ele>460.0</ele><time>2026-04-26T09:36:21.235Z</time></trkpt><trkpt lat="42.8689617" lon="12.9864667"><ele>453.5</ele><time>2026-04-26T09:36:22.234Z</time></trkpt><trkpt lat="42.8691117" lon="12.98672"><ele>447.0</ele><time>2026-04-26T09:36:23.233Z</time></trkpt><trkpt lat="42.8692583" lon="12.986975"><ele>469.5</ele><time>2026-04-26T09:36:24.235Z</time></trkpt><trkpt lat="42.869395" lon="12.9872333"><ele>492.0</ele><time>2026-04-26T09:36:25.232Z</time></trkpt><trkpt lat="42.8695183" lon="12.98751"><ele>478.5</ele><time>2026-04-26T09:36:26.233Z</time></trkpt><trkpt lat="42.86962" lon="12.9878017"><ele>465.0</ele><time>2026-04-26T09:36:27.235Z</time></trkpt><trkpt lat="42.869695" lon="12.9880883"><ele>460.33333333333337</ele><time>2026-04-26T09:36:28.233Z</time></trkpt><trkpt lat="42.8697683" lon="12.9883517"><ele>455.6666666666667</ele><time>2026-04-26T09:36:29.236Z</time></trkpt><trkpt lat="42.8698617" lon="12.9885933"><ele>451.0</ele><time>2026-04-26T09:36:30.235Z</time></trkpt><trkpt lat="42.8699917" lon="12.9888133"><ele>451.0</ele><time>2026-04-26T09:36:31.234Z</time></trkpt><trkpt lat="42.87016" lon="12.989"><ele>451.0</ele><time>2026-04-26T09:36:32.234Z</time></trkpt><trkpt lat="42.8703317" lon="12.9891733"><ele>451.0</ele><time>2026-04-26T09:36:33.235Z</time></trkpt><trkpt lat="42.8705067" lon="12.98934"><ele>451.0</ele><time>2026-04-26T09:36:34.233Z</time></trkpt><trkpt lat="42.8706867" lon="12.9895"><ele>451.0</ele><time>2026-04-26T09:36:35.233Z</time></trkpt><trkpt lat="42.87088" lon="12.9896467"><ele>451.0</ele><time>2026-04-26T09:36:36.232Z</time></trkpt><trkpt lat="42.8711033" lon="12.9897433"><ele>452.0</ele><time>2026-04-26T09:36:37.237Z</time></trkpt><trkpt lat="42.8713217" lon="12.9898167"><ele>453.0</ele><time>2026-04-26T09:36:38.232Z</time></trkpt><trkpt lat="42.8715483" lon="12.9898617"><ele>456.5</ele><time>2026-04-26T09:36:39.233Z</time></trkpt><trkpt lat="42.8717767" lon="12.9898883"><ele>460.0</ele><time>2026-04-26T09:36:40.234Z</time></trkpt><trkpt lat="42.872015" lon="12.9899067"><ele>460.0</ele><time>2026-04-26T09:36:41.231Z</time></trkpt><trkpt lat="42.872265" lon="12.989915"><ele>460.0</ele><time>2026-04-26T09:36:42.232Z</time></trkpt><trkpt lat="42.8725267" lon="12.9899233"><ele>459.5</ele><time>2026-04-26T09:36:43.236Z</time></trkpt><trkpt lat="42.872795" lon="12.9899333"><ele>459.0</ele><time>2026-04-26T09:36:44.232Z</time></trkpt><trkpt lat="42.8730683" lon="12.98994"><ele>459.0</ele><time>2026-04-26T09:36:45.234Z</time></trkpt><trkpt lat="42.8733333" lon="12.9899483"><ele>459.0</ele><time>2026-04-26T09:36:46.233Z</time></trkpt><trkpt lat="42.8735917" lon="12.9899633"><ele>457.5</ele><time>2026-04-26T09:36:47.233Z</time></trkpt><trkpt lat="42.8738583" lon="12.9899617"><ele>456.0</ele><time>2026-04-26T09:36:48.236Z</time></trkpt><trkpt lat="42.8741217" lon="12.9899617"><ele>456.0</ele><time>2026-04-26T09:36:49.234Z</time></trkpt><trkpt lat="42.874375" lon="12.98996"><ele>456.0</ele><time>2026-04-26T09:36:50.234Z</time></trkpt><trkpt lat="42.874615" lon="12.98996"><ele>456.0</ele><time>2026-04-26T09:36:51.236Z</time></trkpt><trkpt lat="42.8748383" lon="12.9899667"><ele>456.0</ele><time>2026-04-26T09:36:52.234Z</time></trkpt><trkpt lat="42.8750583" lon="12.9899767"><ele>456.0</ele><time>2026-04-26T09:36:53.234Z</time></trkpt><trkpt lat="42.875285" lon="12.989985"><ele>458.0</ele><time>2026-04-26T09:36:54.233Z</time></trkpt><trkpt lat="42.87552" lon="12.9899933"><ele>460.0</ele><time>2026-04-26T09:36:55.235Z</time></trkpt><trkpt lat="42.8757533" lon="12.99"><ele>453.0</ele><time>2026-04-26T09:36:56.234Z</time></trkpt><trkpt lat="42.8759817" lon="12.990015"><ele>446.0</ele><time>2026-04-26T09:36:57.234Z</time></trkpt><trkpt lat="42.8762133" lon="12.9900617"><ele>446.0</ele><time>2026-04-26T09:36:58.238Z</time></trkpt><trkpt lat="42.87644" lon="12.9901233"><ele>446.0</ele><time>2026-04-26T09:36:59.233Z</time></trkpt><trkpt lat="42.8766567" lon="12.9901883"><ele>447.66666666666663</ele><time>2026-04-26T09:37:00.233Z</time></trkpt><trkpt lat="42.8768733" lon="12.9902533"><ele>449.33333333333337</ele><time>2026-04-26T09:37:01.233Z</time></trkpt><trkpt lat="42.8770833" lon="12.9903217"><ele>451.0</ele><time>2026-04-26T09:37:02.234Z</time></trkpt><trkpt lat="42.8772817" lon="12.99039"><ele>451.0</ele><time>2026-04-26T09:37:03.235Z</time></trkpt><trkpt lat="42.8774717" lon="12.9904583"><ele>451.0</ele><time>2026-04-26T09:37:04.233Z</time></trkpt><trkpt lat="42.8776467" lon="12.9905267"><ele>451.0</ele><time>2026-04-26T09:37:05.232Z</time></trkpt><trkpt lat="42.8778083" lon="12.9906017"><ele>451.33333333333337</ele><time>2026-04-26T09:37:06.233Z</time></trkpt><trkpt lat="42.8779583" lon="12.9906817"><ele>451.66666666666663</ele><time>2026-04-26T09:37:07.231Z</time></trkpt><trkpt lat="42.8780967" lon="12.9907683"><ele>452.0</ele><time>2026-04-26T09:37:08.232Z</time></trkpt><trkpt lat="42.87823" lon="12.99085"><ele>452.0</ele><time>2026-04-26T09:37:09.234Z</time></trkpt><trkpt lat="42.878355" lon="12.9909317"><ele>452.0</ele><time>2026-04-26T09:37:10.234Z</time></trkpt><trkpt lat="42.8784633" lon="12.99101"><ele>452.0</ele><time>2026-04-26T09:37:11.231Z</time></trkpt><trkpt lat="42.878565" lon="12.9910817"><ele>452.0</ele><time>2026-04-26T09:37:12.234Z</time></trkpt><trkpt lat="42.8786617" lon="12.9911467"><ele>452.0</ele><time>2026-04-26T09:37:13.234Z</time></trkpt><trkpt lat="42.8787467" lon="12.9912033"><ele>452.00000000000006</ele><time>2026-04-26T09:37:14.231Z</time></trkpt><trkpt lat="42.8788183" lon="12.9912667"><ele>452.00000000000006</ele><time>2026-04-26T09:37:15.233Z</time></trkpt><trkpt lat="42.8788733" lon="12.9913367"><ele>452.0</ele><time>2026-04-26T09:37:16.234Z</time></trkpt><trkpt lat="42.8788617" lon="12.9915017"><ele>452.0</ele><time>2026-04-26T09:37:18.236Z</time></trkpt><trkpt lat="42.8788217" lon="12.991585"><ele>452.20000000000005</ele><time>2026-04-26T09:37:19.233Z</time></trkpt><trkpt lat="42.8787683" lon="12.99168"><ele>452.40000000000003</ele><time>2026-04-26T09:37:20.235Z</time></trkpt><trkpt lat="42.8787183" lon="12.9917817"><ele>452.59999999999997</ele><time>2026-04-26T09:37:21.236Z</time></trkpt><trkpt lat="42.8786667" lon="12.9918883"><ele>452.79999999999995</ele><time>2026-04-26T09:37:22.235Z</time></trkpt><trkpt lat="42.87861" lon="12.9920067"><ele>453.0</ele><time>2026-04-26T09:37:23.236Z</time></trkpt><trkpt lat="42.8785483" lon="12.9921267"><ele>453.0</ele><time>2026-04-26T09:37:24.232Z</time></trkpt><trkpt lat="42.8784867" lon="12.9922517"><ele>453.0</ele><time>2026-04-26T09:37:25.234Z</time></trkpt><trkpt lat="42.8784167" lon="12.9923783"><ele>453.0</ele><time>2026-04-26T09:37:26.237Z</time></trkpt><trkpt lat="42.8783317" lon="12.992515"><ele>453.0</ele><time>2026-04-26T09:37:27.234Z</time></trkpt><trkpt lat="42.8782333" lon="12.9926483"><ele>452.66666666666663</ele><time>2026-04-26T09:37:28.233Z</time></trkpt><trkpt lat="42.8781233" lon="12.9927767"><ele>452.3333333333333</ele><time>2026-04-26T09:37:29.233Z</time></trkpt><trkpt lat="42.8780017" lon="12.9929"><ele>452.0</ele><time>2026-04-26T09:37:30.234Z</time></trkpt><trkpt lat="42.8778717" lon="12.9930233"><ele>452.0</ele><time>2026-04-26T09:37:31.235Z</time></trkpt><trkpt lat="42.8777383" lon="12.9931417"><ele>452.0</ele><time>2026-04-26T09:37:32.231Z</time></trkpt><trkpt lat="42.8776083" lon="12.9932583"><ele>452.0</ele><time>2026-04-26T09:37:33.233Z</time></trkpt><trkpt lat="42.877485" lon="12.9933717"><ele>456.0</ele><time>2026-04-26T09:37:34.233Z</time></trkpt><trkpt lat="42.87737" lon="12.9934683"><ele>460.0</ele><time>2026-04-26T09:37:35.233Z</time></trkpt><trkpt lat="42.8772633" lon="12.9935683"><ele>464.0</ele><time>2026-04-26T09:37:36.233Z</time></trkpt><trkpt lat="42.8771767" lon="12.993685"><ele>468.0</ele><time>2026-04-26T09:37:37.232Z</time></trkpt><trkpt lat="42.8771217" lon="12.9938067"><ele>468.0</ele><time>2026-04-26T09:37:38.234Z</time></trkpt><trkpt lat="42.8771017" lon="12.9939483"><ele>468.0</ele><time>2026-04-26T09:37:39.234Z</time></trkpt><trkpt lat="42.877115" lon="12.9940917"><ele>468.0</ele><time>2026-04-26T09:37:40.233Z</time></trkpt><trkpt lat="42.8771717" lon="12.9942217"><ele>468.0</ele><time>2026-04-26T09:37:41.232Z</time></trkpt><trkpt lat="42.87725" lon="12.99436"><ele>466.33333333333337</ele><time>2026-04-26T09:37:42.235Z</time></trkpt><trkpt lat="42.877355" lon="12.9945117"><ele>464.6666666666667</ele><time>2026-04-26T09:37:43.236Z</time></trkpt><trkpt lat="42.8774733" lon="12.99468"><ele>463.0</ele><time>2026-04-26T09:37:44.236Z</time></trkpt><trkpt lat="42.8776033" lon="12.9948717"><ele>470.33333333333337</ele><time>2026-04-26T09:37:45.242Z</time></trkpt><trkpt lat="42.8777267" lon="12.99507"><ele>477.66666666666663</ele><time>2026-04-26T09:37:46.234Z</time></trkpt><trkpt lat="42.8778367" lon="12.9952833"><ele>485.0</ele><time>2026-04-26T09:37:47.233Z</time></trkpt><trkpt lat="42.8779267" lon="12.995505"><ele>485.0</ele><time>2026-04-26T09:37:48.233Z</time></trkpt><trkpt lat="42.878" lon="12.9957333"><ele>485.0</ele><time>2026-04-26T09:37:49.237Z</time></trkpt><trkpt lat="42.87806" lon="12.99597"><ele>485.0</ele><time>2026-04-26T09:37:50.236Z</time></trkpt><trkpt lat="42.878115" lon="12.99622"><ele>481.3333333333333</ele><time>2026-04-26T09:37:51.236Z</time></trkpt><trkpt lat="42.8781633" lon="12.9964633"><ele>477.66666666666663</ele><time>2026-04-26T09:37:52.234Z</time></trkpt><trkpt lat="42.8782117" lon="12.9967017"><ele>474.0</ele><time>2026-04-26T09:37:53.237Z</time></trkpt><trkpt lat="42.8782567" lon="12.9969417"><ele>470.0</ele><time>2026-04-26T09:37:54.235Z</time></trkpt><trkpt lat="42.8783" lon="12.9971817"><ele>466.0</ele><time>2026-04-26T09:37:55.237Z</time></trkpt><trkpt lat="42.8783483" lon="12.9974267"><ele>462.0</ele><time>2026-04-26T09:37:56.236Z</time></trkpt><trkpt lat="42.8784017" lon="12.997665"><ele>467.33333333333337</ele><time>2026-04-26T09:37:57.235Z</time></trkpt><trkpt lat="42.87845" lon="12.9978983"><ele>472.6666666666667</ele><time>2026-04-26T09:37:58.235Z</time></trkpt><trkpt lat="42.8784967" lon="12.99813"><ele>478.0</ele><time>2026-04-26T09:37:59.235Z</time></trkpt><trkpt lat="42.8785433" lon="12.9983583"><ele>478.0</ele><time>2026-04-26T09:38:00.233Z</time></trkpt><trkpt lat="42.8786017" lon="12.9985783"><ele>478.0</ele><time>2026-04-26T09:38:01.235Z</time></trkpt><trkpt lat="42.87868" lon="12.998785"><ele>478.0</ele><time>2026-04-26T09:38:02.236Z</time></trkpt><trkpt lat="42.8787917" lon="12.9989867"><ele>472.0</ele><time>2026-04-26T09:38:03.238Z</time></trkpt><trkpt lat="42.8789333" lon="12.9991733"><ele>466.0</ele><time>2026-04-26T09:38:04.233Z</time></trkpt><trkpt lat="42.879085" lon="12.99934"><ele>460.0</ele><time>2026-04-26T09:38:05.232Z</time></trkpt><trkpt lat="42.879215" lon="12.9995067"><ele>469.6666666666667</ele><time>2026-04-26T09:38:06.234Z</time></trkpt><trkpt lat="42.8793183" lon="12.999685"><ele>479.33333333333337</ele><time>2026-04-26T09:38:07.235Z</time></trkpt><trkpt lat="42.8793967" lon="12.9998883"><ele>489.0</ele><time>2026-04-26T09:38:08.235Z</time></trkpt><trkpt lat="42.8794467" lon="13.0001217"><ele>489.0</ele><time>2026-04-26T09:38:09.235Z</time></trkpt><trkpt lat="42.8794817" lon="13.0003617"><ele>489.0</ele><time>2026-04-26T09:38:10.234Z</time></trkpt><trkpt lat="42.8795083" lon="13.000605"><ele>489.0</ele><time>2026-04-26T09:38:11.233Z</time></trkpt><trkpt lat="42.8795367" lon="13.0008333"><ele>486.33333333333337</ele><time>2026-04-26T09:38:12.231Z</time></trkpt><trkpt lat="42.8795633" lon="13.00105"><ele>483.6666666666667</ele><time>2026-04-26T09:38:13.233Z</time></trkpt><trkpt lat="42.8796033" lon="13.001265"><ele>481.0</ele><time>2026-04-26T09:38:14.234Z</time></trkpt><trkpt lat="42.879665" lon="13.0014817"><ele>478.0</ele><time>2026-04-26T09:38:15.234Z</time></trkpt><trkpt lat="42.87975" lon="13.0017017"><ele>475.0</ele><time>2026-04-26T09:38:16.235Z</time></trkpt><trkpt lat="42.879845" lon="13.0019333"><ele>472.0</ele><time>2026-04-26T09:38:17.232Z</time></trkpt><trkpt lat="42.879935" lon="13.002175"><ele>472.0</ele><time>2026-04-26T09:38:18.233Z</time></trkpt><trkpt lat="42.8800083" lon="13.0024283"><ele>472.0</ele><time>2026-04-26T09:38:19.234Z</time></trkpt><trkpt lat="42.8800717" lon="13.0027067"><ele>472.0</ele><time>2026-04-26T09:38:20.235Z</time></trkpt><trkpt lat="42.8801117" lon="13.0029883"><ele>481.33333333333337</ele><time>2026-04-26T09:38:21.233Z</time></trkpt><trkpt lat="42.8801433" lon="13.0032683"><ele>490.66666666666663</ele><time>2026-04-26T09:38:22.233Z</time></trkpt><trkpt lat="42.880175" lon="13.003545"><ele>500.0</ele><time>2026-04-26T09:38:23.234Z</time></trkpt><trkpt lat="42.880205" lon="13.00382"><ele>500.0</ele><time>2026-04-26T09:38:24.234Z</time></trkpt><trkpt lat="42.880235" lon="13.0040883"><ele>500.0</ele><time>2026-04-26T09:38:25.235Z</time></trkpt><trkpt lat="42.8802617" lon="13.0043333"><ele>500.0</ele><time>2026-04-26T09:38:26.228Z</time></trkpt><trkpt lat="42.880285" lon="13.0045667"><ele>498.3333333333333</ele><time>2026-04-26T09:38:27.237Z</time></trkpt><trkpt lat="42.88031" lon="13.0047933"><ele>496.66666666666663</ele><time>2026-04-26T09:38:28.232Z</time></trkpt><trkpt lat="42.8803383" lon="13.0050083"><ele>495.0</ele><time>2026-04-26T09:38:29.229Z</time></trkpt><trkpt lat="42.8803633" lon="13.0052183"><ele>493.0</ele><time>2026-04-26T09:38:30.231Z</time></trkpt><trkpt lat="42.8803883" lon="13.0054217"><ele>491.0</ele><time>2026-04-26T09:38:31.229Z</time></trkpt><trkpt lat="42.880425" lon="13.0056267"><ele>489.0</ele><time>2026-04-26T09:38:32.234Z</time></trkpt><trkpt lat="42.8804667" lon="13.00583"><ele>486.0</ele><time>2026-04-26T09:38:33.235Z</time></trkpt><trkpt lat="42.8805183" lon="13.0060417"><ele>483.0</ele><time>2026-04-26T09:38:34.234Z</time></trkpt><trkpt lat="42.8805783" lon="13.00625"><ele>480.0</ele><time>2026-04-26T09:38:35.233Z</time></trkpt><trkpt lat="42.8806417" lon="13.006455"><ele>480.0</ele><time>2026-04-26T09:38:36.237Z</time></trkpt><trkpt lat="42.88071" lon="13.0066517"><ele>480.0</ele><time>2026-04-26T09:38:37.233Z</time></trkpt><trkpt lat="42.88078" lon="13.0068483"><ele>480.0</ele><time>2026-04-26T09:38:38.233Z</time></trkpt><trkpt lat="42.8808483" lon="13.007045"><ele>481.0</ele><time>2026-04-26T09:38:39.238Z</time></trkpt><trkpt lat="42.88092" lon="13.0072517"><ele>482.0</ele><time>2026-04-26T09:38:40.234Z</time></trkpt><trkpt lat="42.8810017" lon="13.0074583"><ele>483.0</ele><time>2026-04-26T09:38:41.231Z</time></trkpt><trkpt lat="42.8810883" lon="13.0076583"><ele>483.0</ele><time>2026-04-26T09:38:42.233Z</time></trkpt><trkpt lat="42.8811833" lon="13.0078567"><ele>483.0</ele><time>2026-04-26T09:38:43.234Z</time></trkpt><trkpt lat="42.881275" lon="13.0080517"><ele>483.0</ele><time>2026-04-26T09:38:44.232Z</time></trkpt><trkpt lat="42.8813683" lon="13.00825"><ele>482.66666666666663</ele><time>2026-04-26T09:38:45.234Z</time></trkpt><trkpt lat="42.8814667" lon="13.0084517"><ele>482.3333333333333</ele><time>2026-04-26T09:38:46.243Z</time></trkpt><trkpt lat="42.8815683" lon="13.0086533"><ele>482.0</ele><time>2026-04-26T09:38:47.233Z</time></trkpt><trkpt lat="42.8816717" lon="13.00885"><ele>484.3333333333333</ele><time>2026-04-26T09:38:48.234Z</time></trkpt><trkpt lat="42.88178" lon="13.0090383"><ele>486.66666666666663</ele><time>2026-04-26T09:38:49.232Z</time></trkpt><trkpt lat="42.8818933" lon="13.0092117"><ele>489.0</ele><time>2026-04-26T09:38:50.233Z</time></trkpt><trkpt lat="42.8820017" lon="13.0093717"><ele>489.0</ele><time>2026-04-26T09:38:51.235Z</time></trkpt><trkpt lat="42.8821017" lon="13.0095233"><ele>489.0</ele><time>2026-04-26T09:38:52.233Z</time></trkpt><trkpt lat="42.8822017" lon="13.009665"><ele>489.0</ele><time>2026-04-26T09:38:53.232Z</time></trkpt><trkpt lat="42.8823017" lon="13.0098117"><ele>489.0</ele><time>2026-04-26T09:38:54.232Z</time></trkpt><trkpt lat="42.8824067" lon="13.0099583"><ele>490.25</ele><time>2026-04-26T09:38:55.232Z</time></trkpt><trkpt lat="42.8825133" lon="13.0101"><ele>491.5</ele><time>2026-04-26T09:38:56.233Z</time></trkpt><trkpt lat="42.8826117" lon="13.0102433"><ele>492.75</ele><time>2026-04-26T09:38:57.234Z</time></trkpt><trkpt lat="42.8827" lon="13.0103717"><ele>494.0</ele><time>2026-04-26T09:38:58.235Z</time></trkpt><trkpt lat="42.8827917" lon="13.0105017"><ele>494.0</ele><time>2026-04-26T09:38:59.231Z</time></trkpt><trkpt lat="42.88289" lon="13.0106367"><ele>494.0</ele><time>2026-04-26T09:39:00.232Z</time></trkpt><trkpt lat="42.88299" lon="13.0107767"><ele>494.0</ele><time>2026-04-26T09:39:01.233Z</time></trkpt><trkpt lat="42.8830933" lon="13.0109233"><ele>494.0</ele><time>2026-04-26T09:39:02.237Z</time></trkpt><trkpt lat="42.88318" lon="13.01108"><ele>491.5</ele><time>2026-04-26T09:39:03.233Z</time></trkpt><trkpt lat="42.8832567" lon="13.0112433"><ele>489.0</ele><time>2026-04-26T09:39:04.231Z</time></trkpt><trkpt lat="42.88331" lon="13.0114083"><ele>486.5</ele><time>2026-04-26T09:39:05.231Z</time></trkpt><trkpt lat="42.8833567" lon="13.0115817"><ele>484.0</ele><time>2026-04-26T09:39:06.233Z</time></trkpt><trkpt lat="42.8833833" lon="13.0117683"><ele>482.75</ele><time>2026-04-26T09:39:07.231Z</time></trkpt><trkpt lat="42.8833933" lon="13.0119533"><ele>481.5</ele><time>2026-04-26T09:39:08.235Z</time></trkpt><trkpt lat="42.88339" lon="13.0121383"><ele>480.25</ele><time>2026-04-26T09:39:09.235Z</time></trkpt><trkpt lat="42.88338" lon="13.012325"><ele>479.0</ele><time>2026-04-26T09:39:10.232Z</time></trkpt><trkpt lat="42.88337" lon="13.01251"><ele>479.0</ele><time>2026-04-26T09:39:11.236Z</time></trkpt><trkpt lat="42.8833533" lon="13.01269"><ele>479.0</ele><time>2026-04-26T09:39:12.234Z</time></trkpt><trkpt lat="42.8833333" lon="13.0128733"><ele>479.0</ele><time>2026-04-26T09:39:13.231Z</time></trkpt><trkpt lat="42.8833133" lon="13.0130583"><ele>479.0</ele><time>2026-04-26T09:39:14.232Z</time></trkpt><trkpt lat="42.8832883" lon="13.0132517"><ele>480.3333333333333</ele><time>2026-04-26T09:39:15.237Z</time></trkpt><trkpt lat="42.883265" lon="13.0134517"><ele>481.66666666666663</ele><time>2026-04-26T09:39:16.231Z</time></trkpt><trkpt lat="42.883245" lon="13.0136617"><ele>483.0</ele><time>2026-04-26T09:39:17.231Z</time></trkpt><trkpt lat="42.8832267" lon="13.0138833"><ele>483.0</ele><time>2026-04-26T09:39:18.232Z</time></trkpt><trkpt lat="42.8832267" lon="13.0141133"><ele>483.0</ele><time>2026-04-26T09:39:19.233Z</time></trkpt><trkpt lat="42.88325" lon="13.0143433"><ele>483.0</ele><time>2026-04-26T09:39:20.231Z</time></trkpt><trkpt lat="42.8832967" lon="13.01456"><ele>484.0</ele><time>2026-04-26T09:39:21.235Z</time></trkpt><trkpt lat="42.8833667" lon="13.01476"><ele>485.0</ele><time>2026-04-26T09:39:22.232Z</time></trkpt><trkpt lat="42.883455" lon="13.0149483"><ele>486.0</ele><time>2026-04-26T09:39:23.235Z</time></trkpt><trkpt lat="42.8835667" lon="13.0151417"><ele>491.33333333333337</ele><time>2026-04-26T09:39:24.238Z</time></trkpt><trkpt lat="42.8836883" lon="13.0153433"><ele>496.6666666666667</ele><time>2026-04-26T09:39:25.234Z</time></trkpt><trkpt lat="42.8838133" lon="13.0155483"><ele>502.0</ele><time>2026-04-26T09:39:26.234Z</time></trkpt><trkpt lat="42.88394" lon="13.01575"><ele>499.0</ele><time>2026-04-26T09:39:27.235Z</time></trkpt><trkpt lat="42.884065" lon="13.015945"><ele>496.0</ele><time>2026-04-26T09:39:28.233Z</time></trkpt><trkpt lat="42.8841717" lon="13.01615"><ele>493.0</ele><time>2026-04-26T09:39:29.232Z</time></trkpt><trkpt lat="42.8842683" lon="13.0163683"><ele>497.0</ele><time>2026-04-26T09:39:30.231Z</time></trkpt><trkpt lat="42.884355" lon="13.0165883"><ele>501.0</ele><time>2026-04-26T09:39:31.233Z</time></trkpt><trkpt lat="42.8844317" lon="13.0168067"><ele>505.0</ele><time>2026-04-26T09:39:32.238Z</time></trkpt><trkpt lat="42.8845" lon="13.0170217"><ele>505.0</ele><time>2026-04-26T09:39:33.241Z</time></trkpt><trkpt lat="42.8845617" lon="13.01723"><ele>505.0</ele><time>2026-04-26T09:39:34.234Z</time></trkpt><trkpt lat="42.8846183" lon="13.0174517"><ele>505.0</ele><time>2026-04-26T09:39:35.232Z</time></trkpt><trkpt lat="42.88466" lon="13.01767"><ele>504.0</ele><time>2026-04-26T09:39:36.231Z</time></trkpt><trkpt lat="42.8847067" lon="13.0178933"><ele>503.0</ele><time>2026-04-26T09:39:37.236Z</time></trkpt><trkpt lat="42.884745" lon="13.0181167"><ele>502.0</ele><time>2026-04-26T09:39:38.233Z</time></trkpt><trkpt lat="42.8847817" lon="13.01834"><ele>502.0</ele><time>2026-04-26T09:39:39.233Z</time></trkpt><trkpt lat="42.8848183" lon="13.0185617"><ele>502.0</ele><time>2026-04-26T09:39:40.232Z</time></trkpt><trkpt lat="42.8848583" lon="13.0187833"><ele>502.0</ele><time>2026-04-26T09:39:41.233Z</time></trkpt><trkpt lat="42.8848933" lon="13.019005"><ele>500.6666666666667</ele><time>2026-04-26T09:39:42.233Z</time></trkpt><trkpt lat="42.8849183" lon="13.01923"><ele>499.33333333333337</ele><time>2026-04-26T09:39:43.234Z</time></trkpt><trkpt lat="42.8849317" lon="13.0194617"><ele>498.0</ele><time>2026-04-26T09:39:44.233Z</time></trkpt><trkpt lat="42.884925" lon="13.0196983"><ele>498.0</ele><time>2026-04-26T09:39:45.234Z</time></trkpt><trkpt lat="42.884895" lon="13.019935"><ele>498.0</ele><time>2026-04-26T09:39:46.241Z</time></trkpt><trkpt lat="42.8848433" lon="13.0201683"><ele>498.0</ele><time>2026-04-26T09:39:47.233Z</time></trkpt><trkpt lat="42.884785" lon="13.0203917"><ele>497.66666666666663</ele><time>2026-04-26T09:39:48.234Z</time></trkpt><trkpt lat="42.8847283" lon="13.0206017"><ele>497.3333333333333</ele><time>2026-04-26T09:39:49.234Z</time></trkpt><trkpt lat="42.8846783" lon="13.020805"><ele>497.0</ele><time>2026-04-26T09:39:50.234Z</time></trkpt><trkpt lat="42.8846383" lon="13.0210033"><ele>497.3333333333333</ele><time>2026-04-26T09:39:51.233Z</time></trkpt><trkpt lat="42.88462" lon="13.02122"><ele>497.66666666666663</ele><time>2026-04-26T09:39:52.231Z</time></trkpt><trkpt lat="42.8846267" lon="13.0214417"><ele>498.0</ele><time>2026-04-26T09:39:53.233Z</time></trkpt><trkpt lat="42.884655" lon="13.02167"><ele>498.0</ele><time>2026-04-26T09:39:54.234Z</time></trkpt><trkpt lat="42.8846983" lon="13.021895"><ele>498.0</ele><time>2026-04-26T09:39:55.233Z</time></trkpt><trkpt lat="42.884755" lon="13.0221267"><ele>498.0</ele><time>2026-04-26T09:39:56.232Z</time></trkpt><trkpt lat="42.8848183" lon="13.0223567"><ele>497.66666666666663</ele><time>2026-04-26T09:39:57.235Z</time></trkpt><trkpt lat="42.8848733" lon="13.0225933"><ele>497.3333333333333</ele><time>2026-04-26T09:39:58.233Z</time></trkpt><trkpt lat="42.884925" lon="13.0228333"><ele>497.0</ele><time>2026-04-26T09:39:59.233Z</time></trkpt><trkpt lat="42.8849833" lon="13.0230733"><ele>497.0</ele><time>2026-04-26T09:40:00.235Z</time></trkpt><trkpt lat="42.8850383" lon="13.0233"><ele>497.0</ele><time>2026-04-26T09:40:01.232Z</time></trkpt><trkpt lat="42.885085" lon="13.023515"><ele>497.0</ele><time>2026-04-26T09:40:02.232Z</time></trkpt><trkpt lat="42.8851133" lon="13.023725"><ele>497.0</ele><time>2026-04-26T09:40:03.234Z</time></trkpt><trkpt lat="42.8851133" lon="13.0239467"><ele>497.0</ele><time>2026-04-26T09:40:04.231Z</time></trkpt><trkpt lat="42.88508" lon="13.0241667"><ele>497.0</ele><time>2026-04-26T09:40:05.233Z</time></trkpt><trkpt lat="42.8850117" lon="13.02441"><ele>497.0</ele><time>2026-04-26T09:40:06.232Z</time></trkpt><trkpt lat="42.8849417" lon="13.0246617"><ele>497.0</ele><time>2026-04-26T09:40:07.232Z</time></trkpt><trkpt lat="42.8848733" lon="13.0249233"><ele>497.0</ele><time>2026-04-26T09:40:08.232Z</time></trkpt><trkpt lat="42.8848" lon="13.0251833"><ele>500.0</ele><time>2026-04-26T09:40:09.232Z</time></trkpt><trkpt lat="42.884725" lon="13.0254433"><ele>503.0</ele><time>2026-04-26T09:40:10.232Z</time></trkpt><trkpt lat="42.88465" lon="13.025685"><ele>506.0</ele><time>2026-04-26T09:40:11.232Z</time></trkpt><trkpt lat="42.8845833" lon="13.0259133"><ele>509.3333333333333</ele><time>2026-04-26T09:40:12.235Z</time></trkpt><trkpt lat="42.8845217" lon="13.0261233"><ele>512.6666666666666</ele><time>2026-04-26T09:40:13.23Z</time></trkpt><trkpt lat="42.884465" lon="13.0263233"><ele>516.0</ele><time>2026-04-26T09:40:14.232Z</time></trkpt><trkpt lat="42.8844167" lon="13.0265233"><ele>517.0</ele><time>2026-04-26T09:40:15.233Z</time></trkpt><trkpt lat="42.8843833" lon="13.026735"><ele>518.0</ele><time>2026-04-26T09:40:16.234Z</time></trkpt><trkpt lat="42.88437" lon="13.0269717"><ele>519.0</ele><time>2026-04-26T09:40:17.231Z</time></trkpt><trkpt lat="42.8843717" lon="13.0272267"><ele>517.6666666666666</ele><time>2026-04-26T09:40:18.234Z</time></trkpt><trkpt lat="42.88438" lon="13.027485"><ele>516.3333333333333</ele><time>2026-04-26T09:40:19.236Z</time></trkpt><trkpt lat="42.8843767" lon="13.0277267"><ele>515.0</ele><time>2026-04-26T09:40:20.233Z</time></trkpt><trkpt lat="42.8843617" lon="13.02796"><ele>515.0</ele><time>2026-04-26T09:40:21.233Z</time></trkpt><trkpt lat="42.8843333" lon="13.0281917"><ele>515.0</ele><time>2026-04-26T09:40:22.233Z</time></trkpt><trkpt lat="42.8842717" lon="13.0284217"><ele>515.0</ele><time>2026-04-26T09:40:23.236Z</time></trkpt><trkpt lat="42.88418" lon="13.0286483"><ele>515.0</ele><time>2026-04-26T09:40:24.233Z</time></trkpt><trkpt lat="42.884075" lon="13.028875"><ele>515.0</ele><time>2026-04-26T09:40:25.235Z</time></trkpt><trkpt lat="42.883965" lon="13.0291"><ele>515.0</ele><time>2026-04-26T09:40:26.233Z</time></trkpt><trkpt lat="42.883865" lon="13.0293267"><ele>515.0</ele><time>2026-04-26T09:40:27.238Z</time></trkpt><trkpt lat="42.8837633" lon="13.0295583"><ele>515.0</ele><time>2026-04-26T09:40:28.234Z</time></trkpt><trkpt lat="42.8836667" lon="13.0297767"><ele>515.0</ele><time>2026-04-26T09:40:29.231Z</time></trkpt><trkpt lat="42.8835867" lon="13.02999"><ele>512.6666666666666</ele><time>2026-04-26T09:40:30.234Z</time></trkpt><trkpt lat="42.8835167" lon="13.0301983"><ele>510.33333333333337</ele><time>2026-04-26T09:40:31.236Z</time></trkpt><trkpt lat="42.8834667" lon="13.0303983"><ele>508.0</ele><time>2026-04-26T09:40:32.228Z</time></trkpt><trkpt lat="42.88343" lon="13.0306"><ele>509.6666666666667</ele><time>2026-04-26T09:40:33.233Z</time></trkpt><trkpt lat="42.8834117" lon="13.0308117"><ele>511.33333333333337</ele><time>2026-04-26T09:40:34.232Z</time></trkpt><trkpt lat="42.883405" lon="13.0310317"><ele>513.0</ele><time>2026-04-26T09:40:35.233Z</time></trkpt><trkpt lat="42.8834083" lon="13.03126"><ele>513.0</ele><time>2026-04-26T09:40:36.23Z</time></trkpt><trkpt lat="42.8834167" lon="13.0314917"><ele>513.0</ele><time>2026-04-26T09:40:37.234Z</time></trkpt><trkpt lat="42.8834183" lon="13.0317267"><ele>513.0</ele><time>2026-04-26T09:40:38.234Z</time></trkpt><trkpt lat="42.883415" lon="13.0319567"><ele>513.6666666666666</ele><time>2026-04-26T09:40:39.235Z</time></trkpt><trkpt lat="42.8834117" lon="13.032175"><ele>514.3333333333333</ele><time>2026-04-26T09:40:40.234Z</time></trkpt><trkpt lat="42.883405" lon="13.0323867"><ele>515.0</ele><time>2026-04-26T09:40:41.234Z</time></trkpt><trkpt lat="42.8833967" lon="13.0325983"><ele>515.5</ele><time>2026-04-26T09:40:42.235Z</time></trkpt><trkpt lat="42.8833833" lon="13.0328"><ele>516.0</ele><time>2026-04-26T09:40:43.233Z</time></trkpt><trkpt lat="42.883365" lon="13.0329883"><ele>516.5</ele><time>2026-04-26T09:40:44.231Z</time></trkpt><trkpt lat="42.883335" lon="13.0331617"><ele>517.0</ele><time>2026-04-26T09:40:45.232Z</time></trkpt><trkpt lat="42.88329" lon="13.0333333"><ele>518.0</ele><time>2026-04-26T09:40:46.242Z</time></trkpt><trkpt lat="42.88324" lon="13.0335"><ele>519.0</ele><time>2026-04-26T09:40:47.234Z</time></trkpt><trkpt lat="42.8831833" lon="13.0336667"><ele>520.0</ele><time>2026-04-26T09:40:48.232Z</time></trkpt><trkpt lat="42.8831267" lon="13.03383"><ele>521.0</ele><time>2026-04-26T09:40:49.233Z</time></trkpt><trkpt lat="42.88307" lon="13.03399"><ele>521.5</ele><time>2026-04-26T09:40:50.233Z</time></trkpt><trkpt lat="42.883015" lon="13.0341433"><ele>522.0</ele><time>2026-04-26T09:40:51.233Z</time></trkpt><trkpt lat="42.882965" lon="13.0342883"><ele>522.5</ele><time>2026-04-26T09:40:52.23Z</time></trkpt><trkpt lat="42.8829183" lon="13.03443"><ele>523.0</ele><time>2026-04-26T09:40:53.237Z</time></trkpt><trkpt lat="42.8828733" lon="13.034565"><ele>523.0</ele><time>2026-04-26T09:40:54.242Z</time></trkpt><trkpt lat="42.8828267" lon="13.0346967"><ele>523.0</ele><time>2026-04-26T09:40:55.232Z</time></trkpt><trkpt lat="42.8827833" lon="13.034815"><ele>523.0</ele><time>2026-04-26T09:40:56.237Z</time></trkpt><trkpt lat="42.8827467" lon="13.0349217"><ele>523.0</ele><time>2026-04-26T09:40:57.233Z</time></trkpt><trkpt lat="42.8827183" lon="13.0350217"><ele>523.0</ele><time>2026-04-26T09:40:58.235Z</time></trkpt><trkpt lat="42.8826917" lon="13.0351133"><ele>523.0</ele><time>2026-04-26T09:40:59.234Z</time></trkpt><trkpt lat="42.8826817" lon="13.0352017"><ele>523.0</ele><time>2026-04-26T09:41:00.233Z</time></trkpt><trkpt lat="42.882695" lon="13.0353383"><ele>523.0</ele><time>2026-04-26T09:41:02.236Z</time></trkpt><trkpt lat="42.8828017" lon="13.035345"><ele>523.0</ele><time>2026-04-26T09:41:04.232Z</time></trkpt><trkpt lat="42.8828717" lon="13.03536"><ele>523.0</ele><time>2026-04-26T09:41:05.234Z</time></trkpt><trkpt lat="42.8829367" lon="13.0354"><ele>523.0</ele><time>2026-04-26T09:41:06.232Z</time></trkpt><trkpt lat="42.8830033" lon="13.0354433"><ele>523.0</ele><time>2026-04-26T09:41:07.234Z</time></trkpt><trkpt lat="42.88306" lon="13.0354867"><ele>523.0</ele><time>2026-04-26T09:41:08.234Z</time></trkpt><trkpt lat="42.8831467" lon="13.035545"><ele>523.0</ele><time>2026-04-26T09:41:10.231Z</time></trkpt><trkpt lat="42.883225" lon="13.035555"><ele>523.0</ele><time>2026-04-26T09:41:13.232Z</time></trkpt><trkpt lat="42.883255" lon="13.0354583"><ele>523.0</ele><time>2026-04-26T09:41:17.237Z</time></trkpt><trkpt lat="42.8832" lon="13.0353817"><ele>523.0</ele><time>2026-04-26T09:41:22.236Z</time></trkpt><trkpt lat="42.8831317" lon="13.0354033"><ele>523.0</ele><time>2026-04-26T09:41:26.234Z</time></trkpt></trkseg><trkseg><trkpt lat="42.8832067" lon="13.0353983"><ele>523.0</ele><time>2026-04-26T12:12:09.236Z</time></trkpt><trkpt lat="42.8832267" lon="13.0354933"><ele>523.0</ele><time>2026-04-26T12:12:12.23Z</time></trkpt><trkpt lat="42.883165" lon="13.0355417"><ele>523.0</ele><time>2026-04-26T12:12:16.235Z</time></trkpt><trkpt lat="42.883105" lon="13.0354833"><ele>523.0</ele><time>2026-04-26T12:12:18.232Z</time></trkpt><trkpt lat="42.8830367" lon="13.0354133"><ele>523.0</ele><time>2026-04-26T12:12:20.23Z</time></trkpt><trkpt lat="42.8829733" lon="13.0353467"><ele>523.0</ele><time>2026-04-26T12:12:22.235Z</time></trkpt><trkpt lat="42.882905" lon="13.0353017"><ele>523.0</ele><time>2026-04-26T12:12:24.235Z</time></trkpt><trkpt lat="42.882825" lon="13.0352533"><ele>523.0</ele><time>2026-04-26T12:12:27.232Z</time></trkpt><trkpt lat="42.8827483" lon="13.03518"><ele>523.0</ele><time>2026-04-26T12:12:30.233Z</time></trkpt><trkpt lat="42.882735" lon="13.035065"><ele>523.0</ele><time>2026-04-26T12:12:32.235Z</time></trkpt><trkpt lat="42.8827483" lon="13.0349783"><ele>523.0</ele><time>2026-04-26T12:12:33.233Z</time></trkpt><trkpt lat="42.882775" lon="13.0348833"><ele>523.0</ele><time>2026-04-26T12:12:34.232Z</time></trkpt><trkpt lat="42.8828067" lon="13.034775"><ele>523.0</ele><time>2026-04-26T12:12:35.233Z</time></trkpt><trkpt lat="42.882845" lon="13.0346683"><ele>523.0</ele><time>2026-04-26T12:12:36.233Z</time></trkpt><trkpt lat="42.8828883" lon="13.0345533"><ele>523.0</ele><time>2026-04-26T12:12:37.236Z</time></trkpt><trkpt lat="42.8829267" lon="13.034425"><ele>523.0</ele><time>2026-04-26T12:12:38.232Z</time></trkpt><trkpt lat="42.8829683" lon="13.034295"><ele>523.0</ele><time>2026-04-26T12:12:39.233Z</time></trkpt><trkpt lat="42.8830083" lon="13.0341633"><ele>522.5</ele><time>2026-04-26T12:12:40.231Z</time></trkpt><trkpt lat="42.88306" lon="13.034025"><ele>522.0</ele><time>2026-04-26T12:12:41.231Z</time></trkpt><trkpt lat="42.8831067" lon="13.033885"><ele>521.5</ele><time>2026-04-26T12:12:42.231Z</time></trkpt><trkpt lat="42.8831567" lon="13.0337417"><ele>521.0</ele><time>2026-04-26T12:12:43.232Z</time></trkpt><trkpt lat="42.8832067" lon="13.03359"><ele>521.0</ele><time>2026-04-26T12:12:44.232Z</time></trkpt><trkpt lat="42.8832533" lon="13.03343"><ele>521.0</ele><time>2026-04-26T12:12:45.233Z</time></trkpt><trkpt lat="42.8832967" lon="13.0332617"><ele>521.0</ele><time>2026-04-26T12:12:46.233Z</time></trkpt><trkpt lat="42.8833317" lon="13.0330917"><ele>521.0</ele><time>2026-04-26T12:12:47.232Z</time></trkpt><trkpt lat="42.8833617" lon="13.0329133"><ele>520.0</ele><time>2026-04-26T12:12:48.234Z</time></trkpt><trkpt lat="42.8833817" lon="13.0327267"><ele>519.0</ele><time>2026-04-26T12:12:49.233Z</time></trkpt><trkpt lat="42.8833933" lon="13.0325317"><ele>518.0</ele><time>2026-04-26T12:12:50.232Z</time></trkpt><trkpt lat="42.8833967" lon="13.0323333"><ele>517.0</ele><time>2026-04-26T12:12:51.241Z</time></trkpt><trkpt lat="42.8834" lon="13.0321383"><ele>516.5</ele><time>2026-04-26T12:12:52.23Z</time></trkpt><trkpt lat="42.8834017" lon="13.03194"><ele>516.0</ele><time>2026-04-26T12:12:53.233Z</time></trkpt><trkpt lat="42.8834067" lon="13.0317433"><ele>515.5</ele><time>2026-04-26T12:12:54.231Z</time></trkpt><trkpt lat="42.883415" lon="13.0315417"><ele>515.0</ele><time>2026-04-26T12:12:55.232Z</time></trkpt><trkpt lat="42.88342" lon="13.031335"><ele>517.5</ele><time>2026-04-26T12:12:56.232Z</time></trkpt><trkpt lat="42.8834317" lon="13.0311317"><ele>520.0</ele><time>2026-04-26T12:12:57.235Z</time></trkpt><trkpt lat="42.8834417" lon="13.03093"><ele>522.5</ele><time>2026-04-26T12:12:58.236Z</time></trkpt><trkpt lat="42.8834617" lon="13.0307333"><ele>525.0</ele><time>2026-04-26T12:12:59.233Z</time></trkpt><trkpt lat="42.88349" lon="13.03054"><ele>525.0</ele><time>2026-04-26T12:13:00.231Z</time></trkpt><trkpt lat="42.8835233" lon="13.0303483"><ele>525.0</ele><time>2026-04-26T12:13:01.234Z</time></trkpt><trkpt lat="42.8835733" lon="13.0301567"><ele>525.0</ele><time>2026-04-26T12:13:02.235Z</time></trkpt><trkpt lat="42.883635" lon="13.0299617"><ele>525.0</ele><time>2026-04-26T12:13:03.233Z</time></trkpt><trkpt lat="42.883705" lon="13.0297667"><ele>521.6666666666666</ele><time>2026-04-26T12:13:04.233Z</time></trkpt><trkpt lat="42.883785" lon="13.02958"><ele>518.3333333333333</ele><time>2026-04-26T12:13:05.231Z</time></trkpt><trkpt lat="42.8838667" lon="13.0293967"><ele>515.0</ele><time>2026-04-26T12:13:06.242Z</time></trkpt><trkpt lat="42.88395" lon="13.0292133"><ele>511.66666666666663</ele><time>2026-04-26T12:13:07.233Z</time></trkpt><trkpt lat="42.88403" lon="13.0290267"><ele>508.33333333333337</ele><time>2026-04-26T12:13:08.237Z</time></trkpt><trkpt lat="42.8841083" lon="13.02884"><ele>505.0</ele><time>2026-04-26T12:13:09.237Z</time></trkpt><trkpt lat="42.8841833" lon="13.0286517"><ele>505.0</ele><time>2026-04-26T12:13:10.234Z</time></trkpt><trkpt lat="42.8842567" lon="13.0284617"><ele>505.0</ele><time>2026-04-26T12:13:11.231Z</time></trkpt><trkpt lat="42.8843217" lon="13.0282733"><ele>505.0</ele><time>2026-04-26T12:13:12.231Z</time></trkpt><trkpt lat="42.8843617" lon="13.0280583"><ele>508.33333333333337</ele><time>2026-04-26T12:13:13.234Z</time></trkpt><trkpt lat="42.8843867" lon="13.027845"><ele>511.66666666666663</ele><time>2026-04-26T12:13:14.233Z</time></trkpt><trkpt lat="42.8844017" lon="13.0276283"><ele>515.0</ele><time>2026-04-26T12:13:15.234Z</time></trkpt><trkpt lat="42.8844017" lon="13.02741"><ele>516.3333333333333</ele><time>2026-04-26T12:13:16.235Z</time></trkpt><trkpt lat="42.884395" lon="13.02719"><ele>517.6666666666666</ele><time>2026-04-26T12:13:17.232Z</time></trkpt><trkpt lat="42.88439" lon="13.02697"><ele>519.0</ele><time>2026-04-26T12:13:18.233Z</time></trkpt><trkpt lat="42.8844017" lon="13.026755"><ele>518.0</ele><time>2026-04-26T12:13:19.234Z</time></trkpt><trkpt lat="42.88443" lon="13.0265367"><ele>517.0</ele><time>2026-04-26T12:13:20.234Z</time></trkpt><trkpt lat="42.88447" lon="13.026325"><ele>516.0</ele><time>2026-04-26T12:13:21.234Z</time></trkpt><trkpt lat="42.8845217" lon="13.0261083"><ele>516.0</ele><time>2026-04-26T12:13:22.234Z</time></trkpt><trkpt lat="42.8845833" lon="13.0258967"><ele>516.0</ele><time>2026-04-26T12:13:23.235Z</time></trkpt><trkpt lat="42.8846467" lon="13.0256867"><ele>516.0</ele><time>2026-04-26T12:13:24.233Z</time></trkpt><trkpt lat="42.8847033" lon="13.0254767"><ele>512.6666666666666</ele><time>2026-04-26T12:13:25.232Z</time></trkpt><trkpt lat="42.8847583" lon="13.025265"><ele>509.3333333333333</ele><time>2026-04-26T12:13:26.234Z</time></trkpt><trkpt lat="42.8848167" lon="13.0250567"><ele>506.0</ele><time>2026-04-26T12:13:27.235Z</time></trkpt><trkpt lat="42.8848767" lon="13.0248433"><ele>503.0</ele><time>2026-04-26T12:13:28.23Z</time></trkpt><trkpt lat="42.8849317" lon="13.0246367"><ele>500.0</ele><time>2026-04-26T12:13:29.231Z</time></trkpt><trkpt lat="42.8849817" lon="13.0244367"><ele>497.0</ele><time>2026-04-26T12:13:30.231Z</time></trkpt><trkpt lat="42.885035" lon="13.0242367"><ele>496.0</ele><time>2026-04-26T12:13:31.233Z</time></trkpt><trkpt lat="42.88508" lon="13.0240317"><ele>495.0</ele><time>2026-04-26T12:13:32.234Z</time></trkpt><trkpt lat="42.8851083" lon="13.0238217"><ele>494.0</ele><time>2026-04-26T12:13:33.233Z</time></trkpt><trkpt lat="42.8851067" lon="13.0236117"><ele>494.0</ele><time>2026-04-26T12:13:34.232Z</time></trkpt><trkpt lat="42.8850667" lon="13.0234133"><ele>494.0</ele><time>2026-04-26T12:13:35.235Z</time></trkpt><trkpt lat="42.8850167" lon="13.023225"><ele>494.0</ele><time>2026-04-26T12:13:36.232Z</time></trkpt><trkpt lat="42.88497" lon="13.0230333"><ele>494.0</ele><time>2026-04-26T12:13:37.234Z</time></trkpt><trkpt lat="42.8849267" lon="13.0228317"><ele>495.0</ele><time>2026-04-26T12:13:38.237Z</time></trkpt><trkpt lat="42.884885" lon="13.0226233"><ele>496.0</ele><time>2026-04-26T12:13:39.233Z</time></trkpt><trkpt lat="42.8848417" lon="13.0224183"><ele>497.0</ele><time>2026-04-26T12:13:40.234Z</time></trkpt><trkpt lat="42.8847933" lon="13.02222"><ele>497.3333333333333</ele><time>2026-04-26T12:13:41.235Z</time></trkpt><trkpt lat="42.8847467" lon="13.0220183"><ele>497.66666666666663</ele><time>2026-04-26T12:13:42.232Z</time></trkpt><trkpt lat="42.8847017" lon="13.021815"><ele>498.0</ele><time>2026-04-26T12:13:43.234Z</time></trkpt><trkpt lat="42.88467" lon="13.02161"><ele>498.33333333333337</ele><time>2026-04-26T12:13:44.232Z</time></trkpt><trkpt lat="42.8846567" lon="13.0214033"><ele>498.6666666666667</ele><time>2026-04-26T12:13:45.239Z</time></trkpt><trkpt lat="42.8846533" lon="13.0211933"><ele>499.0</ele><time>2026-04-26T12:13:46.234Z</time></trkpt><trkpt lat="42.8846667" lon="13.0209867"><ele>498.33333333333337</ele><time>2026-04-26T12:13:47.232Z</time></trkpt><trkpt lat="42.8847033" lon="13.0207833"><ele>497.66666666666663</ele><time>2026-04-26T12:13:48.234Z</time></trkpt><trkpt lat="42.8847467" lon="13.0205817"><ele>497.0</ele><time>2026-04-26T12:13:49.237Z</time></trkpt><trkpt lat="42.8847917" lon="13.0203767"><ele>497.0</ele><time>2026-04-26T12:13:50.233Z</time></trkpt><trkpt lat="42.8848433" lon="13.0201733"><ele>497.0</ele><time>2026-04-26T12:13:51.236Z</time></trkpt><trkpt lat="42.8848933" lon="13.0199683"><ele>497.0</ele><time>2026-04-26T12:13:52.234Z</time></trkpt><trkpt lat="42.8849367" lon="13.0197633"><ele>497.3333333333333</ele><time>2026-04-26T12:13:53.233Z</time></trkpt><trkpt lat="42.8849617" lon="13.0195483"><ele>497.66666666666663</ele><time>2026-04-26T12:13:54.234Z</time></trkpt><trkpt lat="42.8849633" lon="13.019325"><ele>498.0</ele><time>2026-04-26T12:13:55.233Z</time></trkpt><trkpt lat="42.8849483" lon="13.019105"><ele>499.33333333333337</ele><time>2026-04-26T12:13:56.235Z</time></trkpt><trkpt lat="42.8849117" lon="13.0188733"><ele>500.6666666666667</ele><time>2026-04-26T12:13:57.231Z</time></trkpt><trkpt lat="42.88487" lon="13.01864"><ele>502.0</ele><time>2026-04-26T12:13:58.23Z</time></trkpt><trkpt lat="42.88483" lon="13.0184067"><ele>502.0</ele><time>2026-04-26T12:13:59.233Z</time></trkpt><trkpt lat="42.8847883" lon="13.0181683"><ele>502.0</ele><time>2026-04-26T12:14:00.235Z</time></trkpt><trkpt lat="42.884745" lon="13.017935"><ele>502.0</ele><time>2026-04-26T12:14:01.234Z</time></trkpt><trkpt lat="42.8846967" lon="13.0176967"><ele>503.0</ele><time>2026-04-26T12:14:02.233Z</time></trkpt><trkpt lat="42.884645" lon="13.01746"><ele>504.0</ele><time>2026-04-26T12:14:03.236Z</time></trkpt><trkpt lat="42.8845867" lon="13.0172267"><ele>505.0</ele><time>2026-04-26T12:14:04.234Z</time></trkpt><trkpt lat="42.8845167" lon="13.016995"><ele>505.0</ele><time>2026-04-26T12:14:05.232Z</time></trkpt><trkpt lat="42.8844417" lon="13.016765"><ele>505.0</ele><time>2026-04-26T12:14:06.233Z</time></trkpt><trkpt lat="42.8843683" lon="13.0165433"><ele>505.0</ele><time>2026-04-26T12:14:07.234Z</time></trkpt><trkpt lat="42.8842867" lon="13.0163317"><ele>504.0</ele><time>2026-04-26T12:14:08.234Z</time></trkpt><trkpt lat="42.884185" lon="13.016125"><ele>503.0</ele><time>2026-04-26T12:14:09.235Z</time></trkpt><trkpt lat="42.884075" lon="13.0159217"><ele>502.0</ele><time>2026-04-26T12:14:10.232Z</time></trkpt><trkpt lat="42.8839583" lon="13.0157317"><ele>502.0</ele><time>2026-04-26T12:14:11.234Z</time></trkpt><trkpt lat="42.883835" lon="13.015545"><ele>502.0</ele><time>2026-04-26T12:14:12.234Z</time></trkpt><trkpt lat="42.8837167" lon="13.0153583"><ele>502.0</ele><time>2026-04-26T12:14:13.232Z</time></trkpt><trkpt lat="42.8836033" lon="13.0151733"><ele>502.0</ele><time>2026-04-26T12:14:14.233Z</time></trkpt><trkpt lat="42.8835017" lon="13.0149917"><ele>502.0</ele><time>2026-04-26T12:14:15.236Z</time></trkpt><trkpt lat="42.88342" lon="13.0148117"><ele>502.0</ele><time>2026-04-26T12:14:16.234Z</time></trkpt><trkpt lat="42.88335" lon="13.0146133"><ele>496.6666666666667</ele><time>2026-04-26T12:14:17.231Z</time></trkpt><trkpt lat="42.883295" lon="13.0144067"><ele>491.33333333333337</ele><time>2026-04-26T12:14:18.231Z</time></trkpt><trkpt lat="42.88326" lon="13.014185"><ele>486.0</ele><time>2026-04-26T12:14:19.235Z</time></trkpt><trkpt lat="42.8832517" lon="13.0139617"><ele>485.0</ele><time>2026-04-26T12:14:20.234Z</time></trkpt><trkpt lat="42.883265" lon="13.0137367"><ele>484.0</ele><time>2026-04-26T12:14:21.25Z</time></trkpt><trkpt lat="42.8832817" lon="13.013525"><ele>483.0</ele><time>2026-04-26T12:14:22.233Z</time></trkpt><trkpt lat="42.8833" lon="13.0133117"><ele>481.66666666666663</ele><time>2026-04-26T12:14:23.233Z</time></trkpt><trkpt lat="42.8833167" lon="13.0130917"><ele>480.3333333333333</ele><time>2026-04-26T12:14:24.232Z</time></trkpt><trkpt lat="42.88334" lon="13.0128817"><ele>479.0</ele><time>2026-04-26T12:14:25.234Z</time></trkpt><trkpt lat="42.8833683" lon="13.0126767"><ele>479.0</ele><time>2026-04-26T12:14:26.234Z</time></trkpt><trkpt lat="42.8833917" lon="13.0124717"><ele>479.0</ele><time>2026-04-26T12:14:27.234Z</time></trkpt><trkpt lat="42.8834083" lon="13.0122717"><ele>479.0</ele><time>2026-04-26T12:14:28.236Z</time></trkpt><trkpt lat="42.8834183" lon="13.0120767"><ele>479.0</ele><time>2026-04-26T12:14:29.233Z</time></trkpt><trkpt lat="42.883405" lon="13.01188"><ele>479.0</ele><time>2026-04-26T12:14:30.233Z</time></trkpt><trkpt lat="42.88338" lon="13.01168"><ele>479.0</ele><time>2026-04-26T12:14:31.231Z</time></trkpt><trkpt lat="42.8833383" lon="13.011485"><ele>479.0</ele><time>2026-04-26T12:14:32.234Z</time></trkpt><trkpt lat="42.8832867" lon="13.0113"><ele>479.0</ele><time>2026-04-26T12:14:33.236Z</time></trkpt><trkpt lat="42.88322" lon="13.0111183"><ele>480.66666666666663</ele><time>2026-04-26T12:14:34.234Z</time></trkpt><trkpt lat="42.8831383" lon="13.0109483"><ele>482.33333333333337</ele><time>2026-04-26T12:14:35.232Z</time></trkpt><trkpt lat="42.88305" lon="13.01079"><ele>484.0</ele><time>2026-04-26T12:14:36.231Z</time></trkpt><trkpt lat="42.8829417" lon="13.010635"><ele>487.33333333333337</ele><time>2026-04-26T12:14:37.233Z</time></trkpt><trkpt lat="42.8828333" lon="13.010485"><ele>490.66666666666663</ele><time>2026-04-26T12:14:38.235Z</time></trkpt><trkpt lat="42.8827267" lon="13.010335"><ele>494.0</ele><time>2026-04-26T12:14:39.26Z</time></trkpt><trkpt lat="42.8826183" lon="13.0101817"><ele>492.3333333333333</ele><time>2026-04-26T12:14:40.234Z</time></trkpt><trkpt lat="42.8825067" lon="13.01003"><ele>490.66666666666663</ele><time>2026-04-26T12:14:41.236Z</time></trkpt><trkpt lat="42.8823967" lon="13.0098717"><ele>489.0</ele><time>2026-04-26T12:14:42.233Z</time></trkpt><trkpt lat="42.88229" lon="13.0097183"><ele>489.0</ele><time>2026-04-26T12:14:43.233Z</time></trkpt><trkpt lat="42.882185" lon="13.0095667"><ele>489.0</ele><time>2026-04-26T12:14:44.233Z</time></trkpt><trkpt lat="42.88208" lon="13.0094117"><ele>489.0</ele><time>2026-04-26T12:14:45.233Z</time></trkpt><trkpt lat="42.8819767" lon="13.0092567"><ele>490.66666666666663</ele><time>2026-04-26T12:14:46.232Z</time></trkpt><trkpt lat="42.8818717" lon="13.0091"><ele>492.3333333333333</ele><time>2026-04-26T12:14:47.235Z</time></trkpt><trkpt lat="42.88177" lon="13.00894"><ele>494.0</ele><time>2026-04-26T12:14:48.234Z</time></trkpt><trkpt lat="42.8816767" lon="13.0087717"><ele>490.3333333333333</ele><time>2026-04-26T12:14:49.232Z</time></trkpt><trkpt lat="42.881585" lon="13.0085933"><ele>486.66666666666663</ele><time>2026-04-26T12:14:50.232Z</time></trkpt><trkpt lat="42.8814933" lon="13.00841"><ele>483.0</ele><time>2026-04-26T12:14:51.232Z</time></trkpt><trkpt lat="42.8813983" lon="13.0082133"><ele>483.0</ele><time>2026-04-26T12:14:52.235Z</time></trkpt><trkpt lat="42.8813017" lon="13.0080117"><ele>483.0</ele><time>2026-04-26T12:14:53.232Z</time></trkpt><trkpt lat="42.88121" lon="13.00781"><ele>483.0</ele><time>2026-04-26T12:14:54.232Z</time></trkpt><trkpt lat="42.881125" lon="13.0076167"><ele>484.33333333333337</ele><time>2026-04-26T12:14:55.233Z</time></trkpt><trkpt lat="42.8810367" lon="13.0074183"><ele>485.6666666666667</ele><time>2026-04-26T12:14:56.233Z</time></trkpt><trkpt lat="42.8809517" lon="13.007215"><ele>487.0</ele><time>2026-04-26T12:14:57.247Z</time></trkpt><trkpt lat="42.8808717" lon="13.0070067"><ele>484.6666666666667</ele><time>2026-04-26T12:14:58.233Z</time></trkpt><trkpt lat="42.880795" lon="13.00679"><ele>482.33333333333337</ele><time>2026-04-26T12:14:59.234Z</time></trkpt><trkpt lat="42.88072" lon="13.0065783"><ele>480.0</ele><time>2026-04-26T12:15:00.232Z</time></trkpt><trkpt lat="42.8806483" lon="13.0063683"><ele>480.0</ele><time>2026-04-26T12:15:01.234Z</time></trkpt><trkpt lat="42.880585" lon="13.0061567"><ele>480.0</ele><time>2026-04-26T12:15:02.23Z</time></trkpt><trkpt lat="42.8805267" lon="13.0059367"><ele>480.0</ele><time>2026-04-26T12:15:03.234Z</time></trkpt><trkpt lat="42.880475" lon="13.0057033"><ele>483.0</ele><time>2026-04-26T12:15:04.233Z</time></trkpt><trkpt lat="42.8804283" lon="13.0054683"><ele>486.0</ele><time>2026-04-26T12:15:05.232Z</time></trkpt><trkpt lat="42.8803917" lon="13.005225"><ele>489.0</ele><time>2026-04-26T12:15:06.233Z</time></trkpt><trkpt lat="42.88036" lon="13.0049767"><ele>491.0</ele><time>2026-04-26T12:15:07.232Z</time></trkpt><trkpt lat="42.8803283" lon="13.004725"><ele>493.0</ele><time>2026-04-26T12:15:08.233Z</time></trkpt><trkpt lat="42.8802967" lon="13.0044733"><ele>495.0</ele><time>2026-04-26T12:15:09.234Z</time></trkpt><trkpt lat="42.8802683" lon="13.0042183"><ele>496.66666666666663</ele><time>2026-04-26T12:15:10.232Z</time></trkpt><trkpt lat="42.8802383" lon="13.003965"><ele>498.3333333333333</ele><time>2026-04-26T12:15:11.233Z</time></trkpt><trkpt lat="42.8802117" lon="13.00372"><ele>500.0</ele><time>2026-04-26T12:15:12.234Z</time></trkpt><trkpt lat="42.88018" lon="13.0034733"><ele>500.3333333333333</ele><time>2026-04-26T12:15:13.235Z</time></trkpt><trkpt lat="42.8801483" lon="13.00323"><ele>500.66666666666663</ele><time>2026-04-26T12:15:14.235Z</time></trkpt><trkpt lat="42.88012" lon="13.0029917"><ele>501.0</ele><time>2026-04-26T12:15:15.237Z</time></trkpt><trkpt lat="42.8800817" lon="13.0027567"><ele>491.33333333333337</ele><time>2026-04-26T12:15:16.234Z</time></trkpt><trkpt lat="42.8800333" lon="13.0025267"><ele>481.6666666666667</ele><time>2026-04-26T12:15:17.234Z</time></trkpt><trkpt lat="42.8799717" lon="13.002305"><ele>472.0</ele><time>2026-04-26T12:15:18.235Z</time></trkpt><trkpt lat="42.8799" lon="13.002095"><ele>472.0</ele><time>2026-04-26T12:15:19.232Z</time></trkpt><trkpt lat="42.8798217" lon="13.0018883"><ele>472.0</ele><time>2026-04-26T12:15:20.233Z</time></trkpt><trkpt lat="42.87974" lon="13.0016867"><ele>472.0</ele><time>2026-04-26T12:15:21.235Z</time></trkpt><trkpt lat="42.879665" lon="13.0014817"><ele>475.0</ele><time>2026-04-26T12:15:22.233Z</time></trkpt><trkpt lat="42.8796033" lon="13.0012783"><ele>478.0</ele><time>2026-04-26T12:15:23.236Z</time></trkpt><trkpt lat="42.87956" lon="13.0010667"><ele>481.0</ele><time>2026-04-26T12:15:24.232Z</time></trkpt><trkpt lat="42.8795217" lon="13.0008467"><ele>483.6666666666667</ele><time>2026-04-26T12:15:25.233Z</time></trkpt><trkpt lat="42.8794917" lon="13.0006217"><ele>486.33333333333337</ele><time>2026-04-26T12:15:26.233Z</time></trkpt><trkpt lat="42.8794633" lon="13.0003967"><ele>489.0</ele><time>2026-04-26T12:15:27.232Z</time></trkpt><trkpt lat="42.8794333" lon="13.0001683"><ele>489.0</ele><time>2026-04-26T12:15:28.233Z</time></trkpt><trkpt lat="42.87939" lon="12.999945"><ele>489.0</ele><time>2026-04-26T12:15:29.233Z</time></trkpt><trkpt lat="42.8793217" lon="12.9997317"><ele>489.0</ele><time>2026-04-26T12:15:30.236Z</time></trkpt><trkpt lat="42.8792267" lon="12.999555"><ele>485.33333333333337</ele><time>2026-04-26T12:15:31.233Z</time></trkpt><trkpt lat="42.87912" lon="12.99939"><ele>481.6666666666667</ele><time>2026-04-26T12:15:32.231Z</time></trkpt><trkpt lat="42.8790017" lon="12.9992433"><ele>478.0</ele><time>2026-04-26T12:15:33.236Z</time></trkpt><trkpt lat="42.8788867" lon="12.9991"><ele>478.0</ele><time>2026-04-26T12:15:34.235Z</time></trkpt><trkpt lat="42.87878" lon="12.99895"><ele>478.0</ele><time>2026-04-26T12:15:35.234Z</time></trkpt><trkpt lat="42.878685" lon="12.9987867"><ele>478.0</ele><time>2026-04-26T12:15:36.234Z</time></trkpt><trkpt lat="42.8786167" lon="12.9985883"><ele>478.0</ele><time>2026-04-26T12:15:37.233Z</time></trkpt><trkpt lat="42.87856" lon="12.9983833"><ele>478.0</ele><time>2026-04-26T12:15:38.234Z</time></trkpt><trkpt lat="42.878515" lon="12.9981683"><ele>478.0</ele><time>2026-04-26T12:15:39.232Z</time></trkpt><trkpt lat="42.8784717" lon="12.9979417"><ele>472.6666666666667</ele><time>2026-04-26T12:15:40.233Z</time></trkpt><trkpt lat="42.8784267" lon="12.99771"><ele>467.33333333333337</ele><time>2026-04-26T12:15:41.233Z</time></trkpt><trkpt lat="42.8783833" lon="12.9974717"><ele>462.0</ele><time>2026-04-26T12:15:42.234Z</time></trkpt><trkpt lat="42.878335" lon="12.9972317"><ele>462.0</ele><time>2026-04-26T12:15:43.232Z</time></trkpt><trkpt lat="42.8782883" lon="12.996995"><ele>462.0</ele><time>2026-04-26T12:15:44.234Z</time></trkpt><trkpt lat="42.8782433" lon="12.99676"><ele>462.0</ele><time>2026-04-26T12:15:45.235Z</time></trkpt><trkpt lat="42.8781967" lon="12.996525"><ele>466.0</ele><time>2026-04-26T12:15:46.231Z</time></trkpt><trkpt lat="42.8781467" lon="12.99629"><ele>470.0</ele><time>2026-04-26T12:15:47.233Z</time></trkpt><trkpt lat="42.8780967" lon="12.996055"><ele>474.0</ele><time>2026-04-26T12:15:48.235Z</time></trkpt><trkpt lat="42.8780467" lon="12.9958167"><ele>477.66666666666663</ele><time>2026-04-26T12:15:49.233Z</time></trkpt><trkpt lat="42.8779933" lon="12.9955817"><ele>481.3333333333333</ele><time>2026-04-26T12:15:50.233Z</time></trkpt><trkpt lat="42.8779217" lon="12.9953533"><ele>485.0</ele><time>2026-04-26T12:15:51.238Z</time></trkpt><trkpt lat="42.87784" lon="12.995135"><ele>488.3333333333333</ele><time>2026-04-26T12:15:52.233Z</time></trkpt><trkpt lat="42.87774" lon="12.9949367"><ele>491.66666666666663</ele><time>2026-04-26T12:15:53.234Z</time></trkpt><trkpt lat="42.8776283" lon="12.9947583"><ele>495.0</ele><time>2026-04-26T12:15:54.232Z</time></trkpt><trkpt lat="42.8775167" lon="12.9945967"><ele>488.25</ele><time>2026-04-26T12:15:55.232Z</time></trkpt><trkpt lat="42.8774083" lon="12.994445"><ele>481.5</ele><time>2026-04-26T12:15:56.233Z</time></trkpt><trkpt lat="42.8773067" lon="12.994305"><ele>474.75</ele><time>2026-04-26T12:15:57.235Z</time></trkpt><trkpt lat="42.8772283" lon="12.9941617"><ele>468.0</ele><time>2026-04-26T12:15:58.234Z</time></trkpt><trkpt lat="42.8771867" lon="12.9940183"><ele>468.0</ele><time>2026-04-26T12:15:59.236Z</time></trkpt><trkpt lat="42.8771683" lon="12.9938833"><ele>467.99999999999994</ele><time>2026-04-26T12:16:00.234Z</time></trkpt><trkpt lat="42.87718" lon="12.9937583"><ele>467.99999999999994</ele><time>2026-04-26T12:16:01.234Z</time></trkpt><trkpt lat="42.8772317" lon="12.993655"><ele>468.0</ele><time>2026-04-26T12:16:02.231Z</time></trkpt><trkpt lat="42.8772983" lon="12.993575"><ele>468.0</ele><time>2026-04-26T12:16:03.233Z</time></trkpt><trkpt lat="42.87738" lon="12.9935033"><ele>468.0</ele><time>2026-04-26T12:16:04.232Z</time></trkpt><trkpt lat="42.8774767" lon="12.9934117"><ele>468.0</ele><time>2026-04-26T12:16:05.232Z</time></trkpt><trkpt lat="42.8775783" lon="12.9933067"><ele>468.0</ele><time>2026-04-26T12:16:06.236Z</time></trkpt><trkpt lat="42.8776917" lon="12.9931967"><ele>468.0</ele><time>2026-04-26T12:16:07.232Z</time></trkpt><trkpt lat="42.877805" lon="12.9930833"><ele>464.0</ele><time>2026-04-26T12:16:08.232Z</time></trkpt><trkpt lat="42.8779167" lon="12.9929767"><ele>460.0</ele><time>2026-04-26T12:16:09.233Z</time></trkpt><trkpt lat="42.8780317" lon="12.9928633"><ele>456.0</ele><time>2026-04-26T12:16:10.233Z</time></trkpt><trkpt lat="42.87814" lon="12.9927483"><ele>452.0</ele><time>2026-04-26T12:16:11.235Z</time></trkpt><trkpt lat="42.878245" lon="12.9926233"><ele>452.25</ele><time>2026-04-26T12:16:12.232Z</time></trkpt><trkpt lat="42.8783417" lon="12.9924867"><ele>452.5</ele><time>2026-04-26T12:16:13.231Z</time></trkpt><trkpt lat="42.8784267" lon="12.9923483"><ele>452.75</ele><time>2026-04-26T12:16:14.232Z</time></trkpt><trkpt lat="42.8784983" lon="12.9922167"><ele>453.0</ele><time>2026-04-26T12:16:15.231Z</time></trkpt><trkpt lat="42.8785633" lon="12.9920833"><ele>453.0</ele><time>2026-04-26T12:16:16.232Z</time></trkpt><trkpt lat="42.8786267" lon="12.99196"><ele>452.99999999999994</ele><time>2026-04-26T12:16:17.231Z</time></trkpt><trkpt lat="42.8786867" lon="12.9918383"><ele>452.99999999999994</ele><time>2026-04-26T12:16:18.232Z</time></trkpt><trkpt lat="42.878745" lon="12.9917317"><ele>453.0</ele><time>2026-04-26T12:16:19.232Z</time></trkpt><trkpt lat="42.8787967" lon="12.991635"><ele>453.0</ele><time>2026-04-26T12:16:20.232Z</time></trkpt><trkpt lat="42.8788433" lon="12.9915433"><ele>452.79999999999995</ele><time>2026-04-26T12:16:21.245Z</time></trkpt><trkpt lat="42.878885" lon="12.9914683"><ele>452.59999999999997</ele><time>2026-04-26T12:16:22.234Z</time></trkpt><trkpt lat="42.878965" lon="12.9913633"><ele>452.40000000000003</ele><time>2026-04-26T12:16:24.233Z</time></trkpt><trkpt lat="42.879075" lon="12.9913483"><ele>452.20000000000005</ele><time>2026-04-26T12:16:26.233Z</time></trkpt><trkpt lat="42.87917" lon="12.9913733"><ele>452.0</ele><time>2026-04-26T12:16:27.236Z</time></trkpt><trkpt lat="42.87931" lon="12.9914433"><ele>453.0</ele><time>2026-04-26T12:16:28.234Z</time></trkpt><trkpt lat="42.87945" lon="12.9915233"><ele>454.0</ele><time>2026-04-26T12:16:29.235Z</time></trkpt><trkpt lat="42.8796033" lon="12.9916167"><ele>455.0</ele><time>2026-04-26T12:16:30.231Z</time></trkpt><trkpt lat="42.879755" lon="12.9917133"><ele>455.0</ele><time>2026-04-26T12:16:31.232Z</time></trkpt><trkpt lat="42.8798933" lon="12.9918067"><ele>455.0</ele><time>2026-04-26T12:16:32.231Z</time></trkpt><trkpt lat="42.8800133" lon="12.9918817"><ele>455.0</ele><time>2026-04-26T12:16:33.237Z</time></trkpt><trkpt lat="42.88014" lon="12.991965"><ele>455.0</ele><time>2026-04-26T12:16:34.233Z</time></trkpt><trkpt lat="42.880265" lon="12.9920567"><ele>455.3333333333333</ele><time>2026-04-26T12:16:35.236Z</time></trkpt><trkpt lat="42.8803933" lon="12.9921517"><ele>455.66666666666663</ele><time>2026-04-26T12:16:36.231Z</time></trkpt><trkpt lat="42.88053" lon="12.9922617"><ele>456.0</ele><time>2026-04-26T12:16:37.233Z</time></trkpt><trkpt lat="42.880665" lon="12.99238"><ele>456.0</ele><time>2026-04-26T12:16:38.23Z</time></trkpt><trkpt lat="42.88081" lon="12.9925083"><ele>456.0</ele><time>2026-04-26T12:16:39.232Z</time></trkpt><trkpt lat="42.880955" lon="12.9926383"><ele>456.0</ele><time>2026-04-26T12:16:40.232Z</time></trkpt><trkpt lat="42.8811117" lon="12.992775"><ele>456.0</ele><time>2026-04-26T12:16:41.235Z</time></trkpt><trkpt lat="42.881275" lon="12.992915"><ele>456.0</ele><time>2026-04-26T12:16:42.232Z</time></trkpt><trkpt lat="42.8814417" lon="12.9930583"><ele>456.0</ele><time>2026-04-26T12:16:43.234Z</time></trkpt><trkpt lat="42.8816133" lon="12.9932017"><ele>456.0</ele><time>2026-04-26T12:16:44.232Z</time></trkpt><trkpt lat="42.881795" lon="12.9933283"><ele>456.0</ele><time>2026-04-26T12:16:45.233Z</time></trkpt><trkpt lat="42.8819933" lon="12.99342"><ele>456.0</ele><time>2026-04-26T12:16:46.232Z</time></trkpt><trkpt lat="42.8822017" lon="12.9934767"><ele>456.0</ele><time>2026-04-26T12:16:47.231Z</time></trkpt><trkpt lat="42.8824133" lon="12.9935183"><ele>456.0</ele><time>2026-04-26T12:16:48.234Z</time></trkpt><trkpt lat="42.882625" lon="12.9935717"><ele>456.0</ele><time>2026-04-26T12:16:49.233Z</time></trkpt><trkpt lat="42.882835" lon="12.9936433"><ele>457.66666666666663</ele><time>2026-04-26T12:16:50.234Z</time></trkpt><trkpt lat="42.8830417" lon="12.9937383"><ele>459.3333333333333</ele><time>2026-04-26T12:16:51.235Z</time></trkpt><trkpt lat="42.8832383" lon="12.9938733"><ele>461.0</ele><time>2026-04-26T12:16:52.232Z</time></trkpt><trkpt lat="42.883425" lon="12.9940317"><ele>457.0</ele><time>2026-04-26T12:16:53.23Z</time></trkpt><trkpt lat="42.8836167" lon="12.994185"><ele>453.0</ele><time>2026-04-26T12:16:54.234Z</time></trkpt><trkpt lat="42.8838417" lon="12.9943367"><ele>453.0</ele><time>2026-04-26T12:16:55.235Z</time></trkpt><trkpt lat="42.88405" lon="12.9944617"><ele>453.0</ele><time>2026-04-26T12:16:56.233Z</time></trkpt><trkpt lat="42.8842517" lon="12.9945817"><ele>453.0</ele><time>2026-04-26T12:16:57.234Z</time></trkpt><trkpt lat="42.8844483" lon="12.994705"><ele>456.0</ele><time>2026-04-26T12:16:58.232Z</time></trkpt><trkpt lat="42.8846583" lon="12.9948567"><ele>459.0</ele><time>2026-04-26T12:16:59.234Z</time></trkpt><trkpt lat="42.8848417" lon="12.995005"><ele>459.0</ele><time>2026-04-26T12:17:00.233Z</time></trkpt><trkpt lat="42.8850167" lon="12.9951683"><ele>459.0</ele><time>2026-04-26T12:17:01.235Z</time></trkpt><trkpt lat="42.88519" lon="12.99534"><ele>459.0</ele><time>2026-04-26T12:17:02.232Z</time></trkpt><trkpt lat="42.8853617" lon="12.99552"><ele>458.66666666666663</ele><time>2026-04-26T12:17:03.233Z</time></trkpt><trkpt lat="42.88554" lon="12.9956983"><ele>458.3333333333333</ele><time>2026-04-26T12:17:04.233Z</time></trkpt><trkpt lat="42.8857167" lon="12.9958783"><ele>458.0</ele><time>2026-04-26T12:17:05.234Z</time></trkpt><trkpt lat="42.8858933" lon="12.9960567"><ele>461.0</ele><time>2026-04-26T12:17:06.234Z</time></trkpt><trkpt lat="42.8860767" lon="12.9962317"><ele>464.0</ele><time>2026-04-26T12:17:07.232Z</time></trkpt><trkpt lat="42.8862683" lon="12.9964033"><ele>464.0</ele><time>2026-04-26T12:17:08.234Z</time></trkpt><trkpt lat="42.8864683" lon="12.9965633"><ele>464.0</ele><time>2026-04-26T12:17:09.235Z</time></trkpt><trkpt lat="42.886675" lon="12.9967217"><ele>462.5</ele><time>2026-04-26T12:17:10.233Z</time></trkpt><trkpt lat="42.8868867" lon="12.9968783"><ele>461.0</ele><time>2026-04-26T12:17:11.234Z</time></trkpt><trkpt lat="42.8870983" lon="12.9970317"><ele>461.0</ele><time>2026-04-26T12:17:12.232Z</time></trkpt><trkpt lat="42.8873067" lon="12.9971883"><ele>461.0</ele><time>2026-04-26T12:17:13.236Z</time></trkpt><trkpt lat="42.887515" lon="12.997345"><ele>463.5</ele><time>2026-04-26T12:17:14.234Z</time></trkpt><trkpt lat="42.8877217" lon="12.99751"><ele>466.0</ele><time>2026-04-26T12:17:15.236Z</time></trkpt><trkpt lat="42.8879217" lon="12.99769"><ele>466.0</ele><time>2026-04-26T12:17:16.232Z</time></trkpt><trkpt lat="42.88811" lon="12.9978867"><ele>466.0</ele><time>2026-04-26T12:17:17.233Z</time></trkpt><trkpt lat="42.888285" lon="12.9980983"><ele>469.0</ele><time>2026-04-26T12:17:18.233Z</time></trkpt><trkpt lat="42.8884567" lon="12.9983217"><ele>472.0</ele><time>2026-04-26T12:17:19.231Z</time></trkpt><trkpt lat="42.8886317" lon="12.9985533"><ele>472.0</ele><time>2026-04-26T12:17:20.234Z</time></trkpt><trkpt lat="42.8888067" lon="12.9987867"><ele>472.0</ele><time>2026-04-26T12:17:21.235Z</time></trkpt><trkpt lat="42.88898" lon="12.9990117"><ele>470.0</ele><time>2026-04-26T12:17:22.231Z</time></trkpt><trkpt lat="42.8891317" lon="12.9992333"><ele>468.0</ele><time>2026-04-26T12:17:23.234Z</time></trkpt><trkpt lat="42.8892683" lon="12.9994667"><ele>466.0</ele><time>2026-04-26T12:17:24.235Z</time></trkpt><trkpt lat="42.8893833" lon="12.9997217"><ele>471.6666666666667</ele><time>2026-04-26T12:17:25.231Z</time></trkpt><trkpt lat="42.88947" lon="12.9999933"><ele>477.33333333333337</ele><time>2026-04-26T12:17:26.232Z</time></trkpt><trkpt lat="42.8895317" lon="13.0002783"><ele>483.0</ele><time>2026-04-26T12:17:27.235Z</time></trkpt><trkpt lat="42.8895867" lon="13.0005467"><ele>483.0</ele><time>2026-04-26T12:17:28.234Z</time></trkpt><trkpt lat="42.88967" lon="13.0008083"><ele>483.0</ele><time>2026-04-26T12:17:29.233Z</time></trkpt><trkpt lat="42.889785" lon="13.0010433"><ele>483.0</ele><time>2026-04-26T12:17:30.233Z</time></trkpt><trkpt lat="42.88993" lon="13.0012383"><ele>482.66666666666663</ele><time>2026-04-26T12:17:31.235Z</time></trkpt><trkpt lat="42.8900867" lon="13.0013933"><ele>482.3333333333333</ele><time>2026-04-26T12:17:32.237Z</time></trkpt><trkpt lat="42.89025" lon="13.0015283"><ele>482.0</ele><time>2026-04-26T12:17:33.235Z</time></trkpt><trkpt lat="42.8904217" lon="13.0016483"><ele>482.3333333333333</ele><time>2026-04-26T12:17:34.234Z</time></trkpt><trkpt lat="42.8906083" lon="13.0017533"><ele>482.66666666666663</ele><time>2026-04-26T12:17:35.234Z</time></trkpt><trkpt lat="42.890805" lon="13.0018483"><ele>483.0</ele><time>2026-04-26T12:17:36.235Z</time></trkpt><trkpt lat="42.8910033" lon="13.0019467"><ele>483.0</ele><time>2026-04-26T12:17:37.231Z</time></trkpt><trkpt lat="42.8911967" lon="13.0020617"><ele>483.0</ele><time>2026-04-26T12:17:38.233Z</time></trkpt><trkpt lat="42.8913733" lon="13.002205"><ele>483.0</ele><time>2026-04-26T12:17:39.236Z</time></trkpt><trkpt lat="42.8915417" lon="13.002375"><ele>479.33333333333337</ele><time>2026-04-26T12:17:40.234Z</time></trkpt><trkpt lat="42.8916867" lon="13.00257"><ele>475.6666666666667</ele><time>2026-04-26T12:17:41.233Z</time></trkpt><trkpt lat="42.8918133" lon="13.002785"><ele>472.0</ele><time>2026-04-26T12:17:42.232Z</time></trkpt><trkpt lat="42.8919167" lon="13.0030033"><ele>481.6666666666667</ele><time>2026-04-26T12:17:43.232Z</time></trkpt><trkpt lat="42.8919967" lon="13.0032233"><ele>491.33333333333337</ele><time>2026-04-26T12:17:44.233Z</time></trkpt><trkpt lat="42.8920617" lon="13.0034617"><ele>501.0</ele><time>2026-04-26T12:17:45.232Z</time></trkpt><trkpt lat="42.8921133" lon="13.0037183"><ele>501.0</ele><time>2026-04-26T12:17:46.234Z</time></trkpt><trkpt lat="42.892155" lon="13.0039833"><ele>501.0</ele><time>2026-04-26T12:17:47.232Z</time></trkpt><trkpt lat="42.8922" lon="13.0042533"><ele>501.0</ele><time>2026-04-26T12:17:48.233Z</time></trkpt><trkpt lat="42.8922417" lon="13.00453"><ele>497.66666666666663</ele><time>2026-04-26T12:17:49.235Z</time></trkpt><trkpt lat="42.8922867" lon="13.004805"><ele>494.3333333333333</ele><time>2026-04-26T12:17:50.235Z</time></trkpt><trkpt lat="42.8923467" lon="13.0050667"><ele>491.0</ele><time>2026-04-26T12:17:51.235Z</time></trkpt><trkpt lat="42.892425" lon="13.005315"><ele>486.66666666666663</ele><time>2026-04-26T12:17:52.235Z</time></trkpt><trkpt lat="42.892525" lon="13.0055533"><ele>482.33333333333337</ele><time>2026-04-26T12:17:53.233Z</time></trkpt><trkpt lat="42.8926467" lon="13.005785"><ele>478.0</ele><time>2026-04-26T12:17:54.233Z</time></trkpt><trkpt lat="42.8927967" lon="13.00601"><ele>491.5</ele><time>2026-04-26T12:17:55.235Z</time></trkpt><trkpt lat="42.892965" lon="13.0062317"><ele>505.0</ele><time>2026-04-26T12:17:56.233Z</time></trkpt><trkpt lat="42.89314" lon="13.006455"><ele>508.5</ele><time>2026-04-26T12:17:57.236Z</time></trkpt><trkpt lat="42.89332" lon="13.0066817"><ele>512.0</ele><time>2026-04-26T12:17:58.235Z</time></trkpt><trkpt lat="42.8935017" lon="13.0069067"><ele>512.0</ele><time>2026-04-26T12:17:59.232Z</time></trkpt><trkpt lat="42.893675" lon="13.007135"><ele>512.0</ele><time>2026-04-26T12:18:00.234Z</time></trkpt><trkpt lat="42.8938333" lon="13.007365"><ele>501.66666666666663</ele><time>2026-04-26T12:18:01.236Z</time></trkpt><trkpt lat="42.893975" lon="13.0075983"><ele>491.33333333333337</ele><time>2026-04-26T12:18:02.234Z</time></trkpt><trkpt lat="42.8941" lon="13.0078367"><ele>481.0</ele><time>2026-04-26T12:18:03.234Z</time></trkpt><trkpt lat="42.8942183" lon="13.008075"><ele>481.6666666666667</ele><time>2026-04-26T12:18:04.235Z</time></trkpt><trkpt lat="42.8943283" lon="13.008325"><ele>482.33333333333337</ele><time>2026-04-26T12:18:05.235Z</time></trkpt><trkpt lat="42.8944383" lon="13.0085767"><ele>483.0</ele><time>2026-04-26T12:18:06.233Z</time></trkpt><trkpt lat="42.89455" lon="13.008825"><ele>483.0</ele><time>2026-04-26T12:18:07.233Z</time></trkpt><trkpt lat="42.8946617" lon="13.009075"><ele>483.0</ele><time>2026-04-26T12:18:08.232Z</time></trkpt><trkpt lat="42.89478" lon="13.009315"><ele>483.0</ele><time>2026-04-26T12:18:09.233Z</time></trkpt><trkpt lat="42.89491" lon="13.0095383"><ele>481.0</ele><time>2026-04-26T12:18:10.232Z</time></trkpt><trkpt lat="42.8950583" lon="13.0097317"><ele>479.0</ele><time>2026-04-26T12:18:11.232Z</time></trkpt><trkpt lat="42.89521" lon="13.0099"><ele>477.0</ele><time>2026-04-26T12:18:12.234Z</time></trkpt><trkpt lat="42.8953633" lon="13.01005"><ele>475.0</ele><time>2026-04-26T12:18:13.232Z</time></trkpt><trkpt lat="42.8955217" lon="13.0101933"><ele>473.0</ele><time>2026-04-26T12:18:14.235Z</time></trkpt><trkpt lat="42.8956817" lon="13.01034"><ele>471.0</ele><time>2026-04-26T12:18:15.235Z</time></trkpt><trkpt lat="42.8958483" lon="13.01049"><ele>473.66666666666663</ele><time>2026-04-26T12:18:16.235Z</time></trkpt><trkpt lat="42.8960133" lon="13.0106417"><ele>476.3333333333333</ele><time>2026-04-26T12:18:17.231Z</time></trkpt><trkpt lat="42.8961783" lon="13.0107917"><ele>479.0</ele><time>2026-04-26T12:18:18.231Z</time></trkpt><trkpt lat="42.8963517" lon="13.010935"><ele>479.0</ele><time>2026-04-26T12:18:19.233Z</time></trkpt><trkpt lat="42.8965267" lon="13.0110567"><ele>479.0</ele><time>2026-04-26T12:18:20.238Z</time></trkpt><trkpt lat="42.896715" lon="13.0111533"><ele>479.0</ele><time>2026-04-26T12:18:21.237Z</time></trkpt><trkpt lat="42.8969" lon="13.0112233"><ele>482.66666666666663</ele><time>2026-04-26T12:18:22.233Z</time></trkpt><trkpt lat="42.8970883" lon="13.0112783"><ele>486.33333333333337</ele><time>2026-04-26T12:18:23.234Z</time></trkpt><trkpt lat="42.8972733" lon="13.0113117"><ele>490.0</ele><time>2026-04-26T12:18:24.236Z</time></trkpt><trkpt lat="42.897455" lon="13.01129"><ele>487.33333333333337</ele><time>2026-04-26T12:18:25.233Z</time></trkpt><trkpt lat="42.89763" lon="13.0112267"><ele>484.66666666666663</ele><time>2026-04-26T12:18:26.234Z</time></trkpt><trkpt lat="42.8978067" lon="13.0111083"><ele>482.0</ele><time>2026-04-26T12:18:27.234Z</time></trkpt><trkpt lat="42.8979867" lon="13.0109967"><ele>482.0</ele><time>2026-04-26T12:18:28.232Z</time></trkpt><trkpt lat="42.8981767" lon="13.0109217"><ele>482.0</ele><time>2026-04-26T12:18:29.233Z</time></trkpt><trkpt lat="42.898375" lon="13.010895"><ele>482.0</ele><time>2026-04-26T12:18:30.234Z</time></trkpt><trkpt lat="42.8985767" lon="13.0109117"><ele>486.66666666666663</ele><time>2026-04-26T12:18:31.235Z</time></trkpt><trkpt lat="42.8987817" lon="13.0109533"><ele>491.33333333333337</ele><time>2026-04-26T12:18:32.233Z</time></trkpt><trkpt lat="42.8989817" lon="13.0110083"><ele>496.0</ele><time>2026-04-26T12:18:33.234Z</time></trkpt><trkpt lat="42.89919" lon="13.0110733"><ele>515.5</ele><time>2026-04-26T12:18:34.234Z</time></trkpt><trkpt lat="42.8993967" lon="13.0111717"><ele>535.0</ele><time>2026-04-26T12:18:35.233Z</time></trkpt><trkpt lat="42.8996017" lon="13.01132"><ele>535.0</ele><time>2026-04-26T12:18:36.236Z</time></trkpt><trkpt lat="42.899795" lon="13.0114633"><ele>535.0</ele><time>2026-04-26T12:18:37.234Z</time></trkpt><trkpt lat="42.8999867" lon="13.0116133"><ele>535.0</ele><time>2026-04-26T12:18:38.234Z</time></trkpt><trkpt lat="42.9001867" lon="13.011765"><ele>531.3333333333334</ele><time>2026-04-26T12:18:39.234Z</time></trkpt><trkpt lat="42.900375" lon="13.0119017"><ele>527.6666666666666</ele><time>2026-04-26T12:18:40.233Z</time></trkpt><trkpt lat="42.9005533" lon="13.012045"><ele>524.0</ele><time>2026-04-26T12:18:41.234Z</time></trkpt><trkpt lat="42.9007017" lon="13.0122017"><ele>524.0</ele><time>2026-04-26T12:18:42.234Z</time></trkpt><trkpt lat="42.90082" lon="13.01238"><ele>524.0</ele><time>2026-04-26T12:18:43.232Z</time></trkpt><trkpt lat="42.9009117" lon="13.0125833"><ele>524.0</ele><time>2026-04-26T12:18:44.231Z</time></trkpt><trkpt lat="42.9009783" lon="13.0128183"><ele>522.3333333333333</ele><time>2026-04-26T12:18:45.232Z</time></trkpt><trkpt lat="42.9010333" lon="13.0130767"><ele>520.6666666666666</ele><time>2026-04-26T12:18:46.234Z</time></trkpt><trkpt lat="42.90108" lon="13.0133533"><ele>519.0</ele><time>2026-04-26T12:18:47.233Z</time></trkpt><trkpt lat="42.9011317" lon="13.0136433"><ele>519.0</ele><time>2026-04-26T12:18:48.233Z</time></trkpt><trkpt lat="42.901185" lon="13.013935"><ele>519.0</ele><time>2026-04-26T12:18:49.236Z</time></trkpt><trkpt lat="42.9012433" lon="13.0142367"><ele>519.0</ele><time>2026-04-26T12:18:50.235Z</time></trkpt><trkpt lat="42.901285" lon="13.0145367"><ele>513.0</ele><time>2026-04-26T12:18:51.237Z</time></trkpt><trkpt lat="42.901335" lon="13.014845"><ele>507.0</ele><time>2026-04-26T12:18:52.232Z</time></trkpt><trkpt lat="42.901395" lon="13.0151567"><ele>503.5</ele><time>2026-04-26T12:18:53.233Z</time></trkpt><trkpt lat="42.9014467" lon="13.015465"><ele>500.0</ele><time>2026-04-26T12:18:54.233Z</time></trkpt><trkpt lat="42.9015" lon="13.0157683"><ele>497.66666666666663</ele><time>2026-04-26T12:18:55.231Z</time></trkpt><trkpt lat="42.9015617" lon="13.0160533"><ele>495.33333333333337</ele><time>2026-04-26T12:18:56.235Z</time></trkpt><trkpt lat="42.9016467" lon="13.0163183"><ele>493.0</ele><time>2026-04-26T12:18:57.235Z</time></trkpt><trkpt lat="42.901755" lon="13.0165567"><ele>500.0</ele><time>2026-04-26T12:18:58.233Z</time></trkpt><trkpt lat="42.9018867" lon="13.016765"><ele>507.0</ele><time>2026-04-26T12:18:59.234Z</time></trkpt><trkpt lat="42.9020267" lon="13.01694"><ele>514.0</ele><time>2026-04-26T12:19:00.234Z</time></trkpt><trkpt lat="42.9021883" lon="13.0171"><ele>514.0</ele><time>2026-04-26T12:19:01.237Z</time></trkpt><trkpt lat="42.90236" lon="13.0172467"><ele>514.0</ele><time>2026-04-26T12:19:02.236Z</time></trkpt><trkpt lat="42.902525" lon="13.0173933"><ele>514.0</ele><time>2026-04-26T12:19:03.233Z</time></trkpt><trkpt lat="42.9026917" lon="13.01754"><ele>512.0</ele><time>2026-04-26T12:19:04.231Z</time></trkpt><trkpt lat="42.9028467" lon="13.017695"><ele>510.0</ele><time>2026-04-26T12:19:05.233Z</time></trkpt><trkpt lat="42.903055" lon="13.0178467"><ele>508.0</ele><time>2026-04-26T12:19:06.235Z</time></trkpt><trkpt lat="42.903255" lon="13.0180033"><ele>509.33333333333337</ele><time>2026-04-26T12:19:07.236Z</time></trkpt><trkpt lat="42.90344" lon="13.0181617"><ele>510.66666666666663</ele><time>2026-04-26T12:19:08.233Z</time></trkpt><trkpt lat="42.903615" lon="13.0183317"><ele>512.0</ele><time>2026-04-26T12:19:09.237Z</time></trkpt><trkpt lat="42.9037683" lon="13.0185233"><ele>512.0</ele><time>2026-04-26T12:19:10.23Z</time></trkpt><trkpt lat="42.9038883" lon="13.01874"><ele>512.0</ele><time>2026-04-26T12:19:11.233Z</time></trkpt><trkpt lat="42.90395" lon="13.018955"><ele>512.0</ele><time>2026-04-26T12:19:12.233Z</time></trkpt><trkpt lat="42.9040067" lon="13.0191867"><ele>507.0</ele><time>2026-04-26T12:19:13.235Z</time></trkpt><trkpt lat="42.90404" lon="13.01942"><ele>502.0</ele><time>2026-04-26T12:19:14.235Z</time></trkpt><trkpt lat="42.9040483" lon="13.019665"><ele>497.0</ele><time>2026-04-26T12:19:15.236Z</time></trkpt><trkpt lat="42.9040367" lon="13.0199167"><ele>497.66666666666663</ele><time>2026-04-26T12:19:16.232Z</time></trkpt><trkpt lat="42.9040017" lon="13.0201733"><ele>498.33333333333337</ele><time>2026-04-26T12:19:17.232Z</time></trkpt><trkpt lat="42.9039717" lon="13.020445"><ele>499.0</ele><time>2026-04-26T12:19:18.233Z</time></trkpt><trkpt lat="42.903955" lon="13.0207233"><ele>500.6666666666667</ele><time>2026-04-26T12:19:19.234Z</time></trkpt><trkpt lat="42.9039533" lon="13.0210033"><ele>502.33333333333337</ele><time>2026-04-26T12:19:20.231Z</time></trkpt><trkpt lat="42.9039683" lon="13.02128"><ele>504.0</ele><time>2026-04-26T12:19:21.235Z</time></trkpt><trkpt lat="42.90398" lon="13.0215633"><ele>502.66666666666663</ele><time>2026-04-26T12:19:22.233Z</time></trkpt><trkpt lat="42.9039633" lon="13.02185"><ele>501.3333333333333</ele><time>2026-04-26T12:19:23.231Z</time></trkpt><trkpt lat="42.9039067" lon="13.0221367"><ele>500.0</ele><time>2026-04-26T12:19:24.23Z</time></trkpt><trkpt lat="42.903825" lon="13.02242"><ele>501.0</ele><time>2026-04-26T12:19:25.236Z</time></trkpt><trkpt lat="42.9037283" lon="13.0227033"><ele>502.0</ele><time>2026-04-26T12:19:26.232Z</time></trkpt><trkpt lat="42.9036233" lon="13.0229917"><ele>502.0</ele><time>2026-04-26T12:19:27.236Z</time></trkpt><trkpt lat="42.903515" lon="13.02328"><ele>502.0</ele><time>2026-04-26T12:19:28.235Z</time></trkpt><trkpt lat="42.903405" lon="13.0235667"><ele>492.0</ele><time>2026-04-26T12:19:29.233Z</time></trkpt><trkpt lat="42.9032933" lon="13.0238433"><ele>482.0</ele><time>2026-04-26T12:19:30.231Z</time></trkpt><trkpt lat="42.903185" lon="13.024105"><ele>485.3333333333333</ele><time>2026-04-26T12:19:31.234Z</time></trkpt><trkpt lat="42.90308" lon="13.0243517"><ele>488.66666666666663</ele><time>2026-04-26T12:19:32.234Z</time></trkpt><trkpt lat="42.9029783" lon="13.0245867"><ele>492.0</ele><time>2026-04-26T12:19:33.235Z</time></trkpt><trkpt lat="42.9028817" lon="13.02481"><ele>497.0</ele><time>2026-04-26T12:19:34.233Z</time></trkpt><trkpt lat="42.902785" lon="13.025025"><ele>502.0</ele><time>2026-04-26T12:19:35.233Z</time></trkpt><trkpt lat="42.902695" lon="13.025225"><ele>507.0</ele><time>2026-04-26T12:19:36.231Z</time></trkpt><trkpt lat="42.9026183" lon="13.0254133"><ele>510.25</ele><time>2026-04-26T12:19:37.233Z</time></trkpt><trkpt lat="42.9025567" lon="13.0255967"><ele>513.5</ele><time>2026-04-26T12:19:38.232Z</time></trkpt><trkpt lat="42.9025383" lon="13.02578"><ele>516.75</ele><time>2026-04-26T12:19:39.233Z</time></trkpt><trkpt lat="42.9025617" lon="13.025955"><ele>520.0</ele><time>2026-04-26T12:19:40.231Z</time></trkpt><trkpt lat="42.9026233" lon="13.026125"><ele>520.0</ele><time>2026-04-26T12:19:41.234Z</time></trkpt><trkpt lat="42.9027283" lon="13.0262767"><ele>520.0</ele><time>2026-04-26T12:19:42.234Z</time></trkpt><trkpt lat="42.902855" lon="13.02641"><ele>520.0</ele><time>2026-04-26T12:19:43.232Z</time></trkpt><trkpt lat="42.903" lon="13.026545"><ele>525.3333333333334</ele><time>2026-04-26T12:19:44.231Z</time></trkpt><trkpt lat="42.90316" lon="13.026695"><ele>530.6666666666666</ele><time>2026-04-26T12:19:45.236Z</time></trkpt><trkpt lat="42.9033383" lon="13.0268633"><ele>536.0</ele><time>2026-04-26T12:19:46.231Z</time></trkpt><trkpt lat="42.9035183" lon="13.0270333"><ele>536.0</ele><time>2026-04-26T12:19:47.232Z</time></trkpt><trkpt lat="42.9036933" lon="13.0272017"><ele>536.0</ele><time>2026-04-26T12:19:48.235Z</time></trkpt><trkpt lat="42.903855" lon="13.027375"><ele>536.0</ele><time>2026-04-26T12:19:49.234Z</time></trkpt><trkpt lat="42.9040083" lon="13.02756"><ele>539.0</ele><time>2026-04-26T12:19:50.233Z</time></trkpt><trkpt lat="42.9041483" lon="13.02775"><ele>542.0</ele><time>2026-04-26T12:19:51.234Z</time></trkpt><trkpt lat="42.9042617" lon="13.0279367"><ele>545.0</ele><time>2026-04-26T12:19:52.234Z</time></trkpt><trkpt lat="42.90435" lon="13.028125"><ele>545.0</ele><time>2026-04-26T12:19:53.231Z</time></trkpt><trkpt lat="42.9044383" lon="13.0283017"><ele>545.0</ele><time>2026-04-26T12:19:54.231Z</time></trkpt><trkpt lat="42.9045283" lon="13.028445"><ele>545.0</ele><time>2026-04-26T12:19:55.233Z</time></trkpt><trkpt lat="42.9046283" lon="13.02855"><ele>545.0</ele><time>2026-04-26T12:19:56.233Z</time></trkpt><trkpt lat="42.904745" lon="13.0286217"><ele>537.0</ele><time>2026-04-26T12:19:57.242Z</time></trkpt><trkpt lat="42.904865" lon="13.0286683"><ele>529.0</ele><time>2026-04-26T12:19:58.234Z</time></trkpt><trkpt lat="42.904995" lon="13.0286933"><ele>521.0</ele><time>2026-04-26T12:19:59.232Z</time></trkpt><trkpt lat="42.9051233" lon="13.02871"><ele>513.0</ele><time>2026-04-26T12:20:00.234Z</time></trkpt><trkpt lat="42.9052533" lon="13.0287233"><ele>513.0</ele><time>2026-04-26T12:20:01.236Z</time></trkpt><trkpt lat="42.90538" lon="13.0287283"><ele>513.0</ele><time>2026-04-26T12:20:02.233Z</time></trkpt><trkpt lat="42.9055" lon="13.0287367"><ele>513.0</ele><time>2026-04-26T12:20:03.23Z</time></trkpt><trkpt lat="42.9056117" lon="13.0287483"><ele>513.0</ele><time>2026-04-26T12:20:04.231Z</time></trkpt><trkpt lat="42.9057233" lon="13.0287717"><ele>513.0</ele><time>2026-04-26T12:20:05.234Z</time></trkpt><trkpt lat="42.905845" lon="13.028795"><ele>513.0</ele><time>2026-04-26T12:20:06.233Z</time></trkpt><trkpt lat="42.9059817" lon="13.02884"><ele>513.0</ele><time>2026-04-26T12:20:07.233Z</time></trkpt><trkpt lat="42.90613" lon="13.0289233"><ele>513.0</ele><time>2026-04-26T12:20:08.234Z</time></trkpt><trkpt lat="42.9062733" lon="13.0290383"><ele>507.33333333333337</ele><time>2026-04-26T12:20:09.235Z</time></trkpt><trkpt lat="42.906395" lon="13.0291733"><ele>501.6666666666667</ele><time>2026-04-26T12:20:10.23Z</time></trkpt><trkpt lat="42.9065" lon="13.0293233"><ele>496.0</ele><time>2026-04-26T12:20:11.232Z</time></trkpt><trkpt lat="42.9065967" lon="13.0294867"><ele>496.0</ele><time>2026-04-26T12:20:12.235Z</time></trkpt><trkpt lat="42.9067" lon="13.0296567"><ele>496.0</ele><time>2026-04-26T12:20:13.232Z</time></trkpt><trkpt lat="42.9068" lon="13.0298283"><ele>496.0</ele><time>2026-04-26T12:20:14.234Z</time></trkpt><trkpt lat="42.9068917" lon="13.0300017"><ele>499.33333333333337</ele><time>2026-04-26T12:20:15.227Z</time></trkpt><trkpt lat="42.9069767" lon="13.0301833"><ele>502.66666666666663</ele><time>2026-04-26T12:20:16.231Z</time></trkpt><trkpt lat="42.9070567" lon="13.0303717"><ele>506.0</ele><time>2026-04-26T12:20:17.23Z</time></trkpt><trkpt lat="42.9071183" lon="13.0305783"><ele>506.0</ele><time>2026-04-26T12:20:18.234Z</time></trkpt><trkpt lat="42.9071633" lon="13.030805"><ele>506.0</ele><time>2026-04-26T12:20:19.234Z</time></trkpt><trkpt lat="42.9071783" lon="13.031035"><ele>506.0</ele><time>2026-04-26T12:20:20.231Z</time></trkpt><trkpt lat="42.907175" lon="13.031265"><ele>507.25</ele><time>2026-04-26T12:20:21.233Z</time></trkpt><trkpt lat="42.9071733" lon="13.0314783"><ele>508.5</ele><time>2026-04-26T12:20:22.23Z</time></trkpt><trkpt lat="42.9071767" lon="13.031675"><ele>509.75</ele><time>2026-04-26T12:20:23.232Z</time></trkpt><trkpt lat="42.9071817" lon="13.0318717"><ele>511.0</ele><time>2026-04-26T12:20:24.235Z</time></trkpt><trkpt lat="42.9071833" lon="13.0320683"><ele>511.0</ele><time>2026-04-26T12:20:25.234Z</time></trkpt><trkpt lat="42.907185" lon="13.032265"><ele>511.0</ele><time>2026-04-26T12:20:26.231Z</time></trkpt><trkpt lat="42.9071883" lon="13.0324583"><ele>511.0</ele><time>2026-04-26T12:20:27.235Z</time></trkpt><trkpt lat="42.907205" lon="13.0326433"><ele>511.0</ele><time>2026-04-26T12:20:28.231Z</time></trkpt><trkpt lat="42.907245" lon="13.0328117"><ele>510.0</ele><time>2026-04-26T12:20:29.233Z</time></trkpt><trkpt lat="42.9073167" lon="13.03296"><ele>509.0</ele><time>2026-04-26T12:20:30.232Z</time></trkpt><trkpt lat="42.9074217" lon="13.03307"><ele>508.0</ele><time>2026-04-26T12:20:31.233Z</time></trkpt><trkpt lat="42.907545" lon="13.0331433"><ele>507.0</ele><time>2026-04-26T12:20:32.233Z</time></trkpt><trkpt lat="42.9076867" lon="13.0332017"><ele>511.66666666666663</ele><time>2026-04-26T12:20:33.234Z</time></trkpt><trkpt lat="42.9078333" lon="13.0332683"><ele>516.3333333333333</ele><time>2026-04-26T12:20:34.233Z</time></trkpt><trkpt lat="42.9079833" lon="13.03336"><ele>521.0</ele><time>2026-04-26T12:20:35.233Z</time></trkpt><trkpt lat="42.9081267" lon="13.03348"><ele>521.0</ele><time>2026-04-26T12:20:36.233Z</time></trkpt><trkpt lat="42.90825" lon="13.0336183"><ele>521.0</ele><time>2026-04-26T12:20:37.236Z</time></trkpt><trkpt lat="42.9083517" lon="13.0337817"><ele>521.0</ele><time>2026-04-26T12:20:38.232Z</time></trkpt><trkpt lat="42.9084367" lon="13.03397"><ele>526.3333333333333</ele><time>2026-04-26T12:20:39.239Z</time></trkpt><trkpt lat="42.9084833" lon="13.0341733"><ele>531.6666666666666</ele><time>2026-04-26T12:20:40.232Z</time></trkpt><trkpt lat="42.9085183" lon="13.0343883"><ele>537.0</ele><time>2026-04-26T12:20:41.233Z</time></trkpt><trkpt lat="42.9085483" lon="13.03459"><ele>537.0</ele><time>2026-04-26T12:20:42.233Z</time></trkpt><trkpt lat="42.9085783" lon="13.034785"><ele>537.0</ele><time>2026-04-26T12:20:43.233Z</time></trkpt><trkpt lat="42.9086" lon="13.0349767"><ele>537.0</ele><time>2026-04-26T12:20:44.232Z</time></trkpt><trkpt lat="42.9086017" lon="13.0351733"><ele>537.0</ele><time>2026-04-26T12:20:45.234Z</time></trkpt><trkpt lat="42.9085683" lon="13.0353667"><ele>533.6666666666666</ele><time>2026-04-26T12:20:46.234Z</time></trkpt><trkpt lat="42.908495" lon="13.0355517"><ele>530.3333333333333</ele><time>2026-04-26T12:20:47.231Z</time></trkpt><trkpt lat="42.9083933" lon="13.0357267"><ele>527.0</ele><time>2026-04-26T12:20:48.235Z</time></trkpt><trkpt lat="42.9083067" lon="13.0359067"><ele>519.0</ele><time>2026-04-26T12:20:49.232Z</time></trkpt><trkpt lat="42.9082517" lon="13.0361067"><ele>511.0</ele><time>2026-04-26T12:20:50.234Z</time></trkpt><trkpt lat="42.90822" lon="13.03632"><ele>503.0</ele><time>2026-04-26T12:20:51.234Z</time></trkpt><trkpt lat="42.9081967" lon="13.0365283"><ele>506.66666666666663</ele><time>2026-04-26T12:20:52.232Z</time></trkpt><trkpt lat="42.9081783" lon="13.0367417"><ele>510.33333333333337</ele><time>2026-04-26T12:20:53.233Z</time></trkpt><trkpt lat="42.90816" lon="13.036955"><ele>514.0</ele><time>2026-04-26T12:20:54.233Z</time></trkpt><trkpt lat="42.9081783" lon="13.0371583"><ele>514.0</ele><time>2026-04-26T12:20:55.235Z</time></trkpt><trkpt lat="42.9082417" lon="13.037345"><ele>514.0</ele><time>2026-04-26T12:20:56.233Z</time></trkpt><trkpt lat="42.90833" lon="13.0375083"><ele>514.0</ele><time>2026-04-26T12:20:57.237Z</time></trkpt><trkpt lat="42.9084433" lon="13.0376833"><ele>528.3333333333334</ele><time>2026-04-26T12:20:58.233Z</time></trkpt><trkpt lat="42.9085667" lon="13.0378683"><ele>542.6666666666666</ele><time>2026-04-26T12:20:59.231Z</time></trkpt><trkpt lat="42.9086933" lon="13.0380617"><ele>557.0</ele><time>2026-04-26T12:21:00.231Z</time></trkpt><trkpt lat="42.9088217" lon="13.0382633"><ele>556.6666666666666</ele><time>2026-04-26T12:21:01.234Z</time></trkpt><trkpt lat="42.9089767" lon="13.038485"><ele>556.3333333333334</ele><time>2026-04-26T12:21:02.235Z</time></trkpt><trkpt lat="42.9091217" lon="13.0387"><ele>556.0</ele><time>2026-04-26T12:21:03.233Z</time></trkpt><trkpt lat="42.909255" lon="13.0389217"><ele>544.3333333333334</ele><time>2026-04-26T12:21:04.234Z</time></trkpt><trkpt lat="42.9093917" lon="13.0391533"><ele>532.6666666666666</ele><time>2026-04-26T12:21:05.237Z</time></trkpt><trkpt lat="42.9095317" lon="13.0393817"><ele>521.0</ele><time>2026-04-26T12:21:06.235Z</time></trkpt><trkpt lat="42.909665" lon="13.0396083"><ele>521.0</ele><time>2026-04-26T12:21:07.234Z</time></trkpt><trkpt lat="42.9098033" lon="13.039835"><ele>521.0</ele><time>2026-04-26T12:21:08.234Z</time></trkpt><trkpt lat="42.9099483" lon="13.0400583"><ele>521.0</ele><time>2026-04-26T12:21:09.234Z</time></trkpt><trkpt lat="42.9100967" lon="13.0402717"><ele>521.3333333333333</ele><time>2026-04-26T12:21:10.235Z</time></trkpt><trkpt lat="42.9102367" lon="13.0404767"><ele>521.6666666666666</ele><time>2026-04-26T12:21:11.231Z</time></trkpt><trkpt lat="42.9103867" lon="13.040675"><ele>522.0</ele><time>2026-04-26T12:21:12.233Z</time></trkpt><trkpt lat="42.9105483" lon="13.040865"><ele>523.0</ele><time>2026-04-26T12:21:13.235Z</time></trkpt><trkpt lat="42.9107133" lon="13.0410517"><ele>524.0</ele><time>2026-04-26T12:21:14.23Z</time></trkpt><trkpt lat="42.9108867" lon="13.0412233"><ele>525.0</ele><time>2026-04-26T12:21:15.235Z</time></trkpt><trkpt lat="42.9110683" lon="13.041375"><ele>525.0</ele><time>2026-04-26T12:21:16.234Z</time></trkpt><trkpt lat="42.9112617" lon="13.04151"><ele>525.0</ele><time>2026-04-26T12:21:17.233Z</time></trkpt><trkpt lat="42.9114633" lon="13.0416317"><ele>525.0</ele><time>2026-04-26T12:21:18.232Z</time></trkpt><trkpt lat="42.9116567" lon="13.0417433"><ele>521.3333333333334</ele><time>2026-04-26T12:21:19.233Z</time></trkpt><trkpt lat="42.9118367" lon="13.0418483"><ele>517.6666666666667</ele><time>2026-04-26T12:21:20.233Z</time></trkpt><trkpt lat="42.91202" lon="13.0419417"><ele>514.0</ele><time>2026-04-26T12:21:21.24Z</time></trkpt><trkpt lat="42.9122017" lon="13.0420183"><ele>514.0</ele><time>2026-04-26T12:21:22.233Z</time></trkpt><trkpt lat="42.9123917" lon="13.0420667"><ele>514.0</ele><time>2026-04-26T12:21:23.236Z</time></trkpt><trkpt lat="42.9125817" lon="13.0421017"><ele>514.0</ele><time>2026-04-26T12:21:24.229Z</time></trkpt><trkpt lat="42.9127783" lon="13.042115"><ele>516.0</ele><time>2026-04-26T12:21:25.233Z</time></trkpt><trkpt lat="42.9129733" lon="13.042115"><ele>518.0</ele><time>2026-04-26T12:21:26.231Z</time></trkpt><trkpt lat="42.9131667" lon="13.0421067"><ele>520.0</ele><time>2026-04-26T12:21:27.231Z</time></trkpt><trkpt lat="42.913345" lon="13.0421"><ele>522.6666666666667</ele><time>2026-04-26T12:21:28.237Z</time></trkpt><trkpt lat="42.9135117" lon="13.0421333"><ele>525.3333333333334</ele><time>2026-04-26T12:21:29.231Z</time></trkpt><trkpt lat="42.9136617" lon="13.0422133"><ele>528.0</ele><time>2026-04-26T12:21:30.233Z</time></trkpt><trkpt lat="42.9137983" lon="13.0423483"><ele>525.0</ele><time>2026-04-26T12:21:31.236Z</time></trkpt><trkpt lat="42.9139533" lon="13.0425567"><ele>522.0</ele><time>2026-04-26T12:21:32.234Z</time></trkpt><trkpt lat="42.9140933" lon="13.0427817"><ele>519.0</ele><time>2026-04-26T12:21:33.237Z</time></trkpt><trkpt lat="42.9142283" lon="13.043005"><ele>521.0</ele><time>2026-04-26T12:21:34.234Z</time></trkpt><trkpt lat="42.914365" lon="13.0432167"><ele>523.0</ele><time>2026-04-26T12:21:35.232Z</time></trkpt><trkpt lat="42.9145217" lon="13.0434383"><ele>525.0</ele><time>2026-04-26T12:21:36.235Z</time></trkpt><trkpt lat="42.9146783" lon="13.043665"><ele>525.0</ele><time>2026-04-26T12:21:37.234Z</time></trkpt><trkpt lat="42.9148333" lon="13.043895"><ele>525.0</ele><time>2026-04-26T12:21:38.236Z</time></trkpt><trkpt lat="42.9149883" lon="13.0441383"><ele>532.0</ele><time>2026-04-26T12:21:39.233Z</time></trkpt><trkpt lat="42.915135" lon="13.0443717"><ele>539.0</ele><time>2026-04-26T12:21:40.234Z</time></trkpt><trkpt lat="42.915275" lon="13.0445983"><ele>546.0</ele><time>2026-04-26T12:21:41.228Z</time></trkpt><trkpt lat="42.9154083" lon="13.0448133"><ele>540.6666666666666</ele><time>2026-04-26T12:21:42.235Z</time></trkpt><trkpt lat="42.9155383" lon="13.0450183"><ele>535.3333333333333</ele><time>2026-04-26T12:21:43.231Z</time></trkpt><trkpt lat="42.9156567" lon="13.0452167"><ele>530.0</ele><time>2026-04-26T12:21:44.238Z</time></trkpt><trkpt lat="42.9157533" lon="13.0454317"><ele>530.0</ele><time>2026-04-26T12:21:45.235Z</time></trkpt><trkpt lat="42.915815" lon="13.0456783"><ele>530.0</ele><time>2026-04-26T12:21:46.234Z</time></trkpt><trkpt lat="42.9158633" lon="13.0459433"><ele>530.0</ele><time>2026-04-26T12:21:47.231Z</time></trkpt><trkpt lat="42.9159133" lon="13.0462167"><ele>533.3333333333333</ele><time>2026-04-26T12:21:48.233Z</time></trkpt><trkpt lat="42.9159633" lon="13.0464883"><ele>536.6666666666666</ele><time>2026-04-26T12:21:49.233Z</time></trkpt><trkpt lat="42.9160083" lon="13.0467567"><ele>540.0</ele><time>2026-04-26T12:21:50.234Z</time></trkpt><trkpt lat="42.9160567" lon="13.0470167"><ele>540.0</ele><time>2026-04-26T12:21:51.24Z</time></trkpt><trkpt lat="42.9161383" lon="13.047255"><ele>540.0</ele><time>2026-04-26T12:21:52.237Z</time></trkpt><trkpt lat="42.916255" lon="13.0474583"><ele>540.0</ele><time>2026-04-26T12:21:53.234Z</time></trkpt><trkpt lat="42.9163817" lon="13.0476217"><ele>536.3333333333334</ele><time>2026-04-26T12:21:54.232Z</time></trkpt><trkpt lat="42.916525" lon="13.0477633"><ele>532.6666666666667</ele><time>2026-04-26T12:21:55.234Z</time></trkpt><trkpt lat="42.9166617" lon="13.0479067"><ele>529.0</ele><time>2026-04-26T12:21:56.232Z</time></trkpt><trkpt lat="42.9167883" lon="13.048085"><ele>530.3333333333334</ele><time>2026-04-26T12:21:57.231Z</time></trkpt><trkpt lat="42.9169083" lon="13.0483"><ele>531.6666666666666</ele><time>2026-04-26T12:21:58.245Z</time></trkpt><trkpt lat="42.9170067" lon="13.0485433"><ele>533.0</ele><time>2026-04-26T12:21:59.231Z</time></trkpt><trkpt lat="42.917105" lon="13.0487883"><ele>533.0</ele><time>2026-04-26T12:22:00.236Z</time></trkpt><trkpt lat="42.9172133" lon="13.049025"><ele>533.0</ele><time>2026-04-26T12:22:01.235Z</time></trkpt><trkpt lat="42.91733" lon="13.0492533"><ele>533.0</ele><time>2026-04-26T12:22:02.232Z</time></trkpt><trkpt lat="42.9174567" lon="13.0494583"><ele>536.6666666666666</ele><time>2026-04-26T12:22:03.233Z</time></trkpt><trkpt lat="42.9175733" lon="13.0496467"><ele>540.3333333333334</ele><time>2026-04-26T12:22:04.234Z</time></trkpt><trkpt lat="42.9176633" lon="13.0498533"><ele>544.0</ele><time>2026-04-26T12:22:05.234Z</time></trkpt><trkpt lat="42.9177033" lon="13.0500917"><ele>544.0</ele><time>2026-04-26T12:22:06.234Z</time></trkpt><trkpt lat="42.9177217" lon="13.050355"><ele>544.0</ele><time>2026-04-26T12:22:07.234Z</time></trkpt><trkpt lat="42.9177467" lon="13.05062"><ele>544.0</ele><time>2026-04-26T12:22:08.233Z</time></trkpt><trkpt lat="42.9177983" lon="13.0508617"><ele>542.3333333333334</ele><time>2026-04-26T12:22:09.236Z</time></trkpt><trkpt lat="42.9178867" lon="13.0510733"><ele>540.6666666666666</ele><time>2026-04-26T12:22:10.232Z</time></trkpt><trkpt lat="42.9179967" lon="13.0512433"><ele>539.0</ele><time>2026-04-26T12:22:11.233Z</time></trkpt><trkpt lat="42.9181283" lon="13.0513867"><ele>539.0</ele><time>2026-04-26T12:22:12.233Z</time></trkpt><trkpt lat="42.9182817" lon="13.05152"><ele>539.0</ele><time>2026-04-26T12:22:13.232Z</time></trkpt><trkpt lat="42.9184467" lon="13.0516467"><ele>539.0</ele><time>2026-04-26T12:22:14.233Z</time></trkpt><trkpt lat="42.9186" lon="13.0517817"><ele>549.6666666666666</ele><time>2026-04-26T12:22:15.232Z</time></trkpt><trkpt lat="42.9187367" lon="13.051925"><ele>560.3333333333334</ele><time>2026-04-26T12:22:16.233Z</time></trkpt><trkpt lat="42.9188867" lon="13.0520617"><ele>571.0</ele><time>2026-04-26T12:22:17.231Z</time></trkpt><trkpt lat="42.919025" lon="13.052195"><ele>571.0</ele><time>2026-04-26T12:22:18.232Z</time></trkpt><trkpt lat="42.9191517" lon="13.0523183"><ele>571.0</ele><time>2026-04-26T12:22:19.235Z</time></trkpt><trkpt lat="42.91925" lon="13.0524533"><ele>571.0</ele><time>2026-04-26T12:22:20.232Z</time></trkpt><trkpt lat="42.9192917" lon="13.0526267"><ele>571.0</ele><time>2026-04-26T12:22:21.234Z</time></trkpt><trkpt lat="42.9193067" lon="13.052835"><ele>576.3333333333334</ele><time>2026-04-26T12:22:22.231Z</time></trkpt><trkpt lat="42.919325" lon="13.0530717"><ele>581.6666666666666</ele><time>2026-04-26T12:22:23.23Z</time></trkpt><trkpt lat="42.9193367" lon="13.053325"><ele>587.0</ele><time>2026-04-26T12:22:24.233Z</time></trkpt><trkpt lat="42.9193783" lon="13.0535883"><ele>587.0</ele><time>2026-04-26T12:22:25.233Z</time></trkpt><trkpt lat="42.9194217" lon="13.0538383"><ele>587.0</ele><time>2026-04-26T12:22:26.233Z</time></trkpt><trkpt lat="42.9194883" lon="13.05408"><ele>587.0</ele><time>2026-04-26T12:22:27.234Z</time></trkpt><trkpt lat="42.919565" lon="13.0543083"><ele>581.6666666666666</ele><time>2026-04-26T12:22:28.232Z</time></trkpt><trkpt lat="42.9196567" lon="13.0545267"><ele>576.3333333333334</ele><time>2026-04-26T12:22:29.231Z</time></trkpt><trkpt lat="42.91976" lon="13.05474"><ele>571.0</ele><time>2026-04-26T12:22:30.232Z</time></trkpt><trkpt lat="42.9198817" lon="13.0549517"><ele>568.3333333333334</ele><time>2026-04-26T12:22:31.235Z</time></trkpt><trkpt lat="42.920005" lon="13.0551617"><ele>565.6666666666666</ele><time>2026-04-26T12:22:32.232Z</time></trkpt><trkpt lat="42.9201317" lon="13.0553617"><ele>563.0</ele><time>2026-04-26T12:22:33.236Z</time></trkpt><trkpt lat="42.9202483" lon="13.0555633"><ele>563.0</ele><time>2026-04-26T12:22:34.234Z</time></trkpt><trkpt lat="42.9203633" lon="13.0557667"><ele>563.0</ele><time>2026-04-26T12:22:35.233Z</time></trkpt><trkpt lat="42.92048" lon="13.055965"><ele>563.0</ele><time>2026-04-26T12:22:36.235Z</time></trkpt><trkpt lat="42.9206283" lon="13.0561217"><ele>558.0</ele><time>2026-04-26T12:22:37.235Z</time></trkpt><trkpt lat="42.9207867" lon="13.05624"><ele>553.0</ele><time>2026-04-26T12:22:38.234Z</time></trkpt><trkpt lat="42.9209533" lon="13.056325"><ele>548.0</ele><time>2026-04-26T12:22:39.233Z</time></trkpt><trkpt lat="42.92113" lon="13.0564017"><ele>548.0</ele><time>2026-04-26T12:22:40.232Z</time></trkpt><trkpt lat="42.9213183" lon="13.0564733"><ele>548.0</ele><time>2026-04-26T12:22:41.233Z</time></trkpt><trkpt lat="42.9215117" lon="13.0565483"><ele>548.0</ele><time>2026-04-26T12:22:42.232Z</time></trkpt><trkpt lat="42.9217" lon="13.0566367"><ele>545.6666666666666</ele><time>2026-04-26T12:22:43.233Z</time></trkpt><trkpt lat="42.921875" lon="13.0567217"><ele>543.3333333333334</ele><time>2026-04-26T12:22:44.233Z</time></trkpt><trkpt lat="42.9220533" lon="13.0568133"><ele>541.0</ele><time>2026-04-26T12:22:45.231Z</time></trkpt><trkpt lat="42.92223" lon="13.05696"><ele>541.0</ele><time>2026-04-26T12:22:46.231Z</time></trkpt><trkpt lat="42.9223467" lon="13.0570867"><ele>541.0</ele><time>2026-04-26T12:22:47.231Z</time></trkpt><trkpt lat="42.9224667" lon="13.057245"><ele>541.0</ele><time>2026-04-26T12:22:48.232Z</time></trkpt><trkpt lat="42.9225967" lon="13.0574217"><ele>546.3333333333334</ele><time>2026-04-26T12:22:49.231Z</time></trkpt><trkpt lat="42.922695" lon="13.05763"><ele>551.6666666666666</ele><time>2026-04-26T12:22:50.233Z</time></trkpt><trkpt lat="42.922785" lon="13.0578617"><ele>557.0</ele><time>2026-04-26T12:22:51.233Z</time></trkpt><trkpt lat="42.92287" lon="13.0580883"><ele>554.0</ele><time>2026-04-26T12:22:52.232Z</time></trkpt><trkpt lat="42.9229617" lon="13.0583083"><ele>551.0</ele><time>2026-04-26T12:22:53.235Z</time></trkpt><trkpt lat="42.9230817" lon="13.0585033"><ele>548.0</ele><time>2026-04-26T12:22:54.237Z</time></trkpt><trkpt lat="42.9232233" lon="13.0586683"><ele>548.0</ele><time>2026-04-26T12:22:55.232Z</time></trkpt><trkpt lat="42.923385" lon="13.05882"><ele>548.0</ele><time>2026-04-26T12:22:56.235Z</time></trkpt><trkpt lat="42.923555" lon="13.05897"><ele>548.0</ele><time>2026-04-26T12:22:57.231Z</time></trkpt><trkpt lat="42.9237267" lon="13.05912"><ele>550.0</ele><time>2026-04-26T12:22:58.231Z</time></trkpt><trkpt lat="42.923895" lon="13.05927"><ele>552.0</ele><time>2026-04-26T12:22:59.235Z</time></trkpt><trkpt lat="42.9240717" lon="13.0594117"><ele>554.0</ele><time>2026-04-26T12:23:00.237Z</time></trkpt><trkpt lat="42.9242467" lon="13.0595483"><ele>561.3333333333333</ele><time>2026-04-26T12:23:01.233Z</time></trkpt><trkpt lat="42.9244283" lon="13.059665"><ele>568.6666666666666</ele><time>2026-04-26T12:23:02.233Z</time></trkpt><trkpt lat="42.9246067" lon="13.059755"><ele>576.0</ele><time>2026-04-26T12:23:03.234Z</time></trkpt><trkpt lat="42.9247917" lon="13.059835"><ele>576.0</ele><time>2026-04-26T12:23:04.232Z</time></trkpt><trkpt lat="42.9249833" lon="13.0599317"><ele>576.0</ele><time>2026-04-26T12:23:05.242Z</time></trkpt><trkpt lat="42.9251667" lon="13.0600517"><ele>576.0</ele><time>2026-04-26T12:23:06.234Z</time></trkpt><trkpt lat="42.92535" lon="13.0601933"><ele>573.3333333333334</ele><time>2026-04-26T12:23:07.232Z</time></trkpt><trkpt lat="42.9255267" lon="13.060355"><ele>570.6666666666667</ele><time>2026-04-26T12:23:08.236Z</time></trkpt><trkpt lat="42.9256983" lon="13.0605383"><ele>568.0</ele><time>2026-04-26T12:23:09.236Z</time></trkpt><trkpt lat="42.9258633" lon="13.0607283"><ele>589.0</ele><time>2026-04-26T12:23:10.233Z</time></trkpt><trkpt lat="42.926025" lon="13.06091"><ele>610.0</ele><time>2026-04-26T12:23:11.232Z</time></trkpt><trkpt lat="42.9261817" lon="13.0610767"><ele>631.0</ele><time>2026-04-26T12:23:12.234Z</time></trkpt><trkpt lat="42.926325" lon="13.061225"><ele>631.0</ele><time>2026-04-26T12:23:13.233Z</time></trkpt><trkpt lat="42.92646" lon="13.0613683"><ele>631.0</ele><time>2026-04-26T12:23:14.234Z</time></trkpt><trkpt lat="42.9265833" lon="13.061505"><ele>631.0</ele><time>2026-04-26T12:23:15.233Z</time></trkpt><trkpt lat="42.9267017" lon="13.0616417"><ele>640.3333333333334</ele><time>2026-04-26T12:23:16.231Z</time></trkpt><trkpt lat="42.926815" lon="13.0617817"><ele>649.6666666666666</ele><time>2026-04-26T12:23:17.229Z</time></trkpt><trkpt lat="42.9269317" lon="13.06192"><ele>659.0</ele><time>2026-04-26T12:23:18.234Z</time></trkpt><trkpt lat="42.9270433" lon="13.062075"><ele>659.0</ele><time>2026-04-26T12:23:19.233Z</time></trkpt><trkpt lat="42.9271617" lon="13.0622133"><ele>659.0</ele><time>2026-04-26T12:23:20.233Z</time></trkpt><trkpt lat="42.9272767" lon="13.062355"><ele>659.0</ele><time>2026-04-26T12:23:21.235Z</time></trkpt><trkpt lat="42.92739" lon="13.0624983"><ele>659.0</ele><time>2026-04-26T12:23:22.233Z</time></trkpt><trkpt lat="42.9275067" lon="13.0626583"><ele>659.0</ele><time>2026-04-26T12:23:23.231Z</time></trkpt><trkpt lat="42.927625" lon="13.0628333"><ele>659.0</ele><time>2026-04-26T12:23:24.23Z</time></trkpt><trkpt lat="42.9277367" lon="13.0630017"><ele>659.0</ele><time>2026-04-26T12:23:25.231Z</time></trkpt><trkpt lat="42.9278533" lon="13.06324"><ele>659.0</ele><time>2026-04-26T12:23:26.234Z</time></trkpt><trkpt lat="42.9277417" lon="13.063805"><ele>659.0</ele><time>2026-04-26T12:23:27.237Z</time></trkpt><trkpt lat="42.9275967" lon="13.0645"><ele>659.0</ele><time>2026-04-26T12:23:28.234Z</time></trkpt><trkpt lat="42.927455" lon="13.0649217"><ele>659.0</ele><time>2026-04-26T12:23:29.232Z</time></trkpt><trkpt lat="42.9275517" lon="13.0651883"><ele>659.0</ele><time>2026-04-26T12:23:30.231Z</time></trkpt><trkpt lat="42.9276033" lon="13.06542"><ele>659.0</ele><time>2026-04-26T12:23:31.234Z</time></trkpt><trkpt lat="42.9276083" lon="13.0656517"><ele>659.0</ele><time>2026-04-26T12:23:32.237Z</time></trkpt><trkpt lat="42.9276183" lon="13.06588"><ele>659.0</ele><time>2026-04-26T12:23:33.232Z</time></trkpt><trkpt lat="42.927655" lon="13.0660933"><ele>659.0</ele><time>2026-04-26T12:23:34.233Z</time></trkpt><trkpt lat="42.92771" lon="13.0662917"><ele>659.0</ele><time>2026-04-26T12:23:35.231Z</time></trkpt><trkpt lat="42.927775" lon="13.0664667"><ele>641.6666666666666</ele><time>2026-04-26T12:23:36.234Z</time></trkpt><trkpt lat="42.92788" lon="13.0666117"><ele>624.3333333333334</ele><time>2026-04-26T12:23:37.235Z</time></trkpt><trkpt lat="42.9280117" lon="13.066745"><ele>607.0</ele><time>2026-04-26T12:23:38.234Z</time></trkpt><trkpt lat="42.9281567" lon="13.0668917"><ele>607.0</ele><time>2026-04-26T12:23:39.237Z</time></trkpt><trkpt lat="42.9282833" lon="13.06709"><ele>607.0</ele><time>2026-04-26T12:23:40.234Z</time></trkpt><trkpt lat="42.928415" lon="13.0673333"><ele>607.0</ele><time>2026-04-26T12:23:41.233Z</time></trkpt><trkpt lat="42.9285733" lon="13.067605"><ele>621.0</ele><time>2026-04-26T12:23:42.231Z</time></trkpt><trkpt lat="42.9287467" lon="13.0679083"><ele>635.0</ele><time>2026-04-26T12:23:43.233Z</time></trkpt><trkpt lat="42.9289267" lon="13.06823"><ele>622.0</ele><time>2026-04-26T12:23:44.231Z</time></trkpt><trkpt lat="42.929105" lon="13.0685283"><ele>609.0</ele><time>2026-04-26T12:23:45.237Z</time></trkpt><trkpt lat="42.92926" lon="13.0687867"><ele>613.0</ele><time>2026-04-26T12:23:46.24Z</time></trkpt><trkpt lat="42.9293783" lon="13.0689783"><ele>617.0</ele><time>2026-04-26T12:23:47.234Z</time></trkpt><trkpt lat="42.929485" lon="13.069155"><ele>621.0</ele><time>2026-04-26T12:23:48.234Z</time></trkpt><trkpt lat="42.9295983" lon="13.0693267"><ele>621.0</ele><time>2026-04-26T12:23:49.233Z</time></trkpt><trkpt lat="42.9297333" lon="13.0694783"><ele>621.0</ele><time>2026-04-26T12:23:50.234Z</time></trkpt><trkpt lat="42.9298767" lon="13.0696117"><ele>621.0</ele><time>2026-04-26T12:23:51.235Z</time></trkpt><trkpt lat="42.930035" lon="13.06972"><ele>622.6666666666666</ele><time>2026-04-26T12:23:52.232Z</time></trkpt><trkpt lat="42.9302017" lon="13.06983"><ele>624.3333333333333</ele><time>2026-04-26T12:23:53.231Z</time></trkpt><trkpt lat="42.9303583" lon="13.069965"><ele>626.0</ele><time>2026-04-26T12:23:54.234Z</time></trkpt><trkpt lat="42.9304867" lon="13.0701467"><ele>626.0</ele><time>2026-04-26T12:23:55.234Z</time></trkpt><trkpt lat="42.9305883" lon="13.070385"><ele>626.0</ele><time>2026-04-26T12:23:56.232Z</time></trkpt><trkpt lat="42.93068" lon="13.0706283"><ele>626.0</ele><time>2026-04-26T12:23:57.235Z</time></trkpt><trkpt lat="42.9307733" lon="13.070885"><ele>628.3333333333333</ele><time>2026-04-26T12:23:58.234Z</time></trkpt><trkpt lat="42.930885" lon="13.071145"><ele>630.6666666666666</ele><time>2026-04-26T12:23:59.235Z</time></trkpt><trkpt lat="42.9310267" lon="13.07139"><ele>633.0</ele><time>2026-04-26T12:24:00.234Z</time></trkpt><trkpt lat="42.9311883" lon="13.071635"><ele>624.0</ele><time>2026-04-26T12:24:01.233Z</time></trkpt><trkpt lat="42.9313633" lon="13.0718817"><ele>615.0</ele><time>2026-04-26T12:24:02.232Z</time></trkpt><trkpt lat="42.9315233" lon="13.0721083"><ele>615.0</ele><time>2026-04-26T12:24:03.232Z</time></trkpt><trkpt lat="42.9316817" lon="13.07232"><ele>615.0</ele><time>2026-04-26T12:24:04.233Z</time></trkpt><trkpt lat="42.9318283" lon="13.0725167"><ele>615.0</ele><time>2026-04-26T12:24:05.233Z</time></trkpt><trkpt lat="42.9319817" lon="13.072685"><ele>618.0</ele><time>2026-04-26T12:24:06.233Z</time></trkpt><trkpt lat="42.93215" lon="13.072825"><ele>621.0</ele><time>2026-04-26T12:24:07.234Z</time></trkpt><trkpt lat="42.932315" lon="13.072945"><ele>624.0</ele><time>2026-04-26T12:24:08.234Z</time></trkpt><trkpt lat="42.93248" lon="13.073055"><ele>635.6666666666666</ele><time>2026-04-26T12:24:09.235Z</time></trkpt><trkpt lat="42.9326283" lon="13.0731683"><ele>647.3333333333333</ele><time>2026-04-26T12:24:10.232Z</time></trkpt><trkpt lat="42.9327517" lon="13.0733033"><ele>659.0</ele><time>2026-04-26T12:24:11.231Z</time></trkpt><trkpt lat="42.9328467" lon="13.07346"><ele>659.0</ele><time>2026-04-26T12:24:12.24Z</time></trkpt><trkpt lat="42.9329117" lon="13.0736383"><ele>659.0</ele><time>2026-04-26T12:24:13.233Z</time></trkpt><trkpt lat="42.9329517" lon="13.0738367"><ele>659.0</ele><time>2026-04-26T12:24:14.235Z</time></trkpt><trkpt lat="42.9329933" lon="13.0740383"><ele>658.0</ele><time>2026-04-26T12:24:15.234Z</time></trkpt><trkpt lat="42.9330267" lon="13.0742517"><ele>657.0</ele><time>2026-04-26T12:24:16.232Z</time></trkpt><trkpt lat="42.9330433" lon="13.074465"><ele>656.0</ele><time>2026-04-26T12:24:17.233Z</time></trkpt><trkpt lat="42.93306" lon="13.07468"><ele>656.0</ele><time>2026-04-26T12:24:18.233Z</time></trkpt><trkpt lat="42.9330833" lon="13.0749033"><ele>656.0</ele><time>2026-04-26T12:24:19.232Z</time></trkpt><trkpt lat="42.9331067" lon="13.0751333"><ele>656.0</ele><time>2026-04-26T12:24:20.231Z</time></trkpt><trkpt lat="42.9331333" lon="13.0753617"><ele>647.3333333333333</ele><time>2026-04-26T12:24:21.235Z</time></trkpt><trkpt lat="42.933165" lon="13.0755883"><ele>638.6666666666666</ele><time>2026-04-26T12:24:22.233Z</time></trkpt><trkpt lat="42.9331917" lon="13.07581"><ele>630.0</ele><time>2026-04-26T12:24:23.234Z</time></trkpt><trkpt lat="42.933235" lon="13.0760317"><ele>628.5</ele><time>2026-04-26T12:24:24.231Z</time></trkpt><trkpt lat="42.93326" lon="13.0762383"><ele>627.0</ele><time>2026-04-26T12:24:25.232Z</time></trkpt><trkpt lat="42.933275" lon="13.0764333"><ele>625.5</ele><time>2026-04-26T12:24:26.231Z</time></trkpt><trkpt lat="42.93327" lon="13.0766233"><ele>624.0</ele><time>2026-04-26T12:24:27.234Z</time></trkpt><trkpt lat="42.9332517" lon="13.076805"><ele>622.25</ele><time>2026-04-26T12:24:28.231Z</time></trkpt><trkpt lat="42.933235" lon="13.0769783"><ele>620.5</ele><time>2026-04-26T12:24:29.232Z</time></trkpt><trkpt lat="42.9332083" lon="13.077145"><ele>618.75</ele><time>2026-04-26T12:24:30.231Z</time></trkpt><trkpt lat="42.9331767" lon="13.0773117"><ele>617.0</ele><time>2026-04-26T12:24:31.232Z</time></trkpt><trkpt lat="42.9331417" lon="13.0774767"><ele>615.0</ele><time>2026-04-26T12:24:32.235Z</time></trkpt><trkpt lat="42.9330983" lon="13.0776417"><ele>613.0</ele><time>2026-04-26T12:24:33.236Z</time></trkpt><trkpt lat="42.93306" lon="13.0778067"><ele>611.0</ele><time>2026-04-26T12:24:34.231Z</time></trkpt><trkpt lat="42.9330183" lon="13.07796"><ele>609.0</ele><time>2026-04-26T12:24:35.233Z</time></trkpt><trkpt lat="42.932975" lon="13.0781167"><ele>608.25</ele><time>2026-04-26T12:24:36.237Z</time></trkpt><trkpt lat="42.93293" lon="13.07827"><ele>607.5</ele><time>2026-04-26T12:24:37.234Z</time></trkpt><trkpt lat="42.9328933" lon="13.0784167"><ele>606.75</ele><time>2026-04-26T12:24:38.232Z</time></trkpt><trkpt lat="42.9328533" lon="13.0785633"><ele>606.0</ele><time>2026-04-26T12:24:39.232Z</time></trkpt><trkpt lat="42.9328167" lon="13.0787067"><ele>606.0</ele><time>2026-04-26T12:24:40.234Z</time></trkpt><trkpt lat="42.9327817" lon="13.0788583"><ele>606.0</ele><time>2026-04-26T12:24:41.233Z</time></trkpt><trkpt lat="42.932745" lon="13.079015"><ele>606.0</ele><time>2026-04-26T12:24:42.234Z</time></trkpt><trkpt lat="42.9327083" lon="13.079165"><ele>606.0</ele><time>2026-04-26T12:24:43.235Z</time></trkpt><trkpt lat="42.9326733" lon="13.0793117"><ele>605.8</ele><time>2026-04-26T12:24:44.232Z</time></trkpt><trkpt lat="42.9326417" lon="13.079445"><ele>605.6</ele><time>2026-04-26T12:24:45.234Z</time></trkpt><trkpt lat="42.9326067" lon="13.0795833"><ele>605.4</ele><time>2026-04-26T12:24:46.234Z</time></trkpt><trkpt lat="42.932575" lon="13.0797217"><ele>605.2</ele><time>2026-04-26T12:24:47.233Z</time></trkpt><trkpt lat="42.9325467" lon="13.0798533"><ele>605.0</ele><time>2026-04-26T12:24:48.232Z</time></trkpt><trkpt lat="42.932515" lon="13.0799817"><ele>605.0</ele><time>2026-04-26T12:24:49.235Z</time></trkpt><trkpt lat="42.9324867" lon="13.080115"><ele>605.0</ele><time>2026-04-26T12:24:50.235Z</time></trkpt><trkpt lat="42.93245" lon="13.0802517"><ele>605.0</ele><time>2026-04-26T12:24:51.234Z</time></trkpt><trkpt lat="42.9324183" lon="13.0803933"><ele>605.0</ele><time>2026-04-26T12:24:52.232Z</time></trkpt><trkpt lat="42.932385" lon="13.0805333"><ele>605.0</ele><time>2026-04-26T12:24:53.234Z</time></trkpt><trkpt lat="42.93235" lon="13.0806667"><ele>605.0</ele><time>2026-04-26T12:24:54.235Z</time></trkpt><trkpt lat="42.9323167" lon="13.0808"><ele>605.0</ele><time>2026-04-26T12:24:55.235Z</time></trkpt><trkpt lat="42.93229" lon="13.08094"><ele>605.0</ele><time>2026-04-26T12:24:56.232Z</time></trkpt><trkpt lat="42.9322583" lon="13.0810667"><ele>605.0</ele><time>2026-04-26T12:24:57.234Z</time></trkpt><trkpt lat="42.9322283" lon="13.0812033"><ele>605.0</ele><time>2026-04-26T12:24:58.232Z</time></trkpt><trkpt lat="42.9322017" lon="13.08135"><ele>605.0</ele><time>2026-04-26T12:24:59.228Z</time></trkpt><trkpt lat="42.932175" lon="13.0815"><ele>605.0</ele><time>2026-04-26T12:25:00.234Z</time></trkpt><trkpt lat="42.9321367" lon="13.08164"><ele>605.0</ele><time>2026-04-26T12:25:01.235Z</time></trkpt><trkpt lat="42.9320967" lon="13.0817867"><ele>605.0</ele><time>2026-04-26T12:25:02.236Z</time></trkpt><trkpt lat="42.9320583" lon="13.081935"><ele>605.5</ele><time>2026-04-26T12:25:03.234Z</time></trkpt><trkpt lat="42.93202" lon="13.0820883"><ele>606.0</ele><time>2026-04-26T12:25:04.233Z</time></trkpt><trkpt lat="42.9319883" lon="13.0822367"><ele>606.5</ele><time>2026-04-26T12:25:05.229Z</time></trkpt><trkpt lat="42.931955" lon="13.0823867"><ele>607.0</ele><time>2026-04-26T12:25:06.234Z</time></trkpt><trkpt lat="42.93192" lon="13.0825367"><ele>607.75</ele><time>2026-04-26T12:25:07.231Z</time></trkpt><trkpt lat="42.931885" lon="13.0826883"><ele>608.5</ele><time>2026-04-26T12:25:08.234Z</time></trkpt><trkpt lat="42.931845" lon="13.08284"><ele>609.25</ele><time>2026-04-26T12:25:09.235Z</time></trkpt><trkpt lat="42.9318067" lon="13.0829917"><ele>610.0</ele><time>2026-04-26T12:25:10.231Z</time></trkpt><trkpt lat="42.9317683" lon="13.083145"><ele>610.0</ele><time>2026-04-26T12:25:11.23Z</time></trkpt><trkpt lat="42.93173" lon="13.0833017"><ele>610.0</ele><time>2026-04-26T12:25:12.232Z</time></trkpt><trkpt lat="42.9316917" lon="13.0834567"><ele>610.0</ele><time>2026-04-26T12:25:13.235Z</time></trkpt><trkpt lat="42.9316517" lon="13.0836083"><ele>610.0</ele><time>2026-04-26T12:25:14.232Z</time></trkpt><trkpt lat="42.931605" lon="13.08375"><ele>610.0</ele><time>2026-04-26T12:25:15.233Z</time></trkpt><trkpt lat="42.9315833" lon="13.0838867"><ele>610.0</ele><time>2026-04-26T12:25:16.231Z</time></trkpt><trkpt lat="42.93158" lon="13.084015"><ele>610.0</ele><time>2026-04-26T12:25:17.234Z</time></trkpt><trkpt lat="42.9316083" lon="13.0841317"><ele>610.0</ele><time>2026-04-26T12:25:18.236Z</time></trkpt><trkpt lat="42.9316567" lon="13.0842283"><ele>610.0</ele><time>2026-04-26T12:25:19.233Z</time></trkpt><trkpt lat="42.93172" lon="13.08431"><ele>609.6666666666667</ele><time>2026-04-26T12:25:20.233Z</time></trkpt><trkpt lat="42.9317867" lon="13.0843817"><ele>609.3333333333334</ele><time>2026-04-26T12:25:21.235Z</time></trkpt><trkpt lat="42.9318617" lon="13.08445"><ele>609.0</ele><time>2026-04-26T12:25:22.234Z</time></trkpt><trkpt lat="42.931945" lon="13.0845117"><ele>608.6666666666666</ele><time>2026-04-26T12:25:23.234Z</time></trkpt><trkpt lat="42.9320233" lon="13.0845733"><ele>608.3333333333333</ele><time>2026-04-26T12:25:24.233Z</time></trkpt><trkpt lat="42.9320933" lon="13.0846283"><ele>608.0</ele><time>2026-04-26T12:25:25.231Z</time></trkpt><trkpt lat="42.9321733" lon="13.08468"><ele>608.0</ele><time>2026-04-26T12:25:27.234Z</time></trkpt><trkpt lat="42.93225" lon="13.0846217"><ele>608.0</ele><time>2026-04-26T12:25:30.232Z</time></trkpt><trkpt lat="42.932325" lon="13.084515"><ele>608.0</ele><time>2026-04-26T12:25:32.232Z</time></trkpt><trkpt lat="42.9323733" lon="13.0844283"><ele>608.0</ele><time>2026-04-26T12:25:33.232Z</time></trkpt><trkpt lat="42.9324383" lon="13.08431"><ele>608.0</ele><time>2026-04-26T12:25:34.23Z</time></trkpt><trkpt lat="42.93251" lon="13.084185"><ele>609.5</ele><time>2026-04-26T12:25:35.233Z</time></trkpt><trkpt lat="42.9326017" lon="13.0840317"><ele>611.0</ele><time>2026-04-26T12:25:36.233Z</time></trkpt><trkpt lat="42.932685" lon="13.0838817"><ele>612.5</ele><time>2026-04-26T12:25:37.234Z</time></trkpt><trkpt lat="42.93278" lon="13.0837217"><ele>614.0</ele><time>2026-04-26T12:25:38.231Z</time></trkpt><trkpt lat="42.9328733" lon="13.083555"><ele>614.0</ele><time>2026-04-26T12:25:39.232Z</time></trkpt><trkpt lat="42.9329683" lon="13.08339"><ele>614.0</ele><time>2026-04-26T12:25:40.232Z</time></trkpt><trkpt lat="42.9330667" lon="13.0832233"><ele>614.0</ele><time>2026-04-26T12:25:41.233Z</time></trkpt><trkpt lat="42.9331617" lon="13.0830517"><ele>612.6666666666666</ele><time>2026-04-26T12:25:42.231Z</time></trkpt><trkpt lat="42.9332617" lon="13.08288"><ele>611.3333333333334</ele><time>2026-04-26T12:25:43.233Z</time></trkpt><trkpt lat="42.933365" lon="13.0827133"><ele>610.0</ele><time>2026-04-26T12:25:44.234Z</time></trkpt><trkpt lat="42.9334633" lon="13.08255"><ele>610.25</ele><time>2026-04-26T12:25:45.235Z</time></trkpt><trkpt lat="42.9335617" lon="13.0824"><ele>610.5</ele><time>2026-04-26T12:25:46.232Z</time></trkpt><trkpt lat="42.93367" lon="13.082275"><ele>610.75</ele><time>2026-04-26T12:25:47.231Z</time></trkpt><trkpt lat="42.9337883" lon="13.082175"><ele>611.0</ele><time>2026-04-26T12:25:48.233Z</time></trkpt><trkpt lat="42.93391" lon="13.0820967"><ele>611.0</ele><time>2026-04-26T12:25:49.232Z</time></trkpt><trkpt lat="42.9340383" lon="13.08205"><ele>611.0</ele><time>2026-04-26T12:25:50.231Z</time></trkpt><trkpt lat="42.934175" lon="13.0820333"><ele>611.0</ele><time>2026-04-26T12:25:51.236Z</time></trkpt><trkpt lat="42.934295" lon="13.082035"><ele>611.0</ele><time>2026-04-26T12:25:52.23Z</time></trkpt><trkpt lat="42.93439" lon="13.0820417"><ele>611.0</ele><time>2026-04-26T12:25:53.232Z</time></trkpt><trkpt lat="42.9344667" lon="13.0820483"><ele>611.0</ele><time>2026-04-26T12:25:54.244Z</time></trkpt><trkpt lat="42.9345617" lon="13.0820867"><ele>611.0</ele><time>2026-04-26T12:25:56.231Z</time></trkpt><trkpt lat="42.9346033" lon="13.082165"><ele>611.0</ele><time>2026-04-26T12:25:59.234Z</time></trkpt><trkpt lat="42.9346683" lon="13.0822083"><ele>611.0</ele><time>2026-04-26T12:26:02.233Z</time></trkpt><trkpt lat="42.93474" lon="13.0822033"><ele>611.0</ele><time>2026-04-26T12:28:46.233Z</time></trkpt><trkpt lat="42.934835" lon="13.0821767"><ele>611.0</ele><time>2026-04-26T12:28:49.235Z</time></trkpt><trkpt lat="42.9349017" lon="13.0821467"><ele>611.0</ele><time>2026-04-26T12:28:51.236Z</time></trkpt><trkpt lat="42.9349767" lon="13.0820967"><ele>611.0</ele><time>2026-04-26T12:28:53.232Z</time></trkpt><trkpt lat="42.9351117" lon="13.0820617"><ele>611.0</ele><time>2026-04-26T12:28:55.231Z</time></trkpt><trkpt lat="42.9351867" lon="13.0820583"><ele>611.0</ele><time>2026-04-26T12:28:56.231Z</time></trkpt><trkpt lat="42.935265" lon="13.08206"><ele>611.0</ele><time>2026-04-26T12:28:57.235Z</time></trkpt><trkpt lat="42.9353583" lon="13.0820617"><ele>611.6</ele><time>2026-04-26T12:28:58.234Z</time></trkpt><trkpt lat="42.9354567" lon="13.0820633"><ele>612.2</ele><time>2026-04-26T12:28:59.235Z</time></trkpt><trkpt lat="42.935555" lon="13.0820633"><ele>612.8</ele><time>2026-04-26T12:29:00.231Z</time></trkpt><trkpt lat="42.9356567" lon="13.0820633"><ele>613.4</ele><time>2026-04-26T12:29:01.232Z</time></trkpt><trkpt lat="42.93576" lon="13.0820617"><ele>614.0</ele><time>2026-04-26T12:29:02.234Z</time></trkpt><trkpt lat="42.9358617" lon="13.08206"><ele>614.6</ele><time>2026-04-26T12:29:03.239Z</time></trkpt><trkpt lat="42.9359667" lon="13.0820533"><ele>615.2</ele><time>2026-04-26T12:29:04.233Z</time></trkpt><trkpt lat="42.9360733" lon="13.0820517"><ele>615.8000000000001</ele><time>2026-04-26T12:29:05.232Z</time></trkpt><trkpt lat="42.93619" lon="13.08205"><ele>616.4</ele><time>2026-04-26T12:29:06.233Z</time></trkpt><trkpt lat="42.93631" lon="13.0820533"><ele>617.0</ele><time>2026-04-26T12:29:07.232Z</time></trkpt><trkpt lat="42.9364483" lon="13.0820667"><ele>617.0</ele><time>2026-04-26T12:29:08.229Z</time></trkpt><trkpt lat="42.936585" lon="13.08208"><ele>617.0</ele><time>2026-04-26T12:29:09.233Z</time></trkpt><trkpt lat="42.9367283" lon="13.0820867"><ele>617.0</ele><time>2026-04-26T12:29:10.232Z</time></trkpt><trkpt lat="42.9368733" lon="13.08209"><ele>617.0</ele><time>2026-04-26T12:29:11.234Z</time></trkpt><trkpt lat="42.9370217" lon="13.0820983"><ele>620.0</ele><time>2026-04-26T12:29:12.232Z</time></trkpt><trkpt lat="42.9371817" lon="13.0821083"><ele>623.0</ele><time>2026-04-26T12:29:13.233Z</time></trkpt><trkpt lat="42.937345" lon="13.082125"><ele>626.0</ele><time>2026-04-26T12:29:14.233Z</time></trkpt><trkpt lat="42.93751" lon="13.0821517"><ele>629.0</ele><time>2026-04-26T12:29:15.235Z</time></trkpt><trkpt lat="42.9376667" lon="13.0821767"><ele>632.0</ele><time>2026-04-26T12:29:16.231Z</time></trkpt><trkpt lat="42.9378233" lon="13.0822067"><ele>635.0</ele><time>2026-04-26T12:29:17.233Z</time></trkpt><trkpt lat="42.93797" lon="13.082235"><ele>635.0</ele><time>2026-04-26T12:29:18.233Z</time></trkpt><trkpt lat="42.938115" lon="13.0822617"><ele>635.0</ele><time>2026-04-26T12:29:19.234Z</time></trkpt><trkpt lat="42.9382533" lon="13.082285"><ele>635.0</ele><time>2026-04-26T12:29:20.233Z</time></trkpt><trkpt lat="42.9383933" lon="13.0823133"><ele>635.0</ele><time>2026-04-26T12:29:21.236Z</time></trkpt><trkpt lat="42.938535" lon="13.0823483"><ele>634.0</ele><time>2026-04-26T12:29:22.235Z</time></trkpt><trkpt lat="42.938675" lon="13.0823783"><ele>633.0</ele><time>2026-04-26T12:29:23.233Z</time></trkpt><trkpt lat="42.938825" lon="13.0824183"><ele>632.0</ele><time>2026-04-26T12:29:24.232Z</time></trkpt><trkpt lat="42.93898" lon="13.0824633"><ele>632.0</ele><time>2026-04-26T12:29:25.232Z</time></trkpt><trkpt lat="42.9391417" lon="13.0825167"><ele>632.0</ele><time>2026-04-26T12:29:26.234Z</time></trkpt><trkpt lat="42.9393133" lon="13.0825767"><ele>632.0</ele><time>2026-04-26T12:29:27.237Z</time></trkpt><trkpt lat="42.9394767" lon="13.08264"><ele>632.3333333333333</ele><time>2026-04-26T12:29:28.233Z</time></trkpt><trkpt lat="42.9396383" lon="13.082715"><ele>632.6666666666666</ele><time>2026-04-26T12:29:29.236Z</time></trkpt><trkpt lat="42.9398" lon="13.0827967"><ele>633.0</ele><time>2026-04-26T12:29:30.234Z</time></trkpt><trkpt lat="42.939965" lon="13.0828733"><ele>633.6666666666666</ele><time>2026-04-26T12:29:31.233Z</time></trkpt><trkpt lat="42.9401267" lon="13.0829467"><ele>634.3333333333333</ele><time>2026-04-26T12:29:32.235Z</time></trkpt><trkpt lat="42.9402883" lon="13.0830133"><ele>635.0</ele><time>2026-04-26T12:29:33.234Z</time></trkpt><trkpt lat="42.9404483" lon="13.08307"><ele>635.0</ele><time>2026-04-26T12:29:34.234Z</time></trkpt><trkpt lat="42.9406167" lon="13.083125"><ele>635.0</ele><time>2026-04-26T12:29:35.232Z</time></trkpt><trkpt lat="42.940785" lon="13.083175"><ele>635.0</ele><time>2026-04-26T12:29:36.234Z</time></trkpt><trkpt lat="42.9409583" lon="13.0832267"><ele>635.0</ele><time>2026-04-26T12:29:37.235Z</time></trkpt><trkpt lat="42.9411317" lon="13.083275"><ele>635.0</ele><time>2026-04-26T12:29:38.233Z</time></trkpt><trkpt lat="42.9413033" lon="13.0833217"><ele>635.0</ele><time>2026-04-26T12:29:39.236Z</time></trkpt><trkpt lat="42.9414783" lon="13.0833683"><ele>635.0</ele><time>2026-04-26T12:29:40.235Z</time></trkpt><trkpt lat="42.941655" lon="13.08341"><ele>635.0</ele><time>2026-04-26T12:29:41.234Z</time></trkpt><trkpt lat="42.9418333" lon="13.083445"><ele>635.0</ele><time>2026-04-26T12:29:42.234Z</time></trkpt><trkpt lat="42.9420083" lon="13.0834733"><ele>635.6666666666666</ele><time>2026-04-26T12:29:43.234Z</time></trkpt><trkpt lat="42.9421783" lon="13.0834967"><ele>636.3333333333334</ele><time>2026-04-26T12:29:44.236Z</time></trkpt><trkpt lat="42.94235" lon="13.0835167"><ele>637.0</ele><time>2026-04-26T12:29:45.232Z</time></trkpt><trkpt lat="42.9425167" lon="13.083535"><ele>637.0</ele><time>2026-04-26T12:29:46.232Z</time></trkpt><trkpt lat="42.942685" lon="13.0835483"><ele>637.0</ele><time>2026-04-26T12:29:47.232Z</time></trkpt><trkpt lat="42.9428467" lon="13.083555"><ele>637.0</ele><time>2026-04-26T12:29:48.232Z</time></trkpt><trkpt lat="42.9430017" lon="13.08355"><ele>637.0</ele><time>2026-04-26T12:29:49.234Z</time></trkpt><trkpt lat="42.9431533" lon="13.0835467"><ele>637.0</ele><time>2026-04-26T12:29:50.232Z</time></trkpt><trkpt lat="42.9433033" lon="13.08354"><ele>637.0</ele><time>2026-04-26T12:29:51.235Z</time></trkpt><trkpt lat="42.9434533" lon="13.083535"><ele>638.0</ele><time>2026-04-26T12:29:52.239Z</time></trkpt><trkpt lat="42.9436083" lon="13.0835233"><ele>639.0</ele><time>2026-04-26T12:29:53.234Z</time></trkpt><trkpt lat="42.94377" lon="13.0835083"><ele>640.0</ele><time>2026-04-26T12:29:54.232Z</time></trkpt><trkpt lat="42.9439333" lon="13.0834933"><ele>640.0</ele><time>2026-04-26T12:29:55.241Z</time></trkpt><trkpt lat="42.9441017" lon="13.0834767"><ele>640.0</ele><time>2026-04-26T12:29:56.234Z</time></trkpt><trkpt lat="42.9442717" lon="13.0834633"><ele>640.0</ele><time>2026-04-26T12:29:57.234Z</time></trkpt><trkpt lat="42.94444" lon="13.0834483"><ele>641.3333333333334</ele><time>2026-04-26T12:29:58.231Z</time></trkpt><trkpt lat="42.9446017" lon="13.08343"><ele>642.6666666666666</ele><time>2026-04-26T12:29:59.232Z</time></trkpt><trkpt lat="42.9447633" lon="13.0834133"><ele>644.0</ele><time>2026-04-26T12:30:00.233Z</time></trkpt><trkpt lat="42.9449217" lon="13.0833933"><ele>645.0</ele><time>2026-04-26T12:30:01.232Z</time></trkpt><trkpt lat="42.9450833" lon="13.083375"><ele>646.0</ele><time>2026-04-26T12:30:02.233Z</time></trkpt><trkpt lat="42.9452433" lon="13.083355"><ele>647.0</ele><time>2026-04-26T12:30:03.233Z</time></trkpt><trkpt lat="42.9454033" lon="13.0833367"><ele>647.0</ele><time>2026-04-26T12:30:04.235Z</time></trkpt><trkpt lat="42.9455617" lon="13.08332"><ele>647.0</ele><time>2026-04-26T12:30:05.234Z</time></trkpt><trkpt lat="42.94572" lon="13.0833"><ele>647.0</ele><time>2026-04-26T12:30:06.232Z</time></trkpt><trkpt lat="42.94588" lon="13.0832817"><ele>647.0</ele><time>2026-04-26T12:30:07.235Z</time></trkpt><trkpt lat="42.94604" lon="13.0832633"><ele>647.0</ele><time>2026-04-26T12:30:08.232Z</time></trkpt><trkpt lat="42.9462" lon="13.0832567"><ele>647.0</ele><time>2026-04-26T12:30:09.233Z</time></trkpt><trkpt lat="42.9463567" lon="13.08327"><ele>648.0</ele><time>2026-04-26T12:30:10.233Z</time></trkpt><trkpt lat="42.94651" lon="13.0832983"><ele>649.0</ele><time>2026-04-26T12:30:11.232Z</time></trkpt><trkpt lat="42.94666" lon="13.08335"><ele>650.0</ele><time>2026-04-26T12:30:12.231Z</time></trkpt><trkpt lat="42.9468133" lon="13.083425"><ele>651.0</ele><time>2026-04-26T12:30:13.235Z</time></trkpt><trkpt lat="42.9469617" lon="13.0835067"><ele>652.0</ele><time>2026-04-26T12:30:14.233Z</time></trkpt><trkpt lat="42.9471067" lon="13.083595"><ele>653.0</ele><time>2026-04-26T12:30:15.234Z</time></trkpt><trkpt lat="42.947245" lon="13.083695"><ele>653.0</ele><time>2026-04-26T12:30:16.231Z</time></trkpt><trkpt lat="42.9473833" lon="13.0837917"><ele>653.0</ele><time>2026-04-26T12:30:17.231Z</time></trkpt><trkpt lat="42.9475283" lon="13.0838833"><ele>653.0</ele><time>2026-04-26T12:30:18.234Z</time></trkpt><trkpt lat="42.9476817" lon="13.0839717"><ele>653.6666666666666</ele><time>2026-04-26T12:30:19.232Z</time></trkpt><trkpt lat="42.94784" lon="13.0840467"><ele>654.3333333333334</ele><time>2026-04-26T12:30:20.231Z</time></trkpt><trkpt lat="42.9480017" lon="13.0841017"><ele>655.0</ele><time>2026-04-26T12:30:21.235Z</time></trkpt><trkpt lat="42.94816" lon="13.08412"><ele>658.0</ele><time>2026-04-26T12:30:22.228Z</time></trkpt><trkpt lat="42.9483233" lon="13.0841033"><ele>661.0</ele><time>2026-04-26T12:30:23.234Z</time></trkpt><trkpt lat="42.948485" lon="13.0840783"><ele>664.0</ele><time>2026-04-26T12:30:24.232Z</time></trkpt><trkpt lat="42.9486317" lon="13.0840417"><ele>664.0</ele><time>2026-04-26T12:30:25.231Z</time></trkpt><trkpt lat="42.9487733" lon="13.084"><ele>664.0</ele><time>2026-04-26T12:30:26.234Z</time></trkpt><trkpt lat="42.9489033" lon="13.0839567"><ele>664.0</ele><time>2026-04-26T12:30:27.233Z</time></trkpt><trkpt lat="42.9490317" lon="13.0839167"><ele>664.0</ele><time>2026-04-26T12:30:28.231Z</time></trkpt><trkpt lat="42.94915" lon="13.08386"><ele>665.75</ele><time>2026-04-26T12:30:29.234Z</time></trkpt><trkpt lat="42.9492717" lon="13.0837783"><ele>667.5</ele><time>2026-04-26T12:30:30.234Z</time></trkpt><trkpt lat="42.9493933" lon="13.0836767"><ele>669.25</ele><time>2026-04-26T12:30:31.232Z</time></trkpt><trkpt lat="42.94953" lon="13.083585"><ele>671.0</ele><time>2026-04-26T12:30:32.234Z</time></trkpt><trkpt lat="42.9496733" lon="13.08352"><ele>671.0</ele><time>2026-04-26T12:30:33.234Z</time></trkpt><trkpt lat="42.9498233" lon="13.08348"><ele>671.0</ele><time>2026-04-26T12:30:34.233Z</time></trkpt><trkpt lat="42.9499783" lon="13.08346"><ele>671.0</ele><time>2026-04-26T12:30:35.235Z</time></trkpt><trkpt lat="42.95013" lon="13.0834567"><ele>674.3333333333333</ele><time>2026-04-26T12:30:36.233Z</time></trkpt><trkpt lat="42.950295" lon="13.083445"><ele>677.6666666666666</ele><time>2026-04-26T12:30:37.233Z</time></trkpt><trkpt lat="42.9504683" lon="13.0834033"><ele>681.0</ele><time>2026-04-26T12:30:38.231Z</time></trkpt><trkpt lat="42.9506567" lon="13.083355"><ele>681.0</ele><time>2026-04-26T12:30:39.234Z</time></trkpt><trkpt lat="42.9508567" lon="13.08333"><ele>681.0</ele><time>2026-04-26T12:30:40.233Z</time></trkpt><trkpt lat="42.9510633" lon="13.083345"><ele>681.0</ele><time>2026-04-26T12:30:41.232Z</time></trkpt><trkpt lat="42.9512767" lon="13.08337"><ele>682.6666666666666</ele><time>2026-04-26T12:30:42.231Z</time></trkpt><trkpt lat="42.9514883" lon="13.0833817"><ele>684.3333333333333</ele><time>2026-04-26T12:30:43.233Z</time></trkpt><trkpt lat="42.9516967" lon="13.0833667"><ele>686.0</ele><time>2026-04-26T12:30:44.233Z</time></trkpt><trkpt lat="42.95191" lon="13.0833267"><ele>686.3333333333333</ele><time>2026-04-26T12:30:45.233Z</time></trkpt><trkpt lat="42.9521283" lon="13.0832717"><ele>686.6666666666666</ele><time>2026-04-26T12:30:46.233Z</time></trkpt><trkpt lat="42.952345" lon="13.083215"><ele>687.0</ele><time>2026-04-26T12:30:47.231Z</time></trkpt><trkpt lat="42.95255" lon="13.0831633"><ele>687.0</ele><time>2026-04-26T12:30:48.233Z</time></trkpt><trkpt lat="42.95275" lon="13.0831217"><ele>687.0</ele><time>2026-04-26T12:30:49.234Z</time></trkpt><trkpt lat="42.9529467" lon="13.08314"><ele>687.0</ele><time>2026-04-26T12:30:50.234Z</time></trkpt><trkpt lat="42.9531467" lon="13.083225"><ele>689.6666666666666</ele><time>2026-04-26T12:30:51.234Z</time></trkpt><trkpt lat="42.95334" lon="13.0833267"><ele>692.3333333333333</ele><time>2026-04-26T12:30:52.233Z</time></trkpt><trkpt lat="42.95354" lon="13.0834133"><ele>695.0</ele><time>2026-04-26T12:30:53.233Z</time></trkpt><trkpt lat="42.953745" lon="13.0834533"><ele>696.3333333333333</ele><time>2026-04-26T12:30:54.235Z</time></trkpt><trkpt lat="42.9539383" lon="13.0834433"><ele>697.6666666666666</ele><time>2026-04-26T12:30:55.232Z</time></trkpt><trkpt lat="42.9541283" lon="13.0834183"><ele>699.0</ele><time>2026-04-26T12:30:56.233Z</time></trkpt><trkpt lat="42.954295" lon="13.0834083"><ele>699.0</ele><time>2026-04-26T12:30:57.234Z</time></trkpt><trkpt lat="42.9544433" lon="13.0834483"><ele>699.0</ele><time>2026-04-26T12:30:58.233Z</time></trkpt><trkpt lat="42.9545767" lon="13.0835217"><ele>699.0</ele><time>2026-04-26T12:30:59.23Z</time></trkpt><trkpt lat="42.9546933" lon="13.0836667"><ele>699.0</ele><time>2026-04-26T12:31:00.23Z</time></trkpt><trkpt lat="42.9547767" lon="13.08387"><ele>699.0</ele><time>2026-04-26T12:31:01.231Z</time></trkpt><trkpt lat="42.9548483" lon="13.084115"><ele>699.0</ele><time>2026-04-26T12:31:02.235Z</time></trkpt><trkpt lat="42.954945" lon="13.0843483"><ele>706.3333333333334</ele><time>2026-04-26T12:31:03.237Z</time></trkpt><trkpt lat="42.9550667" lon="13.084575"><ele>713.6666666666667</ele><time>2026-04-26T12:31:04.233Z</time></trkpt><trkpt lat="42.9551933" lon="13.084775"><ele>721.0</ele><time>2026-04-26T12:31:05.234Z</time></trkpt><trkpt lat="42.9553117" lon="13.0849533"><ele>722.0</ele><time>2026-04-26T12:31:06.234Z</time></trkpt><trkpt lat="42.95543" lon="13.0850867"><ele>723.0</ele><time>2026-04-26T12:31:07.232Z</time></trkpt><trkpt lat="42.9555567" lon="13.0851817"><ele>724.0</ele><time>2026-04-26T12:31:08.238Z</time></trkpt><trkpt lat="42.9557067" lon="13.0852033"><ele>725.0</ele><time>2026-04-26T12:31:09.236Z</time></trkpt><trkpt lat="42.955875" lon="13.0851433"><ele>730.25</ele><time>2026-04-26T12:31:10.233Z</time></trkpt><trkpt lat="42.9560433" lon="13.0850933"><ele>735.5</ele><time>2026-04-26T12:31:11.232Z</time></trkpt><trkpt lat="42.9561783" lon="13.0850433"><ele>740.75</ele><time>2026-04-26T12:31:12.231Z</time></trkpt><trkpt lat="42.9562817" lon="13.08497"><ele>746.0</ele><time>2026-04-26T12:31:13.233Z</time></trkpt><trkpt lat="42.956335" lon="13.0848567"><ele>747.0</ele><time>2026-04-26T12:31:14.235Z</time></trkpt><trkpt lat="42.956345" lon="13.0847267"><ele>748.0</ele><time>2026-04-26T12:31:15.237Z</time></trkpt><trkpt lat="42.95631" lon="13.0845967"><ele>749.0</ele><time>2026-04-26T12:31:16.233Z</time></trkpt><trkpt lat="42.95623" lon="13.0844817"><ele>750.0</ele><time>2026-04-26T12:31:17.231Z</time></trkpt><trkpt lat="42.9561433" lon="13.0843767"><ele>751.0</ele><time>2026-04-26T12:31:18.233Z</time></trkpt><trkpt lat="42.9560633" lon="13.084255"><ele>751.0</ele><time>2026-04-26T12:31:19.231Z</time></trkpt><trkpt lat="42.9559817" lon="13.0841183"><ele>751.0</ele><time>2026-04-26T12:31:20.233Z</time></trkpt><trkpt lat="42.95593" lon="13.0839633"><ele>751.0</ele><time>2026-04-26T12:31:21.233Z</time></trkpt><trkpt lat="42.955915" lon="13.0837833"><ele>751.0</ele><time>2026-04-26T12:31:22.236Z</time></trkpt><trkpt lat="42.9559467" lon="13.08358"><ele>748.75</ele><time>2026-04-26T12:31:23.231Z</time></trkpt><trkpt lat="42.956" lon="13.0833983"><ele>746.5</ele><time>2026-04-26T12:31:24.235Z</time></trkpt><trkpt lat="42.9560717" lon="13.08323"><ele>744.25</ele><time>2026-04-26T12:31:25.234Z</time></trkpt><trkpt lat="42.95617" lon="13.0830867"><ele>742.0</ele><time>2026-04-26T12:31:26.235Z</time></trkpt><trkpt lat="42.9562867" lon="13.082965"><ele>737.75</ele><time>2026-04-26T12:31:27.238Z</time></trkpt><trkpt lat="42.956415" lon="13.0828867"><ele>733.5</ele><time>2026-04-26T12:31:28.235Z</time></trkpt><trkpt lat="42.9565383" lon="13.08283"><ele>729.25</ele><time>2026-04-26T12:31:29.23Z</time></trkpt><trkpt lat="42.956655" lon="13.082815"><ele>725.0</ele><time>2026-04-26T12:31:30.238Z</time></trkpt><trkpt lat="42.956755" lon="13.0828833"><ele>725.0</ele><time>2026-04-26T12:31:31.235Z</time></trkpt><trkpt lat="42.9568467" lon="13.0830317"><ele>725.0</ele><time>2026-04-26T12:31:32.232Z</time></trkpt><trkpt lat="42.9569383" lon="13.0831933"><ele>725.0</ele><time>2026-04-26T12:31:33.238Z</time></trkpt><trkpt lat="42.957035" lon="13.08336"><ele>725.0</ele><time>2026-04-26T12:31:34.233Z</time></trkpt><trkpt lat="42.95713" lon="13.0835183"><ele>728.75</ele><time>2026-04-26T12:31:35.231Z</time></trkpt><trkpt lat="42.9572333" lon="13.08366"><ele>732.5</ele><time>2026-04-26T12:31:36.232Z</time></trkpt><trkpt lat="42.9573483" lon="13.0837717"><ele>736.25</ele><time>2026-04-26T12:31:37.234Z</time></trkpt><trkpt lat="42.95748" lon="13.0838367"><ele>740.0</ele><time>2026-04-26T12:31:38.235Z</time></trkpt><trkpt lat="42.95762" lon="13.083855"><ele>742.25</ele><time>2026-04-26T12:31:39.233Z</time></trkpt><trkpt lat="42.957755" lon="13.0838317"><ele>744.5</ele><time>2026-04-26T12:31:40.235Z</time></trkpt><trkpt lat="42.9578867" lon="13.0837683"><ele>746.75</ele><time>2026-04-26T12:31:41.234Z</time></trkpt><trkpt lat="42.9580067" lon="13.0836667"><ele>749.0</ele><time>2026-04-26T12:31:42.234Z</time></trkpt><trkpt lat="42.95812" lon="13.0835333"><ele>749.0</ele><time>2026-04-26T12:31:43.236Z</time></trkpt><trkpt lat="42.95824" lon="13.083375"><ele>749.0</ele><time>2026-04-26T12:31:44.233Z</time></trkpt><trkpt lat="42.9583617" lon="13.0832117"><ele>749.0</ele><time>2026-04-26T12:31:45.237Z</time></trkpt><trkpt lat="42.95849" lon="13.083055"><ele>748.3333333333333</ele><time>2026-04-26T12:31:46.232Z</time></trkpt><trkpt lat="42.958635" lon="13.08291"><ele>747.6666666666666</ele><time>2026-04-26T12:31:47.236Z</time></trkpt><trkpt lat="42.9587933" lon="13.082775"><ele>747.0</ele><time>2026-04-26T12:31:48.235Z</time></trkpt><trkpt lat="42.9589617" lon="13.0826467"><ele>747.0</ele><time>2026-04-26T12:31:49.235Z</time></trkpt><trkpt lat="42.95913" lon="13.0825183"><ele>747.0</ele><time>2026-04-26T12:31:50.234Z</time></trkpt><trkpt lat="42.9593" lon="13.08239"><ele>747.0</ele><time>2026-04-26T12:31:51.234Z</time></trkpt><trkpt lat="42.9594733" lon="13.08226"><ele>748.6666666666666</ele><time>2026-04-26T12:31:52.233Z</time></trkpt><trkpt lat="42.95965" lon="13.08213"><ele>750.3333333333333</ele><time>2026-04-26T12:31:53.234Z</time></trkpt><trkpt lat="42.9598233" lon="13.0819967"><ele>752.0</ele><time>2026-04-26T12:31:54.235Z</time></trkpt><trkpt lat="42.959995" lon="13.081865"><ele>755.6666666666666</ele><time>2026-04-26T12:31:55.235Z</time></trkpt><trkpt lat="42.9601667" lon="13.0817367"><ele>759.3333333333334</ele><time>2026-04-26T12:31:56.235Z</time></trkpt><trkpt lat="42.9603333" lon="13.0816067"><ele>763.0</ele><time>2026-04-26T12:31:57.238Z</time></trkpt><trkpt lat="42.9605017" lon="13.081485"><ele>771.6666666666667</ele><time>2026-04-26T12:31:58.233Z</time></trkpt><trkpt lat="42.96067" lon="13.0813733"><ele>780.3333333333334</ele><time>2026-04-26T12:31:59.233Z</time></trkpt><trkpt lat="42.9608417" lon="13.0812833"><ele>789.0</ele><time>2026-04-26T12:32:00.236Z</time></trkpt><trkpt lat="42.9610183" lon="13.0812133"><ele>789.0</ele><time>2026-04-26T12:32:01.236Z</time></trkpt><trkpt lat="42.9612" lon="13.0811667"><ele>789.0</ele><time>2026-04-26T12:32:02.235Z</time></trkpt><trkpt lat="42.961385" lon="13.081135"><ele>789.0</ele><time>2026-04-26T12:32:03.237Z</time></trkpt><trkpt lat="42.9615733" lon="13.0811133"><ele>787.6666666666667</ele><time>2026-04-26T12:32:04.233Z</time></trkpt><trkpt lat="42.9617633" lon="13.0810933"><ele>786.3333333333334</ele><time>2026-04-26T12:32:05.234Z</time></trkpt><trkpt lat="42.9619567" lon="13.0810717"><ele>785.0</ele><time>2026-04-26T12:32:06.234Z</time></trkpt><trkpt lat="42.96215" lon="13.0810533"><ele>785.0</ele><time>2026-04-26T12:32:07.234Z</time></trkpt><trkpt lat="42.9623417" lon="13.0810333"><ele>785.0</ele><time>2026-04-26T12:32:08.235Z</time></trkpt><trkpt lat="42.962535" lon="13.0810117"><ele>785.0</ele><time>2026-04-26T12:32:09.235Z</time></trkpt><trkpt lat="42.9627317" lon="13.0809867"><ele>787.3333333333334</ele><time>2026-04-26T12:32:10.233Z</time></trkpt><trkpt lat="42.9629317" lon="13.0809633"><ele>789.6666666666667</ele><time>2026-04-26T12:32:11.236Z</time></trkpt><trkpt lat="42.9631283" lon="13.0809433"><ele>792.0</ele><time>2026-04-26T12:32:12.235Z</time></trkpt><trkpt lat="42.96333" lon="13.0809233"><ele>794.3333333333333</ele><time>2026-04-26T12:32:13.234Z</time></trkpt><trkpt lat="42.9635283" lon="13.0809017"><ele>796.6666666666666</ele><time>2026-04-26T12:32:14.234Z</time></trkpt><trkpt lat="42.9637267" lon="13.0808783"><ele>799.0</ele><time>2026-04-26T12:32:15.232Z</time></trkpt><trkpt lat="42.96392" lon="13.080855"><ele>795.0</ele><time>2026-04-26T12:32:16.231Z</time></trkpt><trkpt lat="42.9666483" lon="13.0788317"><ele>788.5</ele><time>2026-04-26T12:32:34.235Z</time></trkpt><trkpt lat="42.96706" lon="13.078815"><ele>782.0</ele><time>2026-04-26T12:32:35.243Z</time></trkpt><trkpt lat="42.9672517" lon="13.0787467"><ele>782.0</ele><time>2026-04-26T12:32:36.227Z</time></trkpt><trkpt lat="42.9674617" lon="13.07866"><ele>782.0</ele><time>2026-04-26T12:32:37.236Z</time></trkpt><trkpt lat="42.9676367" lon="13.0785683"><ele>782.0</ele><time>2026-04-26T12:32:38.234Z</time></trkpt><trkpt lat="42.9678217" lon="13.0784667"><ele>780.6666666666667</ele><time>2026-04-26T12:32:39.24Z</time></trkpt><trkpt lat="42.9680117" lon="13.07837"><ele>779.3333333333333</ele><time>2026-04-26T12:32:40.241Z</time></trkpt><trkpt lat="42.968195" lon="13.0782667"><ele>778.0</ele><time>2026-04-26T12:32:41.232Z</time></trkpt><trkpt lat="42.96839" lon="13.078155"><ele>774.3333333333333</ele><time>2026-04-26T12:32:42.234Z</time></trkpt><trkpt lat="42.9685733" lon="13.0780417"><ele>770.6666666666666</ele><time>2026-04-26T12:32:43.238Z</time></trkpt><trkpt lat="42.96876" lon="13.0779283"><ele>767.0</ele><time>2026-04-26T12:32:44.234Z</time></trkpt><trkpt lat="42.9689483" lon="13.0778133"><ele>767.0</ele><time>2026-04-26T12:32:45.233Z</time></trkpt><trkpt lat="42.9691417" lon="13.0777"><ele>767.0</ele><time>2026-04-26T12:32:46.235Z</time></trkpt><trkpt lat="42.9693367" lon="13.0775883"><ele>767.0</ele><time>2026-04-26T12:32:47.24Z</time></trkpt><trkpt lat="42.9695333" lon="13.0774783"><ele>769.6666666666666</ele><time>2026-04-26T12:32:48.238Z</time></trkpt><trkpt lat="42.96973" lon="13.077365"><ele>772.3333333333333</ele><time>2026-04-26T12:32:49.235Z</time></trkpt><trkpt lat="42.9699233" lon="13.0772483"><ele>775.0</ele><time>2026-04-26T12:32:50.242Z</time></trkpt><trkpt lat="42.97012" lon="13.0771333"><ele>769.0</ele><time>2026-04-26T12:32:51.235Z</time></trkpt><trkpt lat="42.9703183" lon="13.077015"><ele>763.0</ele><time>2026-04-26T12:32:52.237Z</time></trkpt><trkpt lat="42.9705217" lon="13.0768983"><ele>757.0</ele><time>2026-04-26T12:32:53.237Z</time></trkpt><trkpt lat="42.9707233" lon="13.07678"><ele>757.3333333333334</ele><time>2026-04-26T12:32:54.235Z</time></trkpt><trkpt lat="42.97093" lon="13.0766717"><ele>757.6666666666666</ele><time>2026-04-26T12:32:55.235Z</time></trkpt><trkpt lat="42.9711367" lon="13.0765817"><ele>758.0</ele><time>2026-04-26T12:32:56.238Z</time></trkpt><trkpt lat="42.971345" lon="13.0765217"><ele>758.0</ele><time>2026-04-26T12:32:57.23Z</time></trkpt><trkpt lat="42.97156" lon="13.07649"><ele>758.0</ele><time>2026-04-26T12:32:58.233Z</time></trkpt><trkpt lat="42.971775" lon="13.07649"><ele>758.0</ele><time>2026-04-26T12:32:59.231Z</time></trkpt><trkpt lat="42.97199" lon="13.0765167"><ele>754.6666666666666</ele><time>2026-04-26T12:33:00.233Z</time></trkpt><trkpt lat="42.972205" lon="13.076575"><ele>751.3333333333334</ele><time>2026-04-26T12:33:01.236Z</time></trkpt><trkpt lat="42.9724167" lon="13.076655"><ele>748.0</ele><time>2026-04-26T12:33:02.234Z</time></trkpt><trkpt lat="42.9726233" lon="13.0767583"><ele>741.6666666666667</ele><time>2026-04-26T12:33:03.24Z</time></trkpt><trkpt lat="42.9728183" lon="13.0768817"><ele>735.3333333333334</ele><time>2026-04-26T12:33:04.235Z</time></trkpt><trkpt lat="42.972995" lon="13.077015"><ele>729.0</ele><time>2026-04-26T12:33:05.233Z</time></trkpt><trkpt lat="42.9731683" lon="13.0771467"><ele>729.0</ele><time>2026-04-26T12:33:06.234Z</time></trkpt><trkpt lat="42.9733417" lon="13.077275"><ele>729.0</ele><time>2026-04-26T12:33:07.236Z</time></trkpt><trkpt lat="42.973525" lon="13.077395"><ele>729.0</ele><time>2026-04-26T12:33:08.239Z</time></trkpt><trkpt lat="42.9737167" lon="13.0775067"><ele>729.0</ele><time>2026-04-26T12:33:09.237Z</time></trkpt><trkpt lat="42.9739217" lon="13.0775983"><ele>729.0</ele><time>2026-04-26T12:33:10.233Z</time></trkpt><trkpt lat="42.9741267" lon="13.0776583"><ele>729.0</ele><time>2026-04-26T12:33:11.235Z</time></trkpt><trkpt lat="42.97433" lon="13.0776933"><ele>729.0</ele><time>2026-04-26T12:33:12.239Z</time></trkpt><trkpt lat="42.9745367" lon="13.077705"><ele>729.0</ele><time>2026-04-26T12:33:13.237Z</time></trkpt><trkpt lat="42.9747467" lon="13.0776883"><ele>729.0</ele><time>2026-04-26T12:33:14.232Z</time></trkpt><trkpt lat="42.9749583" lon="13.07764"><ele>728.6666666666666</ele><time>2026-04-26T12:33:15.23Z</time></trkpt><trkpt lat="42.9751683" lon="13.0775617"><ele>728.3333333333333</ele><time>2026-04-26T12:33:16.233Z</time></trkpt><trkpt lat="42.9753717" lon="13.0774583"><ele>728.0</ele><time>2026-04-26T12:33:17.231Z</time></trkpt><trkpt lat="42.9755783" lon="13.0773433"><ele>725.6666666666666</ele><time>2026-04-26T12:33:18.232Z</time></trkpt><trkpt lat="42.9757833" lon="13.0772317"><ele>723.3333333333334</ele><time>2026-04-26T12:33:19.239Z</time></trkpt><trkpt lat="42.9759817" lon="13.077125"><ele>721.0</ele><time>2026-04-26T12:33:20.234Z</time></trkpt><trkpt lat="42.976175" lon="13.0770117"><ele>717.0</ele><time>2026-04-26T12:33:21.234Z</time></trkpt><trkpt lat="42.9763617" lon="13.07689"><ele>713.0</ele><time>2026-04-26T12:33:22.227Z</time></trkpt><trkpt lat="42.97655" lon="13.0767767"><ele>709.0</ele><time>2026-04-26T12:33:23.235Z</time></trkpt><trkpt lat="42.9767383" lon="13.0766683"><ele>705.0</ele><time>2026-04-26T12:33:24.234Z</time></trkpt><trkpt lat="42.976925" lon="13.07656"><ele>701.0</ele><time>2026-04-26T12:33:25.235Z</time></trkpt><trkpt lat="42.9771133" lon="13.0764517"><ele>697.0</ele><time>2026-04-26T12:33:26.233Z</time></trkpt><trkpt lat="42.9773033" lon="13.0763467"><ele>697.0</ele><time>2026-04-26T12:33:27.232Z</time></trkpt><trkpt lat="42.97749" lon="13.076245"><ele>697.0</ele><time>2026-04-26T12:33:28.237Z</time></trkpt><trkpt lat="42.9776767" lon="13.0761483"><ele>697.0</ele><time>2026-04-26T12:33:29.23Z</time></trkpt><trkpt lat="42.9778683" lon="13.0760617"><ele>697.0</ele><time>2026-04-26T12:33:30.234Z</time></trkpt><trkpt lat="42.9780683" lon="13.075995"><ele>697.0</ele><time>2026-04-26T12:33:31.234Z</time></trkpt><trkpt lat="42.978275" lon="13.0759533"><ele>697.0</ele><time>2026-04-26T12:33:32.234Z</time></trkpt><trkpt lat="42.9784833" lon="13.0759367"><ele>697.0</ele><time>2026-04-26T12:33:33.239Z</time></trkpt><trkpt lat="42.978695" lon="13.0759467"><ele>697.0</ele><time>2026-04-26T12:33:34.233Z</time></trkpt><trkpt lat="42.9789067" lon="13.0759917"><ele>697.0</ele><time>2026-04-26T12:33:35.233Z</time></trkpt><trkpt lat="42.9791183" lon="13.0760483"><ele>691.0</ele><time>2026-04-26T12:33:36.234Z</time></trkpt><trkpt lat="42.9793217" lon="13.0761267"><ele>685.0</ele><time>2026-04-26T12:33:37.233Z</time></trkpt><trkpt lat="42.9795217" lon="13.0762083"><ele>679.0</ele><time>2026-04-26T12:33:38.246Z</time></trkpt><trkpt lat="42.979725" lon="13.0762883"><ele>679.0</ele><time>2026-04-26T12:33:39.234Z</time></trkpt><trkpt lat="42.97992" lon="13.0763567"><ele>679.0</ele><time>2026-04-26T12:33:40.234Z</time></trkpt><trkpt lat="42.9801117" lon="13.07642"><ele>679.0</ele><time>2026-04-26T12:33:41.236Z</time></trkpt><trkpt lat="42.9803017" lon="13.076465"><ele>677.6666666666667</ele><time>2026-04-26T12:33:42.233Z</time></trkpt><trkpt lat="42.9804867" lon="13.0764817"><ele>676.3333333333334</ele><time>2026-04-26T12:33:43.233Z</time></trkpt><trkpt lat="42.9806767" lon="13.0764767"><ele>675.0</ele><time>2026-04-26T12:33:44.234Z</time></trkpt><trkpt lat="42.9808767" lon="13.07645"><ele>675.0</ele><time>2026-04-26T12:33:45.234Z</time></trkpt><trkpt lat="42.9810833" lon="13.07641"><ele>675.0</ele><time>2026-04-26T12:33:46.234Z</time></trkpt><trkpt lat="42.981295" lon="13.0763633"><ele>675.0</ele><time>2026-04-26T12:33:47.235Z</time></trkpt><trkpt lat="42.98151" lon="13.0763133"><ele>674.0</ele><time>2026-04-26T12:33:48.235Z</time></trkpt><trkpt lat="42.98173" lon="13.076265"><ele>673.0</ele><time>2026-04-26T12:33:49.233Z</time></trkpt><trkpt lat="42.9819583" lon="13.0762167"><ele>673.0</ele><time>2026-04-26T12:33:50.233Z</time></trkpt><trkpt lat="42.98219" lon="13.0761683"><ele>673.0</ele><time>2026-04-26T12:33:51.238Z</time></trkpt><trkpt lat="42.9824217" lon="13.0761233"><ele>674.0</ele><time>2026-04-26T12:33:52.233Z</time></trkpt><trkpt lat="42.9826533" lon="13.07608"><ele>675.0</ele><time>2026-04-26T12:33:53.234Z</time></trkpt><trkpt lat="42.9828867" lon="13.07603"><ele>675.0</ele><time>2026-04-26T12:33:54.239Z</time></trkpt><trkpt lat="42.9831217" lon="13.07598"><ele>675.0</ele><time>2026-04-26T12:33:55.237Z</time></trkpt><trkpt lat="42.9833567" lon="13.0759283"><ele>676.0</ele><time>2026-04-26T12:33:56.235Z</time></trkpt><trkpt lat="42.9835917" lon="13.0758767"><ele>677.0</ele><time>2026-04-26T12:33:57.232Z</time></trkpt><trkpt lat="42.9838283" lon="13.0758317"><ele>677.0</ele><time>2026-04-26T12:33:58.236Z</time></trkpt><trkpt lat="42.9840717" lon="13.0757883"><ele>677.0</ele><time>2026-04-26T12:33:59.233Z</time></trkpt><trkpt lat="42.9843083" lon="13.0757433"><ele>664.5</ele><time>2026-04-26T12:34:00.233Z</time></trkpt><trkpt lat="42.984545" lon="13.0757"><ele>652.0</ele><time>2026-04-26T12:34:01.236Z</time></trkpt><trkpt lat="42.9847733" lon="13.0756533"><ele>652.0</ele><time>2026-04-26T12:34:02.235Z</time></trkpt><trkpt lat="42.9849983" lon="13.0756067"><ele>652.0</ele><time>2026-04-26T12:34:03.236Z</time></trkpt><trkpt lat="42.98522" lon="13.0755617"><ele>652.3333333333334</ele><time>2026-04-26T12:34:04.233Z</time></trkpt><trkpt lat="42.9854417" lon="13.0755183"><ele>652.6666666666666</ele><time>2026-04-26T12:34:05.234Z</time></trkpt><trkpt lat="42.9856617" lon="13.0754683"><ele>653.0</ele><time>2026-04-26T12:34:06.233Z</time></trkpt><trkpt lat="42.9858767" lon="13.075415"><ele>652.3333333333333</ele><time>2026-04-26T12:34:07.234Z</time></trkpt><trkpt lat="42.9860883" lon="13.0753533"><ele>651.6666666666666</ele><time>2026-04-26T12:34:08.236Z</time></trkpt><trkpt lat="42.9862933" lon="13.07528"><ele>651.0</ele><time>2026-04-26T12:34:09.237Z</time></trkpt><trkpt lat="42.9864933" lon="13.075195"><ele>646.6666666666666</ele><time>2026-04-26T12:34:10.233Z</time></trkpt><trkpt lat="42.98669" lon="13.0751"><ele>642.3333333333333</ele><time>2026-04-26T12:34:11.234Z</time></trkpt><trkpt lat="42.9868817" lon="13.074995"><ele>638.0</ele><time>2026-04-26T12:34:12.234Z</time></trkpt><trkpt lat="42.9870683" lon="13.0748933"><ele>638.0</ele><time>2026-04-26T12:34:13.237Z</time></trkpt><trkpt lat="42.98725" lon="13.0747933"><ele>638.0</ele><time>2026-04-26T12:34:14.235Z</time></trkpt><trkpt lat="42.9874333" lon="13.0746933"><ele>638.0</ele><time>2026-04-26T12:34:15.234Z</time></trkpt><trkpt lat="42.9876233" lon="13.0746"><ele>641.0</ele><time>2026-04-26T12:34:16.234Z</time></trkpt><trkpt lat="42.9878133" lon="13.0745133"><ele>644.0</ele><time>2026-04-26T12:34:17.23Z</time></trkpt><trkpt lat="42.9880033" lon="13.074435"><ele>647.0</ele><time>2026-04-26T12:34:18.24Z</time></trkpt><trkpt lat="42.9881883" lon="13.0743583"><ele>647.6666666666666</ele><time>2026-04-26T12:34:19.232Z</time></trkpt><trkpt lat="42.9883733" lon="13.074265"><ele>648.3333333333334</ele><time>2026-04-26T12:34:20.235Z</time></trkpt><trkpt lat="42.9885567" lon="13.0741567"><ele>649.0</ele><time>2026-04-26T12:34:21.234Z</time></trkpt><trkpt lat="42.988745" lon="13.07403"><ele>640.0</ele><time>2026-04-26T12:34:22.234Z</time></trkpt><trkpt lat="42.9889433" lon="13.0738633"><ele>631.0</ele><time>2026-04-26T12:34:23.234Z</time></trkpt><trkpt lat="42.9891683" lon="13.0736467"><ele>631.5</ele><time>2026-04-26T12:34:24.234Z</time></trkpt><trkpt lat="42.9894167" lon="13.0734"><ele>632.0</ele><time>2026-04-26T12:34:25.234Z</time></trkpt><trkpt lat="42.9896817" lon="13.0731583"><ele>632.0</ele><time>2026-04-26T12:34:26.23Z</time></trkpt><trkpt lat="42.9899433" lon="13.07292"><ele>632.0</ele><time>2026-04-26T12:34:27.237Z</time></trkpt><trkpt lat="42.9901817" lon="13.072685"><ele>630.0</ele><time>2026-04-26T12:34:28.234Z</time></trkpt><trkpt lat="42.9904" lon="13.0724667"><ele>628.0</ele><time>2026-04-26T12:34:29.23Z</time></trkpt><trkpt lat="42.9906017" lon="13.0722683"><ele>628.0</ele><time>2026-04-26T12:34:30.235Z</time></trkpt><trkpt lat="42.9907967" lon="13.0720933"><ele>628.0</ele><time>2026-04-26T12:34:31.233Z</time></trkpt><trkpt lat="42.9909983" lon="13.0719333"><ele>630.5</ele><time>2026-04-26T12:34:32.236Z</time></trkpt><trkpt lat="42.9912033" lon="13.0717917"><ele>633.0</ele><time>2026-04-26T12:34:33.235Z</time></trkpt><trkpt lat="42.9914033" lon="13.0716583"><ele>627.3333333333334</ele><time>2026-04-26T12:34:34.235Z</time></trkpt><trkpt lat="42.9915967" lon="13.0715417"><ele>621.6666666666667</ele><time>2026-04-26T12:34:35.232Z</time></trkpt><trkpt lat="42.9917817" lon="13.0714383"><ele>616.0</ele><time>2026-04-26T12:34:36.234Z</time></trkpt><trkpt lat="42.9919567" lon="13.0713367"><ele>616.0</ele><time>2026-04-26T12:34:37.235Z</time></trkpt><trkpt lat="42.9921283" lon="13.0712367"><ele>616.0</ele><time>2026-04-26T12:34:38.234Z</time></trkpt><trkpt lat="42.9922933" lon="13.071135"><ele>616.0</ele><time>2026-04-26T12:34:39.233Z</time></trkpt><trkpt lat="42.9924567" lon="13.0710267"><ele>615.0</ele><time>2026-04-26T12:34:40.235Z</time></trkpt><trkpt lat="42.99263" lon="13.070915"><ele>614.0</ele><time>2026-04-26T12:34:41.235Z</time></trkpt><trkpt lat="42.992815" lon="13.070805"><ele>613.0</ele><time>2026-04-26T12:34:42.233Z</time></trkpt><trkpt lat="42.99301" lon="13.0706883"><ele>613.0</ele><time>2026-04-26T12:34:43.233Z</time></trkpt><trkpt lat="42.9931983" lon="13.070565"><ele>613.0</ele><time>2026-04-26T12:34:44.237Z</time></trkpt><trkpt lat="42.993385" lon="13.07043"><ele>613.0</ele><time>2026-04-26T12:34:45.239Z</time></trkpt><trkpt lat="42.9935883" lon="13.070265"><ele>610.5</ele><time>2026-04-26T12:34:46.233Z</time></trkpt><trkpt lat="42.993805" lon="13.07009"><ele>608.0</ele><time>2026-04-26T12:34:47.233Z</time></trkpt><trkpt lat="42.99402" lon="13.0699033"><ele>613.0</ele><time>2026-04-26T12:34:48.236Z</time></trkpt><trkpt lat="42.9942267" lon="13.069705"><ele>618.0</ele><time>2026-04-26T12:34:49.237Z</time></trkpt><trkpt lat="42.994415" lon="13.0694783"><ele>618.0</ele><time>2026-04-26T12:34:50.233Z</time></trkpt><trkpt lat="42.9946" lon="13.0692367"><ele>618.0</ele><time>2026-04-26T12:34:51.238Z</time></trkpt><trkpt lat="42.9947783" lon="13.0689733"><ele>620.5</ele><time>2026-04-26T12:34:52.232Z</time></trkpt><trkpt lat="42.994945" lon="13.0687083"><ele>623.0</ele><time>2026-04-26T12:34:53.231Z</time></trkpt><trkpt lat="42.9951033" lon="13.0684467"><ele>615.0</ele><time>2026-04-26T12:34:54.236Z</time></trkpt><trkpt lat="42.9952617" lon="13.0681867"><ele>607.0</ele><time>2026-04-26T12:34:55.235Z</time></trkpt><trkpt lat="42.9954167" lon="13.06793"><ele>607.0</ele><time>2026-04-26T12:34:56.234Z</time></trkpt><trkpt lat="42.9955683" lon="13.06768"><ele>607.0</ele><time>2026-04-26T12:34:57.239Z</time></trkpt><trkpt lat="42.9957133" lon="13.06744"><ele>608.0</ele><time>2026-04-26T12:34:58.232Z</time></trkpt><trkpt lat="42.995855" lon="13.0672083"><ele>609.0</ele><time>2026-04-26T12:34:59.235Z</time></trkpt><trkpt lat="42.9959967" lon="13.0669767"><ele>610.0</ele><time>2026-04-26T12:35:00.232Z</time></trkpt><trkpt lat="42.9961367" lon="13.066745"><ele>606.6666666666667</ele><time>2026-04-26T12:35:01.233Z</time></trkpt><trkpt lat="42.9962667" lon="13.0665133"><ele>603.3333333333334</ele><time>2026-04-26T12:35:02.238Z</time></trkpt><trkpt lat="42.99638" lon="13.0662767"><ele>600.0</ele><time>2026-04-26T12:35:03.238Z</time></trkpt><trkpt lat="42.9964817" lon="13.0660333"><ele>600.3333333333334</ele><time>2026-04-26T12:35:04.232Z</time></trkpt><trkpt lat="42.9965717" lon="13.0657783"><ele>600.6666666666667</ele><time>2026-04-26T12:35:05.235Z</time></trkpt><trkpt lat="42.9966517" lon="13.0655083"><ele>601.0</ele><time>2026-04-26T12:35:06.235Z</time></trkpt><trkpt lat="42.9967117" lon="13.0652183"><ele>601.3333333333334</ele><time>2026-04-26T12:35:07.234Z</time></trkpt><trkpt lat="42.9967583" lon="13.0649267"><ele>601.6666666666666</ele><time>2026-04-26T12:35:08.238Z</time></trkpt><trkpt lat="42.9967867" lon="13.06464"><ele>602.0</ele><time>2026-04-26T12:35:09.235Z</time></trkpt><trkpt lat="42.996795" lon="13.0643683"><ele>601.0</ele><time>2026-04-26T12:35:10.231Z</time></trkpt><trkpt lat="42.996785" lon="13.0641067"><ele>600.0</ele><time>2026-04-26T12:35:11.233Z</time></trkpt><trkpt lat="42.996765" lon="13.0638433"><ele>599.0</ele><time>2026-04-26T12:35:12.232Z</time></trkpt><trkpt lat="42.9967333" lon="13.063555"><ele>596.0</ele><time>2026-04-26T12:35:13.234Z</time></trkpt><trkpt lat="42.99669" lon="13.06324"><ele>593.0</ele><time>2026-04-26T12:35:14.238Z</time></trkpt><trkpt lat="42.9966433" lon="13.0628967"><ele>593.0</ele><time>2026-04-26T12:35:15.234Z</time></trkpt><trkpt lat="42.9966017" lon="13.0625283"><ele>593.0</ele><time>2026-04-26T12:35:16.234Z</time></trkpt><trkpt lat="42.9965583" lon="13.06215"><ele>593.0</ele><time>2026-04-26T12:35:17.233Z</time></trkpt><trkpt lat="42.9965217" lon="13.061775"><ele>593.0</ele><time>2026-04-26T12:35:18.234Z</time></trkpt><trkpt lat="42.99649" lon="13.0614067"><ele>592.0</ele><time>2026-04-26T12:35:19.237Z</time></trkpt><trkpt lat="42.9964767" lon="13.0610467"><ele>591.0</ele><time>2026-04-26T12:35:20.234Z</time></trkpt><trkpt lat="42.99649" lon="13.0606867"><ele>587.5</ele><time>2026-04-26T12:35:21.236Z</time></trkpt><trkpt lat="42.9965233" lon="13.060325"><ele>584.0</ele><time>2026-04-26T12:35:22.236Z</time></trkpt><trkpt lat="42.9965817" lon="13.05997"><ele>583.5</ele><time>2026-04-26T12:35:23.234Z</time></trkpt><trkpt lat="42.9966617" lon="13.05963"><ele>583.0</ele><time>2026-04-26T12:35:24.233Z</time></trkpt><trkpt lat="42.9967683" lon="13.0593"><ele>582.0</ele><time>2026-04-26T12:35:25.235Z</time></trkpt><trkpt lat="42.9968867" lon="13.0589783"><ele>581.0</ele><time>2026-04-26T12:35:26.233Z</time></trkpt><trkpt lat="42.99701" lon="13.0586567"><ele>581.0</ele><time>2026-04-26T12:35:27.236Z</time></trkpt><trkpt lat="42.997135" lon="13.0583317"><ele>581.0</ele><time>2026-04-26T12:35:28.234Z</time></trkpt><trkpt lat="42.9972683" lon="13.0580033"><ele>580.5</ele><time>2026-04-26T12:35:29.234Z</time></trkpt><trkpt lat="42.9973933" lon="13.05769"><ele>580.0</ele><time>2026-04-26T12:35:30.233Z</time></trkpt><trkpt lat="42.9975133" lon="13.057395"><ele>583.5</ele><time>2026-04-26T12:35:31.235Z</time></trkpt><trkpt lat="42.9976383" lon="13.0571217"><ele>587.0</ele><time>2026-04-26T12:35:32.236Z</time></trkpt><trkpt lat="42.9977833" lon="13.0568633"><ele>583.5</ele><time>2026-04-26T12:35:33.234Z</time></trkpt><trkpt lat="42.997935" lon="13.0566067"><ele>580.0</ele><time>2026-04-26T12:35:34.234Z</time></trkpt><trkpt lat="42.9980883" lon="13.0563617"><ele>580.0</ele><time>2026-04-26T12:35:35.231Z</time></trkpt><trkpt lat="42.9982333" lon="13.0561317"><ele>580.0</ele><time>2026-04-26T12:35:36.236Z</time></trkpt><trkpt lat="42.9983783" lon="13.0559067"><ele>580.0</ele><time>2026-04-26T12:35:37.231Z</time></trkpt><trkpt lat="42.9985183" lon="13.055685"><ele>580.6666666666667</ele><time>2026-04-26T12:35:38.233Z</time></trkpt><trkpt lat="42.9986617" lon="13.0554583"><ele>581.3333333333334</ele><time>2026-04-26T12:35:39.236Z</time></trkpt><trkpt lat="42.9988083" lon="13.0552267"><ele>582.0</ele><time>2026-04-26T12:35:40.235Z</time></trkpt><trkpt lat="42.9989583" lon="13.0549867"><ele>583.5</ele><time>2026-04-26T12:35:41.234Z</time></trkpt><trkpt lat="42.9991117" lon="13.05474"><ele>585.0</ele><time>2026-04-26T12:35:42.235Z</time></trkpt><trkpt lat="42.9992583" lon="13.0544967"><ele>585.0</ele><time>2026-04-26T12:35:43.235Z</time></trkpt><trkpt lat="42.9994017" lon="13.0542633"><ele>585.0</ele><time>2026-04-26T12:35:44.233Z</time></trkpt><trkpt lat="42.9995433" lon="13.0540283"><ele>585.0</ele><time>2026-04-26T12:35:45.235Z</time></trkpt><trkpt lat="42.9996917" lon="13.0538017"><ele>581.3333333333334</ele><time>2026-04-26T12:35:46.232Z</time></trkpt><trkpt lat="42.9998433" lon="13.0535867"><ele>577.6666666666667</ele><time>2026-04-26T12:35:47.231Z</time></trkpt><trkpt lat="42.999995" lon="13.0533733"><ele>574.0</ele><time>2026-04-26T12:35:48.234Z</time></trkpt><trkpt lat="43.0001533" lon="13.0531583"><ele>573.0</ele><time>2026-04-26T12:35:49.235Z</time></trkpt><trkpt lat="43.0003217" lon="13.0529583"><ele>572.0</ele><time>2026-04-26T12:35:50.231Z</time></trkpt><trkpt lat="43.000495" lon="13.05277"><ele>571.0</ele><time>2026-04-26T12:35:51.237Z</time></trkpt><trkpt lat="43.00067" lon="13.0525833"><ele>569.0</ele><time>2026-04-26T12:35:52.233Z</time></trkpt><trkpt lat="43.000855" lon="13.052405"><ele>567.0</ele><time>2026-04-26T12:35:53.232Z</time></trkpt><trkpt lat="43.0010383" lon="13.0522233"><ele>567.0</ele><time>2026-04-26T12:35:54.235Z</time></trkpt><trkpt lat="43.0012267" lon="13.0520417"><ele>567.0</ele><time>2026-04-26T12:35:55.232Z</time></trkpt><trkpt lat="43.0014167" lon="13.05186"><ele>567.0</ele><time>2026-04-26T12:35:56.231Z</time></trkpt><trkpt lat="43.001605" lon="13.0516733"><ele>567.0</ele><time>2026-04-26T12:35:57.235Z</time></trkpt><trkpt lat="43.0017883" lon="13.0514883"><ele>567.0</ele><time>2026-04-26T12:35:58.232Z</time></trkpt><trkpt lat="43.0019667" lon="13.05131"><ele>567.0</ele><time>2026-04-26T12:35:59.233Z</time></trkpt><trkpt lat="43.0021483" lon="13.051145"><ele>567.0</ele><time>2026-04-26T12:36:00.232Z</time></trkpt><trkpt lat="43.0023333" lon="13.0509867"><ele>567.0</ele><time>2026-04-26T12:36:01.237Z</time></trkpt><trkpt lat="43.002525" lon="13.0508383"><ele>567.0</ele><time>2026-04-26T12:36:02.234Z</time></trkpt><trkpt lat="43.00271" lon="13.0506967"><ele>567.0</ele><time>2026-04-26T12:36:03.235Z</time></trkpt><trkpt lat="43.0028967" lon="13.0505667"><ele>567.0</ele><time>2026-04-26T12:36:04.232Z</time></trkpt><trkpt lat="43.00308" lon="13.0504383"><ele>567.0</ele><time>2026-04-26T12:36:05.236Z</time></trkpt><trkpt lat="43.00325" lon="13.0503083"><ele>567.0</ele><time>2026-04-26T12:36:06.233Z</time></trkpt><trkpt lat="43.0034217" lon="13.050185"><ele>566.6666666666666</ele><time>2026-04-26T12:36:07.238Z</time></trkpt><trkpt lat="43.0035883" lon="13.05006"><ele>566.3333333333333</ele><time>2026-04-26T12:36:08.235Z</time></trkpt><trkpt lat="43.0037517" lon="13.04994"><ele>566.0</ele><time>2026-04-26T12:36:09.236Z</time></trkpt><trkpt lat="43.0039167" lon="13.049825"><ele>566.0</ele><time>2026-04-26T12:36:10.241Z</time></trkpt><trkpt lat="43.0040817" lon="13.049715"><ele>566.0</ele><time>2026-04-26T12:36:11.233Z</time></trkpt><trkpt lat="43.004255" lon="13.0496167"><ele>566.0</ele><time>2026-04-26T12:36:12.234Z</time></trkpt><trkpt lat="43.0044283" lon="13.0495283"><ele>564.6666666666666</ele><time>2026-04-26T12:36:13.235Z</time></trkpt><trkpt lat="43.0045967" lon="13.0494517"><ele>563.3333333333334</ele><time>2026-04-26T12:36:14.235Z</time></trkpt><trkpt lat="43.0047633" lon="13.0493817"><ele>562.0</ele><time>2026-04-26T12:36:15.235Z</time></trkpt><trkpt lat="43.0049317" lon="13.0493167"><ele>561.3333333333334</ele><time>2026-04-26T12:36:16.233Z</time></trkpt><trkpt lat="43.0051" lon="13.04925"><ele>560.6666666666666</ele><time>2026-04-26T12:36:17.234Z</time></trkpt><trkpt lat="43.0052783" lon="13.049175"><ele>560.0</ele><time>2026-04-26T12:36:18.237Z</time></trkpt><trkpt lat="43.0054717" lon="13.0490867"><ele>560.0</ele><time>2026-04-26T12:36:19.235Z</time></trkpt><trkpt lat="43.00568" lon="13.0489967"><ele>560.0</ele><time>2026-04-26T12:36:20.234Z</time></trkpt><trkpt lat="43.00592" lon="13.0489117"><ele>560.0</ele><time>2026-04-26T12:36:21.235Z</time></trkpt><trkpt lat="43.0061733" lon="13.04884"><ele>560.0</ele><time>2026-04-26T12:36:22.235Z</time></trkpt><trkpt lat="43.0064267" lon="13.0487867"><ele>558.5</ele><time>2026-04-26T12:36:23.234Z</time></trkpt><trkpt lat="43.00667" lon="13.0487533"><ele>557.0</ele><time>2026-04-26T12:36:24.234Z</time></trkpt><trkpt lat="43.0069017" lon="13.0487183"><ele>557.0</ele><time>2026-04-26T12:36:25.232Z</time></trkpt><trkpt lat="43.0071067" lon="13.0486817"><ele>557.0</ele><time>2026-04-26T12:36:26.235Z</time></trkpt><trkpt lat="43.0072983" lon="13.0486433"><ele>557.0</ele><time>2026-04-26T12:36:27.235Z</time></trkpt><trkpt lat="43.0074817" lon="13.0485983"><ele>557.3333333333333</ele><time>2026-04-26T12:36:28.231Z</time></trkpt><trkpt lat="43.0076833" lon="13.0485483"><ele>557.6666666666666</ele><time>2026-04-26T12:36:29.234Z</time></trkpt><trkpt lat="43.007895" lon="13.04849"><ele>558.0</ele><time>2026-04-26T12:36:30.233Z</time></trkpt><trkpt lat="43.008115" lon="13.0484233"><ele>558.5</ele><time>2026-04-26T12:36:31.233Z</time></trkpt><trkpt lat="43.0083483" lon="13.04834"><ele>559.0</ele><time>2026-04-26T12:36:32.243Z</time></trkpt><trkpt lat="43.0085917" lon="13.0482583"><ele>556.0</ele><time>2026-04-26T12:36:33.236Z</time></trkpt><trkpt lat="43.008825" lon="13.0481933"><ele>553.0</ele><time>2026-04-26T12:36:34.235Z</time></trkpt><trkpt lat="43.0090417" lon="13.0481367"><ele>553.0</ele><time>2026-04-26T12:36:35.234Z</time></trkpt><trkpt lat="43.0092367" lon="13.0480783"><ele>553.0</ele><time>2026-04-26T12:36:36.236Z</time></trkpt><trkpt lat="43.009415" lon="13.048025"><ele>553.0</ele><time>2026-04-26T12:36:37.231Z</time></trkpt><trkpt lat="43.009575" lon="13.0479717"><ele>553.0</ele><time>2026-04-26T12:36:38.231Z</time></trkpt><trkpt lat="43.009715" lon="13.0479217"><ele>553.0</ele><time>2026-04-26T12:36:39.236Z</time></trkpt><trkpt lat="43.0098467" lon="13.0478733"><ele>553.0</ele><time>2026-04-26T12:36:40.234Z</time></trkpt><trkpt lat="43.00997" lon="13.0478267"><ele>553.0</ele><time>2026-04-26T12:36:41.234Z</time></trkpt><trkpt lat="43.0100867" lon="13.0477833"><ele>552.5</ele><time>2026-04-26T12:36:42.235Z</time></trkpt><trkpt lat="43.0102017" lon="13.0477367"><ele>552.0</ele><time>2026-04-26T12:36:43.234Z</time></trkpt><trkpt lat="43.0103167" lon="13.0476767"><ele>551.5</ele><time>2026-04-26T12:36:44.231Z</time></trkpt><trkpt lat="43.0104333" lon="13.0475717"><ele>551.0</ele><time>2026-04-26T12:36:45.234Z</time></trkpt><trkpt lat="43.0105583" lon="13.0474083"><ele>550.0</ele><time>2026-04-26T12:36:46.233Z</time></trkpt><trkpt lat="43.0107" lon="13.0471917"><ele>549.0</ele><time>2026-04-26T12:36:47.234Z</time></trkpt><trkpt lat="43.010865" lon="13.0469283"><ele>552.0</ele><time>2026-04-26T12:36:48.233Z</time></trkpt><trkpt lat="43.0110433" lon="13.046615"><ele>555.0</ele><time>2026-04-26T12:36:49.232Z</time></trkpt><trkpt lat="43.0112233" lon="13.0463033"><ele>555.0</ele><time>2026-04-26T12:36:50.234Z</time></trkpt><trkpt lat="43.0114067" lon="13.0460117"><ele>555.0</ele><time>2026-04-26T12:36:51.237Z</time></trkpt><trkpt lat="43.0115833" lon="13.0457433"><ele>555.0</ele><time>2026-04-26T12:36:52.234Z</time></trkpt><trkpt lat="43.0117417" lon="13.0455033"><ele>555.0</ele><time>2026-04-26T12:36:53.231Z</time></trkpt><trkpt lat="43.01189" lon="13.0452917"><ele>555.0</ele><time>2026-04-26T12:36:54.232Z</time></trkpt><trkpt lat="43.0120417" lon="13.0451367"><ele>555.0</ele><time>2026-04-26T12:36:55.234Z</time></trkpt><trkpt lat="43.0122033" lon="13.0450583"><ele>555.0</ele><time>2026-04-26T12:36:56.238Z</time></trkpt><trkpt lat="43.0123933" lon="13.0450567"><ele>554.6666666666666</ele><time>2026-04-26T12:36:57.231Z</time></trkpt><trkpt lat="43.0126033" lon="13.0451183"><ele>554.3333333333333</ele><time>2026-04-26T12:36:58.234Z</time></trkpt><trkpt lat="43.012825" lon="13.045215"><ele>554.0</ele><time>2026-04-26T12:36:59.236Z</time></trkpt><trkpt lat="43.0130433" lon="13.0453317"><ele>554.0</ele><time>2026-04-26T12:37:00.233Z</time></trkpt><trkpt lat="43.0132433" lon="13.045505"><ele>554.0</ele><time>2026-04-26T12:37:01.235Z</time></trkpt><trkpt lat="43.0134283" lon="13.0457383"><ele>556.0</ele><time>2026-04-26T12:37:02.236Z</time></trkpt><trkpt lat="43.01359" lon="13.0460067"><ele>558.0</ele><time>2026-04-26T12:37:03.236Z</time></trkpt><trkpt lat="43.013745" lon="13.0462383"><ele>558.0</ele><time>2026-04-26T12:37:04.232Z</time></trkpt><trkpt lat="43.01391" lon="13.0464183"><ele>558.0</ele><time>2026-04-26T12:37:05.234Z</time></trkpt><trkpt lat="43.0140783" lon="13.04655"><ele>558.0</ele><time>2026-04-26T12:37:06.235Z</time></trkpt><trkpt lat="43.0142767" lon="13.04661"><ele>553.0</ele><time>2026-04-26T12:37:07.234Z</time></trkpt><trkpt lat="43.014505" lon="13.0465933"><ele>548.0</ele><time>2026-04-26T12:37:08.234Z</time></trkpt><trkpt lat="43.0147583" lon="13.0465883"><ele>548.0</ele><time>2026-04-26T12:37:09.234Z</time></trkpt><trkpt lat="43.0149867" lon="13.0466133"><ele>548.0</ele><time>2026-04-26T12:37:10.233Z</time></trkpt><trkpt lat="43.0151917" lon="13.04669"><ele>548.0</ele><time>2026-04-26T12:37:11.236Z</time></trkpt><trkpt lat="43.0153867" lon="13.0468283"><ele>547.5</ele><time>2026-04-26T12:37:12.236Z</time></trkpt><trkpt lat="43.0155683" lon="13.04702"><ele>547.0</ele><time>2026-04-26T12:37:13.234Z</time></trkpt><trkpt lat="43.0157517" lon="13.0472133"><ele>545.5</ele><time>2026-04-26T12:37:14.234Z</time></trkpt><trkpt lat="43.015965" lon="13.0473683"><ele>544.0</ele><time>2026-04-26T12:37:15.233Z</time></trkpt><trkpt lat="43.0162033" lon="13.0474833"><ele>545.5</ele><time>2026-04-26T12:37:16.232Z</time></trkpt><trkpt lat="43.0164467" lon="13.0475483"><ele>547.0</ele><time>2026-04-26T12:37:17.234Z</time></trkpt><trkpt lat="43.0166817" lon="13.0475717"><ele>547.0</ele><time>2026-04-26T12:37:18.233Z</time></trkpt><trkpt lat="43.0169" lon="13.04759"><ele>547.0</ele><time>2026-04-26T12:37:19.232Z</time></trkpt><trkpt lat="43.0170983" lon="13.0476483"><ele>547.0</ele><time>2026-04-26T12:37:20.233Z</time></trkpt><trkpt lat="43.017285" lon="13.047775"><ele>547.0</ele><time>2026-04-26T12:37:21.234Z</time></trkpt><trkpt lat="43.0174583" lon="13.047955"><ele>547.0</ele><time>2026-04-26T12:37:22.234Z</time></trkpt><trkpt lat="43.0176217" lon="13.0481167"><ele>547.0</ele><time>2026-04-26T12:37:23.233Z</time></trkpt><trkpt lat="43.0177767" lon="13.0482167"><ele>545.0</ele><time>2026-04-26T12:37:24.234Z</time></trkpt><trkpt lat="43.0179383" lon="13.0482617"><ele>543.0</ele><time>2026-04-26T12:37:25.235Z</time></trkpt><trkpt lat="43.0181217" lon="13.0482417"><ele>541.0</ele><time>2026-04-26T12:37:26.232Z</time></trkpt><trkpt lat="43.018345" lon="13.0481367"><ele>537.5</ele><time>2026-04-26T12:37:27.234Z</time></trkpt><trkpt lat="43.0185967" lon="13.0479933"><ele>534.0</ele><time>2026-04-26T12:37:28.235Z</time></trkpt><trkpt lat="43.0188317" lon="13.047805"><ele>534.0</ele><time>2026-04-26T12:37:29.231Z</time></trkpt><trkpt lat="43.01906" lon="13.0475733"><ele>534.0</ele><time>2026-04-26T12:37:30.232Z</time></trkpt><trkpt lat="43.0192633" lon="13.0472833"><ele>533.0</ele><time>2026-04-26T12:37:31.235Z</time></trkpt><trkpt lat="43.0194517" lon="13.0469433"><ele>532.0</ele><time>2026-04-26T12:37:32.233Z</time></trkpt><trkpt lat="43.0196333" lon="13.04658"><ele>533.0</ele><time>2026-04-26T12:37:33.234Z</time></trkpt><trkpt lat="43.0198133" lon="13.0462333"><ele>534.0</ele><time>2026-04-26T12:37:34.232Z</time></trkpt><trkpt lat="43.019985" lon="13.0459067"><ele>533.5</ele><time>2026-04-26T12:37:35.233Z</time></trkpt><trkpt lat="43.020145" lon="13.0456"><ele>533.0</ele><time>2026-04-26T12:37:36.233Z</time></trkpt><trkpt lat="43.020285" lon="13.0452883"><ele>534.5</ele><time>2026-04-26T12:37:37.236Z</time></trkpt><trkpt lat="43.0203833" lon="13.0449517"><ele>536.0</ele><time>2026-04-26T12:37:38.235Z</time></trkpt><trkpt lat="43.02045" lon="13.0445817"><ele>536.0</ele><time>2026-04-26T12:37:39.235Z</time></trkpt><trkpt lat="43.0205" lon="13.04421"><ele>536.0</ele><time>2026-04-26T12:37:40.234Z</time></trkpt><trkpt lat="43.0205517" lon="13.043865"><ele>543.0</ele><time>2026-04-26T12:37:41.234Z</time></trkpt><trkpt lat="43.0206183" lon="13.0435583"><ele>550.0</ele><time>2026-04-26T12:37:42.236Z</time></trkpt><trkpt lat="43.020725" lon="13.04329"><ele>540.0</ele><time>2026-04-26T12:37:43.233Z</time></trkpt><trkpt lat="43.0208717" lon="13.0430333"><ele>530.0</ele><time>2026-04-26T12:37:44.234Z</time></trkpt><trkpt lat="43.0210233" lon="13.0427783"><ele>530.0</ele><time>2026-04-26T12:37:45.238Z</time></trkpt><trkpt lat="43.0211383" lon="13.042525"><ele>530.0</ele><time>2026-04-26T12:37:46.232Z</time></trkpt><trkpt lat="43.02121" lon="13.0422633"><ele>530.0</ele><time>2026-04-26T12:37:47.234Z</time></trkpt><trkpt lat="43.0212283" lon="13.0419883"><ele>531.0</ele><time>2026-04-26T12:37:48.233Z</time></trkpt><trkpt lat="43.0212017" lon="13.0416833"><ele>532.0</ele><time>2026-04-26T12:37:49.236Z</time></trkpt><trkpt lat="43.0211367" lon="13.0413417"><ele>532.0</ele><time>2026-04-26T12:37:50.233Z</time></trkpt><trkpt lat="43.0210483" lon="13.0409717"><ele>532.0</ele><time>2026-04-26T12:37:51.232Z</time></trkpt><trkpt lat="43.02094" lon="13.0406117"><ele>533.0</ele><time>2026-04-26T12:37:52.232Z</time></trkpt><trkpt lat="43.02081" lon="13.040275"><ele>534.0</ele><time>2026-04-26T12:37:53.232Z</time></trkpt><trkpt lat="43.0206717" lon="13.039965"><ele>528.5</ele><time>2026-04-26T12:37:54.233Z</time></trkpt><trkpt lat="43.02055" lon="13.039685"><ele>523.0</ele><time>2026-04-26T12:37:55.232Z</time></trkpt><trkpt lat="43.0204417" lon="13.039425"><ele>523.0</ele><time>2026-04-26T12:37:56.235Z</time></trkpt><trkpt lat="43.02038" lon="13.039145"><ele>523.0</ele><time>2026-04-26T12:37:57.234Z</time></trkpt><trkpt lat="43.020365" lon="13.038825"><ele>523.0</ele><time>2026-04-26T12:37:58.233Z</time></trkpt><trkpt lat="43.0203767" lon="13.03849"><ele>523.5</ele><time>2026-04-26T12:37:59.231Z</time></trkpt><trkpt lat="43.0204117" lon="13.0381583"><ele>524.0</ele><time>2026-04-26T12:38:00.237Z</time></trkpt><trkpt lat="43.0204783" lon="13.0378167"><ele>524.0</ele><time>2026-04-26T12:38:01.235Z</time></trkpt><trkpt lat="43.02058" lon="13.0374933"><ele>524.0</ele><time>2026-04-26T12:38:02.234Z</time></trkpt><trkpt lat="43.0206833" lon="13.0372017"><ele>525.0</ele><time>2026-04-26T12:38:03.235Z</time></trkpt><trkpt lat="43.0207417" lon="13.0369267"><ele>526.0</ele><time>2026-04-26T12:38:04.234Z</time></trkpt><trkpt lat="43.0207483" lon="13.036625"><ele>527.0</ele><time>2026-04-26T12:38:05.233Z</time></trkpt><trkpt lat="43.0207467" lon="13.0363117"><ele>529.5</ele><time>2026-04-26T12:38:06.234Z</time></trkpt><trkpt lat="43.020785" lon="13.0360117"><ele>532.0</ele><time>2026-04-26T12:38:07.234Z</time></trkpt><trkpt lat="43.02087" lon="13.0357033"><ele>525.5</ele><time>2026-04-26T12:38:08.235Z</time></trkpt><trkpt lat="43.021015" lon="13.0353867"><ele>519.0</ele><time>2026-04-26T12:38:09.234Z</time></trkpt><trkpt lat="43.0211817" lon="13.0350717"><ele>518.0</ele><time>2026-04-26T12:38:10.235Z</time></trkpt><trkpt lat="43.0213567" lon="13.0347717"><ele>517.0</ele><time>2026-04-26T12:38:11.234Z</time></trkpt><trkpt lat="43.0215283" lon="13.0344883"><ele>517.0</ele><time>2026-04-26T12:38:12.233Z</time></trkpt><trkpt lat="43.021685" lon="13.034205"><ele>517.0</ele><time>2026-04-26T12:38:13.234Z</time></trkpt><trkpt lat="43.0218317" lon="13.0339317"><ele>527.5</ele><time>2026-04-26T12:38:14.233Z</time></trkpt><trkpt lat="43.0219983" lon="13.0336967"><ele>538.0</ele><time>2026-04-26T12:38:15.236Z</time></trkpt><trkpt lat="43.0221883" lon="13.033515"><ele>538.0</ele><time>2026-04-26T12:38:16.237Z</time></trkpt><trkpt lat="43.0223917" lon="13.0333867"><ele>538.0</ele><time>2026-04-26T12:38:17.233Z</time></trkpt><trkpt lat="43.0225983" lon="13.0333183"><ele>538.0</ele><time>2026-04-26T12:38:18.233Z</time></trkpt><trkpt lat="43.0227967" lon="13.033295"><ele>537.0</ele><time>2026-04-26T12:38:19.234Z</time></trkpt><trkpt lat="43.0229883" lon="13.0333017"><ele>536.0</ele><time>2026-04-26T12:38:20.234Z</time></trkpt><trkpt lat="43.023175" lon="13.03333"><ele>535.0</ele><time>2026-04-26T12:38:21.236Z</time></trkpt><trkpt lat="43.0233467" lon="13.0333733"><ele>534.0</ele><time>2026-04-26T12:38:22.233Z</time></trkpt><trkpt lat="43.02351" lon="13.0334383"><ele>533.0</ele><time>2026-04-26T12:38:23.233Z</time></trkpt><trkpt lat="43.023655" lon="13.03352"><ele>532.0</ele><time>2026-04-26T12:38:24.241Z</time></trkpt><trkpt lat="43.02378" lon="13.0336133"><ele>532.0</ele><time>2026-04-26T12:38:25.231Z</time></trkpt><trkpt lat="43.0239" lon="13.0337017"><ele>532.0</ele><time>2026-04-26T12:38:26.233Z</time></trkpt><trkpt lat="43.0240367" lon="13.0337733"><ele>532.0</ele><time>2026-04-26T12:38:27.233Z</time></trkpt><trkpt lat="43.0242033" lon="13.0338183"><ele>532.6666666666667</ele><time>2026-04-26T12:38:28.232Z</time></trkpt><trkpt lat="43.0244083" lon="13.0338533"><ele>533.3333333333334</ele><time>2026-04-26T12:38:29.234Z</time></trkpt><trkpt lat="43.0246467" lon="13.0338867"><ele>534.0</ele><time>2026-04-26T12:38:30.233Z</time></trkpt><trkpt lat="43.0248833" lon="13.033925"><ele>528.0</ele><time>2026-04-26T12:38:31.235Z</time></trkpt><trkpt lat="43.0251117" lon="13.0339683"><ele>522.0</ele><time>2026-04-26T12:38:32.234Z</time></trkpt><trkpt lat="43.0253417" lon="13.034005"><ele>522.0</ele><time>2026-04-26T12:38:33.238Z</time></trkpt><trkpt lat="43.0255783" lon="13.034055"><ele>522.0</ele><time>2026-04-26T12:38:34.233Z</time></trkpt><trkpt lat="43.0258117" lon="13.03414"><ele>518.0</ele><time>2026-04-26T12:38:35.234Z</time></trkpt><trkpt lat="43.0260517" lon="13.03423"><ele>514.0</ele><time>2026-04-26T12:38:36.234Z</time></trkpt><trkpt lat="43.026295" lon="13.0342783"><ele>514.0</ele><time>2026-04-26T12:38:37.234Z</time></trkpt><trkpt lat="43.0265483" lon="13.0342617"><ele>514.0</ele><time>2026-04-26T12:38:38.235Z</time></trkpt><trkpt lat="43.0268083" lon="13.0342283"><ele>518.0</ele><time>2026-04-26T12:38:39.235Z</time></trkpt><trkpt lat="43.027095" lon="13.0342267"><ele>522.0</ele><time>2026-04-26T12:38:40.235Z</time></trkpt><trkpt lat="43.0274117" lon="13.03426"><ele>519.5</ele><time>2026-04-26T12:38:41.236Z</time></trkpt><trkpt lat="43.0277383" lon="13.03431"><ele>517.0</ele><time>2026-04-26T12:38:42.235Z</time></trkpt><trkpt lat="43.0280567" lon="13.0343717"><ele>517.0</ele><time>2026-04-26T12:38:43.232Z</time></trkpt><trkpt lat="43.0283483" lon="13.03443"><ele>517.0</ele><time>2026-04-26T12:38:44.232Z</time></trkpt><trkpt lat="43.028615" lon="13.034465"><ele>517.0</ele><time>2026-04-26T12:38:45.235Z</time></trkpt><trkpt lat="43.0288583" lon="13.03449"><ele>517.0</ele><time>2026-04-26T12:38:46.234Z</time></trkpt><trkpt lat="43.0290833" lon="13.0345167"><ele>517.3333333333334</ele><time>2026-04-26T12:38:47.235Z</time></trkpt><trkpt lat="43.0292867" lon="13.034545"><ele>517.6666666666666</ele><time>2026-04-26T12:38:48.233Z</time></trkpt><trkpt lat="43.0294783" lon="13.034575"><ele>518.0</ele><time>2026-04-26T12:38:49.236Z</time></trkpt><trkpt lat="43.029665" lon="13.034605"><ele>518.0</ele><time>2026-04-26T12:38:50.234Z</time></trkpt><trkpt lat="43.0298433" lon="13.0346417"><ele>518.0</ele><time>2026-04-26T12:38:51.235Z</time></trkpt><trkpt lat="43.0300133" lon="13.034695"><ele>518.0</ele><time>2026-04-26T12:38:52.232Z</time></trkpt><trkpt lat="43.0301867" lon="13.0347683"><ele>519.0</ele><time>2026-04-26T12:38:53.234Z</time></trkpt><trkpt lat="43.030355" lon="13.0348483"><ele>520.0</ele><time>2026-04-26T12:38:54.235Z</time></trkpt><trkpt lat="43.0305217" lon="13.034945"><ele>521.0</ele><time>2026-04-26T12:38:55.233Z</time></trkpt><trkpt lat="43.0306833" lon="13.03506"><ele>517.3333333333333</ele><time>2026-04-26T12:38:56.232Z</time></trkpt><trkpt lat="43.0308283" lon="13.0351933"><ele>513.6666666666666</ele><time>2026-04-26T12:38:57.233Z</time></trkpt><trkpt lat="43.0309583" lon="13.035335"><ele>510.0</ele><time>2026-04-26T12:38:58.234Z</time></trkpt><trkpt lat="43.0310783" lon="13.03549"><ele>510.0</ele><time>2026-04-26T12:38:59.234Z</time></trkpt><trkpt lat="43.0311833" lon="13.03565"><ele>510.0</ele><time>2026-04-26T12:39:00.234Z</time></trkpt><trkpt lat="43.0312833" lon="13.0358183"><ele>510.0</ele><time>2026-04-26T12:39:01.235Z</time></trkpt><trkpt lat="43.0313833" lon="13.035995"><ele>509.0</ele><time>2026-04-26T12:39:02.235Z</time></trkpt><trkpt lat="43.031485" lon="13.036175"><ele>508.0</ele><time>2026-04-26T12:39:03.235Z</time></trkpt><trkpt lat="43.0316" lon="13.03634"><ele>507.0</ele><time>2026-04-26T12:39:04.233Z</time></trkpt><trkpt lat="43.03173" lon="13.0364717"><ele>507.0</ele><time>2026-04-26T12:39:05.233Z</time></trkpt><trkpt lat="43.0318783" lon="13.0365733"><ele>507.0</ele><time>2026-04-26T12:39:06.231Z</time></trkpt><trkpt lat="43.0320333" lon="13.03664"><ele>507.0</ele><time>2026-04-26T12:39:07.235Z</time></trkpt><trkpt lat="43.032185" lon="13.036685"><ele>505.0</ele><time>2026-04-26T12:39:08.233Z</time></trkpt><trkpt lat="43.0323333" lon="13.0367267"><ele>503.0</ele><time>2026-04-26T12:39:09.235Z</time></trkpt><trkpt lat="43.03248" lon="13.036765"><ele>501.0</ele><time>2026-04-26T12:39:10.231Z</time></trkpt><trkpt lat="43.0326283" lon="13.036805"><ele>500.66666666666663</ele><time>2026-04-26T12:39:11.233Z</time></trkpt><trkpt lat="43.0327767" lon="13.0368483"><ele>500.3333333333333</ele><time>2026-04-26T12:39:12.23Z</time></trkpt><trkpt lat="43.0329283" lon="13.0368883"><ele>500.0</ele><time>2026-04-26T12:39:13.229Z</time></trkpt><trkpt lat="43.0330867" lon="13.0369217"><ele>500.0</ele><time>2026-04-26T12:39:14.228Z</time></trkpt><trkpt lat="43.0332517" lon="13.0369633"><ele>500.0</ele><time>2026-04-26T12:39:15.229Z</time></trkpt><trkpt lat="43.033415" lon="13.0370067"><ele>500.0</ele><time>2026-04-26T12:39:16.231Z</time></trkpt><trkpt lat="43.033575" lon="13.03705"><ele>501.66666666666663</ele><time>2026-04-26T12:39:17.229Z</time></trkpt><trkpt lat="43.0337383" lon="13.0370917"><ele>503.33333333333337</ele><time>2026-04-26T12:39:18.234Z</time></trkpt><trkpt lat="43.0338967" lon="13.0371367"><ele>505.0</ele><time>2026-04-26T12:39:19.234Z</time></trkpt><trkpt lat="43.0340517" lon="13.037175"><ele>510.6666666666667</ele><time>2026-04-26T12:39:20.228Z</time></trkpt><trkpt lat="43.0342133" lon="13.03723"><ele>516.3333333333334</ele><time>2026-04-26T12:39:21.231Z</time></trkpt><trkpt lat="43.0343583" lon="13.0373233"><ele>522.0</ele><time>2026-04-26T12:39:22.234Z</time></trkpt><trkpt lat="43.0344883" lon="13.0374483"><ele>514.3333333333334</ele><time>2026-04-26T12:39:23.232Z</time></trkpt><trkpt lat="43.0346017" lon="13.0375933"><ele>506.6666666666667</ele><time>2026-04-26T12:39:24.23Z</time></trkpt><trkpt lat="43.0347117" lon="13.0377517"><ele>499.0</ele><time>2026-04-26T12:39:25.232Z</time></trkpt><trkpt lat="43.0348083" lon="13.037915"><ele>499.0</ele><time>2026-04-26T12:39:26.234Z</time></trkpt><trkpt lat="43.0349117" lon="13.03808"><ele>499.0</ele><time>2026-04-26T12:39:27.234Z</time></trkpt><trkpt lat="43.0350183" lon="13.0382517"><ele>499.0</ele><time>2026-04-26T12:39:28.234Z</time></trkpt><trkpt lat="43.0351233" lon="13.0384217"><ele>500.0</ele><time>2026-04-26T12:39:29.233Z</time></trkpt><trkpt lat="43.0352283" lon="13.03859"><ele>501.0</ele><time>2026-04-26T12:39:30.239Z</time></trkpt><trkpt lat="43.0353333" lon="13.0387583"><ele>502.0</ele><time>2026-04-26T12:39:31.231Z</time></trkpt><trkpt lat="43.035435" lon="13.0389317"><ele>502.0</ele><time>2026-04-26T12:39:32.235Z</time></trkpt><trkpt lat="43.0355267" lon="13.0391117"><ele>502.0</ele><time>2026-04-26T12:39:33.238Z</time></trkpt><trkpt lat="43.0356167" lon="13.03929"><ele>502.0</ele><time>2026-04-26T12:39:34.233Z</time></trkpt><trkpt lat="43.0357033" lon="13.0394667"><ele>501.25</ele><time>2026-04-26T12:39:35.233Z</time></trkpt><trkpt lat="43.0357867" lon="13.0396383"><ele>500.5</ele><time>2026-04-26T12:39:36.233Z</time></trkpt><trkpt lat="43.0358683" lon="13.0398083"><ele>499.75</ele><time>2026-04-26T12:39:37.234Z</time></trkpt><trkpt lat="43.03595" lon="13.03998"><ele>499.0</ele><time>2026-04-26T12:39:38.233Z</time></trkpt><trkpt lat="43.0360267" lon="13.0401483"><ele>498.25</ele><time>2026-04-26T12:39:39.231Z</time></trkpt><trkpt lat="43.0361067" lon="13.040315"><ele>497.5</ele><time>2026-04-26T12:39:40.232Z</time></trkpt><trkpt lat="43.0361867" lon="13.0404817"><ele>496.75</ele><time>2026-04-26T12:39:41.234Z</time></trkpt><trkpt lat="43.036265" lon="13.0406483"><ele>496.0</ele><time>2026-04-26T12:39:42.233Z</time></trkpt><trkpt lat="43.0363467" lon="13.04082"><ele>498.33333333333337</ele><time>2026-04-26T12:39:43.231Z</time></trkpt><trkpt lat="43.0364283" lon="13.040995"><ele>500.66666666666663</ele><time>2026-04-26T12:39:44.234Z</time></trkpt><trkpt lat="43.03651" lon="13.041175"><ele>503.0</ele><time>2026-04-26T12:39:45.233Z</time></trkpt><trkpt lat="43.036595" lon="13.041355"><ele>501.0</ele><time>2026-04-26T12:39:46.233Z</time></trkpt><trkpt lat="43.036675" lon="13.0415367"><ele>499.0</ele><time>2026-04-26T12:39:47.232Z</time></trkpt><trkpt lat="43.0367467" lon="13.0417233"><ele>497.0</ele><time>2026-04-26T12:39:48.234Z</time></trkpt><trkpt lat="43.0368133" lon="13.0419083"><ele>495.5</ele><time>2026-04-26T12:39:49.233Z</time></trkpt><trkpt lat="43.0368767" lon="13.04209"><ele>494.0</ele><time>2026-04-26T12:39:50.232Z</time></trkpt><trkpt lat="43.0369367" lon="13.0422733"><ele>492.5</ele><time>2026-04-26T12:39:51.236Z</time></trkpt><trkpt lat="43.0369933" lon="13.04246"><ele>491.0</ele><time>2026-04-26T12:39:52.233Z</time></trkpt><trkpt lat="43.0370517" lon="13.04265"><ele>489.3333333333333</ele><time>2026-04-26T12:39:53.232Z</time></trkpt><trkpt lat="43.03711" lon="13.0428417"><ele>487.66666666666663</ele><time>2026-04-26T12:39:54.234Z</time></trkpt><trkpt lat="43.0371667" lon="13.0430367"><ele>486.0</ele><time>2026-04-26T12:39:55.234Z</time></trkpt><trkpt lat="43.0372233" lon="13.04323"><ele>485.33333333333337</ele><time>2026-04-26T12:39:56.235Z</time></trkpt><trkpt lat="43.0372867" lon="13.04342"><ele>484.6666666666667</ele><time>2026-04-26T12:39:57.234Z</time></trkpt><trkpt lat="43.0373483" lon="13.0436133"><ele>484.0</ele><time>2026-04-26T12:39:58.234Z</time></trkpt><trkpt lat="43.0374083" lon="13.0438083"><ele>484.0</ele><time>2026-04-26T12:39:59.235Z</time></trkpt><trkpt lat="43.0374667" lon="13.04401"><ele>484.0</ele><time>2026-04-26T12:40:00.231Z</time></trkpt><trkpt lat="43.0375233" lon="13.0442117"><ele>484.0</ele><time>2026-04-26T12:40:01.233Z</time></trkpt><trkpt lat="43.037585" lon="13.04441"><ele>483.6666666666667</ele><time>2026-04-26T12:40:02.232Z</time></trkpt><trkpt lat="43.0376517" lon="13.0446067"><ele>483.33333333333337</ele><time>2026-04-26T12:40:03.237Z</time></trkpt><trkpt lat="43.0377283" lon="13.0447967"><ele>483.0</ele><time>2026-04-26T12:40:04.232Z</time></trkpt><trkpt lat="43.0378117" lon="13.0449783"><ele>482.33333333333337</ele><time>2026-04-26T12:40:05.231Z</time></trkpt><trkpt lat="43.037895" lon="13.0451533"><ele>481.6666666666667</ele><time>2026-04-26T12:40:06.232Z</time></trkpt><trkpt lat="43.037985" lon="13.0453217"><ele>481.0</ele><time>2026-04-26T12:40:07.238Z</time></trkpt><trkpt lat="43.0380783" lon="13.0454817"><ele>481.0</ele><time>2026-04-26T12:40:08.233Z</time></trkpt><trkpt lat="43.0381783" lon="13.0456367"><ele>481.0</ele><time>2026-04-26T12:40:09.239Z</time></trkpt><trkpt lat="43.038285" lon="13.0457867"><ele>481.0</ele><time>2026-04-26T12:40:10.233Z</time></trkpt><trkpt lat="43.0383967" lon="13.0459317"><ele>480.33333333333337</ele><time>2026-04-26T12:40:11.236Z</time></trkpt><trkpt lat="43.0385117" lon="13.0460767"><ele>479.66666666666663</ele><time>2026-04-26T12:40:12.231Z</time></trkpt><trkpt lat="43.0386317" lon="13.0462117"><ele>479.0</ele><time>2026-04-26T12:40:13.236Z</time></trkpt><trkpt lat="43.0387517" lon="13.046345"><ele>479.0</ele><time>2026-04-26T12:40:14.232Z</time></trkpt><trkpt lat="43.03888" lon="13.0464667"><ele>479.0</ele><time>2026-04-26T12:40:15.237Z</time></trkpt><trkpt lat="43.0390133" lon="13.0465783"><ele>479.0</ele><time>2026-04-26T12:40:16.234Z</time></trkpt><trkpt lat="43.0391433" lon="13.0466883"><ele>479.66666666666663</ele><time>2026-04-26T12:40:17.232Z</time></trkpt><trkpt lat="43.0392733" lon="13.0468033"><ele>480.33333333333337</ele><time>2026-04-26T12:40:18.231Z</time></trkpt><trkpt lat="43.039405" lon="13.0469117"><ele>481.0</ele><time>2026-04-26T12:40:19.233Z</time></trkpt><trkpt lat="43.0395383" lon="13.0470183"><ele>481.0</ele><time>2026-04-26T12:40:20.232Z</time></trkpt><trkpt lat="43.03967" lon="13.0471233"><ele>481.0</ele><time>2026-04-26T12:40:21.234Z</time></trkpt><trkpt lat="43.0398067" lon="13.0472317"><ele>481.0</ele><time>2026-04-26T12:40:22.233Z</time></trkpt><trkpt lat="43.0399433" lon="13.047335"><ele>480.0</ele><time>2026-04-26T12:40:23.232Z</time></trkpt><trkpt lat="43.0400717" lon="13.0474417"><ele>479.0</ele><time>2026-04-26T12:40:24.235Z</time></trkpt><trkpt lat="43.0402033" lon="13.0475483"><ele>478.0</ele><time>2026-04-26T12:40:25.234Z</time></trkpt><trkpt lat="43.0403383" lon="13.0476567"><ele>478.0</ele><time>2026-04-26T12:40:26.235Z</time></trkpt><trkpt lat="43.0404667" lon="13.0477667"><ele>478.0</ele><time>2026-04-26T12:40:27.238Z</time></trkpt><trkpt lat="43.0406033" lon="13.0478717"><ele>478.0</ele><time>2026-04-26T12:40:28.236Z</time></trkpt><trkpt lat="43.0407317" lon="13.04798"><ele>477.33333333333337</ele><time>2026-04-26T12:40:29.236Z</time></trkpt><trkpt lat="43.04086" lon="13.0480983"><ele>476.66666666666663</ele><time>2026-04-26T12:40:30.236Z</time></trkpt><trkpt lat="43.0409817" lon="13.0482183"><ele>476.0</ele><time>2026-04-26T12:40:31.237Z</time></trkpt><trkpt lat="43.0411017" lon="13.048335"><ele>476.0</ele><time>2026-04-26T12:40:32.235Z</time></trkpt><trkpt lat="43.041225" lon="13.04845"><ele>476.0</ele><time>2026-04-26T12:40:33.235Z</time></trkpt><trkpt lat="43.04135" lon="13.048565"><ele>476.0</ele><time>2026-04-26T12:40:34.234Z</time></trkpt><trkpt lat="43.0414683" lon="13.0486817"><ele>476.0</ele><time>2026-04-26T12:40:35.231Z</time></trkpt><trkpt lat="43.041585" lon="13.048795"><ele>475.75</ele><time>2026-04-26T12:40:36.232Z</time></trkpt><trkpt lat="43.0417017" lon="13.0489067"><ele>475.5</ele><time>2026-04-26T12:40:37.234Z</time></trkpt><trkpt lat="43.0418167" lon="13.0490233"><ele>475.25</ele><time>2026-04-26T12:40:38.233Z</time></trkpt><trkpt lat="43.0419283" lon="13.0491417"><ele>475.0</ele><time>2026-04-26T12:40:39.232Z</time></trkpt><trkpt lat="43.042045" lon="13.0492633"><ele>474.25</ele><time>2026-04-26T12:40:40.233Z</time></trkpt><trkpt lat="43.0421667" lon="13.0493783"><ele>473.5</ele><time>2026-04-26T12:40:41.234Z</time></trkpt><trkpt lat="43.042285" lon="13.0494967"><ele>472.75</ele><time>2026-04-26T12:40:42.233Z</time></trkpt><trkpt lat="43.0424017" lon="13.0496117"><ele>472.0</ele><time>2026-04-26T12:40:43.233Z</time></trkpt><trkpt lat="43.0425217" lon="13.0497283"><ele>472.0</ele><time>2026-04-26T12:40:44.232Z</time></trkpt><trkpt lat="43.042645" lon="13.0498433"><ele>472.0</ele><time>2026-04-26T12:40:45.233Z</time></trkpt><trkpt lat="43.0427717" lon="13.0499533"><ele>472.0</ele><time>2026-04-26T12:40:46.234Z</time></trkpt><trkpt lat="43.042895" lon="13.050065"><ele>472.0</ele><time>2026-04-26T12:40:47.232Z</time></trkpt><trkpt lat="43.0430167" lon="13.0501717"><ele>471.75</ele><time>2026-04-26T12:40:48.234Z</time></trkpt><trkpt lat="43.0431367" lon="13.0502767"><ele>471.5</ele><time>2026-04-26T12:40:49.237Z</time></trkpt><trkpt lat="43.043255" lon="13.0503783"><ele>471.25</ele><time>2026-04-26T12:40:50.234Z</time></trkpt><trkpt lat="43.043375" lon="13.05048"><ele>471.0</ele><time>2026-04-26T12:40:51.234Z</time></trkpt><trkpt lat="43.0435" lon="13.05058"><ele>471.0</ele><time>2026-04-26T12:40:52.235Z</time></trkpt><trkpt lat="43.0436217" lon="13.0506817"><ele>471.0</ele><time>2026-04-26T12:40:53.233Z</time></trkpt><trkpt lat="43.0437417" lon="13.05079"><ele>471.0</ele><time>2026-04-26T12:40:54.234Z</time></trkpt><trkpt lat="43.043865" lon="13.0509"><ele>471.0</ele><time>2026-04-26T12:40:55.234Z</time></trkpt><trkpt lat="43.043985" lon="13.051005"><ele>471.25</ele><time>2026-04-26T12:40:56.234Z</time></trkpt><trkpt lat="43.0441067" lon="13.051105"><ele>471.5</ele><time>2026-04-26T12:40:57.236Z</time></trkpt><trkpt lat="43.04423" lon="13.051205"><ele>471.75</ele><time>2026-04-26T12:40:58.235Z</time></trkpt><trkpt lat="43.0443567" lon="13.0513067"><ele>472.0</ele><time>2026-04-26T12:40:59.235Z</time></trkpt><trkpt lat="43.04448" lon="13.0514133"><ele>472.0</ele><time>2026-04-26T12:41:00.233Z</time></trkpt><trkpt lat="43.0446033" lon="13.051515"><ele>472.0</ele><time>2026-04-26T12:41:01.235Z</time></trkpt><trkpt lat="43.044725" lon="13.0516167"><ele>472.0</ele><time>2026-04-26T12:41:02.238Z</time></trkpt><trkpt lat="43.0448483" lon="13.0517117"><ele>472.0</ele><time>2026-04-26T12:41:03.238Z</time></trkpt><trkpt lat="43.0449817" lon="13.0518"><ele>471.0</ele><time>2026-04-26T12:41:04.238Z</time></trkpt><trkpt lat="43.0451183" lon="13.0518833"><ele>470.0</ele><time>2026-04-26T12:41:05.235Z</time></trkpt><trkpt lat="43.0452583" lon="13.0519517"><ele>469.0</ele><time>2026-04-26T12:41:06.232Z</time></trkpt><trkpt lat="43.0454017" lon="13.0520033"><ele>468.0</ele><time>2026-04-26T12:41:07.236Z</time></trkpt><trkpt lat="43.0455467" lon="13.052045"><ele>468.0</ele><time>2026-04-26T12:41:08.234Z</time></trkpt><trkpt lat="43.0456917" lon="13.0520683"><ele>468.0</ele><time>2026-04-26T12:41:09.234Z</time></trkpt><trkpt lat="43.04584" lon="13.052085"><ele>468.0</ele><time>2026-04-26T12:41:10.233Z</time></trkpt><trkpt lat="43.0459917" lon="13.052095"><ele>468.0</ele><time>2026-04-26T12:41:11.234Z</time></trkpt><trkpt lat="43.046135" lon="13.0520967"><ele>468.25</ele><time>2026-04-26T12:41:12.232Z</time></trkpt><trkpt lat="43.0462767" lon="13.0520967"><ele>468.5</ele><time>2026-04-26T12:41:13.232Z</time></trkpt><trkpt lat="43.0464183" lon="13.0521017"><ele>468.75</ele><time>2026-04-26T12:41:14.233Z</time></trkpt><trkpt lat="43.0465583" lon="13.0521267"><ele>469.0</ele><time>2026-04-26T12:41:15.234Z</time></trkpt><trkpt lat="43.0466983" lon="13.0521683"><ele>469.6666666666667</ele><time>2026-04-26T12:41:16.229Z</time></trkpt><trkpt lat="43.0468483" lon="13.0522317"><ele>470.33333333333337</ele><time>2026-04-26T12:41:17.233Z</time></trkpt><trkpt lat="43.0469933" lon="13.052305"><ele>471.0</ele><time>2026-04-26T12:41:18.232Z</time></trkpt><trkpt lat="43.0471333" lon="13.0523783"><ele>471.0</ele><time>2026-04-26T12:41:19.233Z</time></trkpt><trkpt lat="43.0472717" lon="13.05245"><ele>471.0</ele><time>2026-04-26T12:41:20.231Z</time></trkpt><trkpt lat="43.0474117" lon="13.0525167"><ele>471.0</ele><time>2026-04-26T12:41:21.239Z</time></trkpt><trkpt lat="43.0475533" lon="13.0525817"><ele>471.0</ele><time>2026-04-26T12:41:22.233Z</time></trkpt><trkpt lat="43.0476983" lon="13.0526483"><ele>469.0</ele><time>2026-04-26T12:41:23.233Z</time></trkpt><trkpt lat="43.047845" lon="13.052715"><ele>467.0</ele><time>2026-04-26T12:41:24.233Z</time></trkpt><trkpt lat="43.04799" lon="13.0527833"><ele>465.0</ele><time>2026-04-26T12:41:25.234Z</time></trkpt><trkpt lat="43.0481283" lon="13.0528467"><ele>465.0</ele><time>2026-04-26T12:41:26.231Z</time></trkpt><trkpt lat="43.0482567" lon="13.05291"><ele>465.0</ele><time>2026-04-26T12:41:27.234Z</time></trkpt><trkpt lat="43.0483817" lon="13.0529717"><ele>465.0</ele><time>2026-04-26T12:41:28.232Z</time></trkpt><trkpt lat="43.0485017" lon="13.0530333"><ele>465.0</ele><time>2026-04-26T12:41:29.233Z</time></trkpt><trkpt lat="43.0486183" lon="13.0530967"><ele>465.25</ele><time>2026-04-26T12:41:30.233Z</time></trkpt><trkpt lat="43.048735" lon="13.0531583"><ele>465.5</ele><time>2026-04-26T12:41:31.233Z</time></trkpt><trkpt lat="43.04885" lon="13.0532217"><ele>465.75</ele><time>2026-04-26T12:41:32.233Z</time></trkpt><trkpt lat="43.0489617" lon="13.053285"><ele>466.0</ele><time>2026-04-26T12:41:33.235Z</time></trkpt><trkpt lat="43.04907" lon="13.05335"><ele>465.25</ele><time>2026-04-26T12:41:34.231Z</time></trkpt><trkpt lat="43.049185" lon="13.05342"><ele>464.5</ele><time>2026-04-26T12:41:35.233Z</time></trkpt><trkpt lat="43.049305" lon="13.0535"><ele>463.75</ele><time>2026-04-26T12:41:36.236Z</time></trkpt><trkpt lat="43.04942" lon="13.0535883"><ele>463.0</ele><time>2026-04-26T12:41:37.231Z</time></trkpt><trkpt lat="43.0495367" lon="13.0536833"><ele>463.0</ele><time>2026-04-26T12:41:38.235Z</time></trkpt><trkpt lat="43.0496483" lon="13.0537783"><ele>463.0</ele><time>2026-04-26T12:41:39.236Z</time></trkpt><trkpt lat="43.0497583" lon="13.0538733"><ele>463.0</ele><time>2026-04-26T12:41:40.234Z</time></trkpt><trkpt lat="43.04987" lon="13.0539617"><ele>463.0</ele><time>2026-04-26T12:41:41.234Z</time></trkpt><trkpt lat="43.049975" lon="13.0540483"><ele>462.25</ele><time>2026-04-26T12:41:42.231Z</time></trkpt><trkpt lat="43.0500783" lon="13.0541417"><ele>461.5</ele><time>2026-04-26T12:41:43.233Z</time></trkpt><trkpt lat="43.0501833" lon="13.054235"><ele>460.75</ele><time>2026-04-26T12:41:44.233Z</time></trkpt><trkpt lat="43.050285" lon="13.0543283"><ele>460.0</ele><time>2026-04-26T12:41:45.238Z</time></trkpt><trkpt lat="43.0503867" lon="13.0544233"><ele>460.0</ele><time>2026-04-26T12:41:46.233Z</time></trkpt><trkpt lat="43.05049" lon="13.05452"><ele>460.0</ele><time>2026-04-26T12:41:47.232Z</time></trkpt><trkpt lat="43.0505933" lon="13.0546133"><ele>460.0</ele><time>2026-04-26T12:41:48.234Z</time></trkpt><trkpt lat="43.0507" lon="13.0547067"><ele>460.0</ele><time>2026-04-26T12:41:49.234Z</time></trkpt><trkpt lat="43.050805" lon="13.0548017"><ele>459.75</ele><time>2026-04-26T12:41:50.236Z</time></trkpt><trkpt lat="43.0509133" lon="13.0548967"><ele>459.5</ele><time>2026-04-26T12:41:51.234Z</time></trkpt><trkpt lat="43.0510217" lon="13.0549933"><ele>459.25</ele><time>2026-04-26T12:41:52.232Z</time></trkpt><trkpt lat="43.0511317" lon="13.05509"><ele>459.0</ele><time>2026-04-26T12:41:53.231Z</time></trkpt><trkpt lat="43.0512417" lon="13.0551883"><ele>458.75</ele><time>2026-04-26T12:41:54.234Z</time></trkpt><trkpt lat="43.0513483" lon="13.055285"><ele>458.5</ele><time>2026-04-26T12:41:55.232Z</time></trkpt><trkpt lat="43.0514483" lon="13.0553767"><ele>458.25</ele><time>2026-04-26T12:41:56.234Z</time></trkpt><trkpt lat="43.0515467" lon="13.05547"><ele>458.0</ele><time>2026-04-26T12:41:57.234Z</time></trkpt><trkpt lat="43.051645" lon="13.05556"><ele>458.2</ele><time>2026-04-26T12:41:58.233Z</time></trkpt><trkpt lat="43.0517367" lon="13.055645"><ele>458.4</ele><time>2026-04-26T12:41:59.233Z</time></trkpt><trkpt lat="43.0518217" lon="13.0557283"><ele>458.59999999999997</ele><time>2026-04-26T12:42:00.238Z</time></trkpt><trkpt lat="43.0519017" lon="13.0558083"><ele>458.79999999999995</ele><time>2026-04-26T12:42:01.233Z</time></trkpt><trkpt lat="43.051985" lon="13.0558917"><ele>459.0</ele><time>2026-04-26T12:42:02.234Z</time></trkpt><trkpt lat="43.0520667" lon="13.0559817"><ele>459.0</ele><time>2026-04-26T12:42:03.234Z</time></trkpt><trkpt lat="43.0521433" lon="13.0560833"><ele>459.0</ele><time>2026-04-26T12:42:04.234Z</time></trkpt><trkpt lat="43.0522167" lon="13.0561867"><ele>459.0</ele><time>2026-04-26T12:42:05.237Z</time></trkpt><trkpt lat="43.05229" lon="13.0562833"><ele>459.0</ele><time>2026-04-26T12:42:06.233Z</time></trkpt><trkpt lat="43.0523617" lon="13.0563817"><ele>459.0</ele><time>2026-04-26T12:42:07.232Z</time></trkpt><trkpt lat="43.0524367" lon="13.0564733"><ele>459.0</ele><time>2026-04-26T12:42:08.233Z</time></trkpt><trkpt lat="43.052515" lon="13.0565767"><ele>459.0</ele><time>2026-04-26T12:42:09.233Z</time></trkpt><trkpt lat="43.0525967" lon="13.056675"><ele>459.0</ele><time>2026-04-26T12:42:10.233Z</time></trkpt><trkpt lat="43.0526767" lon="13.0567767"><ele>459.0</ele><time>2026-04-26T12:42:11.233Z</time></trkpt><trkpt lat="43.052755" lon="13.0568733"><ele>459.0</ele><time>2026-04-26T12:42:12.234Z</time></trkpt><trkpt lat="43.0528333" lon="13.0569667"><ele>459.0</ele><time>2026-04-26T12:42:13.231Z</time></trkpt><trkpt lat="43.0529117" lon="13.0570617"><ele>459.0</ele><time>2026-04-26T12:42:14.232Z</time></trkpt><trkpt lat="43.0529883" lon="13.0571467"><ele>459.0</ele><time>2026-04-26T12:42:15.234Z</time></trkpt><trkpt lat="43.0530667" lon="13.057235"><ele>459.0</ele><time>2026-04-26T12:42:16.234Z</time></trkpt><trkpt lat="43.0531467" lon="13.0573267"><ele>459.0</ele><time>2026-04-26T12:42:17.234Z</time></trkpt><trkpt lat="43.0532283" lon="13.0574133"><ele>458.6</ele><time>2026-04-26T12:42:18.232Z</time></trkpt><trkpt lat="43.0533117" lon="13.0575017"><ele>458.2</ele><time>2026-04-26T12:42:19.237Z</time></trkpt><trkpt lat="43.0533967" lon="13.0575917"><ele>457.80000000000007</ele><time>2026-04-26T12:42:20.236Z</time></trkpt><trkpt lat="43.053485" lon="13.05768"><ele>457.40000000000003</ele><time>2026-04-26T12:42:21.236Z</time></trkpt><trkpt lat="43.053575" lon="13.05776"><ele>457.0</ele><time>2026-04-26T12:42:22.233Z</time></trkpt><trkpt lat="43.0536667" lon="13.0578383"><ele>457.0</ele><time>2026-04-26T12:42:23.233Z</time></trkpt><trkpt lat="43.0537567" lon="13.0579133"><ele>457.00000000000006</ele><time>2026-04-26T12:42:24.232Z</time></trkpt><trkpt lat="43.05385" lon="13.0579867"><ele>457.00000000000006</ele><time>2026-04-26T12:42:25.234Z</time></trkpt><trkpt lat="43.053945" lon="13.0580567"><ele>457.0</ele><time>2026-04-26T12:42:26.235Z</time></trkpt><trkpt lat="43.0540383" lon="13.058125"><ele>457.0</ele><time>2026-04-26T12:42:27.233Z</time></trkpt><trkpt lat="43.05413" lon="13.0581817"><ele>457.20000000000005</ele><time>2026-04-26T12:42:28.231Z</time></trkpt><trkpt lat="43.054215" lon="13.0582367"><ele>457.40000000000003</ele><time>2026-04-26T12:42:29.233Z</time></trkpt><trkpt lat="43.0543017" lon="13.058285"><ele>457.59999999999997</ele><time>2026-04-26T12:42:30.234Z</time></trkpt><trkpt lat="43.054385" lon="13.0583383"><ele>457.79999999999995</ele><time>2026-04-26T12:42:31.233Z</time></trkpt><trkpt lat="43.0544683" lon="13.0583933"><ele>458.0</ele><time>2026-04-26T12:42:32.235Z</time></trkpt><trkpt lat="43.0545467" lon="13.0584483"><ele>458.0</ele><time>2026-04-26T12:42:33.236Z</time></trkpt><trkpt lat="43.054615" lon="13.058495"><ele>457.99999999999994</ele><time>2026-04-26T12:42:34.231Z</time></trkpt><trkpt lat="43.054715" lon="13.058565"><ele>457.99999999999994</ele><time>2026-04-26T12:42:36.236Z</time></trkpt><trkpt lat="43.0547817" lon="13.05862"><ele>458.0</ele><time>2026-04-26T12:42:38.231Z</time></trkpt><trkpt lat="43.0548867" lon="13.05866"><ele>458.0</ele><time>2026-04-26T12:42:44.235Z</time></trkpt><trkpt lat="43.0549533" lon="13.0587067"><ele>458.79999999999995</ele><time>2026-04-26T12:42:45.233Z</time></trkpt><trkpt lat="43.0550233" lon="13.0587533"><ele>459.59999999999997</ele><time>2026-04-26T12:42:46.232Z</time></trkpt><trkpt lat="43.05511" lon="13.05881"><ele>460.40000000000003</ele><time>2026-04-26T12:42:47.233Z</time></trkpt><trkpt lat="43.055195" lon="13.05887"><ele>461.20000000000005</ele><time>2026-04-26T12:42:48.233Z</time></trkpt><trkpt lat="43.0553" lon="13.0589467"><ele>462.0</ele><time>2026-04-26T12:42:49.227Z</time></trkpt><trkpt lat="43.0554167" lon="13.05903"><ele>461.33333333333337</ele><time>2026-04-26T12:42:50.234Z</time></trkpt><trkpt lat="43.055545" lon="13.0591217"><ele>460.6666666666667</ele><time>2026-04-26T12:42:51.234Z</time></trkpt><trkpt lat="43.0556933" lon="13.0592217"><ele>460.0</ele><time>2026-04-26T12:42:52.233Z</time></trkpt><trkpt lat="43.0558717" lon="13.05934"><ele>460.0</ele><time>2026-04-26T12:42:53.231Z</time></trkpt><trkpt lat="43.0560433" lon="13.0594633"><ele>460.0</ele><time>2026-04-26T12:42:54.23Z</time></trkpt><trkpt lat="43.0562067" lon="13.0595817"><ele>460.0</ele><time>2026-04-26T12:42:55.235Z</time></trkpt><trkpt lat="43.0563767" lon="13.0597"><ele>460.0</ele><time>2026-04-26T12:42:56.237Z</time></trkpt><trkpt lat="43.0565617" lon="13.0598267"><ele>460.0</ele><time>2026-04-26T12:42:57.236Z</time></trkpt><trkpt lat="43.056765" lon="13.0599667"><ele>460.0</ele><time>2026-04-26T12:42:58.233Z</time></trkpt><trkpt lat="43.0569767" lon="13.0601217"><ele>457.0</ele><time>2026-04-26T12:42:59.234Z</time></trkpt><trkpt lat="43.0571917" lon="13.060285"><ele>454.0</ele><time>2026-04-26T12:43:00.235Z</time></trkpt><trkpt lat="43.0574083" lon="13.060445"><ele>456.5</ele><time>2026-04-26T12:43:01.233Z</time></trkpt><trkpt lat="43.0576167" lon="13.0605883"><ele>459.0</ele><time>2026-04-26T12:43:02.236Z</time></trkpt><trkpt lat="43.0578183" lon="13.060725"><ele>454.5</ele><time>2026-04-26T12:43:03.235Z</time></trkpt><trkpt lat="43.0580267" lon="13.0608633"><ele>450.0</ele><time>2026-04-26T12:43:04.23Z</time></trkpt><trkpt lat="43.058235" lon="13.061005"><ele>451.5</ele><time>2026-04-26T12:43:05.232Z</time></trkpt><trkpt lat="43.0584483" lon="13.0611233"><ele>453.0</ele><time>2026-04-26T12:43:06.234Z</time></trkpt><trkpt lat="43.05866" lon="13.0612233"><ele>453.0</ele><time>2026-04-26T12:43:07.235Z</time></trkpt><trkpt lat="43.05887" lon="13.06132"><ele>453.0</ele><time>2026-04-26T12:43:08.233Z</time></trkpt><trkpt lat="43.0590833" lon="13.061395"><ele>453.0</ele><time>2026-04-26T12:43:09.237Z</time></trkpt><trkpt lat="43.0592967" lon="13.0614533"><ele>453.33333333333337</ele><time>2026-04-26T12:43:10.234Z</time></trkpt><trkpt lat="43.05951" lon="13.0615117"><ele>453.6666666666667</ele><time>2026-04-26T12:43:11.234Z</time></trkpt><trkpt lat="43.0597367" lon="13.06156"><ele>454.0</ele><time>2026-04-26T12:43:12.232Z</time></trkpt><trkpt lat="43.0599733" lon="13.0615917"><ele>450.5</ele><time>2026-04-26T12:43:13.235Z</time></trkpt><trkpt lat="43.060215" lon="13.0616383"><ele>447.0</ele><time>2026-04-26T12:43:14.235Z</time></trkpt><trkpt lat="43.0604533" lon="13.0616983"><ele>447.0</ele><time>2026-04-26T12:43:15.232Z</time></trkpt><trkpt lat="43.06069" lon="13.061755"><ele>447.0</ele><time>2026-04-26T12:43:16.237Z</time></trkpt><trkpt lat="43.0609233" lon="13.0618017"><ele>447.5</ele><time>2026-04-26T12:43:17.231Z</time></trkpt><trkpt lat="43.0611517" lon="13.0618467"><ele>448.0</ele><time>2026-04-26T12:43:18.233Z</time></trkpt><trkpt lat="43.06138" lon="13.0618983"><ele>448.0</ele><time>2026-04-26T12:43:19.232Z</time></trkpt><trkpt lat="43.0616117" lon="13.06195"><ele>448.0</ele><time>2026-04-26T12:43:20.233Z</time></trkpt><trkpt lat="43.0618583" lon="13.0620067"><ele>447.5</ele><time>2026-04-26T12:43:21.234Z</time></trkpt><trkpt lat="43.0621067" lon="13.062065"><ele>447.0</ele><time>2026-04-26T12:43:22.233Z</time></trkpt><trkpt lat="43.0623617" lon="13.0621217"><ele>446.0</ele><time>2026-04-26T12:43:23.241Z</time></trkpt><trkpt lat="43.0626167" lon="13.0621733"><ele>445.0</ele><time>2026-04-26T12:43:24.233Z</time></trkpt><trkpt lat="43.0628683" lon="13.0622233"><ele>445.0</ele><time>2026-04-26T12:43:25.236Z</time></trkpt><trkpt lat="43.0631183" lon="13.0622717"><ele>445.0</ele><time>2026-04-26T12:43:26.233Z</time></trkpt><trkpt lat="43.06337" lon="13.0623133"><ele>445.0</ele><time>2026-04-26T12:43:27.239Z</time></trkpt><trkpt lat="43.0636183" lon="13.0623617"><ele>445.0</ele><time>2026-04-26T12:43:28.235Z</time></trkpt><trkpt lat="43.0638667" lon="13.0624117"><ele>443.0</ele><time>2026-04-26T12:43:29.235Z</time></trkpt><trkpt lat="43.0641133" lon="13.0624617"><ele>441.0</ele><time>2026-04-26T12:43:30.232Z</time></trkpt><trkpt lat="43.0643533" lon="13.0625083"><ele>441.0</ele><time>2026-04-26T12:43:31.234Z</time></trkpt><trkpt lat="43.06458" lon="13.0625483"><ele>441.0</ele><time>2026-04-26T12:43:32.235Z</time></trkpt><trkpt lat="43.0647967" lon="13.0625867"><ele>441.0</ele><time>2026-04-26T12:43:33.234Z</time></trkpt><trkpt lat="43.0650083" lon="13.062625"><ele>441.0</ele><time>2026-04-26T12:43:34.234Z</time></trkpt><trkpt lat="43.065225" lon="13.0626583"><ele>441.0</ele><time>2026-04-26T12:43:35.233Z</time></trkpt><trkpt lat="43.0654533" lon="13.0626967"><ele>441.0</ele><time>2026-04-26T12:43:36.232Z</time></trkpt><trkpt lat="43.06569" lon="13.0627417"><ele>444.0</ele><time>2026-04-26T12:43:37.234Z</time></trkpt><trkpt lat="43.0659283" lon="13.062795"><ele>447.0</ele><time>2026-04-26T12:43:38.234Z</time></trkpt><trkpt lat="43.0661683" lon="13.0628533"><ele>447.0</ele><time>2026-04-26T12:43:39.234Z</time></trkpt><trkpt lat="43.066405" lon="13.0629167"><ele>447.0</ele><time>2026-04-26T12:43:40.234Z</time></trkpt><trkpt lat="43.066645" lon="13.06297"><ele>447.0</ele><time>2026-04-26T12:43:41.232Z</time></trkpt><trkpt lat="43.0668867" lon="13.0630267"><ele>447.0</ele><time>2026-04-26T12:43:42.233Z</time></trkpt><trkpt lat="43.067125" lon="13.063085"><ele>447.0</ele><time>2026-04-26T12:43:43.235Z</time></trkpt><trkpt lat="43.0673683" lon="13.063145"><ele>447.0</ele><time>2026-04-26T12:43:44.235Z</time></trkpt><trkpt lat="43.0676117" lon="13.0632"><ele>444.0</ele><time>2026-04-26T12:43:45.236Z</time></trkpt><trkpt lat="43.0678533" lon="13.0632567"><ele>441.0</ele><time>2026-04-26T12:43:46.233Z</time></trkpt><trkpt lat="43.0680967" lon="13.0633067"><ele>437.0</ele><time>2026-04-26T12:43:47.232Z</time></trkpt><trkpt lat="43.06834" lon="13.0633533"><ele>433.0</ele><time>2026-04-26T12:43:48.234Z</time></trkpt><trkpt lat="43.06858" lon="13.0634"><ele>433.0</ele><time>2026-04-26T12:43:49.236Z</time></trkpt><trkpt lat="43.06882" lon="13.0634417"><ele>433.0</ele><time>2026-04-26T12:43:50.234Z</time></trkpt><trkpt lat="43.0690617" lon="13.0634833"><ele>433.0</ele><time>2026-04-26T12:43:51.235Z</time></trkpt><trkpt lat="43.069305" lon="13.0635233"><ele>433.0</ele><time>2026-04-26T12:43:52.232Z</time></trkpt><trkpt lat="43.0695467" lon="13.063565"><ele>433.0</ele><time>2026-04-26T12:43:53.234Z</time></trkpt><trkpt lat="43.0697883" lon="13.0636133"><ele>433.0</ele><time>2026-04-26T12:43:54.236Z</time></trkpt><trkpt lat="43.0700283" lon="13.063665"><ele>431.5</ele><time>2026-04-26T12:43:55.236Z</time></trkpt><trkpt lat="43.0702683" lon="13.0637183"><ele>430.0</ele><time>2026-04-26T12:43:56.233Z</time></trkpt><trkpt lat="43.070505" lon="13.0637683"><ele>430.0</ele><time>2026-04-26T12:43:57.237Z</time></trkpt><trkpt lat="43.0707467" lon="13.063815"><ele>430.0</ele><time>2026-04-26T12:43:58.236Z</time></trkpt><trkpt lat="43.07099" lon="13.0638583"><ele>434.0</ele><time>2026-04-26T12:43:59.235Z</time></trkpt><trkpt lat="43.07123" lon="13.0638967"><ele>438.0</ele><time>2026-04-26T12:44:00.237Z</time></trkpt><trkpt lat="43.0714717" lon="13.0639367"><ele>437.5</ele><time>2026-04-26T12:44:01.234Z</time></trkpt><trkpt lat="43.0717133" lon="13.0639733"><ele>437.0</ele><time>2026-04-26T12:44:02.235Z</time></trkpt><trkpt lat="43.0719567" lon="13.0640017"><ele>437.0</ele><time>2026-04-26T12:44:03.238Z</time></trkpt><trkpt lat="43.0721983" lon="13.0640233"><ele>437.0</ele><time>2026-04-26T12:44:04.233Z</time></trkpt><trkpt lat="43.0724317" lon="13.064035"><ele>437.66666666666663</ele><time>2026-04-26T12:44:05.233Z</time></trkpt><trkpt lat="43.07265" lon="13.0640433"><ele>438.33333333333337</ele><time>2026-04-26T12:44:06.237Z</time></trkpt><trkpt lat="43.072855" lon="13.06405"><ele>439.0</ele><time>2026-04-26T12:44:07.234Z</time></trkpt><trkpt lat="43.0730517" lon="13.0640533"><ele>439.0</ele><time>2026-04-26T12:44:08.233Z</time></trkpt><trkpt lat="43.07324" lon="13.0640517"><ele>439.0</ele><time>2026-04-26T12:44:09.235Z</time></trkpt><trkpt lat="43.0734033" lon="13.0640367"><ele>439.0</ele><time>2026-04-26T12:44:10.236Z</time></trkpt><trkpt lat="43.0735433" lon="13.0640133"><ele>438.0</ele><time>2026-04-26T12:44:11.234Z</time></trkpt><trkpt lat="43.0736717" lon="13.063985"><ele>437.0</ele><time>2026-04-26T12:44:12.235Z</time></trkpt><trkpt lat="43.0738033" lon="13.06397"><ele>436.0</ele><time>2026-04-26T12:44:13.233Z</time></trkpt><trkpt lat="43.0739383" lon="13.06396"><ele>435.0</ele><time>2026-04-26T12:44:14.235Z</time></trkpt><trkpt lat="43.0740833" lon="13.06396"><ele>433.25</ele><time>2026-04-26T12:44:15.233Z</time></trkpt><trkpt lat="43.074225" lon="13.0639667"><ele>431.5</ele><time>2026-04-26T12:44:16.233Z</time></trkpt><trkpt lat="43.0743683" lon="13.06397"><ele>429.75</ele><time>2026-04-26T12:44:17.233Z</time></trkpt><trkpt lat="43.0745167" lon="13.0639683"><ele>428.0</ele><time>2026-04-26T12:44:18.232Z</time></trkpt><trkpt lat="43.0746667" lon="13.0639583"><ele>428.0</ele><time>2026-04-26T12:44:19.232Z</time></trkpt><trkpt lat="43.07481" lon="13.0639433"><ele>428.0</ele><time>2026-04-26T12:44:20.233Z</time></trkpt><trkpt lat="43.07495" lon="13.0639317"><ele>428.0</ele><time>2026-04-26T12:44:21.239Z</time></trkpt><trkpt lat="43.0750883" lon="13.0639233"><ele>428.0</ele><time>2026-04-26T12:44:22.238Z</time></trkpt><trkpt lat="43.0752167" lon="13.06392"><ele>428.0</ele><time>2026-04-26T12:44:23.231Z</time></trkpt><trkpt lat="43.0753367" lon="13.0639183"><ele>427.99999999999994</ele><time>2026-04-26T12:44:24.233Z</time></trkpt><trkpt lat="43.0754417" lon="13.0639317"><ele>427.99999999999994</ele><time>2026-04-26T12:44:25.233Z</time></trkpt><trkpt lat="43.0755267" lon="13.06397"><ele>428.0</ele><time>2026-04-26T12:44:26.234Z</time></trkpt><trkpt lat="43.0755917" lon="13.0640217"><ele>428.0</ele><time>2026-04-26T12:44:27.233Z</time></trkpt><trkpt lat="43.075675" lon="13.06416"><ele>427.79999999999995</ele><time>2026-04-26T12:44:29.231Z</time></trkpt><trkpt lat="43.0757117" lon="13.0642733"><ele>427.59999999999997</ele><time>2026-04-26T12:44:30.231Z</time></trkpt><trkpt lat="43.0757533" lon="13.0644183"><ele>427.40000000000003</ele><time>2026-04-26T12:44:31.234Z</time></trkpt><trkpt lat="43.0757983" lon="13.0645633"><ele>427.20000000000005</ele><time>2026-04-26T12:44:32.23Z</time></trkpt><trkpt lat="43.075855" lon="13.0646917"><ele>427.0</ele><time>2026-04-26T12:44:33.232Z</time></trkpt><trkpt lat="43.0759317" lon="13.0648167"><ele>427.6666666666667</ele><time>2026-04-26T12:44:34.231Z</time></trkpt><trkpt lat="43.0760317" lon="13.0649467"><ele>428.33333333333337</ele><time>2026-04-26T12:44:35.233Z</time></trkpt><trkpt lat="43.07615" lon="13.0650867"><ele>429.0</ele><time>2026-04-26T12:44:36.234Z</time></trkpt><trkpt lat="43.07627" lon="13.0652333"><ele>429.0</ele><time>2026-04-26T12:44:37.23Z</time></trkpt><trkpt lat="43.0763817" lon="13.0653917"><ele>429.0</ele><time>2026-04-26T12:44:38.234Z</time></trkpt><trkpt lat="43.07648" lon="13.0655767"><ele>429.0</ele><time>2026-04-26T12:44:39.236Z</time></trkpt><trkpt lat="43.0765567" lon="13.0657817"><ele>427.66666666666663</ele><time>2026-04-26T12:44:40.231Z</time></trkpt><trkpt lat="43.07658" lon="13.0660133"><ele>426.3333333333333</ele><time>2026-04-26T12:44:41.236Z</time></trkpt><trkpt lat="43.0765683" lon="13.06625"><ele>425.0</ele><time>2026-04-26T12:44:42.231Z</time></trkpt><trkpt lat="43.0765517" lon="13.066495"><ele>425.0</ele><time>2026-04-26T12:44:43.231Z</time></trkpt><trkpt lat="43.076535" lon="13.066755"><ele>425.0</ele><time>2026-04-26T12:44:44.231Z</time></trkpt><trkpt lat="43.0765267" lon="13.067015"><ele>425.0</ele><time>2026-04-26T12:44:45.232Z</time></trkpt><trkpt lat="43.0765383" lon="13.0672717"><ele>424.3333333333333</ele><time>2026-04-26T12:44:46.231Z</time></trkpt><trkpt lat="43.0765817" lon="13.0675217"><ele>423.66666666666663</ele><time>2026-04-26T12:44:47.232Z</time></trkpt><trkpt lat="43.0766483" lon="13.0677733"><ele>423.0</ele><time>2026-04-26T12:44:48.235Z</time></trkpt><trkpt lat="43.0767183" lon="13.0680317"><ele>422.66666666666663</ele><time>2026-04-26T12:44:49.234Z</time></trkpt><trkpt lat="43.07679" lon="13.0682933"><ele>422.3333333333333</ele><time>2026-04-26T12:44:50.234Z</time></trkpt><trkpt lat="43.0768717" lon="13.0685617"><ele>422.0</ele><time>2026-04-26T12:44:51.235Z</time></trkpt><trkpt lat="43.0769567" lon="13.068825"><ele>422.0</ele><time>2026-04-26T12:44:52.235Z</time></trkpt><trkpt lat="43.0770417" lon="13.0690917"><ele>422.0</ele><time>2026-04-26T12:44:53.233Z</time></trkpt><trkpt lat="43.077125" lon="13.0693583"><ele>422.0</ele><time>2026-04-26T12:44:54.235Z</time></trkpt><trkpt lat="43.0772117" lon="13.0696233"><ele>421.66666666666663</ele><time>2026-04-26T12:44:55.233Z</time></trkpt><trkpt lat="43.0772983" lon="13.0698933"><ele>421.33333333333337</ele><time>2026-04-26T12:44:56.236Z</time></trkpt><trkpt lat="43.07739" lon="13.0701667"><ele>421.0</ele><time>2026-04-26T12:44:57.236Z</time></trkpt><trkpt lat="43.0774833" lon="13.0704417"><ele>420.33333333333337</ele><time>2026-04-26T12:44:58.234Z</time></trkpt><trkpt lat="43.0775833" lon="13.070715"><ele>419.66666666666663</ele><time>2026-04-26T12:44:59.233Z</time></trkpt><trkpt lat="43.0776833" lon="13.070985"><ele>419.0</ele><time>2026-04-26T12:45:00.233Z</time></trkpt><trkpt lat="43.0777867" lon="13.0712533"><ele>419.0</ele><time>2026-04-26T12:45:01.234Z</time></trkpt><trkpt lat="43.07789" lon="13.0715267"><ele>419.0</ele><time>2026-04-26T12:45:02.237Z</time></trkpt><trkpt lat="43.0779883" lon="13.071795"><ele>419.0</ele><time>2026-04-26T12:45:03.235Z</time></trkpt><trkpt lat="43.0780833" lon="13.072065"><ele>418.0</ele><time>2026-04-26T12:45:04.235Z</time></trkpt><trkpt lat="43.07818" lon="13.0723317"><ele>417.0</ele><time>2026-04-26T12:45:05.233Z</time></trkpt><trkpt lat="43.0782717" lon="13.07259"><ele>416.0</ele><time>2026-04-26T12:45:06.234Z</time></trkpt><trkpt lat="43.0783617" lon="13.0728317"><ele>415.66666666666663</ele><time>2026-04-26T12:45:07.23Z</time></trkpt><trkpt lat="43.0784483" lon="13.073055"><ele>415.33333333333337</ele><time>2026-04-26T12:45:08.237Z</time></trkpt><trkpt lat="43.0785367" lon="13.073265"><ele>415.0</ele><time>2026-04-26T12:45:09.235Z</time></trkpt><trkpt lat="43.0786183" lon="13.0734617"><ele>415.0</ele><time>2026-04-26T12:45:10.232Z</time></trkpt><trkpt lat="43.0786933" lon="13.0736483"><ele>415.0</ele><time>2026-04-26T12:45:11.232Z</time></trkpt><trkpt lat="43.07876" lon="13.073825"><ele>415.0</ele><time>2026-04-26T12:45:12.234Z</time></trkpt><trkpt lat="43.0788133" lon="13.0739933"><ele>415.0</ele><time>2026-04-26T12:45:13.233Z</time></trkpt><trkpt lat="43.07885" lon="13.0741583"><ele>415.0</ele><time>2026-04-26T12:45:14.232Z</time></trkpt><trkpt lat="43.07886" lon="13.0743183"><ele>415.0</ele><time>2026-04-26T12:45:15.233Z</time></trkpt><trkpt lat="43.0788517" lon="13.0744717"><ele>415.0</ele><time>2026-04-26T12:45:16.232Z</time></trkpt><trkpt lat="43.0788567" lon="13.07462"><ele>415.0</ele><time>2026-04-26T12:45:17.231Z</time></trkpt><trkpt lat="43.0789033" lon="13.0747567"><ele>415.0</ele><time>2026-04-26T12:45:18.232Z</time></trkpt><trkpt lat="43.0789833" lon="13.0748917"><ele>415.33333333333337</ele><time>2026-04-26T12:45:19.233Z</time></trkpt><trkpt lat="43.0790867" lon="13.075055"><ele>415.66666666666663</ele><time>2026-04-26T12:45:20.234Z</time></trkpt><trkpt lat="43.079175" lon="13.0752467"><ele>416.0</ele><time>2026-04-26T12:45:21.233Z</time></trkpt><trkpt lat="43.0792533" lon="13.0754533"><ele>416.0</ele><time>2026-04-26T12:45:22.235Z</time></trkpt><trkpt lat="43.0793183" lon="13.075665"><ele>416.0</ele><time>2026-04-26T12:45:23.236Z</time></trkpt><trkpt lat="43.0793667" lon="13.0758917"><ele>416.0</ele><time>2026-04-26T12:45:24.234Z</time></trkpt><trkpt lat="43.0793933" lon="13.07614"><ele>415.3333333333333</ele><time>2026-04-26T12:45:25.235Z</time></trkpt><trkpt lat="43.0793917" lon="13.0764"><ele>414.66666666666663</ele><time>2026-04-26T12:45:26.236Z</time></trkpt><trkpt lat="43.0793867" lon="13.07667"><ele>414.0</ele><time>2026-04-26T12:45:27.234Z</time></trkpt><trkpt lat="43.0793733" lon="13.0769417"><ele>413.66666666666663</ele><time>2026-04-26T12:45:28.234Z</time></trkpt><trkpt lat="43.07936" lon="13.0772233"><ele>413.3333333333333</ele><time>2026-04-26T12:45:29.234Z</time></trkpt><trkpt lat="43.07935" lon="13.0775083"><ele>413.0</ele><time>2026-04-26T12:45:30.234Z</time></trkpt><trkpt lat="43.0793333" lon="13.0777933"><ele>412.66666666666663</ele><time>2026-04-26T12:45:31.234Z</time></trkpt><trkpt lat="43.0793133" lon="13.0780733"><ele>412.33333333333337</ele><time>2026-04-26T12:45:32.236Z</time></trkpt><trkpt lat="43.0792867" lon="13.0783483"><ele>412.0</ele><time>2026-04-26T12:45:33.237Z</time></trkpt><trkpt lat="43.079255" lon="13.0786183"><ele>412.0</ele><time>2026-04-26T12:45:34.234Z</time></trkpt><trkpt lat="43.0792233" lon="13.0788883"><ele>412.0</ele><time>2026-04-26T12:45:35.234Z</time></trkpt><trkpt lat="43.079195" lon="13.0791617"><ele>412.0</ele><time>2026-04-26T12:45:36.235Z</time></trkpt><trkpt lat="43.079165" lon="13.07943"><ele>412.33333333333337</ele><time>2026-04-26T12:45:37.237Z</time></trkpt><trkpt lat="43.0791383" lon="13.0796867"><ele>412.66666666666663</ele><time>2026-04-26T12:45:38.234Z</time></trkpt><trkpt lat="43.0791117" lon="13.0799333"><ele>413.0</ele><time>2026-04-26T12:45:39.234Z</time></trkpt><trkpt lat="43.0790883" lon="13.0801683"><ele>411.66666666666663</ele><time>2026-04-26T12:45:40.236Z</time></trkpt><trkpt lat="43.0790633" lon="13.080395"><ele>410.33333333333337</ele><time>2026-04-26T12:45:41.227Z</time></trkpt><trkpt lat="43.0790383" lon="13.08062"><ele>409.0</ele><time>2026-04-26T12:45:42.227Z</time></trkpt><trkpt lat="43.079" lon="13.0808217"><ele>409.0</ele><time>2026-04-26T12:45:43.227Z</time></trkpt><trkpt lat="43.0789517" lon="13.0810267"><ele>409.0</ele><time>2026-04-26T12:45:44.226Z</time></trkpt><trkpt lat="43.0788933" lon="13.0812217"><ele>409.0</ele><time>2026-04-26T12:45:45.23Z</time></trkpt><trkpt lat="43.0788683" lon="13.08143"><ele>409.6666666666667</ele><time>2026-04-26T12:45:46.243Z</time></trkpt><trkpt lat="43.0788567" lon="13.0816533"><ele>410.33333333333337</ele><time>2026-04-26T12:45:47.231Z</time></trkpt><trkpt lat="43.0788667" lon="13.08189"><ele>411.0</ele><time>2026-04-26T12:45:48.233Z</time></trkpt><trkpt lat="43.0789083" lon="13.0821233"><ele>411.0</ele><time>2026-04-26T12:45:49.229Z</time></trkpt><trkpt lat="43.0789683" lon="13.08237"><ele>411.0</ele><time>2026-04-26T12:45:50.234Z</time></trkpt><trkpt lat="43.0790367" lon="13.08263"><ele>411.0</ele><time>2026-04-26T12:45:51.232Z</time></trkpt><trkpt lat="43.079095" lon="13.0828983"><ele>411.0</ele><time>2026-04-26T12:45:52.229Z</time></trkpt><trkpt lat="43.0791617" lon="13.0831683"><ele>411.0</ele><time>2026-04-26T12:45:53.226Z</time></trkpt><trkpt lat="43.07923" lon="13.08344"><ele>411.0</ele><time>2026-04-26T12:45:54.233Z</time></trkpt><trkpt lat="43.0793033" lon="13.0837117"><ele>411.0</ele><time>2026-04-26T12:45:55.238Z</time></trkpt><trkpt lat="43.07938" lon="13.0839833"><ele>411.0</ele><time>2026-04-26T12:45:56.24Z</time></trkpt><trkpt lat="43.07946" lon="13.0842633"><ele>411.0</ele><time>2026-04-26T12:45:57.234Z</time></trkpt><trkpt lat="43.0795483" lon="13.0845483"><ele>410.5</ele><time>2026-04-26T12:45:58.237Z</time></trkpt><trkpt lat="43.0796367" lon="13.084835"><ele>410.0</ele><time>2026-04-26T12:45:59.229Z</time></trkpt><trkpt lat="43.079725" lon="13.08512"><ele>409.0</ele><time>2026-04-26T12:46:00.236Z</time></trkpt><trkpt lat="43.0798083" lon="13.0854033"><ele>408.0</ele><time>2026-04-26T12:46:01.233Z</time></trkpt><trkpt lat="43.0798933" lon="13.0856883"><ele>407.0</ele><time>2026-04-26T12:46:02.236Z</time></trkpt><trkpt lat="43.0799767" lon="13.0859717"><ele>406.5</ele><time>2026-04-26T12:46:03.233Z</time></trkpt><trkpt lat="43.0800583" lon="13.0862583"><ele>406.0</ele><time>2026-04-26T12:46:04.233Z</time></trkpt><trkpt lat="43.0801433" lon="13.0865433"><ele>406.0</ele><time>2026-04-26T12:46:05.234Z</time></trkpt><trkpt lat="43.0802317" lon="13.08683"><ele>406.0</ele><time>2026-04-26T12:46:06.237Z</time></trkpt><trkpt lat="43.0803183" lon="13.087115"><ele>406.0</ele><time>2026-04-26T12:46:07.234Z</time></trkpt><trkpt lat="43.0804067" lon="13.087405"><ele>406.0</ele><time>2026-04-26T12:46:08.233Z</time></trkpt><trkpt lat="43.0804933" lon="13.0876967"><ele>406.0</ele><time>2026-04-26T12:46:09.241Z</time></trkpt><trkpt lat="43.08058" lon="13.0879917"><ele>406.0</ele><time>2026-04-26T12:46:10.237Z</time></trkpt><trkpt lat="43.0806683" lon="13.088295"><ele>406.0</ele><time>2026-04-26T12:46:11.234Z</time></trkpt><trkpt lat="43.0807533" lon="13.0885933"><ele>406.0</ele><time>2026-04-26T12:46:12.232Z</time></trkpt><trkpt lat="43.0808367" lon="13.0888933"><ele>408.5</ele><time>2026-04-26T12:46:13.231Z</time></trkpt><trkpt lat="43.08092" lon="13.0891983"><ele>411.0</ele><time>2026-04-26T12:46:14.233Z</time></trkpt><trkpt lat="43.081005" lon="13.0895"><ele>411.0</ele><time>2026-04-26T12:46:15.238Z</time></trkpt><trkpt lat="43.0810883" lon="13.0898017"><ele>411.0</ele><time>2026-04-26T12:46:16.233Z</time></trkpt><trkpt lat="43.0811733" lon="13.0901"><ele>410.0</ele><time>2026-04-26T12:46:17.236Z</time></trkpt><trkpt lat="43.0812583" lon="13.0903983"><ele>409.0</ele><time>2026-04-26T12:46:18.235Z</time></trkpt><trkpt lat="43.0813433" lon="13.0906983"><ele>408.5</ele><time>2026-04-26T12:46:19.233Z</time></trkpt><trkpt lat="43.081425" lon="13.0909983"><ele>408.0</ele><time>2026-04-26T12:46:20.233Z</time></trkpt><trkpt lat="43.08151" lon="13.0913017"><ele>409.5</ele><time>2026-04-26T12:46:21.233Z</time></trkpt><trkpt lat="43.0815983" lon="13.0916033"><ele>411.0</ele><time>2026-04-26T12:46:22.235Z</time></trkpt><trkpt lat="43.0816933" lon="13.091905"><ele>411.0</ele><time>2026-04-26T12:46:23.233Z</time></trkpt><trkpt lat="43.08179" lon="13.0922033"><ele>411.0</ele><time>2026-04-26T12:46:24.238Z</time></trkpt><trkpt lat="43.081895" lon="13.0925"><ele>407.5</ele><time>2026-04-26T12:46:25.242Z</time></trkpt><trkpt lat="43.0820017" lon="13.092795"><ele>404.0</ele><time>2026-04-26T12:46:26.234Z</time></trkpt><trkpt lat="43.08211" lon="13.0930867"><ele>401.5</ele><time>2026-04-26T12:46:27.237Z</time></trkpt><trkpt lat="43.0822183" lon="13.0933783"><ele>399.0</ele><time>2026-04-26T12:46:28.233Z</time></trkpt><trkpt lat="43.0823233" lon="13.09367"><ele>399.0</ele><time>2026-04-26T12:46:29.234Z</time></trkpt><trkpt lat="43.0824183" lon="13.093965"><ele>399.0</ele><time>2026-04-26T12:46:30.235Z</time></trkpt><trkpt lat="43.0825" lon="13.09427"><ele>402.5</ele><time>2026-04-26T12:46:31.233Z</time></trkpt><trkpt lat="43.0825567" lon="13.0945783"><ele>406.0</ele><time>2026-04-26T12:46:32.234Z</time></trkpt><trkpt lat="43.0826017" lon="13.0948883"><ele>404.6666666666667</ele><time>2026-04-26T12:46:33.235Z</time></trkpt><trkpt lat="43.082655" lon="13.0951783"><ele>403.33333333333337</ele><time>2026-04-26T12:46:34.235Z</time></trkpt><trkpt lat="43.0827317" lon="13.0954533"><ele>402.0</ele><time>2026-04-26T12:46:35.232Z</time></trkpt><trkpt lat="43.0828433" lon="13.0957033"><ele>401.0</ele><time>2026-04-26T12:46:36.231Z</time></trkpt><trkpt lat="43.0829917" lon="13.0959183"><ele>400.0</ele><time>2026-04-26T12:46:37.232Z</time></trkpt><trkpt lat="43.0831717" lon="13.096105"><ele>399.0</ele><time>2026-04-26T12:46:38.233Z</time></trkpt><trkpt lat="43.0833617" lon="13.0962867"><ele>400.0</ele><time>2026-04-26T12:46:39.236Z</time></trkpt><trkpt lat="43.08355" lon="13.09648"><ele>401.0</ele><time>2026-04-26T12:46:40.234Z</time></trkpt><trkpt lat="43.083725" lon="13.09669"><ele>401.0</ele><time>2026-04-26T12:46:41.23Z</time></trkpt><trkpt lat="43.0838883" lon="13.0969133"><ele>401.0</ele><time>2026-04-26T12:46:42.234Z</time></trkpt><trkpt lat="43.084045" lon="13.0971483"><ele>403.0</ele><time>2026-04-26T12:46:43.234Z</time></trkpt><trkpt lat="43.0841917" lon="13.0973967"><ele>405.0</ele><time>2026-04-26T12:46:44.235Z</time></trkpt><trkpt lat="43.0843267" lon="13.0976567"><ele>405.0</ele><time>2026-04-26T12:46:45.239Z</time></trkpt><trkpt lat="43.08445" lon="13.09793"><ele>405.0</ele><time>2026-04-26T12:46:46.233Z</time></trkpt><trkpt lat="43.084565" lon="13.0982083"><ele>402.0</ele><time>2026-04-26T12:46:47.233Z</time></trkpt><trkpt lat="43.0846783" lon="13.098485"><ele>399.0</ele><time>2026-04-26T12:46:48.233Z</time></trkpt><trkpt lat="43.0847933" lon="13.098765"><ele>399.0</ele><time>2026-04-26T12:46:49.235Z</time></trkpt><trkpt lat="43.084915" lon="13.0990383"><ele>399.0</ele><time>2026-04-26T12:46:50.233Z</time></trkpt><trkpt lat="43.0850417" lon="13.0993033"><ele>403.0</ele><time>2026-04-26T12:46:51.234Z</time></trkpt><trkpt lat="43.0851733" lon="13.099565"><ele>407.0</ele><time>2026-04-26T12:46:52.233Z</time></trkpt><trkpt lat="43.0853133" lon="13.0998183"><ele>403.5</ele><time>2026-04-26T12:46:53.234Z</time></trkpt><trkpt lat="43.0854633" lon="13.100065"><ele>400.0</ele><time>2026-04-26T12:46:54.235Z</time></trkpt><trkpt lat="43.08562" lon="13.1003"><ele>401.5</ele><time>2026-04-26T12:46:55.234Z</time></trkpt><trkpt lat="43.0857783" lon="13.1005333"><ele>403.0</ele><time>2026-04-26T12:46:56.235Z</time></trkpt><trkpt lat="43.0859383" lon="13.1007683"><ele>403.0</ele><time>2026-04-26T12:46:57.236Z</time></trkpt><trkpt lat="43.0860967" lon="13.101"><ele>403.0</ele><time>2026-04-26T12:46:58.237Z</time></trkpt><trkpt lat="43.08626" lon="13.1012367"><ele>403.0</ele><time>2026-04-26T12:46:59.232Z</time></trkpt><trkpt lat="43.0864167" lon="13.1014767"><ele>403.0</ele><time>2026-04-26T12:47:00.233Z</time></trkpt><trkpt lat="43.0865733" lon="13.1017183"><ele>404.0</ele><time>2026-04-26T12:47:01.233Z</time></trkpt><trkpt lat="43.0867283" lon="13.1019617"><ele>405.0</ele><time>2026-04-26T12:47:02.233Z</time></trkpt><trkpt lat="43.0868783" lon="13.1022067"><ele>402.0</ele><time>2026-04-26T12:47:03.236Z</time></trkpt><trkpt lat="43.08702" lon="13.10246"><ele>399.0</ele><time>2026-04-26T12:47:04.233Z</time></trkpt><trkpt lat="43.0871533" lon="13.1027233"><ele>399.0</ele><time>2026-04-26T12:47:05.234Z</time></trkpt><trkpt lat="43.087285" lon="13.102995"><ele>399.0</ele><time>2026-04-26T12:47:06.232Z</time></trkpt><trkpt lat="43.0874117" lon="13.1032683"><ele>402.0</ele><time>2026-04-26T12:47:07.234Z</time></trkpt><trkpt lat="43.0875333" lon="13.10355"><ele>405.0</ele><time>2026-04-26T12:47:08.234Z</time></trkpt><trkpt lat="43.0876533" lon="13.1038333"><ele>402.0</ele><time>2026-04-26T12:47:09.233Z</time></trkpt><trkpt lat="43.08777" lon="13.1041133"><ele>399.0</ele><time>2026-04-26T12:47:10.233Z</time></trkpt><trkpt lat="43.0878783" lon="13.1043967"><ele>399.0</ele><time>2026-04-26T12:47:11.233Z</time></trkpt><trkpt lat="43.0879833" lon="13.1046867"><ele>399.0</ele><time>2026-04-26T12:47:12.231Z</time></trkpt><trkpt lat="43.088085" lon="13.10498"><ele>398.5</ele><time>2026-04-26T12:47:13.235Z</time></trkpt><trkpt lat="43.0881883" lon="13.1052717"><ele>398.0</ele><time>2026-04-26T12:47:14.239Z</time></trkpt><trkpt lat="43.0882967" lon="13.1055617"><ele>402.0</ele><time>2026-04-26T12:47:15.234Z</time></trkpt><trkpt lat="43.0884017" lon="13.1058533"><ele>406.0</ele><time>2026-04-26T12:47:16.232Z</time></trkpt><trkpt lat="43.0885033" lon="13.10615"><ele>406.0</ele><time>2026-04-26T12:47:17.235Z</time></trkpt><trkpt lat="43.0886067" lon="13.1064383"><ele>406.0</ele><time>2026-04-26T12:47:18.235Z</time></trkpt><trkpt lat="43.0887083" lon="13.1067133"><ele>405.33333333333337</ele><time>2026-04-26T12:47:19.235Z</time></trkpt><trkpt lat="43.08881" lon="13.1069717"><ele>404.66666666666663</ele><time>2026-04-26T12:47:20.234Z</time></trkpt><trkpt lat="43.08891" lon="13.10722"><ele>404.0</ele><time>2026-04-26T12:47:21.238Z</time></trkpt><trkpt lat="43.08901" lon="13.1074683"><ele>404.0</ele><time>2026-04-26T12:47:22.233Z</time></trkpt><trkpt lat="43.08911" lon="13.1077217"><ele>404.0</ele><time>2026-04-26T12:47:23.233Z</time></trkpt><trkpt lat="43.0892" lon="13.1079783"><ele>404.0</ele><time>2026-04-26T12:47:24.234Z</time></trkpt><trkpt lat="43.0892733" lon="13.1082433"><ele>404.0</ele><time>2026-04-26T12:47:25.237Z</time></trkpt><trkpt lat="43.089325" lon="13.108515"><ele>404.0</ele><time>2026-04-26T12:47:26.236Z</time></trkpt><trkpt lat="43.0893633" lon="13.1087983"><ele>404.0</ele><time>2026-04-26T12:47:27.235Z</time></trkpt><trkpt lat="43.089395" lon="13.1090917"><ele>405.0</ele><time>2026-04-26T12:47:28.233Z</time></trkpt><trkpt lat="43.0894217" lon="13.10939"><ele>406.0</ele><time>2026-04-26T12:47:29.233Z</time></trkpt><trkpt lat="43.0894667" lon="13.1096883"><ele>407.0</ele><time>2026-04-26T12:47:30.234Z</time></trkpt><trkpt lat="43.0895317" lon="13.109975"><ele>404.0</ele><time>2026-04-26T12:47:31.237Z</time></trkpt><trkpt lat="43.0896267" lon="13.11025"><ele>401.0</ele><time>2026-04-26T12:47:32.234Z</time></trkpt><trkpt lat="43.089755" lon="13.1105033"><ele>398.0</ele><time>2026-04-26T12:47:33.235Z</time></trkpt><trkpt lat="43.089905" lon="13.11073"><ele>396.5</ele><time>2026-04-26T12:47:34.234Z</time></trkpt><trkpt lat="43.0900683" lon="13.1109467"><ele>395.0</ele><time>2026-04-26T12:47:35.233Z</time></trkpt><trkpt lat="43.0902333" lon="13.1111717"><ele>395.0</ele><time>2026-04-26T12:47:36.231Z</time></trkpt><trkpt lat="43.0903733" lon="13.1114117"><ele>395.0</ele><time>2026-04-26T12:47:37.235Z</time></trkpt><trkpt lat="43.0904933" lon="13.1116517"><ele>395.0</ele><time>2026-04-26T12:47:38.233Z</time></trkpt><trkpt lat="43.0906017" lon="13.1119"><ele>392.0</ele><time>2026-04-26T12:47:39.235Z</time></trkpt><trkpt lat="43.0906983" lon="13.1121667"><ele>389.0</ele><time>2026-04-26T12:47:40.235Z</time></trkpt><trkpt lat="43.0907833" lon="13.1124533"><ele>386.0</ele><time>2026-04-26T12:47:41.232Z</time></trkpt><trkpt lat="43.090855" lon="13.1127533"><ele>386.0</ele><time>2026-04-26T12:47:42.234Z</time></trkpt><trkpt lat="43.090905" lon="13.1130667"><ele>386.0</ele><time>2026-04-26T12:47:43.229Z</time></trkpt><trkpt lat="43.0909367" lon="13.113385"><ele>385.5</ele><time>2026-04-26T12:47:44.234Z</time></trkpt><trkpt lat="43.0909483" lon="13.1137033"><ele>385.0</ele><time>2026-04-26T12:47:45.233Z</time></trkpt><trkpt lat="43.090945" lon="13.11401"><ele>385.0</ele><time>2026-04-26T12:47:46.233Z</time></trkpt><trkpt lat="43.09094" lon="13.1143"><ele>385.0</ele><time>2026-04-26T12:47:47.234Z</time></trkpt><trkpt lat="43.0909417" lon="13.1145817"><ele>385.0</ele><time>2026-04-26T12:47:48.234Z</time></trkpt><trkpt lat="43.09094" lon="13.1148683"><ele>384.6666666666667</ele><time>2026-04-26T12:47:49.237Z</time></trkpt><trkpt lat="43.09094" lon="13.11516"><ele>384.33333333333337</ele><time>2026-04-26T12:47:50.232Z</time></trkpt><trkpt lat="43.0909383" lon="13.1154583"><ele>384.0</ele><time>2026-04-26T12:47:51.235Z</time></trkpt><trkpt lat="43.0909367" lon="13.11576"><ele>383.3333333333333</ele><time>2026-04-26T12:47:52.233Z</time></trkpt><trkpt lat="43.0909367" lon="13.116055"><ele>382.66666666666663</ele><time>2026-04-26T12:47:53.232Z</time></trkpt><trkpt lat="43.0909317" lon="13.116335"><ele>382.0</ele><time>2026-04-26T12:47:54.237Z</time></trkpt><trkpt lat="43.09093" lon="13.1166083"><ele>381.66666666666663</ele><time>2026-04-26T12:47:55.238Z</time></trkpt><trkpt lat="43.0909433" lon="13.116865"><ele>381.3333333333333</ele><time>2026-04-26T12:47:56.233Z</time></trkpt><trkpt lat="43.09098" lon="13.1170917"><ele>381.0</ele><time>2026-04-26T12:47:57.236Z</time></trkpt><trkpt lat="43.09106" lon="13.1172917"><ele>380.3333333333333</ele><time>2026-04-26T12:47:58.234Z</time></trkpt><trkpt lat="43.09115" lon="13.11746"><ele>379.66666666666663</ele><time>2026-04-26T12:47:59.23Z</time></trkpt><trkpt lat="43.091255" lon="13.1176233"><ele>379.0</ele><time>2026-04-26T12:48:00.236Z</time></trkpt><trkpt lat="43.0913533" lon="13.117775"><ele>379.0</ele><time>2026-04-26T12:48:01.234Z</time></trkpt><trkpt lat="43.0914483" lon="13.1179183"><ele>379.0</ele><time>2026-04-26T12:48:02.231Z</time></trkpt><trkpt lat="43.09154" lon="13.1180583"><ele>379.0</ele><time>2026-04-26T12:48:03.233Z</time></trkpt><trkpt lat="43.091625" lon="13.1181983"><ele>379.0</ele><time>2026-04-26T12:48:04.236Z</time></trkpt><trkpt lat="43.09171" lon="13.11835"><ele>379.0</ele><time>2026-04-26T12:48:05.233Z</time></trkpt><trkpt lat="43.0918" lon="13.118525"><ele>379.0</ele><time>2026-04-26T12:48:06.233Z</time></trkpt><trkpt lat="43.09189" lon="13.1187283"><ele>379.0</ele><time>2026-04-26T12:48:07.236Z</time></trkpt><trkpt lat="43.0919783" lon="13.1189517"><ele>378.0</ele><time>2026-04-26T12:48:08.233Z</time></trkpt><trkpt lat="43.09205" lon="13.1191867"><ele>377.0</ele><time>2026-04-26T12:48:09.234Z</time></trkpt><trkpt lat="43.09209" lon="13.11943"><ele>376.0</ele><time>2026-04-26T12:48:10.232Z</time></trkpt><trkpt lat="43.09211" lon="13.1196783"><ele>376.3333333333333</ele><time>2026-04-26T12:48:11.233Z</time></trkpt><trkpt lat="43.092125" lon="13.1199267"><ele>376.6666666666667</ele><time>2026-04-26T12:48:12.232Z</time></trkpt><trkpt lat="43.09216" lon="13.1201733"><ele>377.0</ele><time>2026-04-26T12:48:13.233Z</time></trkpt><trkpt lat="43.0922267" lon="13.120415"><ele>377.0</ele><time>2026-04-26T12:48:14.235Z</time></trkpt><trkpt lat="43.0923333" lon="13.1206133"><ele>377.0</ele><time>2026-04-26T12:48:15.236Z</time></trkpt><trkpt lat="43.0924617" lon="13.12077"><ele>377.0</ele><time>2026-04-26T12:48:16.232Z</time></trkpt><trkpt lat="43.0926217" lon="13.120905"><ele>378.0</ele><time>2026-04-26T12:48:17.233Z</time></trkpt><trkpt lat="43.0927833" lon="13.1210333"><ele>379.0</ele><time>2026-04-26T12:48:18.248Z</time></trkpt><trkpt lat="43.09294" lon="13.1211533"><ele>380.0</ele><time>2026-04-26T12:48:19.236Z</time></trkpt><trkpt lat="43.0930883" lon="13.12127"><ele>380.0</ele><time>2026-04-26T12:48:20.234Z</time></trkpt><trkpt lat="43.0932267" lon="13.1213833"><ele>380.0</ele><time>2026-04-26T12:48:21.236Z</time></trkpt><trkpt lat="43.0933633" lon="13.121495"><ele>380.0</ele><time>2026-04-26T12:48:22.234Z</time></trkpt><trkpt lat="43.0934983" lon="13.1215983"><ele>380.0</ele><time>2026-04-26T12:48:23.234Z</time></trkpt><trkpt lat="43.0936317" lon="13.1216883"><ele>380.0</ele><time>2026-04-26T12:48:24.234Z</time></trkpt><trkpt lat="43.093755" lon="13.1217783"><ele>380.0</ele><time>2026-04-26T12:48:25.237Z</time></trkpt><trkpt lat="43.0938633" lon="13.1218667"><ele>380.0</ele><time>2026-04-26T12:48:26.233Z</time></trkpt><trkpt lat="43.0939683" lon="13.121955"><ele>380.0</ele><time>2026-04-26T12:48:27.233Z</time></trkpt><trkpt lat="43.09408" lon="13.122045"><ele>380.0</ele><time>2026-04-26T12:48:28.234Z</time></trkpt><trkpt lat="43.0942083" lon="13.1221417"><ele>380.0</ele><time>2026-04-26T12:48:29.234Z</time></trkpt><trkpt lat="43.094355" lon="13.1222333"><ele>380.0</ele><time>2026-04-26T12:48:30.231Z</time></trkpt><trkpt lat="43.09453" lon="13.1223267"><ele>378.0</ele><time>2026-04-26T12:48:31.236Z</time></trkpt><trkpt lat="43.0947333" lon="13.12243"><ele>376.0</ele><time>2026-04-26T12:48:32.234Z</time></trkpt><trkpt lat="43.0949533" lon="13.1225367"><ele>376.0</ele><time>2026-04-26T12:48:33.235Z</time></trkpt><trkpt lat="43.0951817" lon="13.122625"><ele>376.0</ele><time>2026-04-26T12:48:34.232Z</time></trkpt><trkpt lat="43.0954167" lon="13.122685"><ele>376.0</ele><time>2026-04-26T12:48:35.235Z</time></trkpt><trkpt lat="43.0956617" lon="13.1227217"><ele>376.0</ele><time>2026-04-26T12:48:36.233Z</time></trkpt><trkpt lat="43.09591" lon="13.1227317"><ele>378.0</ele><time>2026-04-26T12:48:37.236Z</time></trkpt><trkpt lat="43.096155" lon="13.1227267"><ele>380.0</ele><time>2026-04-26T12:48:38.236Z</time></trkpt><trkpt lat="43.096395" lon="13.1227133"><ele>384.0</ele><time>2026-04-26T12:48:39.236Z</time></trkpt><trkpt lat="43.0966283" lon="13.122695"><ele>388.0</ele><time>2026-04-26T12:48:40.232Z</time></trkpt><trkpt lat="43.096845" lon="13.1226733"><ele>388.0</ele><time>2026-04-26T12:48:41.233Z</time></trkpt><trkpt lat="43.0970467" lon="13.1227117"><ele>388.0</ele><time>2026-04-26T12:48:42.233Z</time></trkpt><trkpt lat="43.0972417" lon="13.122795"><ele>388.0</ele><time>2026-04-26T12:48:43.234Z</time></trkpt><trkpt lat="43.0974317" lon="13.12294"><ele>383.0</ele><time>2026-04-26T12:48:44.233Z</time></trkpt><trkpt lat="43.0976283" lon="13.1231117"><ele>378.0</ele><time>2026-04-26T12:48:45.233Z</time></trkpt><trkpt lat="43.09782" lon="13.1232917"><ele>378.0</ele><time>2026-04-26T12:48:46.236Z</time></trkpt><trkpt lat="43.0980067" lon="13.1234683"><ele>378.0</ele><time>2026-04-26T12:48:47.235Z</time></trkpt><trkpt lat="43.0981933" lon="13.1236367"><ele>377.6666666666667</ele><time>2026-04-26T12:48:48.232Z</time></trkpt><trkpt lat="43.09838" lon="13.12381"><ele>377.33333333333337</ele><time>2026-04-26T12:48:49.232Z</time></trkpt><trkpt lat="43.098565" lon="13.1239767"><ele>377.0</ele><time>2026-04-26T12:48:50.234Z</time></trkpt><trkpt lat="43.098745" lon="13.1241483"><ele>377.0</ele><time>2026-04-26T12:48:51.239Z</time></trkpt><trkpt lat="43.0989167" lon="13.1243117"><ele>377.0</ele><time>2026-04-26T12:48:52.234Z</time></trkpt><trkpt lat="43.0990733" lon="13.1244617"><ele>377.0</ele><time>2026-04-26T12:48:53.232Z</time></trkpt><trkpt lat="43.0992133" lon="13.124615"><ele>376.6666666666667</ele><time>2026-04-26T12:48:54.232Z</time></trkpt><trkpt lat="43.0993367" lon="13.124795"><ele>376.3333333333333</ele><time>2026-04-26T12:48:55.235Z</time></trkpt><trkpt lat="43.0994467" lon="13.1249917"><ele>376.0</ele><time>2026-04-26T12:48:56.236Z</time></trkpt><trkpt lat="43.099525" lon="13.1251867"><ele>376.0</ele><time>2026-04-26T12:48:57.236Z</time></trkpt><trkpt lat="43.09954" lon="13.1254567"><ele>376.0</ele><time>2026-04-26T12:48:58.233Z</time></trkpt><trkpt lat="43.0995983" lon="13.1257033"><ele>376.0</ele><time>2026-04-26T12:48:59.234Z</time></trkpt><trkpt lat="43.0996967" lon="13.12594"><ele>376.3333333333333</ele><time>2026-04-26T12:49:00.233Z</time></trkpt><trkpt lat="43.0998017" lon="13.126165"><ele>376.6666666666667</ele><time>2026-04-26T12:49:01.234Z</time></trkpt><trkpt lat="43.099925" lon="13.126385"><ele>377.0</ele><time>2026-04-26T12:49:02.234Z</time></trkpt><trkpt lat="43.10004" lon="13.126595"><ele>373.6666666666667</ele><time>2026-04-26T12:49:03.233Z</time></trkpt><trkpt lat="43.1001533" lon="13.12679"><ele>370.3333333333333</ele><time>2026-04-26T12:49:04.236Z</time></trkpt><trkpt lat="43.1002683" lon="13.126975"><ele>367.0</ele><time>2026-04-26T12:49:05.233Z</time></trkpt><trkpt lat="43.10038" lon="13.1271467"><ele>367.0</ele><time>2026-04-26T12:49:06.232Z</time></trkpt><trkpt lat="43.10049" lon="13.12731"><ele>367.0</ele><time>2026-04-26T12:49:07.234Z</time></trkpt><trkpt lat="43.1005967" lon="13.127465"><ele>367.0</ele><time>2026-04-26T12:49:08.233Z</time></trkpt><trkpt lat="43.1006967" lon="13.12761"><ele>367.0</ele><time>2026-04-26T12:49:09.231Z</time></trkpt><trkpt lat="43.1007967" lon="13.12775"><ele>367.0</ele><time>2026-04-26T12:49:10.231Z</time></trkpt><trkpt lat="43.1008933" lon="13.1278867"><ele>367.0</ele><time>2026-04-26T12:49:11.234Z</time></trkpt><trkpt lat="43.1009833" lon="13.1280183"><ele>367.0</ele><time>2026-04-26T12:49:12.231Z</time></trkpt><trkpt lat="43.1010683" lon="13.1281433"><ele>365.5</ele><time>2026-04-26T12:49:13.239Z</time></trkpt><trkpt lat="43.10116" lon="13.1282633"><ele>364.0</ele><time>2026-04-26T12:49:14.234Z</time></trkpt><trkpt lat="43.10126" lon="13.128365"><ele>362.5</ele><time>2026-04-26T12:49:15.233Z</time></trkpt><trkpt lat="43.101375" lon="13.1284317"><ele>361.0</ele><time>2026-04-26T12:49:16.233Z</time></trkpt><trkpt lat="43.10149" lon="13.1284483"><ele>361.5</ele><time>2026-04-26T12:49:17.234Z</time></trkpt><trkpt lat="43.1015983" lon="13.1284233"><ele>362.0</ele><time>2026-04-26T12:49:18.234Z</time></trkpt><trkpt lat="43.1017133" lon="13.1283733"><ele>362.5</ele><time>2026-04-26T12:49:19.233Z</time></trkpt><trkpt lat="43.1018267" lon="13.1283067"><ele>363.0</ele><time>2026-04-26T12:49:20.232Z</time></trkpt><trkpt lat="43.101955" lon="13.1282583"><ele>365.25</ele><time>2026-04-26T12:49:21.232Z</time></trkpt><trkpt lat="43.1020883" lon="13.128225"><ele>367.5</ele><time>2026-04-26T12:49:22.234Z</time></trkpt><trkpt lat="43.102225" lon="13.1282133"><ele>369.75</ele><time>2026-04-26T12:49:23.235Z</time></trkpt><trkpt lat="43.102355" lon="13.1282133"><ele>372.0</ele><time>2026-04-26T12:49:24.235Z</time></trkpt><trkpt lat="43.1024917" lon="13.1282233"><ele>368.0</ele><time>2026-04-26T12:49:25.236Z</time></trkpt><trkpt lat="43.102635" lon="13.1282283"><ele>364.0</ele><time>2026-04-26T12:49:26.233Z</time></trkpt><trkpt lat="43.1028" lon="13.1282283"><ele>360.0</ele><time>2026-04-26T12:49:27.232Z</time></trkpt><trkpt lat="43.1029917" lon="13.1282417"><ele>360.0</ele><time>2026-04-26T12:49:28.233Z</time></trkpt><trkpt lat="43.1031967" lon="13.1282883"><ele>360.0</ele><time>2026-04-26T12:49:29.236Z</time></trkpt><trkpt lat="43.1034117" lon="13.12835"><ele>360.0</ele><time>2026-04-26T12:49:30.234Z</time></trkpt><trkpt lat="43.1036317" lon="13.1284183"><ele>360.3333333333333</ele><time>2026-04-26T12:49:31.235Z</time></trkpt><trkpt lat="43.10385" lon="13.1284833"><ele>360.66666666666663</ele><time>2026-04-26T12:49:32.233Z</time></trkpt><trkpt lat="43.1040583" lon="13.1285517"><ele>361.0</ele><time>2026-04-26T12:49:33.232Z</time></trkpt><trkpt lat="43.1042483" lon="13.1286383"><ele>361.3333333333333</ele><time>2026-04-26T12:49:34.234Z</time></trkpt><trkpt lat="43.10443" lon="13.12875"><ele>361.6666666666667</ele><time>2026-04-26T12:49:35.233Z</time></trkpt><trkpt lat="43.1045967" lon="13.1288683"><ele>362.0</ele><time>2026-04-26T12:49:36.232Z</time></trkpt><trkpt lat="43.1047583" lon="13.128965"><ele>364.33333333333337</ele><time>2026-04-26T12:49:37.234Z</time></trkpt><trkpt lat="43.10492" lon="13.1290283"><ele>366.6666666666667</ele><time>2026-04-26T12:49:38.231Z</time></trkpt><trkpt lat="43.1050883" lon="13.1290383"><ele>369.0</ele><time>2026-04-26T12:49:39.235Z</time></trkpt><trkpt lat="43.1052683" lon="13.12899"><ele>369.0</ele><time>2026-04-26T12:49:40.234Z</time></trkpt><trkpt lat="43.1054533" lon="13.128915"><ele>369.0</ele><time>2026-04-26T12:49:41.232Z</time></trkpt><trkpt lat="43.1056433" lon="13.1288333"><ele>369.0</ele><time>2026-04-26T12:49:42.23Z</time></trkpt><trkpt lat="43.1058367" lon="13.12876"><ele>369.6666666666667</ele><time>2026-04-26T12:49:43.234Z</time></trkpt><trkpt lat="43.1060233" lon="13.1286933"><ele>370.33333333333337</ele><time>2026-04-26T12:49:44.237Z</time></trkpt><trkpt lat="43.1062" lon="13.1286417"><ele>371.0</ele><time>2026-04-26T12:49:45.235Z</time></trkpt><trkpt lat="43.106365" lon="13.1286067"><ele>371.0</ele><time>2026-04-26T12:49:46.233Z</time></trkpt><trkpt lat="43.1065183" lon="13.1285767"><ele>371.0</ele><time>2026-04-26T12:49:47.233Z</time></trkpt><trkpt lat="43.1066633" lon="13.128555"><ele>371.0</ele><time>2026-04-26T12:49:48.232Z</time></trkpt><trkpt lat="43.106805" lon="13.128535"><ele>371.0</ele><time>2026-04-26T12:49:49.232Z</time></trkpt><trkpt lat="43.106935" lon="13.1285217"><ele>371.6</ele><time>2026-04-26T12:49:50.231Z</time></trkpt><trkpt lat="43.1070517" lon="13.128515"><ele>372.20000000000005</ele><time>2026-04-26T12:49:51.232Z</time></trkpt><trkpt lat="43.1071567" lon="13.1285117"><ele>372.79999999999995</ele><time>2026-04-26T12:49:52.233Z</time></trkpt><trkpt lat="43.10725" lon="13.128515"><ele>373.4</ele><time>2026-04-26T12:49:53.233Z</time></trkpt><trkpt lat="43.1073433" lon="13.1285183"><ele>374.0</ele><time>2026-04-26T12:49:54.231Z</time></trkpt><trkpt lat="43.107445" lon="13.128525"><ele>374.25</ele><time>2026-04-26T12:49:55.232Z</time></trkpt><trkpt lat="43.1075567" lon="13.1285317"><ele>374.5</ele><time>2026-04-26T12:49:56.234Z</time></trkpt><trkpt lat="43.107675" lon="13.1285283"><ele>374.75</ele><time>2026-04-26T12:49:57.233Z</time></trkpt><trkpt lat="43.1078033" lon="13.1285183"><ele>375.0</ele><time>2026-04-26T12:49:58.233Z</time></trkpt><trkpt lat="43.1079283" lon="13.1285017"><ele>375.0</ele><time>2026-04-26T12:49:59.232Z</time></trkpt><trkpt lat="43.1080517" lon="13.1284917"><ele>375.0</ele><time>2026-04-26T12:50:00.237Z</time></trkpt><trkpt lat="43.1081767" lon="13.1284917"><ele>375.0</ele><time>2026-04-26T12:50:01.227Z</time></trkpt><trkpt lat="43.1082933" lon="13.12849"><ele>375.0</ele><time>2026-04-26T12:50:02.231Z</time></trkpt><trkpt lat="43.1084033" lon="13.1284917"><ele>374.2</ele><time>2026-04-26T12:50:03.234Z</time></trkpt><trkpt lat="43.1085083" lon="13.12849"><ele>373.4</ele><time>2026-04-26T12:50:04.233Z</time></trkpt><trkpt lat="43.108605" lon="13.1284917"><ele>372.6</ele><time>2026-04-26T12:50:05.232Z</time></trkpt><trkpt lat="43.1087" lon="13.1284817"><ele>371.8</ele><time>2026-04-26T12:50:06.236Z</time></trkpt><trkpt lat="43.10879" lon="13.128465"><ele>371.0</ele><time>2026-04-26T12:50:07.232Z</time></trkpt><trkpt lat="43.1088733" lon="13.1284333"><ele>371.0</ele><time>2026-04-26T12:50:08.234Z</time></trkpt><trkpt lat="43.10895" lon="13.12838"><ele>371.0</ele><time>2026-04-26T12:50:09.233Z</time></trkpt><trkpt lat="43.1090233" lon="13.1283233"><ele>371.0</ele><time>2026-04-26T12:50:10.233Z</time></trkpt><trkpt lat="43.1090733" lon="13.128205"><ele>371.0</ele><time>2026-04-26T12:50:11.233Z</time></trkpt><trkpt lat="43.109105" lon="13.1280783"><ele>371.0</ele><time>2026-04-26T12:50:12.232Z</time></trkpt><trkpt lat="43.10912" lon="13.1279433"><ele>369.2857142857143</ele><time>2026-04-26T12:50:13.233Z</time></trkpt><trkpt lat="43.1091333" lon="13.1278233"><ele>367.57142857142856</ele><time>2026-04-26T12:50:14.236Z</time></trkpt><trkpt lat="43.10915" lon="13.1277117"><ele>365.8571428571429</ele><time>2026-04-26T12:50:15.234Z</time></trkpt><trkpt lat="43.10917" lon="13.127615"><ele>364.1428571428571</ele><time>2026-04-26T12:50:16.232Z</time></trkpt><trkpt lat="43.1091933" lon="13.1275317"><ele>362.42857142857144</ele><time>2026-04-26T12:50:17.233Z</time></trkpt><trkpt lat="43.1092267" lon="13.1274567"><ele>360.7142857142857</ele><time>2026-04-26T12:50:18.235Z</time></trkpt><trkpt lat="43.1092683" lon="13.12739"><ele>359.0</ele><time>2026-04-26T12:50:19.236Z</time></trkpt><trkpt lat="43.1093183" lon="13.1273217"><ele>359.0</ele><time>2026-04-26T12:50:20.236Z</time></trkpt><trkpt lat="43.10937" lon="13.1272717"><ele>359.0</ele><time>2026-04-26T12:50:21.236Z</time></trkpt><trkpt lat="43.1094683" lon="13.1272083"><ele>359.0</ele><time>2026-04-26T12:50:23.232Z</time></trkpt><trkpt lat="43.1095717" lon="13.127155"><ele>359.0</ele><time>2026-04-26T12:50:25.231Z</time></trkpt><trkpt lat="43.1096783" lon="13.1270933"><ele>359.0</ele><time>2026-04-26T12:50:27.232Z</time></trkpt><trkpt lat="43.1097733" lon="13.1270483"><ele>359.0</ele><time>2026-04-26T12:50:29.233Z</time></trkpt><trkpt lat="43.1098767" lon="13.1270083"><ele>359.0</ele><time>2026-04-26T12:50:31.238Z</time></trkpt><trkpt lat="43.1099683" lon="13.1269667"><ele>359.0</ele><time>2026-04-26T12:50:33.233Z</time></trkpt><trkpt lat="43.1100483" lon="13.12693"><ele>359.0</ele><time>2026-04-26T12:50:35.232Z</time></trkpt><trkpt lat="43.1101333" lon="13.1268933"><ele>359.0</ele><time>2026-04-26T12:50:37.233Z</time></trkpt><trkpt lat="43.1102233" lon="13.1268433"><ele>358.2</ele><time>2026-04-26T12:50:39.232Z</time></trkpt><trkpt lat="43.1102733" lon="13.1267783"><ele>357.4</ele><time>2026-04-26T12:50:41.232Z</time></trkpt><trkpt lat="43.1102767" lon="13.1266533"><ele>356.6</ele><time>2026-04-26T12:50:45.232Z</time></trkpt><trkpt lat="43.1102833" lon="13.1264733"><ele>355.8</ele><time>2026-04-26T12:50:47.232Z</time></trkpt><trkpt lat="43.11029" lon="13.12636"><ele>355.0</ele><time>2026-04-26T12:50:48.233Z</time></trkpt><trkpt lat="43.1102967" lon="13.1262383"><ele>355.0</ele><time>2026-04-26T12:50:49.233Z</time></trkpt><trkpt lat="43.1103017" lon="13.1261033"><ele>355.0</ele><time>2026-04-26T12:50:50.232Z</time></trkpt><trkpt lat="43.1103033" lon="13.1259467"><ele>355.0</ele><time>2026-04-26T12:50:51.233Z</time></trkpt><trkpt lat="43.110305" lon="13.1257833"><ele>355.0</ele><time>2026-04-26T12:50:52.231Z</time></trkpt><trkpt lat="43.1103017" lon="13.125605"><ele>356.0</ele><time>2026-04-26T12:50:53.234Z</time></trkpt><trkpt lat="43.110295" lon="13.1254017"><ele>357.0</ele><time>2026-04-26T12:50:54.232Z</time></trkpt><trkpt lat="43.110285" lon="13.12519"><ele>358.0</ele><time>2026-04-26T12:50:55.234Z</time></trkpt><trkpt lat="43.1102767" lon="13.1249817"><ele>358.0</ele><time>2026-04-26T12:50:56.233Z</time></trkpt><trkpt lat="43.110275" lon="13.124795"><ele>358.0</ele><time>2026-04-26T12:50:57.237Z</time></trkpt><trkpt lat="43.110295" lon="13.1246317"><ele>358.0</ele><time>2026-04-26T12:50:58.234Z</time></trkpt><trkpt lat="43.1103383" lon="13.124465"><ele>358.0</ele><time>2026-04-26T12:50:59.233Z</time></trkpt><trkpt lat="43.1104067" lon="13.1243033"><ele>358.0</ele><time>2026-04-26T12:51:00.232Z</time></trkpt><trkpt lat="43.1104517" lon="13.1241367"><ele>358.0</ele><time>2026-04-26T12:51:01.233Z</time></trkpt><trkpt lat="43.1104567" lon="13.1239583"><ele>358.0</ele><time>2026-04-26T12:51:02.233Z</time></trkpt><trkpt lat="43.11043" lon="13.1237817"><ele>358.0</ele><time>2026-04-26T12:51:03.231Z</time></trkpt><trkpt lat="43.1103667" lon="13.1236067"><ele>358.0</ele><time>2026-04-26T12:51:04.231Z</time></trkpt><trkpt lat="43.1102783" lon="13.123415"><ele>358.0</ele><time>2026-04-26T12:51:05.233Z</time></trkpt><trkpt lat="43.1102133" lon="13.12322"><ele>358.0</ele><time>2026-04-26T12:51:06.233Z</time></trkpt><trkpt lat="43.11018" lon="13.1230233"><ele>358.0</ele><time>2026-04-26T12:51:07.233Z</time></trkpt><trkpt lat="43.1101667" lon="13.1228117"><ele>358.0</ele><time>2026-04-26T12:51:08.231Z</time></trkpt><trkpt lat="43.1102033" lon="13.12259"><ele>358.0</ele><time>2026-04-26T12:51:09.233Z</time></trkpt><trkpt lat="43.1102567" lon="13.1223583"><ele>356.3333333333333</ele><time>2026-04-26T12:51:10.232Z</time></trkpt><trkpt lat="43.1103233" lon="13.1221133"><ele>354.6666666666667</ele><time>2026-04-26T12:51:11.235Z</time></trkpt><trkpt lat="43.1103983" lon="13.1218567"><ele>353.0</ele><time>2026-04-26T12:51:12.234Z</time></trkpt><trkpt lat="43.110475" lon="13.12159"><ele>353.33333333333337</ele><time>2026-04-26T12:51:13.234Z</time></trkpt><trkpt lat="43.1105383" lon="13.1213167"><ele>353.6666666666667</ele><time>2026-04-26T12:51:14.235Z</time></trkpt><trkpt lat="43.1105883" lon="13.1210483"><ele>354.0</ele><time>2026-04-26T12:51:15.237Z</time></trkpt><trkpt lat="43.110625" lon="13.120775"><ele>355.0</ele><time>2026-04-26T12:51:16.233Z</time></trkpt><trkpt lat="43.1106433" lon="13.120505"><ele>356.0</ele><time>2026-04-26T12:51:17.235Z</time></trkpt><trkpt lat="43.1106483" lon="13.12023"><ele>357.0</ele><time>2026-04-26T12:51:18.232Z</time></trkpt><trkpt lat="43.1106467" lon="13.1199533"><ele>356.6666666666667</ele><time>2026-04-26T12:51:19.234Z</time></trkpt><trkpt lat="43.11063" lon="13.11968"><ele>356.33333333333337</ele><time>2026-04-26T12:51:20.236Z</time></trkpt><trkpt lat="43.1106033" lon="13.1194083"><ele>356.0</ele><time>2026-04-26T12:51:21.234Z</time></trkpt><trkpt lat="43.11057" lon="13.1191383"><ele>356.33333333333337</ele><time>2026-04-26T12:51:22.242Z</time></trkpt><trkpt lat="43.1105333" lon="13.1188683"><ele>356.6666666666667</ele><time>2026-04-26T12:51:23.234Z</time></trkpt><trkpt lat="43.110495" lon="13.1185933"><ele>357.0</ele><time>2026-04-26T12:51:24.236Z</time></trkpt><trkpt lat="43.11046" lon="13.1183183"><ele>358.3333333333333</ele><time>2026-04-26T12:51:25.232Z</time></trkpt><trkpt lat="43.1104367" lon="13.1180417"><ele>359.66666666666663</ele><time>2026-04-26T12:51:26.232Z</time></trkpt><trkpt lat="43.1104333" lon="13.1177617"><ele>361.0</ele><time>2026-04-26T12:51:27.234Z</time></trkpt><trkpt lat="43.11045" lon="13.117485"><ele>361.0</ele><time>2026-04-26T12:51:28.236Z</time></trkpt><trkpt lat="43.1104817" lon="13.117215"><ele>361.0</ele><time>2026-04-26T12:51:29.232Z</time></trkpt><trkpt lat="43.1105133" lon="13.116945"><ele>361.0</ele><time>2026-04-26T12:51:30.235Z</time></trkpt><trkpt lat="43.110545" lon="13.116675"><ele>361.3333333333333</ele><time>2026-04-26T12:51:31.235Z</time></trkpt><trkpt lat="43.110575" lon="13.1164067"><ele>361.6666666666667</ele><time>2026-04-26T12:51:32.234Z</time></trkpt><trkpt lat="43.1106067" lon="13.1161367"><ele>362.0</ele><time>2026-04-26T12:51:33.233Z</time></trkpt><trkpt lat="43.110635" lon="13.1158683"><ele>362.33333333333337</ele><time>2026-04-26T12:51:34.235Z</time></trkpt><trkpt lat="43.1106617" lon="13.1156"><ele>362.6666666666667</ele><time>2026-04-26T12:51:35.232Z</time></trkpt><trkpt lat="43.11069" lon="13.11533"><ele>363.0</ele><time>2026-04-26T12:51:36.234Z</time></trkpt><trkpt lat="43.110715" lon="13.1150567"><ele>365.3333333333333</ele><time>2026-04-26T12:51:37.237Z</time></trkpt><trkpt lat="43.1107417" lon="13.1147817"><ele>367.66666666666663</ele><time>2026-04-26T12:51:38.236Z</time></trkpt><trkpt lat="43.1107667" lon="13.1145133"><ele>370.0</ele><time>2026-04-26T12:51:39.243Z</time></trkpt><trkpt lat="43.1107983" lon="13.1142517"><ele>369.3333333333333</ele><time>2026-04-26T12:51:40.234Z</time></trkpt><trkpt lat="43.1108417" lon="13.114"><ele>368.6666666666667</ele><time>2026-04-26T12:51:41.234Z</time></trkpt><trkpt lat="43.1108933" lon="13.113755"><ele>368.0</ele><time>2026-04-26T12:51:42.235Z</time></trkpt><trkpt lat="43.110955" lon="13.1135133"><ele>368.0</ele><time>2026-04-26T12:51:43.233Z</time></trkpt><trkpt lat="43.1110167" lon="13.1132667"><ele>368.0</ele><time>2026-04-26T12:51:44.232Z</time></trkpt><trkpt lat="43.1110817" lon="13.1130233"><ele>368.0</ele><time>2026-04-26T12:51:45.238Z</time></trkpt><trkpt lat="43.111145" lon="13.1127717"><ele>368.0</ele><time>2026-04-26T12:51:46.237Z</time></trkpt><trkpt lat="43.1111933" lon="13.112515"><ele>368.0</ele><time>2026-04-26T12:51:47.234Z</time></trkpt><trkpt lat="43.1112267" lon="13.1122533"><ele>368.0</ele><time>2026-04-26T12:51:48.233Z</time></trkpt><trkpt lat="43.1112433" lon="13.11199"><ele>368.0</ele><time>2026-04-26T12:51:49.237Z</time></trkpt><trkpt lat="43.1112467" lon="13.1117233"><ele>368.0</ele><time>2026-04-26T12:51:50.234Z</time></trkpt><trkpt lat="43.111245" lon="13.111455"><ele>368.0</ele><time>2026-04-26T12:51:51.235Z</time></trkpt><trkpt lat="43.1112383" lon="13.1111783"><ele>368.6666666666667</ele><time>2026-04-26T12:51:52.236Z</time></trkpt><trkpt lat="43.1112333" lon="13.1108933"><ele>369.3333333333333</ele><time>2026-04-26T12:51:53.231Z</time></trkpt><trkpt lat="43.11123" lon="13.1106017"><ele>370.0</ele><time>2026-04-26T12:51:54.231Z</time></trkpt><trkpt lat="43.111225" lon="13.110295"><ele>370.0</ele><time>2026-04-26T12:51:55.235Z</time></trkpt><trkpt lat="43.1112167" lon="13.109975"><ele>370.0</ele><time>2026-04-26T12:51:56.235Z</time></trkpt><trkpt lat="43.11121" lon="13.10965"><ele>370.5</ele><time>2026-04-26T12:51:57.236Z</time></trkpt><trkpt lat="43.1112" lon="13.1093167"><ele>371.0</ele><time>2026-04-26T12:51:58.234Z</time></trkpt><trkpt lat="43.1111867" lon="13.1089817"><ele>371.5</ele><time>2026-04-26T12:51:59.234Z</time></trkpt><trkpt lat="43.111175" lon="13.1086433"><ele>372.0</ele><time>2026-04-26T12:52:00.235Z</time></trkpt><trkpt lat="43.1111667" lon="13.1083067"><ele>372.5</ele><time>2026-04-26T12:52:01.237Z</time></trkpt><trkpt lat="43.11117" lon="13.10797"><ele>373.0</ele><time>2026-04-26T12:52:02.233Z</time></trkpt><trkpt lat="43.1111867" lon="13.107635"><ele>373.5</ele><time>2026-04-26T12:52:03.235Z</time></trkpt><trkpt lat="43.111215" lon="13.1072983"><ele>374.0</ele><time>2026-04-26T12:52:04.237Z</time></trkpt><trkpt lat="43.1112517" lon="13.1069667"><ele>374.0</ele><time>2026-04-26T12:52:05.232Z</time></trkpt><trkpt lat="43.1113117" lon="13.10665"><ele>374.0</ele><time>2026-04-26T12:52:06.234Z</time></trkpt><trkpt lat="43.1114017" lon="13.10634"><ele>374.5</ele><time>2026-04-26T12:52:07.233Z</time></trkpt><trkpt lat="43.1115133" lon="13.1060433"><ele>375.0</ele><time>2026-04-26T12:52:08.234Z</time></trkpt><trkpt lat="43.1116283" lon="13.10575"><ele>375.0</ele><time>2026-04-26T12:52:09.235Z</time></trkpt><trkpt lat="43.11173" lon="13.105445"><ele>375.0</ele><time>2026-04-26T12:52:10.236Z</time></trkpt><trkpt lat="43.1118133" lon="13.1051217"><ele>376.5</ele><time>2026-04-26T12:52:11.234Z</time></trkpt><trkpt lat="43.1118917" lon="13.1047933"><ele>378.0</ele><time>2026-04-26T12:52:12.236Z</time></trkpt><trkpt lat="43.1119683" lon="13.10446"><ele>378.0</ele><time>2026-04-26T12:52:13.232Z</time></trkpt><trkpt lat="43.112045" lon="13.1041217"><ele>378.0</ele><time>2026-04-26T12:52:14.234Z</time></trkpt><trkpt lat="43.1121167" lon="13.1037833"><ele>379.5</ele><time>2026-04-26T12:52:15.235Z</time></trkpt><trkpt lat="43.1121883" lon="13.1034483"><ele>381.0</ele><time>2026-04-26T12:52:16.236Z</time></trkpt><trkpt lat="43.1122617" lon="13.1031133"><ele>381.0</ele><time>2026-04-26T12:52:17.233Z</time></trkpt><trkpt lat="43.1123333" lon="13.10278"><ele>381.0</ele><time>2026-04-26T12:52:18.235Z</time></trkpt><trkpt lat="43.1124083" lon="13.10245"><ele>381.0</ele><time>2026-04-26T12:52:19.238Z</time></trkpt><trkpt lat="43.11248" lon="13.1021233"><ele>381.0</ele><time>2026-04-26T12:52:20.235Z</time></trkpt><trkpt lat="43.1125467" lon="13.1018"><ele>381.5</ele><time>2026-04-26T12:52:21.235Z</time></trkpt><trkpt lat="43.1126183" lon="13.1014817"><ele>382.0</ele><time>2026-04-26T12:52:22.233Z</time></trkpt><trkpt lat="43.1126933" lon="13.101175"><ele>382.0</ele><time>2026-04-26T12:52:23.231Z</time></trkpt><trkpt lat="43.1127783" lon="13.1008917"><ele>382.0</ele><time>2026-04-26T12:52:24.234Z</time></trkpt><trkpt lat="43.11288" lon="13.1006133"><ele>386.0</ele><time>2026-04-26T12:52:25.233Z</time></trkpt><trkpt lat="43.1129983" lon="13.100335"><ele>390.0</ele><time>2026-04-26T12:52:26.235Z</time></trkpt><trkpt lat="43.11313" lon="13.1000617"><ele>388.5</ele><time>2026-04-26T12:52:27.235Z</time></trkpt><trkpt lat="43.1132633" lon="13.0997833"><ele>387.0</ele><time>2026-04-26T12:52:28.233Z</time></trkpt><trkpt lat="43.1133883" lon="13.0994917"><ele>387.0</ele><time>2026-04-26T12:52:29.236Z</time></trkpt><trkpt lat="43.1134917" lon="13.09919"><ele>387.0</ele><time>2026-04-26T12:52:30.235Z</time></trkpt><trkpt lat="43.1135783" lon="13.0988717"><ele>387.0</ele><time>2026-04-26T12:52:31.235Z</time></trkpt><trkpt lat="43.1136433" lon="13.098535"><ele>387.0</ele><time>2026-04-26T12:52:32.235Z</time></trkpt><trkpt lat="43.1136867" lon="13.0981917"><ele>388.5</ele><time>2026-04-26T12:52:33.233Z</time></trkpt><trkpt lat="43.113715" lon="13.0978433"><ele>390.0</ele><time>2026-04-26T12:52:34.231Z</time></trkpt><trkpt lat="43.1137483" lon="13.0974983"><ele>391.5</ele><time>2026-04-26T12:52:35.234Z</time></trkpt><trkpt lat="43.113775" lon="13.0971517"><ele>393.0</ele><time>2026-04-26T12:52:36.232Z</time></trkpt><trkpt lat="43.1138033" lon="13.0968017"><ele>393.5</ele><time>2026-04-26T12:52:37.236Z</time></trkpt><trkpt lat="43.11383" lon="13.0964483"><ele>394.0</ele><time>2026-04-26T12:52:38.233Z</time></trkpt><trkpt lat="43.1138567" lon="13.0960983"><ele>394.0</ele><time>2026-04-26T12:52:39.235Z</time></trkpt><trkpt lat="43.1138833" lon="13.09575"><ele>394.0</ele><time>2026-04-26T12:52:40.233Z</time></trkpt><trkpt lat="43.113905" lon="13.0954067"><ele>394.0</ele><time>2026-04-26T12:52:41.235Z</time></trkpt><trkpt lat="43.1139233" lon="13.0950683"><ele>394.0</ele><time>2026-04-26T12:52:42.234Z</time></trkpt><trkpt lat="43.1139433" lon="13.09473"><ele>395.5</ele><time>2026-04-26T12:52:43.232Z</time></trkpt><trkpt lat="43.11397" lon="13.0943933"><ele>397.0</ele><time>2026-04-26T12:52:44.232Z</time></trkpt><trkpt lat="43.113995" lon="13.0940583"><ele>398.5</ele><time>2026-04-26T12:52:45.236Z</time></trkpt><trkpt lat="43.11402" lon="13.0937217"><ele>400.0</ele><time>2026-04-26T12:52:46.231Z</time></trkpt><trkpt lat="43.114035" lon="13.093385"><ele>401.5</ele><time>2026-04-26T12:52:47.234Z</time></trkpt><trkpt lat="43.11406" lon="13.09306"><ele>403.0</ele><time>2026-04-26T12:52:48.233Z</time></trkpt><trkpt lat="43.1141167" lon="13.0927567"><ele>406.0</ele><time>2026-04-26T12:52:49.233Z</time></trkpt><trkpt lat="43.1142117" lon="13.0924667"><ele>409.0</ele><time>2026-04-26T12:52:50.232Z</time></trkpt><trkpt lat="43.1143167" lon="13.0922017"><ele>409.0</ele><time>2026-04-26T12:52:51.237Z</time></trkpt><trkpt lat="43.1144017" lon="13.091935"><ele>409.0</ele><time>2026-04-26T12:52:52.232Z</time></trkpt><trkpt lat="43.1144683" lon="13.0916533"><ele>409.0</ele><time>2026-04-26T12:52:53.236Z</time></trkpt><trkpt lat="43.1144983" lon="13.091365"><ele>409.0</ele><time>2026-04-26T12:52:54.235Z</time></trkpt><trkpt lat="43.1144933" lon="13.09106"><ele>409.0</ele><time>2026-04-26T12:52:55.233Z</time></trkpt><trkpt lat="43.1144733" lon="13.0907683"><ele>409.0</ele><time>2026-04-26T12:52:56.235Z</time></trkpt><trkpt lat="43.1144417" lon="13.0904833"><ele>409.6666666666667</ele><time>2026-04-26T12:52:57.235Z</time></trkpt><trkpt lat="43.114415" lon="13.090215"><ele>410.33333333333337</ele><time>2026-04-26T12:52:58.235Z</time></trkpt><trkpt lat="43.1144067" lon="13.0899617"><ele>411.0</ele><time>2026-04-26T12:52:59.235Z</time></trkpt><trkpt lat="43.1144533" lon="13.0897383"><ele>411.0</ele><time>2026-04-26T12:53:00.235Z</time></trkpt><trkpt lat="43.1145433" lon="13.0895433"><ele>411.0</ele><time>2026-04-26T12:53:01.236Z</time></trkpt><trkpt lat="43.1146583" lon="13.0893833"><ele>411.0</ele><time>2026-04-26T12:53:02.232Z</time></trkpt><trkpt lat="43.1148" lon="13.089255"><ele>410.33333333333337</ele><time>2026-04-26T12:53:03.234Z</time></trkpt><trkpt lat="43.1149633" lon="13.0891483"><ele>409.6666666666667</ele><time>2026-04-26T12:53:04.232Z</time></trkpt><trkpt lat="43.1151367" lon="13.08902"><ele>409.0</ele><time>2026-04-26T12:53:05.231Z</time></trkpt><trkpt lat="43.1152917" lon="13.0888483"><ele>409.0</ele><time>2026-04-26T12:53:06.234Z</time></trkpt><trkpt lat="43.11543" lon="13.088645"><ele>409.0</ele><time>2026-04-26T12:53:07.234Z</time></trkpt><trkpt lat="43.1155533" lon="13.08842"><ele>409.0</ele><time>2026-04-26T12:53:08.236Z</time></trkpt><trkpt lat="43.1156583" lon="13.088175"><ele>412.0</ele><time>2026-04-26T12:53:09.238Z</time></trkpt><trkpt lat="43.115775" lon="13.087915"><ele>415.0</ele><time>2026-04-26T12:53:10.232Z</time></trkpt><trkpt lat="43.1159133" lon="13.0876683"><ele>413.5</ele><time>2026-04-26T12:53:11.234Z</time></trkpt><trkpt lat="43.11606" lon="13.0874217"><ele>412.0</ele><time>2026-04-26T12:53:12.234Z</time></trkpt><trkpt lat="43.1162067" lon="13.08718"><ele>412.0</ele><time>2026-04-26T12:53:13.234Z</time></trkpt><trkpt lat="43.116355" lon="13.0869283"><ele>412.0</ele><time>2026-04-26T12:53:14.233Z</time></trkpt><trkpt lat="43.1165067" lon="13.08668"><ele>413.5</ele><time>2026-04-26T12:53:15.232Z</time></trkpt><trkpt lat="43.1166617" lon="13.086435"><ele>415.0</ele><time>2026-04-26T12:53:16.233Z</time></trkpt><trkpt lat="43.116815" lon="13.086185"><ele>415.0</ele><time>2026-04-26T12:53:17.233Z</time></trkpt><trkpt lat="43.11697" lon="13.0859317"><ele>415.0</ele><time>2026-04-26T12:53:18.232Z</time></trkpt><trkpt lat="43.117125" lon="13.0856767"><ele>416.5</ele><time>2026-04-26T12:53:19.232Z</time></trkpt><trkpt lat="43.1172817" lon="13.08542"><ele>418.0</ele><time>2026-04-26T12:53:20.237Z</time></trkpt><trkpt lat="43.117435" lon="13.08516"><ele>416.0</ele><time>2026-04-26T12:53:21.234Z</time></trkpt><trkpt lat="43.1175833" lon="13.0849"><ele>414.0</ele><time>2026-04-26T12:53:22.234Z</time></trkpt><trkpt lat="43.11773" lon="13.08464"><ele>414.0</ele><time>2026-04-26T12:53:23.232Z</time></trkpt><trkpt lat="43.11788" lon="13.08438"><ele>414.0</ele><time>2026-04-26T12:53:24.232Z</time></trkpt><trkpt lat="43.1180333" lon="13.0841183"><ele>413.5</ele><time>2026-04-26T12:53:25.234Z</time></trkpt><trkpt lat="43.1181783" lon="13.083865"><ele>413.0</ele><time>2026-04-26T12:53:26.232Z</time></trkpt><trkpt lat="43.11832" lon="13.083625"><ele>413.3333333333333</ele><time>2026-04-26T12:53:27.233Z</time></trkpt><trkpt lat="43.1184533" lon="13.0833983"><ele>413.66666666666663</ele><time>2026-04-26T12:53:28.232Z</time></trkpt><trkpt lat="43.1186017" lon="13.0831983"><ele>414.0</ele><time>2026-04-26T12:53:29.235Z</time></trkpt><trkpt lat="43.1187683" lon="13.08304"><ele>414.0</ele><time>2026-04-26T12:53:30.232Z</time></trkpt><trkpt lat="43.1189517" lon="13.0829317"><ele>414.0</ele><time>2026-04-26T12:53:31.235Z</time></trkpt><trkpt lat="43.1191517" lon="13.082865"><ele>414.0</ele><time>2026-04-26T12:53:32.236Z</time></trkpt><trkpt lat="43.11936" lon="13.0828233"><ele>414.66666666666663</ele><time>2026-04-26T12:53:33.233Z</time></trkpt><trkpt lat="43.1195783" lon="13.0828033"><ele>415.3333333333333</ele><time>2026-04-26T12:53:34.233Z</time></trkpt><trkpt lat="43.119795" lon="13.0827833"><ele>416.0</ele><time>2026-04-26T12:53:35.235Z</time></trkpt><trkpt lat="43.120015" lon="13.082765"><ele>417.3333333333333</ele><time>2026-04-26T12:53:36.234Z</time></trkpt><trkpt lat="43.1202367" lon="13.0827483"><ele>418.66666666666663</ele><time>2026-04-26T12:53:37.231Z</time></trkpt><trkpt lat="43.1204633" lon="13.08273"><ele>420.0</ele><time>2026-04-26T12:53:38.231Z</time></trkpt><trkpt lat="43.1206867" lon="13.0827117"><ele>422.0</ele><time>2026-04-26T12:53:39.237Z</time></trkpt><trkpt lat="43.12092" lon="13.0826983"><ele>424.0</ele><time>2026-04-26T12:53:40.236Z</time></trkpt><trkpt lat="43.121155" lon="13.0826983"><ele>424.0</ele><time>2026-04-26T12:53:41.234Z</time></trkpt><trkpt lat="43.1213967" lon="13.0827067"><ele>424.0</ele><time>2026-04-26T12:53:42.237Z</time></trkpt><trkpt lat="43.121635" lon="13.082715"><ele>424.5</ele><time>2026-04-26T12:53:43.236Z</time></trkpt><trkpt lat="43.1218717" lon="13.08272"><ele>425.0</ele><time>2026-04-26T12:53:44.235Z</time></trkpt><trkpt lat="43.12211" lon="13.0827267"><ele>425.0</ele><time>2026-04-26T12:53:45.236Z</time></trkpt><trkpt lat="43.1223467" lon="13.0827183"><ele>425.0</ele><time>2026-04-26T12:53:46.234Z</time></trkpt><trkpt lat="43.122585" lon="13.08269"><ele>426.5</ele><time>2026-04-26T12:53:47.234Z</time></trkpt><trkpt lat="43.122825" lon="13.0826517"><ele>428.0</ele><time>2026-04-26T12:53:48.235Z</time></trkpt><trkpt lat="43.1230683" lon="13.0826117"><ele>427.5</ele><time>2026-04-26T12:53:49.243Z</time></trkpt><trkpt lat="43.12331" lon="13.08257"><ele>427.0</ele><time>2026-04-26T12:53:50.235Z</time></trkpt><trkpt lat="43.1235483" lon="13.08253"><ele>427.0</ele><time>2026-04-26T12:53:51.235Z</time></trkpt><trkpt lat="43.1237867" lon="13.082485"><ele>427.0</ele><time>2026-04-26T12:53:52.233Z</time></trkpt><trkpt lat="43.1240167" lon="13.0824367"><ele>426.0</ele><time>2026-04-26T12:53:53.235Z</time></trkpt><trkpt lat="43.1242317" lon="13.0823733"><ele>425.0</ele><time>2026-04-26T12:53:54.234Z</time></trkpt><trkpt lat="43.1244217" lon="13.0822833"><ele>424.0</ele><time>2026-04-26T12:53:55.234Z</time></trkpt><trkpt lat="43.1245983" lon="13.0821567"><ele>424.0</ele><time>2026-04-26T12:53:56.235Z</time></trkpt><trkpt lat="43.1247667" lon="13.081995"><ele>424.0</ele><time>2026-04-26T12:53:57.236Z</time></trkpt><trkpt lat="43.1249333" lon="13.0818017"><ele>424.0</ele><time>2026-04-26T12:53:58.233Z</time></trkpt><trkpt lat="43.125085" lon="13.0815833"><ele>423.5</ele><time>2026-04-26T12:53:59.233Z</time></trkpt><trkpt lat="43.1252383" lon="13.08135"><ele>423.0</ele><time>2026-04-26T12:54:00.234Z</time></trkpt><trkpt lat="43.1254" lon="13.08112"><ele>423.0</ele><time>2026-04-26T12:54:01.235Z</time></trkpt><trkpt lat="43.125565" lon="13.0809"><ele>423.0</ele><time>2026-04-26T12:54:02.235Z</time></trkpt><trkpt lat="43.12574" lon="13.0806867"><ele>423.0</ele><time>2026-04-26T12:54:03.235Z</time></trkpt><trkpt lat="43.125915" lon="13.0804767"><ele>423.0</ele><time>2026-04-26T12:54:04.236Z</time></trkpt><trkpt lat="43.1260767" lon="13.0802683"><ele>423.0</ele><time>2026-04-26T12:54:05.235Z</time></trkpt><trkpt lat="43.126225" lon="13.08006"><ele>423.0</ele><time>2026-04-26T12:54:06.237Z</time></trkpt><trkpt lat="43.126355" lon="13.0798367"><ele>423.0</ele><time>2026-04-26T12:54:07.235Z</time></trkpt><trkpt lat="43.1264567" lon="13.0795883"><ele>423.33333333333337</ele><time>2026-04-26T12:54:08.237Z</time></trkpt><trkpt lat="43.126515" lon="13.0793067"><ele>423.6666666666667</ele><time>2026-04-26T12:54:09.234Z</time></trkpt><trkpt lat="43.1265317" lon="13.0790067"><ele>424.0</ele><time>2026-04-26T12:54:10.237Z</time></trkpt><trkpt lat="43.1265017" lon="13.0787117"><ele>424.5</ele><time>2026-04-26T12:54:11.23Z</time></trkpt><trkpt lat="43.1264133" lon="13.0784283"><ele>425.0</ele><time>2026-04-26T12:54:12.234Z</time></trkpt><trkpt lat="43.1262933" lon="13.0781483"><ele>427.5</ele><time>2026-04-26T12:54:13.233Z</time></trkpt><trkpt lat="43.1261717" lon="13.0778733"><ele>430.0</ele><time>2026-04-26T12:54:14.233Z</time></trkpt><trkpt lat="43.1260517" lon="13.0776"><ele>434.5</ele><time>2026-04-26T12:54:15.235Z</time></trkpt><trkpt lat="43.1259283" lon="13.0773267"><ele>439.0</ele><time>2026-04-26T12:54:16.234Z</time></trkpt><trkpt lat="43.12581" lon="13.0770533"><ele>437.0</ele><time>2026-04-26T12:54:17.233Z</time></trkpt><trkpt lat="43.12569" lon="13.0767783"><ele>435.0</ele><time>2026-04-26T12:54:18.232Z</time></trkpt><trkpt lat="43.1255717" lon="13.0764983"><ele>435.0</ele><time>2026-04-26T12:54:19.231Z</time></trkpt><trkpt lat="43.1254517" lon="13.07622"><ele>435.0</ele><time>2026-04-26T12:54:20.233Z</time></trkpt><trkpt lat="43.1253283" lon="13.0759383"><ele>439.0</ele><time>2026-04-26T12:54:21.234Z</time></trkpt><trkpt lat="43.1252067" lon="13.075655"><ele>443.0</ele><time>2026-04-26T12:54:22.24Z</time></trkpt><trkpt lat="43.1250833" lon="13.0753667"><ele>443.0</ele><time>2026-04-26T12:54:23.233Z</time></trkpt><trkpt lat="43.1249667" lon="13.0750817"><ele>443.0</ele><time>2026-04-26T12:54:24.234Z</time></trkpt><trkpt lat="43.12485" lon="13.0747933"><ele>442.0</ele><time>2026-04-26T12:54:25.232Z</time></trkpt><trkpt lat="43.12473" lon="13.0745067"><ele>441.0</ele><time>2026-04-26T12:54:26.231Z</time></trkpt><trkpt lat="43.1246117" lon="13.0742217"><ele>444.5</ele><time>2026-04-26T12:54:27.235Z</time></trkpt><trkpt lat="43.1244933" lon="13.0739367"><ele>448.0</ele><time>2026-04-26T12:54:28.236Z</time></trkpt><trkpt lat="43.1243783" lon="13.073655"><ele>448.0</ele><time>2026-04-26T12:54:29.233Z</time></trkpt><trkpt lat="43.12427" lon="13.0733783"><ele>448.0</ele><time>2026-04-26T12:54:30.233Z</time></trkpt><trkpt lat="43.124175" lon="13.0730833"><ele>451.0</ele><time>2026-04-26T12:54:31.235Z</time></trkpt><trkpt lat="43.1240967" lon="13.0727833"><ele>454.0</ele><time>2026-04-26T12:54:32.235Z</time></trkpt><trkpt lat="43.1240333" lon="13.0724783"><ele>451.0</ele><time>2026-04-26T12:54:33.238Z</time></trkpt><trkpt lat="43.1239833" lon="13.0721733"><ele>448.0</ele><time>2026-04-26T12:54:34.234Z</time></trkpt><trkpt lat="43.123935" lon="13.0718683"><ele>451.0</ele><time>2026-04-26T12:54:35.235Z</time></trkpt><trkpt lat="43.1238833" lon="13.0715617"><ele>454.0</ele><time>2026-04-26T12:54:36.232Z</time></trkpt><trkpt lat="43.12384" lon="13.0712633"><ele>454.0</ele><time>2026-04-26T12:54:37.233Z</time></trkpt><trkpt lat="43.1238017" lon="13.0709733"><ele>454.0</ele><time>2026-04-26T12:54:38.239Z</time></trkpt><trkpt lat="43.123765" lon="13.0707"><ele>454.0</ele><time>2026-04-26T12:54:39.236Z</time></trkpt><trkpt lat="43.123725" lon="13.070435"><ele>456.0</ele><time>2026-04-26T12:54:40.234Z</time></trkpt><trkpt lat="43.1236817" lon="13.0701733"><ele>458.0</ele><time>2026-04-26T12:54:41.232Z</time></trkpt><trkpt lat="43.12364" lon="13.069905"><ele>460.0</ele><time>2026-04-26T12:54:42.234Z</time></trkpt><trkpt lat="43.1236083" lon="13.0696183"><ele>462.0</ele><time>2026-04-26T12:54:43.233Z</time></trkpt><trkpt lat="43.1235833" lon="13.0693117"><ele>464.0</ele><time>2026-04-26T12:54:44.238Z</time></trkpt><trkpt lat="43.1235683" lon="13.0689983"><ele>466.0</ele><time>2026-04-26T12:54:45.233Z</time></trkpt><trkpt lat="43.12355" lon="13.0686833"><ele>468.0</ele><time>2026-04-26T12:54:46.231Z</time></trkpt><trkpt lat="43.1235233" lon="13.06837"><ele>470.33333333333337</ele><time>2026-04-26T12:54:47.237Z</time></trkpt><trkpt lat="43.1234833" lon="13.0680683"><ele>472.6666666666667</ele><time>2026-04-26T12:54:48.237Z</time></trkpt><trkpt lat="43.1234167" lon="13.0677817"><ele>475.0</ele><time>2026-04-26T12:54:49.234Z</time></trkpt><trkpt lat="43.1233217" lon="13.0675133"><ele>471.0</ele><time>2026-04-26T12:54:50.235Z</time></trkpt><trkpt lat="43.1232133" lon="13.0672683"><ele>467.0</ele><time>2026-04-26T12:54:51.237Z</time></trkpt><trkpt lat="43.123115" lon="13.0670367"><ele>463.0</ele><time>2026-04-26T12:54:52.235Z</time></trkpt><trkpt lat="43.123035" lon="13.06681"><ele>463.0</ele><time>2026-04-26T12:54:53.234Z</time></trkpt><trkpt lat="43.1229917" lon="13.0665883"><ele>463.0</ele><time>2026-04-26T12:54:54.233Z</time></trkpt><trkpt lat="43.1229983" lon="13.06637"><ele>463.0</ele><time>2026-04-26T12:54:55.234Z</time></trkpt><trkpt lat="43.1230333" lon="13.0661517"><ele>463.0</ele><time>2026-04-26T12:54:56.231Z</time></trkpt><trkpt lat="43.1230967" lon="13.0659617"><ele>463.0</ele><time>2026-04-26T12:54:57.233Z</time></trkpt><trkpt lat="43.123195" lon="13.0658117"><ele>463.0</ele><time>2026-04-26T12:54:58.233Z</time></trkpt><trkpt lat="43.123315" lon="13.065685"><ele>466.33333333333337</ele><time>2026-04-26T12:54:59.231Z</time></trkpt><trkpt lat="43.1234567" lon="13.0655733"><ele>469.66666666666663</ele><time>2026-04-26T12:55:00.234Z</time></trkpt><trkpt lat="43.1236033" lon="13.0654583"><ele>473.0</ele><time>2026-04-26T12:55:01.231Z</time></trkpt><trkpt lat="43.12375" lon="13.065335"><ele>473.0</ele><time>2026-04-26T12:55:02.233Z</time></trkpt><trkpt lat="43.1239" lon="13.0652183"><ele>473.0</ele><time>2026-04-26T12:55:03.232Z</time></trkpt><trkpt lat="43.1240583" lon="13.0651167"><ele>473.0</ele><time>2026-04-26T12:55:04.235Z</time></trkpt><trkpt lat="43.1242167" lon="13.065045"><ele>475.3333333333333</ele><time>2026-04-26T12:55:05.235Z</time></trkpt><trkpt lat="43.1243717" lon="13.0649683"><ele>477.66666666666663</ele><time>2026-04-26T12:55:06.236Z</time></trkpt><trkpt lat="43.1245033" lon="13.0648583"><ele>480.0</ele><time>2026-04-26T12:55:07.234Z</time></trkpt><trkpt lat="43.124595" lon="13.0647067"><ele>480.0</ele><time>2026-04-26T12:55:08.234Z</time></trkpt><trkpt lat="43.12464" lon="13.064515"><ele>480.0</ele><time>2026-04-26T12:55:09.235Z</time></trkpt><trkpt lat="43.1247083" lon="13.064345"><ele>480.0</ele><time>2026-04-26T12:55:10.231Z</time></trkpt><trkpt lat="43.1247967" lon="13.0642017"><ele>480.0</ele><time>2026-04-26T12:55:11.23Z</time></trkpt><trkpt lat="43.1249083" lon="13.0641083"><ele>484.0</ele><time>2026-04-26T12:55:12.233Z</time></trkpt><trkpt lat="43.1250483" lon="13.0640567"><ele>488.0</ele><time>2026-04-26T12:55:13.232Z</time></trkpt><trkpt lat="43.125235" lon="13.06404"><ele>492.0</ele><time>2026-04-26T12:55:14.233Z</time></trkpt><trkpt lat="43.1254283" lon="13.063995"><ele>492.0</ele><time>2026-04-26T12:55:15.235Z</time></trkpt><trkpt lat="43.1256317" lon="13.0639333"><ele>492.0</ele><time>2026-04-26T12:55:16.235Z</time></trkpt><trkpt lat="43.1258117" lon="13.0638033"><ele>492.0</ele><time>2026-04-26T12:55:17.235Z</time></trkpt><trkpt lat="43.125975" lon="13.0636033"><ele>495.66666666666663</ele><time>2026-04-26T12:55:18.236Z</time></trkpt><trkpt lat="43.1260783" lon="13.06334"><ele>499.3333333333333</ele><time>2026-04-26T12:55:19.236Z</time></trkpt><trkpt lat="43.1261617" lon="13.0630967"><ele>503.0</ele><time>2026-04-26T12:55:20.236Z</time></trkpt><trkpt lat="43.1261983" lon="13.0628467"><ele>503.0</ele><time>2026-04-26T12:55:21.241Z</time></trkpt><trkpt lat="43.1261833" lon="13.0625767"><ele>503.0</ele><time>2026-04-26T12:55:22.235Z</time></trkpt><trkpt lat="43.1261367" lon="13.062255"><ele>503.0</ele><time>2026-04-26T12:55:23.236Z</time></trkpt><trkpt lat="43.1260933" lon="13.06193"><ele>509.5</ele><time>2026-04-26T12:55:24.24Z</time></trkpt><trkpt lat="43.1260533" lon="13.0616117"><ele>516.0</ele><time>2026-04-26T12:55:25.233Z</time></trkpt><trkpt lat="43.126005" lon="13.061305"><ele>516.0</ele><time>2026-04-26T12:55:26.233Z</time></trkpt><trkpt lat="43.1259483" lon="13.0610267"><ele>516.0</ele><time>2026-04-26T12:55:27.239Z</time></trkpt><trkpt lat="43.12588" lon="13.06078"><ele>516.0</ele><time>2026-04-26T12:55:28.233Z</time></trkpt><trkpt lat="43.1258217" lon="13.0605583"><ele>516.0</ele><time>2026-04-26T12:55:29.233Z</time></trkpt><trkpt lat="43.1258033" lon="13.060365"><ele>516.0</ele><time>2026-04-26T12:55:30.231Z</time></trkpt><trkpt lat="43.1258367" lon="13.0601867"><ele>516.0</ele><time>2026-04-26T12:55:31.236Z</time></trkpt><trkpt lat="43.1259183" lon="13.0600417"><ele>516.0</ele><time>2026-04-26T12:55:32.232Z</time></trkpt><trkpt lat="43.1260533" lon="13.05995"><ele>516.0</ele><time>2026-04-26T12:55:33.232Z</time></trkpt><trkpt lat="43.126215" lon="13.0599533"><ele>516.0</ele><time>2026-04-26T12:55:34.234Z</time></trkpt><trkpt lat="43.1263833" lon="13.0599983"><ele>516.0</ele><time>2026-04-26T12:55:35.234Z</time></trkpt><trkpt lat="43.1265333" lon="13.0600617"><ele>518.0</ele><time>2026-04-26T12:55:36.232Z</time></trkpt><trkpt lat="43.1266733" lon="13.0601217"><ele>520.0</ele><time>2026-04-26T12:55:37.234Z</time></trkpt><trkpt lat="43.1267983" lon="13.06018"><ele>522.0</ele><time>2026-04-26T12:55:38.231Z</time></trkpt><trkpt lat="43.1269183" lon="13.060225"><ele>524.0</ele><time>2026-04-26T12:55:39.232Z</time></trkpt><trkpt lat="43.1270367" lon="13.0602867"><ele>524.0</ele><time>2026-04-26T12:55:40.234Z</time></trkpt><trkpt lat="43.1271417" lon="13.0603367"><ele>524.0</ele><time>2026-04-26T12:55:41.232Z</time></trkpt><trkpt lat="43.1272467" lon="13.06037"><ele>524.0</ele><time>2026-04-26T12:55:42.23Z</time></trkpt><trkpt lat="43.127355" lon="13.0603917"><ele>524.0</ele><time>2026-04-26T12:55:43.233Z</time></trkpt><trkpt lat="43.12747" lon="13.06042"><ele>524.0</ele><time>2026-04-26T12:55:44.237Z</time></trkpt><trkpt lat="43.1275717" lon="13.0604317"><ele>524.8</ele><time>2026-04-26T12:55:45.255Z</time></trkpt><trkpt lat="43.1276667" lon="13.06044"><ele>525.5999999999999</ele><time>2026-04-26T12:55:46.231Z</time></trkpt><trkpt lat="43.12776" lon="13.0604433"><ele>526.4</ele><time>2026-04-26T12:55:47.234Z</time></trkpt><trkpt lat="43.1278517" lon="13.0604367"><ele>527.1999999999999</ele><time>2026-04-26T12:55:48.231Z</time></trkpt><trkpt lat="43.1279417" lon="13.06043"><ele>528.0</ele><time>2026-04-26T12:55:49.233Z</time></trkpt><trkpt lat="43.1280283" lon="13.0604233"><ele>528.0</ele><time>2026-04-26T12:55:50.232Z</time></trkpt><trkpt lat="43.1281133" lon="13.0604117"><ele>528.0</ele><time>2026-04-26T12:55:51.232Z</time></trkpt><trkpt lat="43.128195" lon="13.0603867"><ele>528.0</ele><time>2026-04-26T12:55:52.232Z</time></trkpt><trkpt lat="43.1282733" lon="13.06034"><ele>528.0</ele><time>2026-04-26T12:55:53.233Z</time></trkpt><trkpt lat="43.12834" lon="13.0602733"><ele>528.0</ele><time>2026-04-26T12:55:54.234Z</time></trkpt><trkpt lat="43.1284083" lon="13.0601967"><ele>528.0</ele><time>2026-04-26T12:55:55.234Z</time></trkpt><trkpt lat="43.1284717" lon="13.0601133"><ele>528.5</ele><time>2026-04-26T12:55:56.233Z</time></trkpt><trkpt lat="43.1285283" lon="13.0600183"><ele>529.0</ele><time>2026-04-26T12:55:57.234Z</time></trkpt><trkpt lat="43.1285733" lon="13.0599183"><ele>529.5</ele><time>2026-04-26T12:55:58.233Z</time></trkpt><trkpt lat="43.1286067" lon="13.0598317"><ele>530.0</ele><time>2026-04-26T12:55:59.232Z</time></trkpt><trkpt lat="43.12864" lon="13.0597433"><ele>530.5</ele><time>2026-04-26T12:56:00.235Z</time></trkpt><trkpt lat="43.12871" lon="13.0596333"><ele>531.0</ele><time>2026-04-26T12:56:02.232Z</time></trkpt><trkpt lat="43.1287717" lon="13.0595717"><ele>531.0</ele><time>2026-04-26T12:56:05.234Z</time></trkpt><trkpt lat="43.12886" lon="13.059555"><ele>531.0</ele><time>2026-04-26T12:56:39.24Z</time></trkpt><trkpt lat="43.128925" lon="13.0595567"><ele>531.0</ele><time>2026-04-26T12:56:40.234Z</time></trkpt><trkpt lat="43.1290233" lon="13.0595567"><ele>531.0</ele><time>2026-04-26T12:56:41.235Z</time></trkpt><trkpt lat="43.1291517" lon="13.05956"><ele>531.0</ele><time>2026-04-26T12:56:42.235Z</time></trkpt><trkpt lat="43.1292833" lon="13.05955"><ele>533.6666666666666</ele><time>2026-04-26T12:56:43.233Z</time></trkpt><trkpt lat="43.129425" lon="13.059525"><ele>536.3333333333333</ele><time>2026-04-26T12:56:44.235Z</time></trkpt><trkpt lat="43.12958" lon="13.05948"><ele>539.0</ele><time>2026-04-26T12:56:45.241Z</time></trkpt><trkpt lat="43.129735" lon="13.0594167"><ele>539.0</ele><time>2026-04-26T12:56:46.23Z</time></trkpt><trkpt lat="43.12989" lon="13.0593467"><ele>539.0</ele><time>2026-04-26T12:56:47.232Z</time></trkpt><trkpt lat="43.1300617" lon="13.0592933"><ele>539.0</ele><time>2026-04-26T12:56:48.233Z</time></trkpt><trkpt lat="43.1302283" lon="13.059255"><ele>542.0</ele><time>2026-04-26T12:56:49.232Z</time></trkpt><trkpt lat="43.1304017" lon="13.05926"><ele>545.0</ele><time>2026-04-26T12:56:50.232Z</time></trkpt><trkpt lat="43.1305667" lon="13.0592983"><ele>548.0</ele><time>2026-04-26T12:56:51.235Z</time></trkpt><trkpt lat="43.1307317" lon="13.05935"><ele>549.3333333333333</ele><time>2026-04-26T12:56:52.235Z</time></trkpt><trkpt lat="43.1309033" lon="13.0594033"><ele>550.6666666666666</ele><time>2026-04-26T12:56:53.234Z</time></trkpt><trkpt lat="43.1310767" lon="13.05945"><ele>552.0</ele><time>2026-04-26T12:56:54.235Z</time></trkpt><trkpt lat="43.13125" lon="13.0594917"><ele>552.0</ele><time>2026-04-26T12:56:55.231Z</time></trkpt><trkpt lat="43.1314283" lon="13.0595167"><ele>552.0</ele><time>2026-04-26T12:56:56.235Z</time></trkpt><trkpt lat="43.1316" lon="13.0595233"><ele>552.0</ele><time>2026-04-26T12:56:57.232Z</time></trkpt><trkpt lat="43.13177" lon="13.0595183"><ele>554.6666666666666</ele><time>2026-04-26T12:56:58.232Z</time></trkpt><trkpt lat="43.1319367" lon="13.0595133"><ele>557.3333333333333</ele><time>2026-04-26T12:56:59.231Z</time></trkpt><trkpt lat="43.1321083" lon="13.0595233"><ele>560.0</ele><time>2026-04-26T12:57:00.247Z</time></trkpt><trkpt lat="43.1322883" lon="13.0595683"><ele>559.0</ele><time>2026-04-26T12:57:01.232Z</time></trkpt><trkpt lat="43.132465" lon="13.0596483"><ele>558.0</ele><time>2026-04-26T12:57:02.234Z</time></trkpt><trkpt lat="43.1326367" lon="13.0597467"><ele>557.0</ele><time>2026-04-26T12:57:03.235Z</time></trkpt><trkpt lat="43.1328083" lon="13.05987"><ele>558.0</ele><time>2026-04-26T12:57:04.233Z</time></trkpt><trkpt lat="43.1329783" lon="13.06001"><ele>559.0</ele><time>2026-04-26T12:57:05.233Z</time></trkpt><trkpt lat="43.1331483" lon="13.0601633"><ele>560.0</ele><time>2026-04-26T12:57:06.232Z</time></trkpt><trkpt lat="43.133325" lon="13.0603133"><ele>560.0</ele><time>2026-04-26T12:57:07.238Z</time></trkpt><trkpt lat="43.13351" lon="13.060445"><ele>560.0</ele><time>2026-04-26T12:57:08.238Z</time></trkpt><trkpt lat="43.1337033" lon="13.0605483"><ele>560.0</ele><time>2026-04-26T12:57:09.235Z</time></trkpt><trkpt lat="43.1339017" lon="13.06061"><ele>556.3333333333333</ele><time>2026-04-26T12:57:10.236Z</time></trkpt><trkpt lat="43.134105" lon="13.06065"><ele>552.6666666666666</ele><time>2026-04-26T12:57:11.232Z</time></trkpt><trkpt lat="43.13432" lon="13.06067"><ele>549.0</ele><time>2026-04-26T12:57:12.233Z</time></trkpt><trkpt lat="43.134535" lon="13.060675"><ele>549.0</ele><time>2026-04-26T12:57:13.241Z</time></trkpt><trkpt lat="43.1347533" lon="13.0606717"><ele>549.0</ele><time>2026-04-26T12:57:14.234Z</time></trkpt><trkpt lat="43.1349767" lon="13.06067"><ele>549.0</ele><time>2026-04-26T12:57:15.254Z</time></trkpt><trkpt lat="43.1352" lon="13.0606717"><ele>547.3333333333334</ele><time>2026-04-26T12:57:16.236Z</time></trkpt><trkpt lat="43.135425" lon="13.060675"><ele>545.6666666666667</ele><time>2026-04-26T12:57:17.234Z</time></trkpt><trkpt lat="43.1356483" lon="13.0606783"><ele>544.0</ele><time>2026-04-26T12:57:18.234Z</time></trkpt><trkpt lat="43.1358733" lon="13.0606833"><ele>543.0</ele><time>2026-04-26T12:57:19.235Z</time></trkpt><trkpt lat="43.1361" lon="13.0606917"><ele>542.0</ele><time>2026-04-26T12:57:20.234Z</time></trkpt><trkpt lat="43.1363217" lon="13.060715"><ele>541.0</ele><time>2026-04-26T12:57:21.236Z</time></trkpt><trkpt lat="43.13654" lon="13.060755"><ele>544.3333333333334</ele><time>2026-04-26T12:57:22.235Z</time></trkpt><trkpt lat="43.1367533" lon="13.0608067"><ele>547.6666666666666</ele><time>2026-04-26T12:57:23.234Z</time></trkpt><trkpt lat="43.13696" lon="13.0608683"><ele>551.0</ele><time>2026-04-26T12:57:24.236Z</time></trkpt><trkpt lat="43.1371567" lon="13.0609333"><ele>551.0</ele><time>2026-04-26T12:57:25.232Z</time></trkpt><trkpt lat="43.137345" lon="13.0609933"><ele>551.0</ele><time>2026-04-26T12:57:26.234Z</time></trkpt><trkpt lat="43.1375267" lon="13.0610667"><ele>551.0</ele><time>2026-04-26T12:57:27.238Z</time></trkpt><trkpt lat="43.1376917" lon="13.0611783"><ele>550.3333333333333</ele><time>2026-04-26T12:57:28.233Z</time></trkpt><trkpt lat="43.1378483" lon="13.061345"><ele>549.6666666666666</ele><time>2026-04-26T12:57:29.235Z</time></trkpt><trkpt lat="43.137995" lon="13.0615367"><ele>549.0</ele><time>2026-04-26T12:57:30.236Z</time></trkpt><trkpt lat="43.1381383" lon="13.0617383"><ele>546.3333333333334</ele><time>2026-04-26T12:57:31.237Z</time></trkpt><trkpt lat="43.138285" lon="13.0619517"><ele>543.6666666666667</ele><time>2026-04-26T12:57:32.234Z</time></trkpt><trkpt lat="43.1384333" lon="13.0621683"><ele>541.0</ele><time>2026-04-26T12:57:33.236Z</time></trkpt><trkpt lat="43.1385817" lon="13.0623867"><ele>542.3333333333334</ele><time>2026-04-26T12:57:34.24Z</time></trkpt><trkpt lat="43.13873" lon="13.0626033"><ele>543.6666666666666</ele><time>2026-04-26T12:57:35.235Z</time></trkpt><trkpt lat="43.1388767" lon="13.0628217"><ele>545.0</ele><time>2026-04-26T12:57:36.243Z</time></trkpt><trkpt lat="43.139025" lon="13.0630367"><ele>543.6666666666666</ele><time>2026-04-26T12:57:37.239Z</time></trkpt><trkpt lat="43.1391733" lon="13.0632483"><ele>542.3333333333334</ele><time>2026-04-26T12:57:38.236Z</time></trkpt><trkpt lat="43.1393183" lon="13.0634583"><ele>541.0</ele><time>2026-04-26T12:57:39.236Z</time></trkpt><trkpt lat="43.1394533" lon="13.0636717"><ele>541.0</ele><time>2026-04-26T12:57:40.235Z</time></trkpt><trkpt lat="43.139565" lon="13.0639017"><ele>541.0</ele><time>2026-04-26T12:57:41.232Z</time></trkpt><trkpt lat="43.13965" lon="13.064155"><ele>541.0</ele><time>2026-04-26T12:57:42.239Z</time></trkpt><trkpt lat="43.139725" lon="13.0644133"><ele>541.3333333333334</ele><time>2026-04-26T12:57:43.234Z</time></trkpt><trkpt lat="43.1398083" lon="13.0646683"><ele>541.6666666666666</ele><time>2026-04-26T12:57:44.235Z</time></trkpt><trkpt lat="43.1399067" lon="13.064915"><ele>542.0</ele><time>2026-04-26T12:57:45.239Z</time></trkpt><trkpt lat="43.1400283" lon="13.06514"><ele>542.0</ele><time>2026-04-26T12:57:46.234Z</time></trkpt><trkpt lat="43.1401767" lon="13.06534"><ele>542.0</ele><time>2026-04-26T12:57:47.235Z</time></trkpt><trkpt lat="43.1403317" lon="13.0655317"><ele>542.0</ele><time>2026-04-26T12:57:48.235Z</time></trkpt><trkpt lat="43.14049" lon="13.06573"><ele>540.6666666666666</ele><time>2026-04-26T12:57:49.235Z</time></trkpt><trkpt lat="43.14065" lon="13.0659333"><ele>539.3333333333334</ele><time>2026-04-26T12:57:50.236Z</time></trkpt><trkpt lat="43.1408117" lon="13.0661383"><ele>538.0</ele><time>2026-04-26T12:57:51.238Z</time></trkpt><trkpt lat="43.1409717" lon="13.0663433"><ele>538.0</ele><time>2026-04-26T12:57:52.236Z</time></trkpt><trkpt lat="43.141135" lon="13.0665533"><ele>538.0</ele><time>2026-04-26T12:57:53.235Z</time></trkpt><trkpt lat="43.1412967" lon="13.066765"><ele>538.0</ele><time>2026-04-26T12:57:54.236Z</time></trkpt><trkpt lat="43.1414517" lon="13.0669717"><ele>537.3333333333334</ele><time>2026-04-26T12:57:55.234Z</time></trkpt><trkpt lat="43.1416017" lon="13.0671667"><ele>536.6666666666666</ele><time>2026-04-26T12:57:56.235Z</time></trkpt><trkpt lat="43.14174" lon="13.0673683"><ele>536.0</ele><time>2026-04-26T12:57:57.235Z</time></trkpt><trkpt lat="43.1418817" lon="13.06757"><ele>537.6666666666666</ele><time>2026-04-26T12:57:58.237Z</time></trkpt><trkpt lat="43.1420217" lon="13.06777"><ele>539.3333333333334</ele><time>2026-04-26T12:57:59.236Z</time></trkpt><trkpt lat="43.1421833" lon="13.067985"><ele>541.0</ele><time>2026-04-26T12:58:00.234Z</time></trkpt><trkpt lat="43.1423383" lon="13.06821"><ele>539.5</ele><time>2026-04-26T12:58:01.235Z</time></trkpt><trkpt lat="43.1424283" lon="13.0684167"><ele>538.0</ele><time>2026-04-26T12:58:02.236Z</time></trkpt><trkpt lat="43.142585" lon="13.0683833"><ele>536.5</ele><time>2026-04-26T12:58:03.232Z</time></trkpt><trkpt lat="43.1426433" lon="13.068445"><ele>535.0</ele><time>2026-04-26T12:58:04.235Z</time></trkpt><trkpt lat="43.1427383" lon="13.068515"><ele>535.0</ele><time>2026-04-26T12:58:05.233Z</time></trkpt><trkpt lat="43.1428417" lon="13.0685317"><ele>535.0</ele><time>2026-04-26T12:58:06.237Z</time></trkpt><trkpt lat="43.142945" lon="13.068565"><ele>535.0</ele><time>2026-04-26T12:58:07.235Z</time></trkpt><trkpt lat="43.14304" lon="13.0686217"><ele>535.0</ele><time>2026-04-26T12:58:08.23Z</time></trkpt><trkpt lat="43.1431183" lon="13.0687017"><ele>535.0</ele><time>2026-04-26T12:58:09.238Z</time></trkpt><trkpt lat="43.1431817" lon="13.0688033"><ele>534.0</ele><time>2026-04-26T12:58:10.234Z</time></trkpt><trkpt lat="43.1432283" lon="13.0689383"><ele>533.0</ele><time>2026-04-26T12:58:11.235Z</time></trkpt><trkpt lat="43.14324" lon="13.0690983"><ele>532.0</ele><time>2026-04-26T12:58:12.234Z</time></trkpt><trkpt lat="43.1432333" lon="13.069275"><ele>531.0</ele><time>2026-04-26T12:58:13.235Z</time></trkpt><trkpt lat="43.1432167" lon="13.0694633"><ele>532.75</ele><time>2026-04-26T12:58:14.234Z</time></trkpt><trkpt lat="43.1432" lon="13.0696483"><ele>534.5</ele><time>2026-04-26T12:58:15.233Z</time></trkpt><trkpt lat="43.14318" lon="13.06983"><ele>536.25</ele><time>2026-04-26T12:58:16.237Z</time></trkpt><trkpt lat="43.143165" lon="13.0700217"><ele>538.0</ele><time>2026-04-26T12:58:17.234Z</time></trkpt><trkpt lat="43.1431517" lon="13.0702217"><ele>539.6666666666667</ele><time>2026-04-26T12:58:18.236Z</time></trkpt><trkpt lat="43.143145" lon="13.0704333"><ele>541.3333333333334</ele><time>2026-04-26T12:58:19.233Z</time></trkpt><trkpt lat="43.1431567" lon="13.0706467"><ele>543.0</ele><time>2026-04-26T12:58:20.234Z</time></trkpt><trkpt lat="43.1431733" lon="13.0708567"><ele>544.0</ele><time>2026-04-26T12:58:21.235Z</time></trkpt><trkpt lat="43.1432" lon="13.0710767"><ele>545.0</ele><time>2026-04-26T12:58:22.236Z</time></trkpt><trkpt lat="43.1432333" lon="13.0713117"><ele>546.0</ele><time>2026-04-26T12:58:23.233Z</time></trkpt><trkpt lat="43.14327" lon="13.0715583"><ele>542.0</ele><time>2026-04-26T12:58:24.233Z</time></trkpt><trkpt lat="43.1432983" lon="13.0718117"><ele>538.0</ele><time>2026-04-26T12:58:25.234Z</time></trkpt><trkpt lat="43.1433167" lon="13.072065"><ele>534.0</ele><time>2026-04-26T12:58:26.235Z</time></trkpt><trkpt lat="43.14333" lon="13.0723267"><ele>535.3333333333334</ele><time>2026-04-26T12:58:27.253Z</time></trkpt><trkpt lat="43.1433383" lon="13.0725867"><ele>536.6666666666667</ele><time>2026-04-26T12:58:28.234Z</time></trkpt><trkpt lat="43.1433567" lon="13.0728483"><ele>538.0</ele><time>2026-04-26T12:58:29.237Z</time></trkpt><trkpt lat="43.14338" lon="13.0731017"><ele>540.6666666666667</ele><time>2026-04-26T12:58:30.235Z</time></trkpt><trkpt lat="43.1434033" lon="13.0733517"><ele>543.3333333333334</ele><time>2026-04-26T12:58:31.234Z</time></trkpt><trkpt lat="43.14343" lon="13.0736033"><ele>546.0</ele><time>2026-04-26T12:58:32.237Z</time></trkpt><trkpt lat="43.1434517" lon="13.073855"><ele>546.0</ele><time>2026-04-26T12:58:33.236Z</time></trkpt><trkpt lat="43.1434417" lon="13.0740967"><ele>546.0</ele><time>2026-04-26T12:58:34.233Z</time></trkpt><trkpt lat="43.1433983" lon="13.074335"><ele>546.0</ele><time>2026-04-26T12:58:35.236Z</time></trkpt><trkpt lat="43.1433367" lon="13.074575"><ele>547.3333333333334</ele><time>2026-04-26T12:58:36.237Z</time></trkpt><trkpt lat="43.1432733" lon="13.0748217"><ele>548.6666666666667</ele><time>2026-04-26T12:58:37.235Z</time></trkpt><trkpt lat="43.14321" lon="13.07507"><ele>550.0</ele><time>2026-04-26T12:58:38.234Z</time></trkpt><trkpt lat="43.1431583" lon="13.0753233"><ele>554.6666666666667</ele><time>2026-04-26T12:58:39.236Z</time></trkpt><trkpt lat="43.1431183" lon="13.07558"><ele>559.3333333333334</ele><time>2026-04-26T12:58:40.234Z</time></trkpt><trkpt lat="43.14309" lon="13.0758433"><ele>564.0</ele><time>2026-04-26T12:58:41.235Z</time></trkpt><trkpt lat="43.1430733" lon="13.076115"><ele>564.0</ele><time>2026-04-26T12:58:42.235Z</time></trkpt><trkpt lat="43.1430583" lon="13.0763883"><ele>564.0</ele><time>2026-04-26T12:58:43.235Z</time></trkpt><trkpt lat="43.143045" lon="13.0766567"><ele>564.0</ele><time>2026-04-26T12:58:44.235Z</time></trkpt><trkpt lat="43.1430283" lon="13.0769083"><ele>564.6666666666666</ele><time>2026-04-26T12:58:45.245Z</time></trkpt><trkpt lat="43.1430133" lon="13.07714"><ele>565.3333333333333</ele><time>2026-04-26T12:58:46.234Z</time></trkpt><trkpt lat="43.1429917" lon="13.07735"><ele>566.0</ele><time>2026-04-26T12:58:47.235Z</time></trkpt><trkpt lat="43.1429567" lon="13.07753"><ele>566.6</ele><time>2026-04-26T12:58:48.234Z</time></trkpt><trkpt lat="43.1428983" lon="13.0776667"><ele>567.2</ele><time>2026-04-26T12:58:49.235Z</time></trkpt><trkpt lat="43.14282" lon="13.07776"><ele>567.8</ele><time>2026-04-26T12:58:50.235Z</time></trkpt><trkpt lat="43.1427383" lon="13.0777933"><ele>568.4</ele><time>2026-04-26T12:58:51.239Z</time></trkpt><trkpt lat="43.1426667" lon="13.07781"><ele>569.0</ele><time>2026-04-26T12:58:52.235Z</time></trkpt><trkpt lat="43.1425533" lon="13.0778217"><ele>569.0</ele><time>2026-04-26T12:58:54.233Z</time></trkpt><trkpt lat="43.1424617" lon="13.0779"><ele>569.0</ele><time>2026-04-26T12:58:56.234Z</time></trkpt><trkpt lat="43.1424133" lon="13.07801"><ele>569.0</ele><time>2026-04-26T12:58:58.231Z</time></trkpt><trkpt lat="43.142435" lon="13.078115"><ele>569.0</ele><time>2026-04-26T12:58:59.235Z</time></trkpt><trkpt lat="43.1424833" lon="13.07825"><ele>569.0</ele><time>2026-04-26T12:59:00.232Z</time></trkpt><trkpt lat="43.1425267" lon="13.0783817"><ele>569.25</ele><time>2026-04-26T12:59:01.233Z</time></trkpt><trkpt lat="43.1425717" lon="13.0785333"><ele>569.5</ele><time>2026-04-26T12:59:02.235Z</time></trkpt><trkpt lat="43.1426167" lon="13.078695"><ele>569.75</ele><time>2026-04-26T12:59:03.253Z</time></trkpt><trkpt lat="43.142665" lon="13.07886"><ele>570.0</ele><time>2026-04-26T12:59:04.234Z</time></trkpt><trkpt lat="43.1427183" lon="13.0790417"><ele>569.5</ele><time>2026-04-26T12:59:05.233Z</time></trkpt><trkpt lat="43.1427733" lon="13.0792217"><ele>569.0</ele><time>2026-04-26T12:59:06.235Z</time></trkpt><trkpt lat="43.1428233" lon="13.079405"><ele>568.5</ele><time>2026-04-26T12:59:07.234Z</time></trkpt><trkpt lat="43.142875" lon="13.07959"><ele>568.0</ele><time>2026-04-26T12:59:08.233Z</time></trkpt><trkpt lat="43.1429283" lon="13.0797717"><ele>567.75</ele><time>2026-04-26T12:59:09.234Z</time></trkpt><trkpt lat="43.1429817" lon="13.0799533"><ele>567.5</ele><time>2026-04-26T12:59:10.234Z</time></trkpt><trkpt lat="43.1430233" lon="13.08014"><ele>567.25</ele><time>2026-04-26T12:59:11.229Z</time></trkpt><trkpt lat="43.1430617" lon="13.0803317"><ele>567.0</ele><time>2026-04-26T12:59:12.234Z</time></trkpt><trkpt lat="43.143095" lon="13.0805217"><ele>567.0</ele><time>2026-04-26T12:59:13.235Z</time></trkpt><trkpt lat="43.1431433" lon="13.0807133"><ele>567.0</ele><time>2026-04-26T12:59:14.232Z</time></trkpt><trkpt lat="43.1431917" lon="13.0809033"><ele>567.0</ele><time>2026-04-26T12:59:15.232Z</time></trkpt><trkpt lat="43.1432333" lon="13.0811"><ele>567.0</ele><time>2026-04-26T12:59:16.231Z</time></trkpt><trkpt lat="43.1432783" lon="13.08129"><ele>568.75</ele><time>2026-04-26T12:59:17.232Z</time></trkpt><trkpt lat="43.1433183" lon="13.0814733"><ele>570.5</ele><time>2026-04-26T12:59:18.234Z</time></trkpt><trkpt lat="43.1433617" lon="13.081645"><ele>572.25</ele><time>2026-04-26T12:59:19.239Z</time></trkpt><trkpt lat="43.143415" lon="13.0817933"><ele>574.0</ele><time>2026-04-26T12:59:20.237Z</time></trkpt><trkpt lat="43.1434867" lon="13.0819283"><ele>574.75</ele><time>2026-04-26T12:59:21.237Z</time></trkpt><trkpt lat="43.1435733" lon="13.0820533"><ele>575.5</ele><time>2026-04-26T12:59:22.233Z</time></trkpt><trkpt lat="43.1436683" lon="13.082175"><ele>576.25</ele><time>2026-04-26T12:59:23.233Z</time></trkpt><trkpt lat="43.1437633" lon="13.082285"><ele>577.0</ele><time>2026-04-26T12:59:24.235Z</time></trkpt><trkpt lat="43.1438583" lon="13.0824"><ele>577.5</ele><time>2026-04-26T12:59:25.231Z</time></trkpt><trkpt lat="43.1439583" lon="13.0825217"><ele>578.0</ele><time>2026-04-26T12:59:26.234Z</time></trkpt><trkpt lat="43.1440567" lon="13.0826433"><ele>578.5</ele><time>2026-04-26T12:59:27.236Z</time></trkpt><trkpt lat="43.1441567" lon="13.0827683"><ele>579.0</ele><time>2026-04-26T12:59:28.233Z</time></trkpt><trkpt lat="43.144265" lon="13.0829"><ele>579.0</ele><time>2026-04-26T12:59:29.233Z</time></trkpt><trkpt lat="43.1443667" lon="13.0830483"><ele>579.0</ele><time>2026-04-26T12:59:30.236Z</time></trkpt><trkpt lat="43.1444533" lon="13.0832117"><ele>579.0</ele><time>2026-04-26T12:59:31.234Z</time></trkpt><trkpt lat="43.1445083" lon="13.0833933"><ele>579.0</ele><time>2026-04-26T12:59:32.232Z</time></trkpt><trkpt lat="43.14453" lon="13.0835817"><ele>579.75</ele><time>2026-04-26T12:59:33.235Z</time></trkpt><trkpt lat="43.1445267" lon="13.0837617"><ele>580.5</ele><time>2026-04-26T12:59:34.234Z</time></trkpt><trkpt lat="43.1445017" lon="13.0839483"><ele>581.25</ele><time>2026-04-26T12:59:35.236Z</time></trkpt><trkpt lat="43.144445" lon="13.08414"><ele>582.0</ele><time>2026-04-26T12:59:36.235Z</time></trkpt><trkpt lat="43.144385" lon="13.0843383"><ele>582.0</ele><time>2026-04-26T12:59:37.235Z</time></trkpt><trkpt lat="43.1443083" lon="13.08454"><ele>582.0</ele><time>2026-04-26T12:59:38.232Z</time></trkpt><trkpt lat="43.1442283" lon="13.0847383"><ele>582.0</ele><time>2026-04-26T12:59:39.237Z</time></trkpt><trkpt lat="43.1441533" lon="13.08494"><ele>584.0</ele><time>2026-04-26T12:59:40.233Z</time></trkpt><trkpt lat="43.1440817" lon="13.08514"><ele>586.0</ele><time>2026-04-26T12:59:41.232Z</time></trkpt><trkpt lat="43.1440167" lon="13.08534"><ele>588.0</ele><time>2026-04-26T12:59:42.233Z</time></trkpt><trkpt lat="43.1439517" lon="13.0855333"><ele>588.0</ele><time>2026-04-26T12:59:43.237Z</time></trkpt><trkpt lat="43.1438983" lon="13.0857133"><ele>588.0</ele><time>2026-04-26T12:59:44.234Z</time></trkpt><trkpt lat="43.143865" lon="13.085885"><ele>588.0</ele><time>2026-04-26T12:59:45.234Z</time></trkpt><trkpt lat="43.1438617" lon="13.086045"><ele>588.0</ele><time>2026-04-26T12:59:46.234Z</time></trkpt><trkpt lat="43.143885" lon="13.0861917"><ele>584.75</ele><time>2026-04-26T12:59:47.232Z</time></trkpt><trkpt lat="43.1439367" lon="13.08634"><ele>581.5</ele><time>2026-04-26T12:59:48.23Z</time></trkpt><trkpt lat="43.143995" lon="13.0864917"><ele>578.25</ele><time>2026-04-26T12:59:49.236Z</time></trkpt><trkpt lat="43.144055" lon="13.0866433"><ele>575.0</ele><time>2026-04-26T12:59:50.232Z</time></trkpt><trkpt lat="43.1441233" lon="13.0867833"><ele>572.4</ele><time>2026-04-26T12:59:51.236Z</time></trkpt><trkpt lat="43.1441883" lon="13.086905"><ele>569.8</ele><time>2026-04-26T12:59:52.234Z</time></trkpt><trkpt lat="43.1442383" lon="13.0870267"><ele>567.2</ele><time>2026-04-26T12:59:53.233Z</time></trkpt><trkpt lat="43.144285" lon="13.0871433"><ele>564.6</ele><time>2026-04-26T12:59:54.236Z</time></trkpt><trkpt lat="43.1443367" lon="13.0872533"><ele>562.0</ele><time>2026-04-26T12:59:55.234Z</time></trkpt><trkpt lat="43.144395" lon="13.087355"><ele>561.5</ele><time>2026-04-26T12:59:56.231Z</time></trkpt><trkpt lat="43.1444617" lon="13.0874633"><ele>561.0</ele><time>2026-04-26T12:59:57.238Z</time></trkpt><trkpt lat="43.144545" lon="13.0875783"><ele>560.5</ele><time>2026-04-26T12:59:58.233Z</time></trkpt><trkpt lat="43.144635" lon="13.08769"><ele>560.0</ele><time>2026-04-26T12:59:59.235Z</time></trkpt><trkpt lat="43.144725" lon="13.0878033"><ele>560.0</ele><time>2026-04-26T13:00:00.231Z</time></trkpt><trkpt lat="43.1448183" lon="13.08792"><ele>560.0</ele><time>2026-04-26T13:00:01.23Z</time></trkpt><trkpt lat="43.14491" lon="13.0880367"><ele>560.0</ele><time>2026-04-26T13:00:02.23Z</time></trkpt><trkpt lat="43.145005" lon="13.0881517"><ele>560.0</ele><time>2026-04-26T13:00:03.232Z</time></trkpt><trkpt lat="43.1451" lon="13.0882633"><ele>561.5</ele><time>2026-04-26T13:00:04.234Z</time></trkpt><trkpt lat="43.1451967" lon="13.0883817"><ele>563.0</ele><time>2026-04-26T13:00:05.233Z</time></trkpt><trkpt lat="43.145295" lon="13.0885083"><ele>564.5</ele><time>2026-04-26T13:00:06.232Z</time></trkpt><trkpt lat="43.14541" lon="13.088645"><ele>566.0</ele><time>2026-04-26T13:00:07.23Z</time></trkpt><trkpt lat="43.1455333" lon="13.0887983"><ele>566.0</ele><time>2026-04-26T13:00:08.232Z</time></trkpt><trkpt lat="43.1456483" lon="13.0889733"><ele>566.0</ele><time>2026-04-26T13:00:09.231Z</time></trkpt><trkpt lat="43.1457617" lon="13.089185"><ele>566.0</ele><time>2026-04-26T13:00:10.233Z</time></trkpt><trkpt lat="43.1458683" lon="13.089435"><ele>570.3333333333333</ele><time>2026-04-26T13:00:11.231Z</time></trkpt><trkpt lat="43.14596" lon="13.0896983"><ele>574.6666666666666</ele><time>2026-04-26T13:00:12.231Z</time></trkpt><trkpt lat="43.146045" lon="13.0899517"><ele>579.0</ele><time>2026-04-26T13:00:13.235Z</time></trkpt><trkpt lat="43.1461217" lon="13.0901883"><ele>579.3333333333334</ele><time>2026-04-26T13:00:14.232Z</time></trkpt><trkpt lat="43.1462" lon="13.0904217"><ele>579.6666666666667</ele><time>2026-04-26T13:00:15.262Z</time></trkpt><trkpt lat="43.1462683" lon="13.0906333"><ele>580.0</ele><time>2026-04-26T13:00:16.23Z</time></trkpt><trkpt lat="43.1463517" lon="13.0908267"><ele>580.0</ele><time>2026-04-26T13:00:17.234Z</time></trkpt><trkpt lat="43.146465" lon="13.09101"><ele>580.0</ele><time>2026-04-26T13:00:18.236Z</time></trkpt><trkpt lat="43.1465983" lon="13.0911733"><ele>580.0</ele><time>2026-04-26T13:00:19.235Z</time></trkpt><trkpt lat="43.1467583" lon="13.091325"><ele>582.3333333333334</ele><time>2026-04-26T13:00:20.237Z</time></trkpt><trkpt lat="43.146935" lon="13.091495"><ele>584.6666666666666</ele><time>2026-04-26T13:00:21.233Z</time></trkpt><trkpt lat="43.1471" lon="13.0916767"><ele>587.0</ele><time>2026-04-26T13:00:22.234Z</time></trkpt><trkpt lat="43.14727" lon="13.0918583"><ele>588.6666666666666</ele><time>2026-04-26T13:00:23.235Z</time></trkpt><trkpt lat="43.1474433" lon="13.09205"><ele>590.3333333333334</ele><time>2026-04-26T13:00:24.233Z</time></trkpt><trkpt lat="43.1476167" lon="13.0922333"><ele>592.0</ele><time>2026-04-26T13:00:25.239Z</time></trkpt><trkpt lat="43.1477833" lon="13.0924083"><ele>597.0</ele><time>2026-04-26T13:00:26.234Z</time></trkpt><trkpt lat="43.1479433" lon="13.0925683"><ele>602.0</ele><time>2026-04-26T13:00:27.234Z</time></trkpt><trkpt lat="43.148105" lon="13.092705"><ele>607.0</ele><time>2026-04-26T13:00:28.236Z</time></trkpt><trkpt lat="43.1482733" lon="13.092805"><ele>607.0</ele><time>2026-04-26T13:00:29.236Z</time></trkpt><trkpt lat="43.1484433" lon="13.0929067"><ele>607.0</ele><time>2026-04-26T13:00:30.237Z</time></trkpt><trkpt lat="43.1486" lon="13.09305"><ele>607.0</ele><time>2026-04-26T13:00:31.236Z</time></trkpt><trkpt lat="43.1487483" lon="13.0932267"><ele>610.3333333333334</ele><time>2026-04-26T13:00:32.236Z</time></trkpt><trkpt lat="43.14889" lon="13.0934233"><ele>613.6666666666666</ele><time>2026-04-26T13:00:33.254Z</time></trkpt><trkpt lat="43.1490383" lon="13.0936133"><ele>617.0</ele><time>2026-04-26T13:00:34.233Z</time></trkpt><trkpt lat="43.1491817" lon="13.0938083"><ele>617.0</ele><time>2026-04-26T13:00:35.233Z</time></trkpt><trkpt lat="43.1493117" lon="13.0940083"><ele>617.0</ele><time>2026-04-26T13:00:36.234Z</time></trkpt><trkpt lat="43.1494067" lon="13.0942167"><ele>617.0</ele><time>2026-04-26T13:00:37.236Z</time></trkpt><trkpt lat="43.1494767" lon="13.0944333"><ele>624.0</ele><time>2026-04-26T13:00:38.232Z</time></trkpt><trkpt lat="43.1495633" lon="13.0946433"><ele>631.0</ele><time>2026-04-26T13:00:39.235Z</time></trkpt><trkpt lat="43.149675" lon="13.0948267"><ele>638.0</ele><time>2026-04-26T13:00:40.235Z</time></trkpt><trkpt lat="43.1498117" lon="13.0949983"><ele>640.3333333333333</ele><time>2026-04-26T13:00:41.23Z</time></trkpt><trkpt lat="43.1499767" lon="13.0951333"><ele>642.6666666666666</ele><time>2026-04-26T13:00:42.237Z</time></trkpt><trkpt lat="43.150125" lon="13.0952683"><ele>645.0</ele><time>2026-04-26T13:00:43.232Z</time></trkpt><trkpt lat="43.1502783" lon="13.0954"><ele>645.0</ele><time>2026-04-26T13:00:44.232Z</time></trkpt><trkpt lat="43.15042" lon="13.09555"><ele>645.0</ele><time>2026-04-26T13:00:45.237Z</time></trkpt><trkpt lat="43.150555" lon="13.0957167"><ele>645.0</ele><time>2026-04-26T13:00:46.234Z</time></trkpt><trkpt lat="43.15069" lon="13.0958883"><ele>645.0</ele><time>2026-04-26T13:00:47.233Z</time></trkpt><trkpt lat="43.1508233" lon="13.0960583"><ele>645.0</ele><time>2026-04-26T13:00:48.235Z</time></trkpt><trkpt lat="43.15095" lon="13.0962483"><ele>645.0</ele><time>2026-04-26T13:00:49.232Z</time></trkpt><trkpt lat="43.1510983" lon="13.09645"><ele>652.0</ele><time>2026-04-26T13:00:50.235Z</time></trkpt><trkpt lat="43.1512433" lon="13.09665"><ele>659.0</ele><time>2026-04-26T13:00:51.256Z</time></trkpt><trkpt lat="43.1513617" lon="13.0968683"><ele>666.0</ele><time>2026-04-26T13:00:52.236Z</time></trkpt><trkpt lat="43.151485" lon="13.0970883"><ele>665.3333333333334</ele><time>2026-04-26T13:00:53.233Z</time></trkpt><trkpt lat="43.151605" lon="13.0972917"><ele>664.6666666666667</ele><time>2026-04-26T13:00:54.233Z</time></trkpt><trkpt lat="43.1517267" lon="13.0974783"><ele>664.0</ele><time>2026-04-26T13:00:55.234Z</time></trkpt><trkpt lat="43.1518833" lon="13.0976333"><ele>664.0</ele><time>2026-04-26T13:00:56.232Z</time></trkpt><trkpt lat="43.15205" lon="13.0977367"><ele>664.0</ele><time>2026-04-26T13:00:57.233Z</time></trkpt><trkpt lat="43.1522233" lon="13.097815"><ele>664.0</ele><time>2026-04-26T13:00:58.234Z</time></trkpt><trkpt lat="43.1523983" lon="13.097875"><ele>666.0</ele><time>2026-04-26T13:00:59.235Z</time></trkpt><trkpt lat="43.1525833" lon="13.0979117"><ele>668.0</ele><time>2026-04-26T13:01:00.236Z</time></trkpt><trkpt lat="43.1527717" lon="13.0979283"><ele>670.0</ele><time>2026-04-26T13:01:01.233Z</time></trkpt><trkpt lat="43.1529533" lon="13.0979867"><ele>670.0</ele><time>2026-04-26T13:01:02.233Z</time></trkpt><trkpt lat="43.1531167" lon="13.09808"><ele>670.0</ele><time>2026-04-26T13:01:03.239Z</time></trkpt><trkpt lat="43.153275" lon="13.0982033"><ele>670.0</ele><time>2026-04-26T13:01:04.234Z</time></trkpt><trkpt lat="43.1534267" lon="13.098345"><ele>671.6666666666667</ele><time>2026-04-26T13:01:05.234Z</time></trkpt><trkpt lat="43.1535633" lon="13.0985133"><ele>673.3333333333334</ele><time>2026-04-26T13:01:06.236Z</time></trkpt><trkpt lat="43.1536883" lon="13.0986983"><ele>675.0</ele><time>2026-04-26T13:01:07.233Z</time></trkpt><trkpt lat="43.1538067" lon="13.09889"><ele>674.0</ele><time>2026-04-26T13:01:08.235Z</time></trkpt><trkpt lat="43.1539217" lon="13.0990933"><ele>673.0</ele><time>2026-04-26T13:01:09.237Z</time></trkpt><trkpt lat="43.15404" lon="13.0993067"><ele>672.0</ele><time>2026-04-26T13:01:10.233Z</time></trkpt><trkpt lat="43.1541467" lon="13.0995217"><ele>672.0</ele><time>2026-04-26T13:01:11.232Z</time></trkpt><trkpt lat="43.1542617" lon="13.0997367"><ele>672.0</ele><time>2026-04-26T13:01:12.235Z</time></trkpt><trkpt lat="43.1543767" lon="13.09995"><ele>672.0</ele><time>2026-04-26T13:01:13.236Z</time></trkpt><trkpt lat="43.1544933" lon="13.1001583"><ele>674.3333333333334</ele><time>2026-04-26T13:01:14.233Z</time></trkpt><trkpt lat="43.1546067" lon="13.10037"><ele>676.6666666666667</ele><time>2026-04-26T13:01:15.234Z</time></trkpt><trkpt lat="43.15472" lon="13.1005833"><ele>679.0</ele><time>2026-04-26T13:01:16.229Z</time></trkpt><trkpt lat="43.154835" lon="13.1007833"><ele>678.3333333333334</ele><time>2026-04-26T13:01:17.231Z</time></trkpt><trkpt lat="43.1549483" lon="13.1009633"><ele>677.6666666666666</ele><time>2026-04-26T13:01:18.235Z</time></trkpt><trkpt lat="43.15507" lon="13.1011083"><ele>677.0</ele><time>2026-04-26T13:01:19.234Z</time></trkpt><trkpt lat="43.1552033" lon="13.1012167"><ele>677.0</ele><time>2026-04-26T13:01:20.237Z</time></trkpt><trkpt lat="43.1553533" lon="13.1012933"><ele>677.0</ele><time>2026-04-26T13:01:21.238Z</time></trkpt><trkpt lat="43.1555233" lon="13.1013183"><ele>677.0</ele><time>2026-04-26T13:01:22.234Z</time></trkpt><trkpt lat="43.1556967" lon="13.1013533"><ele>680.6666666666666</ele><time>2026-04-26T13:01:23.231Z</time></trkpt><trkpt lat="43.1558683" lon="13.101395"><ele>684.3333333333334</ele><time>2026-04-26T13:01:24.235Z</time></trkpt><trkpt lat="43.1560267" lon="13.10148"><ele>688.0</ele><time>2026-04-26T13:01:25.235Z</time></trkpt><trkpt lat="43.1561867" lon="13.1016017"><ele>688.0</ele><time>2026-04-26T13:01:26.234Z</time></trkpt><trkpt lat="43.15634" lon="13.1017217"><ele>688.0</ele><time>2026-04-26T13:01:27.249Z</time></trkpt><trkpt lat="43.1565017" lon="13.10181"><ele>688.0</ele><time>2026-04-26T13:01:28.234Z</time></trkpt><trkpt lat="43.1566767" lon="13.1018467"><ele>682.6666666666667</ele><time>2026-04-26T13:01:29.233Z</time></trkpt><trkpt lat="43.1568517" lon="13.10185"><ele>677.3333333333334</ele><time>2026-04-26T13:01:30.233Z</time></trkpt><trkpt lat="43.1570283" lon="13.1018767"><ele>672.0</ele><time>2026-04-26T13:01:31.234Z</time></trkpt><trkpt lat="43.1571967" lon="13.1019317"><ele>672.0</ele><time>2026-04-26T13:01:32.234Z</time></trkpt><trkpt lat="43.1573483" lon="13.1020083"><ele>672.0</ele><time>2026-04-26T13:01:33.234Z</time></trkpt><trkpt lat="43.1574917" lon="13.10211"><ele>672.0</ele><time>2026-04-26T13:01:34.234Z</time></trkpt><trkpt lat="43.157635" lon="13.1022367"><ele>669.6666666666666</ele><time>2026-04-26T13:01:35.232Z</time></trkpt><trkpt lat="43.1577817" lon="13.1023667"><ele>667.3333333333333</ele><time>2026-04-26T13:01:36.237Z</time></trkpt><trkpt lat="43.1579233" lon="13.1024967"><ele>665.0</ele><time>2026-04-26T13:01:37.233Z</time></trkpt><trkpt lat="43.1580617" lon="13.1026233"><ele>663.6666666666666</ele><time>2026-04-26T13:01:38.235Z</time></trkpt><trkpt lat="43.1581933" lon="13.102745"><ele>662.3333333333334</ele><time>2026-04-26T13:01:39.232Z</time></trkpt><trkpt lat="43.1583233" lon="13.10286"><ele>661.0</ele><time>2026-04-26T13:01:40.231Z</time></trkpt><trkpt lat="43.15846" lon="13.102955"><ele>661.0</ele><time>2026-04-26T13:01:41.233Z</time></trkpt><trkpt lat="43.1586" lon="13.10304"><ele>661.0</ele><time>2026-04-26T13:01:42.235Z</time></trkpt><trkpt lat="43.1587317" lon="13.1031183"><ele>661.0</ele><time>2026-04-26T13:01:43.235Z</time></trkpt><trkpt lat="43.158865" lon="13.1031983"><ele>661.0</ele><time>2026-04-26T13:01:44.234Z</time></trkpt><trkpt lat="43.1589867" lon="13.1032767"><ele>661.75</ele><time>2026-04-26T13:01:45.257Z</time></trkpt><trkpt lat="43.1591017" lon="13.1033667"><ele>662.5</ele><time>2026-04-26T13:01:46.235Z</time></trkpt><trkpt lat="43.1592183" lon="13.1034567"><ele>663.25</ele><time>2026-04-26T13:01:47.232Z</time></trkpt><trkpt lat="43.1593383" lon="13.1035517"><ele>664.0</ele><time>2026-04-26T13:01:48.233Z</time></trkpt><trkpt lat="43.1594633" lon="13.1036483"><ele>664.0</ele><time>2026-04-26T13:01:49.233Z</time></trkpt><trkpt lat="43.1595917" lon="13.10375"><ele>664.0</ele><time>2026-04-26T13:01:50.231Z</time></trkpt><trkpt lat="43.1597183" lon="13.103865"><ele>664.0</ele><time>2026-04-26T13:01:51.236Z</time></trkpt><trkpt lat="43.1598433" lon="13.1039867"><ele>664.3333333333334</ele><time>2026-04-26T13:01:52.232Z</time></trkpt><trkpt lat="43.15996" lon="13.1041183"><ele>664.6666666666666</ele><time>2026-04-26T13:01:53.23Z</time></trkpt><trkpt lat="43.1600633" lon="13.1042633"><ele>665.0</ele><time>2026-04-26T13:01:54.234Z</time></trkpt><trkpt lat="43.1601717" lon="13.1044083"><ele>665.0</ele><time>2026-04-26T13:01:55.232Z</time></trkpt><trkpt lat="43.1602767" lon="13.1045417"><ele>665.0</ele><time>2026-04-26T13:01:56.232Z</time></trkpt><trkpt lat="43.1604033" lon="13.1046583"><ele>665.0</ele><time>2026-04-26T13:01:57.234Z</time></trkpt><trkpt lat="43.1605417" lon="13.104765"><ele>665.0</ele><time>2026-04-26T13:01:58.232Z</time></trkpt><trkpt lat="43.1606867" lon="13.1048733"><ele>665.0</ele><time>2026-04-26T13:01:59.233Z</time></trkpt><trkpt lat="43.1608317" lon="13.10499"><ele>665.0</ele><time>2026-04-26T13:02:00.237Z</time></trkpt><trkpt lat="43.16098" lon="13.1051083"><ele>663.3333333333333</ele><time>2026-04-26T13:02:01.235Z</time></trkpt><trkpt lat="43.1611267" lon="13.1052267"><ele>661.6666666666666</ele><time>2026-04-26T13:02:02.232Z</time></trkpt><trkpt lat="43.1612717" lon="13.1053517"><ele>660.0</ele><time>2026-04-26T13:02:03.234Z</time></trkpt><trkpt lat="43.1614167" lon="13.105475"><ele>662.3333333333334</ele><time>2026-04-26T13:02:04.235Z</time></trkpt><trkpt lat="43.1615683" lon="13.1055917"><ele>664.6666666666667</ele><time>2026-04-26T13:02:05.232Z</time></trkpt><trkpt lat="43.1617283" lon="13.1056667"><ele>667.0</ele><time>2026-04-26T13:02:06.233Z</time></trkpt><trkpt lat="43.161895" lon="13.1057033"><ele>667.0</ele><time>2026-04-26T13:02:07.237Z</time></trkpt><trkpt lat="43.162065" lon="13.105705"><ele>667.0</ele><time>2026-04-26T13:02:08.233Z</time></trkpt><trkpt lat="43.1622317" lon="13.1057067"><ele>667.0</ele><time>2026-04-26T13:02:09.234Z</time></trkpt><trkpt lat="43.1624017" lon="13.1057167"><ele>660.6666666666667</ele><time>2026-04-26T13:02:10.231Z</time></trkpt><trkpt lat="43.1625767" lon="13.1057533"><ele>654.3333333333334</ele><time>2026-04-26T13:02:11.229Z</time></trkpt><trkpt lat="43.16275" lon="13.1058217"><ele>648.0</ele><time>2026-04-26T13:02:12.234Z</time></trkpt><trkpt lat="43.1629217" lon="13.105915"><ele>648.0</ele><time>2026-04-26T13:02:13.233Z</time></trkpt><trkpt lat="43.1630917" lon="13.1060017"><ele>648.0</ele><time>2026-04-26T13:02:14.234Z</time></trkpt><trkpt lat="43.1632683" lon="13.1060533"><ele>648.0</ele><time>2026-04-26T13:02:15.232Z</time></trkpt><trkpt lat="43.163445" lon="13.1060733"><ele>648.3333333333334</ele><time>2026-04-26T13:02:16.233Z</time></trkpt><trkpt lat="43.16363" lon="13.10607"><ele>648.6666666666667</ele><time>2026-04-26T13:02:17.235Z</time></trkpt><trkpt lat="43.1638183" lon="13.1060617"><ele>649.0</ele><time>2026-04-26T13:02:18.234Z</time></trkpt><trkpt lat="43.1640033" lon="13.1060483"><ele>646.0</ele><time>2026-04-26T13:02:19.233Z</time></trkpt><trkpt lat="43.1641917" lon="13.1060283"><ele>643.0</ele><time>2026-04-26T13:02:20.232Z</time></trkpt><trkpt lat="43.164375" lon="13.1060267"><ele>640.0</ele><time>2026-04-26T13:02:21.234Z</time></trkpt><trkpt lat="43.1645583" lon="13.1060467"><ele>640.0</ele><time>2026-04-26T13:02:22.233Z</time></trkpt><trkpt lat="43.1647367" lon="13.10612"><ele>640.0</ele><time>2026-04-26T13:02:23.23Z</time></trkpt><trkpt lat="43.1649" lon="13.1062517"><ele>640.0</ele><time>2026-04-26T13:02:24.234Z</time></trkpt><trkpt lat="43.16505" lon="13.1064033"><ele>638.3333333333334</ele><time>2026-04-26T13:02:25.237Z</time></trkpt><trkpt lat="43.1652083" lon="13.1065433"><ele>636.6666666666666</ele><time>2026-04-26T13:02:26.233Z</time></trkpt><trkpt lat="43.1653767" lon="13.1066667"><ele>635.0</ele><time>2026-04-26T13:02:27.233Z</time></trkpt><trkpt lat="43.16555" lon="13.1067817"><ele>633.3333333333333</ele><time>2026-04-26T13:02:28.233Z</time></trkpt><trkpt lat="43.16573" lon="13.1068967"><ele>631.6666666666666</ele><time>2026-04-26T13:02:29.23Z</time></trkpt><trkpt lat="43.16591" lon="13.1070133"><ele>630.0</ele><time>2026-04-26T13:02:30.231Z</time></trkpt><trkpt lat="43.1660817" lon="13.10713"><ele>630.0</ele><time>2026-04-26T13:02:31.236Z</time></trkpt><trkpt lat="43.166225" lon="13.10725"><ele>630.0</ele><time>2026-04-26T13:02:32.233Z</time></trkpt><trkpt lat="43.1663333" lon="13.10738"><ele>630.0</ele><time>2026-04-26T13:02:33.235Z</time></trkpt><trkpt lat="43.166415" lon="13.1075233"><ele>630.0</ele><time>2026-04-26T13:02:34.235Z</time></trkpt><trkpt lat="43.16647" lon="13.1076767"><ele>630.75</ele><time>2026-04-26T13:02:35.234Z</time></trkpt><trkpt lat="43.1665067" lon="13.10783"><ele>631.5</ele><time>2026-04-26T13:02:36.234Z</time></trkpt><trkpt lat="43.1665483" lon="13.107985"><ele>632.25</ele><time>2026-04-26T13:02:37.235Z</time></trkpt><trkpt lat="43.1665933" lon="13.108155"><ele>633.0</ele><time>2026-04-26T13:02:38.233Z</time></trkpt><trkpt lat="43.166655" lon="13.1083267"><ele>635.75</ele><time>2026-04-26T13:02:39.236Z</time></trkpt><trkpt lat="43.1667233" lon="13.108495"><ele>638.5</ele><time>2026-04-26T13:02:40.235Z</time></trkpt><trkpt lat="43.1667933" lon="13.1086567"><ele>641.25</ele><time>2026-04-26T13:02:41.233Z</time></trkpt><trkpt lat="43.1668733" lon="13.108815"><ele>644.0</ele><time>2026-04-26T13:02:42.233Z</time></trkpt><trkpt lat="43.1669767" lon="13.10897"><ele>642.3333333333333</ele><time>2026-04-26T13:02:43.234Z</time></trkpt><trkpt lat="43.1671" lon="13.109115"><ele>640.6666666666666</ele><time>2026-04-26T13:02:44.232Z</time></trkpt><trkpt lat="43.1672317" lon="13.1092417"><ele>639.0</ele><time>2026-04-26T13:02:45.23Z</time></trkpt><trkpt lat="43.167375" lon="13.109365"><ele>637.6666666666666</ele><time>2026-04-26T13:02:46.231Z</time></trkpt><trkpt lat="43.1675233" lon="13.10949"><ele>636.3333333333333</ele><time>2026-04-26T13:02:47.231Z</time></trkpt><trkpt lat="43.16767" lon="13.109615"><ele>635.0</ele><time>2026-04-26T13:02:48.231Z</time></trkpt><trkpt lat="43.16782" lon="13.1097417"><ele>635.0</ele><time>2026-04-26T13:02:49.232Z</time></trkpt><trkpt lat="43.1679767" lon="13.1098617"><ele>635.0</ele><time>2026-04-26T13:02:50.233Z</time></trkpt><trkpt lat="43.1681433" lon="13.109975"><ele>635.0</ele><time>2026-04-26T13:02:51.234Z</time></trkpt><trkpt lat="43.1683217" lon="13.110085"><ele>639.3333333333333</ele><time>2026-04-26T13:02:52.232Z</time></trkpt><trkpt lat="43.1685067" lon="13.110185"><ele>643.6666666666666</ele><time>2026-04-26T13:02:53.232Z</time></trkpt><trkpt lat="43.1686983" lon="13.110285"><ele>648.0</ele><time>2026-04-26T13:02:54.234Z</time></trkpt><trkpt lat="43.1688883" lon="13.1103767"><ele>649.3333333333334</ele><time>2026-04-26T13:02:55.234Z</time></trkpt><trkpt lat="43.1690717" lon="13.1104667"><ele>650.6666666666667</ele><time>2026-04-26T13:02:56.232Z</time></trkpt><trkpt lat="43.169255" lon="13.1105517"><ele>652.0</ele><time>2026-04-26T13:02:57.25Z</time></trkpt><trkpt lat="43.16944" lon="13.1106417"><ele>652.0</ele><time>2026-04-26T13:02:58.233Z</time></trkpt><trkpt lat="43.1696233" lon="13.1107283"><ele>652.0</ele><time>2026-04-26T13:02:59.234Z</time></trkpt><trkpt lat="43.1698083" lon="13.1108183"><ele>652.0</ele><time>2026-04-26T13:03:00.232Z</time></trkpt><trkpt lat="43.1699967" lon="13.1109183"><ele>656.0</ele><time>2026-04-26T13:03:01.235Z</time></trkpt><trkpt lat="43.1701817" lon="13.111025"><ele>660.0</ele><time>2026-04-26T13:03:02.235Z</time></trkpt><trkpt lat="43.170365" lon="13.11114"><ele>664.0</ele><time>2026-04-26T13:03:03.232Z</time></trkpt><trkpt lat="43.1705483" lon="13.1112667"><ele>663.6666666666667</ele><time>2026-04-26T13:03:04.234Z</time></trkpt><trkpt lat="43.17073" lon="13.1114033"><ele>663.3333333333334</ele><time>2026-04-26T13:03:05.24Z</time></trkpt><trkpt lat="43.1709083" lon="13.1115367"><ele>663.0</ele><time>2026-04-26T13:03:06.234Z</time></trkpt><trkpt lat="43.1710817" lon="13.1116617"><ele>666.3333333333334</ele><time>2026-04-26T13:03:07.233Z</time></trkpt><trkpt lat="43.1712533" lon="13.1117833"><ele>669.6666666666667</ele><time>2026-04-26T13:03:08.232Z</time></trkpt><trkpt lat="43.171425" lon="13.1119033"><ele>673.0</ele><time>2026-04-26T13:03:09.236Z</time></trkpt><trkpt lat="43.1716" lon="13.1120267"><ele>673.0</ele><time>2026-04-26T13:03:10.233Z</time></trkpt><trkpt lat="43.171775" lon="13.1121517"><ele>673.0</ele><time>2026-04-26T13:03:11.233Z</time></trkpt><trkpt lat="43.171955" lon="13.1122783"><ele>673.0</ele><time>2026-04-26T13:03:12.233Z</time></trkpt><trkpt lat="43.1721367" lon="13.1124033"><ele>675.6666666666667</ele><time>2026-04-26T13:03:13.234Z</time></trkpt><trkpt lat="43.1723233" lon="13.1125217"><ele>678.3333333333334</ele><time>2026-04-26T13:03:14.238Z</time></trkpt><trkpt lat="43.172515" lon="13.1126367"><ele>681.0</ele><time>2026-04-26T13:03:15.237Z</time></trkpt><trkpt lat="43.1727067" lon="13.11274"><ele>681.0</ele><time>2026-04-26T13:03:16.235Z</time></trkpt><trkpt lat="43.1729" lon="13.112835"><ele>681.0</ele><time>2026-04-26T13:03:17.234Z</time></trkpt><trkpt lat="43.1730967" lon="13.1129283"><ele>681.0</ele><time>2026-04-26T13:03:18.234Z</time></trkpt><trkpt lat="43.1732933" lon="13.11302"><ele>681.0</ele><time>2026-04-26T13:03:19.234Z</time></trkpt><trkpt lat="43.1734933" lon="13.11311"><ele>681.0</ele><time>2026-04-26T13:03:20.235Z</time></trkpt><trkpt lat="43.1736933" lon="13.1132"><ele>681.0</ele><time>2026-04-26T13:03:21.234Z</time></trkpt><trkpt lat="43.1738933" lon="13.11329"><ele>684.6666666666666</ele><time>2026-04-26T13:03:22.233Z</time></trkpt><trkpt lat="43.1740967" lon="13.11338"><ele>688.3333333333333</ele><time>2026-04-26T13:03:23.234Z</time></trkpt><trkpt lat="43.1742967" lon="13.1134667"><ele>692.0</ele><time>2026-04-26T13:03:24.236Z</time></trkpt><trkpt lat="43.1744967" lon="13.113555"><ele>692.0</ele><time>2026-04-26T13:03:25.236Z</time></trkpt><trkpt lat="43.1746983" lon="13.113645"><ele>692.0</ele><time>2026-04-26T13:03:26.233Z</time></trkpt><trkpt lat="43.1748933" lon="13.11374"><ele>692.0</ele><time>2026-04-26T13:03:27.236Z</time></trkpt><trkpt lat="43.175075" lon="13.1138333"><ele>692.3333333333333</ele><time>2026-04-26T13:03:28.235Z</time></trkpt><trkpt lat="43.1752367" lon="13.1139317"><ele>692.6666666666666</ele><time>2026-04-26T13:03:29.233Z</time></trkpt><trkpt lat="43.17538" lon="13.1140417"><ele>693.0</ele><time>2026-04-26T13:03:30.235Z</time></trkpt><trkpt lat="43.1755017" lon="13.11418"><ele>693.0</ele><time>2026-04-26T13:03:31.236Z</time></trkpt><trkpt lat="43.1756017" lon="13.1143483"><ele>693.0</ele><time>2026-04-26T13:03:32.235Z</time></trkpt><trkpt lat="43.1756767" lon="13.1145483"><ele>693.0</ele><time>2026-04-26T13:03:33.236Z</time></trkpt><trkpt lat="43.1757433" lon="13.1147633"><ele>698.3333333333334</ele><time>2026-04-26T13:03:34.233Z</time></trkpt><trkpt lat="43.1757933" lon="13.115"><ele>703.6666666666667</ele><time>2026-04-26T13:03:35.233Z</time></trkpt><trkpt lat="43.1758383" lon="13.115255"><ele>709.0</ele><time>2026-04-26T13:03:36.235Z</time></trkpt><trkpt lat="43.175885" lon="13.1155183"><ele>709.6666666666667</ele><time>2026-04-26T13:03:37.235Z</time></trkpt><trkpt lat="43.175935" lon="13.1157833"><ele>710.3333333333334</ele><time>2026-04-26T13:03:38.234Z</time></trkpt><trkpt lat="43.1759817" lon="13.1160367"><ele>711.0</ele><time>2026-04-26T13:03:39.232Z</time></trkpt><trkpt lat="43.1760267" lon="13.11627"><ele>711.0</ele><time>2026-04-26T13:03:40.233Z</time></trkpt><trkpt lat="43.17607" lon="13.11649"><ele>711.0</ele><time>2026-04-26T13:03:41.229Z</time></trkpt><trkpt lat="43.176125" lon="13.1166917"><ele>711.0</ele><time>2026-04-26T13:03:42.235Z</time></trkpt><trkpt lat="43.1762" lon="13.1168917"><ele>712.6666666666666</ele><time>2026-04-26T13:03:43.234Z</time></trkpt><trkpt lat="43.1762983" lon="13.1170767"><ele>714.3333333333333</ele><time>2026-04-26T13:03:44.23Z</time></trkpt><trkpt lat="43.1764183" lon="13.1172417"><ele>716.0</ele><time>2026-04-26T13:03:45.235Z</time></trkpt><trkpt lat="43.176545" lon="13.117395"><ele>721.0</ele><time>2026-04-26T13:03:46.231Z</time></trkpt><trkpt lat="43.1766833" lon="13.117535"><ele>726.0</ele><time>2026-04-26T13:03:47.233Z</time></trkpt><trkpt lat="43.1768283" lon="13.1176633"><ele>731.0</ele><time>2026-04-26T13:03:48.233Z</time></trkpt><trkpt lat="43.1769783" lon="13.1177667"><ele>731.0</ele><time>2026-04-26T13:03:49.234Z</time></trkpt><trkpt lat="43.1771417" lon="13.11785"><ele>731.0</ele><time>2026-04-26T13:03:50.232Z</time></trkpt><trkpt lat="43.1773083" lon="13.1179267"><ele>731.0</ele><time>2026-04-26T13:03:51.259Z</time></trkpt><trkpt lat="43.1774817" lon="13.117995"><ele>732.3333333333333</ele><time>2026-04-26T13:03:52.232Z</time></trkpt><trkpt lat="43.1776583" lon="13.1180517"><ele>733.6666666666666</ele><time>2026-04-26T13:03:53.234Z</time></trkpt><trkpt lat="43.1778383" lon="13.1180917"><ele>735.0</ele><time>2026-04-26T13:03:54.234Z</time></trkpt><trkpt lat="43.1780233" lon="13.1181133"><ele>736.0</ele><time>2026-04-26T13:03:55.235Z</time></trkpt><trkpt lat="43.17821" lon="13.11812"><ele>737.0</ele><time>2026-04-26T13:03:56.231Z</time></trkpt><trkpt lat="43.1783933" lon="13.1181233"><ele>738.0</ele><time>2026-04-26T13:03:57.238Z</time></trkpt><trkpt lat="43.1785783" lon="13.1181283"><ele>738.0</ele><time>2026-04-26T13:03:58.234Z</time></trkpt><trkpt lat="43.1787583" lon="13.11813"><ele>738.0</ele><time>2026-04-26T13:03:59.235Z</time></trkpt><trkpt lat="43.1789383" lon="13.1181367"><ele>738.0</ele><time>2026-04-26T13:04:00.233Z</time></trkpt><trkpt lat="43.1791133" lon="13.1181583"><ele>738.6666666666666</ele><time>2026-04-26T13:04:01.235Z</time></trkpt><trkpt lat="43.179275" lon="13.118205"><ele>739.3333333333333</ele><time>2026-04-26T13:04:02.234Z</time></trkpt><trkpt lat="43.1794217" lon="13.1182717"><ele>740.0</ele><time>2026-04-26T13:04:03.232Z</time></trkpt><trkpt lat="43.1795533" lon="13.1183483"><ele>740.5</ele><time>2026-04-26T13:04:04.234Z</time></trkpt><trkpt lat="43.1796783" lon="13.11843"><ele>741.0</ele><time>2026-04-26T13:04:05.233Z</time></trkpt><trkpt lat="43.179805" lon="13.118515"><ele>741.5</ele><time>2026-04-26T13:04:06.231Z</time></trkpt><trkpt lat="43.1799383" lon="13.1186017"><ele>742.0</ele><time>2026-04-26T13:04:07.231Z</time></trkpt><trkpt lat="43.1800717" lon="13.11869"><ele>743.0</ele><time>2026-04-26T13:04:08.231Z</time></trkpt><trkpt lat="43.18021" lon="13.118785"><ele>744.0</ele><time>2026-04-26T13:04:09.238Z</time></trkpt><trkpt lat="43.1803517" lon="13.1188833"><ele>745.0</ele><time>2026-04-26T13:04:10.233Z</time></trkpt><trkpt lat="43.180495" lon="13.1189817"><ele>744.3333333333334</ele><time>2026-04-26T13:04:11.232Z</time></trkpt><trkpt lat="43.1806417" lon="13.11908"><ele>743.6666666666666</ele><time>2026-04-26T13:04:12.232Z</time></trkpt><trkpt lat="43.1807917" lon="13.1191767"><ele>743.0</ele><time>2026-04-26T13:04:13.229Z</time></trkpt><trkpt lat="43.1809417" lon="13.119275"><ele>746.3333333333333</ele><time>2026-04-26T13:04:14.232Z</time></trkpt><trkpt lat="43.1810917" lon="13.1193783"><ele>749.6666666666666</ele><time>2026-04-26T13:04:15.234Z</time></trkpt><trkpt lat="43.18124" lon="13.1194983"><ele>753.0</ele><time>2026-04-26T13:04:16.235Z</time></trkpt><trkpt lat="43.1813783" lon="13.1196333"><ele>753.0</ele><time>2026-04-26T13:04:17.234Z</time></trkpt><trkpt lat="43.1814967" lon="13.119785"><ele>753.0</ele><time>2026-04-26T13:04:18.233Z</time></trkpt><trkpt lat="43.1816" lon="13.11994"><ele>753.0</ele><time>2026-04-26T13:04:19.231Z</time></trkpt><trkpt lat="43.1816967" lon="13.12009"><ele>753.0</ele><time>2026-04-26T13:04:20.232Z</time></trkpt><trkpt lat="43.181795" lon="13.120225"><ele>753.0</ele><time>2026-04-26T13:04:21.235Z</time></trkpt><trkpt lat="43.18191" lon="13.12034"><ele>753.0</ele><time>2026-04-26T13:04:22.231Z</time></trkpt><trkpt lat="43.182035" lon="13.12043"><ele>753.0</ele><time>2026-04-26T13:04:23.233Z</time></trkpt><trkpt lat="43.1821767" lon="13.1204933"><ele>753.0</ele><time>2026-04-26T13:04:24.232Z</time></trkpt><trkpt lat="43.1823283" lon="13.1205417"><ele>753.0</ele><time>2026-04-26T13:04:25.235Z</time></trkpt><trkpt lat="43.1824933" lon="13.1205933"><ele>753.0</ele><time>2026-04-26T13:04:26.23Z</time></trkpt><trkpt lat="43.18266" lon="13.1206433"><ele>753.6666666666666</ele><time>2026-04-26T13:04:27.235Z</time></trkpt><trkpt lat="43.1828217" lon="13.1206933"><ele>754.3333333333333</ele><time>2026-04-26T13:04:28.231Z</time></trkpt><trkpt lat="43.1829767" lon="13.1207467"><ele>755.0</ele><time>2026-04-26T13:04:29.233Z</time></trkpt><trkpt lat="43.1831333" lon="13.1208017"><ele>754.0</ele><time>2026-04-26T13:04:30.232Z</time></trkpt><trkpt lat="43.1832917" lon="13.1208583"><ele>753.0</ele><time>2026-04-26T13:04:31.236Z</time></trkpt><trkpt lat="43.1834483" lon="13.1209167"><ele>752.0</ele><time>2026-04-26T13:04:32.234Z</time></trkpt><trkpt lat="43.1835983" lon="13.1209783"><ele>752.0</ele><time>2026-04-26T13:04:33.234Z</time></trkpt><trkpt lat="43.1837383" lon="13.1210567"><ele>752.0</ele><time>2026-04-26T13:04:34.234Z</time></trkpt><trkpt lat="43.183865" lon="13.12116"><ele>752.0</ele><time>2026-04-26T13:04:35.231Z</time></trkpt><trkpt lat="43.183975" lon="13.12128"><ele>752.0</ele><time>2026-04-26T13:04:36.232Z</time></trkpt><trkpt lat="43.1840717" lon="13.12142"><ele>752.75</ele><time>2026-04-26T13:04:37.232Z</time></trkpt><trkpt lat="43.1841517" lon="13.1215733"><ele>753.5</ele><time>2026-04-26T13:04:38.233Z</time></trkpt><trkpt lat="43.18422" lon="13.1217433"><ele>754.25</ele><time>2026-04-26T13:04:39.232Z</time></trkpt><trkpt lat="43.1842833" lon="13.1219267"><ele>755.0</ele><time>2026-04-26T13:04:40.233Z</time></trkpt><trkpt lat="43.1843467" lon="13.12212"><ele>755.0</ele><time>2026-04-26T13:04:41.232Z</time></trkpt><trkpt lat="43.1844067" lon="13.1223117"><ele>755.0</ele><time>2026-04-26T13:04:42.233Z</time></trkpt><trkpt lat="43.1844667" lon="13.1224967"><ele>755.0</ele><time>2026-04-26T13:04:43.236Z</time></trkpt><trkpt lat="43.184525" lon="13.1226767"><ele>755.0</ele><time>2026-04-26T13:04:44.234Z</time></trkpt><trkpt lat="43.1845817" lon="13.12285"><ele>753.75</ele><time>2026-04-26T13:04:45.235Z</time></trkpt><trkpt lat="43.1846433" lon="13.123015"><ele>752.5</ele><time>2026-04-26T13:04:46.231Z</time></trkpt><trkpt lat="43.184715" lon="13.123175"><ele>751.25</ele><time>2026-04-26T13:04:47.234Z</time></trkpt><trkpt lat="43.1848033" lon="13.1233233"><ele>750.0</ele><time>2026-04-26T13:04:48.232Z</time></trkpt><trkpt lat="43.1849017" lon="13.12347"><ele>749.75</ele><time>2026-04-26T13:04:49.237Z</time></trkpt><trkpt lat="43.185005" lon="13.1236167"><ele>749.5</ele><time>2026-04-26T13:04:50.234Z</time></trkpt><trkpt lat="43.1851117" lon="13.123765"><ele>749.25</ele><time>2026-04-26T13:04:51.234Z</time></trkpt><trkpt lat="43.185215" lon="13.1239117"><ele>749.0</ele><time>2026-04-26T13:04:52.234Z</time></trkpt><trkpt lat="43.18532" lon="13.1240633"><ele>749.0</ele><time>2026-04-26T13:04:53.233Z</time></trkpt><trkpt lat="43.1854233" lon="13.124215"><ele>749.0</ele><time>2026-04-26T13:04:54.236Z</time></trkpt><trkpt lat="43.1855267" lon="13.1243667"><ele>749.0</ele><time>2026-04-26T13:04:55.234Z</time></trkpt><trkpt lat="43.18563" lon="13.1245133"><ele>749.6666666666666</ele><time>2026-04-26T13:04:56.234Z</time></trkpt><trkpt lat="43.1857333" lon="13.1246617"><ele>750.3333333333334</ele><time>2026-04-26T13:04:57.234Z</time></trkpt><trkpt lat="43.1858383" lon="13.1248133"><ele>751.0</ele><time>2026-04-26T13:04:58.232Z</time></trkpt><trkpt lat="43.185945" lon="13.1249667"><ele>751.0</ele><time>2026-04-26T13:04:59.233Z</time></trkpt><trkpt lat="43.1860517" lon="13.125125"><ele>751.0</ele><time>2026-04-26T13:05:00.234Z</time></trkpt><trkpt lat="43.1861567" lon="13.125285"><ele>751.0</ele><time>2026-04-26T13:05:01.231Z</time></trkpt><trkpt lat="43.1862617" lon="13.1254467"><ele>751.0</ele><time>2026-04-26T13:05:02.236Z</time></trkpt><trkpt lat="43.186365" lon="13.1256033"><ele>751.0</ele><time>2026-04-26T13:05:03.258Z</time></trkpt><trkpt lat="43.1864617" lon="13.1257533"><ele>751.0</ele><time>2026-04-26T13:05:04.233Z</time></trkpt><trkpt lat="43.1865533" lon="13.1258983"><ele>751.0</ele><time>2026-04-26T13:05:05.233Z</time></trkpt><trkpt lat="43.1866333" lon="13.12604"><ele>750.5</ele><time>2026-04-26T13:05:06.233Z</time></trkpt><trkpt lat="43.1866983" lon="13.12618"><ele>750.0</ele><time>2026-04-26T13:05:07.233Z</time></trkpt><trkpt lat="43.1867467" lon="13.1263283"><ele>749.5</ele><time>2026-04-26T13:05:08.234Z</time></trkpt><trkpt lat="43.18677" lon="13.1264783"><ele>749.0</ele><time>2026-04-26T13:05:09.234Z</time></trkpt><trkpt lat="43.186785" lon="13.126635"><ele>748.5</ele><time>2026-04-26T13:05:10.236Z</time></trkpt><trkpt lat="43.186795" lon="13.1267967"><ele>748.0</ele><time>2026-04-26T13:05:11.232Z</time></trkpt><trkpt lat="43.1868" lon="13.1269633"><ele>747.5</ele><time>2026-04-26T13:05:12.233Z</time></trkpt><trkpt lat="43.1868017" lon="13.1271383"><ele>747.0</ele><time>2026-04-26T13:05:13.234Z</time></trkpt><trkpt lat="43.18681" lon="13.12732"><ele>744.5</ele><time>2026-04-26T13:05:14.232Z</time></trkpt><trkpt lat="43.18682" lon="13.1275"><ele>742.0</ele><time>2026-04-26T13:05:15.233Z</time></trkpt><trkpt lat="43.18683" lon="13.1276717"><ele>739.5</ele><time>2026-04-26T13:05:16.233Z</time></trkpt><trkpt lat="43.1868467" lon="13.1278367"><ele>737.0</ele><time>2026-04-26T13:05:17.231Z</time></trkpt><trkpt lat="43.18689" lon="13.12798"><ele>737.0</ele><time>2026-04-26T13:05:18.233Z</time></trkpt><trkpt lat="43.186955" lon="13.1280883"><ele>737.0</ele><time>2026-04-26T13:05:19.237Z</time></trkpt><trkpt lat="43.18704" lon="13.1281717"><ele>737.0</ele><time>2026-04-26T13:05:20.234Z</time></trkpt><trkpt lat="43.1871333" lon="13.1282533"><ele>737.0</ele><time>2026-04-26T13:05:21.248Z</time></trkpt><trkpt lat="43.1872217" lon="13.1283517"><ele>737.0</ele><time>2026-04-26T13:05:22.233Z</time></trkpt><trkpt lat="43.1872933" lon="13.128475"><ele>736.75</ele><time>2026-04-26T13:05:23.23Z</time></trkpt><trkpt lat="43.1873567" lon="13.12862"><ele>736.5</ele><time>2026-04-26T13:05:24.233Z</time></trkpt><trkpt lat="43.1874183" lon="13.1287833"><ele>736.25</ele><time>2026-04-26T13:05:25.234Z</time></trkpt><trkpt lat="43.1874817" lon="13.1289617"><ele>736.0</ele><time>2026-04-26T13:05:26.232Z</time></trkpt><trkpt lat="43.1875433" lon="13.1291433"><ele>736.0</ele><time>2026-04-26T13:05:27.236Z</time></trkpt><trkpt lat="43.1876083" lon="13.1293267"><ele>736.0</ele><time>2026-04-26T13:05:28.233Z</time></trkpt><trkpt lat="43.1876733" lon="13.1295083"><ele>736.0</ele><time>2026-04-26T13:05:29.233Z</time></trkpt><trkpt lat="43.1877333" lon="13.129685"><ele>736.0</ele><time>2026-04-26T13:05:30.231Z</time></trkpt><trkpt lat="43.1878" lon="13.1298567"><ele>732.5</ele><time>2026-04-26T13:05:31.231Z</time></trkpt><trkpt lat="43.18788" lon="13.1300233"><ele>729.0</ele><time>2026-04-26T13:05:32.232Z</time></trkpt><trkpt lat="43.1879617" lon="13.13018"><ele>725.5</ele><time>2026-04-26T13:05:33.231Z</time></trkpt><trkpt lat="43.1880367" lon="13.13034"><ele>722.0</ele><time>2026-04-26T13:05:34.232Z</time></trkpt><trkpt lat="43.188105" lon="13.1305017"><ele>722.0</ele><time>2026-04-26T13:05:35.232Z</time></trkpt><trkpt lat="43.1881733" lon="13.13066"><ele>722.0</ele><time>2026-04-26T13:05:36.235Z</time></trkpt><trkpt lat="43.1882483" lon="13.1308017"><ele>722.0</ele><time>2026-04-26T13:05:37.235Z</time></trkpt><trkpt lat="43.1883367" lon="13.130925"><ele>722.0</ele><time>2026-04-26T13:05:38.232Z</time></trkpt><trkpt lat="43.18841" lon="13.1310333"><ele>723.8</ele><time>2026-04-26T13:05:39.236Z</time></trkpt><trkpt lat="43.1884517" lon="13.1311467"><ele>725.6</ele><time>2026-04-26T13:05:40.233Z</time></trkpt><trkpt lat="43.188475" lon="13.13125"><ele>727.4</ele><time>2026-04-26T13:05:41.234Z</time></trkpt><trkpt lat="43.1883783" lon="13.1313633"><ele>729.1999999999999</ele><time>2026-04-26T13:05:43.232Z</time></trkpt><trkpt lat="43.188265" lon="13.1313617"><ele>731.0</ele><time>2026-04-26T13:05:44.234Z</time></trkpt><trkpt lat="43.18814" lon="13.1313217"><ele>731.0</ele><time>2026-04-26T13:05:45.235Z</time></trkpt><trkpt lat="43.1880117" lon="13.1312517"><ele>731.0</ele><time>2026-04-26T13:05:46.233Z</time></trkpt><trkpt lat="43.1878817" lon="13.13117"><ele>731.0</ele><time>2026-04-26T13:05:47.235Z</time></trkpt><trkpt lat="43.1877483" lon="13.13108"><ele>731.0</ele><time>2026-04-26T13:05:48.234Z</time></trkpt><trkpt lat="43.1876133" lon="13.13099"><ele>731.0</ele><time>2026-04-26T13:05:49.235Z</time></trkpt><trkpt lat="43.1874767" lon="13.1309017"><ele>731.0</ele><time>2026-04-26T13:05:50.234Z</time></trkpt><trkpt lat="43.18734" lon="13.1308167"><ele>731.0</ele><time>2026-04-26T13:05:51.235Z</time></trkpt><trkpt lat="43.1872017" lon="13.1307333"><ele>723.75</ele><time>2026-04-26T13:05:52.232Z</time></trkpt><trkpt lat="43.1870633" lon="13.1306483"><ele>716.5</ele><time>2026-04-26T13:05:53.232Z</time></trkpt><trkpt lat="43.1869267" lon="13.1305633"><ele>709.25</ele><time>2026-04-26T13:05:54.235Z</time></trkpt><trkpt lat="43.186795" lon="13.130475"><ele>702.0</ele><time>2026-04-26T13:05:55.232Z</time></trkpt><trkpt lat="43.1866633" lon="13.1303933"><ele>702.0</ele><time>2026-04-26T13:05:56.232Z</time></trkpt><trkpt lat="43.18653" lon="13.130325"><ele>702.0</ele><time>2026-04-26T13:05:57.238Z</time></trkpt><trkpt lat="43.1863967" lon="13.1302783"><ele>702.0</ele><time>2026-04-26T13:05:58.231Z</time></trkpt><trkpt lat="43.1862683" lon="13.130265"><ele>702.0</ele><time>2026-04-26T13:05:59.235Z</time></trkpt><trkpt lat="43.1861383" lon="13.1302867"><ele>702.5</ele><time>2026-04-26T13:06:00.233Z</time></trkpt><trkpt lat="43.1860233" lon="13.1303517"><ele>703.0</ele><time>2026-04-26T13:06:01.232Z</time></trkpt><trkpt lat="43.1859217" lon="13.1304583"><ele>703.5</ele><time>2026-04-26T13:06:02.233Z</time></trkpt><trkpt lat="43.185825" lon="13.1306017"><ele>704.0</ele><time>2026-04-26T13:06:03.233Z</time></trkpt><trkpt lat="43.185735" lon="13.1307667"><ele>689.3333333333333</ele><time>2026-04-26T13:06:04.233Z</time></trkpt><trkpt lat="43.1856533" lon="13.130935"><ele>674.6666666666666</ele><time>2026-04-26T13:06:05.232Z</time></trkpt><trkpt lat="43.1855783" lon="13.131115"><ele>660.0</ele><time>2026-04-26T13:06:06.232Z</time></trkpt><trkpt lat="43.1855117" lon="13.1313033"><ele>660.0</ele><time>2026-04-26T13:06:07.235Z</time></trkpt><trkpt lat="43.1854517" lon="13.1315017"><ele>660.0</ele><time>2026-04-26T13:06:08.233Z</time></trkpt><trkpt lat="43.1853983" lon="13.131705"><ele>660.0</ele><time>2026-04-26T13:06:09.235Z</time></trkpt><trkpt lat="43.1853533" lon="13.1319117"><ele>664.0</ele><time>2026-04-26T13:06:10.232Z</time></trkpt><trkpt lat="43.1853133" lon="13.1321183"><ele>668.0</ele><time>2026-04-26T13:06:11.231Z</time></trkpt><trkpt lat="43.1852767" lon="13.1323367"><ele>672.0</ele><time>2026-04-26T13:06:12.234Z</time></trkpt><trkpt lat="43.1852433" lon="13.1325533"><ele>673.6666666666666</ele><time>2026-04-26T13:06:13.233Z</time></trkpt><trkpt lat="43.1852167" lon="13.1327733"><ele>675.3333333333333</ele><time>2026-04-26T13:06:14.234Z</time></trkpt><trkpt lat="43.18519" lon="13.1330017"><ele>677.0</ele><time>2026-04-26T13:06:15.241Z</time></trkpt><trkpt lat="43.1851733" lon="13.1332317"><ele>677.3333333333333</ele><time>2026-04-26T13:06:16.236Z</time></trkpt><trkpt lat="43.185155" lon="13.1334667"><ele>677.6666666666666</ele><time>2026-04-26T13:06:17.234Z</time></trkpt><trkpt lat="43.1851417" lon="13.1337017"><ele>678.0</ele><time>2026-04-26T13:06:18.231Z</time></trkpt><trkpt lat="43.185125" lon="13.1339417"><ele>677.6666666666666</ele><time>2026-04-26T13:06:19.233Z</time></trkpt><trkpt lat="43.1851083" lon="13.1341817"><ele>677.3333333333333</ele><time>2026-04-26T13:06:20.232Z</time></trkpt><trkpt lat="43.1850917" lon="13.13442"><ele>677.0</ele><time>2026-04-26T13:06:21.236Z</time></trkpt><trkpt lat="43.18507" lon="13.1346567"><ele>677.0</ele><time>2026-04-26T13:06:22.233Z</time></trkpt><trkpt lat="43.1850467" lon="13.1348967"><ele>677.0</ele><time>2026-04-26T13:06:23.233Z</time></trkpt><trkpt lat="43.1850167" lon="13.1351367"><ele>677.0</ele><time>2026-04-26T13:06:24.232Z</time></trkpt><trkpt lat="43.1849917" lon="13.1353783"><ele>677.0</ele><time>2026-04-26T13:06:25.232Z</time></trkpt><trkpt lat="43.184965" lon="13.13562"><ele>677.0</ele><time>2026-04-26T13:06:26.233Z</time></trkpt><trkpt lat="43.18494" lon="13.1358617"><ele>677.0</ele><time>2026-04-26T13:06:27.233Z</time></trkpt><trkpt lat="43.1849167" lon="13.1361"><ele>678.3333333333333</ele><time>2026-04-26T13:06:28.233Z</time></trkpt><trkpt lat="43.184895" lon="13.1363383"><ele>679.6666666666666</ele><time>2026-04-26T13:06:29.232Z</time></trkpt><trkpt lat="43.18488" lon="13.1365783"><ele>681.0</ele><time>2026-04-26T13:06:30.232Z</time></trkpt><trkpt lat="43.1848617" lon="13.13682"><ele>664.6666666666666</ele><time>2026-04-26T13:06:31.231Z</time></trkpt><trkpt lat="43.18484" lon="13.1370667"><ele>648.3333333333333</ele><time>2026-04-26T13:06:32.231Z</time></trkpt><trkpt lat="43.1848217" lon="13.1373133"><ele>632.0</ele><time>2026-04-26T13:06:33.239Z</time></trkpt><trkpt lat="43.1848083" lon="13.1375617"><ele>631.6666666666666</ele><time>2026-04-26T13:06:34.234Z</time></trkpt><trkpt lat="43.1848" lon="13.1378117"><ele>631.3333333333334</ele><time>2026-04-26T13:06:35.238Z</time></trkpt><trkpt lat="43.184795" lon="13.1380617"><ele>631.0</ele><time>2026-04-26T13:06:36.234Z</time></trkpt><trkpt lat="43.1847933" lon="13.1383117"><ele>630.3333333333334</ele><time>2026-04-26T13:06:37.233Z</time></trkpt><trkpt lat="43.184785" lon="13.1385667"><ele>629.6666666666666</ele><time>2026-04-26T13:06:38.23Z</time></trkpt><trkpt lat="43.1847767" lon="13.1388183"><ele>629.0</ele><time>2026-04-26T13:06:39.234Z</time></trkpt><trkpt lat="43.184765" lon="13.139075"><ele>628.6666666666666</ele><time>2026-04-26T13:06:40.232Z</time></trkpt><trkpt lat="43.18475" lon="13.1393283"><ele>628.3333333333334</ele><time>2026-04-26T13:06:41.234Z</time></trkpt><trkpt lat="43.1847317" lon="13.1395817"><ele>628.0</ele><time>2026-04-26T13:06:42.236Z</time></trkpt><trkpt lat="43.1847133" lon="13.139835"><ele>627.6666666666667</ele><time>2026-04-26T13:06:43.232Z</time></trkpt><trkpt lat="43.18469" lon="13.1400883"><ele>627.3333333333334</ele><time>2026-04-26T13:06:44.233Z</time></trkpt><trkpt lat="43.1846717" lon="13.1403367"><ele>627.0</ele><time>2026-04-26T13:06:45.235Z</time></trkpt><trkpt lat="43.184655" lon="13.1405783"><ele>626.6666666666666</ele><time>2026-04-26T13:06:46.232Z</time></trkpt><trkpt lat="43.1846417" lon="13.1408233"><ele>626.3333333333333</ele><time>2026-04-26T13:06:47.231Z</time></trkpt><trkpt lat="43.1846283" lon="13.141065"><ele>626.0</ele><time>2026-04-26T13:06:48.234Z</time></trkpt><trkpt lat="43.1846133" lon="13.1413033"><ele>626.0</ele><time>2026-04-26T13:06:49.234Z</time></trkpt><trkpt lat="43.1846033" lon="13.1415483"><ele>626.0</ele><time>2026-04-26T13:06:50.233Z</time></trkpt><trkpt lat="43.1846" lon="13.14179"><ele>626.0</ele><time>2026-04-26T13:06:51.235Z</time></trkpt><trkpt lat="43.1846083" lon="13.1420333"><ele>625.3333333333333</ele><time>2026-04-26T13:06:52.23Z</time></trkpt><trkpt lat="43.1846267" lon="13.1422783"><ele>624.6666666666666</ele><time>2026-04-26T13:06:53.234Z</time></trkpt><trkpt lat="43.1846483" lon="13.142525"><ele>624.0</ele><time>2026-04-26T13:06:54.232Z</time></trkpt><trkpt lat="43.1846667" lon="13.142765"><ele>623.6666666666666</ele><time>2026-04-26T13:06:55.235Z</time></trkpt><trkpt lat="43.1846767" lon="13.1430067"><ele>623.3333333333333</ele><time>2026-04-26T13:06:56.234Z</time></trkpt><trkpt lat="43.184685" lon="13.1432433"><ele>623.0</ele><time>2026-04-26T13:06:57.236Z</time></trkpt><trkpt lat="43.1846917" lon="13.1434833"><ele>623.0</ele><time>2026-04-26T13:06:58.234Z</time></trkpt><trkpt lat="43.1847" lon="13.143715"><ele>623.0</ele><time>2026-04-26T13:06:59.233Z</time></trkpt><trkpt lat="43.1847067" lon="13.1439383"><ele>623.0</ele><time>2026-04-26T13:07:00.234Z</time></trkpt><trkpt lat="43.184705" lon="13.1441533"><ele>623.25</ele><time>2026-04-26T13:07:01.234Z</time></trkpt><trkpt lat="43.1846983" lon="13.144355"><ele>623.5</ele><time>2026-04-26T13:07:02.236Z</time></trkpt><trkpt lat="43.18468" lon="13.1445467"><ele>623.75</ele><time>2026-04-26T13:07:03.236Z</time></trkpt><trkpt lat="43.18464" lon="13.14472"><ele>624.0</ele><time>2026-04-26T13:07:04.232Z</time></trkpt><trkpt lat="43.1845833" lon="13.144865"><ele>625.5</ele><time>2026-04-26T13:07:05.232Z</time></trkpt><trkpt lat="43.184505" lon="13.1449867"><ele>627.0</ele><time>2026-04-26T13:07:06.235Z</time></trkpt><trkpt lat="43.1844167" lon="13.1451083"><ele>628.5</ele><time>2026-04-26T13:07:07.234Z</time></trkpt><trkpt lat="43.1843283" lon="13.1452483"><ele>630.0</ele><time>2026-04-26T13:07:08.234Z</time></trkpt><trkpt lat="43.1842433" lon="13.1454033"><ele>630.0</ele><time>2026-04-26T13:07:09.238Z</time></trkpt><trkpt lat="43.1841583" lon="13.1455733"><ele>630.0</ele><time>2026-04-26T13:07:10.236Z</time></trkpt><trkpt lat="43.1840733" lon="13.1457483"><ele>630.0</ele><time>2026-04-26T13:07:11.237Z</time></trkpt><trkpt lat="43.18399" lon="13.14593"><ele>623.3333333333334</ele><time>2026-04-26T13:07:12.233Z</time></trkpt><trkpt lat="43.1839083" lon="13.1461083"><ele>616.6666666666667</ele><time>2026-04-26T13:07:13.237Z</time></trkpt><trkpt lat="43.1838267" lon="13.146295"><ele>610.0</ele><time>2026-04-26T13:07:14.232Z</time></trkpt><trkpt lat="43.18375" lon="13.1464983"><ele>611.6666666666667</ele><time>2026-04-26T13:07:15.233Z</time></trkpt><trkpt lat="43.1836767" lon="13.14671"><ele>613.3333333333334</ele><time>2026-04-26T13:07:16.236Z</time></trkpt><trkpt lat="43.18361" lon="13.146925"><ele>615.0</ele><time>2026-04-26T13:07:17.235Z</time></trkpt><trkpt lat="43.1835467" lon="13.1471333"><ele>615.0</ele><time>2026-04-26T13:07:18.232Z</time></trkpt><trkpt lat="43.1834833" lon="13.1473417"><ele>615.0</ele><time>2026-04-26T13:07:19.232Z</time></trkpt><trkpt lat="43.1834217" lon="13.147545"><ele>615.0</ele><time>2026-04-26T13:07:20.233Z</time></trkpt><trkpt lat="43.1833583" lon="13.147745"><ele>615.3333333333334</ele><time>2026-04-26T13:07:21.234Z</time></trkpt><trkpt lat="43.1833033" lon="13.14794"><ele>615.6666666666667</ele><time>2026-04-26T13:07:22.227Z</time></trkpt><trkpt lat="43.1832583" lon="13.148135"><ele>616.0</ele><time>2026-04-26T13:07:23.231Z</time></trkpt><trkpt lat="43.183225" lon="13.148345"><ele>615.3333333333334</ele><time>2026-04-26T13:07:24.231Z</time></trkpt><trkpt lat="43.1832033" lon="13.1485683"><ele>614.6666666666666</ele><time>2026-04-26T13:07:25.232Z</time></trkpt><trkpt lat="43.1831833" lon="13.1488033"><ele>614.0</ele><time>2026-04-26T13:07:26.235Z</time></trkpt><trkpt lat="43.1831617" lon="13.1490433"><ele>604.6666666666666</ele><time>2026-04-26T13:07:27.235Z</time></trkpt><trkpt lat="43.1831317" lon="13.1492867"><ele>595.3333333333334</ele><time>2026-04-26T13:07:28.229Z</time></trkpt><trkpt lat="43.18311" lon="13.14953"><ele>586.0</ele><time>2026-04-26T13:07:29.232Z</time></trkpt><trkpt lat="43.1830933" lon="13.1497633"><ele>585.3333333333334</ele><time>2026-04-26T13:07:30.234Z</time></trkpt><trkpt lat="43.1830817" lon="13.1499883"><ele>584.6666666666666</ele><time>2026-04-26T13:07:31.237Z</time></trkpt><trkpt lat="43.1830667" lon="13.15022"><ele>584.0</ele><time>2026-04-26T13:07:32.233Z</time></trkpt><trkpt lat="43.18305" lon="13.1504467"><ele>584.0</ele><time>2026-04-26T13:07:33.235Z</time></trkpt><trkpt lat="43.183035" lon="13.1506717"><ele>584.0</ele><time>2026-04-26T13:07:34.23Z</time></trkpt><trkpt lat="43.18302" lon="13.1508717"><ele>584.0</ele><time>2026-04-26T13:07:35.232Z</time></trkpt><trkpt lat="43.182975" lon="13.1510283"><ele>584.0</ele><time>2026-04-26T13:07:36.235Z</time></trkpt><trkpt lat="43.1829317" lon="13.1511617"><ele>583.3333333333333</ele><time>2026-04-26T13:07:37.235Z</time></trkpt><trkpt lat="43.1828867" lon="13.1512517"><ele>582.6666666666666</ele><time>2026-04-26T13:07:38.233Z</time></trkpt><trkpt lat="43.18284" lon="13.1513183"><ele>582.0</ele><time>2026-04-26T13:07:39.236Z</time></trkpt><trkpt lat="43.18272" lon="13.1513133"><ele>581.3333333333334</ele><time>2026-04-26T13:07:41.234Z</time></trkpt><trkpt lat="43.1826683" lon="13.1512617"><ele>580.6666666666667</ele><time>2026-04-26T13:07:42.231Z</time></trkpt><trkpt lat="43.18263" lon="13.1511767"><ele>580.0</ele><time>2026-04-26T13:07:43.234Z</time></trkpt><trkpt lat="43.182595" lon="13.1510717"><ele>580.0</ele><time>2026-04-26T13:07:44.231Z</time></trkpt><trkpt lat="43.18256" lon="13.1509317"><ele>580.0</ele><time>2026-04-26T13:07:45.234Z</time></trkpt><trkpt lat="43.1825183" lon="13.1507717"><ele>580.0</ele><time>2026-04-26T13:07:46.231Z</time></trkpt><trkpt lat="43.18248" lon="13.1506"><ele>580.0</ele><time>2026-04-26T13:07:47.234Z</time></trkpt><trkpt lat="43.18244" lon="13.1504133"><ele>581.0</ele><time>2026-04-26T13:07:48.233Z</time></trkpt><trkpt lat="43.1823983" lon="13.15022"><ele>582.0</ele><time>2026-04-26T13:07:49.231Z</time></trkpt><trkpt lat="43.1823617" lon="13.1500317"><ele>583.0</ele><time>2026-04-26T13:07:50.233Z</time></trkpt><trkpt lat="43.1823183" lon="13.149845"><ele>584.0</ele><time>2026-04-26T13:07:51.231Z</time></trkpt><trkpt lat="43.1822583" lon="13.149665"><ele>580.25</ele><time>2026-04-26T13:07:52.232Z</time></trkpt><trkpt lat="43.1821833" lon="13.149505"><ele>576.5</ele><time>2026-04-26T13:07:53.232Z</time></trkpt><trkpt lat="43.182105" lon="13.14935"><ele>572.75</ele><time>2026-04-26T13:07:54.235Z</time></trkpt><trkpt lat="43.1820283" lon="13.1491983"><ele>569.0</ele><time>2026-04-26T13:07:55.235Z</time></trkpt><trkpt lat="43.1819517" lon="13.1490467"><ele>569.25</ele><time>2026-04-26T13:07:56.231Z</time></trkpt><trkpt lat="43.1818817" lon="13.1489033"><ele>569.5</ele><time>2026-04-26T13:07:57.234Z</time></trkpt><trkpt lat="43.1818167" lon="13.14876"><ele>569.75</ele><time>2026-04-26T13:07:58.231Z</time></trkpt><trkpt lat="43.181765" lon="13.1486117"><ele>570.0</ele><time>2026-04-26T13:07:59.234Z</time></trkpt><trkpt lat="43.181735" lon="13.14846"><ele>570.0</ele><time>2026-04-26T13:08:00.233Z</time></trkpt><trkpt lat="43.1817233" lon="13.148295"><ele>570.0</ele><time>2026-04-26T13:08:01.238Z</time></trkpt><trkpt lat="43.1817233" lon="13.14811"><ele>570.0</ele><time>2026-04-26T13:08:02.236Z</time></trkpt><trkpt lat="43.1817267" lon="13.1479167"><ele>570.0</ele><time>2026-04-26T13:08:03.234Z</time></trkpt><trkpt lat="43.1817333" lon="13.147725"><ele>569.0</ele><time>2026-04-26T13:08:04.234Z</time></trkpt><trkpt lat="43.1817383" lon="13.14753"><ele>568.0</ele><time>2026-04-26T13:08:05.233Z</time></trkpt><trkpt lat="43.1817467" lon="13.1473383"><ele>567.0</ele><time>2026-04-26T13:08:06.233Z</time></trkpt><trkpt lat="43.1817583" lon="13.1471483"><ele>566.0</ele><time>2026-04-26T13:08:07.235Z</time></trkpt><trkpt lat="43.181775" lon="13.14697"><ele>564.4</ele><time>2026-04-26T13:08:08.233Z</time></trkpt><trkpt lat="43.1817967" lon="13.1468017"><ele>562.8</ele><time>2026-04-26T13:08:09.233Z</time></trkpt><trkpt lat="43.18182" lon="13.146645"><ele>561.1999999999999</ele><time>2026-04-26T13:08:10.235Z</time></trkpt><trkpt lat="43.1818417" lon="13.1465017"><ele>559.6</ele><time>2026-04-26T13:08:11.233Z</time></trkpt><trkpt lat="43.1818467" lon="13.146385"><ele>558.0</ele><time>2026-04-26T13:08:12.231Z</time></trkpt><trkpt lat="43.1818" lon="13.1462383"><ele>556.8</ele><time>2026-04-26T13:08:14.236Z</time></trkpt><trkpt lat="43.1817333" lon="13.146235"><ele>555.5999999999999</ele><time>2026-04-26T13:08:15.232Z</time></trkpt><trkpt lat="43.1816633" lon="13.1462933"><ele>554.4000000000001</ele><time>2026-04-26T13:08:16.227Z</time></trkpt><trkpt lat="43.1816" lon="13.146375"><ele>553.2</ele><time>2026-04-26T13:08:17.23Z</time></trkpt><trkpt lat="43.181545" lon="13.146505"><ele>552.0</ele><time>2026-04-26T13:08:18.232Z</time></trkpt><trkpt lat="43.1814917" lon="13.1467017"><ele>550.0</ele><time>2026-04-26T13:08:19.233Z</time></trkpt><trkpt lat="43.18144" lon="13.1468783"><ele>548.0</ele><time>2026-04-26T13:08:20.235Z</time></trkpt><trkpt lat="43.1813883" lon="13.1470617"><ele>546.0</ele><time>2026-04-26T13:08:21.235Z</time></trkpt><trkpt lat="43.1813333" lon="13.1472417"><ele>544.0</ele><time>2026-04-26T13:08:22.235Z</time></trkpt><trkpt lat="43.1812717" lon="13.1474167"><ele>544.0</ele><time>2026-04-26T13:08:23.233Z</time></trkpt><trkpt lat="43.181205" lon="13.1475867"><ele>544.0</ele><time>2026-04-26T13:08:24.232Z</time></trkpt><trkpt lat="43.181135" lon="13.1477583"><ele>544.0</ele><time>2026-04-26T13:08:25.232Z</time></trkpt><trkpt lat="43.1810633" lon="13.1479317"><ele>544.0</ele><time>2026-04-26T13:08:26.231Z</time></trkpt><trkpt lat="43.1809883" lon="13.14811"><ele>545.0</ele><time>2026-04-26T13:08:27.234Z</time></trkpt><trkpt lat="43.1809117" lon="13.1482867"><ele>546.0</ele><time>2026-04-26T13:08:28.233Z</time></trkpt><trkpt lat="43.1808333" lon="13.1484617"><ele>547.0</ele><time>2026-04-26T13:08:29.236Z</time></trkpt><trkpt lat="43.180755" lon="13.14863"><ele>548.0</ele><time>2026-04-26T13:08:30.233Z</time></trkpt><trkpt lat="43.180685" lon="13.1487933"><ele>545.5</ele><time>2026-04-26T13:08:31.234Z</time></trkpt><trkpt lat="43.180615" lon="13.1489483"><ele>543.0</ele><time>2026-04-26T13:08:32.234Z</time></trkpt><trkpt lat="43.1805433" lon="13.1490917"><ele>540.5</ele><time>2026-04-26T13:08:33.233Z</time></trkpt><trkpt lat="43.1804783" lon="13.1492283"><ele>538.0</ele><time>2026-04-26T13:08:34.233Z</time></trkpt><trkpt lat="43.18042" lon="13.149365"><ele>536.25</ele><time>2026-04-26T13:08:35.235Z</time></trkpt><trkpt lat="43.1803817" lon="13.1495067"><ele>534.5</ele><time>2026-04-26T13:08:36.232Z</time></trkpt><trkpt lat="43.180365" lon="13.1496583"><ele>532.75</ele><time>2026-04-26T13:08:37.235Z</time></trkpt><trkpt lat="43.1803583" lon="13.1498267"><ele>531.0</ele><time>2026-04-26T13:08:38.234Z</time></trkpt><trkpt lat="43.1803583" lon="13.1500183"><ele>531.0</ele><time>2026-04-26T13:08:39.234Z</time></trkpt><trkpt lat="43.1803617" lon="13.1502267"><ele>531.0</ele><time>2026-04-26T13:08:40.235Z</time></trkpt><trkpt lat="43.1803683" lon="13.15046"><ele>531.0</ele><time>2026-04-26T13:08:41.235Z</time></trkpt><trkpt lat="43.1803733" lon="13.1507033"><ele>530.3333333333334</ele><time>2026-04-26T13:08:42.234Z</time></trkpt><trkpt lat="43.1803733" lon="13.1509417"><ele>529.6666666666667</ele><time>2026-04-26T13:08:43.233Z</time></trkpt><trkpt lat="43.1803767" lon="13.1511767"><ele>529.0</ele><time>2026-04-26T13:08:44.235Z</time></trkpt><trkpt lat="43.1803767" lon="13.15141"><ele>530.3333333333334</ele><time>2026-04-26T13:08:45.234Z</time></trkpt><trkpt lat="43.1803733" lon="13.1516367"><ele>531.6666666666666</ele><time>2026-04-26T13:08:46.233Z</time></trkpt><trkpt lat="43.1803733" lon="13.151865"><ele>533.0</ele><time>2026-04-26T13:08:47.233Z</time></trkpt><trkpt lat="43.1803817" lon="13.152085"><ele>533.0</ele><time>2026-04-26T13:08:48.233Z</time></trkpt><trkpt lat="43.1804067" lon="13.1522883"><ele>533.0</ele><time>2026-04-26T13:08:49.232Z</time></trkpt><trkpt lat="43.180445" lon="13.1524817"><ele>533.0</ele><time>2026-04-26T13:08:50.236Z</time></trkpt><trkpt lat="43.1804933" lon="13.1526683"><ele>533.0</ele><time>2026-04-26T13:08:51.233Z</time></trkpt><trkpt lat="43.1805517" lon="13.1528483"><ele>533.3333333333333</ele><time>2026-04-26T13:08:52.232Z</time></trkpt><trkpt lat="43.18062" lon="13.1530333"><ele>533.6666666666666</ele><time>2026-04-26T13:08:53.23Z</time></trkpt><trkpt lat="43.1807033" lon="13.1532283"><ele>534.0</ele><time>2026-04-26T13:08:54.233Z</time></trkpt><trkpt lat="43.180795" lon="13.1534267"><ele>529.0</ele><time>2026-04-26T13:08:55.232Z</time></trkpt><trkpt lat="43.1808883" lon="13.15363"><ele>524.0</ele><time>2026-04-26T13:08:56.234Z</time></trkpt><trkpt lat="43.1809817" lon="13.1538417"><ele>519.0</ele><time>2026-04-26T13:08:57.236Z</time></trkpt><trkpt lat="43.1810817" lon="13.15406"><ele>517.6666666666666</ele><time>2026-04-26T13:08:58.232Z</time></trkpt><trkpt lat="43.1811817" lon="13.1542817"><ele>516.3333333333333</ele><time>2026-04-26T13:08:59.231Z</time></trkpt><trkpt lat="43.1812767" lon="13.1544883"><ele>515.0</ele><time>2026-04-26T13:09:00.235Z</time></trkpt><trkpt lat="43.1813533" lon="13.1546783"><ele>515.0</ele><time>2026-04-26T13:09:01.235Z</time></trkpt><trkpt lat="43.1814083" lon="13.15485"><ele>515.0</ele><time>2026-04-26T13:09:02.234Z</time></trkpt><trkpt lat="43.1814417" lon="13.1550133"><ele>515.0</ele><time>2026-04-26T13:09:03.234Z</time></trkpt><trkpt lat="43.181455" lon="13.1551767"><ele>515.0</ele><time>2026-04-26T13:09:04.231Z</time></trkpt><trkpt lat="43.1814517" lon="13.155335"><ele>516.75</ele><time>2026-04-26T13:09:05.234Z</time></trkpt><trkpt lat="43.181445" lon="13.155495"><ele>518.5</ele><time>2026-04-26T13:09:06.235Z</time></trkpt><trkpt lat="43.1814367" lon="13.15566"><ele>520.25</ele><time>2026-04-26T13:09:07.233Z</time></trkpt><trkpt lat="43.181425" lon="13.155815"><ele>522.0</ele><time>2026-04-26T13:09:08.236Z</time></trkpt><trkpt lat="43.1814017" lon="13.155965"><ele>522.25</ele><time>2026-04-26T13:09:09.231Z</time></trkpt><trkpt lat="43.181365" lon="13.1561117"><ele>522.5</ele><time>2026-04-26T13:09:10.235Z</time></trkpt><trkpt lat="43.181315" lon="13.1562467"><ele>522.75</ele><time>2026-04-26T13:09:11.235Z</time></trkpt><trkpt lat="43.1812533" lon="13.1563833"><ele>523.0</ele><time>2026-04-26T13:09:12.23Z</time></trkpt><trkpt lat="43.1811867" lon="13.1565267"><ele>522.0</ele><time>2026-04-26T13:09:13.233Z</time></trkpt><trkpt lat="43.18112" lon="13.1566833"><ele>521.0</ele><time>2026-04-26T13:09:14.233Z</time></trkpt><trkpt lat="43.1810567" lon="13.15687"><ele>520.0</ele><time>2026-04-26T13:09:15.233Z</time></trkpt><trkpt lat="43.1809933" lon="13.1570667"><ele>519.0</ele><time>2026-04-26T13:09:16.233Z</time></trkpt><trkpt lat="43.1809333" lon="13.1572767"><ele>516.6666666666666</ele><time>2026-04-26T13:09:17.231Z</time></trkpt><trkpt lat="43.1808817" lon="13.157495"><ele>514.3333333333333</ele><time>2026-04-26T13:09:18.234Z</time></trkpt><trkpt lat="43.180825" lon="13.157725"><ele>512.0</ele><time>2026-04-26T13:09:19.236Z</time></trkpt><trkpt lat="43.1807767" lon="13.1579567"><ele>512.0</ele><time>2026-04-26T13:09:20.232Z</time></trkpt><trkpt lat="43.1807183" lon="13.1581967"><ele>512.0</ele><time>2026-04-26T13:09:21.234Z</time></trkpt><trkpt lat="43.18066" lon="13.1584433"><ele>512.0</ele><time>2026-04-26T13:09:22.235Z</time></trkpt><trkpt lat="43.1806117" lon="13.1586917"><ele>529.3333333333333</ele><time>2026-04-26T13:09:23.233Z</time></trkpt><trkpt lat="43.1805667" lon="13.158915"><ele>546.6666666666666</ele><time>2026-04-26T13:09:24.233Z</time></trkpt><trkpt lat="43.18053" lon="13.1591333"><ele>564.0</ele><time>2026-04-26T13:09:25.233Z</time></trkpt><trkpt lat="43.1805033" lon="13.1593617"><ele>564.0</ele><time>2026-04-26T13:09:26.232Z</time></trkpt><trkpt lat="43.1804933" lon="13.1596033"><ele>564.0</ele><time>2026-04-26T13:09:27.226Z</time></trkpt><trkpt lat="43.1804933" lon="13.1598467"><ele>564.0</ele><time>2026-04-26T13:09:28.226Z</time></trkpt><trkpt lat="43.1804967" lon="13.1600967"><ele>562.6666666666666</ele><time>2026-04-26T13:09:29.228Z</time></trkpt><trkpt lat="43.1805117" lon="13.1603367"><ele>561.3333333333333</ele><time>2026-04-26T13:09:30.225Z</time></trkpt><trkpt lat="43.18052" lon="13.1605817"><ele>560.0</ele><time>2026-04-26T13:09:31.227Z</time></trkpt><trkpt lat="43.18053" lon="13.16083"><ele>559.75</ele><time>2026-04-26T13:09:32.226Z</time></trkpt><trkpt lat="43.1805367" lon="13.1610467"><ele>559.5</ele><time>2026-04-26T13:09:33.227Z</time></trkpt><trkpt lat="43.1805467" lon="13.1612383"><ele>559.25</ele><time>2026-04-26T13:09:34.226Z</time></trkpt><trkpt lat="43.18055" lon="13.1614083"><ele>559.0</ele><time>2026-04-26T13:09:35.226Z</time></trkpt><trkpt lat="43.1805533" lon="13.1615617"><ele>556.0</ele><time>2026-04-26T13:09:36.226Z</time></trkpt><trkpt lat="43.1805567" lon="13.1616967"><ele>553.0</ele><time>2026-04-26T13:09:37.227Z</time></trkpt><trkpt lat="43.1805633" lon="13.1618183"><ele>550.0</ele><time>2026-04-26T13:09:38.229Z</time></trkpt><trkpt lat="43.18057" lon="13.161925"><ele>547.0</ele><time>2026-04-26T13:09:39.227Z</time></trkpt><trkpt lat="43.1805883" lon="13.1620267"><ele>544.0</ele><time>2026-04-26T13:09:40.226Z</time></trkpt><trkpt lat="43.1806" lon="13.1621233"><ele>541.0</ele><time>2026-04-26T13:09:41.227Z</time></trkpt><trkpt lat="43.1805833" lon="13.1622067"><ele>541.0</ele><time>2026-04-26T13:09:42.226Z</time></trkpt><trkpt lat="43.1805" lon="13.16231"><ele>541.0</ele><time>2026-04-26T13:09:44.226Z</time></trkpt><trkpt lat="43.18037" lon="13.1623267"><ele>541.0</ele><time>2026-04-26T13:09:46.226Z</time></trkpt><trkpt lat="43.1802867" lon="13.1623283"><ele>541.0</ele><time>2026-04-26T13:09:47.23Z</time></trkpt><trkpt lat="43.1802067" lon="13.1623283"><ele>541.0</ele><time>2026-04-26T13:09:48.227Z</time></trkpt><trkpt lat="43.1801133" lon="13.1623133"><ele>541.0</ele><time>2026-04-26T13:09:49.227Z</time></trkpt><trkpt lat="43.1800083" lon="13.1622833"><ele>541.0</ele><time>2026-04-26T13:09:50.23Z</time></trkpt><trkpt lat="43.1798967" lon="13.162245"><ele>541.0</ele><time>2026-04-26T13:09:51.231Z</time></trkpt><trkpt lat="43.1797833" lon="13.162205"><ele>541.0</ele><time>2026-04-26T13:09:52.23Z</time></trkpt><trkpt lat="43.1796667" lon="13.16217"><ele>539.0</ele><time>2026-04-26T13:09:53.226Z</time></trkpt><trkpt lat="43.1795483" lon="13.1621417"><ele>537.0</ele><time>2026-04-26T13:09:54.227Z</time></trkpt><trkpt lat="43.17942" lon="13.1621033"><ele>535.0</ele><time>2026-04-26T13:09:55.227Z</time></trkpt><trkpt lat="43.1792883" lon="13.1620667"><ele>533.0</ele><time>2026-04-26T13:09:56.234Z</time></trkpt><trkpt lat="43.179155" lon="13.1620283"><ele>528.0</ele><time>2026-04-26T13:09:57.233Z</time></trkpt><trkpt lat="43.1790167" lon="13.1619783"><ele>523.0</ele><time>2026-04-26T13:09:58.233Z</time></trkpt><trkpt lat="43.178855" lon="13.1619217"><ele>518.0</ele><time>2026-04-26T13:09:59.231Z</time></trkpt><trkpt lat="43.178685" lon="13.16187"><ele>518.0</ele><time>2026-04-26T13:10:00.23Z</time></trkpt><trkpt lat="43.1785267" lon="13.1618183"><ele>518.0</ele><time>2026-04-26T13:10:01.229Z</time></trkpt><trkpt lat="43.178375" lon="13.161765"><ele>518.0</ele><time>2026-04-26T13:10:02.229Z</time></trkpt><trkpt lat="43.178235" lon="13.1617083"><ele>515.5</ele><time>2026-04-26T13:10:03.23Z</time></trkpt><trkpt lat="43.1780967" lon="13.16166"><ele>513.0</ele><time>2026-04-26T13:10:04.232Z</time></trkpt><trkpt lat="43.177965" lon="13.1616133"><ele>510.5</ele><time>2026-04-26T13:10:05.231Z</time></trkpt><trkpt lat="43.1778367" lon="13.1615667"><ele>508.0</ele><time>2026-04-26T13:10:06.229Z</time></trkpt><trkpt lat="43.17772" lon="13.161525"><ele>508.2</ele><time>2026-04-26T13:10:07.231Z</time></trkpt><trkpt lat="43.1776117" lon="13.161495"><ele>508.4</ele><time>2026-04-26T13:10:08.232Z</time></trkpt><trkpt lat="43.1775117" lon="13.161485"><ele>508.59999999999997</ele><time>2026-04-26T13:10:09.232Z</time></trkpt><trkpt lat="43.1774217" lon="13.1615067"><ele>508.79999999999995</ele><time>2026-04-26T13:10:10.227Z</time></trkpt><trkpt lat="43.1773517" lon="13.1615667"><ele>509.0</ele><time>2026-04-26T13:10:11.234Z</time></trkpt><trkpt lat="43.177305" lon="13.161685"><ele>509.0</ele><time>2026-04-26T13:10:13.23Z</time></trkpt><trkpt lat="43.1773217" lon="13.1617883"><ele>509.0</ele><time>2026-04-26T13:10:15.231Z</time></trkpt><trkpt lat="43.177405" lon="13.1618933"><ele>509.0</ele><time>2026-04-26T13:10:17.232Z</time></trkpt><trkpt lat="43.1774867" lon="13.1619633"><ele>509.0</ele><time>2026-04-26T13:10:18.228Z</time></trkpt><trkpt lat="43.1775733" lon="13.1620267"><ele>509.0</ele><time>2026-04-26T13:10:19.231Z</time></trkpt><trkpt lat="43.1776717" lon="13.1621067"><ele>508.75</ele><time>2026-04-26T13:10:20.228Z</time></trkpt><trkpt lat="43.1777867" lon="13.1621967"><ele>508.5</ele><time>2026-04-26T13:10:21.228Z</time></trkpt><trkpt lat="43.1778783" lon="13.1622783"><ele>508.25</ele><time>2026-04-26T13:10:22.23Z</time></trkpt><trkpt lat="43.177985" lon="13.1623667"><ele>508.0</ele><time>2026-04-26T13:10:23.228Z</time></trkpt><trkpt lat="43.178085" lon="13.1624567"><ele>509.0</ele><time>2026-04-26T13:10:24.23Z</time></trkpt><trkpt lat="43.17818" lon="13.16254"><ele>510.0</ele><time>2026-04-26T13:10:25.234Z</time></trkpt><trkpt lat="43.178285" lon="13.1626233"><ele>511.0</ele><time>2026-04-26T13:10:26.23Z</time></trkpt><trkpt lat="43.1783917" lon="13.1627217"><ele>512.0</ele><time>2026-04-26T13:10:27.231Z</time></trkpt><trkpt lat="43.1784917" lon="13.16282"><ele>513.75</ele><time>2026-04-26T13:10:28.229Z</time></trkpt><trkpt lat="43.1785917" lon="13.1629233"><ele>515.5</ele><time>2026-04-26T13:10:29.231Z</time></trkpt><trkpt lat="43.1786883" lon="13.1630267"><ele>517.25</ele><time>2026-04-26T13:10:30.23Z</time></trkpt><trkpt lat="43.1787917" lon="13.16313"><ele>519.0</ele><time>2026-04-26T13:10:31.232Z</time></trkpt><trkpt lat="43.178895" lon="13.1632417"><ele>519.0</ele><time>2026-04-26T13:10:32.229Z</time></trkpt><trkpt lat="43.178995" lon="13.1633467"><ele>519.0</ele><time>2026-04-26T13:10:33.234Z</time></trkpt><trkpt lat="43.1790967" lon="13.1634533"><ele>519.0</ele><time>2026-04-26T13:10:34.231Z</time></trkpt><trkpt lat="43.179205" lon="13.1635433"><ele>519.0</ele><time>2026-04-26T13:10:35.23Z</time></trkpt><trkpt lat="43.1793117" lon="13.16364"><ele>513.0</ele><time>2026-04-26T13:10:36.225Z</time></trkpt><trkpt lat="43.1794467" lon="13.1637217"><ele>507.0</ele><time>2026-04-26T13:10:37.231Z</time></trkpt><trkpt lat="43.179585" lon="13.163825"><ele>501.0</ele><time>2026-04-26T13:10:38.229Z</time></trkpt><trkpt lat="43.1797267" lon="13.163925"><ele>502.33333333333337</ele><time>2026-04-26T13:10:39.228Z</time></trkpt><trkpt lat="43.1798733" lon="13.16404"><ele>503.6666666666667</ele><time>2026-04-26T13:10:40.227Z</time></trkpt><trkpt lat="43.18002" lon="13.1641517"><ele>505.0</ele><time>2026-04-26T13:10:41.234Z</time></trkpt><trkpt lat="43.1801683" lon="13.1642717"><ele>505.0</ele><time>2026-04-26T13:10:42.227Z</time></trkpt><trkpt lat="43.1803" lon="13.164395"><ele>505.0</ele><time>2026-04-26T13:10:43.231Z</time></trkpt><trkpt lat="43.18041" lon="13.1645267"><ele>505.0</ele><time>2026-04-26T13:10:44.233Z</time></trkpt><trkpt lat="43.1804967" lon="13.16467"><ele>505.0</ele><time>2026-04-26T13:10:45.23Z</time></trkpt><trkpt lat="43.1805533" lon="13.1648117"><ele>507.8</ele><time>2026-04-26T13:10:46.228Z</time></trkpt><trkpt lat="43.1805867" lon="13.1649533"><ele>510.6</ele><time>2026-04-26T13:10:47.227Z</time></trkpt><trkpt lat="43.18059" lon="13.16509"><ele>513.4</ele><time>2026-04-26T13:10:48.23Z</time></trkpt><trkpt lat="43.1805483" lon="13.1652183"><ele>516.2</ele><time>2026-04-26T13:10:49.229Z</time></trkpt><trkpt lat="43.1804783" lon="13.1653567"><ele>519.0</ele><time>2026-04-26T13:10:50.226Z</time></trkpt><trkpt lat="43.18038" lon="13.1654967"><ele>519.0</ele><time>2026-04-26T13:10:51.227Z</time></trkpt><trkpt lat="43.18027" lon="13.16563"><ele>519.0</ele><time>2026-04-26T13:10:52.229Z</time></trkpt><trkpt lat="43.1801667" lon="13.1657683"><ele>519.0</ele><time>2026-04-26T13:10:53.229Z</time></trkpt><trkpt lat="43.18007" lon="13.16591"><ele>519.0</ele><time>2026-04-26T13:10:54.229Z</time></trkpt><trkpt lat="43.1799783" lon="13.1660467"><ele>517.5</ele><time>2026-04-26T13:10:55.229Z</time></trkpt><trkpt lat="43.1798767" lon="13.1661783"><ele>516.0</ele><time>2026-04-26T13:10:56.228Z</time></trkpt><trkpt lat="43.17976" lon="13.1663"><ele>514.5</ele><time>2026-04-26T13:10:57.229Z</time></trkpt><trkpt lat="43.179635" lon="13.1664133"><ele>513.0</ele><time>2026-04-26T13:10:58.231Z</time></trkpt><trkpt lat="43.179495" lon="13.1665283"><ele>517.75</ele><time>2026-04-26T13:10:59.232Z</time></trkpt><trkpt lat="43.1793667" lon="13.1666383"><ele>522.5</ele><time>2026-04-26T13:11:00.231Z</time></trkpt><trkpt lat="43.1792383" lon="13.1667433"><ele>527.25</ele><time>2026-04-26T13:11:01.23Z</time></trkpt><trkpt lat="43.179115" lon="13.1668467"><ele>532.0</ele><time>2026-04-26T13:11:02.231Z</time></trkpt><trkpt lat="43.1789967" lon="13.167005"><ele>533.3333333333334</ele><time>2026-04-26T13:11:03.233Z</time></trkpt><trkpt lat="43.17889" lon="13.1671883"><ele>534.6666666666666</ele><time>2026-04-26T13:11:04.234Z</time></trkpt><trkpt lat="43.1788" lon="13.16736"><ele>536.0</ele><time>2026-04-26T13:11:05.228Z</time></trkpt><trkpt lat="43.17871" lon="13.16749"><ele>536.0</ele><time>2026-04-26T13:11:06.233Z</time></trkpt><trkpt lat="43.1786067" lon="13.167585"><ele>536.0</ele><time>2026-04-26T13:11:07.229Z</time></trkpt><trkpt lat="43.1784833" lon="13.16765"><ele>536.0</ele><time>2026-04-26T13:11:08.229Z</time></trkpt><trkpt lat="43.1783433" lon="13.167695"><ele>536.0</ele><time>2026-04-26T13:11:09.232Z</time></trkpt><trkpt lat="43.1781867" lon="13.1677217"><ele>535.6666666666666</ele><time>2026-04-26T13:11:10.23Z</time></trkpt><trkpt lat="43.178015" lon="13.1677167"><ele>535.3333333333334</ele><time>2026-04-26T13:11:11.228Z</time></trkpt><trkpt lat="43.177835" lon="13.1676967"><ele>535.0</ele><time>2026-04-26T13:11:12.229Z</time></trkpt><trkpt lat="43.1776417" lon="13.1676617"><ele>535.0</ele><time>2026-04-26T13:11:13.226Z</time></trkpt><trkpt lat="43.1774317" lon="13.167615"><ele>535.0</ele><time>2026-04-26T13:11:14.231Z</time></trkpt><trkpt lat="43.1772217" lon="13.1675767"><ele>535.0</ele><time>2026-04-26T13:11:15.231Z</time></trkpt><trkpt lat="43.1770233" lon="13.1675533"><ele>534.3333333333334</ele><time>2026-04-26T13:11:16.231Z</time></trkpt><trkpt lat="43.1768367" lon="13.1675317"><ele>533.6666666666666</ele><time>2026-04-26T13:11:17.231Z</time></trkpt><trkpt lat="43.176665" lon="13.1675067"><ele>533.0</ele><time>2026-04-26T13:11:18.23Z</time></trkpt><trkpt lat="43.176515" lon="13.1674833"><ele>536.8</ele><time>2026-04-26T13:11:19.232Z</time></trkpt><trkpt lat="43.1763767" lon="13.1674667"><ele>540.5999999999999</ele><time>2026-04-26T13:11:20.234Z</time></trkpt><trkpt lat="43.176265" lon="13.167485"><ele>544.4000000000001</ele><time>2026-04-26T13:11:21.232Z</time></trkpt><trkpt lat="43.1761867" lon="13.167555"><ele>548.2</ele><time>2026-04-26T13:11:22.233Z</time></trkpt><trkpt lat="43.17615" lon="13.16765"><ele>552.0</ele><time>2026-04-26T13:11:23.231Z</time></trkpt><trkpt lat="43.17613" lon="13.1677567"><ele>552.0</ele><time>2026-04-26T13:11:24.231Z</time></trkpt><trkpt lat="43.176155" lon="13.1678983"><ele>552.0</ele><time>2026-04-26T13:11:25.232Z</time></trkpt><trkpt lat="43.176185" lon="13.1680533"><ele>552.0</ele><time>2026-04-26T13:11:26.23Z</time></trkpt><trkpt lat="43.1762083" lon="13.16822"><ele>552.0</ele><time>2026-04-26T13:11:27.232Z</time></trkpt><trkpt lat="43.1762567" lon="13.1683833"><ele>554.25</ele><time>2026-04-26T13:11:28.227Z</time></trkpt><trkpt lat="43.1763067" lon="13.168545"><ele>556.5</ele><time>2026-04-26T13:11:29.228Z</time></trkpt><trkpt lat="43.17636" lon="13.1687083"><ele>558.75</ele><time>2026-04-26T13:11:30.228Z</time></trkpt><trkpt lat="43.176425" lon="13.168865"><ele>561.0</ele><time>2026-04-26T13:11:31.23Z</time></trkpt><trkpt lat="43.1764917" lon="13.1690167"><ele>557.4</ele><time>2026-04-26T13:11:32.227Z</time></trkpt><trkpt lat="43.176555" lon="13.16916"><ele>553.8</ele><time>2026-04-26T13:11:33.23Z</time></trkpt><trkpt lat="43.1766117" lon="13.1692967"><ele>550.1999999999999</ele><time>2026-04-26T13:11:34.231Z</time></trkpt><trkpt lat="43.1766617" lon="13.1694267"><ele>546.6</ele><time>2026-04-26T13:11:35.23Z</time></trkpt><trkpt lat="43.1767133" lon="13.1695517"><ele>543.0</ele><time>2026-04-26T13:11:36.228Z</time></trkpt><trkpt lat="43.176765" lon="13.1696767"><ele>543.0</ele><time>2026-04-26T13:11:37.228Z</time></trkpt><trkpt lat="43.1768233" lon="13.1697967"><ele>543.0</ele><time>2026-04-26T13:11:38.232Z</time></trkpt><trkpt lat="43.1768917" lon="13.16992"><ele>543.0</ele><time>2026-04-26T13:11:39.232Z</time></trkpt><trkpt lat="43.1769617" lon="13.1700567"><ele>543.0</ele><time>2026-04-26T13:11:40.23Z</time></trkpt><trkpt lat="43.1770283" lon="13.170205"><ele>547.25</ele><time>2026-04-26T13:11:41.229Z</time></trkpt><trkpt lat="43.1770883" lon="13.1703567"><ele>551.5</ele><time>2026-04-26T13:11:42.23Z</time></trkpt><trkpt lat="43.1771483" lon="13.170505"><ele>555.75</ele><time>2026-04-26T13:11:43.234Z</time></trkpt><trkpt lat="43.1771967" lon="13.1706567"><ele>560.0</ele><time>2026-04-26T13:11:44.235Z</time></trkpt><trkpt lat="43.1772367" lon="13.1708133"><ele>562.75</ele><time>2026-04-26T13:11:45.234Z</time></trkpt><trkpt lat="43.1772717" lon="13.1709633"><ele>565.5</ele><time>2026-04-26T13:11:46.233Z</time></trkpt><trkpt lat="43.1772983" lon="13.1711133"><ele>568.25</ele><time>2026-04-26T13:11:47.234Z</time></trkpt><trkpt lat="43.1773217" lon="13.171265"><ele>571.0</ele><time>2026-04-26T13:11:48.234Z</time></trkpt><trkpt lat="43.1773467" lon="13.1714283"><ele>564.5</ele><time>2026-04-26T13:11:49.233Z</time></trkpt><trkpt lat="43.1773667" lon="13.1716083"><ele>558.0</ele><time>2026-04-26T13:11:50.231Z</time></trkpt><trkpt lat="43.1773817" lon="13.1718067"><ele>551.5</ele><time>2026-04-26T13:11:51.233Z</time></trkpt><trkpt lat="43.1773967" lon="13.1720133"><ele>545.0</ele><time>2026-04-26T13:11:52.234Z</time></trkpt><trkpt lat="43.17741" lon="13.172235"><ele>547.0</ele><time>2026-04-26T13:11:53.23Z</time></trkpt><trkpt lat="43.1774217" lon="13.1724583"><ele>549.0</ele><time>2026-04-26T13:11:54.232Z</time></trkpt><trkpt lat="43.1774317" lon="13.1726833"><ele>551.0</ele><time>2026-04-26T13:11:55.23Z</time></trkpt><trkpt lat="43.177435" lon="13.172915"><ele>551.0</ele><time>2026-04-26T13:11:56.233Z</time></trkpt><trkpt lat="43.1774383" lon="13.1731517"><ele>551.0</ele><time>2026-04-26T13:11:57.232Z</time></trkpt><trkpt lat="43.1774417" lon="13.173395"><ele>551.0</ele><time>2026-04-26T13:11:58.23Z</time></trkpt><trkpt lat="43.1774433" lon="13.1736417"><ele>553.6666666666666</ele><time>2026-04-26T13:11:59.232Z</time></trkpt><trkpt lat="43.1774433" lon="13.1738983"><ele>556.3333333333334</ele><time>2026-04-26T13:12:00.231Z</time></trkpt><trkpt lat="43.1774333" lon="13.17416"><ele>559.0</ele><time>2026-04-26T13:12:01.231Z</time></trkpt><trkpt lat="43.1774017" lon="13.174425"><ele>559.6666666666667</ele><time>2026-04-26T13:12:02.23Z</time></trkpt><trkpt lat="43.177365" lon="13.17467"><ele>560.3333333333334</ele><time>2026-04-26T13:12:03.231Z</time></trkpt><trkpt lat="43.1773233" lon="13.1748933"><ele>561.0</ele><time>2026-04-26T13:12:04.227Z</time></trkpt><trkpt lat="43.1772933" lon="13.1751067"><ele>569.75</ele><time>2026-04-26T13:12:05.236Z</time></trkpt><trkpt lat="43.177275" lon="13.175305"><ele>578.5</ele><time>2026-04-26T13:12:06.236Z</time></trkpt><trkpt lat="43.1772633" lon="13.1754883"><ele>587.25</ele><time>2026-04-26T13:12:07.228Z</time></trkpt><trkpt lat="43.1772517" lon="13.175685"><ele>596.0</ele><time>2026-04-26T13:12:08.232Z</time></trkpt><trkpt lat="43.177235" lon="13.1759083"><ele>596.0</ele><time>2026-04-26T13:12:09.231Z</time></trkpt><trkpt lat="43.1772183" lon="13.1761517"><ele>596.0</ele><time>2026-04-26T13:12:10.235Z</time></trkpt><trkpt lat="43.1772033" lon="13.1763933"><ele>596.0</ele><time>2026-04-26T13:12:11.234Z</time></trkpt><trkpt lat="43.17719" lon="13.176625"><ele>596.0</ele><time>2026-04-26T13:12:12.237Z</time></trkpt><trkpt lat="43.1771783" lon="13.1768433"><ele>596.0</ele><time>2026-04-26T13:12:13.227Z</time></trkpt><trkpt lat="43.177175" lon="13.1770433"><ele>596.0</ele><time>2026-04-26T13:12:14.231Z</time></trkpt><trkpt lat="43.1771667" lon="13.1772333"><ele>596.0</ele><time>2026-04-26T13:12:15.238Z</time></trkpt><trkpt lat="43.1771583" lon="13.1774283"><ele>596.0</ele><time>2026-04-26T13:12:16.233Z</time></trkpt><trkpt lat="43.1771517" lon="13.1776367"><ele>596.0</ele><time>2026-04-26T13:12:17.235Z</time></trkpt><trkpt lat="43.1771533" lon="13.177865"><ele>596.0</ele><time>2026-04-26T13:12:18.233Z</time></trkpt><trkpt lat="43.1771433" lon="13.1780917"><ele>595.3333333333333</ele><time>2026-04-26T13:12:19.235Z</time></trkpt><trkpt lat="43.1771233" lon="13.17833"><ele>594.6666666666666</ele><time>2026-04-26T13:12:20.229Z</time></trkpt><trkpt lat="43.17711" lon="13.178575"><ele>594.0</ele><time>2026-04-26T13:12:21.236Z</time></trkpt><trkpt lat="43.177095" lon="13.1788367"><ele>592.0</ele><time>2026-04-26T13:12:22.231Z</time></trkpt><trkpt lat="43.1770733" lon="13.179115"><ele>590.0</ele><time>2026-04-26T13:12:23.233Z</time></trkpt><trkpt lat="43.1770483" lon="13.1794167"><ele>588.0</ele><time>2026-04-26T13:12:24.233Z</time></trkpt><trkpt lat="43.1770183" lon="13.1797333"><ele>585.5</ele><time>2026-04-26T13:12:25.232Z</time></trkpt><trkpt lat="43.1769867" lon="13.1800517"><ele>583.0</ele><time>2026-04-26T13:12:26.235Z</time></trkpt><trkpt lat="43.176955" lon="13.18037"><ele>580.0</ele><time>2026-04-26T13:12:27.234Z</time></trkpt><trkpt lat="43.1769233" lon="13.1806867"><ele>577.0</ele><time>2026-04-26T13:12:28.233Z</time></trkpt><trkpt lat="43.17689" lon="13.1810083"><ele>577.0</ele><time>2026-04-26T13:12:29.234Z</time></trkpt><trkpt lat="43.1768583" lon="13.1813267"><ele>577.0</ele><time>2026-04-26T13:12:30.233Z</time></trkpt><trkpt lat="43.1768233" lon="13.1816333"><ele>573.3333333333334</ele><time>2026-04-26T13:12:31.233Z</time></trkpt><trkpt lat="43.176785" lon="13.18193"><ele>569.6666666666666</ele><time>2026-04-26T13:12:32.235Z</time></trkpt><trkpt lat="43.176735" lon="13.1822117"><ele>566.0</ele><time>2026-04-26T13:12:33.235Z</time></trkpt><trkpt lat="43.176665" lon="13.1824767"><ele>567.3333333333333</ele><time>2026-04-26T13:12:34.234Z</time></trkpt><trkpt lat="43.17658" lon="13.182725"><ele>568.6666666666666</ele><time>2026-04-26T13:12:35.233Z</time></trkpt><trkpt lat="43.1764917" lon="13.18296"><ele>570.0</ele><time>2026-04-26T13:12:36.23Z</time></trkpt><trkpt lat="43.1764133" lon="13.1831917"><ele>570.0</ele><time>2026-04-26T13:12:37.235Z</time></trkpt><trkpt lat="43.17635" lon="13.1834267"><ele>570.0</ele><time>2026-04-26T13:12:38.231Z</time></trkpt><trkpt lat="43.1763033" lon="13.18366"><ele>570.0</ele><time>2026-04-26T13:12:39.235Z</time></trkpt><trkpt lat="43.1762767" lon="13.1838867"><ele>561.25</ele><time>2026-04-26T13:12:40.232Z</time></trkpt><trkpt lat="43.176265" lon="13.184095"><ele>552.5</ele><time>2026-04-26T13:12:41.233Z</time></trkpt><trkpt lat="43.1762567" lon="13.18428"><ele>543.75</ele><time>2026-04-26T13:12:42.234Z</time></trkpt><trkpt lat="43.1762517" lon="13.1844417"><ele>535.0</ele><time>2026-04-26T13:12:43.232Z</time></trkpt><trkpt lat="43.176235" lon="13.1845717"><ele>535.0</ele><time>2026-04-26T13:12:44.232Z</time></trkpt><trkpt lat="43.176185" lon="13.18466"><ele>535.0</ele><time>2026-04-26T13:12:45.234Z</time></trkpt><trkpt lat="43.176115" lon="13.1846783"><ele>535.0</ele><time>2026-04-26T13:12:46.233Z</time></trkpt><trkpt lat="43.1760467" lon="13.1846617"><ele>535.0</ele><time>2026-04-26T13:12:47.232Z</time></trkpt><trkpt lat="43.1759633" lon="13.184585"><ele>535.0</ele><time>2026-04-26T13:12:48.233Z</time></trkpt><trkpt lat="43.17586" lon="13.184485"><ele>535.0</ele><time>2026-04-26T13:12:49.232Z</time></trkpt><trkpt lat="43.1757367" lon="13.1843733"><ele>531.0</ele><time>2026-04-26T13:12:50.231Z</time></trkpt><trkpt lat="43.1756083" lon="13.1842667"><ele>527.0</ele><time>2026-04-26T13:12:51.234Z</time></trkpt><trkpt lat="43.1754733" lon="13.1841717"><ele>523.0</ele><time>2026-04-26T13:12:52.231Z</time></trkpt><trkpt lat="43.1753383" lon="13.184115"><ele>519.0</ele><time>2026-04-26T13:12:53.232Z</time></trkpt><trkpt lat="43.1752017" lon="13.1840617"><ele>522.25</ele><time>2026-04-26T13:12:54.232Z</time></trkpt><trkpt lat="43.1750717" lon="13.1839983"><ele>525.5</ele><time>2026-04-26T13:12:55.235Z</time></trkpt><trkpt lat="43.17495" lon="13.1839267"><ele>528.75</ele><time>2026-04-26T13:12:56.233Z</time></trkpt><trkpt lat="43.1748367" lon="13.1838483"><ele>532.0</ele><time>2026-04-26T13:12:57.234Z</time></trkpt><trkpt lat="43.1747267" lon="13.1837733"><ele>532.0</ele><time>2026-04-26T13:12:58.231Z</time></trkpt><trkpt lat="43.174615" lon="13.183715"><ele>532.0</ele><time>2026-04-26T13:12:59.235Z</time></trkpt><trkpt lat="43.1745017" lon="13.1836933"><ele>532.0</ele><time>2026-04-26T13:13:00.231Z</time></trkpt><trkpt lat="43.1743967" lon="13.1837217"><ele>532.0</ele><time>2026-04-26T13:13:01.233Z</time></trkpt><trkpt lat="43.1743033" lon="13.183795"><ele>532.0</ele><time>2026-04-26T13:13:02.231Z</time></trkpt><trkpt lat="43.1742433" lon="13.1839217"><ele>529.25</ele><time>2026-04-26T13:13:03.232Z</time></trkpt><trkpt lat="43.1742233" lon="13.1840767"><ele>526.5</ele><time>2026-04-26T13:13:04.233Z</time></trkpt><trkpt lat="43.1742333" lon="13.1842433"><ele>523.75</ele><time>2026-04-26T13:13:05.233Z</time></trkpt><trkpt lat="43.1742767" lon="13.184405"><ele>521.0</ele><time>2026-04-26T13:13:06.232Z</time></trkpt><trkpt lat="43.1743533" lon="13.184555"><ele>521.0</ele><time>2026-04-26T13:13:07.233Z</time></trkpt><trkpt lat="43.1744567" lon="13.1846967"><ele>521.0</ele><time>2026-04-26T13:13:08.234Z</time></trkpt><trkpt lat="43.1745667" lon="13.184835"><ele>521.0</ele><time>2026-04-26T13:13:09.233Z</time></trkpt><trkpt lat="43.17468" lon="13.184975"><ele>521.0</ele><time>2026-04-26T13:13:10.232Z</time></trkpt><trkpt lat="43.1747933" lon="13.1851117"><ele>516.5</ele><time>2026-04-26T13:13:11.229Z</time></trkpt><trkpt lat="43.174905" lon="13.185245"><ele>512.0</ele><time>2026-04-26T13:13:12.234Z</time></trkpt><trkpt lat="43.1750167" lon="13.1853717"><ele>507.5</ele><time>2026-04-26T13:13:13.235Z</time></trkpt><trkpt lat="43.1751317" lon="13.1854867"><ele>503.0</ele><time>2026-04-26T13:13:14.232Z</time></trkpt><trkpt lat="43.175255" lon="13.1855833"><ele>503.0</ele><time>2026-04-26T13:13:15.237Z</time></trkpt><trkpt lat="43.1753767" lon="13.185665"><ele>503.0</ele><time>2026-04-26T13:13:16.232Z</time></trkpt><trkpt lat="43.1754917" lon="13.1857383"><ele>503.0</ele><time>2026-04-26T13:13:17.23Z</time></trkpt><trkpt lat="43.1756" lon="13.1858017"><ele>503.0</ele><time>2026-04-26T13:13:18.234Z</time></trkpt><trkpt lat="43.175695" lon="13.1858783"><ele>501.66666666666663</ele><time>2026-04-26T13:13:19.232Z</time></trkpt><trkpt lat="43.1757617" lon="13.18597"><ele>500.3333333333333</ele><time>2026-04-26T13:13:20.235Z</time></trkpt><trkpt lat="43.1758067" lon="13.1860783"><ele>499.0</ele><time>2026-04-26T13:13:21.238Z</time></trkpt><trkpt lat="43.1758133" lon="13.1861967"><ele>497.66666666666663</ele><time>2026-04-26T13:13:22.233Z</time></trkpt><trkpt lat="43.1758067" lon="13.186315"><ele>496.3333333333333</ele><time>2026-04-26T13:13:23.231Z</time></trkpt><trkpt lat="43.1757867" lon="13.18643"><ele>495.0</ele><time>2026-04-26T13:13:24.232Z</time></trkpt><trkpt lat="43.17576" lon="13.1865367"><ele>493.8333333333333</ele><time>2026-04-26T13:13:25.235Z</time></trkpt><trkpt lat="43.1757383" lon="13.1866367"><ele>492.66666666666663</ele><time>2026-04-26T13:13:26.236Z</time></trkpt><trkpt lat="43.1757183" lon="13.1867333"><ele>491.5</ele><time>2026-04-26T13:13:27.234Z</time></trkpt><trkpt lat="43.175695" lon="13.186835"><ele>490.3333333333333</ele><time>2026-04-26T13:13:28.233Z</time></trkpt><trkpt lat="43.1756733" lon="13.186935"><ele>489.16666666666663</ele><time>2026-04-26T13:13:29.232Z</time></trkpt><trkpt lat="43.1756483" lon="13.18703"><ele>488.0</ele><time>2026-04-26T13:13:30.231Z</time></trkpt><trkpt lat="43.17562" lon="13.1871317"><ele>490.8333333333333</ele><time>2026-04-26T13:13:31.233Z</time></trkpt><trkpt lat="43.1755917" lon="13.1872317"><ele>493.66666666666663</ele><time>2026-04-26T13:13:32.231Z</time></trkpt><trkpt lat="43.175565" lon="13.1873233"><ele>496.5</ele><time>2026-04-26T13:13:33.235Z</time></trkpt><trkpt lat="43.1755367" lon="13.1874117"><ele>499.33333333333337</ele><time>2026-04-26T13:13:34.231Z</time></trkpt><trkpt lat="43.17551" lon="13.1875"><ele>502.1666666666667</ele><time>2026-04-26T13:13:35.232Z</time></trkpt><trkpt lat="43.175485" lon="13.187605"><ele>505.0</ele><time>2026-04-26T13:13:36.234Z</time></trkpt><trkpt lat="43.1754617" lon="13.1877233"><ele>506.0</ele><time>2026-04-26T13:13:37.234Z</time></trkpt><trkpt lat="43.175445" lon="13.1878417"><ele>507.0</ele><time>2026-04-26T13:13:38.235Z</time></trkpt><trkpt lat="43.1754367" lon="13.1879667"><ele>508.0</ele><time>2026-04-26T13:13:39.234Z</time></trkpt><trkpt lat="43.1754367" lon="13.1881083"><ele>509.0</ele><time>2026-04-26T13:13:40.232Z</time></trkpt><trkpt lat="43.1754433" lon="13.1882617"><ele>510.0</ele><time>2026-04-26T13:13:41.234Z</time></trkpt><trkpt lat="43.1754617" lon="13.1884233"><ele>510.5</ele><time>2026-04-26T13:13:42.231Z</time></trkpt><trkpt lat="43.1754667" lon="13.188605"><ele>511.0</ele><time>2026-04-26T13:13:43.233Z</time></trkpt><trkpt lat="43.1754683" lon="13.1887817"><ele>511.5</ele><time>2026-04-26T13:13:44.233Z</time></trkpt><trkpt lat="43.1754567" lon="13.1889617"><ele>512.0</ele><time>2026-04-26T13:13:45.235Z</time></trkpt><trkpt lat="43.1754517" lon="13.18915"><ele>512.0</ele><time>2026-04-26T13:13:46.231Z</time></trkpt><trkpt lat="43.1754417" lon="13.1893417"><ele>512.0</ele><time>2026-04-26T13:13:47.235Z</time></trkpt><trkpt lat="43.1754283" lon="13.1895333"><ele>512.0</ele><time>2026-04-26T13:13:48.233Z</time></trkpt><trkpt lat="43.1754117" lon="13.1897233"><ele>512.0</ele><time>2026-04-26T13:13:49.233Z</time></trkpt><trkpt lat="43.1753917" lon="13.18991"><ele>509.25</ele><time>2026-04-26T13:13:50.238Z</time></trkpt><trkpt lat="43.1753667" lon="13.1900883"><ele>506.5</ele><time>2026-04-26T13:13:51.234Z</time></trkpt><trkpt lat="43.1753267" lon="13.190265"><ele>503.75</ele><time>2026-04-26T13:13:52.231Z</time></trkpt><trkpt lat="43.175275" lon="13.1904333"><ele>501.0</ele><time>2026-04-26T13:13:53.233Z</time></trkpt><trkpt lat="43.17521" lon="13.1905933"><ele>496.25</ele><time>2026-04-26T13:13:54.232Z</time></trkpt><trkpt lat="43.1751367" lon="13.1907467"><ele>491.5</ele><time>2026-04-26T13:13:55.236Z</time></trkpt><trkpt lat="43.175065" lon="13.1909033"><ele>486.75</ele><time>2026-04-26T13:13:56.234Z</time></trkpt><trkpt lat="43.1750017" lon="13.1910567"><ele>482.0</ele><time>2026-04-26T13:13:57.234Z</time></trkpt><trkpt lat="43.1749383" lon="13.1912117"><ele>482.0</ele><time>2026-04-26T13:13:58.232Z</time></trkpt><trkpt lat="43.1748717" lon="13.1913633"><ele>482.0</ele><time>2026-04-26T13:13:59.231Z</time></trkpt><trkpt lat="43.1748033" lon="13.1915133"><ele>482.0</ele><time>2026-04-26T13:14:00.233Z</time></trkpt><trkpt lat="43.1747333" lon="13.191665"><ele>482.0</ele><time>2026-04-26T13:14:01.231Z</time></trkpt><trkpt lat="43.1746633" lon="13.1918117"><ele>482.25</ele><time>2026-04-26T13:14:02.233Z</time></trkpt><trkpt lat="43.1745817" lon="13.1919467"><ele>482.5</ele><time>2026-04-26T13:14:03.231Z</time></trkpt><trkpt lat="43.1744917" lon="13.1920717"><ele>482.75</ele><time>2026-04-26T13:14:04.231Z</time></trkpt><trkpt lat="43.174395" lon="13.192185"><ele>483.0</ele><time>2026-04-26T13:14:05.233Z</time></trkpt><trkpt lat="43.1742917" lon="13.1922883"><ele>481.0</ele><time>2026-04-26T13:14:06.235Z</time></trkpt><trkpt lat="43.1741783" lon="13.1923717"><ele>479.0</ele><time>2026-04-26T13:14:07.232Z</time></trkpt><trkpt lat="43.1740683" lon="13.1924417"><ele>477.0</ele><time>2026-04-26T13:14:08.233Z</time></trkpt><trkpt lat="43.1739717" lon="13.1925067"><ele>475.0</ele><time>2026-04-26T13:14:09.232Z</time></trkpt><trkpt lat="43.1738933" lon="13.1925767"><ele>475.00000000000006</ele><time>2026-04-26T13:14:10.231Z</time></trkpt><trkpt lat="43.1738317" lon="13.192655"><ele>475.0</ele><time>2026-04-26T13:14:11.232Z</time></trkpt><trkpt lat="43.1737967" lon="13.1927283"><ele>475.0</ele><time>2026-04-26T13:14:12.235Z</time></trkpt><trkpt lat="43.1737867" lon="13.192855"><ele>475.0</ele><time>2026-04-26T13:14:14.233Z</time></trkpt><trkpt lat="43.17386" lon="13.192895"><ele>475.00000000000006</ele><time>2026-04-26T13:14:15.234Z</time></trkpt><trkpt lat="43.17393" lon="13.1929267"><ele>475.0</ele><time>2026-04-26T13:14:16.232Z</time></trkpt><trkpt lat="43.1740083" lon="13.19296"><ele>473.0</ele><time>2026-04-26T13:14:17.236Z</time></trkpt><trkpt lat="43.1740983" lon="13.1929883"><ele>471.0</ele><time>2026-04-26T13:14:18.234Z</time></trkpt><trkpt lat="43.174195" lon="13.1930317"><ele>469.0</ele><time>2026-04-26T13:14:19.236Z</time></trkpt><trkpt lat="43.174295" lon="13.1930833"><ele>467.0</ele><time>2026-04-26T13:14:20.234Z</time></trkpt><trkpt lat="43.174405" lon="13.1931333"><ele>465.0</ele><time>2026-04-26T13:14:21.232Z</time></trkpt><trkpt lat="43.1745133" lon="13.1931817"><ele>463.75</ele><time>2026-04-26T13:14:22.232Z</time></trkpt><trkpt lat="43.174635" lon="13.1932283"><ele>462.5</ele><time>2026-04-26T13:14:23.231Z</time></trkpt><trkpt lat="43.1747533" lon="13.1932767"><ele>461.25</ele><time>2026-04-26T13:14:24.234Z</time></trkpt><trkpt lat="43.1748867" lon="13.1933083"><ele>460.0</ele><time>2026-04-26T13:14:25.235Z</time></trkpt><trkpt lat="43.175025" lon="13.19332"><ele>458.25</ele><time>2026-04-26T13:14:26.231Z</time></trkpt><trkpt lat="43.1751683" lon="13.1933033"><ele>456.5</ele><time>2026-04-26T13:14:27.234Z</time></trkpt><trkpt lat="43.17531" lon="13.1932667"><ele>454.75</ele><time>2026-04-26T13:14:28.23Z</time></trkpt><trkpt lat="43.1754483" lon="13.193225"><ele>453.0</ele><time>2026-04-26T13:14:29.231Z</time></trkpt><trkpt lat="43.1755833" lon="13.1931883"><ele>452.0</ele><time>2026-04-26T13:14:30.231Z</time></trkpt><trkpt lat="43.175715" lon="13.1931667"><ele>451.0</ele><time>2026-04-26T13:14:31.229Z</time></trkpt><trkpt lat="43.1758483" lon="13.1931767"><ele>450.0</ele><time>2026-04-26T13:14:32.232Z</time></trkpt><trkpt lat="43.17599" lon="13.1932083"><ele>449.0</ele><time>2026-04-26T13:14:33.232Z</time></trkpt><trkpt lat="43.17613" lon="13.193245"><ele>449.0</ele><time>2026-04-26T13:14:34.233Z</time></trkpt><trkpt lat="43.176275" lon="13.193275"><ele>449.0</ele><time>2026-04-26T13:14:35.232Z</time></trkpt><trkpt lat="43.1764167" lon="13.1932967"><ele>449.0</ele><time>2026-04-26T13:14:36.23Z</time></trkpt><trkpt lat="43.176555" lon="13.1933083"><ele>449.0</ele><time>2026-04-26T13:14:37.234Z</time></trkpt><trkpt lat="43.1767" lon="13.1932917"><ele>447.66666666666663</ele><time>2026-04-26T13:14:38.232Z</time></trkpt><trkpt lat="43.1768483" lon="13.1932467"><ele>446.33333333333337</ele><time>2026-04-26T13:14:39.237Z</time></trkpt><trkpt lat="43.1770017" lon="13.1931933"><ele>445.0</ele><time>2026-04-26T13:14:40.232Z</time></trkpt><trkpt lat="43.177155" lon="13.1931417"><ele>445.0</ele><time>2026-04-26T13:14:41.232Z</time></trkpt><trkpt lat="43.17731" lon="13.1930933"><ele>445.0</ele><time>2026-04-26T13:14:42.234Z</time></trkpt><trkpt lat="43.1774583" lon="13.1930433"><ele>445.0</ele><time>2026-04-26T13:14:43.232Z</time></trkpt><trkpt lat="43.1775983" lon="13.1929817"><ele>441.0</ele><time>2026-04-26T13:14:44.232Z</time></trkpt><trkpt lat="43.1777217" lon="13.1928817"><ele>437.0</ele><time>2026-04-26T13:14:45.234Z</time></trkpt><trkpt lat="43.1778017" lon="13.1927367"><ele>433.0</ele><time>2026-04-26T13:14:46.233Z</time></trkpt><trkpt lat="43.177855" lon="13.1925517"><ele>429.0</ele><time>2026-04-26T13:14:47.231Z</time></trkpt><trkpt lat="43.1778867" lon="13.19234"><ele>428.0</ele><time>2026-04-26T13:14:48.231Z</time></trkpt><trkpt lat="43.1779183" lon="13.1921167"><ele>427.0</ele><time>2026-04-26T13:14:49.231Z</time></trkpt><trkpt lat="43.1779617" lon="13.1918967"><ele>426.0</ele><time>2026-04-26T13:14:50.234Z</time></trkpt><trkpt lat="43.1780283" lon="13.1917033"><ele>426.0</ele><time>2026-04-26T13:14:51.233Z</time></trkpt><trkpt lat="43.1781167" lon="13.1915483"><ele>426.0</ele><time>2026-04-26T13:14:52.232Z</time></trkpt><trkpt lat="43.1782267" lon="13.1914483"><ele>426.0</ele><time>2026-04-26T13:14:53.23Z</time></trkpt><trkpt lat="43.1783533" lon="13.1914"><ele>426.0</ele><time>2026-04-26T13:14:54.232Z</time></trkpt><trkpt lat="43.1784867" lon="13.1913783"><ele>424.25</ele><time>2026-04-26T13:14:55.232Z</time></trkpt><trkpt lat="43.17862" lon="13.19137"><ele>422.5</ele><time>2026-04-26T13:14:56.232Z</time></trkpt><trkpt lat="43.1787517" lon="13.1913983"><ele>420.75</ele><time>2026-04-26T13:14:57.235Z</time></trkpt><trkpt lat="43.1788783" lon="13.191435"><ele>419.0</ele><time>2026-04-26T13:14:58.235Z</time></trkpt><trkpt lat="43.1789933" lon="13.191435"><ele>416.6</ele><time>2026-04-26T13:14:59.231Z</time></trkpt><trkpt lat="43.1790883" lon="13.1913933"><ele>414.2</ele><time>2026-04-26T13:15:00.233Z</time></trkpt><trkpt lat="43.17916" lon="13.1913217"><ele>411.8</ele><time>2026-04-26T13:15:01.231Z</time></trkpt><trkpt lat="43.17922" lon="13.1912167"><ele>409.40000000000003</ele><time>2026-04-26T13:15:02.231Z</time></trkpt><trkpt lat="43.179235" lon="13.1910717"><ele>407.0</ele><time>2026-04-26T13:15:03.231Z</time></trkpt><trkpt lat="43.1792067" lon="13.1909183"><ele>407.0</ele><time>2026-04-26T13:15:04.233Z</time></trkpt><trkpt lat="43.17915" lon="13.19076"><ele>407.0</ele><time>2026-04-26T13:15:05.232Z</time></trkpt><trkpt lat="43.179085" lon="13.1906083"><ele>407.0</ele><time>2026-04-26T13:15:06.231Z</time></trkpt><trkpt lat="43.17902" lon="13.190465"><ele>407.0</ele><time>2026-04-26T13:15:07.231Z</time></trkpt><trkpt lat="43.178975" lon="13.19034"><ele>405.20000000000005</ele><time>2026-04-26T13:15:08.235Z</time></trkpt><trkpt lat="43.1789467" lon="13.19023"><ele>403.4</ele><time>2026-04-26T13:15:09.229Z</time></trkpt><trkpt lat="43.179015" lon="13.1901617"><ele>401.6</ele><time>2026-04-26T13:15:11.234Z</time></trkpt><trkpt lat="43.1791233" lon="13.1902567"><ele>399.79999999999995</ele><time>2026-04-26T13:15:13.232Z</time></trkpt><trkpt lat="43.1792" lon="13.1903717"><ele>398.0</ele><time>2026-04-26T13:15:14.232Z</time></trkpt><trkpt lat="43.1792617" lon="13.19052"><ele>400.25</ele><time>2026-04-26T13:15:15.233Z</time></trkpt><trkpt lat="43.1793167" lon="13.1906917"><ele>402.5</ele><time>2026-04-26T13:15:16.232Z</time></trkpt><trkpt lat="43.179375" lon="13.1908633"><ele>404.75</ele><time>2026-04-26T13:15:17.23Z</time></trkpt><trkpt lat="43.1794533" lon="13.19103"><ele>407.0</ele><time>2026-04-26T13:15:18.232Z</time></trkpt><trkpt lat="43.1795633" lon="13.1911833"><ele>407.0</ele><time>2026-04-26T13:15:19.232Z</time></trkpt><trkpt lat="43.179685" lon="13.1913317"><ele>407.0</ele><time>2026-04-26T13:15:20.231Z</time></trkpt><trkpt lat="43.17981" lon="13.1914583"><ele>407.0</ele><time>2026-04-26T13:15:21.233Z</time></trkpt><trkpt lat="43.1799333" lon="13.1915633"><ele>404.20000000000005</ele><time>2026-04-26T13:15:22.233Z</time></trkpt><trkpt lat="43.1800517" lon="13.1916567"><ele>401.4</ele><time>2026-04-26T13:15:23.235Z</time></trkpt><trkpt lat="43.1801583" lon="13.19172"><ele>398.6</ele><time>2026-04-26T13:15:24.233Z</time></trkpt><trkpt lat="43.1802617" lon="13.1917333"><ele>395.79999999999995</ele><time>2026-04-26T13:15:25.234Z</time></trkpt><trkpt lat="43.180345" lon="13.19169"><ele>393.0</ele><time>2026-04-26T13:15:26.232Z</time></trkpt><trkpt lat="43.180405" lon="13.1916033"><ele>391.0</ele><time>2026-04-26T13:15:27.233Z</time></trkpt><trkpt lat="43.1804117" lon="13.19147"><ele>389.0</ele><time>2026-04-26T13:15:28.231Z</time></trkpt><trkpt lat="43.1803933" lon="13.1913517"><ele>387.0</ele><time>2026-04-26T13:15:29.235Z</time></trkpt><trkpt lat="43.1803517" lon="13.1912117"><ele>385.0</ele><time>2026-04-26T13:15:30.231Z</time></trkpt><trkpt lat="43.1803217" lon="13.1910817"><ele>383.0</ele><time>2026-04-26T13:15:31.235Z</time></trkpt><trkpt lat="43.1803183" lon="13.190935"><ele>383.0</ele><time>2026-04-26T13:15:32.232Z</time></trkpt><trkpt lat="43.18035" lon="13.1908033"><ele>383.0</ele><time>2026-04-26T13:15:33.233Z</time></trkpt><trkpt lat="43.1804267" lon="13.19069"><ele>383.0</ele><time>2026-04-26T13:15:34.233Z</time></trkpt><trkpt lat="43.1805467" lon="13.190605"><ele>383.0</ele><time>2026-04-26T13:15:35.234Z</time></trkpt><trkpt lat="43.1806667" lon="13.1905333"><ele>384.25</ele><time>2026-04-26T13:15:36.233Z</time></trkpt><trkpt lat="43.1807917" lon="13.190485"><ele>385.5</ele><time>2026-04-26T13:15:37.235Z</time></trkpt><trkpt lat="43.1809167" lon="13.1904817"><ele>386.75</ele><time>2026-04-26T13:15:38.233Z</time></trkpt><trkpt lat="43.1810333" lon="13.19055"><ele>388.0</ele><time>2026-04-26T13:15:39.233Z</time></trkpt><trkpt lat="43.181135" lon="13.19069"><ele>388.0</ele><time>2026-04-26T13:15:40.23Z</time></trkpt><trkpt lat="43.18122" lon="13.190905"><ele>388.0</ele><time>2026-04-26T13:15:41.232Z</time></trkpt><trkpt lat="43.1812983" lon="13.1911483"><ele>388.0</ele><time>2026-04-26T13:15:42.234Z</time></trkpt><trkpt lat="43.1813767" lon="13.1913883"><ele>385.6666666666667</ele><time>2026-04-26T13:15:43.235Z</time></trkpt><trkpt lat="43.1814633" lon="13.1916117"><ele>383.33333333333337</ele><time>2026-04-26T13:15:44.235Z</time></trkpt><trkpt lat="43.181545" lon="13.1918183"><ele>381.0</ele><time>2026-04-26T13:15:45.236Z</time></trkpt><trkpt lat="43.1816267" lon="13.1919983"><ele>381.5</ele><time>2026-04-26T13:15:46.233Z</time></trkpt><trkpt lat="43.1817167" lon="13.192155"><ele>382.0</ele><time>2026-04-26T13:15:47.233Z</time></trkpt><trkpt lat="43.1818217" lon="13.1922733"><ele>382.5</ele><time>2026-04-26T13:15:48.23Z</time></trkpt><trkpt lat="43.181945" lon="13.1923333"><ele>383.0</ele><time>2026-04-26T13:15:49.233Z</time></trkpt><trkpt lat="43.18208" lon="13.1923433"><ele>383.0</ele><time>2026-04-26T13:15:50.233Z</time></trkpt><trkpt lat="43.1822167" lon="13.1923433"><ele>383.0</ele><time>2026-04-26T13:15:51.236Z</time></trkpt><trkpt lat="43.182345" lon="13.1923667"><ele>383.0</ele><time>2026-04-26T13:15:52.232Z</time></trkpt><trkpt lat="43.182435" lon="13.1924217"><ele>383.0</ele><time>2026-04-26T13:15:53.234Z</time></trkpt><trkpt lat="43.1824883" lon="13.19249"><ele>383.0</ele><time>2026-04-26T13:15:54.232Z</time></trkpt><trkpt lat="43.18249" lon="13.1926117"><ele>387.2</ele><time>2026-04-26T13:15:55.233Z</time></trkpt><trkpt lat="43.182485" lon="13.1927417"><ele>391.4</ele><time>2026-04-26T13:15:56.233Z</time></trkpt><trkpt lat="43.18249" lon="13.1928633"><ele>395.59999999999997</ele><time>2026-04-26T13:15:57.233Z</time></trkpt><trkpt lat="43.18251" lon="13.1929883"><ele>399.79999999999995</ele><time>2026-04-26T13:15:58.234Z</time></trkpt><trkpt lat="43.1825867" lon="13.19309"><ele>404.0</ele><time>2026-04-26T13:15:59.233Z</time></trkpt><trkpt lat="43.1826733" lon="13.1931667"><ele>401.2</ele><time>2026-04-26T13:16:00.235Z</time></trkpt><trkpt lat="43.1827683" lon="13.193235"><ele>398.4</ele><time>2026-04-26T13:16:01.232Z</time></trkpt><trkpt lat="43.182865" lon="13.1933067"><ele>395.6</ele><time>2026-04-26T13:16:02.235Z</time></trkpt><trkpt lat="43.1829583" lon="13.1933783"><ele>392.8</ele><time>2026-04-26T13:16:03.233Z</time></trkpt><trkpt lat="43.18305" lon="13.1934533"><ele>390.0</ele><time>2026-04-26T13:16:04.232Z</time></trkpt><trkpt lat="43.1831433" lon="13.19352"><ele>393.6</ele><time>2026-04-26T13:16:05.235Z</time></trkpt><trkpt lat="43.18324" lon="13.1935817"><ele>397.2</ele><time>2026-04-26T13:16:06.233Z</time></trkpt><trkpt lat="43.183335" lon="13.1936467"><ele>400.79999999999995</ele><time>2026-04-26T13:16:07.232Z</time></trkpt><trkpt lat="43.1834267" lon="13.19371"><ele>404.4</ele><time>2026-04-26T13:16:08.231Z</time></trkpt><trkpt lat="43.1835167" lon="13.1937767"><ele>408.0</ele><time>2026-04-26T13:16:09.236Z</time></trkpt><trkpt lat="43.1836033" lon="13.19384"><ele>408.0</ele><time>2026-04-26T13:16:10.233Z</time></trkpt><trkpt lat="43.1836867" lon="13.1939083"><ele>408.0</ele><time>2026-04-26T13:16:11.232Z</time></trkpt><trkpt lat="43.1837767" lon="13.1939783"><ele>408.0</ele><time>2026-04-26T13:16:12.232Z</time></trkpt><trkpt lat="43.1838733" lon="13.1940467"><ele>408.0</ele><time>2026-04-26T13:16:13.231Z</time></trkpt><trkpt lat="43.1839733" lon="13.194125"><ele>408.0</ele><time>2026-04-26T13:16:14.233Z</time></trkpt><trkpt lat="43.1840783" lon="13.194205"><ele>408.25</ele><time>2026-04-26T13:16:15.233Z</time></trkpt><trkpt lat="43.1841833" lon="13.19429"><ele>408.5</ele><time>2026-04-26T13:16:16.233Z</time></trkpt><trkpt lat="43.1842883" lon="13.19438"><ele>408.75</ele><time>2026-04-26T13:16:17.233Z</time></trkpt><trkpt lat="43.184395" lon="13.1944767"><ele>409.0</ele><time>2026-04-26T13:16:18.235Z</time></trkpt><trkpt lat="43.1845083" lon="13.1945833"><ele>409.0</ele><time>2026-04-26T13:16:19.233Z</time></trkpt><trkpt lat="43.18463" lon="13.1946967"><ele>409.0</ele><time>2026-04-26T13:16:20.234Z</time></trkpt><trkpt lat="43.1847533" lon="13.19481"><ele>409.0</ele><time>2026-04-26T13:16:21.233Z</time></trkpt><trkpt lat="43.1848833" lon="13.1949217"><ele>409.0</ele><time>2026-04-26T13:16:22.233Z</time></trkpt><trkpt lat="43.18503" lon="13.195025"><ele>408.6666666666667</ele><time>2026-04-26T13:16:23.233Z</time></trkpt><trkpt lat="43.1851967" lon="13.1951133"><ele>408.33333333333337</ele><time>2026-04-26T13:16:24.232Z</time></trkpt><trkpt lat="43.1853617" lon="13.1951933"><ele>408.0</ele><time>2026-04-26T13:16:25.235Z</time></trkpt><trkpt lat="43.1855267" lon="13.1952567"><ele>411.0</ele><time>2026-04-26T13:16:26.234Z</time></trkpt><trkpt lat="43.1856883" lon="13.195305"><ele>414.0</ele><time>2026-04-26T13:16:27.237Z</time></trkpt><trkpt lat="43.1858467" lon="13.1953317"><ele>417.0</ele><time>2026-04-26T13:16:28.236Z</time></trkpt><trkpt lat="43.18599" lon="13.1953517"><ele>417.0</ele><time>2026-04-26T13:16:29.232Z</time></trkpt><trkpt lat="43.1861233" lon="13.1953617"><ele>417.0</ele><time>2026-04-26T13:16:30.234Z</time></trkpt><trkpt lat="43.1862417" lon="13.1953533"><ele>417.0</ele><time>2026-04-26T13:16:31.233Z</time></trkpt><trkpt lat="43.1863567" lon="13.195315"><ele>417.0</ele><time>2026-04-26T13:16:32.233Z</time></trkpt><trkpt lat="43.1864717" lon="13.1952317"><ele>417.33333333333337</ele><time>2026-04-26T13:16:33.234Z</time></trkpt><trkpt lat="43.1865733" lon="13.1950883"><ele>417.6666666666667</ele><time>2026-04-26T13:16:34.234Z</time></trkpt><trkpt lat="43.1866783" lon="13.1949167"><ele>418.0</ele><time>2026-04-26T13:16:35.233Z</time></trkpt><trkpt lat="43.1867967" lon="13.1947417"><ele>418.0</ele><time>2026-04-26T13:16:36.233Z</time></trkpt><trkpt lat="43.186925" lon="13.194575"><ele>418.0</ele><time>2026-04-26T13:16:37.233Z</time></trkpt><trkpt lat="43.18706" lon="13.1944117"><ele>418.0</ele><time>2026-04-26T13:16:38.234Z</time></trkpt><trkpt lat="43.1871967" lon="13.1942583"><ele>418.0</ele><time>2026-04-26T13:16:39.233Z</time></trkpt><trkpt lat="43.1873383" lon="13.1941133"><ele>418.0</ele><time>2026-04-26T13:16:40.233Z</time></trkpt><trkpt lat="43.187475" lon="13.1939817"><ele>418.0</ele><time>2026-04-26T13:16:41.234Z</time></trkpt><trkpt lat="43.1876117" lon="13.1938567"><ele>417.25</ele><time>2026-04-26T13:16:42.233Z</time></trkpt><trkpt lat="43.1877467" lon="13.19375"><ele>416.5</ele><time>2026-04-26T13:16:43.235Z</time></trkpt><trkpt lat="43.18787" lon="13.19366"><ele>415.75</ele><time>2026-04-26T13:16:44.234Z</time></trkpt><trkpt lat="43.1879917" lon="13.1935933"><ele>415.0</ele><time>2026-04-26T13:16:45.232Z</time></trkpt><trkpt lat="43.1881117" lon="13.1935783"><ele>413.75</ele><time>2026-04-26T13:16:46.23Z</time></trkpt><trkpt lat="43.1882267" lon="13.1936233"><ele>412.5</ele><time>2026-04-26T13:16:47.232Z</time></trkpt><trkpt lat="43.188315" lon="13.1937267"><ele>411.25</ele><time>2026-04-26T13:16:48.231Z</time></trkpt><trkpt lat="43.188355" lon="13.19387"><ele>410.0</ele><time>2026-04-26T13:16:49.231Z</time></trkpt><trkpt lat="43.188365" lon="13.194045"><ele>408.66666666666663</ele><time>2026-04-26T13:16:50.234Z</time></trkpt><trkpt lat="43.1883317" lon="13.1942633"><ele>407.33333333333337</ele><time>2026-04-26T13:16:51.234Z</time></trkpt><trkpt lat="43.188285" lon="13.1944983"><ele>406.0</ele><time>2026-04-26T13:16:52.235Z</time></trkpt><trkpt lat="43.18824" lon="13.194745"><ele>407.0</ele><time>2026-04-26T13:16:53.233Z</time></trkpt><trkpt lat="43.1881983" lon="13.1949933"><ele>408.0</ele><time>2026-04-26T13:16:54.235Z</time></trkpt><trkpt lat="43.18815" lon="13.1952417"><ele>409.0</ele><time>2026-04-26T13:16:55.235Z</time></trkpt><trkpt lat="43.18811" lon="13.1954783"><ele>404.0</ele><time>2026-04-26T13:16:56.233Z</time></trkpt><trkpt lat="43.18806" lon="13.19571"><ele>399.0</ele><time>2026-04-26T13:16:57.235Z</time></trkpt><trkpt lat="43.1879933" lon="13.1959283"><ele>394.0</ele><time>2026-04-26T13:16:58.234Z</time></trkpt><trkpt lat="43.1879283" lon="13.1961483"><ele>394.0</ele><time>2026-04-26T13:16:59.232Z</time></trkpt><trkpt lat="43.1878667" lon="13.1963767"><ele>394.0</ele><time>2026-04-26T13:17:00.233Z</time></trkpt><trkpt lat="43.1878017" lon="13.1966117"><ele>394.0</ele><time>2026-04-26T13:17:01.235Z</time></trkpt><trkpt lat="43.18774" lon="13.19684"><ele>396.6666666666667</ele><time>2026-04-26T13:17:02.235Z</time></trkpt><trkpt lat="43.187685" lon="13.1970583"><ele>399.33333333333337</ele><time>2026-04-26T13:17:03.235Z</time></trkpt><trkpt lat="43.18765" lon="13.1972667"><ele>402.0</ele><time>2026-04-26T13:17:04.238Z</time></trkpt><trkpt lat="43.1876367" lon="13.1974717"><ele>402.25</ele><time>2026-04-26T13:17:05.235Z</time></trkpt><trkpt lat="43.1876267" lon="13.1976817"><ele>402.5</ele><time>2026-04-26T13:17:06.232Z</time></trkpt><trkpt lat="43.1876133" lon="13.197885"><ele>402.75</ele><time>2026-04-26T13:17:07.231Z</time></trkpt><trkpt lat="43.1875817" lon="13.19806"><ele>403.0</ele><time>2026-04-26T13:17:08.233Z</time></trkpt><trkpt lat="43.1875417" lon="13.1982117"><ele>403.00000000000006</ele><time>2026-04-26T13:17:09.235Z</time></trkpt><trkpt lat="43.18751" lon="13.1983433"><ele>403.0</ele><time>2026-04-26T13:17:10.234Z</time></trkpt><trkpt lat="43.1875033" lon="13.1984583"><ele>403.0</ele><time>2026-04-26T13:17:11.231Z</time></trkpt><trkpt lat="43.1875117" lon="13.19856"><ele>403.0</ele><time>2026-04-26T13:17:12.234Z</time></trkpt><trkpt lat="43.1875433" lon="13.1986383"><ele>403.00000000000006</ele><time>2026-04-26T13:17:13.237Z</time></trkpt><trkpt lat="43.1876267" lon="13.1986817"><ele>403.0</ele><time>2026-04-26T13:17:14.23Z</time></trkpt><trkpt lat="43.1877033" lon="13.1987133"><ele>403.0</ele><time>2026-04-26T13:17:15.233Z</time></trkpt><trkpt lat="43.187805" lon="13.198735"><ele>403.0</ele><time>2026-04-26T13:17:16.236Z</time></trkpt><trkpt lat="43.1879167" lon="13.198755"><ele>403.0</ele><time>2026-04-26T13:17:17.23Z</time></trkpt><trkpt lat="43.1880533" lon="13.198765"><ele>403.0</ele><time>2026-04-26T13:17:18.236Z</time></trkpt><trkpt lat="43.18819" lon="13.1987683"><ele>404.59999999999997</ele><time>2026-04-26T13:17:19.232Z</time></trkpt><trkpt lat="43.188325" lon="13.19878"><ele>406.2</ele><time>2026-04-26T13:17:20.235Z</time></trkpt><trkpt lat="43.18844" lon="13.198825"><ele>407.8</ele><time>2026-04-26T13:17:21.234Z</time></trkpt><trkpt lat="43.1885183" lon="13.19891"><ele>409.4</ele><time>2026-04-26T13:17:22.235Z</time></trkpt><trkpt lat="43.1885617" lon="13.1990233"><ele>411.0</ele><time>2026-04-26T13:17:23.233Z</time></trkpt><trkpt lat="43.18856" lon="13.19917"><ele>411.0</ele><time>2026-04-26T13:17:24.233Z</time></trkpt><trkpt lat="43.1885217" lon="13.19935"><ele>411.0</ele><time>2026-04-26T13:17:25.234Z</time></trkpt><trkpt lat="43.1884733" lon="13.199555"><ele>411.0</ele><time>2026-04-26T13:17:26.238Z</time></trkpt><trkpt lat="43.18843" lon="13.1997633"><ele>410.75</ele><time>2026-04-26T13:17:27.236Z</time></trkpt><trkpt lat="43.1883867" lon="13.199965"><ele>410.5</ele><time>2026-04-26T13:17:28.234Z</time></trkpt><trkpt lat="43.1883667" lon="13.2001617"><ele>410.25</ele><time>2026-04-26T13:17:29.235Z</time></trkpt><trkpt lat="43.1883633" lon="13.2003617"><ele>410.0</ele><time>2026-04-26T13:17:30.233Z</time></trkpt><trkpt lat="43.1883783" lon="13.2005583"><ele>409.5</ele><time>2026-04-26T13:17:31.233Z</time></trkpt><trkpt lat="43.1884217" lon="13.200735"><ele>409.0</ele><time>2026-04-26T13:17:32.231Z</time></trkpt><trkpt lat="43.1885" lon="13.2008883"><ele>408.5</ele><time>2026-04-26T13:17:33.234Z</time></trkpt><trkpt lat="43.1886" lon="13.200995"><ele>408.0</ele><time>2026-04-26T13:17:34.232Z</time></trkpt><trkpt lat="43.1887167" lon="13.201055"><ele>408.0</ele><time>2026-04-26T13:17:35.234Z</time></trkpt><trkpt lat="43.1888517" lon="13.2010567"><ele>408.0</ele><time>2026-04-26T13:17:36.233Z</time></trkpt><trkpt lat="43.18899" lon="13.2010183"><ele>408.0</ele><time>2026-04-26T13:17:37.234Z</time></trkpt><trkpt lat="43.1891233" lon="13.2009567"><ele>408.0</ele><time>2026-04-26T13:17:38.233Z</time></trkpt><trkpt lat="43.18926" lon="13.2008767"><ele>409.75</ele><time>2026-04-26T13:17:39.236Z</time></trkpt><trkpt lat="43.189395" lon="13.2008"><ele>411.5</ele><time>2026-04-26T13:17:40.232Z</time></trkpt><trkpt lat="43.1895367" lon="13.2007483"><ele>413.25</ele><time>2026-04-26T13:17:41.236Z</time></trkpt><trkpt lat="43.1896867" lon="13.2007217"><ele>415.0</ele><time>2026-04-26T13:17:42.235Z</time></trkpt><trkpt lat="43.1898417" lon="13.2007067"><ele>413.6666666666667</ele><time>2026-04-26T13:17:43.233Z</time></trkpt><trkpt lat="43.1899917" lon="13.2006817"><ele>412.33333333333337</ele><time>2026-04-26T13:17:44.23Z</time></trkpt><trkpt lat="43.1901333" lon="13.2006133"><ele>411.0</ele><time>2026-04-26T13:17:45.234Z</time></trkpt><trkpt lat="43.1902717" lon="13.2005067"><ele>412.0</ele><time>2026-04-26T13:17:46.236Z</time></trkpt><trkpt lat="43.1904117" lon="13.2003733"><ele>413.0</ele><time>2026-04-26T13:17:47.235Z</time></trkpt><trkpt lat="43.19056" lon="13.2002267"><ele>414.0</ele><time>2026-04-26T13:17:48.234Z</time></trkpt><trkpt lat="43.190715" lon="13.20007"><ele>414.0</ele><time>2026-04-26T13:17:49.233Z</time></trkpt><trkpt lat="43.1908733" lon="13.199915"><ele>414.0</ele><time>2026-04-26T13:17:50.232Z</time></trkpt><trkpt lat="43.191035" lon="13.1997717"><ele>414.0</ele><time>2026-04-26T13:17:51.236Z</time></trkpt><trkpt lat="43.1911967" lon="13.1996317"><ele>414.33333333333337</ele><time>2026-04-26T13:17:52.236Z</time></trkpt><trkpt lat="43.1913617" lon="13.1995"><ele>414.6666666666667</ele><time>2026-04-26T13:17:53.234Z</time></trkpt><trkpt lat="43.1915233" lon="13.1993767"><ele>415.0</ele><time>2026-04-26T13:17:54.233Z</time></trkpt><trkpt lat="43.191675" lon="13.1992683"><ele>415.0</ele><time>2026-04-26T13:17:55.23Z</time></trkpt><trkpt lat="43.1918183" lon="13.199175"><ele>415.0</ele><time>2026-04-26T13:17:56.236Z</time></trkpt><trkpt lat="43.1919383" lon="13.1990733"><ele>415.0</ele><time>2026-04-26T13:17:57.238Z</time></trkpt><trkpt lat="43.1920333" lon="13.19894"><ele>415.0</ele><time>2026-04-26T13:17:58.232Z</time></trkpt><trkpt lat="43.192125" lon="13.1987733"><ele>411.6666666666667</ele><time>2026-04-26T13:17:59.232Z</time></trkpt><trkpt lat="43.1922217" lon="13.1986017"><ele>408.33333333333337</ele><time>2026-04-26T13:18:00.232Z</time></trkpt><trkpt lat="43.19233" lon="13.1984367"><ele>405.0</ele><time>2026-04-26T13:18:01.235Z</time></trkpt><trkpt lat="43.1924283" lon="13.19827"><ele>407.25</ele><time>2026-04-26T13:18:02.233Z</time></trkpt><trkpt lat="43.192515" lon="13.1981067"><ele>409.5</ele><time>2026-04-26T13:18:03.233Z</time></trkpt><trkpt lat="43.1925933" lon="13.197945"><ele>411.75</ele><time>2026-04-26T13:18:04.232Z</time></trkpt><trkpt lat="43.19266" lon="13.19778"><ele>414.0</ele><time>2026-04-26T13:18:05.231Z</time></trkpt><trkpt lat="43.1927283" lon="13.1976283"><ele>414.0</ele><time>2026-04-26T13:18:06.234Z</time></trkpt><trkpt lat="43.1928083" lon="13.1975"><ele>414.0</ele><time>2026-04-26T13:18:07.233Z</time></trkpt><trkpt lat="43.1929017" lon="13.1973917"><ele>414.0</ele><time>2026-04-26T13:18:08.234Z</time></trkpt><trkpt lat="43.193005" lon="13.1972917"><ele>414.0</ele><time>2026-04-26T13:18:09.235Z</time></trkpt><trkpt lat="43.19311" lon="13.197195"><ele>413.4</ele><time>2026-04-26T13:18:10.233Z</time></trkpt><trkpt lat="43.1932067" lon="13.1971033"><ele>412.79999999999995</ele><time>2026-04-26T13:18:11.232Z</time></trkpt><trkpt lat="43.1932967" lon="13.19702"><ele>412.20000000000005</ele><time>2026-04-26T13:18:12.234Z</time></trkpt><trkpt lat="43.19337" lon="13.1969467"><ele>411.6</ele><time>2026-04-26T13:18:13.234Z</time></trkpt><trkpt lat="43.193435" lon="13.1968917"><ele>411.0</ele><time>2026-04-26T13:18:14.234Z</time></trkpt><trkpt lat="43.193505" lon="13.1968517"><ele>411.0</ele><time>2026-04-26T13:18:15.236Z</time></trkpt><trkpt lat="43.19358" lon="13.1968467"><ele>411.0</ele><time>2026-04-26T13:18:16.231Z</time></trkpt><trkpt lat="43.1936533" lon="13.1968633"><ele>411.0</ele><time>2026-04-26T13:18:17.231Z</time></trkpt><trkpt lat="43.1937133" lon="13.1969117"><ele>411.0</ele><time>2026-04-26T13:18:18.235Z</time></trkpt><trkpt lat="43.1937567" lon="13.1969767"><ele>411.0</ele><time>2026-04-26T13:18:19.232Z</time></trkpt><trkpt lat="43.1937867" lon="13.1970567"><ele>411.0</ele><time>2026-04-26T13:18:20.233Z</time></trkpt><trkpt lat="43.1937883" lon="13.1971467"><ele>411.0</ele><time>2026-04-26T13:18:21.239Z</time></trkpt><trkpt lat="43.19377" lon="13.1972667"><ele>409.6</ele><time>2026-04-26T13:18:22.232Z</time></trkpt><trkpt lat="43.1937567" lon="13.1973933"><ele>408.20000000000005</ele><time>2026-04-26T13:18:23.234Z</time></trkpt><trkpt lat="43.1937517" lon="13.19751"><ele>406.79999999999995</ele><time>2026-04-26T13:18:24.234Z</time></trkpt><trkpt lat="43.1937417" lon="13.1976533"><ele>405.4</ele><time>2026-04-26T13:18:25.232Z</time></trkpt><trkpt lat="43.1937483" lon="13.1977817"><ele>404.0</ele><time>2026-04-26T13:18:26.233Z</time></trkpt><trkpt lat="43.1937533" lon="13.197915"><ele>404.0</ele><time>2026-04-26T13:18:27.233Z</time></trkpt><trkpt lat="43.1937383" lon="13.198055"><ele>404.0</ele><time>2026-04-26T13:18:28.231Z</time></trkpt><trkpt lat="43.1937017" lon="13.19818"><ele>404.0</ele><time>2026-04-26T13:18:29.233Z</time></trkpt><trkpt lat="43.1936467" lon="13.1982867"><ele>404.0</ele><time>2026-04-26T13:18:30.239Z</time></trkpt><trkpt lat="43.1936017" lon="13.198405"><ele>404.0</ele><time>2026-04-26T13:18:31.232Z</time></trkpt><trkpt lat="43.19356" lon="13.1985367"><ele>403.25</ele><time>2026-04-26T13:18:32.237Z</time></trkpt><trkpt lat="43.1935467" lon="13.1986817"><ele>402.5</ele><time>2026-04-26T13:18:33.236Z</time></trkpt><trkpt lat="43.1935683" lon="13.1988483"><ele>401.75</ele><time>2026-04-26T13:18:34.233Z</time></trkpt><trkpt lat="43.193615" lon="13.1990367"><ele>401.0</ele><time>2026-04-26T13:18:35.232Z</time></trkpt><trkpt lat="43.1936983" lon="13.199205"><ele>400.75</ele><time>2026-04-26T13:18:36.232Z</time></trkpt><trkpt lat="43.1937767" lon="13.1993467"><ele>400.5</ele><time>2026-04-26T13:18:37.233Z</time></trkpt><trkpt lat="43.193855" lon="13.1994683"><ele>400.25</ele><time>2026-04-26T13:18:38.233Z</time></trkpt><trkpt lat="43.1939517" lon="13.1995783"><ele>400.0</ele><time>2026-04-26T13:18:39.235Z</time></trkpt><trkpt lat="43.1940817" lon="13.1996567"><ele>407.0</ele><time>2026-04-26T13:18:40.235Z</time></trkpt><trkpt lat="43.19424" lon="13.1997083"><ele>414.0</ele><time>2026-04-26T13:18:41.237Z</time></trkpt><trkpt lat="43.1944183" lon="13.1997367"><ele>421.0</ele><time>2026-04-26T13:18:42.236Z</time></trkpt><trkpt lat="43.1945917" lon="13.1997483"><ele>421.0</ele><time>2026-04-26T13:18:43.235Z</time></trkpt><trkpt lat="43.1947617" lon="13.1997517"><ele>421.0</ele><time>2026-04-26T13:18:44.234Z</time></trkpt><trkpt lat="43.1949333" lon="13.199755"><ele>421.0</ele><time>2026-04-26T13:18:45.235Z</time></trkpt><trkpt lat="43.1951133" lon="13.19976"><ele>422.0</ele><time>2026-04-26T13:18:46.235Z</time></trkpt><trkpt lat="43.195305" lon="13.1997767"><ele>423.0</ele><time>2026-04-26T13:18:47.235Z</time></trkpt><trkpt lat="43.1954967" lon="13.1998033"><ele>424.0</ele><time>2026-04-26T13:18:48.237Z</time></trkpt><trkpt lat="43.1956783" lon="13.199825"><ele>425.33333333333337</ele><time>2026-04-26T13:18:49.235Z</time></trkpt><trkpt lat="43.19585" lon="13.1998267"><ele>426.66666666666663</ele><time>2026-04-26T13:18:50.233Z</time></trkpt><trkpt lat="43.1960317" lon="13.1997967"><ele>428.0</ele><time>2026-04-26T13:18:51.233Z</time></trkpt><trkpt lat="43.1962117" lon="13.1997367"><ele>428.0</ele><time>2026-04-26T13:18:52.233Z</time></trkpt><trkpt lat="43.1963783" lon="13.19967"><ele>428.0</ele><time>2026-04-26T13:18:53.234Z</time></trkpt><trkpt lat="43.1965283" lon="13.1996033"><ele>428.0</ele><time>2026-04-26T13:18:54.232Z</time></trkpt><trkpt lat="43.1966617" lon="13.1995133"><ele>428.3333333333333</ele><time>2026-04-26T13:18:55.236Z</time></trkpt><trkpt lat="43.1967817" lon="13.1993667"><ele>428.66666666666663</ele><time>2026-04-26T13:18:56.236Z</time></trkpt><trkpt lat="43.1968967" lon="13.1991783"><ele>429.0</ele><time>2026-04-26T13:18:57.235Z</time></trkpt><trkpt lat="43.1970317" lon="13.1989817"><ele>429.0</ele><time>2026-04-26T13:18:58.235Z</time></trkpt><trkpt lat="43.1971983" lon="13.1987983"><ele>429.0</ele><time>2026-04-26T13:18:59.235Z</time></trkpt><trkpt lat="43.1973683" lon="13.1986067"><ele>429.0</ele><time>2026-04-26T13:19:00.231Z</time></trkpt><trkpt lat="43.1975217" lon="13.1983933"><ele>429.0</ele><time>2026-04-26T13:19:01.237Z</time></trkpt><trkpt lat="43.19767" lon="13.1981933"><ele>429.0</ele><time>2026-04-26T13:19:02.234Z</time></trkpt><trkpt lat="43.1978233" lon="13.19803"><ele>429.0</ele><time>2026-04-26T13:19:03.233Z</time></trkpt><trkpt lat="43.197975" lon="13.1979"><ele>428.5</ele><time>2026-04-26T13:19:04.232Z</time></trkpt><trkpt lat="43.1981183" lon="13.1977967"><ele>428.0</ele><time>2026-04-26T13:19:05.233Z</time></trkpt><trkpt lat="43.1982383" lon="13.1976883"><ele>427.5</ele><time>2026-04-26T13:19:06.233Z</time></trkpt><trkpt lat="43.1983333" lon="13.1975483"><ele>427.0</ele><time>2026-04-26T13:19:07.23Z</time></trkpt><trkpt lat="43.1983867" lon="13.1973667"><ele>429.33333333333337</ele><time>2026-04-26T13:19:08.231Z</time></trkpt><trkpt lat="43.1984367" lon="13.1971517"><ele>431.66666666666663</ele><time>2026-04-26T13:19:09.236Z</time></trkpt><trkpt lat="43.198495" lon="13.1969183"><ele>434.0</ele><time>2026-04-26T13:19:10.234Z</time></trkpt><trkpt lat="43.198555" lon="13.1966867"><ele>436.0</ele><time>2026-04-26T13:19:11.234Z</time></trkpt><trkpt lat="43.1986217" lon="13.1964767"><ele>438.0</ele><time>2026-04-26T13:19:12.231Z</time></trkpt><trkpt lat="43.1987" lon="13.1963067"><ele>440.0</ele><time>2026-04-26T13:19:13.234Z</time></trkpt><trkpt lat="43.1988" lon="13.1961783"><ele>440.0</ele><time>2026-04-26T13:19:14.231Z</time></trkpt><trkpt lat="43.198925" lon="13.1960867"><ele>440.0</ele><time>2026-04-26T13:19:15.232Z</time></trkpt><trkpt lat="43.1990717" lon="13.1960283"><ele>440.0</ele><time>2026-04-26T13:19:16.231Z</time></trkpt><trkpt lat="43.1992117" lon="13.19597"><ele>440.0</ele><time>2026-04-26T13:19:17.231Z</time></trkpt><trkpt lat="43.1993383" lon="13.195895"><ele>439.25</ele><time>2026-04-26T13:19:18.235Z</time></trkpt><trkpt lat="43.1994433" lon="13.1957833"><ele>438.5</ele><time>2026-04-26T13:19:19.233Z</time></trkpt><trkpt lat="43.19953" lon="13.1956417"><ele>437.75</ele><time>2026-04-26T13:19:20.23Z</time></trkpt><trkpt lat="43.1995933" lon="13.1954817"><ele>437.0</ele><time>2026-04-26T13:19:21.233Z</time></trkpt><trkpt lat="43.1996433" lon="13.195325"><ele>437.0</ele><time>2026-04-26T13:19:22.233Z</time></trkpt><trkpt lat="43.1996783" lon="13.195175"><ele>437.00000000000006</ele><time>2026-04-26T13:19:23.232Z</time></trkpt><trkpt lat="43.1996933" lon="13.19503"><ele>437.00000000000006</ele><time>2026-04-26T13:19:24.232Z</time></trkpt><trkpt lat="43.19969" lon="13.1948867"><ele>437.0</ele><time>2026-04-26T13:19:25.233Z</time></trkpt><trkpt lat="43.1996733" lon="13.194745"><ele>437.0</ele><time>2026-04-26T13:19:26.235Z</time></trkpt><trkpt lat="43.1996533" lon="13.1946017"><ele>436.6</ele><time>2026-04-26T13:19:27.257Z</time></trkpt><trkpt lat="43.199625" lon="13.194455"><ele>436.20000000000005</ele><time>2026-04-26T13:19:28.235Z</time></trkpt><trkpt lat="43.1995933" lon="13.1943067"><ele>435.8</ele><time>2026-04-26T13:19:29.233Z</time></trkpt><trkpt lat="43.1995617" lon="13.1941583"><ele>435.4</ele><time>2026-04-26T13:19:30.236Z</time></trkpt><trkpt lat="43.1995267" lon="13.1940117"><ele>435.0</ele><time>2026-04-26T13:19:31.233Z</time></trkpt><trkpt lat="43.19949" lon="13.1938733"><ele>432.2</ele><time>2026-04-26T13:19:32.236Z</time></trkpt><trkpt lat="43.1994467" lon="13.1937483"><ele>429.4</ele><time>2026-04-26T13:19:33.235Z</time></trkpt><trkpt lat="43.1993933" lon="13.1936417"><ele>426.6</ele><time>2026-04-26T13:19:34.232Z</time></trkpt><trkpt lat="43.1993233" lon="13.19356"><ele>423.8</ele><time>2026-04-26T13:19:35.232Z</time></trkpt><trkpt lat="43.1992383" lon="13.1934967"><ele>421.0</ele><time>2026-04-26T13:19:36.235Z</time></trkpt><trkpt lat="43.199145" lon="13.1934483"><ele>421.0</ele><time>2026-04-26T13:19:37.234Z</time></trkpt><trkpt lat="43.1990467" lon="13.1934083"><ele>421.0</ele><time>2026-04-26T13:19:38.232Z</time></trkpt><trkpt lat="43.1989433" lon="13.1933917"><ele>421.0</ele><time>2026-04-26T13:19:39.234Z</time></trkpt><trkpt lat="43.1988417" lon="13.193375"><ele>421.0</ele><time>2026-04-26T13:19:40.231Z</time></trkpt><trkpt lat="43.1987433" lon="13.1933533"><ele>421.0</ele><time>2026-04-26T13:19:41.235Z</time></trkpt><trkpt lat="43.1986483" lon="13.1933183"><ele>422.0</ele><time>2026-04-26T13:19:42.235Z</time></trkpt><trkpt lat="43.1985633" lon="13.1932717"><ele>423.0</ele><time>2026-04-26T13:19:43.234Z</time></trkpt><trkpt lat="43.19849" lon="13.1932"><ele>424.0</ele><time>2026-04-26T13:19:44.233Z</time></trkpt><trkpt lat="43.1984333" lon="13.1931033"><ele>425.0</ele><time>2026-04-26T13:19:45.235Z</time></trkpt><trkpt lat="43.1983883" lon="13.1929933"><ele>426.0</ele><time>2026-04-26T13:19:46.232Z</time></trkpt><trkpt lat="43.1983833" lon="13.1928733"><ele>426.0</ele><time>2026-04-26T13:19:47.237Z</time></trkpt><trkpt lat="43.1983983" lon="13.1927483"><ele>426.0</ele><time>2026-04-26T13:19:48.234Z</time></trkpt><trkpt lat="43.1984433" lon="13.1926367"><ele>426.0</ele><time>2026-04-26T13:19:49.233Z</time></trkpt><trkpt lat="43.1984983" lon="13.192525"><ele>426.0</ele><time>2026-04-26T13:19:50.232Z</time></trkpt><trkpt lat="43.1985583" lon="13.19241"><ele>426.0</ele><time>2026-04-26T13:19:51.234Z</time></trkpt><trkpt lat="43.1986217" lon="13.1922917"><ele>427.5</ele><time>2026-04-26T13:19:52.233Z</time></trkpt><trkpt lat="43.1986817" lon="13.1921717"><ele>429.0</ele><time>2026-04-26T13:19:53.234Z</time></trkpt><trkpt lat="43.1987417" lon="13.192045"><ele>430.5</ele><time>2026-04-26T13:19:54.233Z</time></trkpt><trkpt lat="43.1988033" lon="13.19191"><ele>432.0</ele><time>2026-04-26T13:19:55.231Z</time></trkpt><trkpt lat="43.1988633" lon="13.1917717"><ele>432.0</ele><time>2026-04-26T13:19:56.232Z</time></trkpt><trkpt lat="43.19892" lon="13.1916233"><ele>432.0</ele><time>2026-04-26T13:19:57.232Z</time></trkpt><trkpt lat="43.1989667" lon="13.1914667"><ele>432.0</ele><time>2026-04-26T13:19:58.234Z</time></trkpt><trkpt lat="43.1989867" lon="13.1912883"><ele>432.0</ele><time>2026-04-26T13:19:59.233Z</time></trkpt><trkpt lat="43.1989767" lon="13.1910783"><ele>431.0</ele><time>2026-04-26T13:20:00.234Z</time></trkpt><trkpt lat="43.1989533" lon="13.1908633"><ele>430.0</ele><time>2026-04-26T13:20:01.232Z</time></trkpt><trkpt lat="43.19894" lon="13.1906617"><ele>429.0</ele><time>2026-04-26T13:20:02.234Z</time></trkpt><trkpt lat="43.198945" lon="13.1904633"><ele>427.5</ele><time>2026-04-26T13:20:03.233Z</time></trkpt><trkpt lat="43.1989783" lon="13.1902867"><ele>426.0</ele><time>2026-04-26T13:20:04.236Z</time></trkpt><trkpt lat="43.199025" lon="13.1901267"><ele>424.5</ele><time>2026-04-26T13:20:05.232Z</time></trkpt><trkpt lat="43.1990567" lon="13.189975"><ele>423.0</ele><time>2026-04-26T13:20:06.232Z</time></trkpt><trkpt lat="43.1990633" lon="13.1898167"><ele>421.75</ele><time>2026-04-26T13:20:07.233Z</time></trkpt><trkpt lat="43.19904" lon="13.1896433"><ele>420.5</ele><time>2026-04-26T13:20:08.231Z</time></trkpt><trkpt lat="43.1989883" lon="13.189475"><ele>419.25</ele><time>2026-04-26T13:20:09.235Z</time></trkpt><trkpt lat="43.1989383" lon="13.189305"><ele>418.0</ele><time>2026-04-26T13:20:10.233Z</time></trkpt><trkpt lat="43.1989233" lon="13.1891117"><ele>418.25</ele><time>2026-04-26T13:20:11.235Z</time></trkpt><trkpt lat="43.1989367" lon="13.1889167"><ele>418.5</ele><time>2026-04-26T13:20:12.237Z</time></trkpt><trkpt lat="43.1989717" lon="13.1887217"><ele>418.75</ele><time>2026-04-26T13:20:13.23Z</time></trkpt><trkpt lat="43.1990183" lon="13.1885317"><ele>419.0</ele><time>2026-04-26T13:20:14.233Z</time></trkpt><trkpt lat="43.1990733" lon="13.1883483"><ele>417.5</ele><time>2026-04-26T13:20:15.232Z</time></trkpt><trkpt lat="43.1991417" lon="13.18819"><ele>416.0</ele><time>2026-04-26T13:20:16.231Z</time></trkpt><trkpt lat="43.199235" lon="13.1880633"><ele>414.5</ele><time>2026-04-26T13:20:17.23Z</time></trkpt><trkpt lat="43.1993533" lon="13.1879717"><ele>413.0</ele><time>2026-04-26T13:20:18.244Z</time></trkpt><trkpt lat="43.19949" lon="13.1879133"><ele>413.0</ele><time>2026-04-26T13:20:19.231Z</time></trkpt><trkpt lat="43.1996433" lon="13.187885"><ele>413.0</ele><time>2026-04-26T13:20:20.231Z</time></trkpt><trkpt lat="43.1998133" lon="13.187895"><ele>413.0</ele><time>2026-04-26T13:20:21.232Z</time></trkpt><trkpt lat="43.19999" lon="13.1879267"><ele>411.3333333333333</ele><time>2026-04-26T13:20:22.231Z</time></trkpt><trkpt lat="43.20016" lon="13.1879717"><ele>409.66666666666663</ele><time>2026-04-26T13:20:23.23Z</time></trkpt><trkpt lat="43.2003233" lon="13.18802"><ele>408.0</ele><time>2026-04-26T13:20:24.232Z</time></trkpt><trkpt lat="43.2004783" lon="13.1880867"><ele>403.66666666666663</ele><time>2026-04-26T13:20:25.23Z</time></trkpt><trkpt lat="43.20062" lon="13.1881933"><ele>399.3333333333333</ele><time>2026-04-26T13:20:26.232Z</time></trkpt><trkpt lat="43.200755" lon="13.18832"><ele>395.0</ele><time>2026-04-26T13:20:27.234Z</time></trkpt><trkpt lat="43.2008833" lon="13.18846"><ele>395.0</ele><time>2026-04-26T13:20:28.231Z</time></trkpt><trkpt lat="43.20101" lon="13.1885983"><ele>395.0</ele><time>2026-04-26T13:20:29.23Z</time></trkpt><trkpt lat="43.2011283" lon="13.1887267"><ele>395.0</ele><time>2026-04-26T13:20:30.231Z</time></trkpt><trkpt lat="43.2012417" lon="13.1888533"><ele>395.0</ele><time>2026-04-26T13:20:31.233Z</time></trkpt><trkpt lat="43.2013483" lon="13.1889867"><ele>395.0</ele><time>2026-04-26T13:20:32.234Z</time></trkpt><trkpt lat="43.20146" lon="13.1891233"><ele>395.0</ele><time>2026-04-26T13:20:33.233Z</time></trkpt><trkpt lat="43.2015817" lon="13.1892467"><ele>395.0</ele><time>2026-04-26T13:20:34.235Z</time></trkpt><trkpt lat="43.2017183" lon="13.1893417"><ele>393.3333333333333</ele><time>2026-04-26T13:20:35.233Z</time></trkpt><trkpt lat="43.2018683" lon="13.18941"><ele>391.66666666666663</ele><time>2026-04-26T13:20:36.234Z</time></trkpt><trkpt lat="43.2020217" lon="13.18945"><ele>390.0</ele><time>2026-04-26T13:20:37.23Z</time></trkpt><trkpt lat="43.2021767" lon="13.1894417"><ele>390.0</ele><time>2026-04-26T13:20:38.231Z</time></trkpt><trkpt lat="43.2023233" lon="13.1893933"><ele>390.0</ele><time>2026-04-26T13:20:39.234Z</time></trkpt><trkpt lat="43.202475" lon="13.1893233"><ele>390.0</ele><time>2026-04-26T13:20:40.232Z</time></trkpt><trkpt lat="43.2026233" lon="13.1892583"><ele>387.3333333333333</ele><time>2026-04-26T13:20:41.233Z</time></trkpt><trkpt lat="43.2027733" lon="13.1891933"><ele>384.66666666666663</ele><time>2026-04-26T13:20:42.233Z</time></trkpt><trkpt lat="43.20292" lon="13.189125"><ele>382.0</ele><time>2026-04-26T13:20:43.235Z</time></trkpt><trkpt lat="43.2030583" lon="13.1890617"><ele>380.5</ele><time>2026-04-26T13:20:44.232Z</time></trkpt><trkpt lat="43.2031883" lon="13.188985"><ele>379.0</ele><time>2026-04-26T13:20:45.232Z</time></trkpt><trkpt lat="43.20331" lon="13.1888883"><ele>377.5</ele><time>2026-04-26T13:20:46.232Z</time></trkpt><trkpt lat="43.2034067" lon="13.188775"><ele>376.0</ele><time>2026-04-26T13:20:47.231Z</time></trkpt><trkpt lat="43.2034783" lon="13.188645"><ele>376.0</ele><time>2026-04-26T13:20:48.231Z</time></trkpt><trkpt lat="43.2035233" lon="13.1884983"><ele>376.0</ele><time>2026-04-26T13:20:49.232Z</time></trkpt><trkpt lat="43.203555" lon="13.188345"><ele>376.0</ele><time>2026-04-26T13:20:50.23Z</time></trkpt><trkpt lat="43.20359" lon="13.1882083"><ele>376.0</ele><time>2026-04-26T13:20:51.233Z</time></trkpt><trkpt lat="43.2036383" lon="13.1881117"><ele>376.0</ele><time>2026-04-26T13:20:52.232Z</time></trkpt><trkpt lat="43.20371" lon="13.1880733"><ele>376.0</ele><time>2026-04-26T13:20:53.232Z</time></trkpt><trkpt lat="43.2037883" lon="13.1880783"><ele>376.0</ele><time>2026-04-26T13:20:54.231Z</time></trkpt><trkpt lat="43.20386" lon="13.18817"><ele>376.0</ele><time>2026-04-26T13:20:55.231Z</time></trkpt><trkpt lat="43.2039267" lon="13.1882967"><ele>376.0</ele><time>2026-04-26T13:20:56.233Z</time></trkpt><trkpt lat="43.2039883" lon="13.18843"><ele>376.0</ele><time>2026-04-26T13:20:57.236Z</time></trkpt><trkpt lat="43.2040317" lon="13.1885633"><ele>376.0</ele><time>2026-04-26T13:20:58.23Z</time></trkpt><trkpt lat="43.204045" lon="13.1886917"><ele>376.0</ele><time>2026-04-26T13:20:59.231Z</time></trkpt><trkpt lat="43.20402" lon="13.1888117"><ele>376.0</ele><time>2026-04-26T13:21:00.232Z</time></trkpt><trkpt lat="43.2039667" lon="13.18892"><ele>376.0</ele><time>2026-04-26T13:21:01.231Z</time></trkpt><trkpt lat="43.20389" lon="13.1890033"><ele>376.0</ele><time>2026-04-26T13:21:02.233Z</time></trkpt><trkpt lat="43.2038083" lon="13.18908"><ele>374.66666666666663</ele><time>2026-04-26T13:21:03.234Z</time></trkpt><trkpt lat="43.2037333" lon="13.18916"><ele>373.3333333333333</ele><time>2026-04-26T13:21:04.231Z</time></trkpt><trkpt lat="43.2036683" lon="13.1892467"><ele>372.0</ele><time>2026-04-26T13:21:05.234Z</time></trkpt><trkpt lat="43.20362" lon="13.1893367"><ele>370.6666666666667</ele><time>2026-04-26T13:21:06.233Z</time></trkpt><trkpt lat="43.2036333" lon="13.1894267"><ele>369.33333333333337</ele><time>2026-04-26T13:21:07.232Z</time></trkpt><trkpt lat="43.2036783" lon="13.1894917"><ele>368.0</ele><time>2026-04-26T13:21:08.235Z</time></trkpt><trkpt lat="43.20374" lon="13.18953"><ele>368.0</ele><time>2026-04-26T13:21:09.234Z</time></trkpt><trkpt lat="43.2038233" lon="13.1895317"><ele>368.0</ele><time>2026-04-26T13:21:10.231Z</time></trkpt><trkpt lat="43.20393" lon="13.1894867"><ele>368.0</ele><time>2026-04-26T13:21:11.232Z</time></trkpt><trkpt lat="43.2040417" lon="13.1894333"><ele>368.0</ele><time>2026-04-26T13:21:12.234Z</time></trkpt><trkpt lat="43.204155" lon="13.1893967"><ele>368.0</ele><time>2026-04-26T13:21:13.234Z</time></trkpt><trkpt lat="43.2042667" lon="13.1893783"><ele>365.5</ele><time>2026-04-26T13:21:14.236Z</time></trkpt><trkpt lat="43.2043867" lon="13.1893767"><ele>363.0</ele><time>2026-04-26T13:21:15.236Z</time></trkpt><trkpt lat="43.2045133" lon="13.1893917"><ele>360.5</ele><time>2026-04-26T13:21:16.233Z</time></trkpt><trkpt lat="43.20464" lon="13.189415"><ele>358.0</ele><time>2026-04-26T13:21:17.235Z</time></trkpt><trkpt lat="43.20477" lon="13.189425"><ele>356.5</ele><time>2026-04-26T13:21:18.232Z</time></trkpt><trkpt lat="43.2048967" lon="13.1893967"><ele>355.0</ele><time>2026-04-26T13:21:19.234Z</time></trkpt><trkpt lat="43.2050133" lon="13.1893467"><ele>353.5</ele><time>2026-04-26T13:21:20.234Z</time></trkpt><trkpt lat="43.2051067" lon="13.18926"><ele>352.0</ele><time>2026-04-26T13:21:21.233Z</time></trkpt><trkpt lat="43.205185" lon="13.1891433"><ele>352.0</ele><time>2026-04-26T13:21:22.232Z</time></trkpt><trkpt lat="43.2052417" lon="13.1890267"><ele>352.0</ele><time>2026-04-26T13:21:23.231Z</time></trkpt><trkpt lat="43.205295" lon="13.1889317"><ele>352.0</ele><time>2026-04-26T13:21:24.232Z</time></trkpt><trkpt lat="43.2053467" lon="13.18885"><ele>352.0</ele><time>2026-04-26T13:21:25.233Z</time></trkpt><trkpt lat="43.2054083" lon="13.1888117"><ele>352.0</ele><time>2026-04-26T13:21:26.235Z</time></trkpt><trkpt lat="43.20547" lon="13.1888417"><ele>352.0</ele><time>2026-04-26T13:21:27.237Z</time></trkpt><trkpt lat="43.20552" lon="13.1888983"><ele>352.0</ele><time>2026-04-26T13:21:28.231Z</time></trkpt><trkpt lat="43.2055633" lon="13.1890567"><ele>352.0</ele><time>2026-04-26T13:21:29.234Z</time></trkpt><trkpt lat="43.205615" lon="13.1892133"><ele>352.0</ele><time>2026-04-26T13:21:30.235Z</time></trkpt><trkpt lat="43.2056967" lon="13.1893833"><ele>352.0</ele><time>2026-04-26T13:21:31.236Z</time></trkpt><trkpt lat="43.2057933" lon="13.1895133"><ele>351.5</ele><time>2026-04-26T13:21:32.235Z</time></trkpt><trkpt lat="43.2058983" lon="13.189625"><ele>351.0</ele><time>2026-04-26T13:21:33.237Z</time></trkpt><trkpt lat="43.2060067" lon="13.1897383"><ele>350.5</ele><time>2026-04-26T13:21:34.233Z</time></trkpt><trkpt lat="43.206125" lon="13.1898483"><ele>350.0</ele><time>2026-04-26T13:21:35.234Z</time></trkpt><trkpt lat="43.206245" lon="13.1899517"><ele>348.5</ele><time>2026-04-26T13:21:36.235Z</time></trkpt><trkpt lat="43.2063583" lon="13.1900483"><ele>347.0</ele><time>2026-04-26T13:21:37.236Z</time></trkpt><trkpt lat="43.206465" lon="13.1901433"><ele>345.5</ele><time>2026-04-26T13:21:38.232Z</time></trkpt><trkpt lat="43.2065833" lon="13.1902333"><ele>344.0</ele><time>2026-04-26T13:21:39.236Z</time></trkpt><trkpt lat="43.2067067" lon="13.1903067"><ele>343.0</ele><time>2026-04-26T13:21:40.233Z</time></trkpt><trkpt lat="43.206825" lon="13.19036"><ele>342.0</ele><time>2026-04-26T13:21:41.232Z</time></trkpt><trkpt lat="43.2069367" lon="13.1903967"><ele>341.0</ele><time>2026-04-26T13:21:42.232Z</time></trkpt><trkpt lat="43.2070533" lon="13.1904467"><ele>340.0</ele><time>2026-04-26T13:21:43.232Z</time></trkpt><trkpt lat="43.2071667" lon="13.1905283"><ele>340.0</ele><time>2026-04-26T13:21:44.234Z</time></trkpt><trkpt lat="43.207275" lon="13.1906383"><ele>340.0</ele><time>2026-04-26T13:21:45.236Z</time></trkpt><trkpt lat="43.2073883" lon="13.1907617"><ele>340.0</ele><time>2026-04-26T13:21:46.233Z</time></trkpt><trkpt lat="43.2075083" lon="13.1908833"><ele>340.0</ele><time>2026-04-26T13:21:47.231Z</time></trkpt><trkpt lat="43.2076417" lon="13.190995"><ele>338.0</ele><time>2026-04-26T13:21:48.232Z</time></trkpt><trkpt lat="43.2077783" lon="13.1911017"><ele>336.0</ele><time>2026-04-26T13:21:49.235Z</time></trkpt><trkpt lat="43.2079233" lon="13.1912133"><ele>334.0</ele><time>2026-04-26T13:21:50.235Z</time></trkpt><trkpt lat="43.2080717" lon="13.1913017"><ele>332.0</ele><time>2026-04-26T13:21:51.234Z</time></trkpt><trkpt lat="43.208215" lon="13.1913917"><ele>330.0</ele><time>2026-04-26T13:21:52.235Z</time></trkpt><trkpt lat="43.20836" lon="13.191475"><ele>328.0</ele><time>2026-04-26T13:21:53.235Z</time></trkpt><trkpt lat="43.2084967" lon="13.1915717"><ele>328.0</ele><time>2026-04-26T13:21:54.232Z</time></trkpt><trkpt lat="43.2086283" lon="13.1916817"><ele>328.0</ele><time>2026-04-26T13:21:55.233Z</time></trkpt><trkpt lat="43.208745" lon="13.191815"><ele>328.0</ele><time>2026-04-26T13:21:56.232Z</time></trkpt><trkpt lat="43.2088583" lon="13.1919633"><ele>328.0</ele><time>2026-04-26T13:21:57.235Z</time></trkpt><trkpt lat="43.2089667" lon="13.1921217"><ele>328.0</ele><time>2026-04-26T13:21:58.232Z</time></trkpt><trkpt lat="43.209075" lon="13.1922767"><ele>328.0</ele><time>2026-04-26T13:21:59.231Z</time></trkpt><trkpt lat="43.2091883" lon="13.19243"><ele>330.3333333333333</ele><time>2026-04-26T13:22:00.235Z</time></trkpt><trkpt lat="43.2093" lon="13.1925867"><ele>332.6666666666667</ele><time>2026-04-26T13:22:01.231Z</time></trkpt><trkpt lat="43.2094167" lon="13.19275"><ele>335.0</ele><time>2026-04-26T13:22:02.237Z</time></trkpt><trkpt lat="43.2095433" lon="13.1929217"><ele>335.0</ele><time>2026-04-26T13:22:03.233Z</time></trkpt><trkpt lat="43.2096833" lon="13.1931083"><ele>335.0</ele><time>2026-04-26T13:22:04.235Z</time></trkpt><trkpt lat="43.209825" lon="13.1932917"><ele>335.0</ele><time>2026-04-26T13:22:05.234Z</time></trkpt><trkpt lat="43.2099633" lon="13.1934717"><ele>336.33333333333337</ele><time>2026-04-26T13:22:06.233Z</time></trkpt><trkpt lat="43.2101017" lon="13.1936533"><ele>337.6666666666667</ele><time>2026-04-26T13:22:07.233Z</time></trkpt><trkpt lat="43.2102417" lon="13.1938383"><ele>339.0</ele><time>2026-04-26T13:22:08.237Z</time></trkpt><trkpt lat="43.2103833" lon="13.1940233"><ele>338.3333333333333</ele><time>2026-04-26T13:22:09.235Z</time></trkpt><trkpt lat="43.2105267" lon="13.19421"><ele>337.66666666666663</ele><time>2026-04-26T13:22:10.236Z</time></trkpt><trkpt lat="43.2106667" lon="13.1943967"><ele>337.0</ele><time>2026-04-26T13:22:11.236Z</time></trkpt><trkpt lat="43.2108083" lon="13.1945883"><ele>337.0</ele><time>2026-04-26T13:22:12.234Z</time></trkpt><trkpt lat="43.2109467" lon="13.19477"><ele>337.0</ele><time>2026-04-26T13:22:13.234Z</time></trkpt><trkpt lat="43.2110767" lon="13.19494"><ele>337.0</ele><time>2026-04-26T13:22:14.233Z</time></trkpt><trkpt lat="43.2112017" lon="13.1951033"><ele>334.75</ele><time>2026-04-26T13:22:15.234Z</time></trkpt><trkpt lat="43.2113117" lon="13.1952483"><ele>332.5</ele><time>2026-04-26T13:22:16.235Z</time></trkpt><trkpt lat="43.2114183" lon="13.19537"><ele>330.25</ele><time>2026-04-26T13:22:17.233Z</time></trkpt><trkpt lat="43.21153" lon="13.1954567"><ele>328.0</ele><time>2026-04-26T13:22:18.232Z</time></trkpt><trkpt lat="43.211645" lon="13.1954883"><ele>328.0</ele><time>2026-04-26T13:22:19.234Z</time></trkpt><trkpt lat="43.2117567" lon="13.1954617"><ele>328.0</ele><time>2026-04-26T13:22:20.233Z</time></trkpt><trkpt lat="43.2118783" lon="13.1953883"><ele>328.0</ele><time>2026-04-26T13:22:21.234Z</time></trkpt><trkpt lat="43.21201" lon="13.1952833"><ele>328.0</ele><time>2026-04-26T13:22:22.232Z</time></trkpt><trkpt lat="43.2121433" lon="13.19516"><ele>328.0</ele><time>2026-04-26T13:22:23.234Z</time></trkpt><trkpt lat="43.21227" lon="13.1950433"><ele>328.0</ele><time>2026-04-26T13:22:24.234Z</time></trkpt><trkpt lat="43.2123917" lon="13.1949333"><ele>328.0</ele><time>2026-04-26T13:22:25.232Z</time></trkpt><trkpt lat="43.212495" lon="13.1948017"><ele>328.0</ele><time>2026-04-26T13:22:26.233Z</time></trkpt><trkpt lat="43.2125833" lon="13.1946233"><ele>327.3333333333333</ele><time>2026-04-26T13:22:27.233Z</time></trkpt><trkpt lat="43.212665" lon="13.1943933"><ele>326.6666666666667</ele><time>2026-04-26T13:22:28.233Z</time></trkpt><trkpt lat="43.2127417" lon="13.19415"><ele>326.0</ele><time>2026-04-26T13:22:29.234Z</time></trkpt><trkpt lat="43.2128117" lon="13.19391"><ele>326.0</ele><time>2026-04-26T13:22:30.233Z</time></trkpt><trkpt lat="43.2128833" lon="13.1936883"><ele>326.0</ele><time>2026-04-26T13:22:31.234Z</time></trkpt><trkpt lat="43.2129633" lon="13.1934833"><ele>326.0</ele><time>2026-04-26T13:22:32.234Z</time></trkpt><trkpt lat="43.2130583" lon="13.1933083"><ele>327.0</ele><time>2026-04-26T13:22:33.233Z</time></trkpt><trkpt lat="43.2131483" lon="13.1931433"><ele>328.0</ele><time>2026-04-26T13:22:34.233Z</time></trkpt><trkpt lat="43.2132317" lon="13.19299"><ele>329.0</ele><time>2026-04-26T13:22:35.232Z</time></trkpt><trkpt lat="43.2133" lon="13.1928217"><ele>330.0</ele><time>2026-04-26T13:22:36.231Z</time></trkpt><trkpt lat="43.21335" lon="13.192635"><ele>328.75</ele><time>2026-04-26T13:22:37.232Z</time></trkpt><trkpt lat="43.2133917" lon="13.19245"><ele>327.5</ele><time>2026-04-26T13:22:38.236Z</time></trkpt><trkpt lat="43.2134283" lon="13.1922733"><ele>326.25</ele><time>2026-04-26T13:22:39.232Z</time></trkpt><trkpt lat="43.2134583" lon="13.1921117"><ele>325.0</ele><time>2026-04-26T13:22:40.235Z</time></trkpt><trkpt lat="43.2134983" lon="13.1919783"><ele>325.0</ele><time>2026-04-26T13:22:41.233Z</time></trkpt><trkpt lat="43.2135533" lon="13.1918733"><ele>325.0</ele><time>2026-04-26T13:22:42.24Z</time></trkpt><trkpt lat="43.2136233" lon="13.1918117"><ele>325.0</ele><time>2026-04-26T13:22:43.232Z</time></trkpt><trkpt lat="43.2137" lon="13.1917817"><ele>325.0</ele><time>2026-04-26T13:22:44.231Z</time></trkpt><trkpt lat="43.213775" lon="13.1917717"><ele>325.0</ele><time>2026-04-26T13:22:45.232Z</time></trkpt><trkpt lat="43.2138233" lon="13.1919017"><ele>325.0</ele><time>2026-04-26T13:22:46.234Z</time></trkpt><trkpt lat="43.21386" lon="13.1920367"><ele>325.0</ele><time>2026-04-26T13:22:47.235Z</time></trkpt><trkpt lat="43.21389" lon="13.192175"><ele>325.0</ele><time>2026-04-26T13:22:48.232Z</time></trkpt><trkpt lat="43.2138933" lon="13.1923633"><ele>325.0</ele><time>2026-04-26T13:22:49.231Z</time></trkpt><trkpt lat="43.2139167" lon="13.1925267"><ele>325.0</ele><time>2026-04-26T13:22:50.229Z</time></trkpt><trkpt lat="43.2139467" lon="13.1926867"><ele>324.75</ele><time>2026-04-26T13:22:51.23Z</time></trkpt><trkpt lat="43.2139867" lon="13.192845"><ele>324.5</ele><time>2026-04-26T13:22:52.232Z</time></trkpt><trkpt lat="43.214025" lon="13.1929983"><ele>324.25</ele><time>2026-04-26T13:22:53.233Z</time></trkpt><trkpt lat="43.2140483" lon="13.1931583"><ele>324.0</ele><time>2026-04-26T13:22:54.232Z</time></trkpt><trkpt lat="43.2140417" lon="13.1933017"><ele>323.4</ele><time>2026-04-26T13:22:55.23Z</time></trkpt><trkpt lat="43.2140133" lon="13.193445"><ele>322.79999999999995</ele><time>2026-04-26T13:22:56.234Z</time></trkpt><trkpt lat="43.2139817" lon="13.1935917"><ele>322.20000000000005</ele><time>2026-04-26T13:22:57.231Z</time></trkpt><trkpt lat="43.2139483" lon="13.1937333"><ele>321.6</ele><time>2026-04-26T13:22:58.233Z</time></trkpt><trkpt lat="43.2139267" lon="13.193885"><ele>321.0</ele><time>2026-04-26T13:22:59.233Z</time></trkpt><trkpt lat="43.2139117" lon="13.1940367"><ele>318.25</ele><time>2026-04-26T13:23:00.234Z</time></trkpt><trkpt lat="43.21391" lon="13.19419"><ele>315.5</ele><time>2026-04-26T13:23:01.231Z</time></trkpt><trkpt lat="43.213915" lon="13.1943483"><ele>312.75</ele><time>2026-04-26T13:23:02.234Z</time></trkpt><trkpt lat="43.213925" lon="13.1945133"><ele>310.0</ele><time>2026-04-26T13:23:03.234Z</time></trkpt><trkpt lat="43.2139333" lon="13.19469"><ele>308.75</ele><time>2026-04-26T13:23:04.229Z</time></trkpt><trkpt lat="43.213945" lon="13.1948683"><ele>307.5</ele><time>2026-04-26T13:23:05.234Z</time></trkpt><trkpt lat="43.21395" lon="13.1950517"><ele>306.25</ele><time>2026-04-26T13:23:06.232Z</time></trkpt><trkpt lat="43.2139567" lon="13.19525"><ele>305.0</ele><time>2026-04-26T13:23:07.23Z</time></trkpt><trkpt lat="43.2139633" lon="13.1954617"><ele>303.33333333333337</ele><time>2026-04-26T13:23:08.239Z</time></trkpt><trkpt lat="43.21397" lon="13.195675"><ele>301.6666666666667</ele><time>2026-04-26T13:23:09.235Z</time></trkpt><trkpt lat="43.2139833" lon="13.1958817"><ele>300.0</ele><time>2026-04-26T13:23:10.233Z</time></trkpt><trkpt lat="43.2140067" lon="13.196075"><ele>305.6666666666667</ele><time>2026-04-26T13:23:11.234Z</time></trkpt><trkpt lat="43.214045" lon="13.1962617"><ele>311.33333333333337</ele><time>2026-04-26T13:23:12.234Z</time></trkpt><trkpt lat="43.2141083" lon="13.1964467"><ele>317.0</ele><time>2026-04-26T13:23:13.233Z</time></trkpt><trkpt lat="43.2141917" lon="13.1966367"><ele>317.0</ele><time>2026-04-26T13:23:14.232Z</time></trkpt><trkpt lat="43.2142783" lon="13.19683"><ele>317.0</ele><time>2026-04-26T13:23:15.233Z</time></trkpt><trkpt lat="43.214365" lon="13.197025"><ele>317.0</ele><time>2026-04-26T13:23:16.233Z</time></trkpt><trkpt lat="43.21445" lon="13.1972217"><ele>315.33333333333337</ele><time>2026-04-26T13:23:17.234Z</time></trkpt><trkpt lat="43.2145467" lon="13.1974117"><ele>313.6666666666667</ele><time>2026-04-26T13:23:18.231Z</time></trkpt><trkpt lat="43.2146667" lon="13.19758"><ele>312.0</ele><time>2026-04-26T13:23:19.236Z</time></trkpt><trkpt lat="43.2148133" lon="13.19773"><ele>315.3333333333333</ele><time>2026-04-26T13:23:20.232Z</time></trkpt><trkpt lat="43.2149767" lon="13.19787"><ele>318.66666666666663</ele><time>2026-04-26T13:23:21.236Z</time></trkpt><trkpt lat="43.21515" lon="13.198015"><ele>322.0</ele><time>2026-04-26T13:23:22.233Z</time></trkpt><trkpt lat="43.215335" lon="13.198165"><ele>322.5</ele><time>2026-04-26T13:23:23.234Z</time></trkpt><trkpt lat="43.21553" lon="13.198315"><ele>323.0</ele><time>2026-04-26T13:23:24.231Z</time></trkpt><trkpt lat="43.21573" lon="13.198465"><ele>323.0</ele><time>2026-04-26T13:23:25.231Z</time></trkpt><trkpt lat="43.2159283" lon="13.198615"><ele>323.0</ele><time>2026-04-26T13:23:26.232Z</time></trkpt><trkpt lat="43.2161267" lon="13.1987667"><ele>323.0</ele><time>2026-04-26T13:23:27.237Z</time></trkpt><trkpt lat="43.2163133" lon="13.1989183"><ele>323.0</ele><time>2026-04-26T13:23:28.233Z</time></trkpt><trkpt lat="43.2164867" lon="13.19906"><ele>323.0</ele><time>2026-04-26T13:23:29.235Z</time></trkpt><trkpt lat="43.2166533" lon="13.1991933"><ele>323.0</ele><time>2026-04-26T13:23:30.234Z</time></trkpt><trkpt lat="43.216805" lon="13.1993167"><ele>323.0</ele><time>2026-04-26T13:23:31.233Z</time></trkpt><trkpt lat="43.2169483" lon="13.1994267"><ele>323.0</ele><time>2026-04-26T13:23:32.234Z</time></trkpt><trkpt lat="43.21708" lon="13.1995233"><ele>323.0</ele><time>2026-04-26T13:23:33.235Z</time></trkpt><trkpt lat="43.217205" lon="13.1995917"><ele>323.0</ele><time>2026-04-26T13:23:34.232Z</time></trkpt><trkpt lat="43.2173317" lon="13.199625"><ele>323.0</ele><time>2026-04-26T13:23:35.232Z</time></trkpt><trkpt lat="43.217455" lon="13.1996217"><ele>323.0</ele><time>2026-04-26T13:23:36.234Z</time></trkpt><trkpt lat="43.2175883" lon="13.1995717"><ele>324.0</ele><time>2026-04-26T13:23:37.231Z</time></trkpt><trkpt lat="43.21774" lon="13.1994933"><ele>325.0</ele><time>2026-04-26T13:23:38.238Z</time></trkpt><trkpt lat="43.2179033" lon="13.1994067"><ele>326.0</ele><time>2026-04-26T13:23:39.243Z</time></trkpt><trkpt lat="43.2180767" lon="13.1993217"><ele>324.6666666666667</ele><time>2026-04-26T13:23:40.234Z</time></trkpt><trkpt lat="43.2182467" lon="13.1992567"><ele>323.3333333333333</ele><time>2026-04-26T13:23:41.233Z</time></trkpt><trkpt lat="43.2184167" lon="13.1992267"><ele>322.0</ele><time>2026-04-26T13:23:42.233Z</time></trkpt><trkpt lat="43.218585" lon="13.1992317"><ele>322.0</ele><time>2026-04-26T13:23:43.231Z</time></trkpt><trkpt lat="43.218755" lon="13.19928"><ele>322.0</ele><time>2026-04-26T13:23:44.236Z</time></trkpt><trkpt lat="43.21893" lon="13.1993767"><ele>322.0</ele><time>2026-04-26T13:23:45.232Z</time></trkpt><trkpt lat="43.2191133" lon="13.1995"><ele>321.66666666666663</ele><time>2026-04-26T13:23:46.235Z</time></trkpt><trkpt lat="43.2192967" lon="13.1996233"><ele>321.3333333333333</ele><time>2026-04-26T13:23:47.234Z</time></trkpt><trkpt lat="43.2194867" lon="13.1997317"><ele>321.0</ele><time>2026-04-26T13:23:48.233Z</time></trkpt><trkpt lat="43.2196917" lon="13.1998267"><ele>320.0</ele><time>2026-04-26T13:23:49.233Z</time></trkpt><trkpt lat="43.2199033" lon="13.1999133"><ele>319.0</ele><time>2026-04-26T13:23:50.234Z</time></trkpt><trkpt lat="43.2201083" lon="13.1999883"><ele>318.0</ele><time>2026-04-26T13:23:51.232Z</time></trkpt><trkpt lat="43.2203" lon="13.200055"><ele>318.0</ele><time>2026-04-26T13:23:52.242Z</time></trkpt><trkpt lat="43.2204783" lon="13.2001183"><ele>318.0</ele><time>2026-04-26T13:23:53.234Z</time></trkpt><trkpt lat="43.220645" lon="13.2001717"><ele>318.0</ele><time>2026-04-26T13:23:54.235Z</time></trkpt><trkpt lat="43.2208" lon="13.2001983"><ele>319.5</ele><time>2026-04-26T13:23:55.234Z</time></trkpt><trkpt lat="43.2209383" lon="13.20018"><ele>321.0</ele><time>2026-04-26T13:23:56.233Z</time></trkpt><trkpt lat="43.22107" lon="13.2001133"><ele>322.5</ele><time>2026-04-26T13:23:57.234Z</time></trkpt><trkpt lat="43.2212083" lon="13.200005"><ele>324.0</ele><time>2026-04-26T13:23:58.233Z</time></trkpt><trkpt lat="43.2213567" lon="13.19987"><ele>324.3333333333333</ele><time>2026-04-26T13:23:59.232Z</time></trkpt><trkpt lat="43.2215067" lon="13.1997383"><ele>324.66666666666663</ele><time>2026-04-26T13:24:00.234Z</time></trkpt><trkpt lat="43.221645" lon="13.199615"><ele>325.0</ele><time>2026-04-26T13:24:01.231Z</time></trkpt><trkpt lat="43.221775" lon="13.1994933"><ele>325.0</ele><time>2026-04-26T13:24:02.231Z</time></trkpt><trkpt lat="43.2218983" lon="13.1993433"><ele>325.0</ele><time>2026-04-26T13:24:03.234Z</time></trkpt><trkpt lat="43.222015" lon="13.1991533"><ele>325.0</ele><time>2026-04-26T13:24:04.234Z</time></trkpt><trkpt lat="43.2221333" lon="13.1989433"><ele>326.3333333333333</ele><time>2026-04-26T13:24:05.236Z</time></trkpt><trkpt lat="43.2222533" lon="13.1987333"><ele>327.6666666666667</ele><time>2026-04-26T13:24:06.234Z</time></trkpt><trkpt lat="43.2223717" lon="13.19853"><ele>329.0</ele><time>2026-04-26T13:24:07.232Z</time></trkpt><trkpt lat="43.2224867" lon="13.19833"><ele>327.33333333333337</ele><time>2026-04-26T13:24:08.232Z</time></trkpt><trkpt lat="43.222605" lon="13.198125"><ele>325.6666666666667</ele><time>2026-04-26T13:24:09.233Z</time></trkpt><trkpt lat="43.2227233" lon="13.197915"><ele>324.0</ele><time>2026-04-26T13:24:10.233Z</time></trkpt><trkpt lat="43.222845" lon="13.1977067"><ele>324.0</ele><time>2026-04-26T13:24:11.233Z</time></trkpt><trkpt lat="43.2229617" lon="13.1975117"><ele>324.0</ele><time>2026-04-26T13:24:12.233Z</time></trkpt><trkpt lat="43.2230733" lon="13.1973267"><ele>324.0</ele><time>2026-04-26T13:24:13.232Z</time></trkpt><trkpt lat="43.2231783" lon="13.1971567"><ele>322.25</ele><time>2026-04-26T13:24:14.234Z</time></trkpt><trkpt lat="43.2232667" lon="13.1969917"><ele>320.5</ele><time>2026-04-26T13:24:15.235Z</time></trkpt><trkpt lat="43.223325" lon="13.196825"><ele>318.75</ele><time>2026-04-26T13:24:16.232Z</time></trkpt><trkpt lat="43.223355" lon="13.1966517"><ele>317.0</ele><time>2026-04-26T13:24:17.232Z</time></trkpt><trkpt lat="43.2233533" lon="13.1964667"><ele>314.0</ele><time>2026-04-26T13:24:18.242Z</time></trkpt><trkpt lat="43.2233133" lon="13.19627"><ele>311.0</ele><time>2026-04-26T13:24:19.232Z</time></trkpt><trkpt lat="43.2232433" lon="13.1960683"><ele>308.0</ele><time>2026-04-26T13:24:20.234Z</time></trkpt><trkpt lat="43.2231533" lon="13.1958483"><ele>309.6666666666667</ele><time>2026-04-26T13:24:21.233Z</time></trkpt><trkpt lat="43.2230617" lon="13.1956217"><ele>311.3333333333333</ele><time>2026-04-26T13:24:22.232Z</time></trkpt><trkpt lat="43.2229767" lon="13.1954117"><ele>313.0</ele><time>2026-04-26T13:24:23.231Z</time></trkpt><trkpt lat="43.2228917" lon="13.1952133"><ele>313.0</ele><time>2026-04-26T13:24:24.234Z</time></trkpt><trkpt lat="43.2228067" lon="13.19503"><ele>313.0</ele><time>2026-04-26T13:24:25.232Z</time></trkpt><trkpt lat="43.222725" lon="13.1948583"><ele>313.0</ele><time>2026-04-26T13:24:26.235Z</time></trkpt><trkpt lat="43.2226583" lon="13.19469"><ele>313.0</ele><time>2026-04-26T13:24:27.233Z</time></trkpt><trkpt lat="43.222615" lon="13.1945067"><ele>311.5</ele><time>2026-04-26T13:24:28.232Z</time></trkpt><trkpt lat="43.2225817" lon="13.1943117"><ele>310.0</ele><time>2026-04-26T13:24:29.232Z</time></trkpt><trkpt lat="43.2225417" lon="13.1941267"><ele>308.5</ele><time>2026-04-26T13:24:30.233Z</time></trkpt><trkpt lat="43.2224817" lon="13.19398"><ele>307.0</ele><time>2026-04-26T13:24:31.232Z</time></trkpt><trkpt lat="43.2224083" lon="13.1938583"><ele>307.66666666666663</ele><time>2026-04-26T13:24:32.23Z</time></trkpt><trkpt lat="43.222335" lon="13.19377"><ele>308.3333333333333</ele><time>2026-04-26T13:24:33.249Z</time></trkpt><trkpt lat="43.2222767" lon="13.1936883"><ele>309.0</ele><time>2026-04-26T13:24:34.233Z</time></trkpt><trkpt lat="43.2222283" lon="13.1936067"><ele>309.6666666666667</ele><time>2026-04-26T13:24:35.229Z</time></trkpt><trkpt lat="43.2222" lon="13.1935283"><ele>310.33333333333337</ele><time>2026-04-26T13:24:36.234Z</time></trkpt><trkpt lat="43.2222983" lon="13.1934717"><ele>311.0</ele><time>2026-04-26T13:24:38.234Z</time></trkpt><trkpt lat="43.2223683" lon="13.1934983"><ele>307.75</ele><time>2026-04-26T13:24:39.235Z</time></trkpt><trkpt lat="43.22246" lon="13.1936017"><ele>304.5</ele><time>2026-04-26T13:24:40.23Z</time></trkpt><trkpt lat="43.2225667" lon="13.1936883"><ele>301.25</ele><time>2026-04-26T13:24:41.232Z</time></trkpt><trkpt lat="43.2226767" lon="13.1937667"><ele>298.0</ele><time>2026-04-26T13:24:42.23Z</time></trkpt><trkpt lat="43.2227917" lon="13.1938233"><ele>298.0</ele><time>2026-04-26T13:24:43.23Z</time></trkpt><trkpt lat="43.2229117" lon="13.19386"><ele>298.0</ele><time>2026-04-26T13:24:44.231Z</time></trkpt><trkpt lat="43.22303" lon="13.193875"><ele>298.0</ele><time>2026-04-26T13:24:45.235Z</time></trkpt><trkpt lat="43.2231467" lon="13.1938783"><ele>298.0</ele><time>2026-04-26T13:24:46.236Z</time></trkpt><trkpt lat="43.2232583" lon="13.193865"><ele>295.0</ele><time>2026-04-26T13:24:47.231Z</time></trkpt><trkpt lat="43.2233733" lon="13.19384"><ele>292.0</ele><time>2026-04-26T13:24:48.232Z</time></trkpt><trkpt lat="43.2234933" lon="13.1937867"><ele>289.0</ele><time>2026-04-26T13:24:49.231Z</time></trkpt><trkpt lat="43.2236133" lon="13.1937133"><ele>286.0</ele><time>2026-04-26T13:24:50.233Z</time></trkpt><trkpt lat="43.223735" lon="13.1936317"><ele>286.0</ele><time>2026-04-26T13:24:51.258Z</time></trkpt><trkpt lat="43.2238533" lon="13.1935483"><ele>286.0</ele><time>2026-04-26T13:24:52.233Z</time></trkpt><trkpt lat="43.2239717" lon="13.193475"><ele>286.0</ele><time>2026-04-26T13:24:53.231Z</time></trkpt><trkpt lat="43.224095" lon="13.19342"><ele>286.0</ele><time>2026-04-26T13:24:54.236Z</time></trkpt><trkpt lat="43.2242283" lon="13.19339"><ele>285.5</ele><time>2026-04-26T13:24:55.234Z</time></trkpt><trkpt lat="43.22436" lon="13.193385"><ele>285.0</ele><time>2026-04-26T13:24:56.235Z</time></trkpt><trkpt lat="43.2244983" lon="13.1934067"><ele>284.5</ele><time>2026-04-26T13:24:57.233Z</time></trkpt><trkpt lat="43.2246417" lon="13.1934583"><ele>284.0</ele><time>2026-04-26T13:24:58.23Z</time></trkpt><trkpt lat="43.2247767" lon="13.1935167"><ele>282.0</ele><time>2026-04-26T13:24:59.229Z</time></trkpt><trkpt lat="43.224905" lon="13.1935767"><ele>280.0</ele><time>2026-04-26T13:25:00.234Z</time></trkpt><trkpt lat="43.2250283" lon="13.1936333"><ele>278.0</ele><time>2026-04-26T13:25:01.232Z</time></trkpt><trkpt lat="43.2251467" lon="13.1936933"><ele>276.0</ele><time>2026-04-26T13:25:02.233Z</time></trkpt><trkpt lat="43.2252567" lon="13.1937467"><ele>276.0</ele><time>2026-04-26T13:25:03.235Z</time></trkpt><trkpt lat="43.2253617" lon="13.1937717"><ele>276.0</ele><time>2026-04-26T13:25:04.235Z</time></trkpt><trkpt lat="43.2254733" lon="13.1937617"><ele>276.0</ele><time>2026-04-26T13:25:05.233Z</time></trkpt><trkpt lat="43.2255783" lon="13.19371"><ele>276.0</ele><time>2026-04-26T13:25:06.235Z</time></trkpt><trkpt lat="43.225665" lon="13.1936033"><ele>276.0</ele><time>2026-04-26T13:25:07.234Z</time></trkpt><trkpt lat="43.2257267" lon="13.1934683"><ele>273.25</ele><time>2026-04-26T13:25:08.236Z</time></trkpt><trkpt lat="43.225765" lon="13.1933083"><ele>270.5</ele><time>2026-04-26T13:25:09.257Z</time></trkpt><trkpt lat="43.2257767" lon="13.1931367"><ele>267.75</ele><time>2026-04-26T13:25:10.234Z</time></trkpt><trkpt lat="43.2257583" lon="13.1929767"><ele>265.0</ele><time>2026-04-26T13:25:11.231Z</time></trkpt><trkpt lat="43.225705" lon="13.19283"><ele>265.25</ele><time>2026-04-26T13:25:12.231Z</time></trkpt><trkpt lat="43.2256183" lon="13.19272"><ele>265.5</ele><time>2026-04-26T13:25:13.233Z</time></trkpt><trkpt lat="43.225505" lon="13.19266"><ele>265.75</ele><time>2026-04-26T13:25:14.231Z</time></trkpt><trkpt lat="43.2253783" lon="13.192625"><ele>266.0</ele><time>2026-04-26T13:25:15.232Z</time></trkpt><trkpt lat="43.2252467" lon="13.1926067"><ele>266.0</ele><time>2026-04-26T13:25:16.231Z</time></trkpt><trkpt lat="43.2251183" lon="13.1925933"><ele>266.0</ele><time>2026-04-26T13:25:17.231Z</time></trkpt><trkpt lat="43.225" lon="13.19257"><ele>266.0</ele><time>2026-04-26T13:25:18.232Z</time></trkpt><trkpt lat="43.2248883" lon="13.1925383"><ele>266.0</ele><time>2026-04-26T13:25:19.235Z</time></trkpt><trkpt lat="43.2247817" lon="13.1924917"><ele>266.5</ele><time>2026-04-26T13:25:20.234Z</time></trkpt><trkpt lat="43.2246833" lon="13.1924183"><ele>267.0</ele><time>2026-04-26T13:25:21.235Z</time></trkpt><trkpt lat="43.2245967" lon="13.1923167"><ele>267.5</ele><time>2026-04-26T13:25:22.232Z</time></trkpt><trkpt lat="43.2245333" lon="13.1921817"><ele>268.0</ele><time>2026-04-26T13:25:23.232Z</time></trkpt><trkpt lat="43.2244933" lon="13.19203"><ele>268.0</ele><time>2026-04-26T13:25:24.234Z</time></trkpt><trkpt lat="43.2244717" lon="13.1918667"><ele>268.0</ele><time>2026-04-26T13:25:25.231Z</time></trkpt><trkpt lat="43.224475" lon="13.191715"><ele>268.0</ele><time>2026-04-26T13:25:26.231Z</time></trkpt><trkpt lat="43.2245067" lon="13.1915683"><ele>268.0</ele><time>2026-04-26T13:25:27.232Z</time></trkpt><trkpt lat="43.2245617" lon="13.19143"><ele>268.75</ele><time>2026-04-26T13:25:28.231Z</time></trkpt><trkpt lat="43.22463" lon="13.19129"><ele>269.5</ele><time>2026-04-26T13:25:29.231Z</time></trkpt><trkpt lat="43.2247083" lon="13.1911467"><ele>270.25</ele><time>2026-04-26T13:25:30.232Z</time></trkpt><trkpt lat="43.2247883" lon="13.191005"><ele>271.0</ele><time>2026-04-26T13:25:31.229Z</time></trkpt><trkpt lat="43.2248683" lon="13.1908617"><ele>268.5</ele><time>2026-04-26T13:25:32.232Z</time></trkpt><trkpt lat="43.2249467" lon="13.19072"><ele>266.0</ele><time>2026-04-26T13:25:33.234Z</time></trkpt><trkpt lat="43.2250283" lon="13.19058"><ele>263.5</ele><time>2026-04-26T13:25:34.231Z</time></trkpt><trkpt lat="43.22511" lon="13.190445"><ele>261.0</ele><time>2026-04-26T13:25:35.231Z</time></trkpt><trkpt lat="43.225185" lon="13.1903033"><ele>261.0</ele><time>2026-04-26T13:25:36.235Z</time></trkpt><trkpt lat="43.2252633" lon="13.190165"><ele>261.0</ele><time>2026-04-26T13:25:37.234Z</time></trkpt><trkpt lat="43.2253383" lon="13.1900367"><ele>261.0</ele><time>2026-04-26T13:25:38.233Z</time></trkpt><trkpt lat="43.2254133" lon="13.1899017"><ele>261.0</ele><time>2026-04-26T13:25:39.234Z</time></trkpt><trkpt lat="43.22549" lon="13.1897717"><ele>261.5</ele><time>2026-04-26T13:25:40.233Z</time></trkpt><trkpt lat="43.2255617" lon="13.1896433"><ele>262.0</ele><time>2026-04-26T13:25:41.234Z</time></trkpt><trkpt lat="43.2256367" lon="13.1895167"><ele>262.5</ele><time>2026-04-26T13:25:42.232Z</time></trkpt><trkpt lat="43.2257117" lon="13.1893917"><ele>263.0</ele><time>2026-04-26T13:25:43.231Z</time></trkpt><trkpt lat="43.225785" lon="13.1892583"><ele>259.75</ele><time>2026-04-26T13:25:44.231Z</time></trkpt><trkpt lat="43.2258583" lon="13.1891267"><ele>256.5</ele><time>2026-04-26T13:25:45.234Z</time></trkpt><trkpt lat="43.2259317" lon="13.1889983"><ele>253.25</ele><time>2026-04-26T13:25:46.233Z</time></trkpt><trkpt lat="43.226005" lon="13.1888733"><ele>250.0</ele><time>2026-04-26T13:25:47.233Z</time></trkpt><trkpt lat="43.2260833" lon="13.1887517"><ele>250.0</ele><time>2026-04-26T13:25:48.233Z</time></trkpt><trkpt lat="43.2261567" lon="13.188625"><ele>250.0</ele><time>2026-04-26T13:25:49.236Z</time></trkpt><trkpt lat="43.22623" lon="13.1884967"><ele>250.0</ele><time>2026-04-26T13:25:50.232Z</time></trkpt><trkpt lat="43.2263017" lon="13.188365"><ele>250.0</ele><time>2026-04-26T13:25:51.231Z</time></trkpt><trkpt lat="43.2263767" lon="13.1882333"><ele>250.0</ele><time>2026-04-26T13:25:52.232Z</time></trkpt><trkpt lat="43.22645" lon="13.1881083"><ele>250.0</ele><time>2026-04-26T13:25:53.232Z</time></trkpt><trkpt lat="43.2265233" lon="13.1879817"><ele>250.0</ele><time>2026-04-26T13:25:54.231Z</time></trkpt><trkpt lat="43.2265933" lon="13.187855"><ele>250.0</ele><time>2026-04-26T13:25:55.233Z</time></trkpt><trkpt lat="43.226665" lon="13.18772"><ele>248.0</ele><time>2026-04-26T13:25:56.231Z</time></trkpt><trkpt lat="43.2267367" lon="13.1875933"><ele>246.0</ele><time>2026-04-26T13:25:57.232Z</time></trkpt><trkpt lat="43.2268083" lon="13.18746"><ele>244.0</ele><time>2026-04-26T13:25:58.234Z</time></trkpt><trkpt lat="43.2268817" lon="13.1873267"><ele>242.0</ele><time>2026-04-26T13:25:59.232Z</time></trkpt><trkpt lat="43.2269517" lon="13.1871967"><ele>242.0</ele><time>2026-04-26T13:26:00.232Z</time></trkpt><trkpt lat="43.2270283" lon="13.1870683"><ele>242.0</ele><time>2026-04-26T13:26:01.233Z</time></trkpt><trkpt lat="43.2271017" lon="13.1869417"><ele>242.0</ele><time>2026-04-26T13:26:02.234Z</time></trkpt><trkpt lat="43.2271767" lon="13.18682"><ele>242.0</ele><time>2026-04-26T13:26:03.233Z</time></trkpt><trkpt lat="43.2272483" lon="13.186705"><ele>241.6</ele><time>2026-04-26T13:26:04.233Z</time></trkpt><trkpt lat="43.227315" lon="13.186585"><ele>241.2</ele><time>2026-04-26T13:26:05.232Z</time></trkpt><trkpt lat="43.2273733" lon="13.186475"><ele>240.8</ele><time>2026-04-26T13:26:06.232Z</time></trkpt><trkpt lat="43.2274267" lon="13.1863733"><ele>240.4</ele><time>2026-04-26T13:26:07.231Z</time></trkpt><trkpt lat="43.2274717" lon="13.1862817"><ele>240.0</ele><time>2026-04-26T13:26:08.231Z</time></trkpt><trkpt lat="43.227515" lon="13.1862017"><ele>240.0</ele><time>2026-04-26T13:26:09.23Z</time></trkpt><trkpt lat="43.22756" lon="13.1861283"><ele>240.0</ele><time>2026-04-26T13:26:10.234Z</time></trkpt><trkpt lat="43.2276033" lon="13.186065"><ele>240.0</ele><time>2026-04-26T13:26:11.231Z</time></trkpt><trkpt lat="43.2276717" lon="13.18598"><ele>240.0</ele><time>2026-04-26T13:26:13.235Z</time></trkpt><trkpt lat="43.2276917" lon="13.1858867"><ele>240.0</ele><time>2026-04-26T13:26:58.232Z</time></trkpt><trkpt lat="43.22765" lon="13.185815"><ele>240.0</ele><time>2026-04-26T13:27:01.232Z</time></trkpt></trkseg><trkseg><trkpt lat="43.2277283" lon="13.1857383"><ele>240.16666666666666</ele><time>2026-04-26T13:46:21.236Z</time></trkpt><trkpt lat="43.227785" lon="13.185665"><ele>240.33333333333331</ele><time>2026-04-26T13:46:22.23Z</time></trkpt><trkpt lat="43.2278483" lon="13.1855867"><ele>240.5</ele><time>2026-04-26T13:46:23.234Z</time></trkpt><trkpt lat="43.2279083" lon="13.1854967"><ele>240.66666666666666</ele><time>2026-04-26T13:46:24.234Z</time></trkpt><trkpt lat="43.2279683" lon="13.1854"><ele>240.83333333333331</ele><time>2026-04-26T13:46:25.232Z</time></trkpt><trkpt lat="43.2280317" lon="13.1852983"><ele>241.0</ele><time>2026-04-26T13:46:26.233Z</time></trkpt><trkpt lat="43.2281" lon="13.185205"><ele>240.71428571428572</ele><time>2026-04-26T13:46:27.234Z</time></trkpt><trkpt lat="43.2281683" lon="13.1851367"><ele>240.42857142857144</ele><time>2026-04-26T13:46:28.236Z</time></trkpt><trkpt lat="43.2282317" lon="13.18509"><ele>240.14285714285717</ele><time>2026-04-26T13:46:29.235Z</time></trkpt><trkpt lat="43.22829" lon="13.185045"><ele>239.8571428571429</ele><time>2026-04-26T13:46:30.234Z</time></trkpt><trkpt lat="43.2283417" lon="13.184985"><ele>239.57142857142858</ele><time>2026-04-26T13:46:31.234Z</time></trkpt><trkpt lat="43.2283867" lon="13.1849017"><ele>239.28571428571433</ele><time>2026-04-26T13:46:32.23Z</time></trkpt><trkpt lat="43.228425" lon="13.1848033"><ele>239.00000000000003</ele><time>2026-04-26T13:46:33.236Z</time></trkpt><trkpt lat="43.2284583" lon="13.1846967"><ele>239.00000000000003</ele><time>2026-04-26T13:46:34.236Z</time></trkpt><trkpt lat="43.22849" lon="13.184595"><ele>239.0</ele><time>2026-04-26T13:46:35.232Z</time></trkpt><trkpt lat="43.2285217" lon="13.1845067"><ele>239.0</ele><time>2026-04-26T13:46:36.234Z</time></trkpt><trkpt lat="43.2285583" lon="13.1844233"><ele>239.0</ele><time>2026-04-26T13:46:37.235Z</time></trkpt><trkpt lat="43.2286" lon="13.1843383"><ele>239.00000000000003</ele><time>2026-04-26T13:46:38.235Z</time></trkpt><trkpt lat="43.2286467" lon="13.1842467"><ele>239.0</ele><time>2026-04-26T13:46:39.234Z</time></trkpt><trkpt lat="43.2287033" lon="13.1841467"><ele>239.0</ele><time>2026-04-26T13:46:40.233Z</time></trkpt><trkpt lat="43.2287633" lon="13.18404"><ele>238.99999999999997</ele><time>2026-04-26T13:46:41.233Z</time></trkpt><trkpt lat="43.2288283" lon="13.1839267"><ele>238.99999999999997</ele><time>2026-04-26T13:46:42.233Z</time></trkpt><trkpt lat="43.2288917" lon="13.18382"><ele>239.0</ele><time>2026-04-26T13:46:43.232Z</time></trkpt><trkpt lat="43.2289533" lon="13.18371"><ele>239.0</ele><time>2026-04-26T13:46:44.236Z</time></trkpt><trkpt lat="43.2290067" lon="13.1835933"><ele>239.00000000000003</ele><time>2026-04-26T13:46:45.239Z</time></trkpt><trkpt lat="43.22906" lon="13.1834883"><ele>239.0</ele><time>2026-04-26T13:46:46.233Z</time></trkpt><trkpt lat="43.2291117" lon="13.1833983"><ele>239.0</ele><time>2026-04-26T13:46:47.234Z</time></trkpt><trkpt lat="43.22916" lon="13.1833117"><ele>239.0</ele><time>2026-04-26T13:46:48.238Z</time></trkpt><trkpt lat="43.2292033" lon="13.183225"><ele>239.00000000000003</ele><time>2026-04-26T13:46:49.233Z</time></trkpt><trkpt lat="43.229255" lon="13.1831433"><ele>239.0</ele><time>2026-04-26T13:46:50.236Z</time></trkpt><trkpt lat="43.2293017" lon="13.1830667"><ele>238.79999999999998</ele><time>2026-04-26T13:46:51.235Z</time></trkpt><trkpt lat="43.2293717" lon="13.1829533"><ele>238.59999999999997</ele><time>2026-04-26T13:46:53.233Z</time></trkpt><trkpt lat="43.22941" lon="13.1828767"><ele>238.4</ele><time>2026-04-26T13:46:55.231Z</time></trkpt><trkpt lat="43.2294817" lon="13.1827983"><ele>238.2</ele><time>2026-04-26T13:46:57.232Z</time></trkpt><trkpt lat="43.2295267" lon="13.1826767"><ele>238.0</ele><time>2026-04-26T13:46:59.233Z</time></trkpt><trkpt lat="43.2295017" lon="13.1825233"><ele>238.2</ele><time>2026-04-26T13:47:01.237Z</time></trkpt><trkpt lat="43.2294833" lon="13.1823267"><ele>238.4</ele><time>2026-04-26T13:47:03.233Z</time></trkpt><trkpt lat="43.22949" lon="13.1822067"><ele>238.59999999999997</ele><time>2026-04-26T13:47:04.236Z</time></trkpt><trkpt lat="43.2295017" lon="13.1820683"><ele>238.79999999999998</ele><time>2026-04-26T13:47:05.237Z</time></trkpt><trkpt lat="43.229515" lon="13.1819283"><ele>239.0</ele><time>2026-04-26T13:47:06.234Z</time></trkpt><trkpt lat="43.22953" lon="13.1817817"><ele>239.0</ele><time>2026-04-26T13:47:07.233Z</time></trkpt><trkpt lat="43.2295483" lon="13.1816333"><ele>238.99999999999997</ele><time>2026-04-26T13:47:08.232Z</time></trkpt><trkpt lat="43.2295667" lon="13.1814867"><ele>238.99999999999997</ele><time>2026-04-26T13:47:09.233Z</time></trkpt><trkpt lat="43.2295833" lon="13.1813483"><ele>239.0</ele><time>2026-04-26T13:47:10.231Z</time></trkpt><trkpt lat="43.2296017" lon="13.181225"><ele>239.0</ele><time>2026-04-26T13:47:11.232Z</time></trkpt><trkpt lat="43.229625" lon="13.1811183"><ele>239.16666666666669</ele><time>2026-04-26T13:47:12.237Z</time></trkpt><trkpt lat="43.22965" lon="13.1810217"><ele>239.33333333333334</ele><time>2026-04-26T13:47:13.233Z</time></trkpt><trkpt lat="43.22968" lon="13.18093"><ele>239.5</ele><time>2026-04-26T13:47:14.232Z</time></trkpt><trkpt lat="43.22971" lon="13.1808333"><ele>239.66666666666669</ele><time>2026-04-26T13:47:15.237Z</time></trkpt><trkpt lat="43.229745" lon="13.180735"><ele>239.83333333333334</ele><time>2026-04-26T13:47:16.233Z</time></trkpt><trkpt lat="43.2297833" lon="13.18063"><ele>240.0</ele><time>2026-04-26T13:47:17.232Z</time></trkpt><trkpt lat="43.22982" lon="13.1805233"><ele>239.16666666666666</ele><time>2026-04-26T13:47:18.235Z</time></trkpt><trkpt lat="43.229855" lon="13.1804233"><ele>238.33333333333331</ele><time>2026-04-26T13:47:19.235Z</time></trkpt><trkpt lat="43.229885" lon="13.180335"><ele>237.5</ele><time>2026-04-26T13:47:20.232Z</time></trkpt><trkpt lat="43.2299333" lon="13.1802017"><ele>236.66666666666666</ele><time>2026-04-26T13:47:22.234Z</time></trkpt><trkpt lat="43.2299733" lon="13.18013"><ele>235.83333333333331</ele><time>2026-04-26T13:47:26.234Z</time></trkpt><trkpt lat="43.2300533" lon="13.1801267"><ele>235.0</ele><time>2026-04-26T13:47:28.234Z</time></trkpt><trkpt lat="43.2301217" lon="13.180145"><ele>235.0</ele><time>2026-04-26T13:47:29.236Z</time></trkpt><trkpt lat="43.2302067" lon="13.18017"><ele>235.0</ele><time>2026-04-26T13:47:30.235Z</time></trkpt><trkpt lat="43.230295" lon="13.1801933"><ele>235.0</ele><time>2026-04-26T13:47:31.234Z</time></trkpt><trkpt lat="43.2303867" lon="13.18022"><ele>235.0</ele><time>2026-04-26T13:47:32.238Z</time></trkpt><trkpt lat="43.2304817" lon="13.1802517"><ele>235.0</ele><time>2026-04-26T13:47:33.233Z</time></trkpt><trkpt lat="43.2305783" lon="13.1802733"><ele>234.6</ele><time>2026-04-26T13:47:34.232Z</time></trkpt><trkpt lat="43.23067" lon="13.1803067"><ele>234.2</ele><time>2026-04-26T13:47:35.234Z</time></trkpt><trkpt lat="43.23077" lon="13.18033"><ele>233.8</ele><time>2026-04-26T13:47:36.234Z</time></trkpt><trkpt lat="43.2308717" lon="13.180355"><ele>233.4</ele><time>2026-04-26T13:47:37.234Z</time></trkpt><trkpt lat="43.2309783" lon="13.1803767"><ele>233.0</ele><time>2026-04-26T13:47:38.232Z</time></trkpt><trkpt lat="43.2310883" lon="13.1803883"><ele>233.0</ele><time>2026-04-26T13:47:39.235Z</time></trkpt><trkpt lat="43.2311967" lon="13.1804"><ele>233.0</ele><time>2026-04-26T13:47:40.232Z</time></trkpt><trkpt lat="43.2312967" lon="13.18042"><ele>233.0</ele><time>2026-04-26T13:47:41.232Z</time></trkpt><trkpt lat="43.2313933" lon="13.1804383"><ele>233.0</ele><time>2026-04-26T13:47:42.235Z</time></trkpt><trkpt lat="43.2314833" lon="13.1804533"><ele>233.0</ele><time>2026-04-26T13:47:43.232Z</time></trkpt><trkpt lat="43.23156" lon="13.1804733"><ele>233.50000000000003</ele><time>2026-04-26T13:47:44.233Z</time></trkpt><trkpt lat="43.2316317" lon="13.1805067"><ele>234.0</ele><time>2026-04-26T13:47:45.234Z</time></trkpt><trkpt lat="43.2317017" lon="13.1805283"><ele>234.5</ele><time>2026-04-26T13:47:46.235Z</time></trkpt><trkpt lat="43.2317833" lon="13.1805417"><ele>235.0</ele><time>2026-04-26T13:47:47.233Z</time></trkpt><trkpt lat="43.231875" lon="13.180555"><ele>235.50000000000003</ele><time>2026-04-26T13:47:48.232Z</time></trkpt><trkpt lat="43.2319767" lon="13.1805717"><ele>236.0</ele><time>2026-04-26T13:47:49.236Z</time></trkpt><trkpt lat="43.2320867" lon="13.1805883"><ele>236.0</ele><time>2026-04-26T13:47:50.234Z</time></trkpt><trkpt lat="43.232205" lon="13.1805933"><ele>236.0</ele><time>2026-04-26T13:47:51.232Z</time></trkpt><trkpt lat="43.232325" lon="13.1805933"><ele>236.0</ele><time>2026-04-26T13:47:52.231Z</time></trkpt><trkpt lat="43.232445" lon="13.18062"><ele>236.0</ele><time>2026-04-26T13:47:53.231Z</time></trkpt><trkpt lat="43.2325817" lon="13.18067"><ele>235.0</ele><time>2026-04-26T13:47:54.232Z</time></trkpt><trkpt lat="43.2326967" lon="13.1807067"><ele>234.00000000000003</ele><time>2026-04-26T13:47:55.234Z</time></trkpt><trkpt lat="43.232805" lon="13.1807333"><ele>233.00000000000003</ele><time>2026-04-26T13:47:56.23Z</time></trkpt><trkpt lat="43.2329033" lon="13.1807567"><ele>232.0</ele><time>2026-04-26T13:47:57.233Z</time></trkpt><trkpt lat="43.2330033" lon="13.18079"><ele>231.0</ele><time>2026-04-26T13:47:58.229Z</time></trkpt><trkpt lat="43.2331033" lon="13.1808333"><ele>232.0</ele><time>2026-04-26T13:47:59.233Z</time></trkpt><trkpt lat="43.23318" lon="13.1809133"><ele>233.00000000000003</ele><time>2026-04-26T13:48:00.234Z</time></trkpt><trkpt lat="43.2332433" lon="13.1810017"><ele>234.00000000000003</ele><time>2026-04-26T13:48:01.232Z</time></trkpt><trkpt lat="43.2332983" lon="13.1811"><ele>235.0</ele><time>2026-04-26T13:48:02.236Z</time></trkpt><trkpt lat="43.2333433" lon="13.1812067"><ele>236.0</ele><time>2026-04-26T13:48:03.232Z</time></trkpt><trkpt lat="43.2333833" lon="13.1813117"><ele>236.00000000000003</ele><time>2026-04-26T13:48:04.232Z</time></trkpt><trkpt lat="43.2334283" lon="13.18142"><ele>236.0</ele><time>2026-04-26T13:48:05.231Z</time></trkpt><trkpt lat="43.23347" lon="13.1815333"><ele>236.0</ele><time>2026-04-26T13:48:06.232Z</time></trkpt><trkpt lat="43.2335133" lon="13.1816417"><ele>236.0</ele><time>2026-04-26T13:48:07.23Z</time></trkpt><trkpt lat="43.233555" lon="13.1817383"><ele>236.00000000000003</ele><time>2026-04-26T13:48:08.231Z</time></trkpt><trkpt lat="43.2335933" lon="13.18183"><ele>236.0</ele><time>2026-04-26T13:48:09.23Z</time></trkpt><trkpt lat="43.23363" lon="13.1819267"><ele>235.50000000000003</ele><time>2026-04-26T13:48:10.233Z</time></trkpt><trkpt lat="43.233665" lon="13.18202"><ele>235.0</ele><time>2026-04-26T13:48:11.234Z</time></trkpt><trkpt lat="43.2337017" lon="13.1821117"><ele>234.5</ele><time>2026-04-26T13:48:12.232Z</time></trkpt><trkpt lat="43.2337367" lon="13.182205"><ele>234.0</ele><time>2026-04-26T13:48:13.231Z</time></trkpt><trkpt lat="43.2337667" lon="13.1822833"><ele>233.50000000000003</ele><time>2026-04-26T13:48:14.232Z</time></trkpt><trkpt lat="43.2338367" lon="13.18238"><ele>233.0</ele><time>2026-04-26T13:48:16.233Z</time></trkpt><trkpt lat="43.2339033" lon="13.1824233"><ele>233.00000000000003</ele><time>2026-04-26T13:48:18.231Z</time></trkpt><trkpt lat="43.2339733" lon="13.1824733"><ele>233.0</ele><time>2026-04-26T13:48:21.231Z</time></trkpt><trkpt lat="43.2340033" lon="13.1826067"><ele>233.0</ele><time>2026-04-26T13:52:46.233Z</time></trkpt><trkpt lat="43.2339767" lon="13.1826933"><ele>233.0</ele><time>2026-04-26T13:52:49.24Z</time></trkpt><trkpt lat="43.2339283" lon="13.1827917"><ele>233.00000000000003</ele><time>2026-04-26T13:52:52.234Z</time></trkpt><trkpt lat="43.2339333" lon="13.1829283"><ele>233.0</ele><time>2026-04-26T13:52:54.232Z</time></trkpt><trkpt lat="43.23395" lon="13.1830167"><ele>233.00000000000003</ele><time>2026-04-26T13:52:55.233Z</time></trkpt><trkpt lat="43.2339683" lon="13.183105"><ele>233.0</ele><time>2026-04-26T13:52:56.233Z</time></trkpt><trkpt lat="43.2339883" lon="13.1832117"><ele>233.0</ele><time>2026-04-26T13:52:57.236Z</time></trkpt><trkpt lat="43.23401" lon="13.1833333"><ele>233.0</ele><time>2026-04-26T13:52:58.237Z</time></trkpt><trkpt lat="43.2340367" lon="13.1834617"><ele>233.00000000000003</ele><time>2026-04-26T13:52:59.235Z</time></trkpt><trkpt lat="43.2340583" lon="13.1836017"><ele>233.0</ele><time>2026-04-26T13:53:00.232Z</time></trkpt><trkpt lat="43.2340817" lon="13.1837467"><ele>233.16666666666669</ele><time>2026-04-26T13:53:01.233Z</time></trkpt><trkpt lat="43.2341033" lon="13.1838717"><ele>233.33333333333334</ele><time>2026-04-26T13:53:02.233Z</time></trkpt><trkpt lat="43.2341217" lon="13.1839833"><ele>233.5</ele><time>2026-04-26T13:53:03.231Z</time></trkpt><trkpt lat="43.2341383" lon="13.1840833"><ele>233.66666666666669</ele><time>2026-04-26T13:53:04.229Z</time></trkpt><trkpt lat="43.2341533" lon="13.18417"><ele>233.83333333333334</ele><time>2026-04-26T13:53:05.229Z</time></trkpt><trkpt lat="43.2341867" lon="13.18434"><ele>234.0</ele><time>2026-04-26T13:53:07.234Z</time></trkpt><trkpt lat="43.2342067" lon="13.18444"><ele>234.0</ele><time>2026-04-26T13:53:08.231Z</time></trkpt><trkpt lat="43.234235" lon="13.1845733"><ele>233.99999999999997</ele><time>2026-04-26T13:53:09.23Z</time></trkpt><trkpt lat="43.2342617" lon="13.18472"><ele>233.99999999999997</ele><time>2026-04-26T13:53:10.23Z</time></trkpt><trkpt lat="43.23429" lon="13.1848533"><ele>234.0</ele><time>2026-04-26T13:53:11.236Z</time></trkpt><trkpt lat="43.2343133" lon="13.1849733"><ele>234.0</ele><time>2026-04-26T13:53:12.225Z</time></trkpt><trkpt lat="43.23434" lon="13.18509"><ele>233.85714285714286</ele><time>2026-04-26T13:53:13.229Z</time></trkpt><trkpt lat="43.2343633" lon="13.1851983"><ele>233.71428571428572</ele><time>2026-04-26T13:53:14.226Z</time></trkpt><trkpt lat="43.2343717" lon="13.1853017"><ele>233.57142857142858</ele><time>2026-04-26T13:53:15.23Z</time></trkpt><trkpt lat="43.2343517" lon="13.1853917"><ele>233.42857142857144</ele><time>2026-04-26T13:53:16.233Z</time></trkpt><trkpt lat="43.2343167" lon="13.1854817"><ele>233.28571428571428</ele><time>2026-04-26T13:53:17.233Z</time></trkpt><trkpt lat="43.2342833" lon="13.1855733"><ele>233.14285714285717</ele><time>2026-04-26T13:53:18.233Z</time></trkpt><trkpt lat="43.2342583" lon="13.1856683"><ele>233.0</ele><time>2026-04-26T13:53:19.238Z</time></trkpt><trkpt lat="43.2342517" lon="13.185765"><ele>233.0</ele><time>2026-04-26T13:53:20.23Z</time></trkpt><trkpt lat="43.234335" lon="13.1858433"><ele>233.0</ele><time>2026-04-26T13:53:22.234Z</time></trkpt><trkpt lat="43.2344367" lon="13.1857933"><ele>233.0</ele><time>2026-04-26T13:53:24.233Z</time></trkpt><trkpt lat="43.2345017" lon="13.185725"><ele>233.0</ele><time>2026-04-26T13:53:25.23Z</time></trkpt><trkpt lat="43.2345867" lon="13.1856683"><ele>233.0</ele><time>2026-04-26T13:53:26.239Z</time></trkpt><trkpt lat="43.2347117" lon="13.1856667"><ele>233.25</ele><time>2026-04-26T13:53:27.237Z</time></trkpt><trkpt lat="43.23485" lon="13.1856933"><ele>233.5</ele><time>2026-04-26T13:53:28.244Z</time></trkpt><trkpt lat="43.235" lon="13.1857283"><ele>233.75</ele><time>2026-04-26T13:53:29.233Z</time></trkpt><trkpt lat="43.2351517" lon="13.1857567"><ele>234.0</ele><time>2026-04-26T13:53:30.232Z</time></trkpt><trkpt lat="43.23531" lon="13.1857917"><ele>234.0</ele><time>2026-04-26T13:53:31.231Z</time></trkpt><trkpt lat="43.23547" lon="13.185825"><ele>234.0</ele><time>2026-04-26T13:53:32.228Z</time></trkpt><trkpt lat="43.23563" lon="13.1858583"><ele>234.0</ele><time>2026-04-26T13:53:33.237Z</time></trkpt><trkpt lat="43.2357767" lon="13.18589"><ele>236.0</ele><time>2026-04-26T13:53:34.234Z</time></trkpt><trkpt lat="43.2359133" lon="13.18592"><ele>238.0</ele><time>2026-04-26T13:53:35.235Z</time></trkpt><trkpt lat="43.23605" lon="13.1859483"><ele>240.0</ele><time>2026-04-26T13:53:36.234Z</time></trkpt><trkpt lat="43.236185" lon="13.1859733"><ele>242.0</ele><time>2026-04-26T13:53:37.238Z</time></trkpt><trkpt lat="43.23631" lon="13.1860033"><ele>242.0</ele><time>2026-04-26T13:53:38.23Z</time></trkpt><trkpt lat="43.2364133" lon="13.1860533"><ele>242.0</ele><time>2026-04-26T13:53:39.238Z</time></trkpt><trkpt lat="43.2364917" lon="13.1861333"><ele>242.0</ele><time>2026-04-26T13:53:40.235Z</time></trkpt><trkpt lat="43.2365667" lon="13.1862667"><ele>242.0</ele><time>2026-04-26T13:53:41.236Z</time></trkpt><trkpt lat="43.2366267" lon="13.18643"><ele>244.33333333333334</ele><time>2026-04-26T13:53:42.235Z</time></trkpt><trkpt lat="43.2366683" lon="13.1866167"><ele>246.66666666666669</ele><time>2026-04-26T13:53:43.245Z</time></trkpt><trkpt lat="43.236705" lon="13.186825"><ele>249.0</ele><time>2026-04-26T13:53:44.233Z</time></trkpt><trkpt lat="43.236745" lon="13.18705"><ele>249.0</ele><time>2026-04-26T13:53:45.232Z</time></trkpt><trkpt lat="43.2367883" lon="13.1872867"><ele>249.0</ele><time>2026-04-26T13:53:46.231Z</time></trkpt><trkpt lat="43.236835" lon="13.1875267"><ele>249.0</ele><time>2026-04-26T13:53:47.234Z</time></trkpt><trkpt lat="43.2368867" lon="13.1877667"><ele>247.66666666666669</ele><time>2026-04-26T13:53:48.232Z</time></trkpt><trkpt lat="43.23694" lon="13.1879967"><ele>246.33333333333334</ele><time>2026-04-26T13:53:49.233Z</time></trkpt><trkpt lat="43.2369983" lon="13.18821"><ele>245.0</ele><time>2026-04-26T13:53:50.234Z</time></trkpt><trkpt lat="43.2370633" lon="13.18841"><ele>244.5</ele><time>2026-04-26T13:53:51.234Z</time></trkpt><trkpt lat="43.2371333" lon="13.1885967"><ele>244.0</ele><time>2026-04-26T13:53:52.233Z</time></trkpt><trkpt lat="43.2371983" lon="13.1887717"><ele>243.5</ele><time>2026-04-26T13:53:53.232Z</time></trkpt><trkpt lat="43.2372417" lon="13.1889317"><ele>243.0</ele><time>2026-04-26T13:53:54.235Z</time></trkpt><trkpt lat="43.237255" lon="13.1890783"><ele>243.0</ele><time>2026-04-26T13:53:55.23Z</time></trkpt><trkpt lat="43.237235" lon="13.1892117"><ele>243.0</ele><time>2026-04-26T13:53:56.233Z</time></trkpt><trkpt lat="43.2371983" lon="13.18933"><ele>243.0</ele><time>2026-04-26T13:53:57.233Z</time></trkpt><trkpt lat="43.23718" lon="13.1894383"><ele>243.0</ele><time>2026-04-26T13:53:58.235Z</time></trkpt><trkpt lat="43.2371883" lon="13.189535"><ele>243.0</ele><time>2026-04-26T13:53:59.232Z</time></trkpt><trkpt lat="43.23731" lon="13.1896183"><ele>244.0</ele><time>2026-04-26T13:54:01.226Z</time></trkpt><trkpt lat="43.2374083" lon="13.18963"><ele>245.0</ele><time>2026-04-26T13:54:02.232Z</time></trkpt><trkpt lat="43.2375617" lon="13.1896317"><ele>246.0</ele><time>2026-04-26T13:54:03.231Z</time></trkpt><trkpt lat="43.23771" lon="13.18963"><ele>247.0</ele><time>2026-04-26T13:54:04.231Z</time></trkpt><trkpt lat="43.2378567" lon="13.18962"><ele>247.0</ele><time>2026-04-26T13:54:05.233Z</time></trkpt><trkpt lat="43.2380167" lon="13.1895917"><ele>247.0</ele><time>2026-04-26T13:54:06.233Z</time></trkpt><trkpt lat="43.2381933" lon="13.1895233"><ele>247.0</ele><time>2026-04-26T13:54:07.234Z</time></trkpt><trkpt lat="43.238375" lon="13.1893983"><ele>248.0</ele><time>2026-04-26T13:54:08.233Z</time></trkpt><trkpt lat="43.2385717" lon="13.189215"><ele>249.0</ele><time>2026-04-26T13:54:09.235Z</time></trkpt><trkpt lat="43.2387767" lon="13.1889917"><ele>253.0</ele><time>2026-04-26T13:54:10.246Z</time></trkpt><trkpt lat="43.23898" lon="13.188755"><ele>257.0</ele><time>2026-04-26T13:54:11.232Z</time></trkpt><trkpt lat="43.2391833" lon="13.18853"><ele>257.0</ele><time>2026-04-26T13:54:12.232Z</time></trkpt><trkpt lat="43.23938" lon="13.1883183"><ele>257.0</ele><time>2026-04-26T13:54:13.234Z</time></trkpt><trkpt lat="43.2395617" lon="13.18812"><ele>256.0</ele><time>2026-04-26T13:54:14.235Z</time></trkpt><trkpt lat="43.239735" lon="13.1879333"><ele>255.0</ele><time>2026-04-26T13:54:15.238Z</time></trkpt><trkpt lat="43.2399083" lon="13.1877617"><ele>254.0</ele><time>2026-04-26T13:54:16.236Z</time></trkpt><trkpt lat="43.2400783" lon="13.187615"><ele>256.0</ele><time>2026-04-26T13:54:17.233Z</time></trkpt><trkpt lat="43.2402517" lon="13.1874917"><ele>258.0</ele><time>2026-04-26T13:54:18.234Z</time></trkpt><trkpt lat="43.2404333" lon="13.18739"><ele>260.0</ele><time>2026-04-26T13:54:19.234Z</time></trkpt><trkpt lat="43.240625" lon="13.1873083"><ele>262.33333333333337</ele><time>2026-04-26T13:54:20.237Z</time></trkpt><trkpt lat="43.240825" lon="13.187245"><ele>264.6666666666667</ele><time>2026-04-26T13:54:21.236Z</time></trkpt><trkpt lat="43.2410333" lon="13.1871917"><ele>267.0</ele><time>2026-04-26T13:54:22.237Z</time></trkpt><trkpt lat="43.2412417" lon="13.1871483"><ele>267.0</ele><time>2026-04-26T13:54:23.233Z</time></trkpt><trkpt lat="43.2414533" lon="13.187095"><ele>267.0</ele><time>2026-04-26T13:54:24.244Z</time></trkpt><trkpt lat="43.2416617" lon="13.18704"><ele>267.0</ele><time>2026-04-26T13:54:25.236Z</time></trkpt><trkpt lat="43.2418567" lon="13.1869883"><ele>267.3333333333333</ele><time>2026-04-26T13:54:26.236Z</time></trkpt><trkpt lat="43.24204" lon="13.1869417"><ele>267.66666666666663</ele><time>2026-04-26T13:54:27.234Z</time></trkpt><trkpt lat="43.24222" lon="13.1868983"><ele>268.0</ele><time>2026-04-26T13:54:28.233Z</time></trkpt><trkpt lat="43.2424033" lon="13.1868667"><ele>267.3333333333333</ele><time>2026-04-26T13:54:29.233Z</time></trkpt><trkpt lat="43.2425883" lon="13.18685"><ele>266.6666666666667</ele><time>2026-04-26T13:54:30.235Z</time></trkpt><trkpt lat="43.2427767" lon="13.1868533"><ele>266.0</ele><time>2026-04-26T13:54:31.239Z</time></trkpt><trkpt lat="43.242965" lon="13.186885"><ele>266.6666666666667</ele><time>2026-04-26T13:54:32.236Z</time></trkpt><trkpt lat="43.243155" lon="13.1869467"><ele>267.3333333333333</ele><time>2026-04-26T13:54:33.236Z</time></trkpt><trkpt lat="43.24335" lon="13.1870283"><ele>268.0</ele><time>2026-04-26T13:54:34.232Z</time></trkpt><trkpt lat="43.2435517" lon="13.1871333"><ele>268.0</ele><time>2026-04-26T13:54:35.232Z</time></trkpt><trkpt lat="43.2437633" lon="13.18725"><ele>268.0</ele><time>2026-04-26T13:54:36.239Z</time></trkpt><trkpt lat="43.2439817" lon="13.1873667"><ele>266.5</ele><time>2026-04-26T13:54:37.235Z</time></trkpt><trkpt lat="43.244195" lon="13.18749"><ele>265.0</ele><time>2026-04-26T13:54:38.234Z</time></trkpt><trkpt lat="43.24442" lon="13.1876133"><ele>265.0</ele><time>2026-04-26T13:54:39.236Z</time></trkpt><trkpt lat="43.24464" lon="13.1877433"><ele>265.0</ele><time>2026-04-26T13:54:40.231Z</time></trkpt><trkpt lat="43.2448733" lon="13.18787"><ele>265.5</ele><time>2026-04-26T13:54:41.234Z</time></trkpt><trkpt lat="43.2451083" lon="13.1879983"><ele>266.0</ele><time>2026-04-26T13:54:42.239Z</time></trkpt><trkpt lat="43.24535" lon="13.188125"><ele>264.0</ele><time>2026-04-26T13:54:43.231Z</time></trkpt><trkpt lat="43.2455967" lon="13.1882567"><ele>262.0</ele><time>2026-04-26T13:54:44.234Z</time></trkpt><trkpt lat="43.2458533" lon="13.1883867"><ele>260.0</ele><time>2026-04-26T13:54:45.232Z</time></trkpt><trkpt lat="43.24611" lon="13.1885233"><ele>258.0</ele><time>2026-04-26T13:54:46.234Z</time></trkpt><trkpt lat="43.2463633" lon="13.18866"><ele>256.5</ele><time>2026-04-26T13:54:47.232Z</time></trkpt><trkpt lat="43.2466083" lon="13.18879"><ele>255.0</ele><time>2026-04-26T13:54:48.232Z</time></trkpt><trkpt lat="43.2468517" lon="13.18892"><ele>255.0</ele><time>2026-04-26T13:54:49.234Z</time></trkpt><trkpt lat="43.2470933" lon="13.18905"><ele>255.0</ele><time>2026-04-26T13:54:50.236Z</time></trkpt><trkpt lat="43.2473333" lon="13.1891767"><ele>255.5</ele><time>2026-04-26T13:54:51.227Z</time></trkpt><trkpt lat="43.24757" lon="13.1892983"><ele>256.0</ele><time>2026-04-26T13:54:52.236Z</time></trkpt><trkpt lat="43.2478017" lon="13.1894167"><ele>256.0</ele><time>2026-04-26T13:54:53.232Z</time></trkpt><trkpt lat="43.24803" lon="13.1895317"><ele>256.0</ele><time>2026-04-26T13:54:54.237Z</time></trkpt><trkpt lat="43.24826" lon="13.1896517"><ele>255.0</ele><time>2026-04-26T13:54:55.239Z</time></trkpt><trkpt lat="43.248485" lon="13.189775"><ele>254.0</ele><time>2026-04-26T13:54:56.233Z</time></trkpt><trkpt lat="43.2487067" lon="13.189895"><ele>254.0</ele><time>2026-04-26T13:54:57.235Z</time></trkpt><trkpt lat="43.248935" lon="13.1900133"><ele>254.0</ele><time>2026-04-26T13:54:58.233Z</time></trkpt><trkpt lat="43.249155" lon="13.1901283"><ele>254.0</ele><time>2026-04-26T13:54:59.232Z</time></trkpt><trkpt lat="43.2493633" lon="13.1902417"><ele>254.0</ele><time>2026-04-26T13:55:00.231Z</time></trkpt><trkpt lat="43.24957" lon="13.19035"><ele>254.0</ele><time>2026-04-26T13:55:01.232Z</time></trkpt><trkpt lat="43.2497783" lon="13.1904617"><ele>254.0</ele><time>2026-04-26T13:55:02.23Z</time></trkpt><trkpt lat="43.2499917" lon="13.1905733"><ele>254.0</ele><time>2026-04-26T13:55:03.228Z</time></trkpt><trkpt lat="43.2502067" lon="13.1906867"><ele>253.66666666666669</ele><time>2026-04-26T13:55:04.229Z</time></trkpt><trkpt lat="43.2504167" lon="13.1907967"><ele>253.33333333333331</ele><time>2026-04-26T13:55:05.231Z</time></trkpt><trkpt lat="43.2506233" lon="13.190905"><ele>253.0</ele><time>2026-04-26T13:55:06.255Z</time></trkpt><trkpt lat="43.25083" lon="13.1910133"><ele>254.0</ele><time>2026-04-26T13:55:07.232Z</time></trkpt><trkpt lat="43.2510383" lon="13.1911233"><ele>255.0</ele><time>2026-04-26T13:55:08.233Z</time></trkpt><trkpt lat="43.2512483" lon="13.1912333"><ele>256.0</ele><time>2026-04-26T13:55:09.238Z</time></trkpt><trkpt lat="43.2514567" lon="13.191345"><ele>256.0</ele><time>2026-04-26T13:55:10.234Z</time></trkpt><trkpt lat="43.2516633" lon="13.1914517"><ele>256.0</ele><time>2026-04-26T13:55:11.232Z</time></trkpt><trkpt lat="43.2518617" lon="13.1915567"><ele>256.0</ele><time>2026-04-26T13:55:12.232Z</time></trkpt><trkpt lat="43.2520583" lon="13.1916617"><ele>256.0</ele><time>2026-04-26T13:55:13.233Z</time></trkpt><trkpt lat="43.2522567" lon="13.19177"><ele>256.0</ele><time>2026-04-26T13:55:14.233Z</time></trkpt><trkpt lat="43.25245" lon="13.19187"><ele>256.0</ele><time>2026-04-26T13:55:15.233Z</time></trkpt><trkpt lat="43.252635" lon="13.1919633"><ele>256.0</ele><time>2026-04-26T13:55:16.236Z</time></trkpt><trkpt lat="43.2528133" lon="13.1920533"><ele>256.0</ele><time>2026-04-26T13:55:17.233Z</time></trkpt><trkpt lat="43.252985" lon="13.192145"><ele>256.0</ele><time>2026-04-26T13:55:18.232Z</time></trkpt><trkpt lat="43.2531533" lon="13.1922333"><ele>256.0</ele><time>2026-04-26T13:55:19.234Z</time></trkpt><trkpt lat="43.2533183" lon="13.1923183"><ele>256.0</ele><time>2026-04-26T13:55:20.23Z</time></trkpt><trkpt lat="43.2534833" lon="13.1924017"><ele>256.0</ele><time>2026-04-26T13:55:21.234Z</time></trkpt><trkpt lat="43.2536483" lon="13.1924867"><ele>256.3333333333333</ele><time>2026-04-26T13:55:22.233Z</time></trkpt><trkpt lat="43.2538167" lon="13.1925717"><ele>256.6666666666667</ele><time>2026-04-26T13:55:23.229Z</time></trkpt><trkpt lat="43.2539833" lon="13.1926583"><ele>257.0</ele><time>2026-04-26T13:55:24.234Z</time></trkpt><trkpt lat="43.2541483" lon="13.1927483"><ele>257.0</ele><time>2026-04-26T13:55:25.231Z</time></trkpt><trkpt lat="43.25431" lon="13.1928383"><ele>257.0</ele><time>2026-04-26T13:55:26.231Z</time></trkpt><trkpt lat="43.254475" lon="13.1929267"><ele>257.0</ele><time>2026-04-26T13:55:27.232Z</time></trkpt><trkpt lat="43.2546417" lon="13.1930167"><ele>257.0</ele><time>2026-04-26T13:55:28.23Z</time></trkpt><trkpt lat="43.2548083" lon="13.1931083"><ele>257.0</ele><time>2026-04-26T13:55:29.233Z</time></trkpt><trkpt lat="43.254975" lon="13.1931967"><ele>257.0</ele><time>2026-04-26T13:55:30.232Z</time></trkpt><trkpt lat="43.25514" lon="13.1932867"><ele>257.0</ele><time>2026-04-26T13:55:31.231Z</time></trkpt><trkpt lat="43.2553" lon="13.1933683"><ele>257.0</ele><time>2026-04-26T13:55:32.231Z</time></trkpt><trkpt lat="43.2554517" lon="13.1934467"><ele>257.0</ele><time>2026-04-26T13:55:33.235Z</time></trkpt><trkpt lat="43.2555883" lon="13.1935233"><ele>257.0</ele><time>2026-04-26T13:55:34.233Z</time></trkpt><trkpt lat="43.255715" lon="13.1935933"><ele>257.0</ele><time>2026-04-26T13:55:35.231Z</time></trkpt><trkpt lat="43.255835" lon="13.1936617"><ele>257.0</ele><time>2026-04-26T13:55:36.232Z</time></trkpt><trkpt lat="43.2559567" lon="13.19373"><ele>257.0</ele><time>2026-04-26T13:55:37.23Z</time></trkpt><trkpt lat="43.2560767" lon="13.1937967"><ele>257.0</ele><time>2026-04-26T13:55:38.229Z</time></trkpt><trkpt lat="43.2561933" lon="13.19386"><ele>257.0</ele><time>2026-04-26T13:55:39.234Z</time></trkpt><trkpt lat="43.25631" lon="13.193925"><ele>257.0</ele><time>2026-04-26T13:55:40.233Z</time></trkpt><trkpt lat="43.2564283" lon="13.1939933"><ele>257.0</ele><time>2026-04-26T13:55:41.234Z</time></trkpt><trkpt lat="43.25654" lon="13.1940567"><ele>256.75</ele><time>2026-04-26T13:55:42.231Z</time></trkpt><trkpt lat="43.256655" lon="13.19412"><ele>256.5</ele><time>2026-04-26T13:55:43.23Z</time></trkpt><trkpt lat="43.256775" lon="13.1941817"><ele>256.25</ele><time>2026-04-26T13:55:44.234Z</time></trkpt><trkpt lat="43.2569" lon="13.194245"><ele>256.0</ele><time>2026-04-26T13:55:45.236Z</time></trkpt><trkpt lat="43.25703" lon="13.1943083"><ele>256.0</ele><time>2026-04-26T13:55:46.231Z</time></trkpt><trkpt lat="43.2571533" lon="13.1943717"><ele>256.0</ele><time>2026-04-26T13:55:47.229Z</time></trkpt><trkpt lat="43.2572717" lon="13.19443"><ele>256.0</ele><time>2026-04-26T13:55:48.23Z</time></trkpt><trkpt lat="43.25739" lon="13.194485"><ele>256.0</ele><time>2026-04-26T13:55:49.231Z</time></trkpt><trkpt lat="43.2575217" lon="13.1945283"><ele>257.0</ele><time>2026-04-26T13:55:50.233Z</time></trkpt><trkpt lat="43.2576583" lon="13.1945633"><ele>258.0</ele><time>2026-04-26T13:55:51.232Z</time></trkpt><trkpt lat="43.2577933" lon="13.1945867"><ele>259.0</ele><time>2026-04-26T13:55:52.235Z</time></trkpt><trkpt lat="43.2579217" lon="13.1946083"><ele>260.0</ele><time>2026-04-26T13:55:53.233Z</time></trkpt><trkpt lat="43.25805" lon="13.1946267"><ele>260.25</ele><time>2026-04-26T13:55:54.233Z</time></trkpt><trkpt lat="43.2581883" lon="13.194645"><ele>260.5</ele><time>2026-04-26T13:55:55.235Z</time></trkpt><trkpt lat="43.2583283" lon="13.194665"><ele>260.75</ele><time>2026-04-26T13:55:56.231Z</time></trkpt><trkpt lat="43.2584717" lon="13.194685"><ele>261.0</ele><time>2026-04-26T13:55:57.234Z</time></trkpt><trkpt lat="43.25861" lon="13.194705"><ele>261.0</ele><time>2026-04-26T13:55:58.231Z</time></trkpt><trkpt lat="43.25874" lon="13.1947183"><ele>261.0</ele><time>2026-04-26T13:55:59.232Z</time></trkpt><trkpt lat="43.2588733" lon="13.1947367"><ele>261.0</ele><time>2026-04-26T13:56:00.233Z</time></trkpt><trkpt lat="43.259005" lon="13.194755"><ele>261.0</ele><time>2026-04-26T13:56:01.23Z</time></trkpt><trkpt lat="43.2591283" lon="13.1947717"><ele>260.25</ele><time>2026-04-26T13:56:02.23Z</time></trkpt><trkpt lat="43.2592533" lon="13.1947867"><ele>259.5</ele><time>2026-04-26T13:56:03.233Z</time></trkpt><trkpt lat="43.25938" lon="13.194805"><ele>258.75</ele><time>2026-04-26T13:56:04.234Z</time></trkpt><trkpt lat="43.25951" lon="13.194815"><ele>258.0</ele><time>2026-04-26T13:56:05.232Z</time></trkpt><trkpt lat="43.2596417" lon="13.1947983"><ele>258.0</ele><time>2026-04-26T13:56:06.235Z</time></trkpt><trkpt lat="43.2597733" lon="13.1947517"><ele>258.0</ele><time>2026-04-26T13:56:07.231Z</time></trkpt><trkpt lat="43.2599017" lon="13.1946983"><ele>258.0</ele><time>2026-04-26T13:56:08.233Z</time></trkpt><trkpt lat="43.2600267" lon="13.1946483"><ele>258.0</ele><time>2026-04-26T13:56:09.234Z</time></trkpt><trkpt lat="43.26015" lon="13.1945967"><ele>258.0</ele><time>2026-04-26T13:56:10.233Z</time></trkpt><trkpt lat="43.2602717" lon="13.1945433"><ele>258.0</ele><time>2026-04-26T13:56:11.234Z</time></trkpt><trkpt lat="43.2603933" lon="13.1944917"><ele>258.0</ele><time>2026-04-26T13:56:12.232Z</time></trkpt><trkpt lat="43.26051" lon="13.1944383"><ele>258.0</ele><time>2026-04-26T13:56:13.23Z</time></trkpt><trkpt lat="43.2606267" lon="13.1943833"><ele>258.0</ele><time>2026-04-26T13:56:14.231Z</time></trkpt><trkpt lat="43.260745" lon="13.1943317"><ele>258.0</ele><time>2026-04-26T13:56:15.231Z</time></trkpt><trkpt lat="43.2608633" lon="13.1942767"><ele>258.0</ele><time>2026-04-26T13:56:16.229Z</time></trkpt><trkpt lat="43.2609833" lon="13.19422"><ele>258.0</ele><time>2026-04-26T13:56:17.231Z</time></trkpt><trkpt lat="43.2611017" lon="13.19416"><ele>258.0</ele><time>2026-04-26T13:56:18.232Z</time></trkpt><trkpt lat="43.2612267" lon="13.1941017"><ele>258.0</ele><time>2026-04-26T13:56:19.235Z</time></trkpt><trkpt lat="43.2613467" lon="13.1940517"><ele>258.0</ele><time>2026-04-26T13:56:20.231Z</time></trkpt><trkpt lat="43.2614667" lon="13.1940067"><ele>258.0</ele><time>2026-04-26T13:56:21.234Z</time></trkpt><trkpt lat="43.2615917" lon="13.193975"><ele>260.5</ele><time>2026-04-26T13:56:22.232Z</time></trkpt><trkpt lat="43.2617133" lon="13.19395"><ele>263.0</ele><time>2026-04-26T13:56:23.232Z</time></trkpt><trkpt lat="43.261835" lon="13.193925"><ele>265.5</ele><time>2026-04-26T13:56:24.234Z</time></trkpt><trkpt lat="43.26196" lon="13.1939"><ele>268.0</ele><time>2026-04-26T13:56:25.234Z</time></trkpt><trkpt lat="43.262085" lon="13.193875"><ele>268.0</ele><time>2026-04-26T13:56:26.235Z</time></trkpt><trkpt lat="43.2622017" lon="13.19386"><ele>268.0</ele><time>2026-04-26T13:56:27.235Z</time></trkpt><trkpt lat="43.2623133" lon="13.1938417"><ele>268.0</ele><time>2026-04-26T13:56:28.234Z</time></trkpt><trkpt lat="43.262425" lon="13.1938217"><ele>268.0</ele><time>2026-04-26T13:56:29.233Z</time></trkpt><trkpt lat="43.2625417" lon="13.1938033"><ele>267.0</ele><time>2026-04-26T13:56:30.23Z</time></trkpt><trkpt lat="43.2626633" lon="13.19379"><ele>266.0</ele><time>2026-04-26T13:56:31.233Z</time></trkpt><trkpt lat="43.262785" lon="13.19377"><ele>265.0</ele><time>2026-04-26T13:56:32.234Z</time></trkpt><trkpt lat="43.26291" lon="13.1937533"><ele>264.0</ele><time>2026-04-26T13:56:33.234Z</time></trkpt><trkpt lat="43.2630383" lon="13.1937267"><ele>262.25</ele><time>2026-04-26T13:56:34.23Z</time></trkpt><trkpt lat="43.2631683" lon="13.19367"><ele>260.5</ele><time>2026-04-26T13:56:35.233Z</time></trkpt><trkpt lat="43.2632917" lon="13.1935933"><ele>258.75</ele><time>2026-04-26T13:56:36.231Z</time></trkpt><trkpt lat="43.2634067" lon="13.1934967"><ele>257.0</ele><time>2026-04-26T13:56:37.233Z</time></trkpt><trkpt lat="43.2635267" lon="13.193395"><ele>257.0</ele><time>2026-04-26T13:56:38.233Z</time></trkpt><trkpt lat="43.2636433" lon="13.1932817"><ele>257.0</ele><time>2026-04-26T13:56:39.234Z</time></trkpt><trkpt lat="43.2637517" lon="13.19317"><ele>257.0</ele><time>2026-04-26T13:56:40.233Z</time></trkpt><trkpt lat="43.26386" lon="13.19307"><ele>257.0</ele><time>2026-04-26T13:56:41.235Z</time></trkpt><trkpt lat="43.26397" lon="13.19296"><ele>256.5</ele><time>2026-04-26T13:56:42.231Z</time></trkpt><trkpt lat="43.264085" lon="13.1928433"><ele>256.0</ele><time>2026-04-26T13:56:43.234Z</time></trkpt><trkpt lat="43.2642" lon="13.1927333"><ele>255.5</ele><time>2026-04-26T13:56:44.232Z</time></trkpt><trkpt lat="43.264315" lon="13.192635"><ele>255.0</ele><time>2026-04-26T13:56:45.233Z</time></trkpt><trkpt lat="43.2644317" lon="13.1925483"><ele>255.0</ele><time>2026-04-26T13:56:46.234Z</time></trkpt><trkpt lat="43.26455" lon="13.1924717"><ele>255.0</ele><time>2026-04-26T13:56:47.232Z</time></trkpt><trkpt lat="43.2646767" lon="13.192395"><ele>255.0</ele><time>2026-04-26T13:56:48.231Z</time></trkpt><trkpt lat="43.2648033" lon="13.1923217"><ele>255.0</ele><time>2026-04-26T13:56:49.233Z</time></trkpt><trkpt lat="43.2649317" lon="13.19225"><ele>255.5</ele><time>2026-04-26T13:56:50.235Z</time></trkpt><trkpt lat="43.2650533" lon="13.1921767"><ele>256.0</ele><time>2026-04-26T13:56:51.233Z</time></trkpt><trkpt lat="43.2651733" lon="13.1921067"><ele>256.5</ele><time>2026-04-26T13:56:52.232Z</time></trkpt><trkpt lat="43.2652933" lon="13.1920317"><ele>257.0</ele><time>2026-04-26T13:56:53.23Z</time></trkpt><trkpt lat="43.2654167" lon="13.1919667"><ele>257.0</ele><time>2026-04-26T13:56:54.236Z</time></trkpt><trkpt lat="43.2655367" lon="13.19189"><ele>257.0</ele><time>2026-04-26T13:56:55.233Z</time></trkpt><trkpt lat="43.26566" lon="13.1918133"><ele>257.0</ele><time>2026-04-26T13:56:56.233Z</time></trkpt><trkpt lat="43.26579" lon="13.19173"><ele>257.0</ele><time>2026-04-26T13:56:57.233Z</time></trkpt><trkpt lat="43.2659283" lon="13.1916467"><ele>258.33333333333337</ele><time>2026-04-26T13:56:58.23Z</time></trkpt><trkpt lat="43.2660817" lon="13.1915583"><ele>259.6666666666667</ele><time>2026-04-26T13:56:59.232Z</time></trkpt><trkpt lat="43.266255" lon="13.1914483"><ele>261.0</ele><time>2026-04-26T13:57:00.234Z</time></trkpt><trkpt lat="43.26642" lon="13.1913267"><ele>266.0</ele><time>2026-04-26T13:57:01.233Z</time></trkpt><trkpt lat="43.266575" lon="13.191205"><ele>271.0</ele><time>2026-04-26T13:57:02.231Z</time></trkpt><trkpt lat="43.26673" lon="13.1910817"><ele>276.0</ele><time>2026-04-26T13:57:03.232Z</time></trkpt><trkpt lat="43.266885" lon="13.19095"><ele>276.0</ele><time>2026-04-26T13:57:04.232Z</time></trkpt><trkpt lat="43.2670567" lon="13.1908033"><ele>276.0</ele><time>2026-04-26T13:57:05.231Z</time></trkpt><trkpt lat="43.2672333" lon="13.1906433"><ele>276.0</ele><time>2026-04-26T13:57:06.234Z</time></trkpt><trkpt lat="43.2673933" lon="13.1904717"><ele>280.0</ele><time>2026-04-26T13:57:07.23Z</time></trkpt><trkpt lat="43.2675333" lon="13.19028"><ele>284.0</ele><time>2026-04-26T13:57:08.233Z</time></trkpt><trkpt lat="43.2676783" lon="13.1900933"><ele>288.0</ele><time>2026-04-26T13:57:09.233Z</time></trkpt><trkpt lat="43.2678267" lon="13.18994"><ele>296.0</ele><time>2026-04-26T13:57:10.232Z</time></trkpt><trkpt lat="43.2679983" lon="13.1898317"><ele>304.0</ele><time>2026-04-26T13:57:11.232Z</time></trkpt><trkpt lat="43.2681783" lon="13.1897933"><ele>312.0</ele><time>2026-04-26T13:57:12.233Z</time></trkpt><trkpt lat="43.2683567" lon="13.18983"><ele>300.0</ele><time>2026-04-26T13:57:13.233Z</time></trkpt><trkpt lat="43.2685217" lon="13.1898833"><ele>288.0</ele><time>2026-04-26T13:57:14.234Z</time></trkpt><trkpt lat="43.2686783" lon="13.1899383"><ele>276.0</ele><time>2026-04-26T13:57:15.234Z</time></trkpt><trkpt lat="43.2688333" lon="13.189985"><ele>276.3333333333333</ele><time>2026-04-26T13:57:16.232Z</time></trkpt><trkpt lat="43.2690017" lon="13.1899883"><ele>276.66666666666663</ele><time>2026-04-26T13:57:17.234Z</time></trkpt><trkpt lat="43.26917" lon="13.1899483"><ele>277.0</ele><time>2026-04-26T13:57:18.233Z</time></trkpt><trkpt lat="43.269345" lon="13.1898667"><ele>281.3333333333333</ele><time>2026-04-26T13:57:19.232Z</time></trkpt><trkpt lat="43.26953" lon="13.1897467"><ele>285.6666666666667</ele><time>2026-04-26T13:57:20.233Z</time></trkpt><trkpt lat="43.2697233" lon="13.1896083"><ele>290.0</ele><time>2026-04-26T13:57:21.233Z</time></trkpt><trkpt lat="43.269915" lon="13.1894567"><ele>290.0</ele><time>2026-04-26T13:57:22.23Z</time></trkpt><trkpt lat="43.270095" lon="13.1892933"><ele>290.0</ele><time>2026-04-26T13:57:23.232Z</time></trkpt><trkpt lat="43.27026" lon="13.18912"><ele>290.0</ele><time>2026-04-26T13:57:24.234Z</time></trkpt><trkpt lat="43.2704167" lon="13.1889117"><ele>289.0</ele><time>2026-04-26T13:57:25.234Z</time></trkpt><trkpt lat="43.27065" lon="13.18849"><ele>288.0</ele><time>2026-04-26T13:57:27.233Z</time></trkpt><trkpt lat="43.2707683" lon="13.188305"><ele>293.3333333333333</ele><time>2026-04-26T13:57:28.235Z</time></trkpt><trkpt lat="43.270915" lon="13.1881467"><ele>298.66666666666663</ele><time>2026-04-26T13:57:29.234Z</time></trkpt><trkpt lat="43.2710917" lon="13.188005"><ele>304.0</ele><time>2026-04-26T13:57:30.235Z</time></trkpt><trkpt lat="43.271305" lon="13.1878967"><ele>298.0</ele><time>2026-04-26T13:57:31.238Z</time></trkpt><trkpt lat="43.2715267" lon="13.1878"><ele>292.0</ele><time>2026-04-26T13:57:32.233Z</time></trkpt><trkpt lat="43.2717517" lon="13.1876867"><ele>292.0</ele><time>2026-04-26T13:57:33.236Z</time></trkpt><trkpt lat="43.27197" lon="13.18758"><ele>292.0</ele><time>2026-04-26T13:57:34.232Z</time></trkpt><trkpt lat="43.2721667" lon="13.187475"><ele>292.0</ele><time>2026-04-26T13:57:35.233Z</time></trkpt><trkpt lat="43.27236" lon="13.187355"><ele>294.3333333333333</ele><time>2026-04-26T13:57:36.233Z</time></trkpt><trkpt lat="43.2725433" lon="13.187225"><ele>296.6666666666667</ele><time>2026-04-26T13:57:37.233Z</time></trkpt><trkpt lat="43.2727083" lon="13.1870883"><ele>299.0</ele><time>2026-04-26T13:57:38.231Z</time></trkpt><trkpt lat="43.27286" lon="13.1869517"><ele>299.0</ele><time>2026-04-26T13:57:39.234Z</time></trkpt><trkpt lat="43.2730133" lon="13.1868217"><ele>299.0</ele><time>2026-04-26T13:57:40.234Z</time></trkpt><trkpt lat="43.2731717" lon="13.1866917"><ele>299.0</ele><time>2026-04-26T13:57:41.235Z</time></trkpt><trkpt lat="43.2733317" lon="13.1865583"><ele>303.0</ele><time>2026-04-26T13:57:42.235Z</time></trkpt><trkpt lat="43.273485" lon="13.1864233"><ele>307.0</ele><time>2026-04-26T13:57:43.233Z</time></trkpt><trkpt lat="43.2736333" lon="13.1862967"><ele>311.0</ele><time>2026-04-26T13:57:44.231Z</time></trkpt><trkpt lat="43.2737733" lon="13.1861767"><ele>311.0</ele><time>2026-04-26T13:57:45.233Z</time></trkpt><trkpt lat="43.27391" lon="13.1860583"><ele>311.0</ele><time>2026-04-26T13:57:46.233Z</time></trkpt><trkpt lat="43.274045" lon="13.1859433"><ele>311.0</ele><time>2026-04-26T13:57:47.231Z</time></trkpt><trkpt lat="43.2741783" lon="13.18583"><ele>308.6666666666667</ele><time>2026-04-26T13:57:48.23Z</time></trkpt><trkpt lat="43.2743083" lon="13.1857217"><ele>306.3333333333333</ele><time>2026-04-26T13:57:49.231Z</time></trkpt><trkpt lat="43.27444" lon="13.185615"><ele>304.0</ele><time>2026-04-26T13:57:50.237Z</time></trkpt><trkpt lat="43.2745733" lon="13.185505"><ele>304.0</ele><time>2026-04-26T13:57:51.233Z</time></trkpt><trkpt lat="43.2747067" lon="13.1853983"><ele>304.0</ele><time>2026-04-26T13:57:52.232Z</time></trkpt><trkpt lat="43.2748383" lon="13.1852867"><ele>304.0</ele><time>2026-04-26T13:57:53.233Z</time></trkpt><trkpt lat="43.2749767" lon="13.1851733"><ele>304.0</ele><time>2026-04-26T13:57:54.232Z</time></trkpt><trkpt lat="43.2751217" lon="13.1850567"><ele>304.0</ele><time>2026-04-26T13:57:55.232Z</time></trkpt><trkpt lat="43.2752667" lon="13.1849367"><ele>304.0</ele><time>2026-04-26T13:57:56.234Z</time></trkpt><trkpt lat="43.2754133" lon="13.1848167"><ele>304.0</ele><time>2026-04-26T13:57:57.233Z</time></trkpt><trkpt lat="43.2755533" lon="13.1846967"><ele>304.0</ele><time>2026-04-26T13:57:58.233Z</time></trkpt><trkpt lat="43.27569" lon="13.1845933"><ele>304.0</ele><time>2026-04-26T13:57:59.232Z</time></trkpt><trkpt lat="43.275825" lon="13.184515"><ele>304.5</ele><time>2026-04-26T13:58:00.231Z</time></trkpt><trkpt lat="43.2759533" lon="13.1844783"><ele>305.0</ele><time>2026-04-26T13:58:01.234Z</time></trkpt><trkpt lat="43.2760983" lon="13.18452"><ele>305.5</ele><time>2026-04-26T13:58:02.235Z</time></trkpt><trkpt lat="43.276255" lon="13.1845867"><ele>306.0</ele><time>2026-04-26T13:58:03.232Z</time></trkpt><trkpt lat="43.2764367" lon="13.1846783"><ele>306.6666666666667</ele><time>2026-04-26T13:58:04.236Z</time></trkpt><trkpt lat="43.2766083" lon="13.1847567"><ele>307.33333333333337</ele><time>2026-04-26T13:58:05.231Z</time></trkpt><trkpt lat="43.2767867" lon="13.184825"><ele>308.0</ele><time>2026-04-26T13:58:06.234Z</time></trkpt><trkpt lat="43.27697" lon="13.18489"><ele>306.0</ele><time>2026-04-26T13:58:07.232Z</time></trkpt><trkpt lat="43.2771533" lon="13.1849433"><ele>304.0</ele><time>2026-04-26T13:58:08.235Z</time></trkpt><trkpt lat="43.277345" lon="13.1849783"><ele>302.0</ele><time>2026-04-26T13:58:09.239Z</time></trkpt><trkpt lat="43.27753" lon="13.184995"><ele>302.0</ele><time>2026-04-26T13:58:10.235Z</time></trkpt><trkpt lat="43.2777133" lon="13.1850033"><ele>302.0</ele><time>2026-04-26T13:58:11.232Z</time></trkpt><trkpt lat="43.2778967" lon="13.1850033"><ele>302.0</ele><time>2026-04-26T13:58:12.233Z</time></trkpt><trkpt lat="43.2780767" lon="13.1850017"><ele>300.0</ele><time>2026-04-26T13:58:13.232Z</time></trkpt><trkpt lat="43.2782433" lon="13.184985"><ele>298.0</ele><time>2026-04-26T13:58:14.231Z</time></trkpt><trkpt lat="43.2784133" lon="13.18493"><ele>296.0</ele><time>2026-04-26T13:58:15.232Z</time></trkpt><trkpt lat="43.2785717" lon="13.18486"><ele>297.5</ele><time>2026-04-26T13:58:16.232Z</time></trkpt><trkpt lat="43.2787233" lon="13.1847983"><ele>299.0</ele><time>2026-04-26T13:58:17.234Z</time></trkpt><trkpt lat="43.2788617" lon="13.1847383"><ele>300.5</ele><time>2026-04-26T13:58:18.232Z</time></trkpt><trkpt lat="43.2789983" lon="13.1846667"><ele>302.0</ele><time>2026-04-26T13:58:19.233Z</time></trkpt><trkpt lat="43.27913" lon="13.1846217"><ele>302.0</ele><time>2026-04-26T13:58:20.232Z</time></trkpt><trkpt lat="43.27926" lon="13.1845933"><ele>302.0</ele><time>2026-04-26T13:58:21.236Z</time></trkpt><trkpt lat="43.279385" lon="13.1846233"><ele>302.0</ele><time>2026-04-26T13:58:22.231Z</time></trkpt><trkpt lat="43.2795167" lon="13.1846717"><ele>302.0</ele><time>2026-04-26T13:58:23.232Z</time></trkpt><trkpt lat="43.2796367" lon="13.184735"><ele>302.0</ele><time>2026-04-26T13:58:24.233Z</time></trkpt><trkpt lat="43.2797483" lon="13.1848183"><ele>302.0</ele><time>2026-04-26T13:58:25.232Z</time></trkpt><trkpt lat="43.2798333" lon="13.184935"><ele>302.0</ele><time>2026-04-26T13:58:26.233Z</time></trkpt><trkpt lat="43.2798683" lon="13.1850733"><ele>302.0</ele><time>2026-04-26T13:58:27.233Z</time></trkpt><trkpt lat="43.27988" lon="13.1852117"><ele>299.83333333333337</ele><time>2026-04-26T13:58:28.231Z</time></trkpt><trkpt lat="43.2799017" lon="13.1853283"><ele>297.6666666666667</ele><time>2026-04-26T13:58:29.233Z</time></trkpt><trkpt lat="43.2799417" lon="13.185445"><ele>295.5</ele><time>2026-04-26T13:58:30.229Z</time></trkpt><trkpt lat="43.280035" lon="13.18549"><ele>293.3333333333333</ele><time>2026-04-26T13:58:31.236Z</time></trkpt><trkpt lat="43.2801" lon="13.1854767"><ele>291.16666666666663</ele><time>2026-04-26T13:58:32.233Z</time></trkpt><trkpt lat="43.28015" lon="13.1853917"><ele>289.0</ele><time>2026-04-26T13:58:33.247Z</time></trkpt><trkpt lat="43.280155" lon="13.1853033"><ele>289.0</ele><time>2026-04-26T13:58:34.235Z</time></trkpt><trkpt lat="43.2801367" lon="13.1852"><ele>289.0</ele><time>2026-04-26T13:58:35.231Z</time></trkpt><trkpt lat="43.2801183" lon="13.185085"><ele>289.0</ele><time>2026-04-26T13:58:36.23Z</time></trkpt><trkpt lat="43.280115" lon="13.1849533"><ele>289.0</ele><time>2026-04-26T13:58:37.233Z</time></trkpt><trkpt lat="43.2801333" lon="13.1848283"><ele>289.0</ele><time>2026-04-26T13:58:38.234Z</time></trkpt><trkpt lat="43.2802033" lon="13.1847367"><ele>289.0</ele><time>2026-04-26T13:58:39.23Z</time></trkpt><trkpt lat="43.2802783" lon="13.1846483"><ele>289.25</ele><time>2026-04-26T13:58:40.234Z</time></trkpt><trkpt lat="43.2803967" lon="13.1845667"><ele>289.5</ele><time>2026-04-26T13:58:41.236Z</time></trkpt><trkpt lat="43.28052" lon="13.1844967"><ele>289.75</ele><time>2026-04-26T13:58:42.232Z</time></trkpt><trkpt lat="43.2806633" lon="13.1844517"><ele>290.0</ele><time>2026-04-26T13:58:43.233Z</time></trkpt><trkpt lat="43.2808367" lon="13.184435"><ele>291.6666666666667</ele><time>2026-04-26T13:58:44.23Z</time></trkpt><trkpt lat="43.2810017" lon="13.184415"><ele>293.3333333333333</ele><time>2026-04-26T13:58:45.236Z</time></trkpt><trkpt lat="43.2811567" lon="13.18438"><ele>295.0</ele><time>2026-04-26T13:58:46.23Z</time></trkpt><trkpt lat="43.281295" lon="13.1842967"><ele>295.0</ele><time>2026-04-26T13:58:47.232Z</time></trkpt><trkpt lat="43.2814" lon="13.1841683"><ele>295.0</ele><time>2026-04-26T13:58:48.232Z</time></trkpt><trkpt lat="43.2814633" lon="13.184"><ele>295.0</ele><time>2026-04-26T13:58:49.233Z</time></trkpt><trkpt lat="43.2815233" lon="13.1838117"><ele>295.0</ele><time>2026-04-26T13:58:50.233Z</time></trkpt><trkpt lat="43.2815867" lon="13.1836133"><ele>297.0</ele><time>2026-04-26T13:58:51.234Z</time></trkpt><trkpt lat="43.2816533" lon="13.1834183"><ele>299.0</ele><time>2026-04-26T13:58:52.234Z</time></trkpt><trkpt lat="43.2817283" lon="13.183245"><ele>301.0</ele><time>2026-04-26T13:58:53.233Z</time></trkpt><trkpt lat="43.28183" lon="13.1830983"><ele>301.0</ele><time>2026-04-26T13:58:54.236Z</time></trkpt><trkpt lat="43.2819567" lon="13.1829933"><ele>301.0</ele><time>2026-04-26T13:58:55.23Z</time></trkpt><trkpt lat="43.2820833" lon="13.18292"><ele>301.0</ele><time>2026-04-26T13:58:56.232Z</time></trkpt><trkpt lat="43.2822083" lon="13.182855"><ele>301.0</ele><time>2026-04-26T13:58:57.233Z</time></trkpt><trkpt lat="43.28234" lon="13.1827883"><ele>304.0</ele><time>2026-04-26T13:58:58.232Z</time></trkpt><trkpt lat="43.2824733" lon="13.1827183"><ele>307.0</ele><time>2026-04-26T13:58:59.232Z</time></trkpt><trkpt lat="43.2826033" lon="13.1826583"><ele>310.0</ele><time>2026-04-26T13:59:00.233Z</time></trkpt><trkpt lat="43.2827333" lon="13.182595"><ele>313.0</ele><time>2026-04-26T13:59:01.232Z</time></trkpt><trkpt lat="43.28287" lon="13.1825217"><ele>313.0</ele><time>2026-04-26T13:59:02.231Z</time></trkpt><trkpt lat="43.2830067" lon="13.182445"><ele>313.0</ele><time>2026-04-26T13:59:03.233Z</time></trkpt><trkpt lat="43.28315" lon="13.182365"><ele>313.0</ele><time>2026-04-26T13:59:04.232Z</time></trkpt><trkpt lat="43.2833" lon="13.182275"><ele>314.66666666666663</ele><time>2026-04-26T13:59:05.232Z</time></trkpt><trkpt lat="43.283465" lon="13.1821817"><ele>316.3333333333333</ele><time>2026-04-26T13:59:06.23Z</time></trkpt><trkpt lat="43.2836417" lon="13.1820833"><ele>318.0</ele><time>2026-04-26T13:59:07.233Z</time></trkpt><trkpt lat="43.2838267" lon="13.181985"><ele>319.3333333333333</ele><time>2026-04-26T13:59:08.236Z</time></trkpt><trkpt lat="43.2840217" lon="13.1818783"><ele>320.66666666666663</ele><time>2026-04-26T13:59:09.233Z</time></trkpt><trkpt lat="43.2842183" lon="13.1817667"><ele>322.0</ele><time>2026-04-26T13:59:10.231Z</time></trkpt><trkpt lat="43.2844" lon="13.1816683"><ele>322.0</ele><time>2026-04-26T13:59:11.234Z</time></trkpt><trkpt lat="43.2845667" lon="13.1815783"><ele>322.0</ele><time>2026-04-26T13:59:12.233Z</time></trkpt><trkpt lat="43.2847283" lon="13.18149"><ele>322.0</ele><time>2026-04-26T13:59:13.235Z</time></trkpt><trkpt lat="43.28489" lon="13.1813983"><ele>327.3333333333333</ele><time>2026-04-26T13:59:14.233Z</time></trkpt><trkpt lat="43.2850617" lon="13.181315"><ele>332.6666666666667</ele><time>2026-04-26T13:59:15.233Z</time></trkpt><trkpt lat="43.2852483" lon="13.1812617"><ele>338.0</ele><time>2026-04-26T13:59:16.232Z</time></trkpt><trkpt lat="43.28545" lon="13.181245"><ele>338.6666666666667</ele><time>2026-04-26T13:59:17.233Z</time></trkpt><trkpt lat="43.28566" lon="13.1812567"><ele>339.3333333333333</ele><time>2026-04-26T13:59:18.234Z</time></trkpt><trkpt lat="43.2858817" lon="13.18128"><ele>340.0</ele><time>2026-04-26T13:59:19.235Z</time></trkpt><trkpt lat="43.2861133" lon="13.1813033"><ele>340.0</ele><time>2026-04-26T13:59:20.232Z</time></trkpt><trkpt lat="43.28635" lon="13.1813217"><ele>340.0</ele><time>2026-04-26T13:59:21.235Z</time></trkpt><trkpt lat="43.2865817" lon="13.1813317"><ele>340.66666666666663</ele><time>2026-04-26T13:59:22.233Z</time></trkpt><trkpt lat="43.2868033" lon="13.1813433"><ele>341.3333333333333</ele><time>2026-04-26T13:59:23.232Z</time></trkpt><trkpt lat="43.2870233" lon="13.1813583"><ele>342.0</ele><time>2026-04-26T13:59:24.231Z</time></trkpt><trkpt lat="43.287235" lon="13.1813717"><ele>341.3333333333333</ele><time>2026-04-26T13:59:25.233Z</time></trkpt><trkpt lat="43.2874417" lon="13.1813917"><ele>340.66666666666663</ele><time>2026-04-26T13:59:26.233Z</time></trkpt><trkpt lat="43.2876433" lon="13.1814217"><ele>340.0</ele><time>2026-04-26T13:59:27.233Z</time></trkpt><trkpt lat="43.28784" lon="13.1814683"><ele>336.3333333333333</ele><time>2026-04-26T13:59:28.232Z</time></trkpt><trkpt lat="43.2880283" lon="13.18155"><ele>332.6666666666667</ele><time>2026-04-26T13:59:29.232Z</time></trkpt><trkpt lat="43.2882283" lon="13.1816683"><ele>329.0</ele><time>2026-04-26T13:59:30.231Z</time></trkpt><trkpt lat="43.2884317" lon="13.1817817"><ele>329.0</ele><time>2026-04-26T13:59:31.234Z</time></trkpt><trkpt lat="43.28864" lon="13.1818767"><ele>329.0</ele><time>2026-04-26T13:59:32.232Z</time></trkpt><trkpt lat="43.288845" lon="13.1819483"><ele>329.0</ele><time>2026-04-26T13:59:33.234Z</time></trkpt><trkpt lat="43.2890433" lon="13.1820067"><ele>331.33333333333337</ele><time>2026-04-26T13:59:34.233Z</time></trkpt><trkpt lat="43.2892433" lon="13.182055"><ele>333.6666666666667</ele><time>2026-04-26T13:59:35.231Z</time></trkpt><trkpt lat="43.2894433" lon="13.1820717"><ele>336.0</ele><time>2026-04-26T13:59:36.234Z</time></trkpt><trkpt lat="43.28964" lon="13.1820683"><ele>335.0</ele><time>2026-04-26T13:59:37.235Z</time></trkpt><trkpt lat="43.28982" lon="13.182055"><ele>334.0</ele><time>2026-04-26T13:59:38.234Z</time></trkpt><trkpt lat="43.28998" lon="13.1820117"><ele>333.0</ele><time>2026-04-26T13:59:39.234Z</time></trkpt><trkpt lat="43.2901133" lon="13.1819517"><ele>333.0</ele><time>2026-04-26T13:59:40.234Z</time></trkpt><trkpt lat="43.29023" lon="13.1818617"><ele>333.0</ele><time>2026-04-26T13:59:41.232Z</time></trkpt><trkpt lat="43.290355" lon="13.1817183"><ele>333.0</ele><time>2026-04-26T13:59:42.233Z</time></trkpt><trkpt lat="43.29047" lon="13.1815667"><ele>337.0</ele><time>2026-04-26T13:59:43.231Z</time></trkpt><trkpt lat="43.2905983" lon="13.18143"><ele>341.0</ele><time>2026-04-26T13:59:44.231Z</time></trkpt><trkpt lat="43.290755" lon="13.1813433"><ele>345.0</ele><time>2026-04-26T13:59:45.234Z</time></trkpt><trkpt lat="43.2909383" lon="13.1812967"><ele>345.0</ele><time>2026-04-26T13:59:46.231Z</time></trkpt><trkpt lat="43.2911283" lon="13.1812617"><ele>345.0</ele><time>2026-04-26T13:59:47.235Z</time></trkpt><trkpt lat="43.29131" lon="13.18122"><ele>345.0</ele><time>2026-04-26T13:59:48.234Z</time></trkpt><trkpt lat="43.2914767" lon="13.1811617"><ele>342.3333333333333</ele><time>2026-04-26T13:59:49.232Z</time></trkpt><trkpt lat="43.2916217" lon="13.18108"><ele>339.66666666666663</ele><time>2026-04-26T13:59:50.233Z</time></trkpt><trkpt lat="43.29174" lon="13.18096"><ele>337.0</ele><time>2026-04-26T13:59:51.234Z</time></trkpt><trkpt lat="43.291855" lon="13.180825"><ele>337.0</ele><time>2026-04-26T13:59:52.236Z</time></trkpt><trkpt lat="43.2919733" lon="13.18074"><ele>337.0</ele><time>2026-04-26T13:59:53.231Z</time></trkpt><trkpt lat="43.292085" lon="13.1807217"><ele>337.0</ele><time>2026-04-26T13:59:54.233Z</time></trkpt><trkpt lat="43.292185" lon="13.1807517"><ele>337.0</ele><time>2026-04-26T13:59:55.234Z</time></trkpt><trkpt lat="43.2922917" lon="13.18083"><ele>335.5</ele><time>2026-04-26T13:59:56.228Z</time></trkpt><trkpt lat="43.2923983" lon="13.180935"><ele>334.0</ele><time>2026-04-26T13:59:57.229Z</time></trkpt><trkpt lat="43.2925233" lon="13.1810317"><ele>332.5</ele><time>2026-04-26T13:59:58.233Z</time></trkpt><trkpt lat="43.2926733" lon="13.1811183"><ele>331.0</ele><time>2026-04-26T13:59:59.233Z</time></trkpt><trkpt lat="43.2928383" lon="13.1811883"><ele>331.0</ele><time>2026-04-26T14:00:00.234Z</time></trkpt><trkpt lat="43.293005" lon="13.1812467"><ele>331.0</ele><time>2026-04-26T14:00:01.227Z</time></trkpt><trkpt lat="43.2931667" lon="13.1813017"><ele>331.0</ele><time>2026-04-26T14:00:02.233Z</time></trkpt><trkpt lat="43.293325" lon="13.181295"><ele>332.66666666666663</ele><time>2026-04-26T14:00:03.23Z</time></trkpt><trkpt lat="43.2935067" lon="13.1812317"><ele>334.3333333333333</ele><time>2026-04-26T14:00:04.231Z</time></trkpt><trkpt lat="43.2936967" lon="13.1811233"><ele>336.0</ele><time>2026-04-26T14:00:05.234Z</time></trkpt><trkpt lat="43.2939017" lon="13.1809667"><ele>337.0</ele><time>2026-04-26T14:00:06.233Z</time></trkpt><trkpt lat="43.2941267" lon="13.1807833"><ele>338.0</ele><time>2026-04-26T14:00:07.234Z</time></trkpt><trkpt lat="43.29435" lon="13.1806033"><ele>338.5</ele><time>2026-04-26T14:00:08.232Z</time></trkpt><trkpt lat="43.2945567" lon="13.1804383"><ele>339.0</ele><time>2026-04-26T14:00:09.232Z</time></trkpt><trkpt lat="43.2947583" lon="13.1802767"><ele>339.0</ele><time>2026-04-26T14:00:10.232Z</time></trkpt><trkpt lat="43.2949467" lon="13.1801167"><ele>339.0</ele><time>2026-04-26T14:00:11.234Z</time></trkpt><trkpt lat="43.2951233" lon="13.17997"><ele>339.0</ele><time>2026-04-26T14:00:12.229Z</time></trkpt><trkpt lat="43.2952917" lon="13.1798433"><ele>340.3333333333333</ele><time>2026-04-26T14:00:13.229Z</time></trkpt><trkpt lat="43.2954567" lon="13.17976"><ele>341.66666666666663</ele><time>2026-04-26T14:00:14.232Z</time></trkpt><trkpt lat="43.29563" lon="13.179715"><ele>343.0</ele><time>2026-04-26T14:00:15.232Z</time></trkpt><trkpt lat="43.2958017" lon="13.179705"><ele>343.3333333333333</ele><time>2026-04-26T14:00:16.234Z</time></trkpt><trkpt lat="43.2959833" lon="13.17973"><ele>343.6666666666667</ele><time>2026-04-26T14:00:17.231Z</time></trkpt><trkpt lat="43.2961883" lon="13.1797983"><ele>344.0</ele><time>2026-04-26T14:00:18.231Z</time></trkpt><trkpt lat="43.2964183" lon="13.1798783"><ele>346.5</ele><time>2026-04-26T14:00:19.232Z</time></trkpt><trkpt lat="43.2966517" lon="13.179975"><ele>349.0</ele><time>2026-04-26T14:00:20.233Z</time></trkpt><trkpt lat="43.2968933" lon="13.180095"><ele>349.0</ele><time>2026-04-26T14:00:21.233Z</time></trkpt><trkpt lat="43.2971583" lon="13.180205"><ele>349.0</ele><time>2026-04-26T14:00:22.232Z</time></trkpt><trkpt lat="43.2974233" lon="13.1802883"><ele>349.0</ele><time>2026-04-26T14:00:23.233Z</time></trkpt><trkpt lat="43.2976983" lon="13.1803417"><ele>349.0</ele><time>2026-04-26T14:00:24.232Z</time></trkpt><trkpt lat="43.2979733" lon="13.180365"><ele>350.5</ele><time>2026-04-26T14:00:25.231Z</time></trkpt><trkpt lat="43.2982317" lon="13.180375"><ele>352.0</ele><time>2026-04-26T14:00:26.233Z</time></trkpt><trkpt lat="43.29847" lon="13.1803783"><ele>352.0</ele><time>2026-04-26T14:00:27.232Z</time></trkpt><trkpt lat="43.2986833" lon="13.1803883"><ele>352.0</ele><time>2026-04-26T14:00:28.234Z</time></trkpt><trkpt lat="43.29888" lon="13.1804233"><ele>352.0</ele><time>2026-04-26T14:00:29.234Z</time></trkpt><trkpt lat="43.29906" lon="13.1805067"><ele>352.66666666666663</ele><time>2026-04-26T14:00:30.233Z</time></trkpt><trkpt lat="43.2992433" lon="13.180615"><ele>353.3333333333333</ele><time>2026-04-26T14:00:31.232Z</time></trkpt><trkpt lat="43.2994417" lon="13.18071"><ele>354.0</ele><time>2026-04-26T14:00:32.237Z</time></trkpt><trkpt lat="43.2996417" lon="13.18078"><ele>358.0</ele><time>2026-04-26T14:00:33.237Z</time></trkpt><trkpt lat="43.2998333" lon="13.1808267"><ele>362.0</ele><time>2026-04-26T14:00:34.233Z</time></trkpt><trkpt lat="43.30001" lon="13.180845"><ele>366.0</ele><time>2026-04-26T14:00:35.233Z</time></trkpt><trkpt lat="43.3001683" lon="13.180825"><ele>366.0</ele><time>2026-04-26T14:00:36.236Z</time></trkpt><trkpt lat="43.3003133" lon="13.180755"><ele>366.0</ele><time>2026-04-26T14:00:37.235Z</time></trkpt><trkpt lat="43.3004517" lon="13.1806367"><ele>366.0</ele><time>2026-04-26T14:00:38.233Z</time></trkpt><trkpt lat="43.30059" lon="13.1804983"><ele>366.6666666666667</ele><time>2026-04-26T14:00:39.233Z</time></trkpt><trkpt lat="43.300735" lon="13.1803583"><ele>367.33333333333337</ele><time>2026-04-26T14:00:40.231Z</time></trkpt><trkpt lat="43.300885" lon="13.18023"><ele>368.0</ele><time>2026-04-26T14:00:41.233Z</time></trkpt><trkpt lat="43.3010417" lon="13.1801333"><ele>368.0</ele><time>2026-04-26T14:00:42.236Z</time></trkpt><trkpt lat="43.3011917" lon="13.180075"><ele>368.0</ele><time>2026-04-26T14:00:43.233Z</time></trkpt><trkpt lat="43.3013383" lon="13.18004"><ele>368.0</ele><time>2026-04-26T14:00:44.23Z</time></trkpt><trkpt lat="43.301485" lon="13.1800517"><ele>369.5</ele><time>2026-04-26T14:00:45.235Z</time></trkpt><trkpt lat="43.3016167" lon="13.1801067"><ele>371.0</ele><time>2026-04-26T14:00:46.233Z</time></trkpt><trkpt lat="43.301725" lon="13.18021"><ele>372.5</ele><time>2026-04-26T14:00:47.23Z</time></trkpt><trkpt lat="43.3018133" lon="13.180345"><ele>374.0</ele><time>2026-04-26T14:00:48.231Z</time></trkpt><trkpt lat="43.301885" lon="13.18053"><ele>376.6666666666667</ele><time>2026-04-26T14:00:49.232Z</time></trkpt><trkpt lat="43.3019567" lon="13.1807517"><ele>379.3333333333333</ele><time>2026-04-26T14:00:50.233Z</time></trkpt><trkpt lat="43.302035" lon="13.1810033"><ele>382.0</ele><time>2026-04-26T14:00:51.231Z</time></trkpt><trkpt lat="43.3021183" lon="13.1812717"><ele>382.0</ele><time>2026-04-26T14:00:52.23Z</time></trkpt><trkpt lat="43.3022083" lon="13.1815283"><ele>382.0</ele><time>2026-04-26T14:00:53.234Z</time></trkpt><trkpt lat="43.3022933" lon="13.1817733"><ele>382.0</ele><time>2026-04-26T14:00:54.236Z</time></trkpt><trkpt lat="43.3023733" lon="13.1820083"><ele>382.0</ele><time>2026-04-26T14:00:55.232Z</time></trkpt><trkpt lat="43.3024483" lon="13.1822317"><ele>382.0</ele><time>2026-04-26T14:00:56.233Z</time></trkpt><trkpt lat="43.30252" lon="13.1824367"><ele>382.0</ele><time>2026-04-26T14:00:57.235Z</time></trkpt><trkpt lat="43.30259" lon="13.1826183"><ele>383.5</ele><time>2026-04-26T14:00:58.234Z</time></trkpt><trkpt lat="43.302675" lon="13.1827633"><ele>385.0</ele><time>2026-04-26T14:00:59.232Z</time></trkpt><trkpt lat="43.3027817" lon="13.1828667"><ele>386.5</ele><time>2026-04-26T14:01:00.235Z</time></trkpt><trkpt lat="43.3029017" lon="13.18292"><ele>388.0</ele><time>2026-04-26T14:01:01.236Z</time></trkpt><trkpt lat="43.30304" lon="13.18294"><ele>389.5</ele><time>2026-04-26T14:01:02.232Z</time></trkpt><trkpt lat="43.30317" lon="13.182925"><ele>391.0</ele><time>2026-04-26T14:01:03.236Z</time></trkpt><trkpt lat="43.3032867" lon="13.1828817"><ele>392.5</ele><time>2026-04-26T14:01:04.233Z</time></trkpt><trkpt lat="43.3033967" lon="13.1828167"><ele>394.0</ele><time>2026-04-26T14:01:05.234Z</time></trkpt><trkpt lat="43.3034883" lon="13.1827267"><ele>394.0</ele><time>2026-04-26T14:01:06.233Z</time></trkpt><trkpt lat="43.3035483" lon="13.182605"><ele>394.0</ele><time>2026-04-26T14:01:07.233Z</time></trkpt><trkpt lat="43.3035717" lon="13.1824617"><ele>394.0</ele><time>2026-04-26T14:01:08.233Z</time></trkpt><trkpt lat="43.3035717" lon="13.18231"><ele>394.0</ele><time>2026-04-26T14:01:09.234Z</time></trkpt><trkpt lat="43.3035683" lon="13.182165"><ele>394.0</ele><time>2026-04-26T14:01:10.234Z</time></trkpt><trkpt lat="43.3035783" lon="13.1820317"><ele>394.6</ele><time>2026-04-26T14:01:11.233Z</time></trkpt><trkpt lat="43.3036217" lon="13.1819217"><ele>395.2</ele><time>2026-04-26T14:01:12.232Z</time></trkpt><trkpt lat="43.3036967" lon="13.181835"><ele>395.8</ele><time>2026-04-26T14:01:13.232Z</time></trkpt><trkpt lat="43.303795" lon="13.18178"><ele>396.40000000000003</ele><time>2026-04-26T14:01:14.231Z</time></trkpt><trkpt lat="43.303915" lon="13.181745"><ele>397.0</ele><time>2026-04-26T14:01:15.234Z</time></trkpt><trkpt lat="43.3040683" lon="13.1817233"><ele>397.0</ele><time>2026-04-26T14:01:16.234Z</time></trkpt><trkpt lat="43.3042517" lon="13.181705"><ele>397.0</ele><time>2026-04-26T14:01:17.233Z</time></trkpt><trkpt lat="43.30445" lon="13.1816817"><ele>397.0</ele><time>2026-04-26T14:01:18.234Z</time></trkpt><trkpt lat="43.3046533" lon="13.1816483"><ele>395.6666666666667</ele><time>2026-04-26T14:01:19.233Z</time></trkpt><trkpt lat="43.30486" lon="13.1815867"><ele>394.33333333333337</ele><time>2026-04-26T14:01:20.234Z</time></trkpt><trkpt lat="43.3050583" lon="13.1814867"><ele>393.0</ele><time>2026-04-26T14:01:21.233Z</time></trkpt><trkpt lat="43.305245" lon="13.181375"><ele>393.0</ele><time>2026-04-26T14:01:22.235Z</time></trkpt><trkpt lat="43.305425" lon="13.1812667"><ele>393.0</ele><time>2026-04-26T14:01:23.231Z</time></trkpt><trkpt lat="43.3055917" lon="13.1811717"><ele>393.0</ele><time>2026-04-26T14:01:24.234Z</time></trkpt><trkpt lat="43.30576" lon="13.1811033"><ele>397.33333333333337</ele><time>2026-04-26T14:01:25.234Z</time></trkpt><trkpt lat="43.30594" lon="13.181075"><ele>401.6666666666667</ele><time>2026-04-26T14:01:26.234Z</time></trkpt><trkpt lat="43.306135" lon="13.1810767"><ele>406.0</ele><time>2026-04-26T14:01:27.233Z</time></trkpt><trkpt lat="43.3063317" lon="13.18105"><ele>410.0</ele><time>2026-04-26T14:01:28.233Z</time></trkpt><trkpt lat="43.3065483" lon="13.181"><ele>414.0</ele><time>2026-04-26T14:01:29.235Z</time></trkpt><trkpt lat="43.30675" lon="13.180935"><ele>418.0</ele><time>2026-04-26T14:01:30.232Z</time></trkpt><trkpt lat="43.306935" lon="13.1808633"><ele>418.0</ele><time>2026-04-26T14:01:31.233Z</time></trkpt><trkpt lat="43.3070917" lon="13.180785"><ele>418.0</ele><time>2026-04-26T14:01:32.233Z</time></trkpt><trkpt lat="43.30723" lon="13.1806833"><ele>418.0</ele><time>2026-04-26T14:01:33.235Z</time></trkpt><trkpt lat="43.3073483" lon="13.180515"><ele>418.6666666666667</ele><time>2026-04-26T14:01:34.231Z</time></trkpt><trkpt lat="43.3074717" lon="13.1803033"><ele>419.33333333333337</ele><time>2026-04-26T14:01:35.232Z</time></trkpt><trkpt lat="43.3076267" lon="13.1801017"><ele>420.0</ele><time>2026-04-26T14:01:36.231Z</time></trkpt><trkpt lat="43.3078067" lon="13.179905"><ele>418.33333333333337</ele><time>2026-04-26T14:01:37.23Z</time></trkpt><trkpt lat="43.3079783" lon="13.1797367"><ele>416.6666666666667</ele><time>2026-04-26T14:01:38.234Z</time></trkpt><trkpt lat="43.3081333" lon="13.1795867"><ele>415.0</ele><time>2026-04-26T14:01:39.232Z</time></trkpt><trkpt lat="43.3083083" lon="13.179455"><ele>422.0</ele><time>2026-04-26T14:01:40.233Z</time></trkpt><trkpt lat="43.3085067" lon="13.1793367"><ele>429.0</ele><time>2026-04-26T14:01:41.232Z</time></trkpt><trkpt lat="43.3087233" lon="13.1792133"><ele>430.0</ele><time>2026-04-26T14:01:42.231Z</time></trkpt><trkpt lat="43.3089383" lon="13.17908"><ele>431.0</ele><time>2026-04-26T14:01:43.232Z</time></trkpt><trkpt lat="43.3091383" lon="13.1789467"><ele>431.0</ele><time>2026-04-26T14:01:44.232Z</time></trkpt><trkpt lat="43.3093217" lon="13.1788083"><ele>431.0</ele><time>2026-04-26T14:01:45.238Z</time></trkpt><trkpt lat="43.3095067" lon="13.1786633"><ele>431.0</ele><time>2026-04-26T14:01:46.233Z</time></trkpt><trkpt lat="43.3097117" lon="13.1785283"><ele>435.66666666666663</ele><time>2026-04-26T14:01:47.231Z</time></trkpt><trkpt lat="43.3099167" lon="13.1783983"><ele>440.33333333333337</ele><time>2026-04-26T14:01:48.232Z</time></trkpt><trkpt lat="43.310115" lon="13.1782917"><ele>445.0</ele><time>2026-04-26T14:01:49.233Z</time></trkpt><trkpt lat="43.310315" lon="13.1781933"><ele>446.33333333333337</ele><time>2026-04-26T14:01:50.231Z</time></trkpt><trkpt lat="43.3105183" lon="13.17811"><ele>447.66666666666663</ele><time>2026-04-26T14:01:51.232Z</time></trkpt><trkpt lat="43.3107117" lon="13.1780367"><ele>449.0</ele><time>2026-04-26T14:01:52.231Z</time></trkpt><trkpt lat="43.31089" lon="13.177985"><ele>449.0</ele><time>2026-04-26T14:01:53.233Z</time></trkpt><trkpt lat="43.3110417" lon="13.1779483"><ele>449.0</ele><time>2026-04-26T14:01:54.231Z</time></trkpt><trkpt lat="43.3111667" lon="13.1778867"><ele>449.0</ele><time>2026-04-26T14:01:55.231Z</time></trkpt><trkpt lat="43.3112683" lon="13.1777933"><ele>449.0</ele><time>2026-04-26T14:01:56.231Z</time></trkpt><trkpt lat="43.3113517" lon="13.1776683"><ele>451.0</ele><time>2026-04-26T14:01:57.233Z</time></trkpt><trkpt lat="43.3114233" lon="13.1775317"><ele>453.0</ele><time>2026-04-26T14:01:58.231Z</time></trkpt><trkpt lat="43.3114867" lon="13.177415"><ele>455.0</ele><time>2026-04-26T14:01:59.23Z</time></trkpt><trkpt lat="43.3115567" lon="13.1773233"><ele>457.0</ele><time>2026-04-26T14:02:00.233Z</time></trkpt><trkpt lat="43.3116267" lon="13.1772817"><ele>459.0</ele><time>2026-04-26T14:02:01.231Z</time></trkpt><trkpt lat="43.311695" lon="13.1773133"><ele>459.0</ele><time>2026-04-26T14:02:02.23Z</time></trkpt><trkpt lat="43.311755" lon="13.177355"><ele>459.0</ele><time>2026-04-26T14:02:03.238Z</time></trkpt><trkpt lat="43.31182" lon="13.1774267"><ele>459.0</ele><time>2026-04-26T14:02:04.232Z</time></trkpt><trkpt lat="43.3118967" lon="13.1775183"><ele>459.0</ele><time>2026-04-26T14:02:05.235Z</time></trkpt><trkpt lat="43.312" lon="13.1775883"><ele>459.0</ele><time>2026-04-26T14:02:06.235Z</time></trkpt><trkpt lat="43.3121217" lon="13.1776133"><ele>461.0</ele><time>2026-04-26T14:02:07.234Z</time></trkpt><trkpt lat="43.3122483" lon="13.1776033"><ele>463.0</ele><time>2026-04-26T14:02:08.233Z</time></trkpt><trkpt lat="43.3123767" lon="13.1775983"><ele>465.0</ele><time>2026-04-26T14:02:09.234Z</time></trkpt><trkpt lat="43.312505" lon="13.17763"><ele>467.0</ele><time>2026-04-26T14:02:10.232Z</time></trkpt><trkpt lat="43.3126283" lon="13.1776833"><ele>467.0</ele><time>2026-04-26T14:02:11.229Z</time></trkpt><trkpt lat="43.31275" lon="13.1777683"><ele>467.0</ele><time>2026-04-26T14:02:12.233Z</time></trkpt><trkpt lat="43.3128883" lon="13.177895"><ele>467.0</ele><time>2026-04-26T14:02:13.235Z</time></trkpt><trkpt lat="43.31306" lon="13.1780833"><ele>466.5</ele><time>2026-04-26T14:02:14.234Z</time></trkpt><trkpt lat="43.3132533" lon="13.1783267"><ele>466.0</ele><time>2026-04-26T14:02:15.235Z</time></trkpt><trkpt lat="43.3134683" lon="13.1785967"><ele>466.0</ele><time>2026-04-26T14:02:16.231Z</time></trkpt><trkpt lat="43.3137033" lon="13.17886"><ele>466.0</ele><time>2026-04-26T14:02:17.233Z</time></trkpt><trkpt lat="43.3139333" lon="13.17909"><ele>467.5</ele><time>2026-04-26T14:02:18.233Z</time></trkpt><trkpt lat="43.3141433" lon="13.1792983"><ele>469.0</ele><time>2026-04-26T14:02:19.233Z</time></trkpt><trkpt lat="43.3143333" lon="13.179485"><ele>469.0</ele><time>2026-04-26T14:02:20.233Z</time></trkpt><trkpt lat="43.3145" lon="13.17965"><ele>469.0</ele><time>2026-04-26T14:02:21.237Z</time></trkpt><trkpt lat="43.31463" lon="13.1798133"><ele>469.0</ele><time>2026-04-26T14:02:22.233Z</time></trkpt><trkpt lat="43.3147117" lon="13.18"><ele>468.33333333333337</ele><time>2026-04-26T14:02:23.234Z</time></trkpt><trkpt lat="43.31476" lon="13.1802267"><ele>467.66666666666663</ele><time>2026-04-26T14:02:24.233Z</time></trkpt><trkpt lat="43.3147767" lon="13.180475"><ele>467.0</ele><time>2026-04-26T14:02:25.238Z</time></trkpt><trkpt lat="43.31479" lon="13.1807367"><ele>470.66666666666663</ele><time>2026-04-26T14:02:26.233Z</time></trkpt><trkpt lat="43.3148283" lon="13.18098"><ele>474.33333333333337</ele><time>2026-04-26T14:02:27.233Z</time></trkpt><trkpt lat="43.314875" lon="13.1812017"><ele>478.0</ele><time>2026-04-26T14:02:28.234Z</time></trkpt><trkpt lat="43.3148983" lon="13.1814217"><ele>481.25</ele><time>2026-04-26T14:02:29.234Z</time></trkpt><trkpt lat="43.3148883" lon="13.1816383"><ele>484.5</ele><time>2026-04-26T14:02:30.233Z</time></trkpt><trkpt lat="43.3148567" lon="13.181815"><ele>487.75</ele><time>2026-04-26T14:02:31.232Z</time></trkpt><trkpt lat="43.3148567" lon="13.181965"><ele>491.0</ele><time>2026-04-26T14:02:32.234Z</time></trkpt><trkpt lat="43.314885" lon="13.1820783"><ele>491.0</ele><time>2026-04-26T14:02:33.236Z</time></trkpt><trkpt lat="43.3149367" lon="13.1821533"><ele>491.0</ele><time>2026-04-26T14:02:34.234Z</time></trkpt><trkpt lat="43.3150717" lon="13.182075"><ele>491.0</ele><time>2026-04-26T14:02:35.232Z</time></trkpt><trkpt lat="43.3152183" lon="13.1819783"><ele>491.0</ele><time>2026-04-26T14:02:36.231Z</time></trkpt><trkpt lat="43.3153817" lon="13.1818517"><ele>491.0</ele><time>2026-04-26T14:02:37.233Z</time></trkpt><trkpt lat="43.3155683" lon="13.1817333"><ele>491.0</ele><time>2026-04-26T14:02:38.233Z</time></trkpt><trkpt lat="43.31577" lon="13.1816733"><ele>491.0</ele><time>2026-04-26T14:02:39.237Z</time></trkpt><trkpt lat="43.3159967" lon="13.18165"><ele>491.0</ele><time>2026-04-26T14:02:40.235Z</time></trkpt><trkpt lat="43.3162083" lon="13.18164"><ele>491.0</ele><time>2026-04-26T14:02:41.231Z</time></trkpt><trkpt lat="43.316395" lon="13.1816317"><ele>491.0</ele><time>2026-04-26T14:02:42.232Z</time></trkpt><trkpt lat="43.3165667" lon="13.1816483"><ele>490.66666666666663</ele><time>2026-04-26T14:02:43.235Z</time></trkpt><trkpt lat="43.3167217" lon="13.1817217"><ele>490.33333333333337</ele><time>2026-04-26T14:02:44.233Z</time></trkpt><trkpt lat="43.316865" lon="13.1818267"><ele>490.0</ele><time>2026-04-26T14:02:45.232Z</time></trkpt><trkpt lat="43.3170117" lon="13.1820117"><ele>490.0</ele><time>2026-04-26T14:02:46.232Z</time></trkpt><trkpt lat="43.3171733" lon="13.1821617"><ele>490.0</ele><time>2026-04-26T14:02:47.232Z</time></trkpt><trkpt lat="43.3173733" lon="13.1822933"><ele>490.0</ele><time>2026-04-26T14:02:48.234Z</time></trkpt><trkpt lat="43.3175783" lon="13.1824133"><ele>491.33333333333337</ele><time>2026-04-26T14:02:49.229Z</time></trkpt><trkpt lat="43.3177783" lon="13.182515"><ele>492.66666666666663</ele><time>2026-04-26T14:02:50.243Z</time></trkpt><trkpt lat="43.31796" lon="13.1826283"><ele>494.0</ele><time>2026-04-26T14:02:51.232Z</time></trkpt><trkpt lat="43.31814" lon="13.1827917"><ele>494.0</ele><time>2026-04-26T14:02:52.234Z</time></trkpt><trkpt lat="43.3182933" lon="13.1829917"><ele>494.0</ele><time>2026-04-26T14:02:53.232Z</time></trkpt><trkpt lat="43.3184067" lon="13.18321"><ele>494.0</ele><time>2026-04-26T14:02:54.233Z</time></trkpt><trkpt lat="43.3184717" lon="13.1834433"><ele>496.3333333333333</ele><time>2026-04-26T14:02:55.235Z</time></trkpt><trkpt lat="43.3185117" lon="13.1836667"><ele>498.66666666666663</ele><time>2026-04-26T14:02:56.233Z</time></trkpt><trkpt lat="43.3185483" lon="13.1838633"><ele>501.0</ele><time>2026-04-26T14:02:57.231Z</time></trkpt><trkpt lat="43.3186133" lon="13.184035"><ele>501.0</ele><time>2026-04-26T14:02:58.231Z</time></trkpt><trkpt lat="43.318715" lon="13.1841617"><ele>501.0</ele><time>2026-04-26T14:02:59.233Z</time></trkpt><trkpt lat="43.3188567" lon="13.1842433"><ele>501.0</ele><time>2026-04-26T14:03:00.235Z</time></trkpt><trkpt lat="43.3190517" lon="13.18427"><ele>501.0</ele><time>2026-04-26T14:03:01.231Z</time></trkpt><trkpt lat="43.31929" lon="13.1842767"><ele>501.0</ele><time>2026-04-26T14:03:02.234Z</time></trkpt><trkpt lat="43.319535" lon="13.184285"><ele>501.0</ele><time>2026-04-26T14:03:03.232Z</time></trkpt><trkpt lat="43.319755" lon="13.1842983"><ele>501.0</ele><time>2026-04-26T14:03:04.233Z</time></trkpt><trkpt lat="43.3199483" lon="13.18431"><ele>501.0</ele><time>2026-04-26T14:03:05.231Z</time></trkpt><trkpt lat="43.3201233" lon="13.1843517"><ele>501.0</ele><time>2026-04-26T14:03:06.234Z</time></trkpt><trkpt lat="43.3202767" lon="13.184445"><ele>501.0</ele><time>2026-04-26T14:03:07.232Z</time></trkpt><trkpt lat="43.320415" lon="13.1846117"><ele>501.0</ele><time>2026-04-26T14:03:08.232Z</time></trkpt><trkpt lat="43.3205517" lon="13.184845"><ele>502.0</ele><time>2026-04-26T14:03:09.233Z</time></trkpt><trkpt lat="43.32068" lon="13.18512"><ele>503.0</ele><time>2026-04-26T14:03:10.232Z</time></trkpt><trkpt lat="43.3207917" lon="13.1854083"><ele>505.0</ele><time>2026-04-26T14:03:11.233Z</time></trkpt><trkpt lat="43.3208817" lon="13.1857017"><ele>507.0</ele><time>2026-04-26T14:03:12.234Z</time></trkpt><trkpt lat="43.320965" lon="13.1859817"><ele>507.0</ele><time>2026-04-26T14:03:13.234Z</time></trkpt><trkpt lat="43.3210733" lon="13.1862583"><ele>507.0</ele><time>2026-04-26T14:03:14.23Z</time></trkpt><trkpt lat="43.3212083" lon="13.1865183"><ele>508.0</ele><time>2026-04-26T14:03:15.233Z</time></trkpt><trkpt lat="43.3213483" lon="13.18674"><ele>509.0</ele><time>2026-04-26T14:03:16.232Z</time></trkpt><trkpt lat="43.3214833" lon="13.18692"><ele>510.0</ele><time>2026-04-26T14:03:17.233Z</time></trkpt><trkpt lat="43.3216233" lon="13.18705"><ele>508.0</ele><time>2026-04-26T14:03:18.232Z</time></trkpt><trkpt lat="43.3217833" lon="13.1871333"><ele>506.0</ele><time>2026-04-26T14:03:19.231Z</time></trkpt><trkpt lat="43.3219783" lon="13.1871783"><ele>504.0</ele><time>2026-04-26T14:03:20.232Z</time></trkpt><trkpt lat="43.322185" lon="13.1872067"><ele>504.33333333333337</ele><time>2026-04-26T14:03:21.236Z</time></trkpt><trkpt lat="43.32238" lon="13.1872333"><ele>504.6666666666667</ele><time>2026-04-26T14:03:22.229Z</time></trkpt><trkpt lat="43.3225667" lon="13.1872633"><ele>505.0</ele><time>2026-04-26T14:03:23.239Z</time></trkpt><trkpt lat="43.322745" lon="13.18729"><ele>505.0</ele><time>2026-04-26T14:03:24.233Z</time></trkpt><trkpt lat="43.3229" lon="13.18731"><ele>505.0</ele><time>2026-04-26T14:03:25.234Z</time></trkpt><trkpt lat="43.3230283" lon="13.1873367"><ele>505.0</ele><time>2026-04-26T14:03:26.234Z</time></trkpt><trkpt lat="43.3231167" lon="13.1874033"><ele>505.0</ele><time>2026-04-26T14:03:27.231Z</time></trkpt><trkpt lat="43.32319" lon="13.187505"><ele>506.6666666666667</ele><time>2026-04-26T14:03:28.233Z</time></trkpt><trkpt lat="43.3232583" lon="13.18765"><ele>508.33333333333337</ele><time>2026-04-26T14:03:29.233Z</time></trkpt><trkpt lat="43.3233333" lon="13.1878433"><ele>510.0</ele><time>2026-04-26T14:03:30.231Z</time></trkpt><trkpt lat="43.3234183" lon="13.18806"><ele>508.33333333333337</ele><time>2026-04-26T14:03:31.235Z</time></trkpt><trkpt lat="43.3235167" lon="13.1883"><ele>506.6666666666667</ele><time>2026-04-26T14:03:32.231Z</time></trkpt><trkpt lat="43.3236133" lon="13.18855"><ele>505.0</ele><time>2026-04-26T14:03:33.232Z</time></trkpt><trkpt lat="43.3236967" lon="13.1888"><ele>507.0</ele><time>2026-04-26T14:03:34.233Z</time></trkpt><trkpt lat="43.3237667" lon="13.1890517"><ele>509.0</ele><time>2026-04-26T14:03:35.231Z</time></trkpt><trkpt lat="43.3238367" lon="13.1893017"><ele>511.0</ele><time>2026-04-26T14:03:36.232Z</time></trkpt><trkpt lat="43.323925" lon="13.1895467"><ele>511.0</ele><time>2026-04-26T14:03:37.237Z</time></trkpt><trkpt lat="43.3240283" lon="13.1897767"><ele>511.0</ele><time>2026-04-26T14:03:38.245Z</time></trkpt><trkpt lat="43.32412" lon="13.190005"><ele>511.0</ele><time>2026-04-26T14:03:39.234Z</time></trkpt><trkpt lat="43.32419" lon="13.1902533"><ele>508.33333333333337</ele><time>2026-04-26T14:03:40.231Z</time></trkpt><trkpt lat="43.3242583" lon="13.1905167"><ele>505.66666666666663</ele><time>2026-04-26T14:03:41.233Z</time></trkpt><trkpt lat="43.32435" lon="13.1907933"><ele>503.0</ele><time>2026-04-26T14:03:42.235Z</time></trkpt><trkpt lat="43.3244583" lon="13.1910617"><ele>501.3333333333333</ele><time>2026-04-26T14:03:43.231Z</time></trkpt><trkpt lat="43.3245617" lon="13.1913283"><ele>499.66666666666663</ele><time>2026-04-26T14:03:44.232Z</time></trkpt><trkpt lat="43.32466" lon="13.1915783"><ele>498.0</ele><time>2026-04-26T14:03:45.231Z</time></trkpt><trkpt lat="43.3247617" lon="13.1918067"><ele>498.0</ele><time>2026-04-26T14:03:46.234Z</time></trkpt><trkpt lat="43.3248783" lon="13.1920067"><ele>498.0</ele><time>2026-04-26T14:03:47.232Z</time></trkpt><trkpt lat="43.325" lon="13.1921783"><ele>498.0</ele><time>2026-04-26T14:03:48.233Z</time></trkpt><trkpt lat="43.3251117" lon="13.19235"><ele>496.25</ele><time>2026-04-26T14:03:49.231Z</time></trkpt><trkpt lat="43.3251933" lon="13.1925217"><ele>494.5</ele><time>2026-04-26T14:03:50.235Z</time></trkpt><trkpt lat="43.3252317" lon="13.1926933"><ele>492.75</ele><time>2026-04-26T14:03:51.233Z</time></trkpt><trkpt lat="43.3252283" lon="13.1928767"><ele>491.0</ele><time>2026-04-26T14:03:52.233Z</time></trkpt><trkpt lat="43.3251717" lon="13.1930633"><ele>490.3333333333333</ele><time>2026-04-26T14:03:53.23Z</time></trkpt><trkpt lat="43.32507" lon="13.19326"><ele>489.66666666666663</ele><time>2026-04-26T14:03:54.236Z</time></trkpt><trkpt lat="43.324955" lon="13.19345"><ele>489.0</ele><time>2026-04-26T14:03:55.233Z</time></trkpt><trkpt lat="43.3248417" lon="13.19361"><ele>489.0</ele><time>2026-04-26T14:03:56.235Z</time></trkpt><trkpt lat="43.32474" lon="13.19374"><ele>489.0</ele><time>2026-04-26T14:03:57.232Z</time></trkpt><trkpt lat="43.324675" lon="13.1938733"><ele>489.0</ele><time>2026-04-26T14:03:58.233Z</time></trkpt><trkpt lat="43.32466" lon="13.1940217"><ele>489.0</ele><time>2026-04-26T14:03:59.232Z</time></trkpt><trkpt lat="43.32469" lon="13.1942"><ele>489.0</ele><time>2026-04-26T14:04:00.232Z</time></trkpt><trkpt lat="43.324765" lon="13.1944033"><ele>489.0</ele><time>2026-04-26T14:04:01.236Z</time></trkpt><trkpt lat="43.3248567" lon="13.1946433"><ele>489.0</ele><time>2026-04-26T14:04:02.231Z</time></trkpt><trkpt lat="43.3249417" lon="13.194875"><ele>487.0</ele><time>2026-04-26T14:04:03.232Z</time></trkpt><trkpt lat="43.3250183" lon="13.1951167"><ele>485.0</ele><time>2026-04-26T14:04:04.234Z</time></trkpt><trkpt lat="43.3250567" lon="13.19535"><ele>483.0</ele><time>2026-04-26T14:04:05.232Z</time></trkpt><trkpt lat="43.3250567" lon="13.1955717"><ele>481.75</ele><time>2026-04-26T14:04:06.233Z</time></trkpt><trkpt lat="43.3250317" lon="13.1957717"><ele>480.5</ele><time>2026-04-26T14:04:07.231Z</time></trkpt><trkpt lat="43.3250167" lon="13.19596"><ele>479.25</ele><time>2026-04-26T14:04:08.238Z</time></trkpt><trkpt lat="43.3250367" lon="13.196155"><ele>478.0</ele><time>2026-04-26T14:04:09.233Z</time></trkpt><trkpt lat="43.325095" lon="13.1963417"><ele>476.6666666666667</ele><time>2026-04-26T14:04:10.23Z</time></trkpt><trkpt lat="43.3251817" lon="13.1965283"><ele>475.33333333333337</ele><time>2026-04-26T14:04:11.233Z</time></trkpt><trkpt lat="43.32531" lon="13.1967133"><ele>474.0</ele><time>2026-04-26T14:04:12.234Z</time></trkpt><trkpt lat="43.3254583" lon="13.1969033"><ele>473.0</ele><time>2026-04-26T14:04:13.232Z</time></trkpt><trkpt lat="43.325605" lon="13.1970967"><ele>472.0</ele><time>2026-04-26T14:04:14.233Z</time></trkpt><trkpt lat="43.3257467" lon="13.197275"><ele>471.0</ele><time>2026-04-26T14:04:15.233Z</time></trkpt><trkpt lat="43.32588" lon="13.1974367"><ele>471.0</ele><time>2026-04-26T14:04:16.233Z</time></trkpt><trkpt lat="43.326005" lon="13.1975783"><ele>471.0</ele><time>2026-04-26T14:04:17.231Z</time></trkpt><trkpt lat="43.3261417" lon="13.19769"><ele>471.0</ele><time>2026-04-26T14:04:18.233Z</time></trkpt><trkpt lat="43.3262833" lon="13.1977833"><ele>473.66666666666663</ele><time>2026-04-26T14:04:19.231Z</time></trkpt><trkpt lat="43.326425" lon="13.197875"><ele>476.3333333333333</ele><time>2026-04-26T14:04:20.232Z</time></trkpt><trkpt lat="43.3265667" lon="13.19797"><ele>479.0</ele><time>2026-04-26T14:04:21.233Z</time></trkpt><trkpt lat="43.3267067" lon="13.1980767"><ele>474.3333333333333</ele><time>2026-04-26T14:04:22.235Z</time></trkpt><trkpt lat="43.3268383" lon="13.1982"><ele>469.66666666666663</ele><time>2026-04-26T14:04:23.233Z</time></trkpt><trkpt lat="43.3269567" lon="13.1983417"><ele>465.0</ele><time>2026-04-26T14:04:24.232Z</time></trkpt><trkpt lat="43.327065" lon="13.1984917"><ele>465.0</ele><time>2026-04-26T14:04:25.232Z</time></trkpt><trkpt lat="43.32717" lon="13.1986417"><ele>465.0</ele><time>2026-04-26T14:04:26.231Z</time></trkpt><trkpt lat="43.3272717" lon="13.198795"><ele>465.0</ele><time>2026-04-26T14:04:27.233Z</time></trkpt><trkpt lat="43.327365" lon="13.1989583"><ele>465.66666666666663</ele><time>2026-04-26T14:04:28.232Z</time></trkpt><trkpt lat="43.32745" lon="13.1991333"><ele>466.3333333333333</ele><time>2026-04-26T14:04:29.232Z</time></trkpt><trkpt lat="43.3275317" lon="13.1993133"><ele>467.0</ele><time>2026-04-26T14:04:30.232Z</time></trkpt><trkpt lat="43.32761" lon="13.1994933"><ele>467.0</ele><time>2026-04-26T14:04:31.234Z</time></trkpt><trkpt lat="43.3276917" lon="13.1996667"><ele>467.0</ele><time>2026-04-26T14:04:32.231Z</time></trkpt><trkpt lat="43.327785" lon="13.1998333"><ele>467.0</ele><time>2026-04-26T14:04:33.233Z</time></trkpt><trkpt lat="43.32789" lon="13.1999933"><ele>466.66666666666663</ele><time>2026-04-26T14:04:34.231Z</time></trkpt><trkpt lat="43.3280117" lon="13.20014"><ele>466.33333333333337</ele><time>2026-04-26T14:04:35.234Z</time></trkpt><trkpt lat="43.3281367" lon="13.2002867"><ele>466.0</ele><time>2026-04-26T14:04:36.233Z</time></trkpt><trkpt lat="43.328265" lon="13.2004317"><ele>467.0</ele><time>2026-04-26T14:04:37.233Z</time></trkpt><trkpt lat="43.3283867" lon="13.2005883"><ele>468.0</ele><time>2026-04-26T14:04:38.233Z</time></trkpt><trkpt lat="43.3285017" lon="13.200755"><ele>469.0</ele><time>2026-04-26T14:04:39.232Z</time></trkpt><trkpt lat="43.3286133" lon="13.2009267"><ele>467.0</ele><time>2026-04-26T14:04:40.233Z</time></trkpt><trkpt lat="43.32872" lon="13.20111"><ele>465.0</ele><time>2026-04-26T14:04:41.231Z</time></trkpt><trkpt lat="43.3288233" lon="13.20129"><ele>463.0</ele><time>2026-04-26T14:04:42.234Z</time></trkpt><trkpt lat="43.3289233" lon="13.2014717"><ele>462.6666666666667</ele><time>2026-04-26T14:04:43.232Z</time></trkpt><trkpt lat="43.3290217" lon="13.2016567"><ele>462.33333333333337</ele><time>2026-04-26T14:04:44.23Z</time></trkpt><trkpt lat="43.3291217" lon="13.201845"><ele>462.0</ele><time>2026-04-26T14:04:45.233Z</time></trkpt><trkpt lat="43.3292267" lon="13.2020217"><ele>462.0</ele><time>2026-04-26T14:04:46.237Z</time></trkpt><trkpt lat="43.3293367" lon="13.2021917"><ele>462.0</ele><time>2026-04-26T14:04:47.231Z</time></trkpt><trkpt lat="43.32945" lon="13.20235"><ele>462.0</ele><time>2026-04-26T14:04:48.23Z</time></trkpt><trkpt lat="43.3295667" lon="13.2025083"><ele>463.0</ele><time>2026-04-26T14:04:49.23Z</time></trkpt><trkpt lat="43.329695" lon="13.2026667"><ele>464.0</ele><time>2026-04-26T14:04:50.232Z</time></trkpt><trkpt lat="43.3298233" lon="13.2028233"><ele>465.0</ele><time>2026-04-26T14:04:51.23Z</time></trkpt><trkpt lat="43.3299517" lon="13.20298"><ele>465.0</ele><time>2026-04-26T14:04:52.232Z</time></trkpt><trkpt lat="43.330085" lon="13.2031367"><ele>465.0</ele><time>2026-04-26T14:04:53.232Z</time></trkpt><trkpt lat="43.3302167" lon="13.2033017"><ele>465.0</ele><time>2026-04-26T14:04:54.232Z</time></trkpt><trkpt lat="43.3303433" lon="13.2034717"><ele>462.0</ele><time>2026-04-26T14:04:55.23Z</time></trkpt><trkpt lat="43.33046" lon="13.20365"><ele>459.0</ele><time>2026-04-26T14:04:56.233Z</time></trkpt><trkpt lat="43.3305783" lon="13.2038267"><ele>456.0</ele><time>2026-04-26T14:04:57.231Z</time></trkpt><trkpt lat="43.3307" lon="13.2039933"><ele>458.33333333333337</ele><time>2026-04-26T14:04:58.232Z</time></trkpt><trkpt lat="43.3308167" lon="13.2041667"><ele>460.6666666666667</ele><time>2026-04-26T14:04:59.23Z</time></trkpt><trkpt lat="43.33092" lon="13.2043633"><ele>463.0</ele><time>2026-04-26T14:05:00.23Z</time></trkpt><trkpt lat="43.3310167" lon="13.2045733"><ele>463.0</ele><time>2026-04-26T14:05:01.234Z</time></trkpt><trkpt lat="43.331105" lon="13.2047883"><ele>463.0</ele><time>2026-04-26T14:05:02.232Z</time></trkpt><trkpt lat="43.3311867" lon="13.2050033"><ele>463.0</ele><time>2026-04-26T14:05:03.233Z</time></trkpt><trkpt lat="43.3312517" lon="13.20521"><ele>460.0</ele><time>2026-04-26T14:05:04.232Z</time></trkpt><trkpt lat="43.3313067" lon="13.2054217"><ele>457.0</ele><time>2026-04-26T14:05:05.232Z</time></trkpt><trkpt lat="43.33136" lon="13.2056417"><ele>454.0</ele><time>2026-04-26T14:05:06.233Z</time></trkpt><trkpt lat="43.3314067" lon="13.2058717"><ele>458.6666666666667</ele><time>2026-04-26T14:05:07.231Z</time></trkpt><trkpt lat="43.3314467" lon="13.20612"><ele>463.33333333333337</ele><time>2026-04-26T14:05:08.232Z</time></trkpt><trkpt lat="43.3314833" lon="13.2063783"><ele>468.0</ele><time>2026-04-26T14:05:09.235Z</time></trkpt><trkpt lat="43.3315167" lon="13.2066383"><ele>468.0</ele><time>2026-04-26T14:05:10.23Z</time></trkpt><trkpt lat="43.3315467" lon="13.206895"><ele>468.0</ele><time>2026-04-26T14:05:11.231Z</time></trkpt><trkpt lat="43.3315833" lon="13.2071383"><ele>468.0</ele><time>2026-04-26T14:05:12.23Z</time></trkpt><trkpt lat="43.331635" lon="13.2073483"><ele>465.66666666666663</ele><time>2026-04-26T14:05:13.233Z</time></trkpt><trkpt lat="43.33169" lon="13.2075433"><ele>463.3333333333333</ele><time>2026-04-26T14:05:14.23Z</time></trkpt><trkpt lat="43.3317533" lon="13.20773"><ele>461.0</ele><time>2026-04-26T14:05:15.233Z</time></trkpt><trkpt lat="43.3318183" lon="13.2079167"><ele>461.0</ele><time>2026-04-26T14:05:16.231Z</time></trkpt><trkpt lat="43.3318817" lon="13.2080983"><ele>461.0</ele><time>2026-04-26T14:05:17.233Z</time></trkpt><trkpt lat="43.3319417" lon="13.208275"><ele>461.0</ele><time>2026-04-26T14:05:18.231Z</time></trkpt><trkpt lat="43.3319883" lon="13.20845"><ele>461.0</ele><time>2026-04-26T14:05:19.23Z</time></trkpt><trkpt lat="43.3320167" lon="13.2086217"><ele>459.25</ele><time>2026-04-26T14:05:20.233Z</time></trkpt><trkpt lat="43.3320283" lon="13.2087983"><ele>457.5</ele><time>2026-04-26T14:05:21.234Z</time></trkpt><trkpt lat="43.3320267" lon="13.2089767"><ele>455.75</ele><time>2026-04-26T14:05:22.232Z</time></trkpt><trkpt lat="43.3320133" lon="13.2091533"><ele>454.0</ele><time>2026-04-26T14:05:23.232Z</time></trkpt><trkpt lat="43.3320067" lon="13.2093267"><ele>453.25</ele><time>2026-04-26T14:05:24.233Z</time></trkpt><trkpt lat="43.3320133" lon="13.2094983"><ele>452.5</ele><time>2026-04-26T14:05:25.233Z</time></trkpt><trkpt lat="43.3320283" lon="13.20967"><ele>451.75</ele><time>2026-04-26T14:05:26.232Z</time></trkpt><trkpt lat="43.3320383" lon="13.2098417"><ele>451.0</ele><time>2026-04-26T14:05:27.236Z</time></trkpt><trkpt lat="43.3320283" lon="13.2100183"><ele>450.0</ele><time>2026-04-26T14:05:28.234Z</time></trkpt><trkpt lat="43.3320117" lon="13.2101967"><ele>449.0</ele><time>2026-04-26T14:05:29.234Z</time></trkpt><trkpt lat="43.3319733" lon="13.2103933"><ele>448.0</ele><time>2026-04-26T14:05:30.234Z</time></trkpt><trkpt lat="43.33193" lon="13.2105983"><ele>447.0</ele><time>2026-04-26T14:05:31.227Z</time></trkpt><trkpt lat="43.33188" lon="13.210815"><ele>446.33333333333337</ele><time>2026-04-26T14:05:32.234Z</time></trkpt><trkpt lat="43.3318383" lon="13.2110283"><ele>445.6666666666667</ele><time>2026-04-26T14:05:33.232Z</time></trkpt><trkpt lat="43.3317917" lon="13.21124"><ele>445.0</ele><time>2026-04-26T14:05:34.232Z</time></trkpt><trkpt lat="43.331735" lon="13.2114467"><ele>446.0</ele><time>2026-04-26T14:05:35.231Z</time></trkpt><trkpt lat="43.3316667" lon="13.2116417"><ele>447.0</ele><time>2026-04-26T14:05:36.231Z</time></trkpt><trkpt lat="43.3316" lon="13.2118283"><ele>448.0</ele><time>2026-04-26T14:05:37.233Z</time></trkpt><trkpt lat="43.3315317" lon="13.2120183"><ele>448.0</ele><time>2026-04-26T14:05:38.233Z</time></trkpt><trkpt lat="43.3314683" lon="13.2122167"><ele>448.0</ele><time>2026-04-26T14:05:39.233Z</time></trkpt><trkpt lat="43.33141" lon="13.2124183"><ele>448.0</ele><time>2026-04-26T14:05:40.234Z</time></trkpt><trkpt lat="43.3313517" lon="13.2126183"><ele>449.5</ele><time>2026-04-26T14:05:41.232Z</time></trkpt><trkpt lat="43.3313" lon="13.2128033"><ele>451.0</ele><time>2026-04-26T14:05:42.232Z</time></trkpt><trkpt lat="43.3312617" lon="13.2129783"><ele>452.5</ele><time>2026-04-26T14:05:43.233Z</time></trkpt><trkpt lat="43.331245" lon="13.2131533"><ele>454.0</ele><time>2026-04-26T14:05:44.233Z</time></trkpt><trkpt lat="43.3312417" lon="13.2133383"><ele>454.0</ele><time>2026-04-26T14:05:45.233Z</time></trkpt><trkpt lat="43.331245" lon="13.21353"><ele>454.0</ele><time>2026-04-26T14:05:46.232Z</time></trkpt><trkpt lat="43.33125" lon="13.2137217"><ele>454.0</ele><time>2026-04-26T14:05:47.234Z</time></trkpt><trkpt lat="43.3312533" lon="13.2139083"><ele>454.0</ele><time>2026-04-26T14:05:48.232Z</time></trkpt><trkpt lat="43.3312433" lon="13.214095"><ele>453.0</ele><time>2026-04-26T14:05:49.232Z</time></trkpt><trkpt lat="43.3312267" lon="13.2142767"><ele>452.0</ele><time>2026-04-26T14:05:50.232Z</time></trkpt><trkpt lat="43.3312067" lon="13.2144517"><ele>451.0</ele><time>2026-04-26T14:05:51.24Z</time></trkpt><trkpt lat="43.3311783" lon="13.214625"><ele>450.0</ele><time>2026-04-26T14:05:52.231Z</time></trkpt><trkpt lat="43.3311333" lon="13.2148083"><ele>448.75</ele><time>2026-04-26T14:05:53.232Z</time></trkpt><trkpt lat="43.331085" lon="13.21499"><ele>447.5</ele><time>2026-04-26T14:05:54.232Z</time></trkpt><trkpt lat="43.3310317" lon="13.2151717"><ele>446.25</ele><time>2026-04-26T14:05:55.239Z</time></trkpt><trkpt lat="43.3309767" lon="13.215355"><ele>445.0</ele><time>2026-04-26T14:05:56.232Z</time></trkpt><trkpt lat="43.330925" lon="13.2155383"><ele>444.0</ele><time>2026-04-26T14:05:57.235Z</time></trkpt><trkpt lat="43.3308617" lon="13.2157167"><ele>443.0</ele><time>2026-04-26T14:05:58.231Z</time></trkpt><trkpt lat="43.3307933" lon="13.2158983"><ele>442.0</ele><time>2026-04-26T14:05:59.231Z</time></trkpt><trkpt lat="43.3307283" lon="13.2160833"><ele>441.0</ele><time>2026-04-26T14:06:00.232Z</time></trkpt><trkpt lat="43.3306633" lon="13.216285"><ele>441.0</ele><time>2026-04-26T14:06:01.232Z</time></trkpt><trkpt lat="43.3305967" lon="13.2165117"><ele>441.0</ele><time>2026-04-26T14:06:02.231Z</time></trkpt><trkpt lat="43.3305333" lon="13.2167417"><ele>441.0</ele><time>2026-04-26T14:06:03.232Z</time></trkpt><trkpt lat="43.3304767" lon="13.216965"><ele>440.25</ele><time>2026-04-26T14:06:04.233Z</time></trkpt><trkpt lat="43.3304233" lon="13.2171683"><ele>439.5</ele><time>2026-04-26T14:06:05.233Z</time></trkpt><trkpt lat="43.330375" lon="13.2173617"><ele>438.75</ele><time>2026-04-26T14:06:06.231Z</time></trkpt><trkpt lat="43.3303233" lon="13.2175367"><ele>438.0</ele><time>2026-04-26T14:06:07.231Z</time></trkpt><trkpt lat="43.3302717" lon="13.2177033"><ele>438.0</ele><time>2026-04-26T14:06:08.232Z</time></trkpt><trkpt lat="43.3302083" lon="13.2178767"><ele>438.0</ele><time>2026-04-26T14:06:09.234Z</time></trkpt><trkpt lat="43.3301367" lon="13.2180533"><ele>438.0</ele><time>2026-04-26T14:06:10.232Z</time></trkpt><trkpt lat="43.330065" lon="13.2182333"><ele>438.0</ele><time>2026-04-26T14:06:11.233Z</time></trkpt><trkpt lat="43.3299883" lon="13.2184233"><ele>437.66666666666663</ele><time>2026-04-26T14:06:12.235Z</time></trkpt><trkpt lat="43.3299133" lon="13.2186167"><ele>437.3333333333333</ele><time>2026-04-26T14:06:13.233Z</time></trkpt><trkpt lat="43.3298417" lon="13.21881"><ele>437.0</ele><time>2026-04-26T14:06:14.235Z</time></trkpt><trkpt lat="43.3297783" lon="13.2189933"><ele>442.5</ele><time>2026-04-26T14:06:15.234Z</time></trkpt><trkpt lat="43.32972" lon="13.2191533"><ele>448.0</ele><time>2026-04-26T14:06:16.233Z</time></trkpt><trkpt lat="43.3296617" lon="13.2193167"><ele>453.5</ele><time>2026-04-26T14:06:17.231Z</time></trkpt><trkpt lat="43.3296183" lon="13.2194783"><ele>459.0</ele><time>2026-04-26T14:06:18.231Z</time></trkpt><trkpt lat="43.329585" lon="13.2196367"><ele>459.0</ele><time>2026-04-26T14:06:19.234Z</time></trkpt><trkpt lat="43.329585" lon="13.2197883"><ele>459.0</ele><time>2026-04-26T14:06:20.233Z</time></trkpt><trkpt lat="43.3296033" lon="13.21995"><ele>459.0</ele><time>2026-04-26T14:06:21.234Z</time></trkpt><trkpt lat="43.329635" lon="13.2201217"><ele>459.0</ele><time>2026-04-26T14:06:22.233Z</time></trkpt><trkpt lat="43.329675" lon="13.2203183"><ele>457.5</ele><time>2026-04-26T14:06:23.23Z</time></trkpt><trkpt lat="43.329715" lon="13.22051"><ele>456.0</ele><time>2026-04-26T14:06:24.231Z</time></trkpt><trkpt lat="43.3297517" lon="13.2206917"><ele>454.5</ele><time>2026-04-26T14:06:25.231Z</time></trkpt><trkpt lat="43.329785" lon="13.220865"><ele>453.0</ele><time>2026-04-26T14:06:26.233Z</time></trkpt><trkpt lat="43.329805" lon="13.2210333"><ele>452.5</ele><time>2026-04-26T14:06:27.234Z</time></trkpt><trkpt lat="43.32981" lon="13.2211933"><ele>452.0</ele><time>2026-04-26T14:06:28.233Z</time></trkpt><trkpt lat="43.329795" lon="13.221355"><ele>451.5</ele><time>2026-04-26T14:06:29.23Z</time></trkpt><trkpt lat="43.3297533" lon="13.2215033"><ele>451.0</ele><time>2026-04-26T14:06:30.234Z</time></trkpt><trkpt lat="43.3297" lon="13.2216417"><ele>451.0</ele><time>2026-04-26T14:06:31.231Z</time></trkpt><trkpt lat="43.3296467" lon="13.2217867"><ele>451.0</ele><time>2026-04-26T14:06:32.229Z</time></trkpt><trkpt lat="43.3296" lon="13.2219417"><ele>451.0</ele><time>2026-04-26T14:06:33.235Z</time></trkpt><trkpt lat="43.3295567" lon="13.2221017"><ele>451.0</ele><time>2026-04-26T14:06:34.233Z</time></trkpt><trkpt lat="43.3295217" lon="13.2222633"><ele>446.0</ele><time>2026-04-26T14:06:35.231Z</time></trkpt><trkpt lat="43.3294867" lon="13.222415"><ele>441.0</ele><time>2026-04-26T14:06:36.231Z</time></trkpt><trkpt lat="43.3294417" lon="13.2225683"><ele>436.0</ele><time>2026-04-26T14:06:37.23Z</time></trkpt><trkpt lat="43.3293867" lon="13.2227167"><ele>431.0</ele><time>2026-04-26T14:06:38.233Z</time></trkpt><trkpt lat="43.32931" lon="13.2228683"><ele>431.0</ele><time>2026-04-26T14:06:39.232Z</time></trkpt><trkpt lat="43.32923" lon="13.2230267"><ele>431.0</ele><time>2026-04-26T14:06:40.235Z</time></trkpt><trkpt lat="43.3291533" lon="13.223185"><ele>431.0</ele><time>2026-04-26T14:06:41.233Z</time></trkpt><trkpt lat="43.3290933" lon="13.22335"><ele>431.0</ele><time>2026-04-26T14:06:42.231Z</time></trkpt><trkpt lat="43.3290467" lon="13.2235233"><ele>430.5</ele><time>2026-04-26T14:06:43.232Z</time></trkpt><trkpt lat="43.3289933" lon="13.2237"><ele>430.0</ele><time>2026-04-26T14:06:44.233Z</time></trkpt><trkpt lat="43.3289367" lon="13.2238733"><ele>429.5</ele><time>2026-04-26T14:06:45.231Z</time></trkpt><trkpt lat="43.3288733" lon="13.2240483"><ele>429.0</ele><time>2026-04-26T14:06:46.231Z</time></trkpt><trkpt lat="43.328815" lon="13.2242233"><ele>429.25</ele><time>2026-04-26T14:06:47.231Z</time></trkpt><trkpt lat="43.3287583" lon="13.2244067"><ele>429.5</ele><time>2026-04-26T14:06:48.234Z</time></trkpt><trkpt lat="43.3287033" lon="13.2245917"><ele>429.75</ele><time>2026-04-26T14:06:49.232Z</time></trkpt><trkpt lat="43.32865" lon="13.2247683"><ele>430.0</ele><time>2026-04-26T14:06:50.234Z</time></trkpt><trkpt lat="43.3286" lon="13.224945"><ele>430.0</ele><time>2026-04-26T14:06:51.237Z</time></trkpt><trkpt lat="43.3285667" lon="13.225115"><ele>430.0</ele><time>2026-04-26T14:06:52.234Z</time></trkpt><trkpt lat="43.3285533" lon="13.2252983"><ele>430.0</ele><time>2026-04-26T14:06:53.227Z</time></trkpt><trkpt lat="43.3285517" lon="13.2254867"><ele>430.0</ele><time>2026-04-26T14:06:54.231Z</time></trkpt><trkpt lat="43.3285567" lon="13.2256817"><ele>428.25</ele><time>2026-04-26T14:06:55.232Z</time></trkpt><trkpt lat="43.3285667" lon="13.2258817"><ele>426.5</ele><time>2026-04-26T14:06:56.231Z</time></trkpt><trkpt lat="43.328605" lon="13.226075"><ele>424.75</ele><time>2026-04-26T14:06:57.233Z</time></trkpt><trkpt lat="43.3286633" lon="13.226265"><ele>423.0</ele><time>2026-04-26T14:06:58.235Z</time></trkpt><trkpt lat="43.3287317" lon="13.226445"><ele>422.25</ele><time>2026-04-26T14:06:59.228Z</time></trkpt><trkpt lat="43.32879" lon="13.22662"><ele>421.5</ele><time>2026-04-26T14:07:00.234Z</time></trkpt><trkpt lat="43.3288317" lon="13.22679"><ele>420.75</ele><time>2026-04-26T14:07:01.232Z</time></trkpt><trkpt lat="43.3288433" lon="13.22697"><ele>420.0</ele><time>2026-04-26T14:07:02.23Z</time></trkpt><trkpt lat="43.32883" lon="13.227145"><ele>422.25</ele><time>2026-04-26T14:07:03.233Z</time></trkpt><trkpt lat="43.3288133" lon="13.2273117"><ele>424.5</ele><time>2026-04-26T14:07:04.233Z</time></trkpt><trkpt lat="43.328815" lon="13.227465"><ele>426.75</ele><time>2026-04-26T14:07:05.23Z</time></trkpt><trkpt lat="43.3288333" lon="13.2276233"><ele>429.0</ele><time>2026-04-26T14:07:06.23Z</time></trkpt><trkpt lat="43.328885" lon="13.2277683"><ele>427.66666666666663</ele><time>2026-04-26T14:07:07.231Z</time></trkpt><trkpt lat="43.3289817" lon="13.2279"><ele>426.3333333333333</ele><time>2026-04-26T14:07:08.229Z</time></trkpt><trkpt lat="43.3291133" lon="13.2280317"><ele>425.0</ele><time>2026-04-26T14:07:09.231Z</time></trkpt><trkpt lat="43.3292633" lon="13.2281683"><ele>420.0</ele><time>2026-04-26T14:07:10.231Z</time></trkpt><trkpt lat="43.3294167" lon="13.2283117"><ele>415.0</ele><time>2026-04-26T14:07:11.235Z</time></trkpt><trkpt lat="43.3295617" lon="13.2284617"><ele>410.0</ele><time>2026-04-26T14:07:12.233Z</time></trkpt><trkpt lat="43.3296917" lon="13.2286267"><ele>408.66666666666663</ele><time>2026-04-26T14:07:13.232Z</time></trkpt><trkpt lat="43.329815" lon="13.2288033"><ele>407.33333333333337</ele><time>2026-04-26T14:07:14.23Z</time></trkpt><trkpt lat="43.329935" lon="13.2289983"><ele>406.0</ele><time>2026-04-26T14:07:15.233Z</time></trkpt><trkpt lat="43.3300567" lon="13.2292133"><ele>406.0</ele><time>2026-04-26T14:07:16.236Z</time></trkpt><trkpt lat="43.33018" lon="13.229445"><ele>406.0</ele><time>2026-04-26T14:07:17.232Z</time></trkpt><trkpt lat="43.3303" lon="13.22968"><ele>406.0</ele><time>2026-04-26T14:07:18.232Z</time></trkpt><trkpt lat="43.3304117" lon="13.2299117"><ele>406.0</ele><time>2026-04-26T14:07:19.232Z</time></trkpt><trkpt lat="43.3305167" lon="13.230125"><ele>406.0</ele><time>2026-04-26T14:07:20.233Z</time></trkpt><trkpt lat="43.3306267" lon="13.2303267"><ele>406.0</ele><time>2026-04-26T14:07:21.233Z</time></trkpt><trkpt lat="43.3307483" lon="13.2305117"><ele>402.33333333333337</ele><time>2026-04-26T14:07:22.235Z</time></trkpt><trkpt lat="43.33088" lon="13.2306567"><ele>398.66666666666663</ele><time>2026-04-26T14:07:23.232Z</time></trkpt><trkpt lat="43.3310167" lon="13.2307767"><ele>395.0</ele><time>2026-04-26T14:07:24.231Z</time></trkpt><trkpt lat="43.3311583" lon="13.23088"><ele>395.0</ele><time>2026-04-26T14:07:25.233Z</time></trkpt><trkpt lat="43.3312883" lon="13.2309733"><ele>395.0</ele><time>2026-04-26T14:07:26.231Z</time></trkpt><trkpt lat="43.3314117" lon="13.2310633"><ele>395.0</ele><time>2026-04-26T14:07:27.233Z</time></trkpt><trkpt lat="43.3315183" lon="13.2311717"><ele>395.0</ele><time>2026-04-26T14:07:28.232Z</time></trkpt><trkpt lat="43.3316033" lon="13.231305"><ele>393.3333333333333</ele><time>2026-04-26T14:07:29.23Z</time></trkpt><trkpt lat="43.33168" lon="13.2314767"><ele>391.66666666666663</ele><time>2026-04-26T14:07:30.234Z</time></trkpt><trkpt lat="43.3317617" lon="13.2316767"><ele>390.0</ele><time>2026-04-26T14:07:31.231Z</time></trkpt><trkpt lat="43.3318467" lon="13.2318767"><ele>390.0</ele><time>2026-04-26T14:07:32.233Z</time></trkpt><trkpt lat="43.3319283" lon="13.2320683"><ele>390.0</ele><time>2026-04-26T14:07:33.23Z</time></trkpt><trkpt lat="43.3319983" lon="13.2322333"><ele>390.0</ele><time>2026-04-26T14:07:34.234Z</time></trkpt><trkpt lat="43.3320733" lon="13.2323667"><ele>390.0</ele><time>2026-04-26T14:07:35.232Z</time></trkpt><trkpt lat="43.3321667" lon="13.2324617"><ele>387.6</ele><time>2026-04-26T14:07:36.233Z</time></trkpt><trkpt lat="43.33226" lon="13.2325033"><ele>385.2</ele><time>2026-04-26T14:07:37.23Z</time></trkpt><trkpt lat="43.33235" lon="13.2325067"><ele>382.79999999999995</ele><time>2026-04-26T14:07:38.233Z</time></trkpt><trkpt lat="43.3324483" lon="13.2324767"><ele>380.4</ele><time>2026-04-26T14:07:39.23Z</time></trkpt><trkpt lat="43.332575" lon="13.2324033"><ele>378.0</ele><time>2026-04-26T14:07:40.232Z</time></trkpt><trkpt lat="43.332735" lon="13.2323633"><ele>378.0</ele><time>2026-04-26T14:07:41.231Z</time></trkpt><trkpt lat="43.3329067" lon="13.232355"><ele>378.0</ele><time>2026-04-26T14:07:42.234Z</time></trkpt><trkpt lat="43.3330833" lon="13.2323767"><ele>378.0</ele><time>2026-04-26T14:07:43.24Z</time></trkpt><trkpt lat="43.3332517" lon="13.232415"><ele>376.0</ele><time>2026-04-26T14:07:44.232Z</time></trkpt><trkpt lat="43.3334117" lon="13.2324683"><ele>374.0</ele><time>2026-04-26T14:07:45.236Z</time></trkpt><trkpt lat="43.3335517" lon="13.2325483"><ele>372.0</ele><time>2026-04-26T14:07:46.231Z</time></trkpt><trkpt lat="43.3336733" lon="13.2326617"><ele>372.0</ele><time>2026-04-26T14:07:47.231Z</time></trkpt><trkpt lat="43.3337933" lon="13.2327817"><ele>372.0</ele><time>2026-04-26T14:07:48.23Z</time></trkpt><trkpt lat="43.3339133" lon="13.2328783"><ele>372.0</ele><time>2026-04-26T14:07:49.231Z</time></trkpt><trkpt lat="43.3340483" lon="13.232925"><ele>372.0</ele><time>2026-04-26T14:07:50.233Z</time></trkpt><trkpt lat="43.3341967" lon="13.23292"><ele>372.0</ele><time>2026-04-26T14:07:51.233Z</time></trkpt><trkpt lat="43.33436" lon="13.2328667"><ele>372.0</ele><time>2026-04-26T14:07:52.23Z</time></trkpt><trkpt lat="43.3345233" lon="13.2327783"><ele>372.0</ele><time>2026-04-26T14:07:53.23Z</time></trkpt><trkpt lat="43.33467" lon="13.2326717"><ele>372.5</ele><time>2026-04-26T14:07:54.232Z</time></trkpt><trkpt lat="43.3348017" lon="13.2325517"><ele>373.0</ele><time>2026-04-26T14:07:55.232Z</time></trkpt><trkpt lat="43.33493" lon="13.2324483"><ele>373.5</ele><time>2026-04-26T14:07:56.233Z</time></trkpt><trkpt lat="43.3350583" lon="13.2323883"><ele>374.0</ele><time>2026-04-26T14:07:57.231Z</time></trkpt><trkpt lat="43.3351867" lon="13.2323833"><ele>374.0</ele><time>2026-04-26T14:07:58.232Z</time></trkpt><trkpt lat="43.3353117" lon="13.2324317"><ele>374.0</ele><time>2026-04-26T14:07:59.235Z</time></trkpt><trkpt lat="43.3354467" lon="13.2325283"><ele>374.0</ele><time>2026-04-26T14:08:00.231Z</time></trkpt><trkpt lat="43.3356" lon="13.2326733"><ele>375.0</ele><time>2026-04-26T14:08:01.234Z</time></trkpt><trkpt lat="43.33576" lon="13.232825"><ele>376.0</ele><time>2026-04-26T14:08:02.233Z</time></trkpt><trkpt lat="43.3359233" lon="13.2329817"><ele>377.0</ele><time>2026-04-26T14:08:03.237Z</time></trkpt><trkpt lat="43.3360883" lon="13.2331517"><ele>377.33333333333337</ele><time>2026-04-26T14:08:04.235Z</time></trkpt><trkpt lat="43.3362567" lon="13.2333367"><ele>377.6666666666667</ele><time>2026-04-26T14:08:05.235Z</time></trkpt><trkpt lat="43.3364283" lon="13.2335267"><ele>378.0</ele><time>2026-04-26T14:08:06.234Z</time></trkpt><trkpt lat="43.3365967" lon="13.23371"><ele>377.3333333333333</ele><time>2026-04-26T14:08:07.241Z</time></trkpt><trkpt lat="43.336765" lon="13.2338667"><ele>376.66666666666663</ele><time>2026-04-26T14:08:08.232Z</time></trkpt><trkpt lat="43.336935" lon="13.234005"><ele>376.0</ele><time>2026-04-26T14:08:09.232Z</time></trkpt><trkpt lat="43.3370967" lon="13.23414"><ele>378.0</ele><time>2026-04-26T14:08:10.232Z</time></trkpt><trkpt lat="43.3372433" lon="13.2342833"><ele>380.0</ele><time>2026-04-26T14:08:11.234Z</time></trkpt><trkpt lat="43.33737" lon="13.234435"><ele>382.0</ele><time>2026-04-26T14:08:12.238Z</time></trkpt><trkpt lat="43.337455" lon="13.2345967"><ele>382.0</ele><time>2026-04-26T14:08:13.233Z</time></trkpt><trkpt lat="43.3375017" lon="13.23477"><ele>382.0</ele><time>2026-04-26T14:08:14.234Z</time></trkpt><trkpt lat="43.3375317" lon="13.2349483"><ele>382.0</ele><time>2026-04-26T14:08:15.236Z</time></trkpt><trkpt lat="43.3375783" lon="13.23513"><ele>382.0</ele><time>2026-04-26T14:08:16.233Z</time></trkpt><trkpt lat="43.3376583" lon="13.235295"><ele>375.3333333333333</ele><time>2026-04-26T14:08:17.233Z</time></trkpt><trkpt lat="43.3377467" lon="13.235455"><ele>368.6666666666667</ele><time>2026-04-26T14:08:18.23Z</time></trkpt><trkpt lat="43.337825" lon="13.2356267"><ele>362.0</ele><time>2026-04-26T14:08:19.232Z</time></trkpt><trkpt lat="43.3378717" lon="13.2358333"><ele>361.33333333333337</ele><time>2026-04-26T14:08:20.232Z</time></trkpt><trkpt lat="43.3378833" lon="13.23609"><ele>360.6666666666667</ele><time>2026-04-26T14:08:21.238Z</time></trkpt><trkpt lat="43.3378633" lon="13.2363667"><ele>360.0</ele><time>2026-04-26T14:08:22.233Z</time></trkpt><trkpt lat="43.3378317" lon="13.236635"><ele>360.0</ele><time>2026-04-26T14:08:23.232Z</time></trkpt><trkpt lat="43.3377833" lon="13.2368783"><ele>360.0</ele><time>2026-04-26T14:08:24.234Z</time></trkpt><trkpt lat="43.3377217" lon="13.2370867"><ele>360.0</ele><time>2026-04-26T14:08:25.232Z</time></trkpt><trkpt lat="43.3376633" lon="13.23728"><ele>359.0</ele><time>2026-04-26T14:08:26.232Z</time></trkpt><trkpt lat="43.33763" lon="13.2374783"><ele>358.0</ele><time>2026-04-26T14:08:27.235Z</time></trkpt><trkpt lat="43.337615" lon="13.2376983"><ele>357.0</ele><time>2026-04-26T14:08:28.234Z</time></trkpt><trkpt lat="43.3376367" lon="13.2379333"><ele>354.6666666666667</ele><time>2026-04-26T14:08:29.231Z</time></trkpt><trkpt lat="43.33767" lon="13.2381617"><ele>352.33333333333337</ele><time>2026-04-26T14:08:30.232Z</time></trkpt><trkpt lat="43.33769" lon="13.2383867"><ele>350.0</ele><time>2026-04-26T14:08:31.234Z</time></trkpt><trkpt lat="43.3376883" lon="13.2386083"><ele>350.0</ele><time>2026-04-26T14:08:32.233Z</time></trkpt><trkpt lat="43.3376917" lon="13.23881"><ele>350.0</ele><time>2026-04-26T14:08:33.234Z</time></trkpt><trkpt lat="43.3377283" lon="13.23898"><ele>350.0</ele><time>2026-04-26T14:08:34.232Z</time></trkpt><trkpt lat="43.337805" lon="13.239135"><ele>350.0</ele><time>2026-04-26T14:08:35.231Z</time></trkpt><trkpt lat="43.337885" lon="13.2392983"><ele>349.0</ele><time>2026-04-26T14:08:36.235Z</time></trkpt><trkpt lat="43.3379367" lon="13.2395133"><ele>348.0</ele><time>2026-04-26T14:08:37.233Z</time></trkpt><trkpt lat="43.3379483" lon="13.2397667"><ele>347.0</ele><time>2026-04-26T14:08:38.234Z</time></trkpt><trkpt lat="43.3379433" lon="13.2400217"><ele>347.0</ele><time>2026-04-26T14:08:39.235Z</time></trkpt><trkpt lat="43.3379367" lon="13.2402583"><ele>347.0</ele><time>2026-04-26T14:08:40.229Z</time></trkpt><trkpt lat="43.337935" lon="13.2404833"><ele>347.0</ele><time>2026-04-26T14:08:41.233Z</time></trkpt><trkpt lat="43.3379483" lon="13.240705"><ele>347.0</ele><time>2026-04-26T14:08:42.232Z</time></trkpt><trkpt lat="43.3379883" lon="13.2409267"><ele>347.0</ele><time>2026-04-26T14:08:43.234Z</time></trkpt><trkpt lat="43.3380633" lon="13.2411517"><ele>347.0</ele><time>2026-04-26T14:08:44.231Z</time></trkpt><trkpt lat="43.338155" lon="13.2413867"><ele>351.33333333333337</ele><time>2026-04-26T14:08:45.232Z</time></trkpt><trkpt lat="43.3382317" lon="13.24164"><ele>355.6666666666667</ele><time>2026-04-26T14:08:46.232Z</time></trkpt><trkpt lat="43.3382917" lon="13.241895"><ele>360.0</ele><time>2026-04-26T14:08:47.23Z</time></trkpt><trkpt lat="43.3383583" lon="13.2421383"><ele>357.3333333333333</ele><time>2026-04-26T14:08:48.233Z</time></trkpt><trkpt lat="43.338445" lon="13.2423817"><ele>354.66666666666663</ele><time>2026-04-26T14:08:49.233Z</time></trkpt><trkpt lat="43.338545" lon="13.2426233"><ele>352.0</ele><time>2026-04-26T14:08:50.234Z</time></trkpt><trkpt lat="43.3386533" lon="13.24288"><ele>352.0</ele><time>2026-04-26T14:08:51.232Z</time></trkpt><trkpt lat="43.3387733" lon="13.2431283"><ele>352.0</ele><time>2026-04-26T14:08:52.232Z</time></trkpt><trkpt lat="43.3388983" lon="13.2433383"><ele>352.0</ele><time>2026-04-26T14:08:53.232Z</time></trkpt><trkpt lat="43.339025" lon="13.2435283"><ele>356.3333333333333</ele><time>2026-04-26T14:08:54.235Z</time></trkpt><trkpt lat="43.3391417" lon="13.2437017"><ele>360.6666666666667</ele><time>2026-04-26T14:08:55.233Z</time></trkpt><trkpt lat="43.33924" lon="13.2438767"><ele>365.0</ele><time>2026-04-26T14:08:56.232Z</time></trkpt><trkpt lat="43.3393083" lon="13.244065"><ele>365.0</ele><time>2026-04-26T14:08:57.236Z</time></trkpt><trkpt lat="43.33935" lon="13.2442667"><ele>365.0</ele><time>2026-04-26T14:08:58.231Z</time></trkpt><trkpt lat="43.3393833" lon="13.2444583"><ele>365.0</ele><time>2026-04-26T14:08:59.234Z</time></trkpt><trkpt lat="43.339435" lon="13.24464"><ele>365.0</ele><time>2026-04-26T14:09:00.238Z</time></trkpt><trkpt lat="43.3395133" lon="13.2448333"><ele>364.33333333333337</ele><time>2026-04-26T14:09:01.234Z</time></trkpt><trkpt lat="43.3396167" lon="13.2450067"><ele>363.6666666666667</ele><time>2026-04-26T14:09:02.232Z</time></trkpt><trkpt lat="43.3397267" lon="13.2451533"><ele>363.0</ele><time>2026-04-26T14:09:03.232Z</time></trkpt><trkpt lat="43.3398383" lon="13.2452767"><ele>363.0</ele><time>2026-04-26T14:09:04.232Z</time></trkpt><trkpt lat="43.339925" lon="13.2453983"><ele>363.0</ele><time>2026-04-26T14:09:05.232Z</time></trkpt><trkpt lat="43.3399733" lon="13.2455133"><ele>363.0</ele><time>2026-04-26T14:09:06.232Z</time></trkpt><trkpt lat="43.3399733" lon="13.2456283"><ele>363.0</ele><time>2026-04-26T14:09:07.232Z</time></trkpt><trkpt lat="43.3399217" lon="13.2457267"><ele>363.0</ele><time>2026-04-26T14:09:08.233Z</time></trkpt><trkpt lat="43.33982" lon="13.24582"><ele>357.6666666666667</ele><time>2026-04-26T14:09:09.235Z</time></trkpt><trkpt lat="43.3396767" lon="13.2458883"><ele>352.33333333333337</ele><time>2026-04-26T14:09:10.234Z</time></trkpt><trkpt lat="43.33952" lon="13.2459817"><ele>347.0</ele><time>2026-04-26T14:09:11.232Z</time></trkpt><trkpt lat="43.3393617" lon="13.2461167"><ele>347.0</ele><time>2026-04-26T14:09:12.233Z</time></trkpt><trkpt lat="43.339215" lon="13.2462883"><ele>347.0</ele><time>2026-04-26T14:09:13.232Z</time></trkpt><trkpt lat="43.3390817" lon="13.2464717"><ele>347.0</ele><time>2026-04-26T14:09:14.236Z</time></trkpt><trkpt lat="43.338945" lon="13.2466317"><ele>345.6666666666667</ele><time>2026-04-26T14:09:15.237Z</time></trkpt><trkpt lat="43.3388017" lon="13.2467683"><ele>344.3333333333333</ele><time>2026-04-26T14:09:16.233Z</time></trkpt><trkpt lat="43.338665" lon="13.24691"><ele>343.0</ele><time>2026-04-26T14:09:17.232Z</time></trkpt><trkpt lat="43.3385467" lon="13.2470817"><ele>344.0</ele><time>2026-04-26T14:09:18.234Z</time></trkpt><trkpt lat="43.3384267" lon="13.247295"><ele>345.0</ele><time>2026-04-26T14:09:19.233Z</time></trkpt><trkpt lat="43.338305" lon="13.2475183"><ele>346.0</ele><time>2026-04-26T14:09:20.235Z</time></trkpt><trkpt lat="43.3381883" lon="13.2477383"><ele>346.0</ele><time>2026-04-26T14:09:21.235Z</time></trkpt><trkpt lat="43.3380833" lon="13.24795"><ele>346.0</ele><time>2026-04-26T14:09:22.234Z</time></trkpt><trkpt lat="43.33801" lon="13.248155"><ele>346.0</ele><time>2026-04-26T14:09:23.233Z</time></trkpt><trkpt lat="43.33798" lon="13.2483683"><ele>345.3333333333333</ele><time>2026-04-26T14:09:24.23Z</time></trkpt><trkpt lat="43.3380033" lon="13.2485867"><ele>344.6666666666667</ele><time>2026-04-26T14:09:25.233Z</time></trkpt><trkpt lat="43.33807" lon="13.2488183"><ele>344.0</ele><time>2026-04-26T14:09:26.232Z</time></trkpt><trkpt lat="43.3381833" lon="13.249065"><ele>341.0</ele><time>2026-04-26T14:09:27.233Z</time></trkpt><trkpt lat="43.33832" lon="13.2493217"><ele>338.0</ele><time>2026-04-26T14:09:28.232Z</time></trkpt><trkpt lat="43.3384483" lon="13.2495667"><ele>336.33333333333337</ele><time>2026-04-26T14:09:29.234Z</time></trkpt><trkpt lat="43.3385683" lon="13.2497967"><ele>334.6666666666667</ele><time>2026-04-26T14:09:30.232Z</time></trkpt><trkpt lat="43.3386817" lon="13.250015"><ele>333.0</ele><time>2026-04-26T14:09:31.235Z</time></trkpt><trkpt lat="43.33879" lon="13.2502217"><ele>333.6666666666667</ele><time>2026-04-26T14:09:32.235Z</time></trkpt><trkpt lat="43.3389017" lon="13.2504067"><ele>334.33333333333337</ele><time>2026-04-26T14:09:33.252Z</time></trkpt><trkpt lat="43.339045" lon="13.250555"><ele>335.0</ele><time>2026-04-26T14:09:34.232Z</time></trkpt><trkpt lat="43.339215" lon="13.2506633"><ele>335.0</ele><time>2026-04-26T14:09:35.235Z</time></trkpt><trkpt lat="43.33942" lon="13.250735"><ele>335.0</ele><time>2026-04-26T14:09:36.233Z</time></trkpt><trkpt lat="43.339625" lon="13.25079"><ele>335.0</ele><time>2026-04-26T14:09:37.234Z</time></trkpt><trkpt lat="43.3398183" lon="13.2508683"><ele>336.33333333333337</ele><time>2026-04-26T14:09:38.233Z</time></trkpt><trkpt lat="43.3399967" lon="13.2509983"><ele>337.6666666666667</ele><time>2026-04-26T14:09:39.235Z</time></trkpt><trkpt lat="43.3401667" lon="13.2511717"><ele>339.0</ele><time>2026-04-26T14:09:40.233Z</time></trkpt><trkpt lat="43.340365" lon="13.251355"><ele>339.5</ele><time>2026-04-26T14:09:41.232Z</time></trkpt><trkpt lat="43.3405933" lon="13.2515267"><ele>340.0</ele><time>2026-04-26T14:09:42.233Z</time></trkpt><trkpt lat="43.3408467" lon="13.2516933"><ele>340.0</ele><time>2026-04-26T14:09:43.231Z</time></trkpt><trkpt lat="43.341115" lon="13.251875"><ele>340.0</ele><time>2026-04-26T14:09:44.233Z</time></trkpt><trkpt lat="43.34137" lon="13.25206"><ele>340.5</ele><time>2026-04-26T14:09:45.236Z</time></trkpt><trkpt lat="43.3416067" lon="13.252255"><ele>341.0</ele><time>2026-04-26T14:09:46.235Z</time></trkpt><trkpt lat="43.3418317" lon="13.2524683"><ele>341.0</ele><time>2026-04-26T14:09:47.235Z</time></trkpt><trkpt lat="43.3420433" lon="13.25268"><ele>341.0</ele><time>2026-04-26T14:09:48.234Z</time></trkpt><trkpt lat="43.34223" lon="13.2528883"><ele>343.33333333333337</ele><time>2026-04-26T14:09:49.234Z</time></trkpt><trkpt lat="43.342395" lon="13.2530917"><ele>345.6666666666667</ele><time>2026-04-26T14:09:50.235Z</time></trkpt><trkpt lat="43.3425217" lon="13.2532917"><ele>348.0</ele><time>2026-04-26T14:09:51.237Z</time></trkpt><trkpt lat="43.3426117" lon="13.2535167"><ele>348.0</ele><time>2026-04-26T14:09:52.241Z</time></trkpt><trkpt lat="43.3426833" lon="13.2537767"><ele>348.0</ele><time>2026-04-26T14:09:53.233Z</time></trkpt><trkpt lat="43.342755" lon="13.25406"><ele>348.0</ele><time>2026-04-26T14:09:54.234Z</time></trkpt><trkpt lat="43.342845" lon="13.25437"><ele>348.0</ele><time>2026-04-26T14:09:55.233Z</time></trkpt><trkpt lat="43.342955" lon="13.2546967"><ele>348.0</ele><time>2026-04-26T14:09:56.232Z</time></trkpt><trkpt lat="43.34307" lon="13.2550167"><ele>348.0</ele><time>2026-04-26T14:09:57.232Z</time></trkpt><trkpt lat="43.3431817" lon="13.25532"><ele>348.0</ele><time>2026-04-26T14:09:58.233Z</time></trkpt><trkpt lat="43.34328" lon="13.2556133"><ele>346.3333333333333</ele><time>2026-04-26T14:09:59.234Z</time></trkpt><trkpt lat="43.3433517" lon="13.2559033"><ele>344.66666666666663</ele><time>2026-04-26T14:10:00.234Z</time></trkpt><trkpt lat="43.343395" lon="13.2561867"><ele>343.0</ele><time>2026-04-26T14:10:01.233Z</time></trkpt><trkpt lat="43.343415" lon="13.256465"><ele>341.66666666666663</ele><time>2026-04-26T14:10:02.232Z</time></trkpt><trkpt lat="43.3434233" lon="13.256755"><ele>340.3333333333333</ele><time>2026-04-26T14:10:03.235Z</time></trkpt><trkpt lat="43.3434383" lon="13.2570517"><ele>339.0</ele><time>2026-04-26T14:10:04.238Z</time></trkpt><trkpt lat="43.3434683" lon="13.2573417"><ele>337.3333333333333</ele><time>2026-04-26T14:10:05.232Z</time></trkpt><trkpt lat="43.3435183" lon="13.2576317"><ele>335.66666666666663</ele><time>2026-04-26T14:10:06.233Z</time></trkpt><trkpt lat="43.3435767" lon="13.257915"><ele>334.0</ele><time>2026-04-26T14:10:07.23Z</time></trkpt><trkpt lat="43.3436483" lon="13.25816"><ele>334.3333333333333</ele><time>2026-04-26T14:10:08.234Z</time></trkpt><trkpt lat="43.3437517" lon="13.2583933"><ele>334.6666666666667</ele><time>2026-04-26T14:10:09.234Z</time></trkpt><trkpt lat="43.3438833" lon="13.258605"><ele>335.0</ele><time>2026-04-26T14:10:10.233Z</time></trkpt><trkpt lat="43.3440467" lon="13.258805"><ele>334.33333333333337</ele><time>2026-04-26T14:10:11.234Z</time></trkpt><trkpt lat="43.34423" lon="13.2589783"><ele>333.6666666666667</ele><time>2026-04-26T14:10:12.234Z</time></trkpt><trkpt lat="43.3443983" lon="13.25914"><ele>333.0</ele><time>2026-04-26T14:10:13.234Z</time></trkpt><trkpt lat="43.34454" lon="13.2593133"><ele>333.0</ele><time>2026-04-26T14:10:14.232Z</time></trkpt><trkpt lat="43.3446567" lon="13.2595333"><ele>333.0</ele><time>2026-04-26T14:10:15.233Z</time></trkpt><trkpt lat="43.3447667" lon="13.2597883"><ele>333.0</ele><time>2026-04-26T14:10:16.232Z</time></trkpt><trkpt lat="43.34487" lon="13.26006"><ele>335.0</ele><time>2026-04-26T14:10:17.231Z</time></trkpt><trkpt lat="43.3449583" lon="13.2603433"><ele>337.0</ele><time>2026-04-26T14:10:18.234Z</time></trkpt><trkpt lat="43.345035" lon="13.2606483"><ele>337.0</ele><time>2026-04-26T14:10:19.233Z</time></trkpt><trkpt lat="43.3451017" lon="13.2609717"><ele>337.0</ele><time>2026-04-26T14:10:20.235Z</time></trkpt><trkpt lat="43.34517" lon="13.2612883"><ele>336.0</ele><time>2026-04-26T14:10:21.236Z</time></trkpt><trkpt lat="43.345235" lon="13.26159"><ele>335.0</ele><time>2026-04-26T14:10:22.231Z</time></trkpt><trkpt lat="43.3452967" lon="13.26188"><ele>334.0</ele><time>2026-04-26T14:10:23.232Z</time></trkpt><trkpt lat="43.3453533" lon="13.26216"><ele>333.3333333333333</ele><time>2026-04-26T14:10:24.233Z</time></trkpt><trkpt lat="43.3454083" lon="13.26242"><ele>332.6666666666667</ele><time>2026-04-26T14:10:25.234Z</time></trkpt><trkpt lat="43.3454683" lon="13.2626467"><ele>332.0</ele><time>2026-04-26T14:10:26.233Z</time></trkpt><trkpt lat="43.34555" lon="13.2628317"><ele>332.0</ele><time>2026-04-26T14:10:27.23Z</time></trkpt><trkpt lat="43.345655" lon="13.2629767"><ele>332.0</ele><time>2026-04-26T14:10:28.231Z</time></trkpt><trkpt lat="43.3457933" lon="13.2630767"><ele>332.0</ele><time>2026-04-26T14:10:29.232Z</time></trkpt><trkpt lat="43.3459683" lon="13.2631333"><ele>332.0</ele><time>2026-04-26T14:10:30.232Z</time></trkpt><trkpt lat="43.3461767" lon="13.2631717"><ele>332.0</ele><time>2026-04-26T14:10:31.236Z</time></trkpt><trkpt lat="43.3464083" lon="13.26322"><ele>332.0</ele><time>2026-04-26T14:10:32.23Z</time></trkpt><trkpt lat="43.3466417" lon="13.263285"><ele>332.0</ele><time>2026-04-26T14:10:33.232Z</time></trkpt><trkpt lat="43.3468617" lon="13.2633517"><ele>332.0</ele><time>2026-04-26T14:10:34.231Z</time></trkpt><trkpt lat="43.3470717" lon="13.2634117"><ele>332.0</ele><time>2026-04-26T14:10:35.233Z</time></trkpt><trkpt lat="43.3472667" lon="13.2634683"><ele>331.6666666666667</ele><time>2026-04-26T14:10:36.233Z</time></trkpt><trkpt lat="43.3474417" lon="13.2635183"><ele>331.3333333333333</ele><time>2026-04-26T14:10:37.235Z</time></trkpt><trkpt lat="43.3476033" lon="13.2635617"><ele>331.0</ele><time>2026-04-26T14:10:38.233Z</time></trkpt><trkpt lat="43.34775" lon="13.263605"><ele>331.0</ele><time>2026-04-26T14:10:39.234Z</time></trkpt><trkpt lat="43.347875" lon="13.2636433"><ele>331.0</ele><time>2026-04-26T14:10:40.233Z</time></trkpt><trkpt lat="43.3479767" lon="13.26369"><ele>331.0</ele><time>2026-04-26T14:10:41.232Z</time></trkpt><trkpt lat="43.3480483" lon="13.26376"><ele>331.0</ele><time>2026-04-26T14:10:42.23Z</time></trkpt><trkpt lat="43.34809" lon="13.2638433"><ele>331.0</ele><time>2026-04-26T14:10:43.23Z</time></trkpt><trkpt lat="43.34809" lon="13.2639483"><ele>330.75</ele><time>2026-04-26T14:10:44.231Z</time></trkpt><trkpt lat="43.3480617" lon="13.2640633"><ele>330.5</ele><time>2026-04-26T14:10:45.245Z</time></trkpt><trkpt lat="43.34797" lon="13.2642567"><ele>330.25</ele><time>2026-04-26T14:10:46.231Z</time></trkpt><trkpt lat="43.3478617" lon="13.2644733"><ele>330.0</ele><time>2026-04-26T14:10:47.234Z</time></trkpt><trkpt lat="43.3477517" lon="13.26472"><ele>329.0</ele><time>2026-04-26T14:10:48.235Z</time></trkpt><trkpt lat="43.3476383" lon="13.2649667"><ele>328.0</ele><time>2026-04-26T14:10:49.233Z</time></trkpt><trkpt lat="43.3475333" lon="13.2651967"><ele>327.0</ele><time>2026-04-26T14:10:50.233Z</time></trkpt><trkpt lat="43.3474333" lon="13.2654217"><ele>326.3333333333333</ele><time>2026-04-26T14:10:51.235Z</time></trkpt><trkpt lat="43.3473417" lon="13.2656367"><ele>325.66666666666663</ele><time>2026-04-26T14:10:52.233Z</time></trkpt><trkpt lat="43.34726" lon="13.26584"><ele>325.0</ele><time>2026-04-26T14:10:53.233Z</time></trkpt><trkpt lat="43.3471717" lon="13.266045"><ele>324.3333333333333</ele><time>2026-04-26T14:10:54.232Z</time></trkpt><trkpt lat="43.34708" lon="13.266255"><ele>323.6666666666667</ele><time>2026-04-26T14:10:55.233Z</time></trkpt><trkpt lat="43.34699" lon="13.2664567"><ele>323.0</ele><time>2026-04-26T14:10:56.232Z</time></trkpt><trkpt lat="43.3469067" lon="13.2666433"><ele>322.5</ele><time>2026-04-26T14:10:57.231Z</time></trkpt><trkpt lat="43.3468317" lon="13.2668167"><ele>322.0</ele><time>2026-04-26T14:10:58.231Z</time></trkpt><trkpt lat="43.3467617" lon="13.2669717"><ele>321.5</ele><time>2026-04-26T14:10:59.233Z</time></trkpt><trkpt lat="43.3466983" lon="13.2671133"><ele>321.0</ele><time>2026-04-26T14:11:00.231Z</time></trkpt><trkpt lat="43.3466467" lon="13.26724"><ele>320.8333333333333</ele><time>2026-04-26T14:11:01.233Z</time></trkpt><trkpt lat="43.3466133" lon="13.2673517"><ele>320.6666666666667</ele><time>2026-04-26T14:11:02.235Z</time></trkpt><trkpt lat="43.3465933" lon="13.2674617"><ele>320.5</ele><time>2026-04-26T14:11:03.233Z</time></trkpt><trkpt lat="43.3466217" lon="13.2675433"><ele>320.33333333333337</ele><time>2026-04-26T14:11:04.233Z</time></trkpt><trkpt lat="43.34666" lon="13.267625"><ele>320.1666666666667</ele><time>2026-04-26T14:11:05.231Z</time></trkpt><trkpt lat="43.3466967" lon="13.2677283"><ele>320.0</ele><time>2026-04-26T14:11:06.231Z</time></trkpt><trkpt lat="43.3467317" lon="13.26785"><ele>320.0</ele><time>2026-04-26T14:11:07.238Z</time></trkpt><trkpt lat="43.3467617" lon="13.26798"><ele>320.0</ele><time>2026-04-26T14:11:08.233Z</time></trkpt><trkpt lat="43.3467917" lon="13.2681083"><ele>320.0</ele><time>2026-04-26T14:11:09.234Z</time></trkpt><trkpt lat="43.3468233" lon="13.2682367"><ele>320.0</ele><time>2026-04-26T14:11:10.233Z</time></trkpt><trkpt lat="43.34686" lon="13.2683767"><ele>320.0</ele><time>2026-04-26T14:11:11.23Z</time></trkpt><trkpt lat="43.3469" lon="13.2685467"><ele>319.33333333333337</ele><time>2026-04-26T14:11:12.232Z</time></trkpt><trkpt lat="43.3469467" lon="13.268745"><ele>318.6666666666667</ele><time>2026-04-26T14:11:13.231Z</time></trkpt><trkpt lat="43.3469917" lon="13.26896"><ele>318.0</ele><time>2026-04-26T14:11:14.234Z</time></trkpt><trkpt lat="43.3470383" lon="13.2691767"><ele>317.3333333333333</ele><time>2026-04-26T14:11:15.231Z</time></trkpt><trkpt lat="43.3470833" lon="13.2693867"><ele>316.66666666666663</ele><time>2026-04-26T14:11:16.232Z</time></trkpt><trkpt lat="43.3471283" lon="13.2695833"><ele>316.0</ele><time>2026-04-26T14:11:17.233Z</time></trkpt><trkpt lat="43.34717" lon="13.2697717"><ele>315.75</ele><time>2026-04-26T14:11:18.236Z</time></trkpt><trkpt lat="43.3472083" lon="13.2699533"><ele>315.5</ele><time>2026-04-26T14:11:19.231Z</time></trkpt><trkpt lat="43.3472517" lon="13.2701317"><ele>315.25</ele><time>2026-04-26T14:11:20.23Z</time></trkpt><trkpt lat="43.3472833" lon="13.2702967"><ele>315.0</ele><time>2026-04-26T14:11:21.24Z</time></trkpt><trkpt lat="43.34732" lon="13.2704567"><ele>315.0</ele><time>2026-04-26T14:11:22.231Z</time></trkpt><trkpt lat="43.347345" lon="13.270595"><ele>315.0</ele><time>2026-04-26T14:11:23.231Z</time></trkpt><trkpt lat="43.3473683" lon="13.2707033"><ele>315.0</ele><time>2026-04-26T14:11:24.231Z</time></trkpt><trkpt lat="43.34741" lon="13.2708283"><ele>315.0</ele><time>2026-04-26T14:11:26.23Z</time></trkpt><trkpt lat="43.3474633" lon="13.2708883"><ele>315.0</ele><time>2026-04-26T14:11:29.229Z</time></trkpt><trkpt lat="43.3475583" lon="13.270845"><ele>315.0</ele><time>2026-04-26T14:11:31.232Z</time></trkpt><trkpt lat="43.3476267" lon="13.2707767"><ele>315.0</ele><time>2026-04-26T14:11:32.231Z</time></trkpt><trkpt lat="43.3477117" lon="13.2706733"><ele>315.0</ele><time>2026-04-26T14:11:33.232Z</time></trkpt><trkpt lat="43.3478117" lon="13.27052"><ele>315.0</ele><time>2026-04-26T14:11:34.232Z</time></trkpt><trkpt lat="43.34791" lon="13.2703567"><ele>315.0</ele><time>2026-04-26T14:11:35.231Z</time></trkpt><trkpt lat="43.348005" lon="13.2701567"><ele>315.0</ele><time>2026-04-26T14:11:36.23Z</time></trkpt><trkpt lat="43.34809" lon="13.2699267"><ele>315.0</ele><time>2026-04-26T14:11:37.233Z</time></trkpt><trkpt lat="43.3481667" lon="13.2696617"><ele>314.6666666666667</ele><time>2026-04-26T14:11:38.233Z</time></trkpt><trkpt lat="43.3482417" lon="13.2693767"><ele>314.33333333333337</ele><time>2026-04-26T14:11:39.235Z</time></trkpt><trkpt lat="43.3483133" lon="13.2691117"><ele>314.0</ele><time>2026-04-26T14:11:40.231Z</time></trkpt><trkpt lat="43.3483817" lon="13.268865"><ele>314.0</ele><time>2026-04-26T14:11:41.235Z</time></trkpt><trkpt lat="43.348455" lon="13.2686367"><ele>314.0</ele><time>2026-04-26T14:11:42.235Z</time></trkpt><trkpt lat="43.3485433" lon="13.2684383"><ele>314.0</ele><time>2026-04-26T14:11:43.233Z</time></trkpt><trkpt lat="43.34866" lon="13.268295"><ele>314.0</ele><time>2026-04-26T14:11:44.236Z</time></trkpt><trkpt lat="43.3488033" lon="13.2682183"><ele>314.0</ele><time>2026-04-26T14:11:45.233Z</time></trkpt><trkpt lat="43.3489683" lon="13.2681917"><ele>314.0</ele><time>2026-04-26T14:11:46.235Z</time></trkpt><trkpt lat="43.34917" lon="13.26819"><ele>312.0</ele><time>2026-04-26T14:11:47.234Z</time></trkpt><trkpt lat="43.3493917" lon="13.2681833"><ele>310.0</ele><time>2026-04-26T14:11:48.231Z</time></trkpt><trkpt lat="43.3496283" lon="13.268135"><ele>312.5</ele><time>2026-04-26T14:11:49.232Z</time></trkpt><trkpt lat="43.349875" lon="13.268055"><ele>315.0</ele><time>2026-04-26T14:11:50.234Z</time></trkpt><trkpt lat="43.3501333" lon="13.26795"><ele>315.0</ele><time>2026-04-26T14:11:51.233Z</time></trkpt><trkpt lat="43.3504083" lon="13.2678333"><ele>315.0</ele><time>2026-04-26T14:11:52.232Z</time></trkpt><trkpt lat="43.3506833" lon="13.26772"><ele>316.0</ele><time>2026-04-26T14:11:53.231Z</time></trkpt><trkpt lat="43.3509383" lon="13.2676067"><ele>317.0</ele><time>2026-04-26T14:11:54.237Z</time></trkpt><trkpt lat="43.35117" lon="13.2675"><ele>317.0</ele><time>2026-04-26T14:11:55.235Z</time></trkpt><trkpt lat="43.3513867" lon="13.2674"><ele>317.0</ele><time>2026-04-26T14:11:56.235Z</time></trkpt><trkpt lat="43.35159" lon="13.26733"><ele>317.0</ele><time>2026-04-26T14:11:57.235Z</time></trkpt><trkpt lat="43.3517833" lon="13.2673117"><ele>317.0</ele><time>2026-04-26T14:11:58.234Z</time></trkpt><trkpt lat="43.3519683" lon="13.2673667"><ele>317.0</ele><time>2026-04-26T14:11:59.229Z</time></trkpt><trkpt lat="43.3521517" lon="13.2674667"><ele>317.0</ele><time>2026-04-26T14:12:00.233Z</time></trkpt><trkpt lat="43.3523683" lon="13.2676367"><ele>317.0</ele><time>2026-04-26T14:12:01.228Z</time></trkpt><trkpt lat="43.3526033" lon="13.2678033"><ele>317.0</ele><time>2026-04-26T14:12:02.226Z</time></trkpt><trkpt lat="43.35285" lon="13.2679833"><ele>316.0</ele><time>2026-04-26T14:12:03.228Z</time></trkpt><trkpt lat="43.3530933" lon="13.2681617"><ele>315.0</ele><time>2026-04-26T14:12:04.233Z</time></trkpt><trkpt lat="43.3533417" lon="13.2683533"><ele>315.0</ele><time>2026-04-26T14:12:05.227Z</time></trkpt><trkpt lat="43.3535967" lon="13.2685367"><ele>315.0</ele><time>2026-04-26T14:12:06.229Z</time></trkpt><trkpt lat="43.3538567" lon="13.2687133"><ele>314.5</ele><time>2026-04-26T14:12:07.226Z</time></trkpt><trkpt lat="43.3541117" lon="13.2688933"><ele>314.0</ele><time>2026-04-26T14:12:08.227Z</time></trkpt><trkpt lat="43.35437" lon="13.2690733"><ele>313.0</ele><time>2026-04-26T14:12:09.228Z</time></trkpt><trkpt lat="43.3546317" lon="13.2692517"><ele>312.0</ele><time>2026-04-26T14:12:10.228Z</time></trkpt><trkpt lat="43.3548933" lon="13.269425"><ele>312.0</ele><time>2026-04-26T14:12:11.227Z</time></trkpt><trkpt lat="43.3551567" lon="13.2696"><ele>312.0</ele><time>2026-04-26T14:12:12.229Z</time></trkpt><trkpt lat="43.3554183" lon="13.2697783"><ele>310.0</ele><time>2026-04-26T14:12:13.237Z</time></trkpt><trkpt lat="43.35568" lon="13.26996"><ele>308.0</ele><time>2026-04-26T14:12:14.233Z</time></trkpt><trkpt lat="43.3559467" lon="13.2701383"><ele>308.0</ele><time>2026-04-26T14:12:15.235Z</time></trkpt><trkpt lat="43.3562083" lon="13.2703183"><ele>308.0</ele><time>2026-04-26T14:12:16.231Z</time></trkpt><trkpt lat="43.35647" lon="13.2705"><ele>306.5</ele><time>2026-04-26T14:12:17.232Z</time></trkpt><trkpt lat="43.3567283" lon="13.2706817"><ele>305.0</ele><time>2026-04-26T14:12:18.232Z</time></trkpt><trkpt lat="43.3569883" lon="13.270865"><ele>303.5</ele><time>2026-04-26T14:12:19.232Z</time></trkpt><trkpt lat="43.357255" lon="13.271045"><ele>302.0</ele><time>2026-04-26T14:12:20.233Z</time></trkpt><trkpt lat="43.357515" lon="13.2712183"><ele>302.0</ele><time>2026-04-26T14:12:21.231Z</time></trkpt><trkpt lat="43.357755" lon="13.2713883"><ele>302.0</ele><time>2026-04-26T14:12:22.233Z</time></trkpt><trkpt lat="43.3579833" lon="13.2715483"><ele>300.5</ele><time>2026-04-26T14:12:23.232Z</time></trkpt><trkpt lat="43.3581967" lon="13.2716983"><ele>299.0</ele><time>2026-04-26T14:12:24.237Z</time></trkpt><trkpt lat="43.3583983" lon="13.2718383"><ele>299.0</ele><time>2026-04-26T14:12:25.233Z</time></trkpt><trkpt lat="43.35859" lon="13.27197"><ele>299.0</ele><time>2026-04-26T14:12:26.23Z</time></trkpt><trkpt lat="43.3587783" lon="13.2720883"><ele>299.0</ele><time>2026-04-26T14:12:27.234Z</time></trkpt><trkpt lat="43.3589717" lon="13.27217"><ele>299.0</ele><time>2026-04-26T14:12:28.233Z</time></trkpt><trkpt lat="43.359175" lon="13.27221"><ele>299.0</ele><time>2026-04-26T14:12:29.233Z</time></trkpt><trkpt lat="43.3593817" lon="13.2721967"><ele>299.0</ele><time>2026-04-26T14:12:30.231Z</time></trkpt><trkpt lat="43.3595817" lon="13.2721317"><ele>299.0</ele><time>2026-04-26T14:12:31.231Z</time></trkpt><trkpt lat="43.35977" lon="13.272015"><ele>299.0</ele><time>2026-04-26T14:12:32.233Z</time></trkpt><trkpt lat="43.3599517" lon="13.2718317"><ele>299.0</ele><time>2026-04-26T14:12:33.245Z</time></trkpt><trkpt lat="43.3601383" lon="13.2715767"><ele>300.5</ele><time>2026-04-26T14:12:34.231Z</time></trkpt><trkpt lat="43.3603267" lon="13.2712917"><ele>302.0</ele><time>2026-04-26T14:12:35.233Z</time></trkpt><trkpt lat="43.36053" lon="13.2709967"><ele>296.0</ele><time>2026-04-26T14:12:36.234Z</time></trkpt><trkpt lat="43.36073" lon="13.270705"><ele>290.0</ele><time>2026-04-26T14:12:37.234Z</time></trkpt><trkpt lat="43.3609433" lon="13.2703933"><ele>290.0</ele><time>2026-04-26T14:12:38.235Z</time></trkpt><trkpt lat="43.3611617" lon="13.2700767"><ele>290.0</ele><time>2026-04-26T14:12:39.233Z</time></trkpt><trkpt lat="43.3613733" lon="13.2697717"><ele>286.5</ele><time>2026-04-26T14:12:40.233Z</time></trkpt><trkpt lat="43.361575" lon="13.2694767"><ele>283.0</ele><time>2026-04-26T14:12:41.229Z</time></trkpt><trkpt lat="43.3617683" lon="13.2691867"><ele>283.0</ele><time>2026-04-26T14:12:42.232Z</time></trkpt><trkpt lat="43.36196" lon="13.268905"><ele>283.0</ele><time>2026-04-26T14:12:43.233Z</time></trkpt><trkpt lat="43.36215" lon="13.2686317"><ele>278.5</ele><time>2026-04-26T14:12:44.23Z</time></trkpt><trkpt lat="43.362335" lon="13.2683617"><ele>274.0</ele><time>2026-04-26T14:12:45.234Z</time></trkpt><trkpt lat="43.362515" lon="13.2681"><ele>272.0</ele><time>2026-04-26T14:12:46.231Z</time></trkpt><trkpt lat="43.36269" lon="13.2678567"><ele>270.0</ele><time>2026-04-26T14:12:47.23Z</time></trkpt><trkpt lat="43.3628683" lon="13.2676367"><ele>269.5</ele><time>2026-04-26T14:12:48.232Z</time></trkpt><trkpt lat="43.363055" lon="13.2674483"><ele>269.0</ele><time>2026-04-26T14:12:49.231Z</time></trkpt><trkpt lat="43.3632467" lon="13.2672817"><ele>264.5</ele><time>2026-04-26T14:12:50.232Z</time></trkpt><trkpt lat="43.3634467" lon="13.2671333"><ele>260.0</ele><time>2026-04-26T14:12:51.237Z</time></trkpt><trkpt lat="43.3636617" lon="13.26702"><ele>258.5</ele><time>2026-04-26T14:12:52.23Z</time></trkpt><trkpt lat="43.3638867" lon="13.2669467"><ele>257.0</ele><time>2026-04-26T14:12:53.233Z</time></trkpt><trkpt lat="43.364105" lon="13.26691"><ele>257.0</ele><time>2026-04-26T14:12:54.232Z</time></trkpt><trkpt lat="43.3643167" lon="13.2668883"><ele>257.0</ele><time>2026-04-26T14:12:55.229Z</time></trkpt><trkpt lat="43.3645217" lon="13.2668683"><ele>257.0</ele><time>2026-04-26T14:12:56.232Z</time></trkpt><trkpt lat="43.3647217" lon="13.2668267"><ele>256.33333333333337</ele><time>2026-04-26T14:12:57.233Z</time></trkpt><trkpt lat="43.3649117" lon="13.2667633"><ele>255.66666666666669</ele><time>2026-04-26T14:12:58.233Z</time></trkpt><trkpt lat="43.3650933" lon="13.2666817"><ele>255.0</ele><time>2026-04-26T14:12:59.231Z</time></trkpt><trkpt lat="43.3652583" lon="13.26659"><ele>255.0</ele><time>2026-04-26T14:13:00.234Z</time></trkpt><trkpt lat="43.3654067" lon="13.2664983"><ele>255.0</ele><time>2026-04-26T14:13:01.233Z</time></trkpt><trkpt lat="43.365545" lon="13.2664117"><ele>255.0</ele><time>2026-04-26T14:13:02.231Z</time></trkpt><trkpt lat="43.3656967" lon="13.2663183"><ele>250.66666666666669</ele><time>2026-04-26T14:13:03.232Z</time></trkpt><trkpt lat="43.3658833" lon="13.266225"><ele>246.33333333333334</ele><time>2026-04-26T14:13:04.231Z</time></trkpt><trkpt lat="43.3661133" lon="13.2661283"><ele>242.0</ele><time>2026-04-26T14:13:05.23Z</time></trkpt><trkpt lat="43.36636" lon="13.2660317"><ele>242.5</ele><time>2026-04-26T14:13:06.234Z</time></trkpt><trkpt lat="43.3666067" lon="13.2659483"><ele>243.0</ele><time>2026-04-26T14:13:07.231Z</time></trkpt><trkpt lat="43.366845" lon="13.26588"><ele>243.0</ele><time>2026-04-26T14:13:08.234Z</time></trkpt><trkpt lat="43.367085" lon="13.2658233"><ele>243.0</ele><time>2026-04-26T14:13:09.242Z</time></trkpt><trkpt lat="43.36734" lon="13.265795"><ele>241.0</ele><time>2026-04-26T14:13:10.231Z</time></trkpt><trkpt lat="43.367605" lon="13.2657917"><ele>239.0</ele><time>2026-04-26T14:13:11.243Z</time></trkpt><trkpt lat="43.367885" lon="13.2658017"><ele>237.0</ele><time>2026-04-26T14:13:12.231Z</time></trkpt><trkpt lat="43.3681817" lon="13.2658283"><ele>235.0</ele><time>2026-04-26T14:13:13.232Z</time></trkpt><trkpt lat="43.3684817" lon="13.265845"><ele>235.0</ele><time>2026-04-26T14:13:14.238Z</time></trkpt><trkpt lat="43.3687667" lon="13.2658583"><ele>235.0</ele><time>2026-04-26T14:13:15.23Z</time></trkpt><trkpt lat="43.36904" lon="13.26587"><ele>234.5</ele><time>2026-04-26T14:13:16.232Z</time></trkpt><trkpt lat="43.3693017" lon="13.265885"><ele>234.0</ele><time>2026-04-26T14:13:17.231Z</time></trkpt><trkpt lat="43.36955" lon="13.2658967"><ele>232.0</ele><time>2026-04-26T14:13:18.23Z</time></trkpt><trkpt lat="43.3697833" lon="13.2659067"><ele>230.0</ele><time>2026-04-26T14:13:19.233Z</time></trkpt><trkpt lat="43.37" lon="13.2658933"><ele>230.0</ele><time>2026-04-26T14:13:20.232Z</time></trkpt><trkpt lat="43.3702167" lon="13.2658333"><ele>230.0</ele><time>2026-04-26T14:13:21.235Z</time></trkpt><trkpt lat="43.3704333" lon="13.265715"><ele>229.0</ele><time>2026-04-26T14:13:22.232Z</time></trkpt><trkpt lat="43.3706583" lon="13.2655583"><ele>228.0</ele><time>2026-04-26T14:13:23.229Z</time></trkpt><trkpt lat="43.3708933" lon="13.265395"><ele>228.0</ele><time>2026-04-26T14:13:24.23Z</time></trkpt><trkpt lat="43.3711217" lon="13.2652367"><ele>228.0</ele><time>2026-04-26T14:13:25.231Z</time></trkpt><trkpt lat="43.3713417" lon="13.2650833"><ele>224.5</ele><time>2026-04-26T14:13:26.233Z</time></trkpt><trkpt lat="43.3715533" lon="13.2649433"><ele>221.0</ele><time>2026-04-26T14:13:27.235Z</time></trkpt><trkpt lat="43.3717483" lon="13.264805"><ele>221.33333333333334</ele><time>2026-04-26T14:13:28.233Z</time></trkpt><trkpt lat="43.3719283" lon="13.264675"><ele>221.66666666666669</ele><time>2026-04-26T14:13:29.233Z</time></trkpt><trkpt lat="43.3720917" lon="13.2645567"><ele>222.0</ele><time>2026-04-26T14:13:30.233Z</time></trkpt><trkpt lat="43.3722233" lon="13.2644267"><ele>220.0</ele><time>2026-04-26T14:13:31.232Z</time></trkpt><trkpt lat="43.372315" lon="13.2642767"><ele>218.0</ele><time>2026-04-26T14:13:32.234Z</time></trkpt><trkpt lat="43.3723667" lon="13.26412"><ele>216.0</ele><time>2026-04-26T14:13:33.233Z</time></trkpt><trkpt lat="43.37237" lon="13.263955"><ele>214.0</ele><time>2026-04-26T14:13:34.231Z</time></trkpt><trkpt lat="43.3723117" lon="13.2637967"><ele>213.66666666666666</ele><time>2026-04-26T14:13:35.229Z</time></trkpt><trkpt lat="43.3722267" lon="13.2636417"><ele>213.33333333333331</ele><time>2026-04-26T14:13:36.237Z</time></trkpt><trkpt lat="43.3720433" lon="13.2634817"><ele>213.0</ele><time>2026-04-26T14:13:37.231Z</time></trkpt><trkpt lat="43.3718333" lon="13.2633183"><ele>213.0</ele><time>2026-04-26T14:13:38.232Z</time></trkpt><trkpt lat="43.3716267" lon="13.263145"><ele>213.0</ele><time>2026-04-26T14:13:39.233Z</time></trkpt><trkpt lat="43.371415" lon="13.262975"><ele>211.33333333333331</ele><time>2026-04-26T14:13:40.233Z</time></trkpt><trkpt lat="43.3712233" lon="13.2628083"><ele>209.66666666666666</ele><time>2026-04-26T14:13:41.232Z</time></trkpt><trkpt lat="43.3710417" lon="13.2626517"><ele>208.0</ele><time>2026-04-26T14:13:42.232Z</time></trkpt><trkpt lat="43.3708783" lon="13.2624967"><ele>208.0</ele><time>2026-04-26T14:13:43.232Z</time></trkpt><trkpt lat="43.37074" lon="13.2623283"><ele>208.0</ele><time>2026-04-26T14:13:44.233Z</time></trkpt><trkpt lat="43.3706233" lon="13.2621233"><ele>208.0</ele><time>2026-04-26T14:13:45.237Z</time></trkpt><trkpt lat="43.3705333" lon="13.261885"><ele>209.33333333333331</ele><time>2026-04-26T14:13:46.233Z</time></trkpt><trkpt lat="43.3704683" lon="13.2616317"><ele>210.66666666666669</ele><time>2026-04-26T14:13:47.233Z</time></trkpt><trkpt lat="43.37042" lon="13.261385"><ele>212.0</ele><time>2026-04-26T14:13:48.232Z</time></trkpt><trkpt lat="43.3703983" lon="13.2611367"><ele>214.0</ele><time>2026-04-26T14:13:49.232Z</time></trkpt><trkpt lat="43.3704167" lon="13.26088"><ele>216.0</ele><time>2026-04-26T14:13:50.231Z</time></trkpt><trkpt lat="43.37048" lon="13.2605933"><ele>218.0</ele><time>2026-04-26T14:13:51.233Z</time></trkpt><trkpt lat="43.3705617" lon="13.2602883"><ele>218.0</ele><time>2026-04-26T14:13:52.233Z</time></trkpt><trkpt lat="43.3706483" lon="13.259985"><ele>218.0</ele><time>2026-04-26T14:13:53.232Z</time></trkpt><trkpt lat="43.370725" lon="13.2596933"><ele>220.0</ele><time>2026-04-26T14:13:54.233Z</time></trkpt><trkpt lat="43.3708" lon="13.259415"><ele>222.0</ele><time>2026-04-26T14:13:55.233Z</time></trkpt><trkpt lat="43.3708833" lon="13.2591533"><ele>224.0</ele><time>2026-04-26T14:13:56.232Z</time></trkpt><trkpt lat="43.370995" lon="13.2589167"><ele>226.0</ele><time>2026-04-26T14:13:57.241Z</time></trkpt><trkpt lat="43.3711367" lon="13.2586867"><ele>228.0</ele><time>2026-04-26T14:13:58.234Z</time></trkpt><trkpt lat="43.3713017" lon="13.25846"><ele>226.0</ele><time>2026-04-26T14:13:59.232Z</time></trkpt><trkpt lat="43.3714883" lon="13.258235"><ele>224.0</ele><time>2026-04-26T14:14:00.233Z</time></trkpt><trkpt lat="43.37169" lon="13.2580217"><ele>228.5</ele><time>2026-04-26T14:14:01.232Z</time></trkpt><trkpt lat="43.3718933" lon="13.2578283"><ele>233.0</ele><time>2026-04-26T14:14:02.233Z</time></trkpt><trkpt lat="43.37208" lon="13.2576467"><ele>232.66666666666669</ele><time>2026-04-26T14:14:03.234Z</time></trkpt><trkpt lat="43.37224" lon="13.25746"><ele>232.33333333333331</ele><time>2026-04-26T14:14:04.23Z</time></trkpt><trkpt lat="43.37237" lon="13.2572633"><ele>232.0</ele><time>2026-04-26T14:14:05.232Z</time></trkpt><trkpt lat="43.3724733" lon="13.2570617"><ele>232.0</ele><time>2026-04-26T14:14:06.233Z</time></trkpt><trkpt lat="43.3725583" lon="13.2568767"><ele>232.0</ele><time>2026-04-26T14:14:07.232Z</time></trkpt><trkpt lat="43.37264" lon="13.256735"><ele>232.0</ele><time>2026-04-26T14:14:08.233Z</time></trkpt><trkpt lat="43.3727317" lon="13.25667"><ele>232.0</ele><time>2026-04-26T14:14:09.232Z</time></trkpt><trkpt lat="43.372845" lon="13.2566883"><ele>232.0</ele><time>2026-04-26T14:14:10.229Z</time></trkpt><trkpt lat="43.372955" lon="13.2567817"><ele>232.0</ele><time>2026-04-26T14:14:11.234Z</time></trkpt><trkpt lat="43.3730633" lon="13.2569517"><ele>232.0</ele><time>2026-04-26T14:14:12.231Z</time></trkpt><trkpt lat="43.3731783" lon="13.25718"><ele>231.66666666666666</ele><time>2026-04-26T14:14:13.231Z</time></trkpt><trkpt lat="43.3732933" lon="13.2574167"><ele>231.33333333333331</ele><time>2026-04-26T14:14:14.231Z</time></trkpt><trkpt lat="43.3733967" lon="13.257635"><ele>231.0</ele><time>2026-04-26T14:14:15.229Z</time></trkpt><trkpt lat="43.3734833" lon="13.257835"><ele>231.0</ele><time>2026-04-26T14:14:16.234Z</time></trkpt><trkpt lat="43.373575" lon="13.25802"><ele>231.0</ele><time>2026-04-26T14:14:17.23Z</time></trkpt><trkpt lat="43.3736933" lon="13.25817"><ele>231.0</ele><time>2026-04-26T14:14:18.232Z</time></trkpt><trkpt lat="43.3738417" lon="13.2582933"><ele>233.0</ele><time>2026-04-26T14:14:19.233Z</time></trkpt><trkpt lat="43.3740167" lon="13.25838"><ele>235.0</ele><time>2026-04-26T14:14:20.23Z</time></trkpt><trkpt lat="43.3742" lon="13.2584567"><ele>237.0</ele><time>2026-04-26T14:14:21.233Z</time></trkpt><trkpt lat="43.3743733" lon="13.2585233"><ele>237.0</ele><time>2026-04-26T14:14:22.23Z</time></trkpt><trkpt lat="43.37453" lon="13.2585867"><ele>237.0</ele><time>2026-04-26T14:14:23.228Z</time></trkpt><trkpt lat="43.3746717" lon="13.2586217"><ele>237.0</ele><time>2026-04-26T14:14:24.233Z</time></trkpt><trkpt lat="43.374805" lon="13.258615"><ele>237.0</ele><time>2026-04-26T14:14:25.232Z</time></trkpt><trkpt lat="43.374935" lon="13.2585517"><ele>239.66666666666669</ele><time>2026-04-26T14:14:26.23Z</time></trkpt><trkpt lat="43.3750633" lon="13.258425"><ele>242.33333333333334</ele><time>2026-04-26T14:14:27.232Z</time></trkpt><trkpt lat="43.3751867" lon="13.25827"><ele>245.0</ele><time>2026-04-26T14:14:28.23Z</time></trkpt><trkpt lat="43.3753133" lon="13.2581283"><ele>247.0</ele><time>2026-04-26T14:14:29.227Z</time></trkpt><trkpt lat="43.375445" lon="13.2580183"><ele>249.0</ele><time>2026-04-26T14:14:30.234Z</time></trkpt><trkpt lat="43.37558" lon="13.2579617"><ele>251.0</ele><time>2026-04-26T14:14:31.232Z</time></trkpt><trkpt lat="43.37571" lon="13.257945"><ele>253.0</ele><time>2026-04-26T14:14:32.232Z</time></trkpt><trkpt lat="43.3758417" lon="13.25798"><ele>253.5</ele><time>2026-04-26T14:14:33.234Z</time></trkpt><trkpt lat="43.3759533" lon="13.25806"><ele>254.0</ele><time>2026-04-26T14:14:34.234Z</time></trkpt><trkpt lat="43.3760483" lon="13.258155"><ele>254.5</ele><time>2026-04-26T14:14:35.233Z</time></trkpt><trkpt lat="43.376125" lon="13.2582617"><ele>255.0</ele><time>2026-04-26T14:14:36.23Z</time></trkpt><trkpt lat="43.3762033" lon="13.2583533"><ele>254.4</ele><time>2026-04-26T14:14:37.23Z</time></trkpt><trkpt lat="43.37629" lon="13.2584167"><ele>253.8</ele><time>2026-04-26T14:14:38.234Z</time></trkpt><trkpt lat="43.3763833" lon="13.25844"><ele>253.2</ele><time>2026-04-26T14:14:39.243Z</time></trkpt><trkpt lat="43.3764767" lon="13.2584367"><ele>252.6</ele><time>2026-04-26T14:14:40.232Z</time></trkpt><trkpt lat="43.376575" lon="13.2584117"><ele>252.0</ele><time>2026-04-26T14:14:41.23Z</time></trkpt><trkpt lat="43.3766717" lon="13.258385"><ele>252.0</ele><time>2026-04-26T14:14:42.23Z</time></trkpt><trkpt lat="43.3767567" lon="13.2583383"><ele>252.0</ele><time>2026-04-26T14:14:43.228Z</time></trkpt><trkpt lat="43.3768183" lon="13.258265"><ele>252.0</ele><time>2026-04-26T14:14:44.23Z</time></trkpt><trkpt lat="43.3768633" lon="13.2581567"><ele>252.0</ele><time>2026-04-26T14:14:45.233Z</time></trkpt><trkpt lat="43.37689" lon="13.2580283"><ele>252.0</ele><time>2026-04-26T14:14:46.231Z</time></trkpt><trkpt lat="43.376915" lon="13.2578783"><ele>252.25</ele><time>2026-04-26T14:14:47.231Z</time></trkpt><trkpt lat="43.3769467" lon="13.2577217"><ele>252.5</ele><time>2026-04-26T14:14:48.232Z</time></trkpt><trkpt lat="43.376985" lon="13.2575617"><ele>252.75</ele><time>2026-04-26T14:14:49.231Z</time></trkpt><trkpt lat="43.3770267" lon="13.2574033"><ele>253.0</ele><time>2026-04-26T14:14:50.232Z</time></trkpt><trkpt lat="43.3770783" lon="13.2572483"><ele>254.25</ele><time>2026-04-26T14:14:51.232Z</time></trkpt><trkpt lat="43.3771283" lon="13.2570967"><ele>255.5</ele><time>2026-04-26T14:14:52.232Z</time></trkpt><trkpt lat="43.3771817" lon="13.2569467"><ele>256.75</ele><time>2026-04-26T14:14:53.232Z</time></trkpt><trkpt lat="43.3772317" lon="13.2568"><ele>258.0</ele><time>2026-04-26T14:14:54.233Z</time></trkpt><trkpt lat="43.3772833" lon="13.2566633"><ele>256.1666666666667</ele><time>2026-04-26T14:14:55.232Z</time></trkpt><trkpt lat="43.3773333" lon="13.2565367"><ele>254.33333333333331</ele><time>2026-04-26T14:14:56.233Z</time></trkpt><trkpt lat="43.3773767" lon="13.256425"><ele>252.5</ele><time>2026-04-26T14:14:57.234Z</time></trkpt><trkpt lat="43.3774167" lon="13.2563283"><ele>250.66666666666666</ele><time>2026-04-26T14:14:58.232Z</time></trkpt><trkpt lat="43.3774567" lon="13.256255"><ele>248.83333333333331</ele><time>2026-04-26T14:14:59.232Z</time></trkpt><trkpt lat="43.3775217" lon="13.2562117"><ele>247.0</ele><time>2026-04-26T14:15:01.234Z</time></trkpt><trkpt lat="43.3775833" lon="13.25618"><ele>247.0</ele><time>2026-04-26T14:15:04.232Z</time></trkpt><trkpt lat="43.3776117" lon="13.2560983"><ele>247.0</ele><time>2026-04-26T14:19:25.23Z</time></trkpt><trkpt lat="43.3775883" lon="13.2560133"><ele>247.0</ele><time>2026-04-26T14:19:27.233Z</time></trkpt><trkpt lat="43.3776033" lon="13.2559233"><ele>247.0</ele><time>2026-04-26T14:19:29.232Z</time></trkpt><trkpt lat="43.377675" lon="13.255815"><ele>247.0</ele><time>2026-04-26T14:19:31.231Z</time></trkpt><trkpt lat="43.3777167" lon="13.255745"><ele>247.0</ele><time>2026-04-26T14:19:32.233Z</time></trkpt><trkpt lat="43.37776" lon="13.2556717"><ele>247.0</ele><time>2026-04-26T14:19:33.233Z</time></trkpt><trkpt lat="43.3778017" lon="13.255595"><ele>247.66666666666666</ele><time>2026-04-26T14:19:34.232Z</time></trkpt><trkpt lat="43.3778483" lon="13.2555217"><ele>248.33333333333331</ele><time>2026-04-26T14:19:35.23Z</time></trkpt><trkpt lat="43.3778933" lon="13.255445"><ele>249.0</ele><time>2026-04-26T14:19:36.232Z</time></trkpt><trkpt lat="43.3779433" lon="13.25536"><ele>249.66666666666669</ele><time>2026-04-26T14:19:37.232Z</time></trkpt><trkpt lat="43.3779917" lon="13.2552667"><ele>250.33333333333334</ele><time>2026-04-26T14:19:38.23Z</time></trkpt><trkpt lat="43.3780483" lon="13.2551633"><ele>251.0</ele><time>2026-04-26T14:19:39.233Z</time></trkpt><trkpt lat="43.37811" lon="13.2550617"><ele>249.83333333333334</ele><time>2026-04-26T14:19:40.23Z</time></trkpt><trkpt lat="43.3781717" lon="13.2549533"><ele>248.66666666666669</ele><time>2026-04-26T14:19:41.236Z</time></trkpt><trkpt lat="43.378235" lon="13.254855"><ele>247.5</ele><time>2026-04-26T14:19:42.23Z</time></trkpt><trkpt lat="43.378295" lon="13.2547633"><ele>246.33333333333331</ele><time>2026-04-26T14:19:43.23Z</time></trkpt><trkpt lat="43.3783467" lon="13.2546833"><ele>245.16666666666666</ele><time>2026-04-26T14:19:44.23Z</time></trkpt><trkpt lat="43.3783917" lon="13.2546117"><ele>244.0</ele><time>2026-04-26T14:19:45.233Z</time></trkpt><trkpt lat="43.3784433" lon="13.25449"><ele>244.0</ele><time>2026-04-26T14:19:47.23Z</time></trkpt><trkpt lat="43.3784167" lon="13.254395"><ele>243.99999999999997</ele><time>2026-04-26T14:19:49.231Z</time></trkpt><trkpt lat="43.378325" lon="13.254315"><ele>243.99999999999997</ele><time>2026-04-26T14:19:51.234Z</time></trkpt><trkpt lat="43.3782383" lon="13.2542117"><ele>244.0</ele><time>2026-04-26T14:19:53.23Z</time></trkpt><trkpt lat="43.3781833" lon="13.2540733"><ele>244.0</ele><time>2026-04-26T14:19:55.236Z</time></trkpt><trkpt lat="43.37822" lon="13.25393"><ele>244.49999999999997</ele><time>2026-04-26T14:19:57.233Z</time></trkpt><trkpt lat="43.3782717" lon="13.2538467"><ele>245.0</ele><time>2026-04-26T14:19:58.233Z</time></trkpt><trkpt lat="43.378315" lon="13.2537617"><ele>245.5</ele><time>2026-04-26T14:19:59.232Z</time></trkpt><trkpt lat="43.3783567" lon="13.2536767"><ele>246.0</ele><time>2026-04-26T14:20:00.235Z</time></trkpt><trkpt lat="43.37841" lon="13.2535983"><ele>246.49999999999997</ele><time>2026-04-26T14:20:01.233Z</time></trkpt><trkpt lat="43.378465" lon="13.2535183"><ele>247.0</ele><time>2026-04-26T14:20:02.232Z</time></trkpt><trkpt lat="43.37852" lon="13.253435"><ele>246.99999999999997</ele><time>2026-04-26T14:20:03.248Z</time></trkpt><trkpt lat="43.3785717" lon="13.2533433"><ele>247.0</ele><time>2026-04-26T14:20:04.24Z</time></trkpt><trkpt lat="43.3786233" lon="13.253245"><ele>247.0</ele><time>2026-04-26T14:20:05.232Z</time></trkpt><trkpt lat="43.37866" lon="13.2531383"><ele>247.0</ele><time>2026-04-26T14:20:06.234Z</time></trkpt><trkpt lat="43.3786833" lon="13.2530317"><ele>246.99999999999997</ele><time>2026-04-26T14:20:07.233Z</time></trkpt><trkpt lat="43.3786933" lon="13.2529283"><ele>247.0</ele><time>2026-04-26T14:20:08.235Z</time></trkpt><trkpt lat="43.3786867" lon="13.2528367"><ele>247.0</ele><time>2026-04-26T14:20:09.232Z</time></trkpt><trkpt lat="43.37869" lon="13.2527017"><ele>247.0</ele><time>2026-04-26T14:20:11.232Z</time></trkpt><trkpt lat="43.37872" lon="13.2526233"><ele>247.0</ele><time>2026-04-26T14:20:13.234Z</time></trkpt><trkpt lat="43.3787867" lon="13.2526117"><ele>247.0</ele><time>2026-04-26T14:20:15.235Z</time></trkpt></trkseg></trk></gpx>